<?xml version='1.0' encoding='UTF-8'?><gpx version="1.1" creator="JPX - https://github.com/jenetics/jpx" xmlns="http://www.topografix.com/GPX/1/1"><trk><trkseg><trkpt lat="43.11698911863442" lon="12.169415416458579"><ele>261.0</ele><time>2026-04-25T08:32:59.999Z</time></trkpt><trkpt lat="43.1168694476496" lon="12.169386552647946"><ele>261.0</ele><time>2026-04-25T08:33:01.999Z</time></trkpt><trkpt lat="43.11680174964447" lon="12.169267763518768"><ele>261.0</ele><time>2026-04-25T08:33:03.998Z</time></trkpt><trkpt lat="43.11679569885763" lon="12.169171227407434"><ele>261.0</ele><time>2026-04-25T08:33:04.998Z</time></trkpt><trkpt lat="43.11677282547174" lon="12.169087015059274"><ele>261.0</ele><time>2026-04-25T08:33:05.998Z</time></trkpt><trkpt lat="43.116736577135704" lon="12.169001598900591"><ele>261.0</ele><time>2026-04-25T08:33:06.998Z</time></trkpt><trkpt lat="43.116717302682574" lon="12.16890287558873"><ele>260.6666666666667</ele><time>2026-04-25T08:33:07.998Z</time></trkpt><trkpt lat="43.1166865135811" lon="12.168811093924361"><ele>260.3333333333333</ele><time>2026-04-25T08:33:08.998Z</time></trkpt><trkpt lat="43.11663798097496" lon="12.168733162031009"><ele>260.0</ele><time>2026-04-25T08:33:09.998Z</time></trkpt><trkpt lat="43.11658851314475" lon="12.168677279185411"><ele>259.66666666666663</ele><time>2026-04-25T08:33:10.998Z</time></trkpt><trkpt lat="43.11653228779119" lon="12.168590170388686"><ele>259.3333333333333</ele><time>2026-04-25T08:33:12.998Z</time></trkpt><trkpt lat="43.11640246431087" lon="12.168613454593476"><ele>259.0</ele><time>2026-04-25T08:35:00.999Z</time></trkpt><trkpt lat="43.11632160721969" lon="12.16869529148616"><ele>258.75</ele><time>2026-04-25T08:35:01.999Z</time></trkpt><trkpt lat="43.116222008774116" lon="12.16879897166186"><ele>258.5</ele><time>2026-04-25T08:35:02.999Z</time></trkpt><trkpt lat="43.116120532397844" lon="12.168901908981542"><ele>258.25</ele><time>2026-04-25T08:35:03.999Z</time></trkpt><trkpt lat="43.11600978701537" lon="12.169006175692633"><ele>258.0</ele><time>2026-04-25T08:35:04.999Z</time></trkpt><trkpt lat="43.11590208339456" lon="12.169108798123258"><ele>258.0</ele><time>2026-04-25T08:35:05.999Z</time></trkpt><trkpt lat="43.11581011659407" lon="12.169199272080501"><ele>258.0</ele><time>2026-04-25T08:35:06.999Z</time></trkpt><trkpt lat="43.11572446416053" lon="12.169285870875386"><ele>258.0</ele><time>2026-04-25T08:35:07.999Z</time></trkpt><trkpt lat="43.115647493832626" lon="12.169393141818123"><ele>258.0</ele><time>2026-04-25T08:35:08.998Z</time></trkpt><trkpt lat="43.11557603532345" lon="12.16952365748418"><ele>258.0</ele><time>2026-04-25T08:35:09.998Z</time></trkpt><trkpt lat="43.11551304181491" lon="12.16970143303079"><ele>259.0</ele><time>2026-04-25T08:35:10.998Z</time></trkpt><trkpt lat="43.11544709017644" lon="12.169914414151298"><ele>260.0</ele><time>2026-04-25T08:35:11.998Z</time></trkpt><trkpt lat="43.11536998706196" lon="12.170138812996145"><ele>261.0</ele><time>2026-04-25T08:35:12.998Z</time></trkpt><trkpt lat="43.115282048848016" lon="12.170374229463496"><ele>261.0</ele><time>2026-04-25T08:35:13.998Z</time></trkpt><trkpt lat="43.11518839612481" lon="12.170611204942695"><ele>261.0</ele><time>2026-04-25T08:35:14.998Z</time></trkpt><trkpt lat="43.11509254299094" lon="12.170857780118414"><ele>261.0</ele><time>2026-04-25T08:35:15.998Z</time></trkpt><trkpt lat="43.11500836201026" lon="12.171117644357416"><ele>261.0</ele><time>2026-04-25T08:35:16.998Z</time></trkpt><trkpt lat="43.11492654508534" lon="12.17138895089982"><ele>261.0</ele><time>2026-04-25T08:35:17.998Z</time></trkpt><trkpt lat="43.114839655349506" lon="12.171649430672367"><ele>261.0</ele><time>2026-04-25T08:35:18.998Z</time></trkpt><trkpt lat="43.11474732625254" lon="12.17189128257218"><ele>261.0</ele><time>2026-04-25T08:35:19.998Z</time></trkpt><trkpt lat="43.114648844201966" lon="12.17208690921685"><ele>261.0</ele><time>2026-04-25T08:35:21Z</time></trkpt><trkpt lat="43.114548949276205" lon="12.172299884747469"><ele>261.0</ele><time>2026-04-25T08:35:22Z</time></trkpt><trkpt lat="43.11441692432135" lon="12.172499587495356"><ele>261.0</ele><time>2026-04-25T08:35:23Z</time></trkpt><trkpt lat="43.11430143358886" lon="12.172693001198516"><ele>261.0</ele><time>2026-04-25T08:35:24Z</time></trkpt><trkpt lat="43.11419911306934" lon="12.172874242484735"><ele>261.0</ele><time>2026-04-25T08:35:25Z</time></trkpt><trkpt lat="43.1141253776571" lon="12.17305061622846"><ele>260.0</ele><time>2026-04-25T08:35:26Z</time></trkpt><trkpt lat="43.114088694471754" lon="12.173236713599996"><ele>259.0</ele><time>2026-04-25T08:35:27Z</time></trkpt><trkpt lat="43.114070585895206" lon="12.173452013945864"><ele>258.0</ele><time>2026-04-25T08:35:28Z</time></trkpt><trkpt lat="43.1140590714868" lon="12.173693884312746"><ele>258.0</ele><time>2026-04-25T08:35:29Z</time></trkpt><trkpt lat="43.114042035557105" lon="12.173951677449466"><ele>258.0</ele><time>2026-04-25T08:35:30Z</time></trkpt><trkpt lat="43.11399309096853" lon="12.174206462186802"><ele>258.0</ele><time>2026-04-25T08:35:31Z</time></trkpt><trkpt lat="43.11391869377703" lon="12.174456634233287"><ele>258.3333333333333</ele><time>2026-04-25T08:35:32Z</time></trkpt><trkpt lat="43.11381747363419" lon="12.174704861995842"><ele>258.66666666666663</ele><time>2026-04-25T08:35:33Z</time></trkpt><trkpt lat="43.11370951023732" lon="12.174963102085693"><ele>259.0</ele><time>2026-04-25T08:35:34Z</time></trkpt><trkpt lat="43.11359544613638" lon="12.175200234531982"><ele>259.0</ele><time>2026-04-25T08:35:35Z</time></trkpt><trkpt lat="43.113493796744486" lon="12.175421235452005"><ele>259.0</ele><time>2026-04-25T08:35:36Z</time></trkpt><trkpt lat="43.11340142715295" lon="12.17561852911904"><ele>259.0</ele><time>2026-04-25T08:35:37Z</time></trkpt><trkpt lat="43.11332570913185" lon="12.175796633076173"><ele>259.3333333333333</ele><time>2026-04-25T08:35:38Z</time></trkpt><trkpt lat="43.11325767994518" lon="12.175972920225487"><ele>259.6666666666667</ele><time>2026-04-25T08:35:39Z</time></trkpt><trkpt lat="43.11319614608416" lon="12.176196100911252"><ele>260.0</ele><time>2026-04-25T08:35:40Z</time></trkpt><trkpt lat="43.11315342624199" lon="12.176449553415763"><ele>259.33333333333337</ele><time>2026-04-25T08:35:41Z</time></trkpt><trkpt lat="43.113081451725435" lon="12.176707234534422"><ele>258.6666666666667</ele><time>2026-04-25T08:35:42Z</time></trkpt><trkpt lat="43.11302522760523" lon="12.176987262845572"><ele>258.0</ele><time>2026-04-25T08:35:43Z</time></trkpt><trkpt lat="43.11296940087721" lon="12.17727870270488"><ele>258.0</ele><time>2026-04-25T08:35:44Z</time></trkpt><trkpt lat="43.11291008140209" lon="12.17757450318664"><ele>258.0</ele><time>2026-04-25T08:35:45Z</time></trkpt><trkpt lat="43.112849269084556" lon="12.17787471072076"><ele>258.0</ele><time>2026-04-25T08:35:46Z</time></trkpt><trkpt lat="43.11278669306089" lon="12.178183103234826"><ele>258.0</ele><time>2026-04-25T08:35:47Z</time></trkpt><trkpt lat="43.11272117566253" lon="12.178495105996495"><ele>259.0</ele><time>2026-04-25T08:35:48Z</time></trkpt><trkpt lat="43.11265930744633" lon="12.178801641396328"><ele>260.0</ele><time>2026-04-25T08:35:49Z</time></trkpt><trkpt lat="43.11259895431587" lon="12.179109441991214"><ele>260.5</ele><time>2026-04-25T08:35:50Z</time></trkpt><trkpt lat="43.112531630227444" lon="12.179415166111792"><ele>261.0</ele><time>2026-04-25T08:35:51Z</time></trkpt><trkpt lat="43.11242191150759" lon="12.179699467098658"><ele>259.5</ele><time>2026-04-25T08:35:52Z</time></trkpt><trkpt lat="43.11229003413857" lon="12.179978467843059"><ele>258.0</ele><time>2026-04-25T08:35:53Z</time></trkpt><trkpt lat="43.11216192405332" lon="12.180272642348875"><ele>258.0</ele><time>2026-04-25T08:35:54Z</time></trkpt><trkpt lat="43.1120136411" lon="12.180552042732243"><ele>258.0</ele><time>2026-04-25T08:35:55Z</time></trkpt><trkpt lat="43.11187437030745" lon="12.180834607418186"><ele>259.5</ele><time>2026-04-25T08:35:56Z</time></trkpt><trkpt lat="43.11173864195645" lon="12.181121393746153"><ele>261.0</ele><time>2026-04-25T08:35:57Z</time></trkpt><trkpt lat="43.111601715529304" lon="12.181408901818731"><ele>260.5</ele><time>2026-04-25T08:35:58Z</time></trkpt><trkpt lat="43.1114590126951" lon="12.181693626707817"><ele>260.0</ele><time>2026-04-25T08:35:59Z</time></trkpt><trkpt lat="43.11130796622657" lon="12.18197107290401"><ele>260.0</ele><time>2026-04-25T08:36:00Z</time></trkpt><trkpt lat="43.111143295442446" lon="12.1822370489867"><ele>260.0</ele><time>2026-04-25T08:36:01Z</time></trkpt><trkpt lat="43.11096229327095" lon="12.182489768078078"><ele>260.5</ele><time>2026-04-25T08:36:02Z</time></trkpt><trkpt lat="43.11078981570773" lon="12.18274981411554"><ele>261.0</ele><time>2026-04-25T08:36:03Z</time></trkpt><trkpt lat="43.11062257007109" lon="12.183009567528993"><ele>260.0</ele><time>2026-04-25T08:36:04Z</time></trkpt><trkpt lat="43.11045143597616" lon="12.183265208564741"><ele>259.0</ele><time>2026-04-25T08:36:05Z</time></trkpt><trkpt lat="43.11028584190726" lon="12.183525680353453"><ele>259.0</ele><time>2026-04-25T08:36:06Z</time></trkpt><trkpt lat="43.1101382419922" lon="12.18380763926047"><ele>259.0</ele><time>2026-04-25T08:36:06.999Z</time></trkpt><trkpt lat="43.11001426766822" lon="12.184116949021067"><ele>258.5</ele><time>2026-04-25T08:36:07.999Z</time></trkpt><trkpt lat="43.10989846673987" lon="12.184430796647813"><ele>258.0</ele><time>2026-04-25T08:36:08.999Z</time></trkpt><trkpt lat="43.109784407195995" lon="12.184749709761533"><ele>258.0</ele><time>2026-04-25T08:36:09.999Z</time></trkpt><trkpt lat="43.10966650073742" lon="12.185060346870392"><ele>258.0</ele><time>2026-04-25T08:36:10.999Z</time></trkpt><trkpt lat="43.109540679122595" lon="12.185369953298965"><ele>258.0</ele><time>2026-04-25T08:36:11.999Z</time></trkpt><trkpt lat="43.10940872512699" lon="12.185672959190263"><ele>258.0</ele><time>2026-04-25T08:36:12.999Z</time></trkpt><trkpt lat="43.109266750989775" lon="12.185957725410482"><ele>258.0</ele><time>2026-04-25T08:36:13.999Z</time></trkpt><trkpt lat="43.10911618120093" lon="12.186211111839645"><ele>258.0</ele><time>2026-04-25T08:36:14.999Z</time></trkpt><trkpt lat="43.10893270667765" lon="12.186413357414787"><ele>259.5</ele><time>2026-04-25T08:36:15.999Z</time></trkpt><trkpt lat="43.10874628723643" lon="12.186612876712525"><ele>261.0</ele><time>2026-04-25T08:36:16.999Z</time></trkpt><trkpt lat="43.108534422946306" lon="12.186780894730523"><ele>261.0</ele><time>2026-04-25T08:36:17.999Z</time></trkpt><trkpt lat="43.10832614656795" lon="12.186958689375281"><ele>261.0</ele><time>2026-04-25T08:36:18.999Z</time></trkpt><trkpt lat="43.10812326160791" lon="12.187144626033056"><ele>260.5</ele><time>2026-04-25T08:36:19.999Z</time></trkpt><trkpt lat="43.10790860585386" lon="12.187301174086"><ele>260.0</ele><time>2026-04-25T08:36:20.999Z</time></trkpt><trkpt lat="43.10769089682182" lon="12.187443840409987"><ele>260.0</ele><time>2026-04-25T08:36:21.999Z</time></trkpt><trkpt lat="43.10746260383474" lon="12.187550141458402"><ele>260.0</ele><time>2026-04-25T08:36:22.999Z</time></trkpt><trkpt lat="43.10723983157124" lon="12.187673934035953"><ele>259.0</ele><time>2026-04-25T08:36:23.999Z</time></trkpt><trkpt lat="43.107020416438274" lon="12.187803486578932"><ele>258.0</ele><time>2026-04-25T08:36:24.999Z</time></trkpt><trkpt lat="43.10682218286335" lon="12.18795293671951"><ele>258.0</ele><time>2026-04-25T08:36:25.999Z</time></trkpt><trkpt lat="43.10664304276876" lon="12.188093034682625"><ele>258.0</ele><time>2026-04-25T08:36:26.999Z</time></trkpt><trkpt lat="43.10649355827795" lon="12.188213108157619"><ele>258.0</ele><time>2026-04-25T08:36:27.999Z</time></trkpt><trkpt lat="43.106375842815936" lon="12.188318461701792"><ele>259.5</ele><time>2026-04-25T08:36:28.999Z</time></trkpt><trkpt lat="43.1062887900139" lon="12.1884382848363"><ele>261.0</ele><time>2026-04-25T08:36:29.999Z</time></trkpt><trkpt lat="43.106234504175276" lon="12.188565422654472"><ele>262.5</ele><time>2026-04-25T08:36:30.999Z</time></trkpt><trkpt lat="43.10626875622377" lon="12.18874448757788"><ele>264.0</ele><time>2026-04-25T08:36:31.999Z</time></trkpt><trkpt lat="43.10631858172656" lon="12.18891067484971"><ele>264.6666666666667</ele><time>2026-04-25T08:36:32.999Z</time></trkpt><trkpt lat="43.106409759054436" lon="12.18907009246048"><ele>265.33333333333337</ele><time>2026-04-25T08:36:33.999Z</time></trkpt><trkpt lat="43.10650341651396" lon="12.189239619957132"><ele>266.0</ele><time>2026-04-25T08:36:34.999Z</time></trkpt><trkpt lat="43.10659614574408" lon="12.189426276879061"><ele>266.0</ele><time>2026-04-25T08:36:35.999Z</time></trkpt><trkpt lat="43.10669783813686" lon="12.189624602883748"><ele>266.0</ele><time>2026-04-25T08:36:36.999Z</time></trkpt><trkpt lat="43.106806616486075" lon="12.189834207102347"><ele>266.0</ele><time>2026-04-25T08:36:37.999Z</time></trkpt><trkpt lat="43.106920126032705" lon="12.190053216040408"><ele>269.33333333333337</ele><time>2026-04-25T08:36:38.999Z</time></trkpt><trkpt lat="43.107028997033225" lon="12.190278240379522"><ele>272.6666666666667</ele><time>2026-04-25T08:36:39.999Z</time></trkpt><trkpt lat="43.10715003216026" lon="12.190506452934965"><ele>276.0</ele><time>2026-04-25T08:36:40.999Z</time></trkpt><trkpt lat="43.10727124668476" lon="12.19074042967645"><ele>275.3333333333333</ele><time>2026-04-25T08:36:41.999Z</time></trkpt><trkpt lat="43.10739721976832" lon="12.190980529953912"><ele>274.66666666666663</ele><time>2026-04-25T08:36:42.999Z</time></trkpt><trkpt lat="43.10752365433755" lon="12.191227858995997"><ele>274.0</ele><time>2026-04-25T08:36:43.999Z</time></trkpt><trkpt lat="43.10764674198648" lon="12.191478957651507"><ele>278.66666666666663</ele><time>2026-04-25T08:36:44.999Z</time></trkpt><trkpt lat="43.10776853353984" lon="12.19172324727881"><ele>283.3333333333333</ele><time>2026-04-25T08:36:45.999Z</time></trkpt><trkpt lat="43.10789599433762" lon="12.191951262309637"><ele>288.0</ele><time>2026-04-25T08:36:46.999Z</time></trkpt><trkpt lat="43.108060012958724" lon="12.192131007112051"><ele>288.0</ele><time>2026-04-25T08:36:47.999Z</time></trkpt><trkpt lat="43.108239557520875" lon="12.192286785736544"><ele>288.0</ele><time>2026-04-25T08:36:48.999Z</time></trkpt><trkpt lat="43.108437850126485" lon="12.192422552042506"><ele>288.0</ele><time>2026-04-25T08:36:49.999Z</time></trkpt><trkpt lat="43.10862899938751" lon="12.192572861798293"><ele>287.6666666666667</ele><time>2026-04-25T08:36:50.999Z</time></trkpt><trkpt lat="43.10882262956143" lon="12.192729715551524"><ele>287.33333333333337</ele><time>2026-04-25T08:36:51.999Z</time></trkpt><trkpt lat="43.109013606108526" lon="12.192877529568156"><ele>287.0</ele><time>2026-04-25T08:36:52.999Z</time></trkpt><trkpt lat="43.10919359237009" lon="12.193017125724928"><ele>287.0</ele><time>2026-04-25T08:36:53.999Z</time></trkpt><trkpt lat="43.10935786494044" lon="12.193157110733887"><ele>287.0</ele><time>2026-04-25T08:36:54.999Z</time></trkpt><trkpt lat="43.109505583595414" lon="12.193299420168263"><ele>287.0</ele><time>2026-04-25T08:36:55.999Z</time></trkpt><trkpt lat="43.109629345129" lon="12.193449829712156"><ele>288.0</ele><time>2026-04-25T08:36:56.999Z</time></trkpt><trkpt lat="43.10973093431684" lon="12.193615627072123"><ele>289.0</ele><time>2026-04-25T08:36:57.999Z</time></trkpt><trkpt lat="43.109813250008436" lon="12.193790143967412"><ele>290.0</ele><time>2026-04-25T08:36:58.999Z</time></trkpt><trkpt lat="43.10990595559288" lon="12.193966069456483"><ele>289.0</ele><time>2026-04-25T08:36:59.999Z</time></trkpt><trkpt lat="43.11000882527495" lon="12.194162347421754"><ele>288.0</ele><time>2026-04-25T08:37:00.999Z</time></trkpt><trkpt lat="43.11009802161755" lon="12.194394551090275"><ele>287.0</ele><time>2026-04-25T08:37:01.999Z</time></trkpt><trkpt lat="43.11020007564669" lon="12.194638857713619"><ele>285.6666666666667</ele><time>2026-04-25T08:37:02.999Z</time></trkpt><trkpt lat="43.110317765172894" lon="12.194887371015877"><ele>284.3333333333333</ele><time>2026-04-25T08:37:03.999Z</time></trkpt><trkpt lat="43.11043634120008" lon="12.195139561354075"><ele>283.0</ele><time>2026-04-25T08:37:04.999Z</time></trkpt><trkpt lat="43.110551837358415" lon="12.195385081670675"><ele>283.0</ele><time>2026-04-25T08:37:05.999Z</time></trkpt><trkpt lat="43.110673601293875" lon="12.195619560263951"><ele>283.0</ele><time>2026-04-25T08:37:06.999Z</time></trkpt><trkpt lat="43.110815650528885" lon="12.195836148337902"><ele>283.0</ele><time>2026-04-25T08:37:07.999Z</time></trkpt><trkpt lat="43.110978142086054" lon="12.196017278949762"><ele>280.66666666666663</ele><time>2026-04-25T08:37:08.999Z</time></trkpt><trkpt lat="43.111128387564534" lon="12.196184157327998"><ele>278.3333333333333</ele><time>2026-04-25T08:37:09.999Z</time></trkpt><trkpt lat="43.11129772065522" lon="12.196364578625145"><ele>276.0</ele><time>2026-04-25T08:37:10.999Z</time></trkpt><trkpt lat="43.11143847667315" lon="12.19652212394631"><ele>275.0</ele><time>2026-04-25T08:37:11.999Z</time></trkpt><trkpt lat="43.11155752097796" lon="12.196659036078573"><ele>274.0</ele><time>2026-04-25T08:37:12.999Z</time></trkpt><trkpt lat="43.111658640371814" lon="12.196772197303822"><ele>273.0</ele><time>2026-04-25T08:37:13.999Z</time></trkpt><trkpt lat="43.11173667796656" lon="12.196863890459378"><ele>272.0</ele><time>2026-04-25T08:37:14.998Z</time></trkpt><trkpt lat="43.11178867768564" lon="12.196929795248241"><ele>271.75</ele><time>2026-04-25T08:37:15.998Z</time></trkpt><trkpt lat="43.111818355753314" lon="12.197045753108155"><ele>271.5</ele><time>2026-04-25T08:37:17.998Z</time></trkpt><trkpt lat="43.11189451843754" lon="12.197216076889305"><ele>271.25</ele><time>2026-04-25T08:37:19.998Z</time></trkpt><trkpt lat="43.111989666998056" lon="12.197325699193684"><ele>271.0</ele><time>2026-04-25T08:37:20.998Z</time></trkpt><trkpt lat="43.11210316108405" lon="12.19743771354744"><ele>269.3333333333333</ele><time>2026-04-25T08:37:21.998Z</time></trkpt><trkpt lat="43.11222538890288" lon="12.197547268819463"><ele>267.6666666666667</ele><time>2026-04-25T08:37:22.998Z</time></trkpt><trkpt lat="43.112361680775436" lon="12.197675854379337"><ele>266.0</ele><time>2026-04-25T08:37:23.998Z</time></trkpt><trkpt lat="43.11251839260428" lon="12.197822321186658"><ele>266.0</ele><time>2026-04-25T08:37:24.998Z</time></trkpt><trkpt lat="43.11269702572494" lon="12.197972719099095"><ele>266.0</ele><time>2026-04-25T08:37:25.998Z</time></trkpt><trkpt lat="43.11286900152577" lon="12.19816401897811"><ele>266.0</ele><time>2026-04-25T08:37:27Z</time></trkpt><trkpt lat="43.113064232011354" lon="12.198341937423908"><ele>263.5</ele><time>2026-04-25T08:37:28Z</time></trkpt><trkpt lat="43.11325160321095" lon="12.198554397589268"><ele>261.0</ele><time>2026-04-25T08:37:29Z</time></trkpt><trkpt lat="43.11345486933469" lon="12.198763023750407"><ele>261.0</ele><time>2026-04-25T08:37:30Z</time></trkpt><trkpt lat="43.11366401147649" lon="12.198972692825935"><ele>261.0</ele><time>2026-04-25T08:37:31Z</time></trkpt><trkpt lat="43.113863930575036" lon="12.199174996843778"><ele>259.0</ele><time>2026-04-25T08:37:32Z</time></trkpt><trkpt lat="43.114055601035965" lon="12.199367108662237"><ele>257.0</ele><time>2026-04-25T08:37:33Z</time></trkpt><trkpt lat="43.11424236367347" lon="12.19954192155006"><ele>256.6666666666667</ele><time>2026-04-25T08:37:34Z</time></trkpt><trkpt lat="43.11443665867075" lon="12.199682910537515"><ele>256.3333333333333</ele><time>2026-04-25T08:37:35Z</time></trkpt><trkpt lat="43.114646400582956" lon="12.199779878161293"><ele>256.0</ele><time>2026-04-25T08:37:36Z</time></trkpt><trkpt lat="43.114873346276845" lon="12.199840782916885"><ele>253.5</ele><time>2026-04-25T08:37:37Z</time></trkpt><trkpt lat="43.115105497394715" lon="12.19989496009262"><ele>251.0</ele><time>2026-04-25T08:37:38Z</time></trkpt><trkpt lat="43.115340536888105" lon="12.199948251796835"><ele>251.0</ele><time>2026-04-25T08:37:39Z</time></trkpt><trkpt lat="43.11557851707819" lon="12.199993171934906"><ele>251.0</ele><time>2026-04-25T08:37:40Z</time></trkpt><trkpt lat="43.11581789829843" lon="12.200022458053171"><ele>250.5</ele><time>2026-04-25T08:37:41Z</time></trkpt><trkpt lat="43.11605812626487" lon="12.200052310205127"><ele>250.0</ele><time>2026-04-25T08:37:42Z</time></trkpt><trkpt lat="43.11629662166821" lon="12.20008653921687"><ele>250.0</ele><time>2026-04-25T08:37:43Z</time></trkpt><trkpt lat="43.116532064943286" lon="12.200139740739607"><ele>250.0</ele><time>2026-04-25T08:37:44Z</time></trkpt><trkpt lat="43.11676885809878" lon="12.200216697982894"><ele>249.5</ele><time>2026-04-25T08:37:45Z</time></trkpt><trkpt lat="43.11700400153868" lon="12.200298147317477"><ele>249.0</ele><time>2026-04-25T08:37:46Z</time></trkpt><trkpt lat="43.11724073134666" lon="12.20036474268105"><ele>248.0</ele><time>2026-04-25T08:37:47Z</time></trkpt><trkpt lat="43.11748123537612" lon="12.200428142143336"><ele>247.0</ele><time>2026-04-25T08:37:48Z</time></trkpt><trkpt lat="43.11773160068006" lon="12.200500710884478"><ele>247.0</ele><time>2026-04-25T08:37:49Z</time></trkpt><trkpt lat="43.1179886686777" lon="12.200586347117541"><ele>247.0</ele><time>2026-04-25T08:37:50Z</time></trkpt><trkpt lat="43.11824638887074" lon="12.200693021574097"><ele>245.0</ele><time>2026-04-25T08:37:51Z</time></trkpt><trkpt lat="43.118497317850164" lon="12.200810082129019"><ele>243.0</ele><time>2026-04-25T08:37:52Z</time></trkpt><trkpt lat="43.11873658588043" lon="12.200918306085725"><ele>243.0</ele><time>2026-04-25T08:37:53Z</time></trkpt><trkpt lat="43.11895790199995" lon="12.20101127348549"><ele>243.0</ele><time>2026-04-25T08:37:54Z</time></trkpt><trkpt lat="43.11915548104285" lon="12.201089069244262"><ele>243.0</ele><time>2026-04-25T08:37:55Z</time></trkpt><trkpt lat="43.119335074124386" lon="12.201154455945716"><ele>243.66666666666669</ele><time>2026-04-25T08:37:56Z</time></trkpt><trkpt lat="43.11952383061887" lon="12.20120545590476"><ele>244.33333333333334</ele><time>2026-04-25T08:37:57Z</time></trkpt><trkpt lat="43.11973170013127" lon="12.201253691677788"><ele>245.0</ele><time>2026-04-25T08:37:58Z</time></trkpt><trkpt lat="43.119948790091776" lon="12.20132069169547"><ele>245.5</ele><time>2026-04-25T08:37:59Z</time></trkpt><trkpt lat="43.120175856251315" lon="12.201381072906136"><ele>246.0</ele><time>2026-04-25T08:38:00Z</time></trkpt><trkpt lat="43.12040752813008" lon="12.201426466511238"><ele>246.0</ele><time>2026-04-25T08:38:01Z</time></trkpt><trkpt lat="43.12064860732789" lon="12.201467047983607"><ele>246.0</ele><time>2026-04-25T08:38:02Z</time></trkpt><trkpt lat="43.120890502765974" lon="12.201505843708533"><ele>245.5</ele><time>2026-04-25T08:38:03Z</time></trkpt><trkpt lat="43.12112870692959" lon="12.201543441716474"><ele>245.0</ele><time>2026-04-25T08:38:04Z</time></trkpt><trkpt lat="43.12135113307896" lon="12.201577950194876"><ele>245.0</ele><time>2026-04-25T08:38:05Z</time></trkpt><trkpt lat="43.121569964299646" lon="12.201617747021867"><ele>245.0</ele><time>2026-04-25T08:38:06Z</time></trkpt><trkpt lat="43.12179313591005" lon="12.201672407259377"><ele>245.0</ele><time>2026-04-25T08:38:07Z</time></trkpt><trkpt lat="43.12201571758786" lon="12.201756720427529"><ele>245.0</ele><time>2026-04-25T08:38:08Z</time></trkpt><trkpt lat="43.122241853458675" lon="12.201838043413302"><ele>245.0</ele><time>2026-04-25T08:38:09Z</time></trkpt><trkpt lat="43.12246967965623" lon="12.201911997426338"><ele>245.0</ele><time>2026-04-25T08:38:10Z</time></trkpt><trkpt lat="43.12269476325924" lon="12.201974181608888"><ele>245.0</ele><time>2026-04-25T08:38:11Z</time></trkpt><trkpt lat="43.122923382110166" lon="12.202040905091124"><ele>245.0</ele><time>2026-04-25T08:38:12Z</time></trkpt><trkpt lat="43.12315060200847" lon="12.202110224784386"><ele>245.0</ele><time>2026-04-25T08:38:13Z</time></trkpt><trkpt lat="43.12336199159485" lon="12.202175604526925"><ele>245.0</ele><time>2026-04-25T08:38:13.999Z</time></trkpt><trkpt lat="43.12356367250392" lon="12.202235059950834"><ele>244.0</ele><time>2026-04-25T08:38:14.999Z</time></trkpt><trkpt lat="43.12375678463987" lon="12.202294478546026"><ele>243.0</ele><time>2026-04-25T08:38:15.999Z</time></trkpt><trkpt lat="43.123940753431384" lon="12.202346499438816"><ele>242.0</ele><time>2026-04-25T08:38:16.999Z</time></trkpt><trkpt lat="43.12411856476343" lon="12.202377078644531"><ele>241.33333333333334</ele><time>2026-04-25T08:38:17.999Z</time></trkpt><trkpt lat="43.12429127241395" lon="12.20239063865953"><ele>240.66666666666669</ele><time>2026-04-25T08:38:18.999Z</time></trkpt><trkpt lat="43.12445827048321" lon="12.202403002677741"><ele>240.0</ele><time>2026-04-25T08:38:19.999Z</time></trkpt><trkpt lat="43.12461166582391" lon="12.202409260159191"><ele>240.0</ele><time>2026-04-25T08:38:20.999Z</time></trkpt><trkpt lat="43.12475863347665" lon="12.202419402044503"><ele>240.0</ele><time>2026-04-25T08:38:21.999Z</time></trkpt><trkpt lat="43.124897016164255" lon="12.202434442094125"><ele>240.0</ele><time>2026-04-25T08:38:22.999Z</time></trkpt><trkpt lat="43.12503159382721" lon="12.202455314063892"><ele>240.0</ele><time>2026-04-25T08:38:23.999Z</time></trkpt><trkpt lat="43.12517473544785" lon="12.202481664184269"><ele>239.66666666666669</ele><time>2026-04-25T08:38:24.999Z</time></trkpt><trkpt lat="43.12532921742413" lon="12.20250563423046"><ele>239.33333333333334</ele><time>2026-04-25T08:38:25.999Z</time></trkpt><trkpt lat="43.125500847648716" lon="12.20251431398198"><ele>239.0</ele><time>2026-04-25T08:38:26.999Z</time></trkpt><trkpt lat="43.12568244845792" lon="12.202544069093959"><ele>238.66666666666669</ele><time>2026-04-25T08:38:27.999Z</time></trkpt><trkpt lat="43.12587641460763" lon="12.20257452186522"><ele>238.33333333333331</ele><time>2026-04-25T08:38:28.999Z</time></trkpt><trkpt lat="43.1260684403962" lon="12.202592836191792"><ele>238.0</ele><time>2026-04-25T08:38:29.999Z</time></trkpt><trkpt lat="43.12624102178145" lon="12.202621006140488"><ele>238.0</ele><time>2026-04-25T08:38:30.999Z</time></trkpt><trkpt lat="43.12639926973613" lon="12.20262300217929"><ele>238.0</ele><time>2026-04-25T08:38:31.999Z</time></trkpt><trkpt lat="43.12654671050229" lon="12.202608620282643"><ele>238.0</ele><time>2026-04-25T08:38:32.999Z</time></trkpt><trkpt lat="43.12670472140326" lon="12.202617822305575"><ele>238.33333333333331</ele><time>2026-04-25T08:38:33.999Z</time></trkpt><trkpt lat="43.126865187847535" lon="12.202665142609291"><ele>238.66666666666669</ele><time>2026-04-25T08:38:34.999Z</time></trkpt><trkpt lat="43.12703007609477" lon="12.202728463154665"><ele>239.0</ele><time>2026-04-25T08:38:35.999Z</time></trkpt><trkpt lat="43.12718624460565" lon="12.20282461898629"><ele>239.0</ele><time>2026-04-25T08:38:36.999Z</time></trkpt><trkpt lat="43.12731058561018" lon="12.202919196779748"><ele>239.0</ele><time>2026-04-25T08:38:37.999Z</time></trkpt><trkpt lat="43.127424848734094" lon="12.202982021404303"><ele>239.0</ele><time>2026-04-25T08:38:38.999Z</time></trkpt><trkpt lat="43.12755467554732" lon="12.203050530662146"><ele>239.0</ele><time>2026-04-25T08:38:39.999Z</time></trkpt><trkpt lat="43.12768436608634" lon="12.203134635758897"><ele>239.25</ele><time>2026-04-25T08:38:40.999Z</time></trkpt><trkpt lat="43.127804136483036" lon="12.203196106839785"><ele>239.5</ele><time>2026-04-25T08:38:41.999Z</time></trkpt><trkpt lat="43.12791395396444" lon="12.20324066302291"><ele>239.75</ele><time>2026-04-25T08:38:42.999Z</time></trkpt><trkpt lat="43.12801907260981" lon="12.20328085869446"><ele>240.0</ele><time>2026-04-25T08:38:43.999Z</time></trkpt><trkpt lat="43.128124354870295" lon="12.20333007537769"><ele>239.66666666666669</ele><time>2026-04-25T08:38:44.999Z</time></trkpt><trkpt lat="43.128241809837455" lon="12.203371056639737"><ele>239.33333333333334</ele><time>2026-04-25T08:38:45.999Z</time></trkpt><trkpt lat="43.12839730018554" lon="12.203405542571973"><ele>239.0</ele><time>2026-04-25T08:38:46.999Z</time></trkpt><trkpt lat="43.128565874002064" lon="12.20345791440064"><ele>239.0</ele><time>2026-04-25T08:38:47.999Z</time></trkpt><trkpt lat="43.12874469646064" lon="12.203545686071285"><ele>239.0</ele><time>2026-04-25T08:38:48.999Z</time></trkpt><trkpt lat="43.128932094205894" lon="12.203628881211568"><ele>239.0</ele><time>2026-04-25T08:38:49.999Z</time></trkpt><trkpt lat="43.129132880499114" lon="12.203703120098726"><ele>239.66666666666669</ele><time>2026-04-25T08:38:50.999Z</time></trkpt><trkpt lat="43.129337925078055" lon="12.203775180602733"><ele>240.33333333333331</ele><time>2026-04-25T08:38:51.999Z</time></trkpt><trkpt lat="43.129544896020434" lon="12.203860916694286"><ele>241.0</ele><time>2026-04-25T08:38:52.999Z</time></trkpt><trkpt lat="43.129754766625766" lon="12.203936313716998"><ele>241.0</ele><time>2026-04-25T08:38:53.999Z</time></trkpt><trkpt lat="43.129958343755646" lon="12.204006115296293"><ele>241.0</ele><time>2026-04-25T08:38:54.999Z</time></trkpt><trkpt lat="43.13014663755263" lon="12.204080147339067"><ele>241.0</ele><time>2026-04-25T08:38:55.999Z</time></trkpt><trkpt lat="43.13032397503475" lon="12.204150282330092"><ele>241.0</ele><time>2026-04-25T08:38:56.999Z</time></trkpt><trkpt lat="43.1304945223712" lon="12.204211027977104"><ele>241.0</ele><time>2026-04-25T08:38:57.999Z</time></trkpt><trkpt lat="43.13066033496473" lon="12.204269738346888"><ele>241.0</ele><time>2026-04-25T08:38:58.999Z</time></trkpt><trkpt lat="43.13082038932386" lon="12.20432708782398"><ele>241.0</ele><time>2026-04-25T08:38:59.999Z</time></trkpt><trkpt lat="43.13097881387556" lon="12.204387579539835"><ele>241.0</ele><time>2026-04-25T08:39:00.999Z</time></trkpt><trkpt lat="43.13113635153464" lon="12.20444716968875"><ele>241.0</ele><time>2026-04-25T08:39:01.999Z</time></trkpt><trkpt lat="43.131283964475855" lon="12.204507785863397"><ele>241.0</ele><time>2026-04-25T08:39:02.999Z</time></trkpt><trkpt lat="43.13142124818472" lon="12.204574642213018"><ele>241.0</ele><time>2026-04-25T08:39:03.999Z</time></trkpt><trkpt lat="43.131556253765744" lon="12.204655427132563"><ele>241.0</ele><time>2026-04-25T08:39:04.999Z</time></trkpt><trkpt lat="43.13168869510481" lon="12.204741893118696"><ele>241.0</ele><time>2026-04-25T08:39:05.999Z</time></trkpt><trkpt lat="43.131812689783985" lon="12.204836920424297"><ele>241.0</ele><time>2026-04-25T08:39:06.999Z</time></trkpt><trkpt lat="43.13193179315089" lon="12.204937517975585"><ele>241.0</ele><time>2026-04-25T08:39:07.999Z</time></trkpt><trkpt lat="43.13204139430399" lon="12.20505571840572"><ele>241.0</ele><time>2026-04-25T08:39:08.999Z</time></trkpt><trkpt lat="43.132144421476056" lon="12.205180909312643"><ele>241.0</ele><time>2026-04-25T08:39:09.999Z</time></trkpt><trkpt lat="43.132241161742435" lon="12.205303750140047"><ele>241.0</ele><time>2026-04-25T08:39:10.999Z</time></trkpt><trkpt lat="43.13233254533309" lon="12.205415314250146"><ele>241.00000000000003</ele><time>2026-04-25T08:39:11.999Z</time></trkpt><trkpt lat="43.13241446022504" lon="12.205519783790345"><ele>241.00000000000003</ele><time>2026-04-25T08:39:12.999Z</time></trkpt><trkpt lat="43.13247974826418" lon="12.205618612604894"><ele>241.0</ele><time>2026-04-25T08:39:13.999Z</time></trkpt><trkpt lat="43.13252351134403" lon="12.205714519722328"><ele>241.0</ele><time>2026-04-25T08:39:14.999Z</time></trkpt><trkpt lat="43.13255542671982" lon="12.205827200839662"><ele>240.20000000000002</ele><time>2026-04-25T08:39:15.999Z</time></trkpt><trkpt lat="43.13258061276542" lon="12.205955252416462"><ele>239.40000000000003</ele><time>2026-04-25T08:39:16.999Z</time></trkpt><trkpt lat="43.132629217136845" lon="12.206077909084092"><ele>238.6</ele><time>2026-04-25T08:39:17.999Z</time></trkpt><trkpt lat="43.13271268817322" lon="12.206168757886072"><ele>237.8</ele><time>2026-04-25T08:39:18.999Z</time></trkpt><trkpt lat="43.13282056435024" lon="12.206205305683604"><ele>237.0</ele><time>2026-04-25T08:39:19.999Z</time></trkpt><trkpt lat="43.13289710275249" lon="12.206347271597254"><ele>236.75</ele><time>2026-04-25T08:39:20.999Z</time></trkpt><trkpt lat="43.13294129279613" lon="12.20650996120389"><ele>236.5</ele><time>2026-04-25T08:39:21.998Z</time></trkpt><trkpt lat="43.1329976050693" lon="12.206664145101973"><ele>236.25</ele><time>2026-04-25T08:39:22.998Z</time></trkpt><trkpt lat="43.133074754227955" lon="12.206839464681309"><ele>236.0</ele><time>2026-04-25T08:39:23.998Z</time></trkpt><trkpt lat="43.133150046633546" lon="12.207039563354147"><ele>236.66666666666669</ele><time>2026-04-25T08:39:24.998Z</time></trkpt><trkpt lat="43.13324449853011" lon="12.207247426856512"><ele>237.33333333333331</ele><time>2026-04-25T08:39:25.998Z</time></trkpt><trkpt lat="43.1333562895777" lon="12.207456061030953"><ele>238.0</ele><time>2026-04-25T08:39:26.998Z</time></trkpt><trkpt lat="43.13347975314967" lon="12.207682178820145"><ele>238.0</ele><time>2026-04-25T08:39:27.998Z</time></trkpt><trkpt lat="43.13360530790628" lon="12.20792027217837"><ele>238.0</ele><time>2026-04-25T08:39:28.998Z</time></trkpt><trkpt lat="43.1337340248201" lon="12.208162089306688"><ele>238.0</ele><time>2026-04-25T08:39:29.998Z</time></trkpt><trkpt lat="43.133861370101016" lon="12.208397362224659"><ele>238.0</ele><time>2026-04-25T08:39:30.998Z</time></trkpt><trkpt lat="43.133982340065664" lon="12.208617763204913"><ele>238.0</ele><time>2026-04-25T08:39:31.998Z</time></trkpt><trkpt lat="43.134110930650266" lon="12.20881201785596"><ele>238.0</ele><time>2026-04-25T08:39:33Z</time></trkpt><trkpt lat="43.134254287302305" lon="12.208976362756141"><ele>237.33333333333331</ele><time>2026-04-25T08:39:34Z</time></trkpt><trkpt lat="43.13441083039669" lon="12.209114762586307"><ele>236.66666666666669</ele><time>2026-04-25T08:39:35Z</time></trkpt><trkpt lat="43.13457565136443" lon="12.209227445109713"><ele>236.0</ele><time>2026-04-25T08:39:36Z</time></trkpt><trkpt lat="43.134742544690944" lon="12.20932349108819"><ele>237.33333333333334</ele><time>2026-04-25T08:39:37Z</time></trkpt><trkpt lat="43.134909688940795" lon="12.209410175532758"><ele>238.66666666666669</ele><time>2026-04-25T08:39:38Z</time></trkpt><trkpt lat="43.135071196404866" lon="12.209500604494472"><ele>240.0</ele><time>2026-04-25T08:39:39Z</time></trkpt><trkpt lat="43.13523102757638" lon="12.209590441903092"><ele>240.0</ele><time>2026-04-25T08:39:40Z</time></trkpt><trkpt lat="43.13538313497082" lon="12.209700593380601"><ele>240.0</ele><time>2026-04-25T08:39:41Z</time></trkpt><trkpt lat="43.135547672963035" lon="12.209808178055628"><ele>240.0</ele><time>2026-04-25T08:39:42Z</time></trkpt><trkpt lat="43.135704796478834" lon="12.209904661200364"><ele>239.33333333333331</ele><time>2026-04-25T08:39:43Z</time></trkpt><trkpt lat="43.135862909485525" lon="12.210001675720878"><ele>238.66666666666666</ele><time>2026-04-25T08:39:44Z</time></trkpt><trkpt lat="43.136018204247286" lon="12.210095369425431"><ele>238.0</ele><time>2026-04-25T08:39:45Z</time></trkpt><trkpt lat="43.136179397194816" lon="12.210195272091154"><ele>238.0</ele><time>2026-04-25T08:39:46Z</time></trkpt><trkpt lat="43.136344361501756" lon="12.210294129513418"><ele>238.0</ele><time>2026-04-25T08:39:47Z</time></trkpt><trkpt lat="43.136500257923586" lon="12.210394554634457"><ele>238.0</ele><time>2026-04-25T08:39:48Z</time></trkpt><trkpt lat="43.136642932529796" lon="12.210486350725247"><ele>238.0</ele><time>2026-04-25T08:39:49Z</time></trkpt><trkpt lat="43.13678862825701" lon="12.21056431293205"><ele>238.0</ele><time>2026-04-25T08:39:50Z</time></trkpt><trkpt lat="43.13695529935342" lon="12.210640521117098"><ele>238.0</ele><time>2026-04-25T08:39:51Z</time></trkpt><trkpt lat="43.13713641620866" lon="12.210722850091761"><ele>238.0</ele><time>2026-04-25T08:39:52Z</time></trkpt><trkpt lat="43.137334708688655" lon="12.21080280707828"><ele>238.0</ele><time>2026-04-25T08:39:53Z</time></trkpt><trkpt lat="43.13754247916812" lon="12.210868012831526"><ele>238.0</ele><time>2026-04-25T08:39:54Z</time></trkpt><trkpt lat="43.13776197346228" lon="12.210919021423328"><ele>237.66666666666666</ele><time>2026-04-25T08:39:55Z</time></trkpt><trkpt lat="43.13797520624232" lon="12.210991194811427"><ele>237.33333333333331</ele><time>2026-04-25T08:39:56Z</time></trkpt><trkpt lat="43.138187520645275" lon="12.211062188388317"><ele>237.0</ele><time>2026-04-25T08:39:57Z</time></trkpt><trkpt lat="43.13840164465009" lon="12.211119245580763"><ele>237.66666666666669</ele><time>2026-04-25T08:39:58Z</time></trkpt><trkpt lat="43.13861575940213" lon="12.211170624494285"><ele>238.33333333333334</ele><time>2026-04-25T08:39:59Z</time></trkpt><trkpt lat="43.138828885940924" lon="12.211206833977064"><ele>239.0</ele><time>2026-04-25T08:40:00Z</time></trkpt><trkpt lat="43.13904048252046" lon="12.211218044270781"><ele>239.0</ele><time>2026-04-25T08:40:01Z</time></trkpt><trkpt lat="43.13924956362519" lon="12.211193413590344"><ele>239.0</ele><time>2026-04-25T08:40:02Z</time></trkpt><trkpt lat="43.13945641803196" lon="12.211143960045016"><ele>239.0</ele><time>2026-04-25T08:40:03Z</time></trkpt><trkpt lat="43.139655344903005" lon="12.21109909459066"><ele>239.0</ele><time>2026-04-25T08:40:04Z</time></trkpt><trkpt lat="43.139843760563544" lon="12.211060471541492"><ele>239.0</ele><time>2026-04-25T08:40:05Z</time></trkpt><trkpt lat="43.14002369239024" lon="12.211021993247309"><ele>239.0</ele><time>2026-04-25T08:40:06Z</time></trkpt><trkpt lat="43.14019243365699" lon="12.210990660003105"><ele>238.33333333333334</ele><time>2026-04-25T08:40:07Z</time></trkpt><trkpt lat="43.140354115603365" lon="12.210974905075304"><ele>237.66666666666669</ele><time>2026-04-25T08:40:08Z</time></trkpt><trkpt lat="43.14051016170645" lon="12.210971972635098"><ele>237.0</ele><time>2026-04-25T08:40:09Z</time></trkpt><trkpt lat="43.140657373680106" lon="12.210988187816787"><ele>237.5</ele><time>2026-04-25T08:40:10Z</time></trkpt><trkpt lat="43.14080504107451" lon="12.211019558331014"><ele>238.0</ele><time>2026-04-25T08:40:11Z</time></trkpt><trkpt lat="43.1409518481496" lon="12.211061310303032"><ele>238.5</ele><time>2026-04-25T08:40:12Z</time></trkpt><trkpt lat="43.1410975359076" lon="12.211106721433623"><ele>239.0</ele><time>2026-04-25T08:40:13Z</time></trkpt><trkpt lat="43.14124416368492" lon="12.211157814147043"><ele>239.0</ele><time>2026-04-25T08:40:14Z</time></trkpt><trkpt lat="43.141388444434305" lon="12.211207132666525"><ele>239.0</ele><time>2026-04-25T08:40:15Z</time></trkpt><trkpt lat="43.14152617232275" lon="12.2112549358474"><ele>239.0</ele><time>2026-04-25T08:40:16Z</time></trkpt><trkpt lat="43.14165970005968" lon="12.211300172508038"><ele>239.0</ele><time>2026-04-25T08:40:16.999Z</time></trkpt><trkpt lat="43.14179529857285" lon="12.21134233312084"><ele>239.0</ele><time>2026-04-25T08:40:17.999Z</time></trkpt><trkpt lat="43.14192686453785" lon="12.211386017396286"><ele>239.0</ele><time>2026-04-25T08:40:18.999Z</time></trkpt><trkpt lat="43.14205652670423" lon="12.21143017766794"><ele>239.0</ele><time>2026-04-25T08:40:19.999Z</time></trkpt><trkpt lat="43.142179931124396" lon="12.211474228150838"><ele>239.0</ele><time>2026-04-25T08:40:20.999Z</time></trkpt><trkpt lat="43.14230076451492" lon="12.211517512345901"><ele>240.0</ele><time>2026-04-25T08:40:21.999Z</time></trkpt><trkpt lat="43.142418699520775" lon="12.21155415408748"><ele>241.0</ele><time>2026-04-25T08:40:22.999Z</time></trkpt><trkpt lat="43.14253786925176" lon="12.211590405981411"><ele>242.0</ele><time>2026-04-25T08:40:23.999Z</time></trkpt><trkpt lat="43.14265530256007" lon="12.211635404359244"><ele>243.0</ele><time>2026-04-25T08:40:24.999Z</time></trkpt><trkpt lat="43.14276814102685" lon="12.211692616329286"><ele>243.0</ele><time>2026-04-25T08:40:25.999Z</time></trkpt><trkpt lat="43.142881196023275" lon="12.211757643469653"><ele>243.0</ele><time>2026-04-25T08:40:26.999Z</time></trkpt><trkpt lat="43.14299076880587" lon="12.211828821949343"><ele>243.0</ele><time>2026-04-25T08:40:27.999Z</time></trkpt><trkpt lat="43.1430984527708" lon="12.21191411918015"><ele>243.0</ele><time>2026-04-25T08:40:28.999Z</time></trkpt><trkpt lat="43.143196041766586" lon="12.212005436789005"><ele>243.0</ele><time>2026-04-25T08:40:29.999Z</time></trkpt><trkpt lat="43.14328482709592" lon="12.21209793241058"><ele>243.0</ele><time>2026-04-25T08:40:30.999Z</time></trkpt><trkpt lat="43.143365418059815" lon="12.212187558678666"><ele>243.0</ele><time>2026-04-25T08:40:31.999Z</time></trkpt><trkpt lat="43.14344037049396" lon="12.212273554879943"><ele>243.0</ele><time>2026-04-25T08:40:32.999Z</time></trkpt><trkpt lat="43.14350688279418" lon="12.212357224964654"><ele>243.0</ele><time>2026-04-25T08:40:33.999Z</time></trkpt><trkpt lat="43.14356935084598" lon="12.212436088391877"><ele>242.33333333333334</ele><time>2026-04-25T08:40:34.999Z</time></trkpt><trkpt lat="43.14363049942816" lon="12.21250524310594"><ele>241.66666666666669</ele><time>2026-04-25T08:40:35.999Z</time></trkpt><trkpt lat="43.14369209695625" lon="12.212572769211615"><ele>241.0</ele><time>2026-04-25T08:40:36.999Z</time></trkpt><trkpt lat="43.143752319824216" lon="12.212649103882486"><ele>240.33333333333334</ele><time>2026-04-25T08:40:37.999Z</time></trkpt><trkpt lat="43.143809139991184" lon="12.212727406901543"><ele>239.66666666666669</ele><time>2026-04-25T08:40:38.999Z</time></trkpt><trkpt lat="43.1438586003741" lon="12.21278878305812"><ele>239.0</ele><time>2026-04-25T08:40:39.999Z</time></trkpt><trkpt lat="43.143921327706586" lon="12.21286811833326"><ele>239.00000000000003</ele><time>2026-04-25T08:40:41.999Z</time></trkpt><trkpt lat="43.1439722293469" lon="12.212937956272507"><ele>239.0</ele><time>2026-04-25T08:40:43.999Z</time></trkpt><trkpt lat="43.14402565785071" lon="12.21300529300209"><ele>239.0</ele><time>2026-04-25T08:40:45.999Z</time></trkpt><trkpt lat="43.14406642800541" lon="12.213092331455528"><ele>239.0</ele><time>2026-04-25T08:40:47.999Z</time></trkpt><trkpt lat="43.144113192324674" lon="12.213203684844045"><ele>239.00000000000003</ele><time>2026-04-25T08:40:49.999Z</time></trkpt><trkpt lat="43.1441607882576" lon="12.213337390265378"><ele>239.0</ele><time>2026-04-25T08:40:51.999Z</time></trkpt><trkpt lat="43.144165423840626" lon="12.213428138206508"><ele>239.00000000000003</ele><time>2026-04-25T08:40:52.999Z</time></trkpt><trkpt lat="43.14414976946353" lon="12.213525447892803"><ele>239.0</ele><time>2026-04-25T08:40:53.999Z</time></trkpt><trkpt lat="43.14411851106025" lon="12.213624567900068"><ele>239.0</ele><time>2026-04-25T08:40:54.999Z</time></trkpt><trkpt lat="43.14410983415941" lon="12.213736948062476"><ele>239.0</ele><time>2026-04-25T08:40:55.999Z</time></trkpt><trkpt lat="43.144130675232724" lon="12.213855009968118"><ele>239.00000000000003</ele><time>2026-04-25T08:40:56.999Z</time></trkpt><trkpt lat="43.14417952364529" lon="12.213965165393414"><ele>239.0</ele><time>2026-04-25T08:40:57.999Z</time></trkpt><trkpt lat="43.144251252529656" lon="12.214064780346298"><ele>238.83333333333334</ele><time>2026-04-25T08:40:58.999Z</time></trkpt><trkpt lat="43.14431825669128" lon="12.21415151977433"><ele>238.66666666666669</ele><time>2026-04-25T08:40:59.999Z</time></trkpt><trkpt lat="43.14437227899818" lon="12.214243033526328"><ele>238.5</ele><time>2026-04-25T08:41:00.999Z</time></trkpt><trkpt lat="43.14441055984582" lon="12.21433902074418"><ele>238.33333333333331</ele><time>2026-04-25T08:41:01.999Z</time></trkpt><trkpt lat="43.144432379198435" lon="12.214438153670415"><ele>238.16666666666666</ele><time>2026-04-25T08:41:02.999Z</time></trkpt><trkpt lat="43.14444177519571" lon="12.214533620062094"><ele>238.0</ele><time>2026-04-25T08:41:03.999Z</time></trkpt><trkpt lat="43.1444370178793" lon="12.214685288047171"><ele>237.99999999999997</ele><time>2026-04-25T08:41:05.999Z</time></trkpt><trkpt lat="43.144418345403516" lon="12.214835039120787"><ele>238.0</ele><time>2026-04-25T08:41:07.999Z</time></trkpt><trkpt lat="43.14440049644991" lon="12.21492184863712"><ele>238.0</ele><time>2026-04-25T08:41:08.999Z</time></trkpt><trkpt lat="43.144373267316276" lon="12.215019160872428"><ele>238.0</ele><time>2026-04-25T08:41:09.999Z</time></trkpt><trkpt lat="43.14434564724156" lon="12.215127847820169"><ele>237.99999999999997</ele><time>2026-04-25T08:41:10.999Z</time></trkpt><trkpt lat="43.14431285639804" lon="12.215247510903215"><ele>238.0</ele><time>2026-04-25T08:41:11.999Z</time></trkpt><trkpt lat="43.144276200703274" lon="12.215377751464965"><ele>237.99999999999997</ele><time>2026-04-25T08:41:12.999Z</time></trkpt><trkpt lat="43.14424356136966" lon="12.215504329493166"><ele>238.0</ele><time>2026-04-25T08:41:13.999Z</time></trkpt><trkpt lat="43.144217253683365" lon="12.215610044080952"><ele>238.0</ele><time>2026-04-25T08:41:14.999Z</time></trkpt><trkpt lat="43.14419467087694" lon="12.215712390541015"><ele>238.0</ele><time>2026-04-25T08:41:15.999Z</time></trkpt><trkpt lat="43.14417142207204" lon="12.21582383090729"><ele>237.99999999999997</ele><time>2026-04-25T08:41:16.999Z</time></trkpt><trkpt lat="43.144141795761485" lon="12.215944092790009"><ele>238.0</ele><time>2026-04-25T08:41:17.999Z</time></trkpt><trkpt lat="43.14410564717419" lon="12.216097019537813"><ele>238.0</ele><time>2026-04-25T08:41:18.999Z</time></trkpt><trkpt lat="43.144069776359345" lon="12.216286449760338"><ele>238.0</ele><time>2026-04-25T08:41:19.999Z</time></trkpt><trkpt lat="43.14402232129449" lon="12.216498167265332"><ele>238.0</ele><time>2026-04-25T08:41:20.999Z</time></trkpt><trkpt lat="43.14395960513074" lon="12.216724536205405"><ele>237.66666666666666</ele><time>2026-04-25T08:41:21.999Z</time></trkpt><trkpt lat="43.143894504672325" lon="12.216971253253597"><ele>237.33333333333331</ele><time>2026-04-25T08:41:22.999Z</time></trkpt><trkpt lat="43.14379992486507" lon="12.217227429116889"><ele>237.0</ele><time>2026-04-25T08:41:23.998Z</time></trkpt><trkpt lat="43.14373414372175" lon="12.21749069067227"><ele>237.66666666666669</ele><time>2026-04-25T08:41:24.998Z</time></trkpt><trkpt lat="43.143674255591776" lon="12.217728367830874"><ele>238.33333333333334</ele><time>2026-04-25T08:41:25.998Z</time></trkpt><trkpt lat="43.143625787261726" lon="12.2179623645817"><ele>239.0</ele><time>2026-04-25T08:41:26.998Z</time></trkpt><trkpt lat="43.143573315226874" lon="12.218166136543463"><ele>239.25</ele><time>2026-04-25T08:41:27.998Z</time></trkpt><trkpt lat="43.14353126426829" lon="12.218339941515268"><ele>239.5</ele><time>2026-04-25T08:41:28.998Z</time></trkpt><trkpt lat="43.14349324925828" lon="12.2185056186617"><ele>239.75</ele><time>2026-04-25T08:41:29.998Z</time></trkpt><trkpt lat="43.14345714812856" lon="12.218656862819449"><ele>240.0</ele><time>2026-04-25T08:41:30.998Z</time></trkpt><trkpt lat="43.143417058280825" lon="12.218807538795316"><ele>240.33333333333331</ele><time>2026-04-25T08:41:31.998Z</time></trkpt><trkpt lat="43.143362884143" lon="12.218990653979402"><ele>240.66666666666666</ele><time>2026-04-25T08:41:32.998Z</time></trkpt><trkpt lat="43.14333707408409" lon="12.219218878313825"><ele>241.0</ele><time>2026-04-25T08:41:33.998Z</time></trkpt><trkpt lat="43.143281958933635" lon="12.219451979801702"><ele>240.33333333333331</ele><time>2026-04-25T08:41:34.998Z</time></trkpt><trkpt lat="43.14321125833419" lon="12.219692942054609"><ele>239.66666666666669</ele><time>2026-04-25T08:41:35.998Z</time></trkpt><trkpt lat="43.14315154197367" lon="12.219902569722523"><ele>239.0</ele><time>2026-04-25T08:41:36.998Z</time></trkpt><trkpt lat="43.14309915461974" lon="12.220098344296032"><ele>239.0</ele><time>2026-04-25T08:41:37.998Z</time></trkpt><trkpt lat="43.14305312382322" lon="12.220293990877272"><ele>239.0</ele><time>2026-04-25T08:41:39Z</time></trkpt><trkpt lat="43.14301113618949" lon="12.220469988951294"><ele>239.0</ele><time>2026-04-25T08:41:40Z</time></trkpt><trkpt lat="43.14296761122895" lon="12.220632778796961"><ele>239.0</ele><time>2026-04-25T08:41:41Z</time></trkpt><trkpt lat="43.14292514646775" lon="12.220785325183101"><ele>239.39999999999998</ele><time>2026-04-25T08:41:42Z</time></trkpt><trkpt lat="43.14288952277764" lon="12.220924962089274"><ele>239.79999999999998</ele><time>2026-04-25T08:41:43Z</time></trkpt><trkpt lat="43.14285696544353" lon="12.221053438279684"><ele>240.20000000000002</ele><time>2026-04-25T08:41:44Z</time></trkpt><trkpt lat="43.1428265433801" lon="12.221174538255305"><ele>240.60000000000002</ele><time>2026-04-25T08:41:45Z</time></trkpt><trkpt lat="43.14279602885658" lon="12.221303630173173"><ele>241.0</ele><time>2026-04-25T08:41:46Z</time></trkpt><trkpt lat="43.142763070900635" lon="12.221432853042618"><ele>240.60000000000002</ele><time>2026-04-25T08:41:47Z</time></trkpt><trkpt lat="43.14272953926987" lon="12.22155847740529"><ele>240.20000000000002</ele><time>2026-04-25T08:41:48Z</time></trkpt><trkpt lat="43.14270238463064" lon="12.221673929848043"><ele>239.79999999999998</ele><time>2026-04-25T08:41:49Z</time></trkpt><trkpt lat="43.142670537180024" lon="12.221800614873757"><ele>239.39999999999998</ele><time>2026-04-25T08:41:50Z</time></trkpt><trkpt lat="43.14263558787623" lon="12.2219358423225"><ele>239.0</ele><time>2026-04-25T08:41:51Z</time></trkpt><trkpt lat="43.14259973916256" lon="12.222079155858978"><ele>239.0</ele><time>2026-04-25T08:41:52Z</time></trkpt><trkpt lat="43.14256202449757" lon="12.222235604336467"><ele>239.0</ele><time>2026-04-25T08:41:53Z</time></trkpt><trkpt lat="43.1425254399" lon="12.222388691681319"><ele>239.0</ele><time>2026-04-25T08:41:54Z</time></trkpt><trkpt lat="43.14248581095024" lon="12.22253441588742"><ele>239.0</ele><time>2026-04-25T08:41:55Z</time></trkpt><trkpt lat="43.14244788773932" lon="12.22268689491492"><ele>238.75</ele><time>2026-04-25T08:41:56Z</time></trkpt><trkpt lat="43.14241255820906" lon="12.22283536859172"><ele>238.5</ele><time>2026-04-25T08:41:57Z</time></trkpt><trkpt lat="43.14237487162706" lon="12.222986220864476"><ele>238.25</ele><time>2026-04-25T08:41:58Z</time></trkpt><trkpt lat="43.142339315419086" lon="12.223131957118037"><ele>238.0</ele><time>2026-04-25T08:41:59Z</time></trkpt><trkpt lat="43.14230544451421" lon="12.223272141837576"><ele>237.60000000000002</ele><time>2026-04-25T08:42:00Z</time></trkpt><trkpt lat="43.14227039402137" lon="12.2234139469465"><ele>237.20000000000002</ele><time>2026-04-25T08:42:01Z</time></trkpt><trkpt lat="43.142232340505544" lon="12.223556577057415"><ele>236.8</ele><time>2026-04-25T08:42:02Z</time></trkpt><trkpt lat="43.142196678525856" lon="12.223700273852927"><ele>236.4</ele><time>2026-04-25T08:42:03Z</time></trkpt><trkpt lat="43.14216631718487" lon="12.223837610987626"><ele>236.0</ele><time>2026-04-25T08:42:04Z</time></trkpt><trkpt lat="43.14213513419265" lon="12.22396456405477"><ele>235.83333333333334</ele><time>2026-04-25T08:42:05Z</time></trkpt><trkpt lat="43.14210454035558" lon="12.22408235592166"><ele>235.66666666666669</ele><time>2026-04-25T08:42:06Z</time></trkpt><trkpt lat="43.1420777497477" lon="12.224193037446954"><ele>235.5</ele><time>2026-04-25T08:42:07Z</time></trkpt><trkpt lat="43.14205279755241" lon="12.22429648611099"><ele>235.33333333333331</ele><time>2026-04-25T08:42:08Z</time></trkpt><trkpt lat="43.142023199196245" lon="12.224401320293602"><ele>235.16666666666666</ele><time>2026-04-25T08:42:09Z</time></trkpt><trkpt lat="43.141994489021364" lon="12.224510117812939"><ele>235.0</ele><time>2026-04-25T08:42:10Z</time></trkpt><trkpt lat="43.1419705337117" lon="12.224621192150423"><ele>234.99999999999997</ele><time>2026-04-25T08:42:11Z</time></trkpt><trkpt lat="43.14194562413412" lon="12.224734186662362"><ele>235.0</ele><time>2026-04-25T08:42:12Z</time></trkpt><trkpt lat="43.14191272492423" lon="12.224844366830867"><ele>235.0</ele><time>2026-04-25T08:42:13Z</time></trkpt><trkpt lat="43.141880240499134" lon="12.224956086852004"><ele>235.0</ele><time>2026-04-25T08:42:14Z</time></trkpt><trkpt lat="43.14184761592766" lon="12.225073360851821"><ele>234.99999999999997</ele><time>2026-04-25T08:42:15Z</time></trkpt><trkpt lat="43.141816863575215" lon="12.225196461066021"><ele>235.0</ele><time>2026-04-25T08:42:16Z</time></trkpt><trkpt lat="43.14178250196658" lon="12.225326595253343"><ele>235.33333333333331</ele><time>2026-04-25T08:42:17Z</time></trkpt><trkpt lat="43.14174310921785" lon="12.225454140779407"><ele>235.66666666666666</ele><time>2026-04-25T08:42:18Z</time></trkpt><trkpt lat="43.141712774399615" lon="12.225576442287709"><ele>236.0</ele><time>2026-04-25T08:42:19Z</time></trkpt><trkpt lat="43.14168596366338" lon="12.22569179716642"><ele>236.33333333333331</ele><time>2026-04-25T08:42:20Z</time></trkpt><trkpt lat="43.14165574772868" lon="12.225796814844903"><ele>236.66666666666666</ele><time>2026-04-25T08:42:21Z</time></trkpt><trkpt lat="43.141625764505925" lon="12.225893104826865"><ele>237.0</ele><time>2026-04-25T08:42:22Z</time></trkpt><trkpt lat="43.141601792227405" lon="12.225981264536268"><ele>237.2</ele><time>2026-04-25T08:42:23Z</time></trkpt><trkpt lat="43.14156090929954" lon="12.226129033762083"><ele>237.39999999999998</ele><time>2026-04-25T08:42:25Z</time></trkpt><trkpt lat="43.14151127274297" lon="12.226242843619529"><ele>237.60000000000002</ele><time>2026-04-25T08:42:26.999Z</time></trkpt><trkpt lat="43.14143655062833" lon="12.226381929649309"><ele>237.8</ele><time>2026-04-25T08:42:28.999Z</time></trkpt><trkpt lat="43.14138843606266" lon="12.226472075604041"><ele>238.0</ele><time>2026-04-25T08:42:29.999Z</time></trkpt><trkpt lat="43.14135339670586" lon="12.226592617252242"><ele>237.5</ele><time>2026-04-25T08:42:30.999Z</time></trkpt><trkpt lat="43.141334492574835" lon="12.226732580723628"><ele>237.0</ele><time>2026-04-25T08:42:31.999Z</time></trkpt><trkpt lat="43.14133476760739" lon="12.226893121662203"><ele>236.5</ele><time>2026-04-25T08:42:32.999Z</time></trkpt><trkpt lat="43.14132808645213" lon="12.227067867267866"><ele>236.0</ele><time>2026-04-25T08:42:33.999Z</time></trkpt><trkpt lat="43.14129301389814" lon="12.227239487139473"><ele>236.0</ele><time>2026-04-25T08:42:34.999Z</time></trkpt><trkpt lat="43.141252131854344" lon="12.227402770330864"><ele>236.00000000000003</ele><time>2026-04-25T08:42:35.999Z</time></trkpt><trkpt lat="43.14121920819723" lon="12.227538307443668"><ele>236.00000000000003</ele><time>2026-04-25T08:42:36.999Z</time></trkpt><trkpt lat="43.141188579375914" lon="12.22765832743254"><ele>236.0</ele><time>2026-04-25T08:42:37.999Z</time></trkpt><trkpt lat="43.141162775332404" lon="12.22776076609982"><ele>236.0</ele><time>2026-04-25T08:42:38.999Z</time></trkpt><trkpt lat="43.141142520334114" lon="12.227847041073819"><ele>236.0</ele><time>2026-04-25T08:42:39.999Z</time></trkpt><trkpt lat="43.14110358010364" lon="12.228004129393607"><ele>236.00000000000003</ele><time>2026-04-25T08:42:41.999Z</time></trkpt><trkpt lat="43.14109415066482" lon="12.228090933643987"><ele>236.00000000000003</ele><time>2026-04-25T08:42:42.999Z</time></trkpt><trkpt lat="43.14104356451981" lon="12.228144151610792"><ele>236.0</ele><time>2026-04-25T08:42:43.999Z</time></trkpt><trkpt lat="43.14115280293544" lon="12.228260387660852"><ele>236.0</ele><time>2026-04-25T08:42:44.999Z</time></trkpt><trkpt lat="43.14120672179062" lon="12.228322117509961"><ele>236.00000000000003</ele><time>2026-04-25T08:42:45.999Z</time></trkpt><trkpt lat="43.14127111417055" lon="12.228362796231114"><ele>236.0</ele><time>2026-04-25T08:42:46.999Z</time></trkpt><trkpt lat="43.1413455647423" lon="12.228392672166104"><ele>236.0</ele><time>2026-04-25T08:42:47.999Z</time></trkpt><trkpt lat="43.14142202819315" lon="12.228453752266466"><ele>236.0</ele><time>2026-04-25T08:42:48.999Z</time></trkpt><trkpt lat="43.14149307344017" lon="12.228550138728975"><ele>236.00000000000003</ele><time>2026-04-25T08:42:49.999Z</time></trkpt><trkpt lat="43.141544035972956" lon="12.228672791032734"><ele>236.0</ele><time>2026-04-25T08:42:50.999Z</time></trkpt><trkpt lat="43.14156855608961" lon="12.228814541590152"><ele>236.0</ele><time>2026-04-25T08:42:51.999Z</time></trkpt><trkpt lat="43.141561940694785" lon="12.228969099976505"><ele>236.00000000000003</ele><time>2026-04-25T08:42:52.999Z</time></trkpt><trkpt lat="43.141538029601435" lon="12.229121999518643"><ele>236.00000000000003</ele><time>2026-04-25T08:42:53.999Z</time></trkpt><trkpt lat="43.141514646906636" lon="12.229259813428376"><ele>236.0</ele><time>2026-04-25T08:42:54.999Z</time></trkpt><trkpt lat="43.14149642382925" lon="12.229385602850547"><ele>236.0</ele><time>2026-04-25T08:42:55.999Z</time></trkpt><trkpt lat="43.14147890493769" lon="12.229518735328163"><ele>235.5</ele><time>2026-04-25T08:42:56.999Z</time></trkpt><trkpt lat="43.14145663124374" lon="12.22966695187821"><ele>235.0</ele><time>2026-04-25T08:42:57.999Z</time></trkpt><trkpt lat="43.14143191116875" lon="12.22982451545851"><ele>234.5</ele><time>2026-04-25T08:42:58.999Z</time></trkpt><trkpt lat="43.14140673832894" lon="12.229984829959093"><ele>234.0</ele><time>2026-04-25T08:42:59.999Z</time></trkpt><trkpt lat="43.141383574188055" lon="12.230145915833845"><ele>234.0</ele><time>2026-04-25T08:43:00.999Z</time></trkpt><trkpt lat="43.14136115550557" lon="12.230310254242792"><ele>234.0</ele><time>2026-04-25T08:43:01.999Z</time></trkpt><trkpt lat="43.14133535945073" lon="12.230490725107115"><ele>234.0</ele><time>2026-04-25T08:43:02.999Z</time></trkpt><trkpt lat="43.14130758041209" lon="12.230698695545092"><ele>234.0</ele><time>2026-04-25T08:43:03.999Z</time></trkpt><trkpt lat="43.1412726101381" lon="12.230894262586848"><ele>234.66666666666669</ele><time>2026-04-25T08:43:04.999Z</time></trkpt><trkpt lat="43.14123278813321" lon="12.231095863728788"><ele>235.33333333333334</ele><time>2026-04-25T08:43:05.999Z</time></trkpt><trkpt lat="43.14119084216223" lon="12.231308922530381"><ele>236.0</ele><time>2026-04-25T08:43:06.999Z</time></trkpt><trkpt lat="43.141151031869285" lon="12.231546347796286"><ele>236.66666666666669</ele><time>2026-04-25T08:43:07.999Z</time></trkpt><trkpt lat="43.141113444476815" lon="12.23180519200407"><ele>237.33333333333331</ele><time>2026-04-25T08:43:08.999Z</time></trkpt><trkpt lat="43.14106848922903" lon="12.232077749082759"><ele>238.0</ele><time>2026-04-25T08:43:09.999Z</time></trkpt><trkpt lat="43.14101273885221" lon="12.232362571277237"><ele>238.0</ele><time>2026-04-25T08:43:10.999Z</time></trkpt><trkpt lat="43.14095352279823" lon="12.232661611553814"><ele>238.0</ele><time>2026-04-25T08:43:11.999Z</time></trkpt><trkpt lat="43.14089055194572" lon="12.232972432273348"><ele>237.0</ele><time>2026-04-25T08:43:12.999Z</time></trkpt><trkpt lat="43.14082307454946" lon="12.233292521573714"><ele>236.0</ele><time>2026-04-25T08:43:13.999Z</time></trkpt><trkpt lat="43.14075540808822" lon="12.23362339838604"><ele>236.0</ele><time>2026-04-25T08:43:14.999Z</time></trkpt><trkpt lat="43.14068465487785" lon="12.233965832123564"><ele>236.0</ele><time>2026-04-25T08:43:15.999Z</time></trkpt><trkpt lat="43.1406088217577" lon="12.234317924145033"><ele>236.5</ele><time>2026-04-25T08:43:16.999Z</time></trkpt><trkpt lat="43.14052668554249" lon="12.23467386030392"><ele>237.0</ele><time>2026-04-25T08:43:17.999Z</time></trkpt><trkpt lat="43.1404427665053" lon="12.235036317738883"><ele>237.0</ele><time>2026-04-25T08:43:18.999Z</time></trkpt><trkpt lat="43.14035646259285" lon="12.235402232051"><ele>237.0</ele><time>2026-04-25T08:43:19.999Z</time></trkpt><trkpt lat="43.14026716748242" lon="12.2357698988723"><ele>236.5</ele><time>2026-04-25T08:43:20.999Z</time></trkpt><trkpt lat="43.140171850225336" lon="12.236137001516548"><ele>236.0</ele><time>2026-04-25T08:43:21.999Z</time></trkpt><trkpt lat="43.14007672574898" lon="12.236508468094703"><ele>235.5</ele><time>2026-04-25T08:43:22.999Z</time></trkpt><trkpt lat="43.13998370698312" lon="12.23687977334492"><ele>235.0</ele><time>2026-04-25T08:43:23.999Z</time></trkpt><trkpt lat="43.139887854331384" lon="12.237251477148044"><ele>235.5</ele><time>2026-04-25T08:43:24.999Z</time></trkpt><trkpt lat="43.13978845446425" lon="12.237627284705447"><ele>236.0</ele><time>2026-04-25T08:43:25.999Z</time></trkpt><trkpt lat="43.13968760150162" lon="12.238006247336195"><ele>237.0</ele><time>2026-04-25T08:43:26.999Z</time></trkpt><trkpt lat="43.13958454361467" lon="12.238386576897943"><ele>238.0</ele><time>2026-04-25T08:43:27.999Z</time></trkpt><trkpt lat="43.13948049596739" lon="12.23877239472783"><ele>237.5</ele><time>2026-04-25T08:43:28.999Z</time></trkpt><trkpt lat="43.139377547402326" lon="12.239164734748915"><ele>237.0</ele><time>2026-04-25T08:43:29.999Z</time></trkpt><trkpt lat="43.139272962831434" lon="12.239559179241677"><ele>236.0</ele><time>2026-04-25T08:43:30.999Z</time></trkpt><trkpt lat="43.1391650458982" lon="12.239954060386644"><ele>235.0</ele><time>2026-04-25T08:43:31.999Z</time></trkpt><trkpt lat="43.139051308413904" lon="12.240352873183076"><ele>235.0</ele><time>2026-04-25T08:43:32.999Z</time></trkpt><trkpt lat="43.13893700674638" lon="12.240755588856416"><ele>235.0</ele><time>2026-04-25T08:43:33.998Z</time></trkpt><trkpt lat="43.13882160962592" lon="12.241160943933346"><ele>234.5</ele><time>2026-04-25T08:43:34.998Z</time></trkpt><trkpt lat="43.13870671624434" lon="12.241562844216904"><ele>234.0</ele><time>2026-04-25T08:43:35.998Z</time></trkpt><trkpt lat="43.13859245822699" lon="12.24196296906854"><ele>234.5</ele><time>2026-04-25T08:43:36.998Z</time></trkpt><trkpt lat="43.138480900120534" lon="12.24236279154131"><ele>235.0</ele><time>2026-04-25T08:43:37.998Z</time></trkpt><trkpt lat="43.13837039855185" lon="12.242764464945568"><ele>234.5</ele><time>2026-04-25T08:43:38.998Z</time></trkpt><trkpt lat="43.138262721074504" lon="12.243162773754152"><ele>234.0</ele><time>2026-04-25T08:43:39.998Z</time></trkpt><trkpt lat="43.13815102013605" lon="12.243560801085373"><ele>234.0</ele><time>2026-04-25T08:43:40.998Z</time></trkpt><trkpt lat="43.13804247856146" lon="12.243958592131868"><ele>234.0</ele><time>2026-04-25T08:43:41.998Z</time></trkpt><trkpt lat="43.13793545947036" lon="12.244357145883008"><ele>233.0</ele><time>2026-04-25T08:43:42.998Z</time></trkpt><trkpt lat="43.13782844515123" lon="12.244756724007745"><ele>232.0</ele><time>2026-04-25T08:43:43.998Z</time></trkpt><trkpt lat="43.137720817097176" lon="12.245156065799856"><ele>232.0</ele><time>2026-04-25T08:43:45Z</time></trkpt><trkpt lat="43.137613506104195" lon="12.245552940994374"><ele>232.0</ele><time>2026-04-25T08:43:46Z</time></trkpt><trkpt lat="43.137505543177376" lon="12.245948375263323"><ele>232.0</ele><time>2026-04-25T08:43:47Z</time></trkpt><trkpt lat="43.13739723176352" lon="12.246344167593952"><ele>232.0</ele><time>2026-04-25T08:43:48Z</time></trkpt><trkpt lat="43.137286671440854" lon="12.246740051602922"><ele>232.0</ele><time>2026-04-25T08:43:49Z</time></trkpt><trkpt lat="43.13717845011304" lon="12.247135564686303"><ele>232.0</ele><time>2026-04-25T08:43:50Z</time></trkpt><trkpt lat="43.137072547969375" lon="12.247532647400352"><ele>231.5</ele><time>2026-04-25T08:43:51Z</time></trkpt><trkpt lat="43.136968157324205" lon="12.247925866489037"><ele>231.0</ele><time>2026-04-25T08:43:52Z</time></trkpt><trkpt lat="43.13686445929015" lon="12.248314805955516"><ele>230.0</ele><time>2026-04-25T08:43:53Z</time></trkpt><trkpt lat="43.13676050540077" lon="12.24869952303845"><ele>229.0</ele><time>2026-04-25T08:43:54Z</time></trkpt><trkpt lat="43.1366555522002" lon="12.249081574812555"><ele>229.0</ele><time>2026-04-25T08:43:55Z</time></trkpt><trkpt lat="43.13655661684239" lon="12.249468616943167"><ele>229.0</ele><time>2026-04-25T08:43:56Z</time></trkpt><trkpt lat="43.13646055572267" lon="12.249863021005575"><ele>229.0</ele><time>2026-04-25T08:43:57Z</time></trkpt><trkpt lat="43.136360694234796" lon="12.250260705587605"><ele>229.0</ele><time>2026-04-25T08:43:58Z</time></trkpt><trkpt lat="43.13625623942065" lon="12.250658540870091"><ele>229.5</ele><time>2026-04-25T08:43:59Z</time></trkpt><trkpt lat="43.13615530204503" lon="12.25104071592692"><ele>230.0</ele><time>2026-04-25T08:44:00Z</time></trkpt><trkpt lat="43.13605668813865" lon="12.251398214278591"><ele>230.0</ele><time>2026-04-25T08:44:01Z</time></trkpt><trkpt lat="43.135948557023795" lon="12.251760394725272"><ele>230.0</ele><time>2026-04-25T08:44:02Z</time></trkpt><trkpt lat="43.13584770008921" lon="12.252131768628686"><ele>230.5</ele><time>2026-04-25T08:44:03Z</time></trkpt><trkpt lat="43.13575128828658" lon="12.252512919301234"><ele>231.0</ele><time>2026-04-25T08:44:04Z</time></trkpt><trkpt lat="43.13564741901833" lon="12.25289325209775"><ele>231.5</ele><time>2026-04-25T08:44:05Z</time></trkpt><trkpt lat="43.13553946575541" lon="12.253276627561338"><ele>232.0</ele><time>2026-04-25T08:44:06Z</time></trkpt><trkpt lat="43.135435406919385" lon="12.253661880793068"><ele>232.5</ele><time>2026-04-25T08:44:07Z</time></trkpt><trkpt lat="43.13532788857139" lon="12.254048652776335"><ele>233.0</ele><time>2026-04-25T08:44:08Z</time></trkpt><trkpt lat="43.13521352254701" lon="12.25443782267433"><ele>233.0</ele><time>2026-04-25T08:44:09Z</time></trkpt><trkpt lat="43.135096409944694" lon="12.254826219113394"><ele>233.0</ele><time>2026-04-25T08:44:10Z</time></trkpt><trkpt lat="43.13498545224452" lon="12.255214865637871"><ele>234.0</ele><time>2026-04-25T08:44:11Z</time></trkpt><trkpt lat="43.13488160943738" lon="12.25558083394747"><ele>235.0</ele><time>2026-04-25T08:44:12Z</time></trkpt><trkpt lat="43.13478107636625" lon="12.255923286756792"><ele>236.0</ele><time>2026-04-25T08:44:13Z</time></trkpt><trkpt lat="43.13468306430699" lon="12.256253189398072"><ele>237.0</ele><time>2026-04-25T08:44:14Z</time></trkpt><trkpt lat="43.13459772140172" lon="12.256569240177004"><ele>237.0</ele><time>2026-04-25T08:44:15Z</time></trkpt><trkpt lat="43.13451495756715" lon="12.25687218584703"><ele>237.0</ele><time>2026-04-25T08:44:16Z</time></trkpt><trkpt lat="43.13443793534866" lon="12.257153327209823"><ele>236.0</ele><time>2026-04-25T08:44:17Z</time></trkpt><trkpt lat="43.13436620102629" lon="12.257413621018236"><ele>235.0</ele><time>2026-04-25T08:44:18Z</time></trkpt><trkpt lat="43.13430383706667" lon="12.25764735742498"><ele>234.0</ele><time>2026-04-25T08:44:19Z</time></trkpt><trkpt lat="43.13424091712704" lon="12.257856637218563"><ele>234.0</ele><time>2026-04-25T08:44:20Z</time></trkpt><trkpt lat="43.13416106272755" lon="12.258026427453114"><ele>234.0</ele><time>2026-04-25T08:44:21Z</time></trkpt><trkpt lat="43.13405445190426" lon="12.25815605135103"><ele>234.0</ele><time>2026-04-25T08:44:22Z</time></trkpt><trkpt lat="43.13392531506354" lon="12.258251121952876"><ele>234.0</ele><time>2026-04-25T08:44:23Z</time></trkpt><trkpt lat="43.133771502535765" lon="12.258305753050301"><ele>233.5</ele><time>2026-04-25T08:44:24Z</time></trkpt><trkpt lat="43.13361479210402" lon="12.258300203765412"><ele>233.0</ele><time>2026-04-25T08:44:25Z</time></trkpt><trkpt lat="43.13347820090156" lon="12.258293799681164"><ele>232.5</ele><time>2026-04-25T08:44:26Z</time></trkpt><trkpt lat="43.13334899058535" lon="12.258356645319164"><ele>232.0</ele><time>2026-04-25T08:44:27Z</time></trkpt><trkpt lat="43.13324644674056" lon="12.25847190149386"><ele>232.5</ele><time>2026-04-25T08:44:28Z</time></trkpt><trkpt lat="43.133178844809024" lon="12.258639196247687"><ele>233.0</ele><time>2026-04-25T08:44:28.999Z</time></trkpt><trkpt lat="43.133147541345295" lon="12.258833419176623"><ele>233.5</ele><time>2026-04-25T08:44:29.999Z</time></trkpt><trkpt lat="43.13316689167299" lon="12.25903194415111"><ele>234.0</ele><time>2026-04-25T08:44:30.999Z</time></trkpt><trkpt lat="43.133241241523514" lon="12.25922231258599"><ele>234.0</ele><time>2026-04-25T08:44:31.999Z</time></trkpt><trkpt lat="43.13335184367729" lon="12.259405599604039"><ele>234.0</ele><time>2026-04-25T08:44:32.999Z</time></trkpt><trkpt lat="43.13346242336704" lon="12.259604296246735"><ele>234.0</ele><time>2026-04-25T08:44:33.999Z</time></trkpt><trkpt lat="43.1335745656682" lon="12.259825797952356"><ele>233.66666666666669</ele><time>2026-04-25T08:44:34.999Z</time></trkpt><trkpt lat="43.13369268819963" lon="12.260061543110314"><ele>233.33333333333334</ele><time>2026-04-25T08:44:35.999Z</time></trkpt><trkpt lat="43.13381855760145" lon="12.260316363175216"><ele>233.0</ele><time>2026-04-25T08:44:36.999Z</time></trkpt><trkpt lat="43.133956844216186" lon="12.260561116654635"><ele>232.5</ele><time>2026-04-25T08:44:37.999Z</time></trkpt><trkpt lat="43.13408858982129" lon="12.260822274140535"><ele>232.0</ele><time>2026-04-25T08:44:38.999Z</time></trkpt><trkpt lat="43.134232558123585" lon="12.261092552540882"><ele>232.0</ele><time>2026-04-25T08:44:39.999Z</time></trkpt><trkpt lat="43.13437486319713" lon="12.26136779050076"><ele>232.0</ele><time>2026-04-25T08:44:40.999Z</time></trkpt><trkpt lat="43.13450842430989" lon="12.261629120593714"><ele>232.33333333333331</ele><time>2026-04-25T08:44:41.999Z</time></trkpt><trkpt lat="43.13463239048137" lon="12.261870588647003"><ele>232.66666666666669</ele><time>2026-04-25T08:44:42.999Z</time></trkpt><trkpt lat="43.13474055172003" lon="12.262075962785724"><ele>233.0</ele><time>2026-04-25T08:44:43.999Z</time></trkpt><trkpt lat="43.134839764613325" lon="12.262266962556808"><ele>233.25</ele><time>2026-04-25T08:44:44.999Z</time></trkpt><trkpt lat="43.13492210674442" lon="12.262427531654827"><ele>233.5</ele><time>2026-04-25T08:44:45.999Z</time></trkpt><trkpt lat="43.134985693773956" lon="12.262561328493073"><ele>233.75</ele><time>2026-04-25T08:44:46.999Z</time></trkpt><trkpt lat="43.135040915945694" lon="12.262672100171947"><ele>234.0</ele><time>2026-04-25T08:44:47.999Z</time></trkpt><trkpt lat="43.13500592023806" lon="12.26286076468287"><ele>234.0</ele><time>2026-04-25T08:44:48.999Z</time></trkpt><trkpt lat="43.13500215804353" lon="12.263036408699156"><ele>234.0</ele><time>2026-04-25T08:44:49.999Z</time></trkpt><trkpt lat="43.135042375938426" lon="12.263220532475392"><ele>234.0</ele><time>2026-04-25T08:44:50.999Z</time></trkpt><trkpt lat="43.135122859077406" lon="12.26339350192707"><ele>234.0</ele><time>2026-04-25T08:44:51.999Z</time></trkpt><trkpt lat="43.13523870129202" lon="12.2635316489731"><ele>234.0</ele><time>2026-04-25T08:44:52.999Z</time></trkpt><trkpt lat="43.13538152879113" lon="12.263625288967283"><ele>234.0</ele><time>2026-04-25T08:44:53.999Z</time></trkpt><trkpt lat="43.13552370538982" lon="12.263693113569762"><ele>234.0</ele><time>2026-04-25T08:44:54.999Z</time></trkpt><trkpt lat="43.135654270298424" lon="12.263817044039072"><ele>233.66666666666669</ele><time>2026-04-25T08:44:55.999Z</time></trkpt><trkpt lat="43.13575886847471" lon="12.264002412039918"><ele>233.33333333333334</ele><time>2026-04-25T08:44:56.999Z</time></trkpt><trkpt lat="43.135854294735516" lon="12.264220605556229"><ele>233.0</ele><time>2026-04-25T08:44:57.999Z</time></trkpt><trkpt lat="43.13596549013312" lon="12.264436563518471"><ele>233.0</ele><time>2026-04-25T08:44:58.999Z</time></trkpt><trkpt lat="43.13608550719467" lon="12.264656075137996"><ele>233.0</ele><time>2026-04-25T08:44:59.999Z</time></trkpt><trkpt lat="43.1362031140906" lon="12.264879545736546"><ele>233.0</ele><time>2026-04-25T08:45:00.999Z</time></trkpt><trkpt lat="43.13631557244528" lon="12.265089141061225"><ele>233.33333333333334</ele><time>2026-04-25T08:45:01.999Z</time></trkpt><trkpt lat="43.13642426323367" lon="12.26528641588462"><ele>233.66666666666669</ele><time>2026-04-25T08:45:02.999Z</time></trkpt><trkpt lat="43.136538112344326" lon="12.265492616883433"><ele>234.0</ele><time>2026-04-25T08:45:03.999Z</time></trkpt><trkpt lat="43.13666063023738" lon="12.265717921611701"><ele>234.0</ele><time>2026-04-25T08:45:04.999Z</time></trkpt><trkpt lat="43.13678517881915" lon="12.26596231353598"><ele>234.0</ele><time>2026-04-25T08:45:05.999Z</time></trkpt><trkpt lat="43.136908756775526" lon="12.266224710720957"><ele>234.0</ele><time>2026-04-25T08:45:06.999Z</time></trkpt><trkpt lat="43.13703861577158" lon="12.266490132882957"><ele>234.0</ele><time>2026-04-25T08:45:07.999Z</time></trkpt><trkpt lat="43.137175330636815" lon="12.266760812040694"><ele>234.0</ele><time>2026-04-25T08:45:08.999Z</time></trkpt><trkpt lat="43.1373161108813" lon="12.26703313765761"><ele>235.5</ele><time>2026-04-25T08:45:09.999Z</time></trkpt><trkpt lat="43.13745965051679" lon="12.267313912486262"><ele>237.0</ele><time>2026-04-25T08:45:10.999Z</time></trkpt><trkpt lat="43.13760405160538" lon="12.267597803003289"><ele>237.0</ele><time>2026-04-25T08:45:11.999Z</time></trkpt><trkpt lat="43.13775220527221" lon="12.267884503323975"><ele>237.0</ele><time>2026-04-25T08:45:12.999Z</time></trkpt><trkpt lat="43.137902591251766" lon="12.268169551310125"><ele>236.5</ele><time>2026-04-25T08:45:13.999Z</time></trkpt><trkpt lat="43.13805754552476" lon="12.268450397784093"><ele>236.0</ele><time>2026-04-25T08:45:14.999Z</time></trkpt><trkpt lat="43.13823193675376" lon="12.268717787699686"><ele>236.0</ele><time>2026-04-25T08:45:15.999Z</time></trkpt><trkpt lat="43.13841732467266" lon="12.268969208677005"><ele>236.0</ele><time>2026-04-25T08:45:16.999Z</time></trkpt><trkpt lat="43.1386039018506" lon="12.2692004576145"><ele>236.0</ele><time>2026-04-25T08:45:17.999Z</time></trkpt><trkpt lat="43.13878331113502" lon="12.269399534896479"><ele>236.0</ele><time>2026-04-25T08:45:18.999Z</time></trkpt><trkpt lat="43.138961929765635" lon="12.269577516376902"><ele>236.33333333333334</ele><time>2026-04-25T08:45:19.999Z</time></trkpt><trkpt lat="43.13913576710488" lon="12.269745401757648"><ele>236.66666666666669</ele><time>2026-04-25T08:45:20.999Z</time></trkpt><trkpt lat="43.1392711606534" lon="12.26993581568115"><ele>237.0</ele><time>2026-04-25T08:45:21.999Z</time></trkpt><trkpt lat="43.139376291290304" lon="12.270168587161407"><ele>237.0</ele><time>2026-04-25T08:45:22.999Z</time></trkpt><trkpt lat="43.139444384791446" lon="12.270432661648156"><ele>237.0</ele><time>2026-04-25T08:45:23.999Z</time></trkpt><trkpt lat="43.139474970484635" lon="12.270719512968576"><ele>237.0</ele><time>2026-04-25T08:45:24.999Z</time></trkpt><trkpt lat="43.13946043492569" lon="12.271022019685878"><ele>236.5</ele><time>2026-04-25T08:45:25.999Z</time></trkpt><trkpt lat="43.139416422910536" lon="12.271326045580304"><ele>236.0</ele><time>2026-04-25T08:45:26.999Z</time></trkpt><trkpt lat="43.13936618446852" lon="12.271640386435912"><ele>236.0</ele><time>2026-04-25T08:45:27.999Z</time></trkpt><trkpt lat="43.13931825166769" lon="12.271966119885946"><ele>236.0</ele><time>2026-04-25T08:45:28.999Z</time></trkpt><trkpt lat="43.13927114816681" lon="12.272296622380987"><ele>237.0</ele><time>2026-04-25T08:45:29.999Z</time></trkpt><trkpt lat="43.13921974062961" lon="12.272632625235461"><ele>238.0</ele><time>2026-04-25T08:45:30.999Z</time></trkpt><trkpt lat="43.13916762307848" lon="12.272973724100453"><ele>239.0</ele><time>2026-04-25T08:45:31.999Z</time></trkpt><trkpt lat="43.13911525659019" lon="12.273311334632956"><ele>240.0</ele><time>2026-04-25T08:45:32.999Z</time></trkpt><trkpt lat="43.13906343799569" lon="12.273624130625073"><ele>239.33333333333331</ele><time>2026-04-25T08:45:33.999Z</time></trkpt><trkpt lat="43.13901555842674" lon="12.273917052964556"><ele>238.66666666666666</ele><time>2026-04-25T08:45:34.998Z</time></trkpt><trkpt lat="43.13898642551574" lon="12.274195587325767"><ele>238.0</ele><time>2026-04-25T08:45:35.998Z</time></trkpt><trkpt lat="43.13899222807882" lon="12.274469808108032"><ele>238.0</ele><time>2026-04-25T08:45:36.998Z</time></trkpt><trkpt lat="43.13903791141286" lon="12.27473983432784"><ele>238.0</ele><time>2026-04-25T08:45:37.998Z</time></trkpt><trkpt lat="43.13912319315227" lon="12.274987783611857"><ele>238.0</ele><time>2026-04-25T08:45:38.998Z</time></trkpt><trkpt lat="43.1392480396639" lon="12.275207167483119"><ele>238.0</ele><time>2026-04-25T08:45:39.998Z</time></trkpt><trkpt lat="43.13940188793628" lon="12.275405139447434"><ele>238.0</ele><time>2026-04-25T08:45:40.998Z</time></trkpt><trkpt lat="43.139574893911686" lon="12.275583940160912"><ele>238.0</ele><time>2026-04-25T08:45:41.998Z</time></trkpt><trkpt lat="43.139753960625164" lon="12.275762996764568"><ele>238.5</ele><time>2026-04-25T08:45:42.998Z</time></trkpt><trkpt lat="43.13993824585914" lon="12.275953741865774"><ele>239.0</ele><time>2026-04-25T08:45:43.998Z</time></trkpt><trkpt lat="43.1401277727091" lon="12.276144946429326"><ele>239.0</ele><time>2026-04-25T08:45:44.998Z</time></trkpt><trkpt lat="43.140319237657785" lon="12.27633588743182"><ele>239.0</ele><time>2026-04-25T08:45:45.998Z</time></trkpt><trkpt lat="43.140510889902544" lon="12.276533571835898"><ele>238.5</ele><time>2026-04-25T08:45:46.998Z</time></trkpt><trkpt lat="43.14070418686923" lon="12.276730179615813"><ele>238.0</ele><time>2026-04-25T08:45:47.998Z</time></trkpt><trkpt lat="43.14089793512729" lon="12.27692556321277"><ele>238.0</ele><time>2026-04-25T08:45:48.998Z</time></trkpt><trkpt lat="43.14109225112812" lon="12.277124107164594"><ele>238.0</ele><time>2026-04-25T08:45:49.998Z</time></trkpt><trkpt lat="43.14128897674126" lon="12.277331118271617"><ele>237.5</ele><time>2026-04-25T08:45:51Z</time></trkpt><trkpt lat="43.14148852156452" lon="12.27754940353386"><ele>237.0</ele><time>2026-04-25T08:45:52Z</time></trkpt><trkpt lat="43.14168953259635" lon="12.277779115621913"><ele>238.5</ele><time>2026-04-25T08:45:53Z</time></trkpt><trkpt lat="43.14189449188025" lon="12.278013524962338"><ele>240.0</ele><time>2026-04-25T08:45:54Z</time></trkpt><trkpt lat="43.14210159329476" lon="12.27825619239849"><ele>240.0</ele><time>2026-04-25T08:45:55Z</time></trkpt><trkpt lat="43.142290121286926" lon="12.278534307687737"><ele>240.0</ele><time>2026-04-25T08:45:56Z</time></trkpt><trkpt lat="43.14248838943292" lon="12.278804997117938"><ele>239.0</ele><time>2026-04-25T08:45:57Z</time></trkpt><trkpt lat="43.14269675114389" lon="12.279061002293753"><ele>238.0</ele><time>2026-04-25T08:45:58Z</time></trkpt><trkpt lat="43.14289560404538" lon="12.279328551689659"><ele>238.0</ele><time>2026-04-25T08:45:59Z</time></trkpt><trkpt lat="43.143100505180456" lon="12.279582814360857"><ele>238.0</ele><time>2026-04-25T08:46:00Z</time></trkpt><trkpt lat="43.143314866422436" lon="12.279821285637722"><ele>238.5</ele><time>2026-04-25T08:46:01Z</time></trkpt><trkpt lat="43.1435314517176" lon="12.280057849537869"><ele>239.0</ele><time>2026-04-25T08:46:02Z</time></trkpt><trkpt lat="43.1437420514104" lon="12.280302609763913"><ele>239.0</ele><time>2026-04-25T08:46:03Z</time></trkpt><trkpt lat="43.143943089575735" lon="12.280553574829442"><ele>239.0</ele><time>2026-04-25T08:46:04Z</time></trkpt><trkpt lat="43.14413533724868" lon="12.28079348299539"><ele>238.5</ele><time>2026-04-25T08:46:05Z</time></trkpt><trkpt lat="43.14431571743415" lon="12.281020685253237"><ele>238.0</ele><time>2026-04-25T08:46:06Z</time></trkpt><trkpt lat="43.14449305068731" lon="12.281234602852404"><ele>238.0</ele><time>2026-04-25T08:46:07Z</time></trkpt><trkpt lat="43.14466368204055" lon="12.281437478896903"><ele>238.0</ele><time>2026-04-25T08:46:08Z</time></trkpt><trkpt lat="43.14482649146669" lon="12.281629643933762"><ele>238.0</ele><time>2026-04-25T08:46:09Z</time></trkpt><trkpt lat="43.144974082918054" lon="12.281824587456029"><ele>238.0</ele><time>2026-04-25T08:46:10Z</time></trkpt><trkpt lat="43.14509178489828" lon="12.282040560624544"><ele>238.0</ele><time>2026-04-25T08:46:11Z</time></trkpt><trkpt lat="43.14517458168578" lon="12.282284831278321"><ele>238.0</ele><time>2026-04-25T08:46:12Z</time></trkpt><trkpt lat="43.14522228773929" lon="12.282556213973423"><ele>238.66666666666666</ele><time>2026-04-25T08:46:13Z</time></trkpt><trkpt lat="43.145225671100796" lon="12.28283822508642"><ele>239.33333333333331</ele><time>2026-04-25T08:46:14Z</time></trkpt><trkpt lat="43.145183327180604" lon="12.283120981327698"><ele>240.0</ele><time>2026-04-25T08:46:15Z</time></trkpt><trkpt lat="43.14510378763915" lon="12.283397577619835"><ele>240.0</ele><time>2026-04-25T08:46:16Z</time></trkpt><trkpt lat="43.1450209290872" lon="12.28367326713377"><ele>240.0</ele><time>2026-04-25T08:46:17Z</time></trkpt><trkpt lat="43.144952720327346" lon="12.28394021222303"><ele>240.0</ele><time>2026-04-25T08:46:18Z</time></trkpt><trkpt lat="43.144899934409786" lon="12.284197172945074"><ele>240.0</ele><time>2026-04-25T08:46:19Z</time></trkpt><trkpt lat="43.14487837973057" lon="12.284461124663395"><ele>240.0</ele><time>2026-04-25T08:46:20Z</time></trkpt><trkpt lat="43.14489209886009" lon="12.284730230734247"><ele>240.0</ele><time>2026-04-25T08:46:21Z</time></trkpt><trkpt lat="43.14494097750894" lon="12.28499316671292"><ele>240.33333333333331</ele><time>2026-04-25T08:46:22Z</time></trkpt><trkpt lat="43.145024728645254" lon="12.28523786539816"><ele>240.66666666666666</ele><time>2026-04-25T08:46:23Z</time></trkpt><trkpt lat="43.14514243003883" lon="12.285453046627156"><ele>241.0</ele><time>2026-04-25T08:46:24Z</time></trkpt><trkpt lat="43.14528979301673" lon="12.285634118614976"><ele>241.33333333333331</ele><time>2026-04-25T08:46:25Z</time></trkpt><trkpt lat="43.14545833125264" lon="12.285775482558796"><ele>241.66666666666669</ele><time>2026-04-25T08:46:26Z</time></trkpt><trkpt lat="43.14564404965362" lon="12.285870259736244"><ele>242.0</ele><time>2026-04-25T08:46:27Z</time></trkpt><trkpt lat="43.145846476903465" lon="12.285916054728864"><ele>242.0</ele><time>2026-04-25T08:46:28Z</time></trkpt><trkpt lat="43.1460519495338" lon="12.285929389842908"><ele>242.0</ele><time>2026-04-25T08:46:29Z</time></trkpt><trkpt lat="43.146255284482656" lon="12.285901228864383"><ele>242.0</ele><time>2026-04-25T08:46:30Z</time></trkpt><trkpt lat="43.14645474085456" lon="12.28586260859728"><ele>242.66666666666669</ele><time>2026-04-25T08:46:31Z</time></trkpt><trkpt lat="43.14664719429935" lon="12.285819397732693"><ele>243.33333333333331</ele><time>2026-04-25T08:46:32Z</time></trkpt><trkpt lat="43.1468490061337" lon="12.285781860686585"><ele>244.0</ele><time>2026-04-25T08:46:32.999Z</time></trkpt><trkpt lat="43.14705356125733" lon="12.285749861449718"><ele>244.0</ele><time>2026-04-25T08:46:33.999Z</time></trkpt><trkpt lat="43.14726250363374" lon="12.285742218015871"><ele>244.0</ele><time>2026-04-25T08:46:34.999Z</time></trkpt><trkpt lat="43.147474703420784" lon="12.285763467571387"><ele>244.0</ele><time>2026-04-25T08:46:35.999Z</time></trkpt><trkpt lat="43.14769109480775" lon="12.2857982987381"><ele>243.66666666666666</ele><time>2026-04-25T08:46:36.999Z</time></trkpt><trkpt lat="43.14790762953369" lon="12.285828362982162"><ele>243.33333333333331</ele><time>2026-04-25T08:46:37.999Z</time></trkpt><trkpt lat="43.14812317963386" lon="12.285858778646183"><ele>243.0</ele><time>2026-04-25T08:46:38.999Z</time></trkpt><trkpt lat="43.14832603238945" lon="12.285887524417687"><ele>243.0</ele><time>2026-04-25T08:46:39.999Z</time></trkpt><trkpt lat="43.148521650695606" lon="12.285914606514675"><ele>243.0</ele><time>2026-04-25T08:46:40.999Z</time></trkpt><trkpt lat="43.14870998849466" lon="12.285935841468815"><ele>243.0</ele><time>2026-04-25T08:46:41.999Z</time></trkpt><trkpt lat="43.148889943517865" lon="12.28596199035958"><ele>243.33333333333331</ele><time>2026-04-25T08:46:42.999Z</time></trkpt><trkpt lat="43.149064790820816" lon="12.285988436982086"><ele>243.66666666666666</ele><time>2026-04-25T08:46:43.999Z</time></trkpt><trkpt lat="43.1492407355126" lon="12.286021247353268"><ele>244.0</ele><time>2026-04-25T08:46:44.999Z</time></trkpt><trkpt lat="43.149419694908744" lon="12.286049601343452"><ele>244.0</ele><time>2026-04-25T08:46:45.999Z</time></trkpt><trkpt lat="43.14959902574876" lon="12.286077771017123"><ele>244.0</ele><time>2026-04-25T08:46:46.999Z</time></trkpt><trkpt lat="43.149779466748264" lon="12.286112770597846"><ele>244.0</ele><time>2026-04-25T08:46:47.999Z</time></trkpt><trkpt lat="43.14996101528193" lon="12.286156819112007"><ele>244.0</ele><time>2026-04-25T08:46:48.999Z</time></trkpt><trkpt lat="43.1501467491054" lon="12.286207317394366"><ele>244.0</ele><time>2026-04-25T08:46:49.999Z</time></trkpt><trkpt lat="43.1503380826115" lon="12.286269104722923"><ele>244.0</ele><time>2026-04-25T08:46:50.999Z</time></trkpt><trkpt lat="43.1505273491563" lon="12.28636078534731"><ele>244.0</ele><time>2026-04-25T08:46:51.999Z</time></trkpt><trkpt lat="43.15071515988811" lon="12.286480520367755"><ele>244.0</ele><time>2026-04-25T08:46:52.999Z</time></trkpt><trkpt lat="43.150894948741474" lon="12.286647918890026"><ele>244.0</ele><time>2026-04-25T08:46:53.999Z</time></trkpt><trkpt lat="43.15105561248125" lon="12.286798229822196"><ele>244.0</ele><time>2026-04-25T08:46:54.999Z</time></trkpt><trkpt lat="43.151202411066954" lon="12.286959622945538"><ele>244.0</ele><time>2026-04-25T08:46:55.999Z</time></trkpt><trkpt lat="43.15134444347699" lon="12.287136014212598"><ele>244.0</ele><time>2026-04-25T08:46:56.999Z</time></trkpt><trkpt lat="43.15148010939549" lon="12.287317906600386"><ele>245.0</ele><time>2026-04-25T08:46:57.999Z</time></trkpt><trkpt lat="43.151605081186126" lon="12.287518475825818"><ele>246.0</ele><time>2026-04-25T08:46:58.999Z</time></trkpt><trkpt lat="43.151726910840864" lon="12.287737740938308"><ele>247.0</ele><time>2026-04-25T08:46:59.999Z</time></trkpt><trkpt lat="43.15182408100375" lon="12.288000415498257"><ele>246.0</ele><time>2026-04-25T08:47:00.999Z</time></trkpt><trkpt lat="43.15192768924509" lon="12.288277355767535"><ele>245.0</ele><time>2026-04-25T08:47:01.999Z</time></trkpt><trkpt lat="43.152030123281826" lon="12.288567388129323"><ele>245.0</ele><time>2026-04-25T08:47:02.999Z</time></trkpt><trkpt lat="43.15214890578992" lon="12.288858903165561"><ele>245.0</ele><time>2026-04-25T08:47:03.999Z</time></trkpt><trkpt lat="43.15225040533202" lon="12.289174110915297"><ele>245.5</ele><time>2026-04-25T08:47:04.999Z</time></trkpt><trkpt lat="43.152362199548776" lon="12.289488339941267"><ele>246.0</ele><time>2026-04-25T08:47:05.999Z</time></trkpt><trkpt lat="43.152475195774926" lon="12.28981511744138"><ele>247.5</ele><time>2026-04-25T08:47:06.999Z</time></trkpt><trkpt lat="43.152586154020184" lon="12.29014827080622"><ele>249.0</ele><time>2026-04-25T08:47:07.999Z</time></trkpt><trkpt lat="43.15269981551673" lon="12.290488245904415"><ele>248.0</ele><time>2026-04-25T08:47:08.999Z</time></trkpt><trkpt lat="43.15281687888785" lon="12.29082956809808"><ele>247.0</ele><time>2026-04-25T08:47:09.999Z</time></trkpt><trkpt lat="43.15293506996353" lon="12.291172171380214"><ele>247.0</ele><time>2026-04-25T08:47:10.999Z</time></trkpt><trkpt lat="43.15305537566939" lon="12.291515075377516"><ele>247.0</ele><time>2026-04-25T08:47:11.999Z</time></trkpt><trkpt lat="43.15317704329636" lon="12.291859140898897"><ele>248.5</ele><time>2026-04-25T08:47:12.999Z</time></trkpt><trkpt lat="43.15330020548151" lon="12.292200330293326"><ele>250.0</ele><time>2026-04-25T08:47:13.999Z</time></trkpt><trkpt lat="43.153423649660304" lon="12.292541551183282"><ele>250.0</ele><time>2026-04-25T08:47:14.999Z</time></trkpt><trkpt lat="43.15354394700348" lon="12.292884665270865"><ele>250.0</ele><time>2026-04-25T08:47:15.999Z</time></trkpt><trkpt lat="43.15366279066935" lon="12.293225728664998"><ele>248.5</ele><time>2026-04-25T08:47:16.999Z</time></trkpt><trkpt lat="43.153782411148406" lon="12.293567083477338"><ele>247.0</ele><time>2026-04-25T08:47:17.999Z</time></trkpt><trkpt lat="43.1539031918109" lon="12.293906785016722"><ele>247.0</ele><time>2026-04-25T08:47:18.999Z</time></trkpt><trkpt lat="43.15402151872493" lon="12.294248571504875"><ele>247.0</ele><time>2026-04-25T08:47:19.999Z</time></trkpt><trkpt lat="43.154139862359195" lon="12.29458792745999"><ele>247.5</ele><time>2026-04-25T08:47:20.999Z</time></trkpt><trkpt lat="43.15425943432141" lon="12.294927117229316"><ele>248.0</ele><time>2026-04-25T08:47:21.999Z</time></trkpt><trkpt lat="43.15437587248152" lon="12.29526679122794"><ele>247.5</ele><time>2026-04-25T08:47:22.999Z</time></trkpt><trkpt lat="43.15448822488995" lon="12.295609786287551"><ele>247.0</ele><time>2026-04-25T08:47:23.999Z</time></trkpt><trkpt lat="43.15459331558294" lon="12.29595674700568"><ele>247.0</ele><time>2026-04-25T08:47:24.999Z</time></trkpt><trkpt lat="43.15469393021594" lon="12.2963075525728"><ele>247.0</ele><time>2026-04-25T08:47:25.999Z</time></trkpt><trkpt lat="43.154793307482585" lon="12.296657538562343"><ele>248.5</ele><time>2026-04-25T08:47:26.999Z</time></trkpt><trkpt lat="43.154890997053556" lon="12.297007822837717"><ele>250.0</ele><time>2026-04-25T08:47:27.999Z</time></trkpt><trkpt lat="43.15498778955986" lon="12.297356016333715"><ele>250.0</ele><time>2026-04-25T08:47:28.999Z</time></trkpt><trkpt lat="43.15508182965225" lon="12.29770786508581"><ele>250.0</ele><time>2026-04-25T08:47:29.999Z</time></trkpt><trkpt lat="43.15517324716657" lon="12.29805858977105"><ele>250.0</ele><time>2026-04-25T08:47:30.999Z</time></trkpt><trkpt lat="43.1552587594814" lon="12.298413171881515"><ele>250.0</ele><time>2026-04-25T08:47:31.999Z</time></trkpt><trkpt lat="43.155333236727174" lon="12.298772831082793"><ele>250.5</ele><time>2026-04-25T08:47:32.999Z</time></trkpt><trkpt lat="43.155395998323755" lon="12.299136132538898"><ele>251.0</ele><time>2026-04-25T08:47:33.999Z</time></trkpt><trkpt lat="43.15545281540657" lon="12.299504091440156"><ele>253.5</ele><time>2026-04-25T08:47:34.999Z</time></trkpt><trkpt lat="43.1555102583581" lon="12.29987169421048"><ele>256.0</ele><time>2026-04-25T08:47:35.999Z</time></trkpt><trkpt lat="43.155569987202945" lon="12.300239983709805"><ele>262.5</ele><time>2026-04-25T08:47:36.998Z</time></trkpt><trkpt lat="43.15563116155804" lon="12.300607551651071"><ele>269.0</ele><time>2026-04-25T08:47:37.998Z</time></trkpt><trkpt lat="43.155700441771344" lon="12.300969879272566"><ele>264.0</ele><time>2026-04-25T08:47:38.998Z</time></trkpt><trkpt lat="43.15578989046304" lon="12.301322992123401"><ele>259.0</ele><time>2026-04-25T08:47:39.998Z</time></trkpt><trkpt lat="43.15589836574622" lon="12.30166387016675"><ele>259.0</ele><time>2026-04-25T08:47:40.998Z</time></trkpt><trkpt lat="43.156015708864786" lon="12.302001978217724"><ele>259.0</ele><time>2026-04-25T08:47:41.998Z</time></trkpt><trkpt lat="43.15614232151833" lon="12.302331229661286"><ele>263.5</ele><time>2026-04-25T08:47:42.998Z</time></trkpt><trkpt lat="43.156275016662775" lon="12.302653433118989"><ele>268.0</ele><time>2026-04-25T08:47:43.998Z</time></trkpt><trkpt lat="43.15642225522275" lon="12.302964055001961"><ele>262.5</ele><time>2026-04-25T08:47:44.998Z</time></trkpt><trkpt lat="43.15658540351198" lon="12.303258574451881"><ele>257.0</ele><time>2026-04-25T08:47:45.998Z</time></trkpt><trkpt lat="43.1567647918664" lon="12.303538257514425"><ele>257.0</ele><time>2026-04-25T08:47:46.998Z</time></trkpt><trkpt lat="43.15695423805395" lon="12.303804115210067"><ele>257.0</ele><time>2026-04-25T08:47:47.998Z</time></trkpt><trkpt lat="43.15714755058411" lon="12.304064573919545"><ele>256.5</ele><time>2026-04-25T08:47:48.998Z</time></trkpt><trkpt lat="43.15733592810078" lon="12.304333719943374"><ele>256.0</ele><time>2026-04-25T08:47:49.998Z</time></trkpt><trkpt lat="43.157515858666045" lon="12.304616006930571"><ele>259.5</ele><time>2026-04-25T08:47:50.998Z</time></trkpt><trkpt lat="43.157685701354076" lon="12.304909870323762"><ele>263.0</ele><time>2026-04-25T08:47:51.998Z</time></trkpt><trkpt lat="43.15784357220483" lon="12.305218042940004"><ele>263.0</ele><time>2026-04-25T08:47:52.998Z</time></trkpt><trkpt lat="43.15798953686937" lon="12.305539139709067"><ele>263.0</ele><time>2026-04-25T08:47:53.998Z</time></trkpt><trkpt lat="43.15812119775037" lon="12.305871746424115"><ele>260.0</ele><time>2026-04-25T08:47:54.998Z</time></trkpt><trkpt lat="43.1582445302605" lon="12.306206596011364"><ele>257.0</ele><time>2026-04-25T08:47:55.998Z</time></trkpt><trkpt lat="43.15837766726103" lon="12.30653067073674"><ele>257.0</ele><time>2026-04-25T08:47:57Z</time></trkpt><trkpt lat="43.15852999190735" lon="12.306837551060752"><ele>257.0</ele><time>2026-04-25T08:47:58Z</time></trkpt><trkpt lat="43.15869830473137" lon="12.307126581802418"><ele>258.5</ele><time>2026-04-25T08:47:59Z</time></trkpt><trkpt lat="43.158882216879036" lon="12.30739564831186"><ele>260.0</ele><time>2026-04-25T08:48:00Z</time></trkpt><trkpt lat="43.159082380541484" lon="12.307632460166074"><ele>256.5</ele><time>2026-04-25T08:48:01Z</time></trkpt><trkpt lat="43.15929588260613" lon="12.3078417607695"><ele>253.0</ele><time>2026-04-25T08:48:02Z</time></trkpt><trkpt lat="43.15952116539075" lon="12.308028918399572"><ele>254.0</ele><time>2026-04-25T08:48:03Z</time></trkpt><trkpt lat="43.15975731829442" lon="12.30818998292223"><ele>255.0</ele><time>2026-04-25T08:48:04Z</time></trkpt><trkpt lat="43.16000144786044" lon="12.308328850721459"><ele>255.0</ele><time>2026-04-25T08:48:05Z</time></trkpt><trkpt lat="43.16024446334368" lon="12.308477920243377"><ele>255.0</ele><time>2026-04-25T08:48:06Z</time></trkpt><trkpt lat="43.160477627115164" lon="12.30866033315021"><ele>256.5</ele><time>2026-04-25T08:48:07Z</time></trkpt><trkpt lat="43.160706499076646" lon="12.308858269686699"><ele>258.0</ele><time>2026-04-25T08:48:08Z</time></trkpt><trkpt lat="43.160933056335736" lon="12.30906029893311"><ele>258.5</ele><time>2026-04-25T08:48:09Z</time></trkpt><trkpt lat="43.16115577657521" lon="12.30926432939007"><ele>259.0</ele><time>2026-04-25T08:48:10Z</time></trkpt><trkpt lat="43.161376645188305" lon="12.309478240969117"><ele>259.0</ele><time>2026-04-25T08:48:11Z</time></trkpt><trkpt lat="43.161596464454426" lon="12.309692368757297"><ele>259.0</ele><time>2026-04-25T08:48:12Z</time></trkpt><trkpt lat="43.16181605573978" lon="12.30990587847824"><ele>260.0</ele><time>2026-04-25T08:48:13Z</time></trkpt><trkpt lat="43.16203675630283" lon="12.310122632482898"><ele>261.0</ele><time>2026-04-25T08:48:14Z</time></trkpt><trkpt lat="43.16226097463758" lon="12.310340466282451"><ele>261.0</ele><time>2026-04-25T08:48:15Z</time></trkpt><trkpt lat="43.162487333946984" lon="12.310555360596885"><ele>261.0</ele><time>2026-04-25T08:48:16Z</time></trkpt><trkpt lat="43.16271435048486" lon="12.31077106609912"><ele>263.0</ele><time>2026-04-25T08:48:17Z</time></trkpt><trkpt lat="43.16293574588226" lon="12.31099858809439"><ele>265.0</ele><time>2026-04-25T08:48:18Z</time></trkpt><trkpt lat="43.16314460589211" lon="12.311245031152968"><ele>264.0</ele><time>2026-04-25T08:48:19Z</time></trkpt><trkpt lat="43.16333949231035" lon="12.311513955816322"><ele>263.0</ele><time>2026-04-25T08:48:20Z</time></trkpt><trkpt lat="43.16351138339153" lon="12.31180119912033"><ele>263.0</ele><time>2026-04-25T08:48:21Z</time></trkpt><trkpt lat="43.16364668508803" lon="12.312106639759623"><ele>263.0</ele><time>2026-04-25T08:48:22Z</time></trkpt><trkpt lat="43.16376523346473" lon="12.31240351781422"><ele>262.5</ele><time>2026-04-25T08:48:23Z</time></trkpt><trkpt lat="43.16390589108004" lon="12.312665738464602"><ele>262.0</ele><time>2026-04-25T08:48:24Z</time></trkpt><trkpt lat="43.16408330319601" lon="12.312894313429958"><ele>263.0</ele><time>2026-04-25T08:48:25Z</time></trkpt><trkpt lat="43.164283534293524" lon="12.313092060272384"><ele>264.0</ele><time>2026-04-25T08:48:26Z</time></trkpt><trkpt lat="43.164505791024965" lon="12.313255300138309"><ele>264.0</ele><time>2026-04-25T08:48:27Z</time></trkpt><trkpt lat="43.16474295627792" lon="12.313397019105292"><ele>264.0</ele><time>2026-04-25T08:48:28Z</time></trkpt><trkpt lat="43.164978501226486" lon="12.313554040248587"><ele>263.0</ele><time>2026-04-25T08:48:29Z</time></trkpt><trkpt lat="43.165217658882746" lon="12.313722505161723"><ele>262.0</ele><time>2026-04-25T08:48:30Z</time></trkpt><trkpt lat="43.1654594228789" lon="12.313895766958447"><ele>263.5</ele><time>2026-04-25T08:48:31Z</time></trkpt><trkpt lat="43.16570539157595" lon="12.31406522439304"><ele>265.0</ele><time>2026-04-25T08:48:32Z</time></trkpt><trkpt lat="43.16595983480493" lon="12.314201571567892"><ele>265.0</ele><time>2026-04-25T08:48:33Z</time></trkpt><trkpt lat="43.166228926636194" lon="12.314312468348954"><ele>265.0</ele><time>2026-04-25T08:48:34Z</time></trkpt><trkpt lat="43.16650272733975" lon="12.31440905395441"><ele>263.0</ele><time>2026-04-25T08:48:35Z</time></trkpt><trkpt lat="43.16677056027778" lon="12.314501631927596"><ele>261.0</ele><time>2026-04-25T08:48:36Z</time></trkpt><trkpt lat="43.16702156762595" lon="12.31459143808926"><ele>261.0</ele><time>2026-04-25T08:48:37Z</time></trkpt><trkpt lat="43.1672627395756" lon="12.314679156785344"><ele>261.0</ele><time>2026-04-25T08:48:38Z</time></trkpt><trkpt lat="43.16749208903978" lon="12.31476265179948"><ele>262.3333333333333</ele><time>2026-04-25T08:48:39Z</time></trkpt><trkpt lat="43.167711484955696" lon="12.314843133413758"><ele>263.66666666666663</ele><time>2026-04-25T08:48:40Z</time></trkpt><trkpt lat="43.16791895383227" lon="12.314918957584931"><ele>265.0</ele><time>2026-04-25T08:48:40.999Z</time></trkpt><trkpt lat="43.168116158847" lon="12.314993871413456"><ele>264.3333333333333</ele><time>2026-04-25T08:48:41.999Z</time></trkpt><trkpt lat="43.16830649399965" lon="12.31507049408336"><ele>263.6666666666667</ele><time>2026-04-25T08:48:42.999Z</time></trkpt><trkpt lat="43.16848855070245" lon="12.315153796729106"><ele>263.0</ele><time>2026-04-25T08:48:43.999Z</time></trkpt><trkpt lat="43.1686711855509" lon="12.315243496594181"><ele>263.0</ele><time>2026-04-25T08:48:44.999Z</time></trkpt><trkpt lat="43.168851582724784" lon="12.31533815159341"><ele>263.0</ele><time>2026-04-25T08:48:45.999Z</time></trkpt><trkpt lat="43.16902973775106" lon="12.31543457197476"><ele>263.0</ele><time>2026-04-25T08:48:46.999Z</time></trkpt><trkpt lat="43.169206661986046" lon="12.315520714696412"><ele>263.6666666666667</ele><time>2026-04-25T08:48:47.999Z</time></trkpt><trkpt lat="43.16939752606791" lon="12.315608976818675"><ele>264.3333333333333</ele><time>2026-04-25T08:48:48.999Z</time></trkpt><trkpt lat="43.169605039011735" lon="12.315678760187254"><ele>265.0</ele><time>2026-04-25T08:48:49.999Z</time></trkpt><trkpt lat="43.169828327183374" lon="12.315723638189601"><ele>266.5</ele><time>2026-04-25T08:48:50.999Z</time></trkpt><trkpt lat="43.17005744999057" lon="12.315758819869954"><ele>268.0</ele><time>2026-04-25T08:48:51.999Z</time></trkpt><trkpt lat="43.170296115152645" lon="12.315801298255973"><ele>268.0</ele><time>2026-04-25T08:48:52.999Z</time></trkpt><trkpt lat="43.170541455733435" lon="12.31584091933453"><ele>268.0</ele><time>2026-04-25T08:48:53.999Z</time></trkpt><trkpt lat="43.170792050583174" lon="12.315845365538495"><ele>268.0</ele><time>2026-04-25T08:48:54.999Z</time></trkpt><trkpt lat="43.17104010236136" lon="12.315815927182063"><ele>268.0</ele><time>2026-04-25T08:48:55.999Z</time></trkpt><trkpt lat="43.17128452817979" lon="12.315759072941802"><ele>267.0</ele><time>2026-04-25T08:48:56.999Z</time></trkpt><trkpt lat="43.171525989566284" lon="12.315666119291334"><ele>266.0</ele><time>2026-04-25T08:48:57.999Z</time></trkpt><trkpt lat="43.171753623986895" lon="12.315552468619567"><ele>265.6666666666667</ele><time>2026-04-25T08:48:58.999Z</time></trkpt><trkpt lat="43.171967153755716" lon="12.31545390882324"><ele>265.3333333333333</ele><time>2026-04-25T08:48:59.999Z</time></trkpt><trkpt lat="43.17217225876244" lon="12.315368777956092"><ele>265.0</ele><time>2026-04-25T08:49:00.999Z</time></trkpt><trkpt lat="43.17237099435112" lon="12.315297739833376"><ele>265.0</ele><time>2026-04-25T08:49:01.999Z</time></trkpt><trkpt lat="43.17256839944738" lon="12.315250696364208"><ele>265.0</ele><time>2026-04-25T08:49:02.999Z</time></trkpt><trkpt lat="43.172773385556546" lon="12.31522679053805"><ele>265.0</ele><time>2026-04-25T08:49:03.999Z</time></trkpt><trkpt lat="43.17298564095869" lon="12.31522745362066"><ele>265.5</ele><time>2026-04-25T08:49:04.999Z</time></trkpt><trkpt lat="43.173209203634286" lon="12.315246986207013"><ele>266.0</ele><time>2026-04-25T08:49:05.999Z</time></trkpt><trkpt lat="43.1734401012501" lon="12.315313521897362"><ele>266.0</ele><time>2026-04-25T08:49:06.999Z</time></trkpt><trkpt lat="43.17368008066368" lon="12.315371724932373"><ele>266.0</ele><time>2026-04-25T08:49:07.999Z</time></trkpt><trkpt lat="43.17392541748889" lon="12.315412687613653"><ele>266.5</ele><time>2026-04-25T08:49:08.999Z</time></trkpt><trkpt lat="43.17417620417209" lon="12.315484005146462"><ele>267.0</ele><time>2026-04-25T08:49:09.999Z</time></trkpt><trkpt lat="43.17442976866461" lon="12.315564900270335"><ele>266.5</ele><time>2026-04-25T08:49:10.999Z</time></trkpt><trkpt lat="43.17468901243691" lon="12.315648899145126"><ele>266.0</ele><time>2026-04-25T08:49:11.999Z</time></trkpt><trkpt lat="43.174953973679344" lon="12.315729444467886"><ele>266.0</ele><time>2026-04-25T08:49:12.999Z</time></trkpt><trkpt lat="43.17522341337306" lon="12.315800057568376"><ele>266.0</ele><time>2026-04-25T08:49:13.999Z</time></trkpt><trkpt lat="43.17549592769582" lon="12.315868419304648"><ele>266.5</ele><time>2026-04-25T08:49:14.999Z</time></trkpt><trkpt lat="43.1757729274233" lon="12.31594126432592"><ele>267.0</ele><time>2026-04-25T08:49:15.999Z</time></trkpt><trkpt lat="43.176048949116044" lon="12.316014773369625"><ele>267.0</ele><time>2026-04-25T08:49:16.999Z</time></trkpt><trkpt lat="43.17632529186383" lon="12.31608949591966"><ele>267.0</ele><time>2026-04-25T08:49:17.999Z</time></trkpt><trkpt lat="43.176606450777264" lon="12.316172337908718"><ele>268.0</ele><time>2026-04-25T08:49:18.999Z</time></trkpt><trkpt lat="43.17688870728936" lon="12.316242249502181"><ele>269.0</ele><time>2026-04-25T08:49:19.999Z</time></trkpt><trkpt lat="43.17717962879248" lon="12.316315228040354"><ele>268.5</ele><time>2026-04-25T08:49:20.999Z</time></trkpt><trkpt lat="43.17743907708951" lon="12.316371585290558"><ele>268.0</ele><time>2026-04-25T08:49:21.999Z</time></trkpt><trkpt lat="43.17773826767935" lon="12.316448694457621"><ele>268.0</ele><time>2026-04-25T08:49:22.999Z</time></trkpt><trkpt lat="43.17802340344844" lon="12.316530851443453"><ele>268.0</ele><time>2026-04-25T08:49:23.999Z</time></trkpt><trkpt lat="43.178305400651695" lon="12.316608147132225"><ele>268.5</ele><time>2026-04-25T08:49:24.999Z</time></trkpt><trkpt lat="43.1785850915482" lon="12.31668701562333"><ele>269.0</ele><time>2026-04-25T08:49:25.999Z</time></trkpt><trkpt lat="43.178860856087795" lon="12.31676140964599"><ele>270.0</ele><time>2026-04-25T08:49:26.999Z</time></trkpt><trkpt lat="43.179134918854125" lon="12.316836297950184"><ele>271.0</ele><time>2026-04-25T08:49:27.999Z</time></trkpt><trkpt lat="43.179408052399005" lon="12.316906145178352"><ele>271.0</ele><time>2026-04-25T08:49:28.999Z</time></trkpt><trkpt lat="43.17968370231305" lon="12.316943676592361"><ele>271.0</ele><time>2026-04-25T08:49:29.999Z</time></trkpt><trkpt lat="43.17996155441465" lon="12.31693248873777"><ele>274.5</ele><time>2026-04-25T08:49:30.999Z</time></trkpt><trkpt lat="43.180242018275436" lon="12.316888149102466"><ele>278.0</ele><time>2026-04-25T08:49:31.999Z</time></trkpt><trkpt lat="43.180522256981966" lon="12.31687176650553"><ele>282.0</ele><time>2026-04-25T08:49:32.999Z</time></trkpt><trkpt lat="43.18080589512578" lon="12.316889254908961"><ele>286.0</ele><time>2026-04-25T08:49:33.999Z</time></trkpt><trkpt lat="43.18109042244852" lon="12.316922006751778"><ele>286.0</ele><time>2026-04-25T08:49:34.999Z</time></trkpt><trkpt lat="43.18137412691104" lon="12.31695784491623"><ele>286.0</ele><time>2026-04-25T08:49:35.999Z</time></trkpt><trkpt lat="43.18165307471334" lon="12.316991433889982"><ele>284.0</ele><time>2026-04-25T08:49:36.999Z</time></trkpt><trkpt lat="43.18192011676558" lon="12.317027403263609"><ele>282.0</ele><time>2026-04-25T08:49:37.999Z</time></trkpt><trkpt lat="43.18217105571396" lon="12.317053566046313"><ele>282.0</ele><time>2026-04-25T08:49:38.999Z</time></trkpt><trkpt lat="43.18241689123926" lon="12.317058728371533"><ele>282.0</ele><time>2026-04-25T08:49:39.999Z</time></trkpt><trkpt lat="43.18266027321765" lon="12.317013834735937"><ele>282.0</ele><time>2026-04-25T08:49:40.999Z</time></trkpt><trkpt lat="43.1829028612371" lon="12.31692205486134"><ele>282.0</ele><time>2026-04-25T08:49:41.999Z</time></trkpt><trkpt lat="43.18313968200705" lon="12.316791000329244"><ele>281.0</ele><time>2026-04-25T08:49:42.999Z</time></trkpt><trkpt lat="43.1833777720447" lon="12.316648238912174"><ele>280.0</ele><time>2026-04-25T08:49:43.999Z</time></trkpt><trkpt lat="43.18362548558298" lon="12.316524038307328"><ele>280.0</ele><time>2026-04-25T08:49:44.999Z</time></trkpt><trkpt lat="43.183877226411525" lon="12.316422249466925"><ele>280.0</ele><time>2026-04-25T08:49:45.998Z</time></trkpt><trkpt lat="43.18413704982596" lon="12.316359934446211"><ele>286.5</ele><time>2026-04-25T08:49:46.998Z</time></trkpt><trkpt lat="43.18440757039446" lon="12.316348567206626"><ele>293.0</ele><time>2026-04-25T08:49:47.998Z</time></trkpt><trkpt lat="43.18468446970715" lon="12.316383375648119"><ele>288.0</ele><time>2026-04-25T08:49:48.998Z</time></trkpt><trkpt lat="43.18496031243821" lon="12.316451636229822"><ele>283.0</ele><time>2026-04-25T08:49:49.998Z</time></trkpt><trkpt lat="43.185237281587845" lon="12.316550404002074"><ele>283.0</ele><time>2026-04-25T08:49:50.998Z</time></trkpt><trkpt lat="43.18551379805355" lon="12.316665785704906"><ele>283.0</ele><time>2026-04-25T08:49:51.998Z</time></trkpt><trkpt lat="43.18579474568047" lon="12.316771079869511"><ele>282.0</ele><time>2026-04-25T08:49:52.998Z</time></trkpt><trkpt lat="43.18608046026817" lon="12.316876282559017"><ele>281.0</ele><time>2026-04-25T08:49:53.998Z</time></trkpt><trkpt lat="43.186366608385434" lon="12.316977224901025"><ele>281.5</ele><time>2026-04-25T08:49:54.998Z</time></trkpt><trkpt lat="43.18665131930118" lon="12.317076627261763"><ele>282.0</ele><time>2026-04-25T08:49:55.998Z</time></trkpt><trkpt lat="43.18693383136373" lon="12.317180289339465"><ele>281.5</ele><time>2026-04-25T08:49:56.998Z</time></trkpt><trkpt lat="43.18721754924831" lon="12.317288856628275"><ele>281.0</ele><time>2026-04-25T08:49:57.998Z</time></trkpt><trkpt lat="43.187500629880724" lon="12.317392697723559"><ele>282.5</ele><time>2026-04-25T08:49:58.998Z</time></trkpt><trkpt lat="43.18778564262655" lon="12.317514674468354"><ele>284.0</ele><time>2026-04-25T08:49:59.998Z</time></trkpt><trkpt lat="43.18806846268295" lon="12.317648710574305"><ele>283.0</ele><time>2026-04-25T08:50:00.998Z</time></trkpt><trkpt lat="43.18834945350155" lon="12.317791527559054"><ele>282.0</ele><time>2026-04-25T08:50:01.998Z</time></trkpt><trkpt lat="43.18863381092155" lon="12.317938569685298"><ele>282.5</ele><time>2026-04-25T08:50:03Z</time></trkpt><trkpt lat="43.18891885135997" lon="12.318086112089432"><ele>283.0</ele><time>2026-04-25T08:50:04Z</time></trkpt><trkpt lat="43.189204456481505" lon="12.318240169835168"><ele>284.0</ele><time>2026-04-25T08:50:05Z</time></trkpt><trkpt lat="43.189492037871204" lon="12.318393902629772"><ele>285.0</ele><time>2026-04-25T08:50:06Z</time></trkpt><trkpt lat="43.18978010711235" lon="12.318540659067716"><ele>285.0</ele><time>2026-04-25T08:50:07Z</time></trkpt><trkpt lat="43.19006896549811" lon="12.318687980740853"><ele>285.0</ele><time>2026-04-25T08:50:08Z</time></trkpt><trkpt lat="43.19035658438212" lon="12.318846941639482"><ele>286.0</ele><time>2026-04-25T08:50:09Z</time></trkpt><trkpt lat="43.19064517535092" lon="12.319000832266932"><ele>287.0</ele><time>2026-04-25T08:50:10Z</time></trkpt><trkpt lat="43.19093902836785" lon="12.31913910185357"><ele>287.5</ele><time>2026-04-25T08:50:11Z</time></trkpt><trkpt lat="43.19122248377626" lon="12.319310640145718"><ele>288.0</ele><time>2026-04-25T08:50:12Z</time></trkpt><trkpt lat="43.19150429245629" lon="12.319464733787337"><ele>288.0</ele><time>2026-04-25T08:50:13Z</time></trkpt><trkpt lat="43.19177848206042" lon="12.319609467862389"><ele>288.0</ele><time>2026-04-25T08:50:14Z</time></trkpt><trkpt lat="43.19204549544045" lon="12.319750520653068"><ele>288.0</ele><time>2026-04-25T08:50:15Z</time></trkpt><trkpt lat="43.19230570949463" lon="12.319889736951733"><ele>288.0</ele><time>2026-04-25T08:50:16Z</time></trkpt><trkpt lat="43.1925600296419" lon="12.320030124774235"><ele>288.5</ele><time>2026-04-25T08:50:17Z</time></trkpt><trkpt lat="43.1928089603985" lon="12.320168009864428"><ele>289.0</ele><time>2026-04-25T08:50:18Z</time></trkpt><trkpt lat="43.19304872020272" lon="12.320288147378998"><ele>291.0</ele><time>2026-04-25T08:50:19Z</time></trkpt><trkpt lat="43.193296514745136" lon="12.320389540292677"><ele>293.0</ele><time>2026-04-25T08:50:20Z</time></trkpt><trkpt lat="43.19355455582099" lon="12.320451514444345"><ele>293.0</ele><time>2026-04-25T08:50:21Z</time></trkpt><trkpt lat="43.19381852725498" lon="12.320476913961194"><ele>293.0</ele><time>2026-04-25T08:50:22Z</time></trkpt><trkpt lat="43.19408714156389" lon="12.320475404452168"><ele>293.0</ele><time>2026-04-25T08:50:23Z</time></trkpt><trkpt lat="43.19435797465847" lon="12.320450728671611"><ele>293.0</ele><time>2026-04-25T08:50:24Z</time></trkpt><trkpt lat="43.194633173111725" lon="12.320428085237499"><ele>294.0</ele><time>2026-04-25T08:50:25Z</time></trkpt><trkpt lat="43.19490861249772" lon="12.320405726344829"><ele>295.0</ele><time>2026-04-25T08:50:26Z</time></trkpt><trkpt lat="43.19518588362956" lon="12.320389191329241"><ele>295.0</ele><time>2026-04-25T08:50:27Z</time></trkpt><trkpt lat="43.19546016755746" lon="12.320386217018676"><ele>295.0</ele><time>2026-04-25T08:50:28Z</time></trkpt><trkpt lat="43.195730126244975" lon="12.32040531376584"><ele>295.0</ele><time>2026-04-25T08:50:29Z</time></trkpt><trkpt lat="43.19598553710748" lon="12.320438689779998"><ele>295.0</ele><time>2026-04-25T08:50:30Z</time></trkpt><trkpt lat="43.1962279704867" lon="12.320466557584208"><ele>295.0</ele><time>2026-04-25T08:50:31Z</time></trkpt><trkpt lat="43.19646767569826" lon="12.320464580675608"><ele>295.0</ele><time>2026-04-25T08:50:32Z</time></trkpt><trkpt lat="43.196705181915696" lon="12.320409040795411"><ele>296.0</ele><time>2026-04-25T08:50:33Z</time></trkpt><trkpt lat="43.19693988368152" lon="12.320302285201342"><ele>297.0</ele><time>2026-04-25T08:50:34Z</time></trkpt><trkpt lat="43.1971669712735" lon="12.320157032668508"><ele>301.5</ele><time>2026-04-25T08:50:35Z</time></trkpt><trkpt lat="43.197398062619925" lon="12.320014647215892"><ele>306.0</ele><time>2026-04-25T08:50:36Z</time></trkpt><trkpt lat="43.19763219256595" lon="12.319875021272512"><ele>306.0</ele><time>2026-04-25T08:50:37Z</time></trkpt><trkpt lat="43.19787267163806" lon="12.319754058228652"><ele>306.0</ele><time>2026-04-25T08:50:38Z</time></trkpt><trkpt lat="43.19812578940647" lon="12.319656435276475"><ele>303.0</ele><time>2026-04-25T08:50:38.999Z</time></trkpt><trkpt lat="43.19837894912443" lon="12.319565065938287"><ele>300.0</ele><time>2026-04-25T08:50:39.999Z</time></trkpt><trkpt lat="43.19863732491742" lon="12.31947369085569"><ele>300.0</ele><time>2026-04-25T08:50:40.999Z</time></trkpt><trkpt lat="43.198895951788984" lon="12.319386118387632"><ele>300.0</ele><time>2026-04-25T08:50:41.999Z</time></trkpt><trkpt lat="43.19915658643169" lon="12.319292373750438"><ele>303.0</ele><time>2026-04-25T08:50:42.999Z</time></trkpt><trkpt lat="43.199418437791486" lon="12.319200834815996"><ele>306.0</ele><time>2026-04-25T08:50:43.999Z</time></trkpt><trkpt lat="43.19968278359249" lon="12.319104087313384"><ele>307.5</ele><time>2026-04-25T08:50:44.999Z</time></trkpt><trkpt lat="43.19994584871587" lon="12.319006989974923"><ele>309.0</ele><time>2026-04-25T08:50:45.999Z</time></trkpt><trkpt lat="43.200211545563306" lon="12.318919400420375"><ele>306.5</ele><time>2026-04-25T08:50:46.999Z</time></trkpt><trkpt lat="43.20047830686795" lon="12.31882815296926"><ele>304.0</ele><time>2026-04-25T08:50:47.999Z</time></trkpt><trkpt lat="43.20074622834675" lon="12.318734385293968"><ele>304.0</ele><time>2026-04-25T08:50:48.999Z</time></trkpt><trkpt lat="43.201013480643915" lon="12.318636433194499"><ele>304.0</ele><time>2026-04-25T08:50:49.999Z</time></trkpt><trkpt lat="43.201280981913285" lon="12.318537116065382"><ele>307.5</ele><time>2026-04-25T08:50:50.999Z</time></trkpt><trkpt lat="43.20154721088549" lon="12.318434196580759"><ele>311.0</ele><time>2026-04-25T08:50:51.999Z</time></trkpt><trkpt lat="43.20181183812679" lon="12.318324974326666"><ele>311.0</ele><time>2026-04-25T08:50:52.999Z</time></trkpt><trkpt lat="43.20207506739584" lon="12.318208552730555"><ele>311.0</ele><time>2026-04-25T08:50:53.999Z</time></trkpt><trkpt lat="43.20233687306464" lon="12.318087673548323"><ele>310.0</ele><time>2026-04-25T08:50:54.999Z</time></trkpt><trkpt lat="43.20259715628925" lon="12.3179657427416"><ele>309.0</ele><time>2026-04-25T08:50:55.999Z</time></trkpt><trkpt lat="43.202857935282466" lon="12.317839752580747"><ele>309.0</ele><time>2026-04-25T08:50:56.999Z</time></trkpt><trkpt lat="43.203117120474516" lon="12.317716511347593"><ele>309.0</ele><time>2026-04-25T08:50:57.999Z</time></trkpt><trkpt lat="43.2033740599628" lon="12.317595973720305"><ele>313.5</ele><time>2026-04-25T08:50:58.999Z</time></trkpt><trkpt lat="43.203629332420505" lon="12.3174794061206"><ele>318.0</ele><time>2026-04-25T08:50:59.999Z</time></trkpt><trkpt lat="43.20387864465966" lon="12.317365163176447"><ele>315.5</ele><time>2026-04-25T08:51:00.999Z</time></trkpt><trkpt lat="43.204123810819105" lon="12.317264651278814"><ele>313.0</ele><time>2026-04-25T08:51:01.999Z</time></trkpt><trkpt lat="43.20436899253304" lon="12.317191133330581"><ele>313.0</ele><time>2026-04-25T08:51:02.999Z</time></trkpt><trkpt lat="43.204621516625785" lon="12.317149516959281"><ele>313.0</ele><time>2026-04-25T08:51:03.999Z</time></trkpt><trkpt lat="43.20487826055487" lon="12.317138042119664"><ele>314.0</ele><time>2026-04-25T08:51:04.999Z</time></trkpt><trkpt lat="43.20513689969772" lon="12.317145822335348"><ele>315.0</ele><time>2026-04-25T08:51:05.999Z</time></trkpt><trkpt lat="43.205394379438786" lon="12.31717158251238"><ele>315.0</ele><time>2026-04-25T08:51:06.999Z</time></trkpt><trkpt lat="43.20564826835563" lon="12.317213479283426"><ele>315.0</ele><time>2026-04-25T08:51:07.999Z</time></trkpt><trkpt lat="43.20589736644433" lon="12.317290870169526"><ele>322.5</ele><time>2026-04-25T08:51:08.999Z</time></trkpt><trkpt lat="43.20613781055926" lon="12.317406794776751"><ele>330.0</ele><time>2026-04-25T08:51:09.999Z</time></trkpt><trkpt lat="43.20636996656059" lon="12.317555346929723"><ele>326.0</ele><time>2026-04-25T08:51:10.999Z</time></trkpt><trkpt lat="43.206590550163234" lon="12.317719697922195"><ele>322.0</ele><time>2026-04-25T08:51:11.999Z</time></trkpt><trkpt lat="43.20679640185789" lon="12.317877016889094"><ele>322.0</ele><time>2026-04-25T08:51:12.999Z</time></trkpt><trkpt lat="43.20701261152391" lon="12.317992016494701"><ele>322.0</ele><time>2026-04-25T08:51:13.999Z</time></trkpt><trkpt lat="43.20723555039092" lon="12.318049240589854"><ele>323.0</ele><time>2026-04-25T08:51:14.999Z</time></trkpt><trkpt lat="43.20746681175676" lon="12.318047412472774"><ele>324.0</ele><time>2026-04-25T08:51:15.999Z</time></trkpt><trkpt lat="43.20769937126829" lon="12.317995032903852"><ele>324.0</ele><time>2026-04-25T08:51:16.999Z</time></trkpt><trkpt lat="43.2079306066158" lon="12.317910674387822"><ele>324.0</ele><time>2026-04-25T08:51:17.999Z</time></trkpt><trkpt lat="43.20816885156795" lon="12.317835114465458"><ele>327.5</ele><time>2026-04-25T08:51:18.999Z</time></trkpt><trkpt lat="43.20840286858784" lon="12.317781428815657"><ele>331.0</ele><time>2026-04-25T08:51:19.999Z</time></trkpt><trkpt lat="43.20862964488822" lon="12.317757267769771"><ele>331.0</ele><time>2026-04-25T08:51:20.999Z</time></trkpt><trkpt lat="43.20885915913253" lon="12.317768491203735"><ele>331.0</ele><time>2026-04-25T08:51:21.999Z</time></trkpt><trkpt lat="43.20908711495206" lon="12.317823133794251"><ele>331.0</ele><time>2026-04-25T08:51:22.999Z</time></trkpt><trkpt lat="43.20931032843732" lon="12.317917977102576"><ele>331.0</ele><time>2026-04-25T08:51:23.999Z</time></trkpt><trkpt lat="43.20953612177558" lon="12.318034835318182"><ele>336.5</ele><time>2026-04-25T08:51:24.999Z</time></trkpt><trkpt lat="43.20976334801993" lon="12.318156888838638"><ele>342.0</ele><time>2026-04-25T08:51:25.999Z</time></trkpt><trkpt lat="43.20998778535553" lon="12.318294966595488"><ele>342.0</ele><time>2026-04-25T08:51:26.999Z</time></trkpt><trkpt lat="43.210201739927946" lon="12.318469760960586"><ele>342.0</ele><time>2026-04-25T08:51:27.999Z</time></trkpt><trkpt lat="43.21040940729969" lon="12.318673998008277"><ele>342.0</ele><time>2026-04-25T08:51:28.999Z</time></trkpt><trkpt lat="43.21060483995432" lon="12.31890225934249"><ele>342.0</ele><time>2026-04-25T08:51:29.999Z</time></trkpt><trkpt lat="43.210790404512565" lon="12.319153298893239"><ele>342.0</ele><time>2026-04-25T08:51:30.999Z</time></trkpt><trkpt lat="43.21096157764788" lon="12.319429968869828"><ele>342.0</ele><time>2026-04-25T08:51:31.999Z</time></trkpt><trkpt lat="43.21112727055663" lon="12.319703208590084"><ele>341.5</ele><time>2026-04-25T08:51:32.999Z</time></trkpt><trkpt lat="43.2113236095907" lon="12.319957769049651"><ele>341.0</ele><time>2026-04-25T08:51:33.999Z</time></trkpt><trkpt lat="43.211540903142115" lon="12.32017733763573"><ele>341.0</ele><time>2026-04-25T08:51:34.999Z</time></trkpt><trkpt lat="43.21176987680547" lon="12.320372023548044"><ele>341.0</ele><time>2026-04-25T08:51:35.999Z</time></trkpt><trkpt lat="43.211998928938684" lon="12.320563979205074"><ele>344.0</ele><time>2026-04-25T08:51:36.999Z</time></trkpt><trkpt lat="43.21222157801184" lon="12.320758303097872"><ele>347.0</ele><time>2026-04-25T08:51:37.999Z</time></trkpt><trkpt lat="43.21243569016309" lon="12.320950274030901"><ele>347.0</ele><time>2026-04-25T08:51:38.999Z</time></trkpt><trkpt lat="43.212634329738464" lon="12.321151198967074"><ele>347.0</ele><time>2026-04-25T08:51:39.999Z</time></trkpt><trkpt lat="43.212815474838145" lon="12.32138757951018"><ele>353.5</ele><time>2026-04-25T08:51:40.999Z</time></trkpt><trkpt lat="43.21298348310134" lon="12.321642926232512"><ele>360.0</ele><time>2026-04-25T08:51:41.998Z</time></trkpt><trkpt lat="43.21314823276463" lon="12.321887762262502"><ele>361.3333333333333</ele><time>2026-04-25T08:51:42.998Z</time></trkpt><trkpt lat="43.21330257886244" lon="12.322109139271774"><ele>362.66666666666663</ele><time>2026-04-25T08:51:43.998Z</time></trkpt><trkpt lat="43.21345409143613" lon="12.322298175666829"><ele>364.0</ele><time>2026-04-25T08:51:44.998Z</time></trkpt><trkpt lat="43.21362205601134" lon="12.322445006944726"><ele>364.0</ele><time>2026-04-25T08:51:45.998Z</time></trkpt><trkpt lat="43.21380962282585" lon="12.322539920074286"><ele>364.0</ele><time>2026-04-25T08:51:46.998Z</time></trkpt><trkpt lat="43.21401630085236" lon="12.322566345668768"><ele>364.0</ele><time>2026-04-25T08:51:47.998Z</time></trkpt><trkpt lat="43.21423173524392" lon="12.322545076083763"><ele>362.0</ele><time>2026-04-25T08:51:48.998Z</time></trkpt><trkpt lat="43.21444787021905" lon="12.322528734710506"><ele>360.0</ele><time>2026-04-25T08:51:49.998Z</time></trkpt><trkpt lat="43.214664693319406" lon="12.322539139881378"><ele>358.0</ele><time>2026-04-25T08:51:50.998Z</time></trkpt><trkpt lat="43.21485684564694" lon="12.322581540611637"><ele>358.0</ele><time>2026-04-25T08:51:51.998Z</time></trkpt><trkpt lat="43.21502005512852" lon="12.32263163102428"><ele>358.0</ele><time>2026-04-25T08:51:52.998Z</time></trkpt><trkpt lat="43.215169613813664" lon="12.322668174201958"><ele>358.0</ele><time>2026-04-25T08:51:53.998Z</time></trkpt><trkpt lat="43.2153041965401" lon="12.322682493276945"><ele>358.0</ele><time>2026-04-25T08:51:54.998Z</time></trkpt><trkpt lat="43.21542733790166" lon="12.32268137548293"><ele>358.0</ele><time>2026-04-25T08:51:55.998Z</time></trkpt><trkpt lat="43.21552867604235" lon="12.322678714553994"><ele>358.0</ele><time>2026-04-25T08:51:56.998Z</time></trkpt><trkpt lat="43.21559634489008" lon="12.322673578923174"><ele>358.0</ele><time>2026-04-25T08:51:57.998Z</time></trkpt><trkpt lat="43.21572834871084" lon="12.32267800321213"><ele>358.0</ele><time>2026-04-25T08:52:51.999Z</time></trkpt><trkpt lat="43.21580483444287" lon="12.322682574230095"><ele>358.25</ele><time>2026-04-25T08:52:52.999Z</time></trkpt><trkpt lat="43.2159216502759" lon="12.322715309298431"><ele>358.5</ele><time>2026-04-25T08:52:53.999Z</time></trkpt><trkpt lat="43.21603277754128" lon="12.32278389952624"><ele>358.75</ele><time>2026-04-25T08:52:54.999Z</time></trkpt><trkpt lat="43.21612475154218" lon="12.322916475587675"><ele>359.0</ele><time>2026-04-25T08:52:55.999Z</time></trkpt><trkpt lat="43.21622105403299" lon="12.323083410186467"><ele>361.6666666666667</ele><time>2026-04-25T08:52:56.999Z</time></trkpt><trkpt lat="43.216336328835794" lon="12.323247030345238"><ele>364.3333333333333</ele><time>2026-04-25T08:52:57.999Z</time></trkpt><trkpt lat="43.21644339946386" lon="12.323429059112417"><ele>367.0</ele><time>2026-04-25T08:52:58.999Z</time></trkpt><trkpt lat="43.216576819226226" lon="12.32358813647771"><ele>367.0</ele><time>2026-04-25T08:52:59.999Z</time></trkpt><trkpt lat="43.216729631533106" lon="12.323709484021203"><ele>367.0</ele><time>2026-04-25T08:53:00.999Z</time></trkpt><trkpt lat="43.21690420659218" lon="12.323791042904558"><ele>367.0</ele><time>2026-04-25T08:53:01.999Z</time></trkpt><trkpt lat="43.21709480889419" lon="12.323845644825154"><ele>367.0</ele><time>2026-04-25T08:53:02.999Z</time></trkpt><trkpt lat="43.21729285526185" lon="12.323885812132701"><ele>367.0</ele><time>2026-04-25T08:53:03.999Z</time></trkpt><trkpt lat="43.21749973879117" lon="12.323930211721873"><ele>367.0</ele><time>2026-04-25T08:53:04.999Z</time></trkpt><trkpt lat="43.217713579479444" lon="12.323991301449615"><ele>369.0</ele><time>2026-04-25T08:53:05.999Z</time></trkpt><trkpt lat="43.21792834118012" lon="12.324053628481543"><ele>371.0</ele><time>2026-04-25T08:53:06.999Z</time></trkpt><trkpt lat="43.218143815121344" lon="12.324126727261534"><ele>373.0</ele><time>2026-04-25T08:53:07.999Z</time></trkpt><trkpt lat="43.21836382805588" lon="12.324211340022527"><ele>373.0</ele><time>2026-04-25T08:53:08.999Z</time></trkpt><trkpt lat="43.218579256744825" lon="12.324339902798124"><ele>373.0</ele><time>2026-04-25T08:53:09.999Z</time></trkpt><trkpt lat="43.21880073979172" lon="12.324468029837826"><ele>374.5</ele><time>2026-04-25T08:53:10.999Z</time></trkpt><trkpt lat="43.21902132512811" lon="12.324607930893187"><ele>376.0</ele><time>2026-04-25T08:53:11.999Z</time></trkpt><trkpt lat="43.21924705178027" lon="12.324756709384046"><ele>377.0</ele><time>2026-04-25T08:53:12.999Z</time></trkpt><trkpt lat="43.219476768903334" lon="12.32490468907072"><ele>378.0</ele><time>2026-04-25T08:53:13.999Z</time></trkpt><trkpt lat="43.21971313344561" lon="12.325054391863343"><ele>376.0</ele><time>2026-04-25T08:53:14.999Z</time></trkpt><trkpt lat="43.21995173567317" lon="12.32520543348411"><ele>374.0</ele><time>2026-04-25T08:53:15.999Z</time></trkpt><trkpt lat="43.22019182757762" lon="12.325359438227633"><ele>374.0</ele><time>2026-04-25T08:53:16.999Z</time></trkpt><trkpt lat="43.22042942990299" lon="12.325509474491277"><ele>374.0</ele><time>2026-04-25T08:53:17.999Z</time></trkpt><trkpt lat="43.22065907697628" lon="12.3256535958874"><ele>374.5</ele><time>2026-04-25T08:53:18.999Z</time></trkpt><trkpt lat="43.220876165509594" lon="12.325788694765013"><ele>375.0</ele><time>2026-04-25T08:53:19.999Z</time></trkpt><trkpt lat="43.22108943921912" lon="12.325924442720572"><ele>375.0</ele><time>2026-04-25T08:53:20.999Z</time></trkpt><trkpt lat="43.221296678272346" lon="12.326058044099259"><ele>375.0</ele><time>2026-04-25T08:53:21.999Z</time></trkpt><trkpt lat="43.22149563498231" lon="12.32619944158943"><ele>376.0</ele><time>2026-04-25T08:53:22.999Z</time></trkpt><trkpt lat="43.221679892169604" lon="12.326367496926743"><ele>377.0</ele><time>2026-04-25T08:53:23.999Z</time></trkpt><trkpt lat="43.22185409376588" lon="12.326568952791076"><ele>378.0</ele><time>2026-04-25T08:53:24.999Z</time></trkpt><trkpt lat="43.22201961604948" lon="12.326796108585565"><ele>378.0</ele><time>2026-04-25T08:53:25.999Z</time></trkpt><trkpt lat="43.222159849529724" lon="12.327048722749128"><ele>378.0</ele><time>2026-04-25T08:53:26.999Z</time></trkpt><trkpt lat="43.22229413429528" lon="12.327338203691266"><ele>376.5</ele><time>2026-04-25T08:53:27.999Z</time></trkpt><trkpt lat="43.222430817614764" lon="12.327633705906013"><ele>375.0</ele><time>2026-04-25T08:53:28.999Z</time></trkpt><trkpt lat="43.222581658306844" lon="12.327929114865107"><ele>378.5</ele><time>2026-04-25T08:53:29.999Z</time></trkpt><trkpt lat="43.222722084130005" lon="12.328234917439978"><ele>382.0</ele><time>2026-04-25T08:53:30.999Z</time></trkpt><trkpt lat="43.22286343326206" lon="12.328545810540183"><ele>382.0</ele><time>2026-04-25T08:53:31.999Z</time></trkpt><trkpt lat="43.22300201531941" lon="12.32885419813731"><ele>382.0</ele><time>2026-04-25T08:53:32.999Z</time></trkpt><trkpt lat="43.22314927217689" lon="12.329177458578489"><ele>380.0</ele><time>2026-04-25T08:53:33.999Z</time></trkpt><trkpt lat="43.22329659558954" lon="12.329503502966938"><ele>378.0</ele><time>2026-04-25T08:53:34.999Z</time></trkpt><trkpt lat="43.22344506874768" lon="12.329829144958026"><ele>377.5</ele><time>2026-04-25T08:53:35.999Z</time></trkpt><trkpt lat="43.22358891188171" lon="12.33014822869642"><ele>377.0</ele><time>2026-04-25T08:53:36.999Z</time></trkpt><trkpt lat="43.223730047244246" lon="12.33046743103111"><ele>380.5</ele><time>2026-04-25T08:53:37.999Z</time></trkpt><trkpt lat="43.223870962728924" lon="12.330789313663008"><ele>384.0</ele><time>2026-04-25T08:53:38.999Z</time></trkpt><trkpt lat="43.22397764246061" lon="12.331113736355752"><ele>384.0</ele><time>2026-04-25T08:53:39.999Z</time></trkpt><trkpt lat="43.22408450606421" lon="12.331420619350112"><ele>384.0</ele><time>2026-04-25T08:53:40.999Z</time></trkpt><trkpt lat="43.22418506894804" lon="12.331741886701918"><ele>384.0</ele><time>2026-04-25T08:53:41.999Z</time></trkpt><trkpt lat="43.22428268541745" lon="12.332079668743154"><ele>384.0</ele><time>2026-04-25T08:53:42.999Z</time></trkpt><trkpt lat="43.22437629308015" lon="12.332426163672922"><ele>384.0</ele><time>2026-04-25T08:53:43.999Z</time></trkpt><trkpt lat="43.22446545238354" lon="12.33278793218208"><ele>384.0</ele><time>2026-04-25T08:53:44.999Z</time></trkpt><trkpt lat="43.22455067155964" lon="12.33315603746259"><ele>385.0</ele><time>2026-04-25T08:53:45.999Z</time></trkpt><trkpt lat="43.22463385912612" lon="12.333537449230235"><ele>386.0</ele><time>2026-04-25T08:53:46.999Z</time></trkpt><trkpt lat="43.22471677545165" lon="12.333920201375875"><ele>388.0</ele><time>2026-04-25T08:53:47.999Z</time></trkpt><trkpt lat="43.2247990399381" lon="12.334303629194364"><ele>390.0</ele><time>2026-04-25T08:53:48.998Z</time></trkpt><trkpt lat="43.224890082368034" lon="12.334696020326657"><ele>385.0</ele><time>2026-04-25T08:53:49.998Z</time></trkpt><trkpt lat="43.22497017031957" lon="12.335079380674898"><ele>380.0</ele><time>2026-04-25T08:53:50.998Z</time></trkpt><trkpt lat="43.225052601112026" lon="12.335454445428867"><ele>377.5</ele><time>2026-04-25T08:53:51.998Z</time></trkpt><trkpt lat="43.225127467913204" lon="12.335812355084826"><ele>375.0</ele><time>2026-04-25T08:53:52.998Z</time></trkpt><trkpt lat="43.22518825543808" lon="12.336160723267737"><ele>374.0</ele><time>2026-04-25T08:53:53.998Z</time></trkpt><trkpt lat="43.22521452650898" lon="12.336509089715213"><ele>373.0</ele><time>2026-04-25T08:53:54.998Z</time></trkpt><trkpt lat="43.22523000362459" lon="12.336842669824424"><ele>373.0</ele><time>2026-04-25T08:53:55.998Z</time></trkpt><trkpt lat="43.225224995238825" lon="12.337169381358402"><ele>373.0</ele><time>2026-04-25T08:53:56.998Z</time></trkpt><trkpt lat="43.22522336771732" lon="12.337477858799904"><ele>372.66666666666663</ele><time>2026-04-25T08:53:57.998Z</time></trkpt><trkpt lat="43.22519713719472" lon="12.337760062137978"><ele>372.3333333333333</ele><time>2026-04-25T08:53:58.998Z</time></trkpt><trkpt lat="43.22518309547243" lon="12.338011539674385"><ele>372.0</ele><time>2026-04-25T08:53:59.998Z</time></trkpt><trkpt lat="43.2251874046076" lon="12.338227666075147"><ele>371.5</ele><time>2026-04-25T08:54:00.998Z</time></trkpt><trkpt lat="43.2251753439537" lon="12.338428067177487"><ele>371.0</ele><time>2026-04-25T08:54:01.998Z</time></trkpt><trkpt lat="43.225131948887665" lon="12.338592706781762"><ele>370.5</ele><time>2026-04-25T08:54:02.998Z</time></trkpt><trkpt lat="43.22507716243403" lon="12.338725636978234"><ele>370.0</ele><time>2026-04-25T08:54:03.998Z</time></trkpt><trkpt lat="43.22507472605338" lon="12.338852559189188"><ele>368.5</ele><time>2026-04-25T08:54:04.998Z</time></trkpt><trkpt lat="43.22511588514929" lon="12.338984985326453"><ele>367.0</ele><time>2026-04-25T08:54:05.998Z</time></trkpt><trkpt lat="43.225186502319104" lon="12.339116889602348"><ele>365.5</ele><time>2026-04-25T08:54:06.998Z</time></trkpt><trkpt lat="43.225235848718974" lon="12.33927082495061"><ele>364.0</ele><time>2026-04-25T08:54:07.998Z</time></trkpt><trkpt lat="43.22528339256158" lon="12.339423041353575"><ele>364.0</ele><time>2026-04-25T08:54:08.998Z</time></trkpt><trkpt lat="43.22514409664345" lon="12.33962406128745"><ele>364.0</ele><time>2026-04-25T08:54:09.998Z</time></trkpt><trkpt lat="43.22509405058892" lon="12.339843896037761"><ele>364.0</ele><time>2026-04-25T08:54:10.998Z</time></trkpt><trkpt lat="43.225058420357875" lon="12.340056480619756"><ele>363.3333333333333</ele><time>2026-04-25T08:54:11.998Z</time></trkpt><trkpt lat="43.22505862704811" lon="12.340298017270143"><ele>362.6666666666667</ele><time>2026-04-25T08:54:12.998Z</time></trkpt><trkpt lat="43.225068954658" lon="12.340562122964453"><ele>362.0</ele><time>2026-04-25T08:54:13.998Z</time></trkpt><trkpt lat="43.22509757358787" lon="12.34083530942636"><ele>362.0</ele><time>2026-04-25T08:54:15Z</time></trkpt><trkpt lat="43.225144910646634" lon="12.341120193038481"><ele>362.0</ele><time>2026-04-25T08:54:16Z</time></trkpt><trkpt lat="43.22519419236262" lon="12.341415066729763"><ele>362.0</ele><time>2026-04-25T08:54:17Z</time></trkpt><trkpt lat="43.22524214038717" lon="12.341718326130984"><ele>363.0</ele><time>2026-04-25T08:54:18Z</time></trkpt><trkpt lat="43.22529247148737" lon="12.342034027807763"><ele>364.0</ele><time>2026-04-25T08:54:19Z</time></trkpt><trkpt lat="43.22534403597334" lon="12.342358334044661"><ele>365.5</ele><time>2026-04-25T08:54:20Z</time></trkpt><trkpt lat="43.225389988290274" lon="12.342686731079052"><ele>367.0</ele><time>2026-04-25T08:54:21Z</time></trkpt><trkpt lat="43.22543976221233" lon="12.343015290038284"><ele>367.5</ele><time>2026-04-25T08:54:22Z</time></trkpt><trkpt lat="43.22548999350583" lon="12.343340959254036"><ele>368.0</ele><time>2026-04-25T08:54:23Z</time></trkpt><trkpt lat="43.225545990763" lon="12.343664649326087"><ele>368.0</ele><time>2026-04-25T08:54:24Z</time></trkpt><trkpt lat="43.225623360676636" lon="12.343980833594866"><ele>368.0</ele><time>2026-04-25T08:54:25Z</time></trkpt><trkpt lat="43.22572096337693" lon="12.344297839678319"><ele>362.5</ele><time>2026-04-25T08:54:26Z</time></trkpt><trkpt lat="43.22585127805636" lon="12.344601421298254"><ele>357.0</ele><time>2026-04-25T08:54:27Z</time></trkpt><trkpt lat="43.22600317246963" lon="12.344895720243985"><ele>357.0</ele><time>2026-04-25T08:54:28Z</time></trkpt><trkpt lat="43.226171904710526" lon="12.34517379063718"><ele>357.0</ele><time>2026-04-25T08:54:29Z</time></trkpt><trkpt lat="43.226359819928234" lon="12.345427659850866"><ele>354.0</ele><time>2026-04-25T08:54:30Z</time></trkpt><trkpt lat="43.22656460160958" lon="12.345661000660865"><ele>351.0</ele><time>2026-04-25T08:54:31Z</time></trkpt><trkpt lat="43.22678536167914" lon="12.345869662532039"><ele>351.0</ele><time>2026-04-25T08:54:32Z</time></trkpt><trkpt lat="43.227020364444655" lon="12.346057721313302"><ele>351.0</ele><time>2026-04-25T08:54:33Z</time></trkpt><trkpt lat="43.227269861862474" lon="12.346214444383822"><ele>350.0</ele><time>2026-04-25T08:54:34Z</time></trkpt><trkpt lat="43.227531673755465" lon="12.346337013554171"><ele>349.0</ele><time>2026-04-25T08:54:35Z</time></trkpt><trkpt lat="43.22780474500096" lon="12.346435996748422"><ele>349.0</ele><time>2026-04-25T08:54:36Z</time></trkpt><trkpt lat="43.22807808524462" lon="12.346538623582203"><ele>349.0</ele><time>2026-04-25T08:54:37Z</time></trkpt><trkpt lat="43.22834822635273" lon="12.346645925482123"><ele>355.0</ele><time>2026-04-25T08:54:38Z</time></trkpt><trkpt lat="43.22861614292659" lon="12.346758757780725"><ele>361.0</ele><time>2026-04-25T08:54:39Z</time></trkpt><trkpt lat="43.228877555488445" lon="12.346875584921708"><ele>362.0</ele><time>2026-04-25T08:54:40Z</time></trkpt><trkpt lat="43.22913930320606" lon="12.346985225200422"><ele>363.0</ele><time>2026-04-25T08:54:41Z</time></trkpt><trkpt lat="43.22939594262823" lon="12.347096739718681"><ele>359.0</ele><time>2026-04-25T08:54:42Z</time></trkpt><trkpt lat="43.229647974780306" lon="12.347217374482177"><ele>355.0</ele><time>2026-04-25T08:54:43Z</time></trkpt><trkpt lat="43.22988796224331" lon="12.347356249476064"><ele>355.0</ele><time>2026-04-25T08:54:44Z</time></trkpt><trkpt lat="43.230116430842635" lon="12.347524141328845"><ele>355.0</ele><time>2026-04-25T08:54:45Z</time></trkpt><trkpt lat="43.23033296087828" lon="12.347729474804964"><ele>355.0</ele><time>2026-04-25T08:54:46Z</time></trkpt><trkpt lat="43.23053813441787" lon="12.347970505023866"><ele>355.0</ele><time>2026-04-25T08:54:47Z</time></trkpt><trkpt lat="43.23072898468272" lon="12.34824440092321"><ele>356.5</ele><time>2026-04-25T08:54:47.999Z</time></trkpt><trkpt lat="43.23090477270754" lon="12.348540537608617"><ele>358.0</ele><time>2026-04-25T08:54:48.999Z</time></trkpt><trkpt lat="43.23106583235811" lon="12.348859207856789"><ele>348.5</ele><time>2026-04-25T08:54:49.999Z</time></trkpt><trkpt lat="43.23122394302552" lon="12.349183897381192"><ele>339.0</ele><time>2026-04-25T08:54:50.999Z</time></trkpt><trkpt lat="43.23138629431131" lon="12.349499300447494"><ele>348.5</ele><time>2026-04-25T08:54:51.999Z</time></trkpt><trkpt lat="43.231552601056755" lon="12.349809617347407"><ele>358.0</ele><time>2026-04-25T08:54:52.999Z</time></trkpt><trkpt lat="43.231715308250386" lon="12.350122477098596"><ele>358.0</ele><time>2026-04-25T08:54:53.999Z</time></trkpt><trkpt lat="43.23187777106474" lon="12.350433548901746"><ele>358.0</ele><time>2026-04-25T08:54:54.999Z</time></trkpt><trkpt lat="43.23204023733614" lon="12.35074439354924"><ele>351.0</ele><time>2026-04-25T08:54:55.999Z</time></trkpt><trkpt lat="43.23220150855018" lon="12.351057641392295"><ele>344.0</ele><time>2026-04-25T08:54:56.999Z</time></trkpt><trkpt lat="43.2323612882663" lon="12.351372561818312"><ele>349.0</ele><time>2026-04-25T08:54:57.999Z</time></trkpt><trkpt lat="43.23252497675713" lon="12.351684538534919"><ele>354.0</ele><time>2026-04-25T08:54:58.999Z</time></trkpt><trkpt lat="43.23269186008948" lon="12.351992472730139"><ele>344.5</ele><time>2026-04-25T08:54:59.999Z</time></trkpt><trkpt lat="43.23286054933106" lon="12.35230038858893"><ele>335.0</ele><time>2026-04-25T08:55:00.999Z</time></trkpt><trkpt lat="43.233032138612366" lon="12.3526085506001"><ele>336.5</ele><time>2026-04-25T08:55:01.999Z</time></trkpt><trkpt lat="43.233201064417216" lon="12.352921755728657"><ele>338.0</ele><time>2026-04-25T08:55:02.999Z</time></trkpt><trkpt lat="43.233361631514214" lon="12.353217584932752"><ele>338.0</ele><time>2026-04-25T08:55:03.999Z</time></trkpt><trkpt lat="43.23351218118526" lon="12.35350128957254"><ele>338.0</ele><time>2026-04-25T08:55:04.999Z</time></trkpt><trkpt lat="43.233650562479006" lon="12.35376541760784"><ele>335.33333333333337</ele><time>2026-04-25T08:55:05.999Z</time></trkpt><trkpt lat="43.23376435653942" lon="12.35402881667573"><ele>332.6666666666667</ele><time>2026-04-25T08:55:06.999Z</time></trkpt><trkpt lat="43.233854535996606" lon="12.354258404290645"><ele>330.0</ele><time>2026-04-25T08:55:07.999Z</time></trkpt><trkpt lat="43.23392021084682" lon="12.354458358368833"><ele>330.0</ele><time>2026-04-25T08:55:08.999Z</time></trkpt><trkpt lat="43.2339522101374" lon="12.354643253519205"><ele>330.0</ele><time>2026-04-25T08:55:09.999Z</time></trkpt><trkpt lat="43.23398932021054" lon="12.354798835598578"><ele>330.0</ele><time>2026-04-25T08:55:10.999Z</time></trkpt><trkpt lat="43.23401829390273" lon="12.35492561468607"><ele>330.0</ele><time>2026-04-25T08:55:11.999Z</time></trkpt><trkpt lat="43.2340578338512" lon="12.355024135258747"><ele>330.0</ele><time>2026-04-25T08:55:12.999Z</time></trkpt><trkpt lat="43.23406726742955" lon="12.3551593840758"><ele>331.5</ele><time>2026-04-25T08:55:14.999Z</time></trkpt><trkpt lat="43.23409523106177" lon="12.355363213237816"><ele>333.0</ele><time>2026-04-25T08:57:56.998Z</time></trkpt><trkpt lat="43.234128626231616" lon="12.355509917825866"><ele>334.5</ele><time>2026-04-25T08:57:57.998Z</time></trkpt><trkpt lat="43.23416583465342" lon="12.355685824605501"><ele>336.0</ele><time>2026-04-25T08:57:58.998Z</time></trkpt><trkpt lat="43.234207440171716" lon="12.355878000911328"><ele>336.0</ele><time>2026-04-25T08:57:59.998Z</time></trkpt><trkpt lat="43.23425715376843" lon="12.35609011386231"><ele>336.0</ele><time>2026-04-25T08:58:00.998Z</time></trkpt><trkpt lat="43.23430959707276" lon="12.35631902724458"><ele>336.0</ele><time>2026-04-25T08:58:01.998Z</time></trkpt><trkpt lat="43.23438223434838" lon="12.356546143557033"><ele>331.3333333333333</ele><time>2026-04-25T08:58:02.998Z</time></trkpt><trkpt lat="43.23448435937173" lon="12.356766584101166"><ele>326.66666666666663</ele><time>2026-04-25T08:58:03.998Z</time></trkpt><trkpt lat="43.23461154033448" lon="12.356983194952281"><ele>322.0</ele><time>2026-04-25T08:58:04.998Z</time></trkpt><trkpt lat="43.23476116802245" lon="12.357190968114041"><ele>325.0</ele><time>2026-04-25T08:58:05.998Z</time></trkpt><trkpt lat="43.23491544987178" lon="12.35740932877204"><ele>328.0</ele><time>2026-04-25T08:58:06.998Z</time></trkpt><trkpt lat="43.23506982634142" lon="12.35763632967952"><ele>331.0</ele><time>2026-04-25T08:58:07.998Z</time></trkpt><trkpt lat="43.23522539902083" lon="12.357866611020052"><ele>322.5</ele><time>2026-04-25T08:58:08.998Z</time></trkpt><trkpt lat="43.235385016682905" lon="12.358103822425292"><ele>314.0</ele><time>2026-04-25T08:58:09.998Z</time></trkpt><trkpt lat="43.235548860025595" lon="12.35834731727856"><ele>325.5</ele><time>2026-04-25T08:58:10.998Z</time></trkpt><trkpt lat="43.23571736829353" lon="12.358594062610438"><ele>337.0</ele><time>2026-04-25T08:58:11.998Z</time></trkpt><trkpt lat="43.235885586701926" lon="12.358842241693237"><ele>326.0</ele><time>2026-04-25T08:58:12.998Z</time></trkpt><trkpt lat="43.236052058926354" lon="12.359103809465294"><ele>315.0</ele><time>2026-04-25T08:58:13.998Z</time></trkpt><trkpt lat="43.23622008168207" lon="12.359367451594625"><ele>315.0</ele><time>2026-04-25T08:58:14.998Z</time></trkpt><trkpt lat="43.23639360699085" lon="12.35963270036996"><ele>315.0</ele><time>2026-04-25T08:58:15.998Z</time></trkpt><trkpt lat="43.236579821233384" lon="12.359887736123769"><ele>315.0</ele><time>2026-04-25T08:58:16.998Z</time></trkpt><trkpt lat="43.236774201087336" lon="12.360130660092532"><ele>315.0</ele><time>2026-04-25T08:58:17.998Z</time></trkpt><trkpt lat="43.23697118062551" lon="12.360368845180137"><ele>316.0</ele><time>2026-04-25T08:58:18.998Z</time></trkpt><trkpt lat="43.23716873346377" lon="12.36060760839912"><ele>317.0</ele><time>2026-04-25T08:58:19.998Z</time></trkpt><trkpt lat="43.23736336570523" lon="12.360844518852529"><ele>317.0</ele><time>2026-04-25T08:58:20.998Z</time></trkpt><trkpt lat="43.23754830489243" lon="12.361070464453068"><ele>317.0</ele><time>2026-04-25T08:58:21.998Z</time></trkpt><trkpt lat="43.23772062114878" lon="12.361282028239897"><ele>316.33333333333337</ele><time>2026-04-25T08:58:22.998Z</time></trkpt><trkpt lat="43.237882699120796" lon="12.361474427254457"><ele>315.6666666666667</ele><time>2026-04-25T08:58:23.998Z</time></trkpt><trkpt lat="43.238054017419444" lon="12.361637762599235"><ele>315.0</ele><time>2026-04-25T08:58:24.998Z</time></trkpt><trkpt lat="43.238241575521734" lon="12.361772106798798"><ele>315.0</ele><time>2026-04-25T08:58:25.998Z</time></trkpt><trkpt lat="43.238417149487944" lon="12.361861599031172"><ele>315.0</ele><time>2026-04-25T08:58:27Z</time></trkpt><trkpt lat="43.2386032554983" lon="12.361901207169986"><ele>315.0</ele><time>2026-04-25T08:58:28Z</time></trkpt><trkpt lat="43.2387972542039" lon="12.361924270433567"><ele>314.6666666666667</ele><time>2026-04-25T08:58:29Z</time></trkpt><trkpt lat="43.238997916147696" lon="12.361948532830832"><ele>314.33333333333337</ele><time>2026-04-25T08:58:30Z</time></trkpt><trkpt lat="43.23920142399489" lon="12.361972611674108"><ele>314.0</ele><time>2026-04-25T08:58:31Z</time></trkpt><trkpt lat="43.239407994930225" lon="12.361997383379116"><ele>314.0</ele><time>2026-04-25T08:58:32Z</time></trkpt><trkpt lat="43.23961750863878" lon="12.362022819266961"><ele>314.0</ele><time>2026-04-25T08:58:33Z</time></trkpt><trkpt lat="43.23982665895547" lon="12.362046693543045"><ele>314.0</ele><time>2026-04-25T08:58:34Z</time></trkpt><trkpt lat="43.24001920124948" lon="12.362060858496534"><ele>314.0</ele><time>2026-04-25T08:58:35Z</time></trkpt><trkpt lat="43.240206898667985" lon="12.36204368733535"><ele>314.0</ele><time>2026-04-25T08:58:36Z</time></trkpt><trkpt lat="43.240387317960206" lon="12.36196926655628"><ele>314.0</ele><time>2026-04-25T08:58:37Z</time></trkpt><trkpt lat="43.24056009681275" lon="12.36184758560752"><ele>317.6666666666667</ele><time>2026-04-25T08:58:38Z</time></trkpt><trkpt lat="43.240721213589225" lon="12.361676734445568"><ele>321.3333333333333</ele><time>2026-04-25T08:58:39Z</time></trkpt><trkpt lat="43.24086432082586" lon="12.361463873971562"><ele>325.0</ele><time>2026-04-25T08:58:40Z</time></trkpt><trkpt lat="43.2410058415967" lon="12.361238956997294"><ele>325.0</ele><time>2026-04-25T08:58:41Z</time></trkpt><trkpt lat="43.24115782881607" lon="12.361017977699454"><ele>325.0</ele><time>2026-04-25T08:58:42Z</time></trkpt><trkpt lat="43.24131443247158" lon="12.360796500503612"><ele>325.0</ele><time>2026-04-25T08:58:43Z</time></trkpt><trkpt lat="43.24147514622491" lon="12.360572560699113"><ele>324.0</ele><time>2026-04-25T08:58:44Z</time></trkpt><trkpt lat="43.241644228004944" lon="12.360353032136297"><ele>323.0</ele><time>2026-04-25T08:58:45Z</time></trkpt><trkpt lat="43.24181038005403" lon="12.360150172686819"><ele>323.0</ele><time>2026-04-25T08:58:46Z</time></trkpt><trkpt lat="43.2419775421636" lon="12.359982516606147"><ele>323.0</ele><time>2026-04-25T08:58:47Z</time></trkpt><trkpt lat="43.242157242504724" lon="12.35986308500376"><ele>323.0</ele><time>2026-04-25T08:58:48Z</time></trkpt><trkpt lat="43.242357751828514" lon="12.359795028868023"><ele>320.6666666666667</ele><time>2026-04-25T08:58:49Z</time></trkpt><trkpt lat="43.24257334759291" lon="12.359782789099656"><ele>318.3333333333333</ele><time>2026-04-25T08:58:50Z</time></trkpt><trkpt lat="43.242797135787974" lon="12.35981581518787"><ele>316.0</ele><time>2026-04-25T08:58:51Z</time></trkpt><trkpt lat="43.243026078918334" lon="12.359899216964452"><ele>309.5</ele><time>2026-04-25T08:58:52Z</time></trkpt><trkpt lat="43.243253166785685" lon="12.360019332336972"><ele>303.0</ele><time>2026-04-25T08:58:53Z</time></trkpt><trkpt lat="43.24347148380769" lon="12.360113779161276"><ele>303.0</ele><time>2026-04-25T08:58:54Z</time></trkpt><trkpt lat="43.24367464722342" lon="12.360167030038017"><ele>303.0</ele><time>2026-04-25T08:58:55Z</time></trkpt><trkpt lat="43.24387652674988" lon="12.360175717260185"><ele>303.0</ele><time>2026-04-25T08:58:56Z</time></trkpt><trkpt lat="43.24408283672419" lon="12.360135693210706"><ele>302.0</ele><time>2026-04-25T08:58:57Z</time></trkpt><trkpt lat="43.24429147170847" lon="12.360050121075707"><ele>301.0</ele><time>2026-04-25T08:58:58Z</time></trkpt><trkpt lat="43.24450000296169" lon="12.359919381171293"><ele>300.0</ele><time>2026-04-25T08:58:59Z</time></trkpt><trkpt lat="43.244700896630825" lon="12.359777964732025"><ele>293.6666666666667</ele><time>2026-04-25T08:58:59.999Z</time></trkpt><trkpt lat="43.24488460753144" lon="12.359652966282132"><ele>287.33333333333337</ele><time>2026-04-25T08:59:00.999Z</time></trkpt><trkpt lat="43.24503984468169" lon="12.35956545537678"><ele>281.0</ele><time>2026-04-25T08:59:01.999Z</time></trkpt><trkpt lat="43.24519062407779" lon="12.359519292022137"><ele>281.0</ele><time>2026-04-25T08:59:02.999Z</time></trkpt><trkpt lat="43.24534261061857" lon="12.359533421012404"><ele>281.0</ele><time>2026-04-25T08:59:03.999Z</time></trkpt><trkpt lat="43.245483422822126" lon="12.359609899092224"><ele>281.0</ele><time>2026-04-25T08:59:04.999Z</time></trkpt><trkpt lat="43.24559007747959" lon="12.359778152162793"><ele>280.6666666666667</ele><time>2026-04-25T08:59:05.999Z</time></trkpt><trkpt lat="43.245683351138254" lon="12.359994897623112"><ele>280.3333333333333</ele><time>2026-04-25T08:59:06.999Z</time></trkpt><trkpt lat="43.24577888142717" lon="12.36022869974221"><ele>280.0</ele><time>2026-04-25T08:59:07.999Z</time></trkpt><trkpt lat="43.24588521216435" lon="12.360478175802404"><ele>285.66666666666663</ele><time>2026-04-25T08:59:08.999Z</time></trkpt><trkpt lat="43.2459970370046" lon="12.360735513260986"><ele>291.3333333333333</ele><time>2026-04-25T08:59:09.999Z</time></trkpt><trkpt lat="43.24609254122282" lon="12.360996024757243"><ele>297.0</ele><time>2026-04-25T08:59:10.999Z</time></trkpt><trkpt lat="43.24620703556209" lon="12.361291516217403"><ele>307.0</ele><time>2026-04-25T08:59:11.999Z</time></trkpt><trkpt lat="43.24633153589587" lon="12.361607495990595"><ele>317.0</ele><time>2026-04-25T08:59:12.999Z</time></trkpt><trkpt lat="43.24646161140482" lon="12.361908112426578"><ele>296.0</ele><time>2026-04-25T08:59:13.999Z</time></trkpt><trkpt lat="43.24660298056718" lon="12.362203861559"><ele>275.0</ele><time>2026-04-25T08:59:14.999Z</time></trkpt><trkpt lat="43.24672190661365" lon="12.362537243546178"><ele>275.0</ele><time>2026-04-25T08:59:15.999Z</time></trkpt><trkpt lat="43.24685614305361" lon="12.362861868981149"><ele>275.0</ele><time>2026-04-25T08:59:16.999Z</time></trkpt><trkpt lat="43.246985453590845" lon="12.363176431676445"><ele>284.0</ele><time>2026-04-25T08:59:17.999Z</time></trkpt><trkpt lat="43.247114587809456" lon="12.363491522169875"><ele>293.0</ele><time>2026-04-25T08:59:18.999Z</time></trkpt><trkpt lat="43.247234499232604" lon="12.363784426469952"><ele>275.0</ele><time>2026-04-25T08:59:19.999Z</time></trkpt><trkpt lat="43.247349293706286" lon="12.364065314427176"><ele>257.0</ele><time>2026-04-25T08:59:20.999Z</time></trkpt><trkpt lat="43.24745496759901" lon="12.364325854617736"><ele>257.0</ele><time>2026-04-25T08:59:21.999Z</time></trkpt><trkpt lat="43.24756008469977" lon="12.364555893719409"><ele>257.0</ele><time>2026-04-25T08:59:22.999Z</time></trkpt><trkpt lat="43.24770523468991" lon="12.364778097931827"><ele>257.0</ele><time>2026-04-25T08:59:23.999Z</time></trkpt><trkpt lat="43.24784666153985" lon="12.364964187121423"><ele>253.33333333333334</ele><time>2026-04-25T08:59:24.999Z</time></trkpt><trkpt lat="43.24801103652623" lon="12.365117187467298"><ele>249.66666666666669</ele><time>2026-04-25T08:59:25.999Z</time></trkpt><trkpt lat="43.24817671119183" lon="12.365259800457707"><ele>246.0</ele><time>2026-04-25T08:59:26.999Z</time></trkpt><trkpt lat="43.248288718548366" lon="12.365446296638495"><ele>247.66666666666669</ele><time>2026-04-25T08:59:27.999Z</time></trkpt><trkpt lat="43.248339194090015" lon="12.365633185734097"><ele>249.33333333333334</ele><time>2026-04-25T08:59:28.999Z</time></trkpt><trkpt lat="43.24833963905594" lon="12.365865474386057"><ele>251.0</ele><time>2026-04-25T08:59:29.999Z</time></trkpt><trkpt lat="43.24834908009129" lon="12.366125265435702"><ele>251.66666666666669</ele><time>2026-04-25T08:59:30.999Z</time></trkpt><trkpt lat="43.248356312961576" lon="12.366422840551472"><ele>252.33333333333331</ele><time>2026-04-25T08:59:31.999Z</time></trkpt><trkpt lat="43.24836130901744" lon="12.366732641179667"><ele>253.0</ele><time>2026-04-25T08:59:32.999Z</time></trkpt><trkpt lat="43.248343674366595" lon="12.367052837052691"><ele>249.5</ele><time>2026-04-25T08:59:33.999Z</time></trkpt><trkpt lat="43.24829371584288" lon="12.367366811256035"><ele>246.0</ele><time>2026-04-25T08:59:34.999Z</time></trkpt><trkpt lat="43.248222543526836" lon="12.367702857210057"><ele>246.0</ele><time>2026-04-25T08:59:35.999Z</time></trkpt><trkpt lat="43.248142657483086" lon="12.36802454420092"><ele>246.0</ele><time>2026-04-25T08:59:36.999Z</time></trkpt><trkpt lat="43.248057557865" lon="12.368353327833908"><ele>256.5</ele><time>2026-04-25T08:59:37.999Z</time></trkpt><trkpt lat="43.24797454054856" lon="12.368680133861968"><ele>267.0</ele><time>2026-04-25T08:59:38.999Z</time></trkpt><trkpt lat="43.247903495561395" lon="12.3690062996971"><ele>267.0</ele><time>2026-04-25T08:59:39.999Z</time></trkpt><trkpt lat="43.24786943191203" lon="12.369341738142882"><ele>267.0</ele><time>2026-04-25T08:59:40.999Z</time></trkpt><trkpt lat="43.2478442431578" lon="12.36968154569686"><ele>262.0</ele><time>2026-04-25T08:59:41.999Z</time></trkpt><trkpt lat="43.24784316494965" lon="12.370040507838517"><ele>257.0</ele><time>2026-04-25T08:59:42.999Z</time></trkpt><trkpt lat="43.24785403323021" lon="12.37040689595732"><ele>252.5</ele><time>2026-04-25T08:59:43.999Z</time></trkpt><trkpt lat="43.2478613725738" lon="12.370773099351268"><ele>248.0</ele><time>2026-04-25T08:59:44.999Z</time></trkpt><trkpt lat="43.247860848784654" lon="12.371148674188847"><ele>245.5</ele><time>2026-04-25T08:59:45.999Z</time></trkpt><trkpt lat="43.24786531596755" lon="12.371530772076742"><ele>243.0</ele><time>2026-04-25T08:59:46.999Z</time></trkpt><trkpt lat="43.24786818688636" lon="12.371897778146579"><ele>243.0</ele><time>2026-04-25T08:59:47.999Z</time></trkpt><trkpt lat="43.247866501446616" lon="12.372279484719742"><ele>243.0</ele><time>2026-04-25T08:59:48.999Z</time></trkpt><trkpt lat="43.24786823425517" lon="12.372660791357823"><ele>241.5</ele><time>2026-04-25T08:59:49.999Z</time></trkpt><trkpt lat="43.24786815832773" lon="12.3730493490053"><ele>240.0</ele><time>2026-04-25T08:59:50.999Z</time></trkpt><trkpt lat="43.247868103519956" lon="12.373428345595757"><ele>240.0</ele><time>2026-04-25T08:59:51.999Z</time></trkpt><trkpt lat="43.24786804791484" lon="12.373812184675192"><ele>240.0</ele><time>2026-04-25T08:59:52.999Z</time></trkpt><trkpt lat="43.24787026154133" lon="12.374195649096936"><ele>239.5</ele><time>2026-04-25T08:59:53.999Z</time></trkpt><trkpt lat="43.24787561674444" lon="12.374583323788512"><ele>239.0</ele><time>2026-04-25T08:59:54.999Z</time></trkpt><trkpt lat="43.24788276985125" lon="12.374967031456723"><ele>239.0</ele><time>2026-04-25T08:59:55.999Z</time></trkpt><trkpt lat="43.247883281691465" lon="12.37534671785665"><ele>239.0</ele><time>2026-04-25T08:59:56.999Z</time></trkpt><trkpt lat="43.247880251078634" lon="12.375733319030372"><ele>239.0</ele><time>2026-04-25T08:59:57.999Z</time></trkpt><trkpt lat="43.24788816032683" lon="12.376110566324423"><ele>239.0</ele><time>2026-04-25T08:59:58.999Z</time></trkpt><trkpt lat="43.24791712072885" lon="12.37647398249507"><ele>239.0</ele><time>2026-04-25T08:59:59.999Z</time></trkpt><trkpt lat="43.247981039238695" lon="12.376834543209414"><ele>239.0</ele><time>2026-04-25T09:00:00.999Z</time></trkpt><trkpt lat="43.24808134962041" lon="12.377187294253979"><ele>236.5</ele><time>2026-04-25T09:00:01.999Z</time></trkpt><trkpt lat="43.248190697321625" lon="12.377544579981283"><ele>234.0</ele><time>2026-04-25T09:00:02.999Z</time></trkpt><trkpt lat="43.2483026283647" lon="12.377908356673434"><ele>236.0</ele><time>2026-04-25T09:00:03.999Z</time></trkpt><trkpt lat="43.248403549002425" lon="12.378268299777046"><ele>238.0</ele><time>2026-04-25T09:00:04.998Z</time></trkpt><trkpt lat="43.24849899103456" lon="12.378626053041467"><ele>240.0</ele><time>2026-04-25T09:00:05.998Z</time></trkpt><trkpt lat="43.248597441243746" lon="12.378987331306208"><ele>242.0</ele><time>2026-04-25T09:00:06.998Z</time></trkpt><trkpt lat="43.24870657557761" lon="12.379323874904747"><ele>242.0</ele><time>2026-04-25T09:00:07.998Z</time></trkpt><trkpt lat="43.248802631998906" lon="12.37968224662478"><ele>242.0</ele><time>2026-04-25T09:00:08.998Z</time></trkpt><trkpt lat="43.248891863092624" lon="12.380021035255604"><ele>240.5</ele><time>2026-04-25T09:00:09.998Z</time></trkpt><trkpt lat="43.24898450689116" lon="12.380343479875629"><ele>239.0</ele><time>2026-04-25T09:00:10.998Z</time></trkpt><trkpt lat="43.24909604457096" lon="12.380648339663352"><ele>239.0</ele><time>2026-04-25T09:00:11.998Z</time></trkpt><trkpt lat="43.24923554502566" lon="12.38092921153848"><ele>239.0</ele><time>2026-04-25T09:00:12.998Z</time></trkpt><trkpt lat="43.24940558765512" lon="12.38118409171511"><ele>237.0</ele><time>2026-04-25T09:00:13.998Z</time></trkpt><trkpt lat="43.249597195518255" lon="12.381413476163146"><ele>235.0</ele><time>2026-04-25T09:00:14.998Z</time></trkpt><trkpt lat="43.249807538879374" lon="12.381615572157243"><ele>235.0</ele><time>2026-04-25T09:00:15.998Z</time></trkpt><trkpt lat="43.25003013250939" lon="12.381794050971807"><ele>235.0</ele><time>2026-04-25T09:00:16.998Z</time></trkpt><trkpt lat="43.250268699607105" lon="12.381938222982836"><ele>235.0</ele><time>2026-04-25T09:00:17.998Z</time></trkpt><trkpt lat="43.25051902507173" lon="12.382044746231117"><ele>235.0</ele><time>2026-04-25T09:00:18.998Z</time></trkpt><trkpt lat="43.2507804852047" lon="12.382105093264451"><ele>233.5</ele><time>2026-04-25T09:00:19.998Z</time></trkpt><trkpt lat="43.25105065608337" lon="12.382130235099595"><ele>232.0</ele><time>2026-04-25T09:00:20.998Z</time></trkpt><trkpt lat="43.25132093656733" lon="12.382143087381927"><ele>230.5</ele><time>2026-04-25T09:00:21.998Z</time></trkpt><trkpt lat="43.251592497530325" lon="12.38215409032625"><ele>229.0</ele><time>2026-04-25T09:00:22.998Z</time></trkpt><trkpt lat="43.25186644638469" lon="12.382169903364595"><ele>236.5</ele><time>2026-04-25T09:00:23.998Z</time></trkpt><trkpt lat="43.252142934030196" lon="12.382185486750904"><ele>244.0</ele><time>2026-04-25T09:00:24.998Z</time></trkpt><trkpt lat="43.25242332856055" lon="12.382198092036244"><ele>244.0</ele><time>2026-04-25T09:00:25.998Z</time></trkpt><trkpt lat="43.252700055761295" lon="12.38221814832645"><ele>244.0</ele><time>2026-04-25T09:00:26.998Z</time></trkpt><trkpt lat="43.25297410172621" lon="12.382234921519508"><ele>237.0</ele><time>2026-04-25T09:00:27.998Z</time></trkpt><trkpt lat="43.25324775881476" lon="12.382253848846643"><ele>230.0</ele><time>2026-04-25T09:00:28.998Z</time></trkpt><trkpt lat="43.25351774489981" lon="12.382267432411446"><ele>230.0</ele><time>2026-04-25T09:00:29.998Z</time></trkpt><trkpt lat="43.253769277933074" lon="12.38228038535647"><ele>230.0</ele><time>2026-04-25T09:00:30.998Z</time></trkpt><trkpt lat="43.254015434533436" lon="12.382291723457287"><ele>228.0</ele><time>2026-04-25T09:00:32Z</time></trkpt><trkpt lat="43.25424410543939" lon="12.382303472433744"><ele>226.0</ele><time>2026-04-25T09:00:33Z</time></trkpt><trkpt lat="43.25446967049993" lon="12.382316585042183"><ele>226.0</ele><time>2026-04-25T09:00:34Z</time></trkpt><trkpt lat="43.25469984954073" lon="12.382308668723235"><ele>226.0</ele><time>2026-04-25T09:00:35Z</time></trkpt><trkpt lat="43.25492737879749" lon="12.382250834044005"><ele>226.5</ele><time>2026-04-25T09:00:36Z</time></trkpt><trkpt lat="43.25515650769292" lon="12.382152025144388"><ele>227.0</ele><time>2026-04-25T09:00:37Z</time></trkpt><trkpt lat="43.25539057991494" lon="12.382036581350567"><ele>226.5</ele><time>2026-04-25T09:00:38Z</time></trkpt><trkpt lat="43.25563122268899" lon="12.381928509362076"><ele>226.0</ele><time>2026-04-25T09:00:39Z</time></trkpt><trkpt lat="43.25588019635917" lon="12.38182884503993"><ele>226.0</ele><time>2026-04-25T09:00:40Z</time></trkpt><trkpt lat="43.256134004774545" lon="12.3817246860196"><ele>226.0</ele><time>2026-04-25T09:00:41Z</time></trkpt><trkpt lat="43.256386801277266" lon="12.381614811429097"><ele>226.0</ele><time>2026-04-25T09:00:42Z</time></trkpt><trkpt lat="43.256646413265386" lon="12.38151092998472"><ele>226.0</ele><time>2026-04-25T09:00:43Z</time></trkpt><trkpt lat="43.25690696051371" lon="12.381403389628185"><ele>226.0</ele><time>2026-04-25T09:00:44Z</time></trkpt><trkpt lat="43.25716692672596" lon="12.381289883545783"><ele>226.0</ele><time>2026-04-25T09:00:45Z</time></trkpt><trkpt lat="43.257428469744966" lon="12.38117912401116"><ele>226.0</ele><time>2026-04-25T09:00:46Z</time></trkpt><trkpt lat="43.25767709202236" lon="12.3810875813782"><ele>226.0</ele><time>2026-04-25T09:00:47Z</time></trkpt><trkpt lat="43.25791822537481" lon="12.38102263242918"><ele>226.0</ele><time>2026-04-25T09:00:48Z</time></trkpt><trkpt lat="43.25816096155257" lon="12.380996364453214"><ele>226.0</ele><time>2026-04-25T09:00:49Z</time></trkpt><trkpt lat="43.258406105550186" lon="12.381008673176838"><ele>226.0</ele><time>2026-04-25T09:00:50Z</time></trkpt><trkpt lat="43.25864958600524" lon="12.381058272325358"><ele>226.0</ele><time>2026-04-25T09:00:51Z</time></trkpt><trkpt lat="43.25888636548806" lon="12.38115344458981"><ele>226.5</ele><time>2026-04-25T09:00:52Z</time></trkpt><trkpt lat="43.25911726860081" lon="12.381280286359585"><ele>227.0</ele><time>2026-04-25T09:00:53Z</time></trkpt><trkpt lat="43.25934557974792" lon="12.381419107788822"><ele>227.5</ele><time>2026-04-25T09:00:54Z</time></trkpt><trkpt lat="43.25957196390348" lon="12.381554859248748"><ele>228.0</ele><time>2026-04-25T09:00:55Z</time></trkpt><trkpt lat="43.25979963511752" lon="12.381685792426401"><ele>226.0</ele><time>2026-04-25T09:00:56Z</time></trkpt><trkpt lat="43.260019913046825" lon="12.381808176113482"><ele>224.0</ele><time>2026-04-25T09:00:57Z</time></trkpt><trkpt lat="43.260227642078625" lon="12.381922621871055"><ele>224.0</ele><time>2026-04-25T09:00:58Z</time></trkpt><trkpt lat="43.2604204728713" lon="12.382039260872366"><ele>224.0</ele><time>2026-04-25T09:00:59Z</time></trkpt><trkpt lat="43.26059454928113" lon="12.382224578696462"><ele>224.0</ele><time>2026-04-25T09:01:00Z</time></trkpt><trkpt lat="43.26078092715732" lon="12.382420200608586"><ele>224.0</ele><time>2026-04-25T09:01:01Z</time></trkpt><trkpt lat="43.260963718113075" lon="12.382640282911826"><ele>224.0</ele><time>2026-04-25T09:01:02Z</time></trkpt><trkpt lat="43.261149417367214" lon="12.382861694750542"><ele>225.0</ele><time>2026-04-25T09:01:03Z</time></trkpt><trkpt lat="43.26133263055811" lon="12.383078656638997"><ele>226.0</ele><time>2026-04-25T09:01:03.999Z</time></trkpt><trkpt lat="43.261517251374954" lon="12.383295922627685"><ele>226.5</ele><time>2026-04-25T09:01:05Z</time></trkpt><trkpt lat="43.26169969752443" lon="12.383516081323787"><ele>227.0</ele><time>2026-04-25T09:01:05.999Z</time></trkpt><trkpt lat="43.26187822930056" lon="12.383736793004351"><ele>227.0</ele><time>2026-04-25T09:01:06.999Z</time></trkpt><trkpt lat="43.26204367139451" lon="12.38397615755089"><ele>227.0</ele><time>2026-04-25T09:01:07.999Z</time></trkpt><trkpt lat="43.26218694217011" lon="12.384242997540818"><ele>229.5</ele><time>2026-04-25T09:01:08.999Z</time></trkpt><trkpt lat="43.262310360354384" lon="12.384530128999469"><ele>232.0</ele><time>2026-04-25T09:01:09.999Z</time></trkpt><trkpt lat="43.26242897884443" lon="12.38481874740693"><ele>232.5</ele><time>2026-04-25T09:01:10.999Z</time></trkpt><trkpt lat="43.262547838305004" lon="12.385099569447124"><ele>233.0</ele><time>2026-04-25T09:01:11.999Z</time></trkpt><trkpt lat="43.26267052368212" lon="12.385374975044922"><ele>233.5</ele><time>2026-04-25T09:01:12.999Z</time></trkpt><trkpt lat="43.26279841729018" lon="12.385649555711815"><ele>234.0</ele><time>2026-04-25T09:01:13.999Z</time></trkpt><trkpt lat="43.26292921207403" lon="12.385924207994858"><ele>234.0</ele><time>2026-04-25T09:01:14.999Z</time></trkpt><trkpt lat="43.26305806737195" lon="12.386197271908312"><ele>234.0</ele><time>2026-04-25T09:01:15.999Z</time></trkpt><trkpt lat="43.26317768072045" lon="12.386453737217856"><ele>233.66666666666669</ele><time>2026-04-25T09:01:16.999Z</time></trkpt><trkpt lat="43.263286631458094" lon="12.386692408294696"><ele>233.33333333333334</ele><time>2026-04-25T09:01:17.999Z</time></trkpt><trkpt lat="43.26338980653712" lon="12.386908240770282"><ele>233.0</ele><time>2026-04-25T09:01:18.999Z</time></trkpt><trkpt lat="43.2634875945265" lon="12.387110285335805"><ele>233.33333333333334</ele><time>2026-04-25T09:01:19.999Z</time></trkpt><trkpt lat="43.26357983602159" lon="12.38730605277142"><ele>233.66666666666669</ele><time>2026-04-25T09:01:20.999Z</time></trkpt><trkpt lat="43.26366396490809" lon="12.38746740121409"><ele>234.0</ele><time>2026-04-25T09:01:21.999Z</time></trkpt><trkpt lat="43.263715803600746" lon="12.38765363489519"><ele>234.0</ele><time>2026-04-25T09:01:22.999Z</time></trkpt><trkpt lat="43.263758975993696" lon="12.387797703897522"><ele>234.0</ele><time>2026-04-25T09:01:23.999Z</time></trkpt><trkpt lat="43.263766310552455" lon="12.387951562854585"><ele>234.0</ele><time>2026-04-25T09:01:24.999Z</time></trkpt><trkpt lat="43.26373686894239" lon="12.388107467699188"><ele>234.0</ele><time>2026-04-25T09:01:25.999Z</time></trkpt><trkpt lat="43.26366492591886" lon="12.388255100187548"><ele>234.5</ele><time>2026-04-25T09:01:26.999Z</time></trkpt><trkpt lat="43.26355802403131" lon="12.388369290171795"><ele>235.0</ele><time>2026-04-25T09:01:27.999Z</time></trkpt><trkpt lat="43.26342205281906" lon="12.38839540421846"><ele>235.5</ele><time>2026-04-25T09:01:28.999Z</time></trkpt><trkpt lat="43.263290855629414" lon="12.388378633837716"><ele>236.0</ele><time>2026-04-25T09:01:29.999Z</time></trkpt><trkpt lat="43.26318080863831" lon="12.388294811642512"><ele>234.5</ele><time>2026-04-25T09:01:30.999Z</time></trkpt><trkpt lat="43.263080652775315" lon="12.388171503057043"><ele>233.0</ele><time>2026-04-25T09:01:31.999Z</time></trkpt><trkpt lat="43.26301085762758" lon="12.388004871378232"><ele>231.5</ele><time>2026-04-25T09:01:32.999Z</time></trkpt><trkpt lat="43.26301784871911" lon="12.387785080168657"><ele>230.0</ele><time>2026-04-25T09:01:33.999Z</time></trkpt><trkpt lat="43.26305215224159" lon="12.387576864530054"><ele>231.0</ele><time>2026-04-25T09:01:34.999Z</time></trkpt><trkpt lat="43.26311499368376" lon="12.387377921545852"><ele>232.0</ele><time>2026-04-25T09:01:35.999Z</time></trkpt><trkpt lat="43.2632393284984" lon="12.387233881950998"><ele>233.0</ele><time>2026-04-25T09:01:36.999Z</time></trkpt><trkpt lat="43.263399419442976" lon="12.387138339234536"><ele>233.0</ele><time>2026-04-25T09:01:37.999Z</time></trkpt><trkpt lat="43.26358167662245" lon="12.387070284558018"><ele>233.0</ele><time>2026-04-25T09:01:38.999Z</time></trkpt><trkpt lat="43.2637688401872" lon="12.387003887653801"><ele>233.0</ele><time>2026-04-25T09:01:39.999Z</time></trkpt><trkpt lat="43.26396146241568" lon="12.38692447306985"><ele>233.33333333333334</ele><time>2026-04-25T09:01:40.999Z</time></trkpt><trkpt lat="43.26416523725065" lon="12.38684305473817"><ele>233.66666666666669</ele><time>2026-04-25T09:01:41.999Z</time></trkpt><trkpt lat="43.26437588410417" lon="12.386765345083754"><ele>234.0</ele><time>2026-04-25T09:01:42.999Z</time></trkpt><trkpt lat="43.26459628173967" lon="12.386694376162316"><ele>236.0</ele><time>2026-04-25T09:01:43.999Z</time></trkpt><trkpt lat="43.26482468608701" lon="12.386630903992856"><ele>238.0</ele><time>2026-04-25T09:01:44.999Z</time></trkpt><trkpt lat="43.26505828954677" lon="12.386565755918289"><ele>238.0</ele><time>2026-04-25T09:01:45.999Z</time></trkpt><trkpt lat="43.26529636447789" lon="12.38649942908055"><ele>238.0</ele><time>2026-04-25T09:01:46.999Z</time></trkpt><trkpt lat="43.265538982374444" lon="12.386428041057414"><ele>238.5</ele><time>2026-04-25T09:01:47.999Z</time></trkpt><trkpt lat="43.2657881962166" lon="12.386355309156771"><ele>239.0</ele><time>2026-04-25T09:01:48.999Z</time></trkpt><trkpt lat="43.26604031775222" lon="12.386282302199724"><ele>240.0</ele><time>2026-04-25T09:01:49.999Z</time></trkpt><trkpt lat="43.26629956199984" lon="12.386215224290071"><ele>241.0</ele><time>2026-04-25T09:01:50.999Z</time></trkpt><trkpt lat="43.266561864820225" lon="12.386142651039782"><ele>241.0</ele><time>2026-04-25T09:01:51.999Z</time></trkpt><trkpt lat="43.26682748554798" lon="12.386066514564787"><ele>241.0</ele><time>2026-04-25T09:01:52.999Z</time></trkpt><trkpt lat="43.26709700942529" lon="12.38598614140544"><ele>242.5</ele><time>2026-04-25T09:01:53.999Z</time></trkpt><trkpt lat="43.26736855096008" lon="12.385898016517"><ele>244.0</ele><time>2026-04-25T09:01:54.999Z</time></trkpt><trkpt lat="43.26764254814017" lon="12.385806971898198"><ele>244.0</ele><time>2026-04-25T09:01:55.999Z</time></trkpt><trkpt lat="43.26792124925168" lon="12.38572783479147"><ele>244.0</ele><time>2026-04-25T09:01:56.999Z</time></trkpt><trkpt lat="43.26820227662941" lon="12.385649860402397"><ele>245.0</ele><time>2026-04-25T09:01:57.999Z</time></trkpt><trkpt lat="43.26848617006874" lon="12.385570227132469"><ele>246.0</ele><time>2026-04-25T09:01:58.999Z</time></trkpt><trkpt lat="43.2687712630263" lon="12.385491403703945"><ele>246.0</ele><time>2026-04-25T09:01:59.999Z</time></trkpt><trkpt lat="43.269057797774934" lon="12.385410586322793"><ele>246.0</ele><time>2026-04-25T09:02:00.999Z</time></trkpt><trkpt lat="43.269347001650836" lon="12.385333656133973"><ele>246.0</ele><time>2026-04-25T09:02:01.999Z</time></trkpt><trkpt lat="43.26963729649092" lon="12.385255007015395"><ele>246.0</ele><time>2026-04-25T09:02:02.999Z</time></trkpt><trkpt lat="43.26992688941901" lon="12.385171554196662"><ele>249.0</ele><time>2026-04-25T09:02:03.999Z</time></trkpt><trkpt lat="43.27021737536645" lon="12.385088084475552"><ele>252.0</ele><time>2026-04-25T09:02:04.999Z</time></trkpt><trkpt lat="43.27051077537569" lon="12.385008895669264"><ele>257.0</ele><time>2026-04-25T09:02:05.999Z</time></trkpt><trkpt lat="43.27080391310727" lon="12.384928106744537"><ele>262.0</ele><time>2026-04-25T09:02:06.999Z</time></trkpt><trkpt lat="43.271098987095826" lon="12.384847567034338"><ele>262.0</ele><time>2026-04-25T09:02:07.998Z</time></trkpt><trkpt lat="43.27139457254935" lon="12.384767247791249"><ele>262.0</ele><time>2026-04-25T09:02:08.998Z</time></trkpt><trkpt lat="43.27169070226635" lon="12.384682930790742"><ele>263.5</ele><time>2026-04-25T09:02:09.998Z</time></trkpt><trkpt lat="43.2719883404055" lon="12.384600945915302"><ele>265.0</ele><time>2026-04-25T09:02:10.998Z</time></trkpt><trkpt lat="43.272288656270504" lon="12.384520402295315"><ele>267.0</ele><time>2026-04-25T09:02:11.998Z</time></trkpt><trkpt lat="43.27258782062487" lon="12.384440136882336"><ele>269.0</ele><time>2026-04-25T09:02:12.998Z</time></trkpt><trkpt lat="43.27290368294553" lon="12.384402698648238"><ele>268.5</ele><time>2026-04-25T09:02:13.998Z</time></trkpt><trkpt lat="43.27318803888996" lon="12.384266786186847"><ele>268.0</ele><time>2026-04-25T09:02:14.998Z</time></trkpt><trkpt lat="43.27350011577913" lon="12.384172606084828"><ele>268.0</ele><time>2026-04-25T09:02:15.998Z</time></trkpt><trkpt lat="43.273799899685066" lon="12.384082926953335"><ele>268.0</ele><time>2026-04-25T09:02:16.998Z</time></trkpt><trkpt lat="43.27409230017553" lon="12.38400574835997"><ele>268.5</ele><time>2026-04-25T09:02:17.998Z</time></trkpt><trkpt lat="43.27439475129407" lon="12.383919529039831"><ele>269.0</ele><time>2026-04-25T09:02:18.998Z</time></trkpt><trkpt lat="43.274692176396535" lon="12.383835180424052"><ele>267.5</ele><time>2026-04-25T09:02:19.998Z</time></trkpt><trkpt lat="43.274996248367856" lon="12.383733625452473"><ele>266.0</ele><time>2026-04-25T09:02:20.998Z</time></trkpt><trkpt lat="43.27528543139896" lon="12.38367268780142"><ele>266.0</ele><time>2026-04-25T09:02:21.998Z</time></trkpt><trkpt lat="43.275589111624726" lon="12.38357429719559"><ele>266.0</ele><time>2026-04-25T09:02:22.998Z</time></trkpt><trkpt lat="43.275897140473134" lon="12.383504734556318"><ele>267.0</ele><time>2026-04-25T09:02:23.998Z</time></trkpt><trkpt lat="43.2762145825621" lon="12.383444725686557"><ele>268.0</ele><time>2026-04-25T09:02:24.998Z</time></trkpt><trkpt lat="43.27651786962467" lon="12.383366780258156"><ele>268.0</ele><time>2026-04-25T09:02:25.998Z</time></trkpt><trkpt lat="43.276827042748" lon="12.383284120522793"><ele>268.0</ele><time>2026-04-25T09:02:26.998Z</time></trkpt><trkpt lat="43.27713538734086" lon="12.383206624346654"><ele>265.5</ele><time>2026-04-25T09:02:27.998Z</time></trkpt><trkpt lat="43.27743752339209" lon="12.383126066309185"><ele>263.0</ele><time>2026-04-25T09:02:28.998Z</time></trkpt><trkpt lat="43.277736869912545" lon="12.383045055375936"><ele>261.0</ele><time>2026-04-25T09:02:29.998Z</time></trkpt><trkpt lat="43.278032262519396" lon="12.382960863267888"><ele>259.0</ele><time>2026-04-25T09:02:30.998Z</time></trkpt><trkpt lat="43.278322493086044" lon="12.382886265624203"><ele>259.0</ele><time>2026-04-25T09:02:31.998Z</time></trkpt><trkpt lat="43.2786364047603" lon="12.382808765497515"><ele>259.0</ele><time>2026-04-25T09:02:32.998Z</time></trkpt><trkpt lat="43.27893739850283" lon="12.38272386712998"><ele>260.5</ele><time>2026-04-25T09:02:33.998Z</time></trkpt><trkpt lat="43.27924785459404" lon="12.382617008965171"><ele>262.0</ele><time>2026-04-25T09:02:34.998Z</time></trkpt><trkpt lat="43.27954443049963" lon="12.382461452568718"><ele>263.5</ele><time>2026-04-25T09:02:35.998Z</time></trkpt><trkpt lat="43.27983947131126" lon="12.382305540316995"><ele>265.0</ele><time>2026-04-25T09:02:36.998Z</time></trkpt><trkpt lat="43.28013305637339" lon="12.382133834393251"><ele>265.5</ele><time>2026-04-25T09:02:38Z</time></trkpt><trkpt lat="43.28041784720993" lon="12.381940296080163"><ele>266.0</ele><time>2026-04-25T09:02:39Z</time></trkpt><trkpt lat="43.280698425552934" lon="12.381727257089079"><ele>266.0</ele><time>2026-04-25T09:02:40Z</time></trkpt><trkpt lat="43.28097271697892" lon="12.381493279477077"><ele>266.0</ele><time>2026-04-25T09:02:41Z</time></trkpt><trkpt lat="43.28123662272504" lon="12.38124475674442"><ele>265.0</ele><time>2026-04-25T09:02:42Z</time></trkpt><trkpt lat="43.2814926893871" lon="12.380976303761424"><ele>264.0</ele><time>2026-04-25T09:02:43Z</time></trkpt><trkpt lat="43.28173435936828" lon="12.380684723097414"><ele>260.5</ele><time>2026-04-25T09:02:44Z</time></trkpt><trkpt lat="43.28197095914938" lon="12.380380207360409"><ele>257.0</ele><time>2026-04-25T09:02:45Z</time></trkpt><trkpt lat="43.28220523142958" lon="12.380070796153165"><ele>256.5</ele><time>2026-04-25T09:02:46Z</time></trkpt><trkpt lat="43.28244099552556" lon="12.379760208594373"><ele>256.0</ele><time>2026-04-25T09:02:47Z</time></trkpt><trkpt lat="43.28268117537483" lon="12.379453184197052"><ele>256.0</ele><time>2026-04-25T09:02:48Z</time></trkpt><trkpt lat="43.28291795707804" lon="12.379142826248628"><ele>256.0</ele><time>2026-04-25T09:02:49Z</time></trkpt><trkpt lat="43.283145659936466" lon="12.378838817284933"><ele>255.0</ele><time>2026-04-25T09:02:50Z</time></trkpt><trkpt lat="43.28336125704258" lon="12.378550452741022"><ele>254.0</ele><time>2026-04-25T09:02:51Z</time></trkpt><trkpt lat="43.28356887579885" lon="12.378265699859865"><ele>254.0</ele><time>2026-04-25T09:02:52Z</time></trkpt><trkpt lat="43.28378285337388" lon="12.377977011364449"><ele>254.0</ele><time>2026-04-25T09:02:53Z</time></trkpt><trkpt lat="43.28399933455251" lon="12.377682962901648"><ele>254.0</ele><time>2026-04-25T09:02:54Z</time></trkpt><trkpt lat="43.284217219489555" lon="12.377387917687349"><ele>254.0</ele><time>2026-04-25T09:02:55Z</time></trkpt><trkpt lat="43.28443640577587" lon="12.377111175300252"><ele>252.5</ele><time>2026-04-25T09:02:56Z</time></trkpt><trkpt lat="43.28465706760256" lon="12.376807916055949"><ele>251.0</ele><time>2026-04-25T09:02:57Z</time></trkpt><trkpt lat="43.28487632468665" lon="12.376516674723046"><ele>249.5</ele><time>2026-04-25T09:02:58Z</time></trkpt><trkpt lat="43.28508923251973" lon="12.376230700409092"><ele>248.0</ele><time>2026-04-25T09:02:59Z</time></trkpt><trkpt lat="43.285295228712094" lon="12.375951701188079"><ele>248.0</ele><time>2026-04-25T09:03:00Z</time></trkpt><trkpt lat="43.28549630928783" lon="12.3756771972906"><ele>248.0</ele><time>2026-04-25T09:03:01Z</time></trkpt><trkpt lat="43.28569362288046" lon="12.375412281710727"><ele>249.0</ele><time>2026-04-25T09:03:02Z</time></trkpt><trkpt lat="43.28587768244522" lon="12.375158878567285"><ele>250.0</ele><time>2026-04-25T09:03:03Z</time></trkpt><trkpt lat="43.28605781647236" lon="12.374918777800723"><ele>250.0</ele><time>2026-04-25T09:03:04Z</time></trkpt><trkpt lat="43.2862307794074" lon="12.374690947585817"><ele>250.0</ele><time>2026-04-25T09:03:05Z</time></trkpt><trkpt lat="43.28640255143514" lon="12.374473743752048"><ele>249.66666666666666</ele><time>2026-04-25T09:03:06Z</time></trkpt><trkpt lat="43.28656887148082" lon="12.374270801468741"><ele>249.33333333333331</ele><time>2026-04-25T09:03:07Z</time></trkpt><trkpt lat="43.28672585748169" lon="12.374067454073657"><ele>249.0</ele><time>2026-04-25T09:03:08Z</time></trkpt><trkpt lat="43.286869710590544" lon="12.373875336479793"><ele>249.0</ele><time>2026-04-25T09:03:09Z</time></trkpt><trkpt lat="43.28700429686703" lon="12.373696788046802"><ele>249.0</ele><time>2026-04-25T09:03:09.999Z</time></trkpt><trkpt lat="43.28713287680711" lon="12.373531983281916"><ele>249.0</ele><time>2026-04-25T09:03:10.999Z</time></trkpt><trkpt lat="43.28726846021464" lon="12.373388530516124"><ele>248.33333333333331</ele><time>2026-04-25T09:03:11.999Z</time></trkpt><trkpt lat="43.28741930762604" lon="12.37328018712951"><ele>247.66666666666666</ele><time>2026-04-25T09:03:12.999Z</time></trkpt><trkpt lat="43.28758667227147" lon="12.373202937162151"><ele>247.0</ele><time>2026-04-25T09:03:13.999Z</time></trkpt><trkpt lat="43.28776208902317" lon="12.373169243395155"><ele>247.0</ele><time>2026-04-25T09:03:14.999Z</time></trkpt><trkpt lat="43.2879380908393" lon="12.373181230994799"><ele>247.0</ele><time>2026-04-25T09:03:15.999Z</time></trkpt><trkpt lat="43.288115074374176" lon="12.373235207581695"><ele>247.0</ele><time>2026-04-25T09:03:16.999Z</time></trkpt><trkpt lat="43.28827972723943" lon="12.373307627671984"><ele>245.66666666666666</ele><time>2026-04-25T09:03:17.999Z</time></trkpt><trkpt lat="43.28844167706113" lon="12.373357336481698"><ele>244.33333333333331</ele><time>2026-04-25T09:03:18.999Z</time></trkpt><trkpt lat="43.288602426554014" lon="12.373347499238768"><ele>243.0</ele><time>2026-04-25T09:03:19.999Z</time></trkpt><trkpt lat="43.2887530292962" lon="12.373289332263965"><ele>243.0</ele><time>2026-04-25T09:03:20.999Z</time></trkpt><trkpt lat="43.28888511004734" lon="12.37317774226444"><ele>243.0</ele><time>2026-04-25T09:03:21.999Z</time></trkpt><trkpt lat="43.28898985301001" lon="12.373028367172356"><ele>243.0</ele><time>2026-04-25T09:03:22.999Z</time></trkpt><trkpt lat="43.28906354708891" lon="12.372867535206362"><ele>243.0</ele><time>2026-04-25T09:03:23.999Z</time></trkpt><trkpt lat="43.2891229200499" lon="12.372714048793167"><ele>241.75</ele><time>2026-04-25T09:03:24.999Z</time></trkpt><trkpt lat="43.28920942624263" lon="12.37260577543665"><ele>240.5</ele><time>2026-04-25T09:03:25.999Z</time></trkpt><trkpt lat="43.289320670909085" lon="12.37254338402596"><ele>239.25</ele><time>2026-04-25T09:03:26.999Z</time></trkpt><trkpt lat="43.289448377451635" lon="12.37253013402727"><ele>238.0</ele><time>2026-04-25T09:03:27.999Z</time></trkpt><trkpt lat="43.28958328618175" lon="12.372567548186073"><ele>238.0</ele><time>2026-04-25T09:03:28.999Z</time></trkpt><trkpt lat="43.289713896043736" lon="12.372639894732803"><ele>238.0</ele><time>2026-04-25T09:03:29.999Z</time></trkpt><trkpt lat="43.2898556098997" lon="12.372710253431908"><ele>238.0</ele><time>2026-04-25T09:03:30.999Z</time></trkpt><trkpt lat="43.29001369309528" lon="12.372800315080582"><ele>238.33333333333331</ele><time>2026-04-25T09:03:31.999Z</time></trkpt><trkpt lat="43.290172291178145" lon="12.372929995630114"><ele>238.66666666666669</ele><time>2026-04-25T09:03:32.999Z</time></trkpt><trkpt lat="43.29034789476668" lon="12.37304614879074"><ele>239.0</ele><time>2026-04-25T09:03:33.999Z</time></trkpt><trkpt lat="43.29053378370738" lon="12.373167804627407"><ele>239.66666666666669</ele><time>2026-04-25T09:03:34.999Z</time></trkpt><trkpt lat="43.29073069393839" lon="12.373298105062766"><ele>240.33333333333331</ele><time>2026-04-25T09:03:35.999Z</time></trkpt><trkpt lat="43.2909360276025" lon="12.373426930056445"><ele>241.0</ele><time>2026-04-25T09:03:36.999Z</time></trkpt><trkpt lat="43.29114342999711" lon="12.373578565763586"><ele>241.0</ele><time>2026-04-25T09:03:37.999Z</time></trkpt><trkpt lat="43.29134940966695" lon="12.37374957932007"><ele>241.0</ele><time>2026-04-25T09:03:38.999Z</time></trkpt><trkpt lat="43.29155374214261" lon="12.37394476769461"><ele>240.5</ele><time>2026-04-25T09:03:39.999Z</time></trkpt><trkpt lat="43.29175436044457" lon="12.37415588572423"><ele>240.0</ele><time>2026-04-25T09:03:40.999Z</time></trkpt><trkpt lat="43.29195892869318" lon="12.374372851640587"><ele>240.0</ele><time>2026-04-25T09:03:41.999Z</time></trkpt><trkpt lat="43.29216742511876" lon="12.37459280075301"><ele>240.0</ele><time>2026-04-25T09:03:42.999Z</time></trkpt><trkpt lat="43.29237878775815" lon="12.374818163751756"><ele>239.0</ele><time>2026-04-25T09:03:43.999Z</time></trkpt><trkpt lat="43.29259036731084" lon="12.375043062972757"><ele>238.0</ele><time>2026-04-25T09:03:44.999Z</time></trkpt><trkpt lat="43.29280546448063" lon="12.37526970112034"><ele>238.0</ele><time>2026-04-25T09:03:45.999Z</time></trkpt><trkpt lat="43.293020299437124" lon="12.375503596996035"><ele>238.0</ele><time>2026-04-25T09:03:46.999Z</time></trkpt><trkpt lat="43.293234565459045" lon="12.375743704632116"><ele>239.5</ele><time>2026-04-25T09:03:47.999Z</time></trkpt><trkpt lat="43.29345082071" lon="12.375981589901373"><ele>241.0</ele><time>2026-04-25T09:03:48.999Z</time></trkpt><trkpt lat="43.29367172461409" lon="12.376212034891894"><ele>241.0</ele><time>2026-04-25T09:03:49.999Z</time></trkpt><trkpt lat="43.29389533395325" lon="12.376441497110907"><ele>241.0</ele><time>2026-04-25T09:03:50.999Z</time></trkpt><trkpt lat="43.29411892001038" lon="12.376673144946981"><ele>240.5</ele><time>2026-04-25T09:03:51.999Z</time></trkpt><trkpt lat="43.29434539411185" lon="12.376898769759205"><ele>240.0</ele><time>2026-04-25T09:03:52.999Z</time></trkpt><trkpt lat="43.29457574029765" lon="12.37711667412899"><ele>243.5</ele><time>2026-04-25T09:03:53.999Z</time></trkpt><trkpt lat="43.29480298986176" lon="12.377337694304124"><ele>247.0</ele><time>2026-04-25T09:03:54.999Z</time></trkpt><trkpt lat="43.29502300563001" lon="12.377564944143257"><ele>247.0</ele><time>2026-04-25T09:03:55.999Z</time></trkpt><trkpt lat="43.29524117993479" lon="12.377790600875313"><ele>247.0</ele><time>2026-04-25T09:03:56.999Z</time></trkpt><trkpt lat="43.29545662029176" lon="12.378020319410274"><ele>245.5</ele><time>2026-04-25T09:03:57.999Z</time></trkpt><trkpt lat="43.29567469985884" lon="12.378248075777918"><ele>244.0</ele><time>2026-04-25T09:03:58.999Z</time></trkpt><trkpt lat="43.295895144007126" lon="12.378477549978266"><ele>244.0</ele><time>2026-04-25T09:03:59.999Z</time></trkpt><trkpt lat="43.29611168096599" lon="12.378704908071176"><ele>244.0</ele><time>2026-04-25T09:04:00.999Z</time></trkpt><trkpt lat="43.29632538186958" lon="12.378933343698845"><ele>246.0</ele><time>2026-04-25T09:04:01.999Z</time></trkpt><trkpt lat="43.29653460076363" lon="12.379157669600461"><ele>248.0</ele><time>2026-04-25T09:04:02.999Z</time></trkpt><trkpt lat="43.296746495448225" lon="12.379369946579683"><ele>248.0</ele><time>2026-04-25T09:04:03.999Z</time></trkpt><trkpt lat="43.29696734074249" lon="12.379560147029064"><ele>248.0</ele><time>2026-04-25T09:04:04.999Z</time></trkpt><trkpt lat="43.29720479139538" lon="12.379704200188947"><ele>250.0</ele><time>2026-04-25T09:04:05.999Z</time></trkpt><trkpt lat="43.297458026889025" lon="12.379803104650144"><ele>252.0</ele><time>2026-04-25T09:04:06.999Z</time></trkpt><trkpt lat="43.29772198552722" lon="12.379862388135797"><ele>252.0</ele><time>2026-04-25T09:04:07.999Z</time></trkpt><trkpt lat="43.29799058693072" lon="12.379882760301145"><ele>252.0</ele><time>2026-04-25T09:04:08.999Z</time></trkpt><trkpt lat="43.298263808608226" lon="12.379878812368617"><ele>252.5</ele><time>2026-04-25T09:04:09.999Z</time></trkpt><trkpt lat="43.298537673289225" lon="12.379870576679275"><ele>253.0</ele><time>2026-04-25T09:04:10.999Z</time></trkpt><trkpt lat="43.29881607106111" lon="12.379877302060752"><ele>254.5</ele><time>2026-04-25T09:04:11.999Z</time></trkpt><trkpt lat="43.299091639722626" lon="12.379883999391504"><ele>256.0</ele><time>2026-04-25T09:04:12.999Z</time></trkpt><trkpt lat="43.29936736370926" lon="12.379888812950748"><ele>256.0</ele><time>2026-04-25T09:04:13.998Z</time></trkpt><trkpt lat="43.29964462170786" lon="12.379899484854578"><ele>256.0</ele><time>2026-04-25T09:04:14.998Z</time></trkpt><trkpt lat="43.29992088360502" lon="12.37991039732258"><ele>258.0</ele><time>2026-04-25T09:04:15.998Z</time></trkpt><trkpt lat="43.30019807028078" lon="12.37991919744059"><ele>260.0</ele><time>2026-04-25T09:04:16.998Z</time></trkpt><trkpt lat="43.30047478386859" lon="12.379923844959505"><ele>258.5</ele><time>2026-04-25T09:04:17.998Z</time></trkpt><trkpt lat="43.300755521232496" lon="12.379928638137816"><ele>257.0</ele><time>2026-04-25T09:04:18.998Z</time></trkpt><trkpt lat="43.30103629580259" lon="12.379939590436097"><ele>257.0</ele><time>2026-04-25T09:04:19.998Z</time></trkpt><trkpt lat="43.30131352705115" lon="12.379946001933776"><ele>257.0</ele><time>2026-04-25T09:04:20.998Z</time></trkpt><trkpt lat="43.30158988840869" lon="12.379950084466385"><ele>256.5</ele><time>2026-04-25T09:04:21.998Z</time></trkpt><trkpt lat="43.301857563287065" lon="12.37995321709973"><ele>256.0</ele><time>2026-04-25T09:04:22.998Z</time></trkpt><trkpt lat="43.302123438839885" lon="12.379968350606848"><ele>257.0</ele><time>2026-04-25T09:04:23.998Z</time></trkpt><trkpt lat="43.3023937384734" lon="12.37997956518257"><ele>258.0</ele><time>2026-04-25T09:04:24.998Z</time></trkpt><trkpt lat="43.30266197749803" lon="12.379987242245816"><ele>258.0</ele><time>2026-04-25T09:04:25.998Z</time></trkpt><trkpt lat="43.30293215570442" lon="12.379996067518872"><ele>258.0</ele><time>2026-04-25T09:04:26.998Z</time></trkpt><trkpt lat="43.30320366845199" lon="12.38000156216083"><ele>259.0</ele><time>2026-04-25T09:04:27.998Z</time></trkpt><trkpt lat="43.30347578760922" lon="12.380010174821859"><ele>260.0</ele><time>2026-04-25T09:04:28.998Z</time></trkpt><trkpt lat="43.303747953635344" lon="12.380019644480662"><ele>259.0</ele><time>2026-04-25T09:04:29.998Z</time></trkpt><trkpt lat="43.30401659208004" lon="12.38002157211378"><ele>258.0</ele><time>2026-04-25T09:04:30.998Z</time></trkpt><trkpt lat="43.30428554222697" lon="12.380029749377055"><ele>258.0</ele><time>2026-04-25T09:04:31.998Z</time></trkpt><trkpt lat="43.304554018750565" lon="12.38003890137455"><ele>258.0</ele><time>2026-04-25T09:04:32.998Z</time></trkpt><trkpt lat="43.304820112339755" lon="12.380049683771512"><ele>257.5</ele><time>2026-04-25T09:04:33.998Z</time></trkpt><trkpt lat="43.3050722061296" lon="12.380066632247154"><ele>257.0</ele><time>2026-04-25T09:04:34.998Z</time></trkpt><trkpt lat="43.30531299128249" lon="12.380134064089875"><ele>257.0</ele><time>2026-04-25T09:04:35.998Z</time></trkpt><trkpt lat="43.3055432446319" lon="12.38025165144466"><ele>257.0</ele><time>2026-04-25T09:04:36.998Z</time></trkpt><trkpt lat="43.30576661851747" lon="12.38040996369911"><ele>260.0</ele><time>2026-04-25T09:04:37.998Z</time></trkpt><trkpt lat="43.30598940407548" lon="12.380595362387012"><ele>263.0</ele><time>2026-04-25T09:04:38.998Z</time></trkpt><trkpt lat="43.30620213599609" lon="12.38079375607325"><ele>259.5</ele><time>2026-04-25T09:04:39.998Z</time></trkpt><trkpt lat="43.30642381085144" lon="12.380987357722073"><ele>256.0</ele><time>2026-04-25T09:04:40.998Z</time></trkpt><trkpt lat="43.30664957683277" lon="12.381174446578056"><ele>258.5</ele><time>2026-04-25T09:04:41.998Z</time></trkpt><trkpt lat="43.3068815130779" lon="12.381361414759528"><ele>261.0</ele><time>2026-04-25T09:04:43Z</time></trkpt><trkpt lat="43.307109617460874" lon="12.381555191307713"><ele>259.0</ele><time>2026-04-25T09:04:44Z</time></trkpt><trkpt lat="43.307334063766596" lon="12.38174822166098"><ele>257.0</ele><time>2026-04-25T09:04:45Z</time></trkpt><trkpt lat="43.30755454511129" lon="12.38194002212142"><ele>257.0</ele><time>2026-04-25T09:04:46Z</time></trkpt><trkpt lat="43.30777839060287" lon="12.382111243022983"><ele>257.0</ele><time>2026-04-25T09:04:47Z</time></trkpt><trkpt lat="43.30801466275476" lon="12.38223789521641"><ele>263.5</ele><time>2026-04-25T09:04:48Z</time></trkpt><trkpt lat="43.308262567842796" lon="12.38232458453343"><ele>270.0</ele><time>2026-04-25T09:04:49Z</time></trkpt><trkpt lat="43.30852125196846" lon="12.382363199064624"><ele>270.0</ele><time>2026-04-25T09:04:50Z</time></trkpt><trkpt lat="43.30878509660873" lon="12.382364075256607"><ele>270.0</ele><time>2026-04-25T09:04:51Z</time></trkpt><trkpt lat="43.3090522549038" lon="12.382359549510776"><ele>267.5</ele><time>2026-04-25T09:04:52Z</time></trkpt><trkpt lat="43.309321396066636" lon="12.382365565825262"><ele>265.0</ele><time>2026-04-25T09:04:53Z</time></trkpt><trkpt lat="43.30959140301812" lon="12.38237306311109"><ele>266.0</ele><time>2026-04-25T09:04:54Z</time></trkpt><trkpt lat="43.30985866492133" lon="12.382378668067686"><ele>267.0</ele><time>2026-04-25T09:04:55Z</time></trkpt><trkpt lat="43.31013164380236" lon="12.38239276524607"><ele>267.0</ele><time>2026-04-25T09:04:56Z</time></trkpt><trkpt lat="43.31040500350751" lon="12.382403721768503"><ele>267.0</ele><time>2026-04-25T09:04:57Z</time></trkpt><trkpt lat="43.31067864918603" lon="12.382413583078565"><ele>267.5</ele><time>2026-04-25T09:04:58Z</time></trkpt><trkpt lat="43.31095013487532" lon="12.382424754192513"><ele>268.0</ele><time>2026-04-25T09:04:59Z</time></trkpt><trkpt lat="43.311221634373545" lon="12.382433972419282"><ele>267.5</ele><time>2026-04-25T09:05:00Z</time></trkpt><trkpt lat="43.311494952332666" lon="12.382442760980947"><ele>267.0</ele><time>2026-04-25T09:05:01Z</time></trkpt><trkpt lat="43.311764359019655" lon="12.382456370286349"><ele>267.0</ele><time>2026-04-25T09:05:02Z</time></trkpt><trkpt lat="43.31202953589814" lon="12.382463893941074"><ele>267.0</ele><time>2026-04-25T09:05:03Z</time></trkpt><trkpt lat="43.31228965582309" lon="12.382468203926585"><ele>266.0</ele><time>2026-04-25T09:05:04Z</time></trkpt><trkpt lat="43.31253288183914" lon="12.382478466819954"><ele>265.0</ele><time>2026-04-25T09:05:05Z</time></trkpt><trkpt lat="43.312754918894186" lon="12.382488649888767"><ele>265.0</ele><time>2026-04-25T09:05:06Z</time></trkpt><trkpt lat="43.31295922199494" lon="12.38249513472538"><ele>265.0</ele><time>2026-04-25T09:05:07Z</time></trkpt><trkpt lat="43.31315291524746" lon="12.382499666827787"><ele>265.0</ele><time>2026-04-25T09:05:08Z</time></trkpt><trkpt lat="43.313337497359306" lon="12.382523109894748"><ele>265.3333333333333</ele><time>2026-04-25T09:05:09Z</time></trkpt><trkpt lat="43.31352140930535" lon="12.382583117147732"><ele>265.6666666666667</ele><time>2026-04-25T09:05:09.999Z</time></trkpt><trkpt lat="43.313708375327664" lon="12.382681385192608"><ele>266.0</ele><time>2026-04-25T09:05:10.999Z</time></trkpt><trkpt lat="43.313890028420914" lon="12.382812397770412"><ele>265.6666666666667</ele><time>2026-04-25T09:05:11.999Z</time></trkpt><trkpt lat="43.31406373367853" lon="12.38298789907977"><ele>265.3333333333333</ele><time>2026-04-25T09:05:12.999Z</time></trkpt><trkpt lat="43.314221691442114" lon="12.383208477321455"><ele>265.0</ele><time>2026-04-25T09:05:13.999Z</time></trkpt><trkpt lat="43.314356516655714" lon="12.383461682801242"><ele>267.0</ele><time>2026-04-25T09:05:14.999Z</time></trkpt><trkpt lat="43.314492557560335" lon="12.383723015657822"><ele>269.0</ele><time>2026-04-25T09:05:15.999Z</time></trkpt><trkpt lat="43.31463192903302" lon="12.383966542443485"><ele>271.33333333333337</ele><time>2026-04-25T09:05:16.999Z</time></trkpt><trkpt lat="43.31476380998857" lon="12.384186808983708"><ele>273.6666666666667</ele><time>2026-04-25T09:05:17.999Z</time></trkpt><trkpt lat="43.31490090623299" lon="12.384374775411802"><ele>276.0</ele><time>2026-04-25T09:05:18.999Z</time></trkpt><trkpt lat="43.31505512383339" lon="12.384511635628213"><ele>276.0</ele><time>2026-04-25T09:05:19.999Z</time></trkpt><trkpt lat="43.315230721302896" lon="12.384579897621274"><ele>276.0</ele><time>2026-04-25T09:05:20.999Z</time></trkpt><trkpt lat="43.31542171208874" lon="12.38455874228773"><ele>276.0</ele><time>2026-04-25T09:05:21.999Z</time></trkpt><trkpt lat="43.31562041458634" lon="12.384497141088483"><ele>276.6666666666667</ele><time>2026-04-25T09:05:22.999Z</time></trkpt><trkpt lat="43.315823140932345" lon="12.38442029533599"><ele>277.33333333333337</ele><time>2026-04-25T09:05:23.999Z</time></trkpt><trkpt lat="43.316034049866545" lon="12.384357196047983"><ele>278.0</ele><time>2026-04-25T09:05:24.999Z</time></trkpt><trkpt lat="43.31625164857767" lon="12.384303710879117"><ele>278.5</ele><time>2026-04-25T09:05:25.999Z</time></trkpt><trkpt lat="43.31647527772488" lon="12.384249647099283"><ele>279.0</ele><time>2026-04-25T09:05:26.999Z</time></trkpt><trkpt lat="43.316694262682034" lon="12.38419581974387"><ele>279.0</ele><time>2026-04-25T09:05:27.999Z</time></trkpt><trkpt lat="43.316903058562076" lon="12.384168060834906"><ele>279.0</ele><time>2026-04-25T09:05:28.999Z</time></trkpt><trkpt lat="43.317106848833504" lon="12.384199512542123"><ele>279.0</ele><time>2026-04-25T09:05:29.999Z</time></trkpt><trkpt lat="43.31729068675188" lon="12.38433875956303"><ele>279.6666666666667</ele><time>2026-04-25T09:05:30.999Z</time></trkpt><trkpt lat="43.31747660066649" lon="12.384498831190978"><ele>280.33333333333337</ele><time>2026-04-25T09:05:31.999Z</time></trkpt><trkpt lat="43.31766763573888" lon="12.38465919301361"><ele>281.0</ele><time>2026-04-25T09:05:32.999Z</time></trkpt><trkpt lat="43.31785159583984" lon="12.384845023854808"><ele>282.5</ele><time>2026-04-25T09:05:33.999Z</time></trkpt><trkpt lat="43.3180455037056" lon="12.38501901438091"><ele>284.0</ele><time>2026-04-25T09:05:34.999Z</time></trkpt><trkpt lat="43.31824205786615" lon="12.385196764150294"><ele>284.0</ele><time>2026-04-25T09:05:35.999Z</time></trkpt><trkpt lat="43.31843367824529" lon="12.385377302114527"><ele>284.0</ele><time>2026-04-25T09:05:36.999Z</time></trkpt><trkpt lat="43.3186187641437" lon="12.385538418741241"><ele>287.33333333333337</ele><time>2026-04-25T09:05:37.999Z</time></trkpt><trkpt lat="43.318811373627604" lon="12.385665612706596"><ele>290.6666666666667</ele><time>2026-04-25T09:05:38.999Z</time></trkpt><trkpt lat="43.319026948057534" lon="12.385742954893932"><ele>294.0</ele><time>2026-04-25T09:05:39.999Z</time></trkpt><trkpt lat="43.31925430995521" lon="12.38577426013698"><ele>294.0</ele><time>2026-04-25T09:05:40.999Z</time></trkpt><trkpt lat="43.31948837325734" lon="12.385764048082416"><ele>294.0</ele><time>2026-04-25T09:05:41.999Z</time></trkpt><trkpt lat="43.31972253700967" lon="12.38571292572061"><ele>295.5</ele><time>2026-04-25T09:05:42.999Z</time></trkpt><trkpt lat="43.3199569852064" lon="12.385639830901638"><ele>297.0</ele><time>2026-04-25T09:05:43.999Z</time></trkpt><trkpt lat="43.32019423453984" lon="12.38557561945772"><ele>297.0</ele><time>2026-04-25T09:05:44.999Z</time></trkpt><trkpt lat="43.32043360526488" lon="12.385514490526662"><ele>297.0</ele><time>2026-04-25T09:05:45.999Z</time></trkpt><trkpt lat="43.320674232399945" lon="12.385448184086206"><ele>292.5</ele><time>2026-04-25T09:05:46.999Z</time></trkpt><trkpt lat="43.32089660410015" lon="12.385398088240326"><ele>288.0</ele><time>2026-04-25T09:05:47.999Z</time></trkpt><trkpt lat="43.3211193832639" lon="12.385361294592723"><ele>288.0</ele><time>2026-04-25T09:05:48.999Z</time></trkpt><trkpt lat="43.321343774318365" lon="12.385374936819616"><ele>288.0</ele><time>2026-04-25T09:05:49.999Z</time></trkpt><trkpt lat="43.32155416262063" lon="12.385476524507027"><ele>288.0</ele><time>2026-04-25T09:05:50.999Z</time></trkpt><trkpt lat="43.32176306886919" lon="12.38560699610102"><ele>292.5</ele><time>2026-04-25T09:05:51.999Z</time></trkpt><trkpt lat="43.32198098661519" lon="12.385751471592862"><ele>297.0</ele><time>2026-04-25T09:05:52.999Z</time></trkpt><trkpt lat="43.32219658282458" lon="12.38591951772465"><ele>293.5</ele><time>2026-04-25T09:05:53.999Z</time></trkpt><trkpt lat="43.32241397083425" lon="12.386072732604035"><ele>290.0</ele><time>2026-04-25T09:05:54.999Z</time></trkpt><trkpt lat="43.322618426922816" lon="12.386216411134994"><ele>289.33333333333337</ele><time>2026-04-25T09:05:55.999Z</time></trkpt><trkpt lat="43.322809315470856" lon="12.386362006307698"><ele>288.6666666666667</ele><time>2026-04-25T09:05:56.999Z</time></trkpt><trkpt lat="43.32297425099101" lon="12.38655127147478"><ele>288.0</ele><time>2026-04-25T09:05:57.999Z</time></trkpt><trkpt lat="43.323121946691415" lon="12.386749413165813"><ele>288.0</ele><time>2026-04-25T09:05:58.999Z</time></trkpt><trkpt lat="43.32322893846502" lon="12.386972937213047"><ele>288.0</ele><time>2026-04-25T09:05:59.999Z</time></trkpt><trkpt lat="43.323278189157016" lon="12.387235214615055"><ele>288.0</ele><time>2026-04-25T09:06:00.999Z</time></trkpt><trkpt lat="43.32328721635478" lon="12.38751684979056"><ele>287.5</ele><time>2026-04-25T09:06:01.999Z</time></trkpt><trkpt lat="43.323245628584694" lon="12.387817566953785"><ele>287.0</ele><time>2026-04-25T09:06:02.999Z</time></trkpt><trkpt lat="43.32319595031991" lon="12.388131043125359"><ele>286.6666666666667</ele><time>2026-04-25T09:06:03.999Z</time></trkpt><trkpt lat="43.32316009959116" lon="12.388422381936056"><ele>286.3333333333333</ele><time>2026-04-25T09:06:04.999Z</time></trkpt><trkpt lat="43.323111460238835" lon="12.3886769876992"><ele>286.0</ele><time>2026-04-25T09:06:05.999Z</time></trkpt><trkpt lat="43.32308704271955" lon="12.388908241323193"><ele>285.3333333333333</ele><time>2026-04-25T09:06:06.999Z</time></trkpt><trkpt lat="43.32308653949616" lon="12.389139591050187"><ele>284.6666666666667</ele><time>2026-04-25T09:06:07.999Z</time></trkpt><trkpt lat="43.32312365254215" lon="12.389397516607554"><ele>284.0</ele><time>2026-04-25T09:06:08.999Z</time></trkpt><trkpt lat="43.32320186129345" lon="12.38964721202633"><ele>285.0</ele><time>2026-04-25T09:06:09.999Z</time></trkpt><trkpt lat="43.32328374502618" lon="12.389869878400038"><ele>286.0</ele><time>2026-04-25T09:06:10.999Z</time></trkpt><trkpt lat="43.3233492224721" lon="12.390078222597413"><ele>287.0</ele><time>2026-04-25T09:06:11.999Z</time></trkpt><trkpt lat="43.32341428639374" lon="12.39026234298168"><ele>287.0</ele><time>2026-04-25T09:06:12.999Z</time></trkpt><trkpt lat="43.32350399737711" lon="12.390422441543915"><ele>287.0</ele><time>2026-04-25T09:06:13.998Z</time></trkpt><trkpt lat="43.32363542677182" lon="12.3905357042175"><ele>287.0</ele><time>2026-04-25T09:06:14.998Z</time></trkpt><trkpt lat="43.32379695187781" lon="12.390581373971434"><ele>283.6666666666667</ele><time>2026-04-25T09:06:15.998Z</time></trkpt><trkpt lat="43.32396192173545" lon="12.390570069581505"><ele>280.3333333333333</ele><time>2026-04-25T09:06:16.998Z</time></trkpt><trkpt lat="43.32410281556329" lon="12.390625775511209"><ele>277.0</ele><time>2026-04-25T09:06:17.998Z</time></trkpt><trkpt lat="43.324280687450994" lon="12.390488205452089"><ele>277.0</ele><time>2026-04-25T09:06:18.998Z</time></trkpt><trkpt lat="43.32444998747088" lon="12.390482005768403"><ele>277.0</ele><time>2026-04-25T09:06:19.998Z</time></trkpt><trkpt lat="43.32462645730363" lon="12.390488922508526"><ele>277.0</ele><time>2026-04-25T09:06:20.998Z</time></trkpt><trkpt lat="43.32481371450012" lon="12.390531154505618"><ele>276.66666666666663</ele><time>2026-04-25T09:06:21.998Z</time></trkpt><trkpt lat="43.32500493727088" lon="12.390610954326629"><ele>276.3333333333333</ele><time>2026-04-25T09:06:22.998Z</time></trkpt><trkpt lat="43.32519084184303" lon="12.39071851635402"><ele>276.0</ele><time>2026-04-25T09:06:23.998Z</time></trkpt><trkpt lat="43.32535479614647" lon="12.39081818000893"><ele>276.0</ele><time>2026-04-25T09:06:24.998Z</time></trkpt><trkpt lat="43.32550665293416" lon="12.390906529757974"><ele>276.0</ele><time>2026-04-25T09:06:25.998Z</time></trkpt><trkpt lat="43.32565416521342" lon="12.390986534589205"><ele>276.0</ele><time>2026-04-25T09:06:26.998Z</time></trkpt><trkpt lat="43.32580439217765" lon="12.39107431635956"><ele>277.6666666666667</ele><time>2026-04-25T09:06:27.998Z</time></trkpt><trkpt lat="43.325953158228714" lon="12.391169373552106"><ele>279.33333333333337</ele><time>2026-04-25T09:06:28.998Z</time></trkpt><trkpt lat="43.326082466939134" lon="12.391301004565808"><ele>281.0</ele><time>2026-04-25T09:06:29.998Z</time></trkpt><trkpt lat="43.32618753420611" lon="12.39148258813217"><ele>281.33333333333337</ele><time>2026-04-25T09:06:30.998Z</time></trkpt><trkpt lat="43.326246644252144" lon="12.391710353468325"><ele>281.6666666666667</ele><time>2026-04-25T09:06:31.998Z</time></trkpt><trkpt lat="43.32625381285166" lon="12.391970281602763"><ele>282.0</ele><time>2026-04-25T09:06:32.998Z</time></trkpt><trkpt lat="43.32622733588361" lon="12.392245812365939"><ele>282.0</ele><time>2026-04-25T09:06:33.998Z</time></trkpt><trkpt lat="43.32619234301471" lon="12.39253291129701"><ele>282.0</ele><time>2026-04-25T09:06:34.998Z</time></trkpt><trkpt lat="43.3261742425042" lon="12.392827279173048"><ele>282.0</ele><time>2026-04-25T09:06:35.998Z</time></trkpt><trkpt lat="43.32616168060895" lon="12.393145209432495"><ele>282.5</ele><time>2026-04-25T09:06:36.998Z</time></trkpt><trkpt lat="43.32613775059954" lon="12.39346820676897"><ele>283.0</ele><time>2026-04-25T09:06:37.998Z</time></trkpt><trkpt lat="43.32610733211927" lon="12.393805366517363"><ele>283.0</ele><time>2026-04-25T09:06:38.998Z</time></trkpt><trkpt lat="43.32607818907195" lon="12.394146757398627"><ele>283.0</ele><time>2026-04-25T09:06:39.998Z</time></trkpt><trkpt lat="43.3260459852335" lon="12.394499689916293"><ele>282.5</ele><time>2026-04-25T09:06:40.998Z</time></trkpt><trkpt lat="43.32601057412858" lon="12.394863974670493"><ele>282.0</ele><time>2026-04-25T09:06:41.998Z</time></trkpt><trkpt lat="43.325973209463996" lon="12.395227932942463"><ele>282.0</ele><time>2026-04-25T09:06:42.998Z</time></trkpt><trkpt lat="43.32594098364172" lon="12.395599438621186"><ele>282.0</ele><time>2026-04-25T09:06:43.998Z</time></trkpt><trkpt lat="43.32591323655884" lon="12.395978378793808"><ele>281.5</ele><time>2026-04-25T09:06:44.998Z</time></trkpt><trkpt lat="43.32588207011457" lon="12.396360218295957"><ele>281.0</ele><time>2026-04-25T09:06:45.998Z</time></trkpt><trkpt lat="43.32584730206568" lon="12.39674588781116"><ele>281.0</ele><time>2026-04-25T09:06:46.998Z</time></trkpt><trkpt lat="43.32581400093952" lon="12.397135675337797"><ele>281.0</ele><time>2026-04-25T09:06:47.998Z</time></trkpt><trkpt lat="43.32578107483344" lon="12.397527427641315"><ele>282.0</ele><time>2026-04-25T09:06:49Z</time></trkpt><trkpt lat="43.32574823498818" lon="12.397918434564941"><ele>283.0</ele><time>2026-04-25T09:06:50Z</time></trkpt><trkpt lat="43.32571558251832" lon="12.398296888679088"><ele>283.5</ele><time>2026-04-25T09:06:51Z</time></trkpt><trkpt lat="43.325685898664936" lon="12.398651355275438"><ele>284.0</ele><time>2026-04-25T09:06:52Z</time></trkpt><trkpt lat="43.32565667417939" lon="12.398983669408178"><ele>286.0</ele><time>2026-04-25T09:06:53Z</time></trkpt><trkpt lat="43.32564779083529" lon="12.399312418000873"><ele>288.0</ele><time>2026-04-25T09:06:54Z</time></trkpt><trkpt lat="43.32566816422404" lon="12.399653774197782"><ele>288.0</ele><time>2026-04-25T09:06:55Z</time></trkpt><trkpt lat="43.32571283422605" lon="12.400011716264592"><ele>288.0</ele><time>2026-04-25T09:06:56Z</time></trkpt><trkpt lat="43.32576422523205" lon="12.400358051123957"><ele>289.5</ele><time>2026-04-25T09:06:57Z</time></trkpt><trkpt lat="43.325813955175214" lon="12.400694792165611"><ele>291.0</ele><time>2026-04-25T09:06:58Z</time></trkpt><trkpt lat="43.32586300632145" lon="12.401010824359322"><ele>291.0</ele><time>2026-04-25T09:06:59Z</time></trkpt><trkpt lat="43.32594242717405" lon="12.401304254997356"><ele>291.0</ele><time>2026-04-25T09:07:00Z</time></trkpt><trkpt lat="43.32606952196639" lon="12.401581698193104"><ele>292.0</ele><time>2026-04-25T09:07:01Z</time></trkpt><trkpt lat="43.32623317194015" lon="12.401816804000497"><ele>293.0</ele><time>2026-04-25T09:07:02Z</time></trkpt><trkpt lat="43.32643429192872" lon="12.402013764998205"><ele>293.5</ele><time>2026-04-25T09:07:03Z</time></trkpt><trkpt lat="43.32663443849997" lon="12.402216940090897"><ele>294.0</ele><time>2026-04-25T09:07:04Z</time></trkpt><trkpt lat="43.32683708148472" lon="12.402413993202583"><ele>294.0</ele><time>2026-04-25T09:07:05Z</time></trkpt><trkpt lat="43.327054812579156" lon="12.402585550451107"><ele>294.0</ele><time>2026-04-25T09:07:06Z</time></trkpt><trkpt lat="43.32728611770607" lon="12.40272814235218"><ele>298.0</ele><time>2026-04-25T09:07:07Z</time></trkpt><trkpt lat="43.3275332236531" lon="12.402833230160072"><ele>302.0</ele><time>2026-04-25T09:07:08Z</time></trkpt><trkpt lat="43.327782952434646" lon="12.402911332855744"><ele>298.5</ele><time>2026-04-25T09:07:09Z</time></trkpt><trkpt lat="43.32801087921173" lon="12.403011857375061"><ele>295.0</ele><time>2026-04-25T09:07:10Z</time></trkpt><trkpt lat="43.32822286279166" lon="12.40313675778575"><ele>295.0</ele><time>2026-04-25T09:07:11Z</time></trkpt><trkpt lat="43.32843021015412" lon="12.403303928844577"><ele>295.0</ele><time>2026-04-25T09:07:12Z</time></trkpt><trkpt lat="43.32861564307123" lon="12.40352978392942"><ele>295.0</ele><time>2026-04-25T09:07:13Z</time></trkpt><trkpt lat="43.328795451656696" lon="12.403779510350818"><ele>295.0</ele><time>2026-04-25T09:07:14Z</time></trkpt><trkpt lat="43.32893628368422" lon="12.404053657471763"><ele>296.5</ele><time>2026-04-25T09:07:15Z</time></trkpt><trkpt lat="43.32903846262323" lon="12.404340529460875"><ele>298.0</ele><time>2026-04-25T09:07:15.999Z</time></trkpt><trkpt lat="43.32910461677201" lon="12.404658962957091"><ele>298.0</ele><time>2026-04-25T09:07:16.999Z</time></trkpt><trkpt lat="43.32913511799469" lon="12.404999066212685"><ele>298.0</ele><time>2026-04-25T09:07:17.999Z</time></trkpt><trkpt lat="43.329182359039265" lon="12.405330033228951"><ele>296.5</ele><time>2026-04-25T09:07:18.999Z</time></trkpt><trkpt lat="43.32925250036758" lon="12.405634204091712"><ele>295.0</ele><time>2026-04-25T09:07:19.999Z</time></trkpt><trkpt lat="43.32935121074955" lon="12.40591609998238"><ele>295.0</ele><time>2026-04-25T09:07:20.999Z</time></trkpt><trkpt lat="43.329483108921046" lon="12.406175562463433"><ele>295.0</ele><time>2026-04-25T09:07:21.999Z</time></trkpt><trkpt lat="43.329646698577406" lon="12.406401792288912"><ele>297.5</ele><time>2026-04-25T09:07:22.999Z</time></trkpt><trkpt lat="43.32984018086426" lon="12.406586165042398"><ele>300.0</ele><time>2026-04-25T09:07:23.999Z</time></trkpt><trkpt lat="43.330064782280964" lon="12.406729204832954"><ele>300.0</ele><time>2026-04-25T09:07:24.999Z</time></trkpt><trkpt lat="43.3302904271966" lon="12.406885931383949"><ele>300.0</ele><time>2026-04-25T09:07:25.999Z</time></trkpt><trkpt lat="43.33049968882807" lon="12.407079204199817"><ele>300.0</ele><time>2026-04-25T09:07:26.999Z</time></trkpt><trkpt lat="43.33070785028111" lon="12.407282005260468"><ele>300.0</ele><time>2026-04-25T09:07:27.999Z</time></trkpt><trkpt lat="43.33093148138389" lon="12.407461483471852"><ele>300.0</ele><time>2026-04-25T09:07:28.999Z</time></trkpt><trkpt lat="43.33115323666645" lon="12.407636826195136"><ele>300.0</ele><time>2026-04-25T09:07:29.999Z</time></trkpt><trkpt lat="43.331359952060204" lon="12.407823565101804"><ele>302.0</ele><time>2026-04-25T09:07:30.999Z</time></trkpt><trkpt lat="43.33154196626272" lon="12.408063824212334"><ele>304.0</ele><time>2026-04-25T09:07:31.999Z</time></trkpt><trkpt lat="43.33171268027616" lon="12.408331723114397"><ele>304.0</ele><time>2026-04-25T09:07:32.999Z</time></trkpt><trkpt lat="43.33189137826123" lon="12.408594356883238"><ele>304.0</ele><time>2026-04-25T09:07:33.999Z</time></trkpt><trkpt lat="43.332075755875664" lon="12.408857479801592"><ele>309.5</ele><time>2026-04-25T09:07:34.999Z</time></trkpt><trkpt lat="43.33225761686971" lon="12.40912068881045"><ele>315.0</ele><time>2026-04-25T09:07:35.999Z</time></trkpt><trkpt lat="43.33244138833407" lon="12.409384602394859"><ele>315.0</ele><time>2026-04-25T09:07:36.999Z</time></trkpt><trkpt lat="43.33262992417188" lon="12.409643099950173"><ele>315.0</ele><time>2026-04-25T09:07:37.999Z</time></trkpt><trkpt lat="43.33283006352811" lon="12.409878346773752"><ele>309.5</ele><time>2026-04-25T09:07:38.999Z</time></trkpt><trkpt lat="43.33303417306677" lon="12.410102403106407"><ele>304.0</ele><time>2026-04-25T09:07:39.999Z</time></trkpt><trkpt lat="43.33323667253853" lon="12.410324145242507"><ele>306.0</ele><time>2026-04-25T09:07:40.999Z</time></trkpt><trkpt lat="43.33343743743128" lon="12.410546266154574"><ele>308.0</ele><time>2026-04-25T09:07:41.999Z</time></trkpt><trkpt lat="43.33362653490483" lon="12.410779370224004"><ele>308.0</ele><time>2026-04-25T09:07:42.999Z</time></trkpt><trkpt lat="43.33379788031266" lon="12.411039990108263"><ele>308.0</ele><time>2026-04-25T09:07:43.999Z</time></trkpt><trkpt lat="43.33395911960843" lon="12.411326768549623"><ele>311.5</ele><time>2026-04-25T09:07:44.999Z</time></trkpt><trkpt lat="43.33411046314236" lon="12.41162585646724"><ele>315.0</ele><time>2026-04-25T09:07:45.999Z</time></trkpt><trkpt lat="43.3342570679153" lon="12.411930067160462"><ele>310.5</ele><time>2026-04-25T09:07:46.999Z</time></trkpt><trkpt lat="43.33439994285189" lon="12.412232292761665"><ele>306.0</ele><time>2026-04-25T09:07:47.999Z</time></trkpt><trkpt lat="43.33453487645567" lon="12.41252647212764"><ele>306.0</ele><time>2026-04-25T09:07:48.999Z</time></trkpt><trkpt lat="43.33466268236807" lon="12.412782793589878"><ele>306.0</ele><time>2026-04-25T09:07:49.999Z</time></trkpt><trkpt lat="43.334790742262214" lon="12.413032558040998"><ele>306.0</ele><time>2026-04-25T09:07:50.999Z</time></trkpt><trkpt lat="43.334952381814794" lon="12.4132267923857"><ele>307.6666666666667</ele><time>2026-04-25T09:07:51.999Z</time></trkpt><trkpt lat="43.3351405043882" lon="12.413382566776553"><ele>309.33333333333337</ele><time>2026-04-25T09:07:52.999Z</time></trkpt><trkpt lat="43.33535650233883" lon="12.413478420781516"><ele>311.0</ele><time>2026-04-25T09:07:53.999Z</time></trkpt><trkpt lat="43.335577681043304" lon="12.41351825276243"><ele>309.6666666666667</ele><time>2026-04-25T09:07:54.999Z</time></trkpt><trkpt lat="43.335795598601194" lon="12.413580108740593"><ele>308.3333333333333</ele><time>2026-04-25T09:07:55.999Z</time></trkpt><trkpt lat="43.33600316120331" lon="12.413704481657053"><ele>307.0</ele><time>2026-04-25T09:07:56.999Z</time></trkpt><trkpt lat="43.33620229323598" lon="12.413874210693377"><ele>307.0</ele><time>2026-04-25T09:07:57.999Z</time></trkpt><trkpt lat="43.336384851559984" lon="12.414083460220008"><ele>307.0</ele><time>2026-04-25T09:07:58.999Z</time></trkpt><trkpt lat="43.33655782240353" lon="12.414316012379638"><ele>308.0</ele><time>2026-04-25T09:07:59.999Z</time></trkpt><trkpt lat="43.33673089814038" lon="12.41455308806227"><ele>309.0</ele><time>2026-04-25T09:08:00.999Z</time></trkpt><trkpt lat="43.33690823204511" lon="12.414794837260667"><ele>309.0</ele><time>2026-04-25T09:08:01.999Z</time></trkpt><trkpt lat="43.33708319536764" lon="12.415039126762583"><ele>309.0</ele><time>2026-04-25T09:08:02.999Z</time></trkpt><trkpt lat="43.337255983333904" lon="12.415282869661866"><ele>311.5</ele><time>2026-04-25T09:08:03.999Z</time></trkpt><trkpt lat="43.33742760244263" lon="12.415519708764723"><ele>314.0</ele><time>2026-04-25T09:08:04.999Z</time></trkpt><trkpt lat="43.33758794287303" lon="12.415766473100538"><ele>314.0</ele><time>2026-04-25T09:08:05.999Z</time></trkpt><trkpt lat="43.33772133085993" lon="12.416035590430088"><ele>314.0</ele><time>2026-04-25T09:08:06.999Z</time></trkpt><trkpt lat="43.33782553298939" lon="12.41634481759665"><ele>310.5</ele><time>2026-04-25T09:08:07.999Z</time></trkpt><trkpt lat="43.33790728801812" lon="12.416658012510773"><ele>307.0</ele><time>2026-04-25T09:08:08.999Z</time></trkpt><trkpt lat="43.33799497017645" lon="12.41696260933939"><ele>313.0</ele><time>2026-04-25T09:08:09.999Z</time></trkpt><trkpt lat="43.33811704476358" lon="12.417242528893523"><ele>319.0</ele><time>2026-04-25T09:08:10.999Z</time></trkpt><trkpt lat="43.33826747749275" lon="12.417508877412796"><ele>319.0</ele><time>2026-04-25T09:08:11.999Z</time></trkpt><trkpt lat="43.33843858770966" lon="12.417757700725616"><ele>319.0</ele><time>2026-04-25T09:08:12.999Z</time></trkpt><trkpt lat="43.338619866278826" lon="12.417995276971485"><ele>321.0</ele><time>2026-04-25T09:08:13.999Z</time></trkpt><trkpt lat="43.33880508210074" lon="12.418216017176434"><ele>323.0</ele><time>2026-04-25T09:08:14.999Z</time></trkpt><trkpt lat="43.33899870231011" lon="12.418401881950004"><ele>323.0</ele><time>2026-04-25T09:08:15.999Z</time></trkpt><trkpt lat="43.339195971474105" lon="12.418545051153421"><ele>323.0</ele><time>2026-04-25T09:08:16.999Z</time></trkpt><trkpt lat="43.33939403855689" lon="12.41867363986632"><ele>323.0</ele><time>2026-04-25T09:08:17.999Z</time></trkpt><trkpt lat="43.33958752266576" lon="12.418810451546902"><ele>323.0</ele><time>2026-04-25T09:08:18.999Z</time></trkpt><trkpt lat="43.33976724126971" lon="12.418979796272234"><ele>323.0</ele><time>2026-04-25T09:08:19.998Z</time></trkpt><trkpt lat="43.339921124347924" lon="12.419184043698246"><ele>323.0</ele><time>2026-04-25T09:08:20.998Z</time></trkpt><trkpt lat="43.34005568142937" lon="12.41937962255434"><ele>323.0</ele><time>2026-04-25T09:08:21.998Z</time></trkpt><trkpt lat="43.34020781832225" lon="12.419535802718263"><ele>323.0</ele><time>2026-04-25T09:08:22.998Z</time></trkpt><trkpt lat="43.340371712973294" lon="12.419701769070864"><ele>323.0</ele><time>2026-04-25T09:08:23.998Z</time></trkpt><trkpt lat="43.3405341090336" lon="12.419891337541385"><ele>325.0</ele><time>2026-04-25T09:08:24.998Z</time></trkpt><trkpt lat="43.340709906749616" lon="12.420065194092377"><ele>327.0</ele><time>2026-04-25T09:08:25.998Z</time></trkpt><trkpt lat="43.340893131914946" lon="12.420240981062335"><ele>329.0</ele><time>2026-04-25T09:08:26.998Z</time></trkpt><trkpt lat="43.34108069906182" lon="12.420401404476888"><ele>324.0</ele><time>2026-04-25T09:08:27.998Z</time></trkpt><trkpt lat="43.34128811397892" lon="12.42053311563483"><ele>319.0</ele><time>2026-04-25T09:08:28.998Z</time></trkpt><trkpt lat="43.34150787198933" lon="12.420645788382538"><ele>319.0</ele><time>2026-04-25T09:08:29.998Z</time></trkpt><trkpt lat="43.34173204426093" lon="12.420757514167194"><ele>319.0</ele><time>2026-04-25T09:08:30.998Z</time></trkpt><trkpt lat="43.34195196805124" lon="12.420870494304834"><ele>319.0</ele><time>2026-04-25T09:08:31.998Z</time></trkpt><trkpt lat="43.342165135082155" lon="12.42098500080282"><ele>319.0</ele><time>2026-04-25T09:08:32.998Z</time></trkpt><trkpt lat="43.34236362845944" lon="12.421091682321475"><ele>319.0</ele><time>2026-04-25T09:08:33.998Z</time></trkpt><trkpt lat="43.34255301991938" lon="12.421184031726726"><ele>318.66666666666663</ele><time>2026-04-25T09:08:34.998Z</time></trkpt><trkpt lat="43.34273351912627" lon="12.421268927798849"><ele>318.3333333333333</ele><time>2026-04-25T09:08:35.998Z</time></trkpt><trkpt lat="43.34289341529163" lon="12.421372646905642"><ele>318.0</ele><time>2026-04-25T09:08:36.998Z</time></trkpt><trkpt lat="43.34302464277027" lon="12.421534031268617"><ele>318.6666666666667</ele><time>2026-04-25T09:08:37.998Z</time></trkpt><trkpt lat="43.34312893053188" lon="12.421751600123073"><ele>319.33333333333337</ele><time>2026-04-25T09:08:38.998Z</time></trkpt><trkpt lat="43.343204755634034" lon="12.421979909600264"><ele>320.0</ele><time>2026-04-25T09:08:39.998Z</time></trkpt><trkpt lat="43.34326231148337" lon="12.422194647623186"><ele>321.33333333333337</ele><time>2026-04-25T09:08:40.998Z</time></trkpt><trkpt lat="43.343315617291836" lon="12.42241248045806"><ele>322.6666666666667</ele><time>2026-04-25T09:08:41.998Z</time></trkpt><trkpt lat="43.34336623184576" lon="12.422632102137756"><ele>324.0</ele><time>2026-04-25T09:08:42.998Z</time></trkpt><trkpt lat="43.34341359266354" lon="12.42286869779159"><ele>325.6666666666667</ele><time>2026-04-25T09:08:43.998Z</time></trkpt><trkpt lat="43.34344359495436" lon="12.423130624872199"><ele>327.33333333333337</ele><time>2026-04-25T09:08:44.998Z</time></trkpt><trkpt lat="43.34346478331184" lon="12.423399358424073"><ele>329.0</ele><time>2026-04-25T09:08:45.998Z</time></trkpt><trkpt lat="43.343479886647735" lon="12.423664099971482"><ele>330.0</ele><time>2026-04-25T09:08:46.998Z</time></trkpt><trkpt lat="43.343484228086155" lon="12.423940958156505"><ele>331.0</ele><time>2026-04-25T09:08:47.998Z</time></trkpt><trkpt lat="43.343477517914714" lon="12.424228197525345"><ele>332.0</ele><time>2026-04-25T09:08:48.998Z</time></trkpt><trkpt lat="43.34344714856798" lon="12.424519152343871"><ele>332.33333333333337</ele><time>2026-04-25T09:08:49.998Z</time></trkpt><trkpt lat="43.34341512769462" lon="12.424820721360176"><ele>332.6666666666667</ele><time>2026-04-25T09:08:50.998Z</time></trkpt><trkpt lat="43.34337703575351" lon="12.4251230569327"><ele>333.0</ele><time>2026-04-25T09:08:51.998Z</time></trkpt><trkpt lat="43.343338330154744" lon="12.425440837449907"><ele>335.0</ele><time>2026-04-25T09:08:52.998Z</time></trkpt><trkpt lat="43.34328206703431" lon="12.425758529525329"><ele>337.0</ele><time>2026-04-25T09:08:53.998Z</time></trkpt><trkpt lat="43.34320493191198" lon="12.426055790146673"><ele>342.5</ele><time>2026-04-25T09:08:55Z</time></trkpt><trkpt lat="43.343156397178106" lon="12.426372575318595"><ele>348.0</ele><time>2026-04-25T09:08:56Z</time></trkpt><trkpt lat="43.34310642760027" lon="12.42668571550339"><ele>348.0</ele><time>2026-04-25T09:08:57Z</time></trkpt><trkpt lat="43.34305539426655" lon="12.4269862292343"><ele>348.0</ele><time>2026-04-25T09:08:58Z</time></trkpt><trkpt lat="43.342999682966756" lon="12.427258297884942"><ele>348.0</ele><time>2026-04-25T09:08:59Z</time></trkpt><trkpt lat="43.34291493749816" lon="12.427503528005703"><ele>343.0</ele><time>2026-04-25T09:09:00Z</time></trkpt><trkpt lat="43.34280581687087" lon="12.427712023889278"><ele>338.0</ele><time>2026-04-25T09:09:01Z</time></trkpt><trkpt lat="43.342722390779244" lon="12.427910070882675"><ele>333.0</ele><time>2026-04-25T09:09:02Z</time></trkpt><trkpt lat="43.34270077566506" lon="12.428121118642554"><ele>333.0</ele><time>2026-04-25T09:09:03Z</time></trkpt><trkpt lat="43.34273290143706" lon="12.428329969857284"><ele>333.0</ele><time>2026-04-25T09:09:04Z</time></trkpt><trkpt lat="43.34281299763767" lon="12.42852155111135"><ele>333.0</ele><time>2026-04-25T09:09:05Z</time></trkpt><trkpt lat="43.34294246770699" lon="12.42867706011787"><ele>339.3333333333333</ele><time>2026-04-25T09:09:06Z</time></trkpt><trkpt lat="43.34309492238426" lon="12.428813914782312"><ele>345.66666666666663</ele><time>2026-04-25T09:09:07Z</time></trkpt><trkpt lat="43.34323510012795" lon="12.428982782746996"><ele>352.0</ele><time>2026-04-25T09:09:08Z</time></trkpt><trkpt lat="43.343366669420924" lon="12.42919195695813"><ele>352.0</ele><time>2026-04-25T09:09:09Z</time></trkpt><trkpt lat="43.34349803560141" lon="12.429407368170983"><ele>352.0</ele><time>2026-04-25T09:09:10Z</time></trkpt><trkpt lat="43.34363788163506" lon="12.42961789622709"><ele>352.0</ele><time>2026-04-25T09:09:11Z</time></trkpt><trkpt lat="43.34377375002427" lon="12.429821128562732"><ele>353.0</ele><time>2026-04-25T09:09:12Z</time></trkpt><trkpt lat="43.34390989894032" lon="12.429995711968125"><ele>354.0</ele><time>2026-04-25T09:09:13Z</time></trkpt><trkpt lat="43.34406277700835" lon="12.430112476483789"><ele>355.0</ele><time>2026-04-25T09:09:14Z</time></trkpt><trkpt lat="43.34424224301597" lon="12.430167699813452"><ele>355.0</ele><time>2026-04-25T09:09:15Z</time></trkpt><trkpt lat="43.34443718804734" lon="12.430147509484042"><ele>355.0</ele><time>2026-04-25T09:09:16Z</time></trkpt><trkpt lat="43.34461305517878" lon="12.430074835006334"><ele>355.0</ele><time>2026-04-25T09:09:17Z</time></trkpt><trkpt lat="43.34476516242664" lon="12.430030154713691"><ele>357.0</ele><time>2026-04-25T09:09:18Z</time></trkpt><trkpt lat="43.344889677792004" lon="12.430062211793947"><ele>359.0</ele><time>2026-04-25T09:09:19Z</time></trkpt><trkpt lat="43.344981634163716" lon="12.430176534948746"><ele>361.0</ele><time>2026-04-25T09:09:19.999Z</time></trkpt><trkpt lat="43.34502261676528" lon="12.430332503748204"><ele>363.0</ele><time>2026-04-25T09:09:20.999Z</time></trkpt><trkpt lat="43.345017510943414" lon="12.43054813369813"><ele>363.0</ele><time>2026-04-25T09:09:21.999Z</time></trkpt><trkpt lat="43.34499602297239" lon="12.430767216182117"><ele>363.0</ele><time>2026-04-25T09:09:22.999Z</time></trkpt><trkpt lat="43.34499307952387" lon="12.430989712792531"><ele>363.0</ele><time>2026-04-25T09:09:23.999Z</time></trkpt><trkpt lat="43.345003853231205" lon="12.431225532926817"><ele>364.0</ele><time>2026-04-25T09:09:24.999Z</time></trkpt><trkpt lat="43.34501390601568" lon="12.43147270952588"><ele>365.0</ele><time>2026-04-25T09:09:25.999Z</time></trkpt><trkpt lat="43.34500786368323" lon="12.431731472609874"><ele>366.0</ele><time>2026-04-25T09:09:26.999Z</time></trkpt><trkpt lat="43.34496703561456" lon="12.43198712390187"><ele>367.3333333333333</ele><time>2026-04-25T09:09:27.999Z</time></trkpt><trkpt lat="43.344899304732" lon="12.432238192613582"><ele>368.66666666666663</ele><time>2026-04-25T09:09:28.999Z</time></trkpt><trkpt lat="43.34487760896418" lon="12.432494976387332"><ele>370.0</ele><time>2026-04-25T09:09:29.999Z</time></trkpt><trkpt lat="43.344905961702175" lon="12.432772183157192"><ele>369.0</ele><time>2026-04-25T09:09:30.999Z</time></trkpt><trkpt lat="43.34493682694791" lon="12.433054762731711"><ele>368.0</ele><time>2026-04-25T09:09:31.999Z</time></trkpt><trkpt lat="43.34495711974898" lon="12.433337428726299"><ele>367.0</ele><time>2026-04-25T09:09:32.999Z</time></trkpt><trkpt lat="43.344993696909576" lon="12.433618050280886"><ele>362.66666666666663</ele><time>2026-04-25T09:09:33.999Z</time></trkpt><trkpt lat="43.345059932695605" lon="12.433863995035363"><ele>358.3333333333333</ele><time>2026-04-25T09:09:34.999Z</time></trkpt><trkpt lat="43.3451682390892" lon="12.434056839638302"><ele>354.0</ele><time>2026-04-25T09:09:35.999Z</time></trkpt><trkpt lat="43.34532221308895" lon="12.434204903875639"><ele>354.0</ele><time>2026-04-25T09:09:36.999Z</time></trkpt><trkpt lat="43.34550406410649" lon="12.434308769026966"><ele>354.0</ele><time>2026-04-25T09:09:37.999Z</time></trkpt><trkpt lat="43.345700621865255" lon="12.43436510950261"><ele>354.0</ele><time>2026-04-25T09:09:38.999Z</time></trkpt><trkpt lat="43.34590097605716" lon="12.434398843590015"><ele>364.33333333333337</ele><time>2026-04-25T09:09:39.999Z</time></trkpt><trkpt lat="43.346090040830795" lon="12.434405658672764"><ele>374.6666666666667</ele><time>2026-04-25T09:09:40.999Z</time></trkpt><trkpt lat="43.346261564746655" lon="12.434353704630436"><ele>385.0</ele><time>2026-04-25T09:09:41.999Z</time></trkpt><trkpt lat="43.34640899729249" lon="12.43422018718595"><ele>388.0</ele><time>2026-04-25T09:09:42.999Z</time></trkpt><trkpt lat="43.34653684536886" lon="12.434108295439632"><ele>391.0</ele><time>2026-04-25T09:09:43.999Z</time></trkpt><trkpt lat="43.34667336797696" lon="12.434104560616532"><ele>394.0</ele><time>2026-04-25T09:09:44.999Z</time></trkpt><trkpt lat="43.34682427436386" lon="12.434214134910505"><ele>394.0</ele><time>2026-04-25T09:09:45.999Z</time></trkpt><trkpt lat="43.34694479092426" lon="12.434387942853329"><ele>394.0</ele><time>2026-04-25T09:09:46.999Z</time></trkpt><trkpt lat="43.347070904378015" lon="12.434560749125287"><ele>394.0</ele><time>2026-04-25T09:09:47.999Z</time></trkpt><trkpt lat="43.347213964487885" lon="12.434719995817757"><ele>390.33333333333337</ele><time>2026-04-25T09:09:48.999Z</time></trkpt><trkpt lat="43.347368637023614" lon="12.434869166857577"><ele>386.6666666666667</ele><time>2026-04-25T09:09:49.999Z</time></trkpt><trkpt lat="43.34751750390692" lon="12.435056541281197"><ele>383.0</ele><time>2026-04-25T09:09:50.999Z</time></trkpt><trkpt lat="43.34765270846883" lon="12.435229033374545"><ele>383.0</ele><time>2026-04-25T09:09:51.999Z</time></trkpt><trkpt lat="43.34777814586508" lon="12.43535016651099"><ele>383.0</ele><time>2026-04-25T09:09:52.999Z</time></trkpt><trkpt lat="43.34789089891366" lon="12.435381131769768"><ele>383.0</ele><time>2026-04-25T09:09:53.999Z</time></trkpt><trkpt lat="43.34800373769691" lon="12.435392657135656"><ele>383.0</ele><time>2026-04-25T09:09:54.999Z</time></trkpt><trkpt lat="43.34815539468423" lon="12.435207184027641"><ele>381.0</ele><time>2026-04-25T09:09:55.999Z</time></trkpt><trkpt lat="43.34822780687742" lon="12.435003787523375"><ele>379.0</ele><time>2026-04-25T09:09:56.999Z</time></trkpt><trkpt lat="43.34828294052031" lon="12.434775644747285"><ele>377.0</ele><time>2026-04-25T09:09:57.999Z</time></trkpt><trkpt lat="43.3483701655347" lon="12.434581210713826"><ele>388.33333333333337</ele><time>2026-04-25T09:09:58.999Z</time></trkpt><trkpt lat="43.34849990424058" lon="12.434420496244233"><ele>399.6666666666667</ele><time>2026-04-25T09:09:59.999Z</time></trkpt><trkpt lat="43.34863863592897" lon="12.434230349721878"><ele>411.0</ele><time>2026-04-25T09:10:00.999Z</time></trkpt><trkpt lat="43.34876723640032" lon="12.43409920940708"><ele>401.0</ele><time>2026-04-25T09:10:01.999Z</time></trkpt><trkpt lat="43.34890210580767" lon="12.433994084576247"><ele>391.0</ele><time>2026-04-25T09:10:02.999Z</time></trkpt><trkpt lat="43.34903861631679" lon="12.433895161213663"><ele>381.0</ele><time>2026-04-25T09:10:03.999Z</time></trkpt><trkpt lat="43.349168481054825" lon="12.43382070627105"><ele>390.25</ele><time>2026-04-25T09:10:04.999Z</time></trkpt><trkpt lat="43.34927490933173" lon="12.43367380887667"><ele>399.5</ele><time>2026-04-25T09:10:05.999Z</time></trkpt><trkpt lat="43.349383728538946" lon="12.43354827235949"><ele>408.75</ele><time>2026-04-25T09:10:06.999Z</time></trkpt><trkpt lat="43.34948160971333" lon="12.433449787252346"><ele>418.0</ele><time>2026-04-25T09:10:07.999Z</time></trkpt><trkpt lat="43.34960725938559" lon="12.433374283922275"><ele>412.75</ele><time>2026-04-25T09:10:08.999Z</time></trkpt><trkpt lat="43.349712044253884" lon="12.433354428794196"><ele>407.5</ele><time>2026-04-25T09:10:09.999Z</time></trkpt><trkpt lat="43.349828844235915" lon="12.43337156716104"><ele>402.25</ele><time>2026-04-25T09:10:10.999Z</time></trkpt><trkpt lat="43.34995514847992" lon="12.43338235037032"><ele>397.0</ele><time>2026-04-25T09:10:11.999Z</time></trkpt><trkpt lat="43.350078355022916" lon="12.43341672152471"><ele>397.0</ele><time>2026-04-25T09:10:12.999Z</time></trkpt><trkpt lat="43.35021452695743" lon="12.433464638127278"><ele>397.0</ele><time>2026-04-25T09:10:13.999Z</time></trkpt><trkpt lat="43.3503508485474" lon="12.433505036085608"><ele>397.0</ele><time>2026-04-25T09:10:14.999Z</time></trkpt><trkpt lat="43.35048997736018" lon="12.433539265712573"><ele>397.0</ele><time>2026-04-25T09:10:15.999Z</time></trkpt><trkpt lat="43.350632414941366" lon="12.433596343119774"><ele>402.6666666666667</ele><time>2026-04-25T09:10:16.999Z</time></trkpt><trkpt lat="43.3507876731014" lon="12.433636339384057"><ele>408.33333333333337</ele><time>2026-04-25T09:10:17.999Z</time></trkpt><trkpt lat="43.350942523171874" lon="12.433673620796503"><ele>414.0</ele><time>2026-04-25T09:10:18.999Z</time></trkpt><trkpt lat="43.35111445613642" lon="12.433705153989703"><ele>414.0</ele><time>2026-04-25T09:10:19.999Z</time></trkpt><trkpt lat="43.351276966664415" lon="12.433755706410082"><ele>414.0</ele><time>2026-04-25T09:10:20.998Z</time></trkpt><trkpt lat="43.351426551539824" lon="12.4338521077209"><ele>414.0</ele><time>2026-04-25T09:10:21.998Z</time></trkpt><trkpt lat="43.35155433099676" lon="12.43400022593677"><ele>405.33333333333337</ele><time>2026-04-25T09:10:22.998Z</time></trkpt><trkpt lat="43.35166878143597" lon="12.43418311053348"><ele>396.6666666666667</ele><time>2026-04-25T09:10:23.998Z</time></trkpt><trkpt lat="43.351798723570774" lon="12.434366332113877"><ele>388.0</ele><time>2026-04-25T09:10:24.998Z</time></trkpt><trkpt lat="43.35194178814526" lon="12.434518523402664"><ele>387.0</ele><time>2026-04-25T09:10:25.998Z</time></trkpt><trkpt lat="43.3521025781645" lon="12.43467860325597"><ele>386.0</ele><time>2026-04-25T09:10:26.998Z</time></trkpt><trkpt lat="43.35227328499222" lon="12.434842659436082"><ele>385.0</ele><time>2026-04-25T09:10:27.998Z</time></trkpt><trkpt lat="43.35246172371031" lon="12.434999347257055"><ele>385.0</ele><time>2026-04-25T09:10:28.998Z</time></trkpt><trkpt lat="43.35267451023864" lon="12.435131731687832"><ele>385.0</ele><time>2026-04-25T09:10:29.998Z</time></trkpt><trkpt lat="43.35287166959981" lon="12.43527011815352"><ele>385.6666666666667</ele><time>2026-04-25T09:10:30.998Z</time></trkpt><trkpt lat="43.35305424460227" lon="12.435400867593223"><ele>386.33333333333337</ele><time>2026-04-25T09:10:31.998Z</time></trkpt><trkpt lat="43.353216460501685" lon="12.43554485864419"><ele>387.0</ele><time>2026-04-25T09:10:32.998Z</time></trkpt><trkpt lat="43.353342896936546" lon="12.435742439041352"><ele>387.0</ele><time>2026-04-25T09:10:33.998Z</time></trkpt><trkpt lat="43.35344741049388" lon="12.435972468747469"><ele>387.0</ele><time>2026-04-25T09:10:34.998Z</time></trkpt><trkpt lat="43.35357953473352" lon="12.436175131867422"><ele>387.0</ele><time>2026-04-25T09:10:35.998Z</time></trkpt><trkpt lat="43.35375299256716" lon="12.436324471886708"><ele>384.0</ele><time>2026-04-25T09:10:36.998Z</time></trkpt><trkpt lat="43.35395765672935" lon="12.436426412118324"><ele>381.0</ele><time>2026-04-25T09:10:37.998Z</time></trkpt><trkpt lat="43.35417500372633" lon="12.436510082934095"><ele>378.0</ele><time>2026-04-25T09:10:38.998Z</time></trkpt><trkpt lat="43.35439440856202" lon="12.436610630624562"><ele>378.0</ele><time>2026-04-25T09:10:39.998Z</time></trkpt><trkpt lat="43.35461143009311" lon="12.436713408084472"><ele>378.0</ele><time>2026-04-25T09:10:40.998Z</time></trkpt><trkpt lat="43.35483002984025" lon="12.436814459896599"><ele>383.33333333333337</ele><time>2026-04-25T09:10:41.998Z</time></trkpt><trkpt lat="43.35504276921843" lon="12.436876945852905"><ele>388.6666666666667</ele><time>2026-04-25T09:10:42.998Z</time></trkpt><trkpt lat="43.355255990671026" lon="12.43690743971193"><ele>394.0</ele><time>2026-04-25T09:10:43.998Z</time></trkpt><trkpt lat="43.355476036764024" lon="12.436897395230192"><ele>391.0</ele><time>2026-04-25T09:10:44.998Z</time></trkpt><trkpt lat="43.35569421397582" lon="12.43684868025348"><ele>388.0</ele><time>2026-04-25T09:10:45.998Z</time></trkpt><trkpt lat="43.35590569945783" lon="12.436761103617776"><ele>385.0</ele><time>2026-04-25T09:10:46.998Z</time></trkpt><trkpt lat="43.35611207595812" lon="12.436634377522925"><ele>385.0</ele><time>2026-04-25T09:10:47.998Z</time></trkpt><trkpt lat="43.35631641737396" lon="12.436500016973174"><ele>385.0</ele><time>2026-04-25T09:10:48.998Z</time></trkpt><trkpt lat="43.356539481530284" lon="12.436420924977316"><ele>377.0</ele><time>2026-04-25T09:10:49.998Z</time></trkpt><trkpt lat="43.3567695650332" lon="12.436367411074038"><ele>369.0</ele><time>2026-04-25T09:10:50.998Z</time></trkpt><trkpt lat="43.35698245693576" lon="12.436270896001583"><ele>375.66666666666663</ele><time>2026-04-25T09:10:51.998Z</time></trkpt><trkpt lat="43.35718007602309" lon="12.43613052795882"><ele>382.3333333333333</ele><time>2026-04-25T09:10:52.998Z</time></trkpt><trkpt lat="43.357387652725166" lon="12.436037878129262"><ele>389.0</ele><time>2026-04-25T09:10:53.998Z</time></trkpt><trkpt lat="43.35760455206035" lon="12.435999635694596"><ele>389.0</ele><time>2026-04-25T09:10:54.998Z</time></trkpt><trkpt lat="43.35783914842877" lon="12.435994788819027"><ele>389.0</ele><time>2026-04-25T09:10:55.998Z</time></trkpt><trkpt lat="43.35807057855817" lon="12.436001195076397"><ele>387.66666666666663</ele><time>2026-04-25T09:10:56.998Z</time></trkpt><trkpt lat="43.358289020638125" lon="12.435993162511586"><ele>386.33333333333337</ele><time>2026-04-25T09:10:57.998Z</time></trkpt><trkpt lat="43.358494004142734" lon="12.435988557731674"><ele>385.0</ele><time>2026-04-25T09:10:58.998Z</time></trkpt><trkpt lat="43.35870227179278" lon="12.436046480316575"><ele>388.0</ele><time>2026-04-25T09:11:00Z</time></trkpt><trkpt lat="43.358916295833396" lon="12.436156639091656"><ele>391.0</ele><time>2026-04-25T09:11:01Z</time></trkpt><trkpt lat="43.35913024040822" lon="12.436310654933314"><ele>376.5</ele><time>2026-04-25T09:11:02Z</time></trkpt><trkpt lat="43.35933723876894" lon="12.43646918012829"><ele>362.0</ele><time>2026-04-25T09:11:03Z</time></trkpt><trkpt lat="43.3595485540703" lon="12.436623008076378"><ele>368.0</ele><time>2026-04-25T09:11:04Z</time></trkpt><trkpt lat="43.35975120185649" lon="12.436765934063844"><ele>374.0</ele><time>2026-04-25T09:11:05Z</time></trkpt><trkpt lat="43.359940410482174" lon="12.436895249732196"><ele>380.0</ele><time>2026-04-25T09:11:06Z</time></trkpt><trkpt lat="43.36011305610848" lon="12.437039961458089"><ele>374.6666666666667</ele><time>2026-04-25T09:11:07Z</time></trkpt><trkpt lat="43.36024461466288" lon="12.437256457977334"><ele>369.3333333333333</ele><time>2026-04-25T09:11:08Z</time></trkpt><trkpt lat="43.360380896999644" lon="12.437482572309174"><ele>364.0</ele><time>2026-04-25T09:11:09Z</time></trkpt><trkpt lat="43.360511396669395" lon="12.437712381330766"><ele>361.66666666666663</ele><time>2026-04-25T09:11:10Z</time></trkpt><trkpt lat="43.36065969011013" lon="12.437898245015091"><ele>359.3333333333333</ele><time>2026-04-25T09:11:11Z</time></trkpt><trkpt lat="43.36083400834783" lon="12.438041813526562"><ele>357.0</ele><time>2026-04-25T09:11:12Z</time></trkpt><trkpt lat="43.36103896888141" lon="12.43814411979951"><ele>357.0</ele><time>2026-04-25T09:11:13Z</time></trkpt><trkpt lat="43.36125221524067" lon="12.438249503318255"><ele>357.0</ele><time>2026-04-25T09:11:14Z</time></trkpt><trkpt lat="43.36146798503169" lon="12.438360924793262"><ele>363.0</ele><time>2026-04-25T09:11:15Z</time></trkpt><trkpt lat="43.36168729743239" lon="12.438490468913285"><ele>369.0</ele><time>2026-04-25T09:11:16Z</time></trkpt><trkpt lat="43.361910895914235" lon="12.438595279392846"><ele>369.0</ele><time>2026-04-25T09:11:17Z</time></trkpt><trkpt lat="43.36213837031464" lon="12.438681646704794"><ele>369.0</ele><time>2026-04-25T09:11:18Z</time></trkpt><trkpt lat="43.36236154207674" lon="12.438741997298187"><ele>365.3333333333333</ele><time>2026-04-25T09:11:19Z</time></trkpt><trkpt lat="43.36257151268519" lon="12.438809884518617"><ele>361.66666666666663</ele><time>2026-04-25T09:11:20Z</time></trkpt><trkpt lat="43.362759786683164" lon="12.438864391515335"><ele>358.0</ele><time>2026-04-25T09:11:21Z</time></trkpt><trkpt lat="43.36291952663611" lon="12.438953300376415"><ele>362.66666666666663</ele><time>2026-04-25T09:11:22Z</time></trkpt><trkpt lat="43.36306434019806" lon="12.439114253483394"><ele>367.3333333333333</ele><time>2026-04-25T09:11:23Z</time></trkpt><trkpt lat="43.363203386560926" lon="12.439313487308983"><ele>372.0</ele><time>2026-04-25T09:11:24Z</time></trkpt><trkpt lat="43.36335234719173" lon="12.439501605627443"><ele>367.0</ele><time>2026-04-25T09:11:24.999Z</time></trkpt><trkpt lat="43.363501205286724" lon="12.439708428297424"><ele>362.0</ele><time>2026-04-25T09:11:25.999Z</time></trkpt><trkpt lat="43.36363043223014" lon="12.439944486949402"><ele>357.0</ele><time>2026-04-25T09:11:26.999Z</time></trkpt><trkpt lat="43.3637513158418" lon="12.440173256601913"><ele>361.3333333333333</ele><time>2026-04-25T09:11:27.999Z</time></trkpt><trkpt lat="43.36386357914028" lon="12.44039216073156"><ele>365.66666666666663</ele><time>2026-04-25T09:11:28.999Z</time></trkpt><trkpt lat="43.36394747425662" lon="12.440643756274993"><ele>370.0</ele><time>2026-04-25T09:11:29.999Z</time></trkpt><trkpt lat="43.364001079185556" lon="12.440923129887132"><ele>370.0</ele><time>2026-04-25T09:11:30.999Z</time></trkpt><trkpt lat="43.364034077341366" lon="12.441224829820039"><ele>370.0</ele><time>2026-04-25T09:11:31.999Z</time></trkpt><trkpt lat="43.36405771414092" lon="12.441526539946132"><ele>370.0</ele><time>2026-04-25T09:11:32.999Z</time></trkpt><trkpt lat="43.36408627154861" lon="12.441818254390606"><ele>370.66666666666663</ele><time>2026-04-25T09:11:33.999Z</time></trkpt><trkpt lat="43.364121351884194" lon="12.44208928844644"><ele>371.3333333333333</ele><time>2026-04-25T09:11:34.999Z</time></trkpt><trkpt lat="43.36418658851703" lon="12.442336760543819"><ele>372.0</ele><time>2026-04-25T09:11:35.999Z</time></trkpt><trkpt lat="43.36430217943167" lon="12.442574339249207"><ele>371.0</ele><time>2026-04-25T09:11:36.999Z</time></trkpt><trkpt lat="43.36444349424502" lon="12.442806695409141"><ele>370.0</ele><time>2026-04-25T09:11:37.999Z</time></trkpt><trkpt lat="43.364584510524736" lon="12.443051023940377"><ele>369.0</ele><time>2026-04-25T09:11:38.999Z</time></trkpt><trkpt lat="43.364727985272246" lon="12.443303189427976"><ele>369.0</ele><time>2026-04-25T09:11:39.999Z</time></trkpt><trkpt lat="43.36487476623781" lon="12.443556521009574"><ele>369.0</ele><time>2026-04-25T09:11:40.999Z</time></trkpt><trkpt lat="43.365022938445456" lon="12.44381316812413"><ele>366.5</ele><time>2026-04-25T09:11:41.999Z</time></trkpt><trkpt lat="43.36517125662194" lon="12.444068278254145"><ele>364.0</ele><time>2026-04-25T09:11:42.999Z</time></trkpt><trkpt lat="43.36531960706614" lon="12.444324666215467"><ele>364.0</ele><time>2026-04-25T09:11:43.999Z</time></trkpt><trkpt lat="43.3654625625795" lon="12.444595740176355"><ele>364.0</ele><time>2026-04-25T09:11:44.999Z</time></trkpt><trkpt lat="43.36559240750049" lon="12.44488109375461"><ele>374.0</ele><time>2026-04-25T09:11:45.999Z</time></trkpt><trkpt lat="43.36571250783402" lon="12.44517176343449"><ele>384.0</ele><time>2026-04-25T09:11:46.999Z</time></trkpt><trkpt lat="43.365840960130754" lon="12.445449944575909"><ele>378.5</ele><time>2026-04-25T09:11:47.999Z</time></trkpt><trkpt lat="43.36598713314839" lon="12.445706671664762"><ele>373.0</ele><time>2026-04-25T09:11:48.999Z</time></trkpt><trkpt lat="43.36614235218493" lon="12.445959646439961"><ele>373.0</ele><time>2026-04-25T09:11:49.999Z</time></trkpt><trkpt lat="43.36630270104357" lon="12.44620001427728"><ele>373.0</ele><time>2026-04-25T09:11:50.999Z</time></trkpt><trkpt lat="43.366453496144246" lon="12.446428098785624"><ele>376.0</ele><time>2026-04-25T09:11:51.999Z</time></trkpt><trkpt lat="43.366589972541306" lon="12.446639762529399"><ele>379.0</ele><time>2026-04-25T09:11:52.999Z</time></trkpt><trkpt lat="43.36673288371602" lon="12.446825543107396"><ele>382.0</ele><time>2026-04-25T09:11:53.999Z</time></trkpt><trkpt lat="43.366906385654616" lon="12.446972556845969"><ele>382.0</ele><time>2026-04-25T09:11:54.999Z</time></trkpt><trkpt lat="43.36711078966041" lon="12.447068677268494"><ele>382.0</ele><time>2026-04-25T09:11:55.999Z</time></trkpt><trkpt lat="43.36732914042125" lon="12.447135734415095"><ele>382.0</ele><time>2026-04-25T09:11:56.999Z</time></trkpt><trkpt lat="43.367548058596014" lon="12.447206130012267"><ele>379.0</ele><time>2026-04-25T09:11:57.999Z</time></trkpt><trkpt lat="43.367769924003774" lon="12.447306896180287"><ele>376.0</ele><time>2026-04-25T09:11:58.999Z</time></trkpt><trkpt lat="43.367990883041664" lon="12.447425143603976"><ele>383.0</ele><time>2026-04-25T09:11:59.999Z</time></trkpt><trkpt lat="43.36821762468613" lon="12.447535641616259"><ele>390.0</ele><time>2026-04-25T09:12:00.999Z</time></trkpt><trkpt lat="43.36844718843637" lon="12.447648980255806"><ele>390.0</ele><time>2026-04-25T09:12:01.999Z</time></trkpt><trkpt lat="43.36867806641686" lon="12.447774747507596"><ele>390.0</ele><time>2026-04-25T09:12:02.999Z</time></trkpt><trkpt lat="43.368903884077625" lon="12.44792458763589"><ele>385.5</ele><time>2026-04-25T09:12:03.999Z</time></trkpt><trkpt lat="43.3691293483466" lon="12.448086247472665"><ele>381.0</ele><time>2026-04-25T09:12:04.999Z</time></trkpt><trkpt lat="43.36935689410547" lon="12.44824429562248"><ele>381.0</ele><time>2026-04-25T09:12:05.999Z</time></trkpt><trkpt lat="43.36957862471804" lon="12.448393254215928"><ele>381.0</ele><time>2026-04-25T09:12:06.999Z</time></trkpt><trkpt lat="43.369790494032955" lon="12.44853453591445"><ele>376.5</ele><time>2026-04-25T09:12:07.999Z</time></trkpt><trkpt lat="43.36999721390897" lon="12.44869460813927"><ele>372.0</ele><time>2026-04-25T09:12:08.999Z</time></trkpt><trkpt lat="43.370192553988325" lon="12.448888624951879"><ele>372.0</ele><time>2026-04-25T09:12:09.999Z</time></trkpt><trkpt lat="43.37037165422329" lon="12.44912296459774"><ele>372.0</ele><time>2026-04-25T09:12:10.999Z</time></trkpt><trkpt lat="43.3705333634986" lon="12.44940080310629"><ele>372.5</ele><time>2026-04-25T09:12:11.999Z</time></trkpt><trkpt lat="43.37068139387139" lon="12.449697871459232"><ele>373.0</ele><time>2026-04-25T09:12:12.999Z</time></trkpt><trkpt lat="43.37082210582442" lon="12.449996955291205"><ele>373.0</ele><time>2026-04-25T09:12:13.999Z</time></trkpt><trkpt lat="43.37095942886125" lon="12.450297746783656"><ele>373.0</ele><time>2026-04-25T09:12:14.999Z</time></trkpt><trkpt lat="43.37109442404155" lon="12.450592031331126"><ele>369.0</ele><time>2026-04-25T09:12:15.999Z</time></trkpt><trkpt lat="43.37120883421623" lon="12.450893440447915"><ele>365.0</ele><time>2026-04-25T09:12:16.999Z</time></trkpt><trkpt lat="43.37129031006783" lon="12.451205230953637"><ele>364.5</ele><time>2026-04-25T09:12:17.999Z</time></trkpt><trkpt lat="43.371336948511555" lon="12.451539129544846"><ele>364.0</ele><time>2026-04-25T09:12:18.999Z</time></trkpt><trkpt lat="43.37134975554465" lon="12.451888389826715"><ele>361.5</ele><time>2026-04-25T09:12:19.999Z</time></trkpt><trkpt lat="43.37134338156631" lon="12.452250853936807"><ele>359.0</ele><time>2026-04-25T09:12:20.999Z</time></trkpt><trkpt lat="43.37133586289717" lon="12.452621165084622"><ele>359.5</ele><time>2026-04-25T09:12:21.999Z</time></trkpt><trkpt lat="43.37133342441398" lon="12.452997514845116"><ele>360.0</ele><time>2026-04-25T09:12:22.999Z</time></trkpt><trkpt lat="43.3713349585618" lon="12.453374892019024"><ele>360.0</ele><time>2026-04-25T09:12:23.999Z</time></trkpt><trkpt lat="43.37133629519454" lon="12.453754486889265"><ele>360.0</ele><time>2026-04-25T09:12:24.999Z</time></trkpt><trkpt lat="43.37133648761563" lon="12.454134911384237"><ele>361.0</ele><time>2026-04-25T09:12:25.999Z</time></trkpt><trkpt lat="43.37133654514553" lon="12.45450815203558"><ele>362.0</ele><time>2026-04-25T09:12:26.999Z</time></trkpt><trkpt lat="43.371342365828774" lon="12.454856616451751"><ele>362.0</ele><time>2026-04-25T09:12:27.999Z</time></trkpt><trkpt lat="43.371352717850954" lon="12.455180133028218"><ele>362.0</ele><time>2026-04-25T09:12:28.999Z</time></trkpt><trkpt lat="43.3713643318732" lon="12.45547646000143"><ele>364.33333333333337</ele><time>2026-04-25T09:12:29.999Z</time></trkpt><trkpt lat="43.371397024340936" lon="12.45574367880616"><ele>366.6666666666667</ele><time>2026-04-25T09:12:30.998Z</time></trkpt><trkpt lat="43.37147442941186" lon="12.455989793986854"><ele>369.0</ele><time>2026-04-25T09:12:31.998Z</time></trkpt><trkpt lat="43.371594302063805" lon="12.456217950635423"><ele>367.6666666666667</ele><time>2026-04-25T09:12:32.998Z</time></trkpt><trkpt lat="43.371741823649096" lon="12.456433946657894"><ele>366.33333333333337</ele><time>2026-04-25T09:12:33.998Z</time></trkpt><trkpt lat="43.371868941516794" lon="12.45666164128754"><ele>365.0</ele><time>2026-04-25T09:12:34.998Z</time></trkpt><trkpt lat="43.37194524818413" lon="12.456909699088028"><ele>365.6666666666667</ele><time>2026-04-25T09:12:35.998Z</time></trkpt><trkpt lat="43.37197895578192" lon="12.457176956158802"><ele>366.3333333333333</ele><time>2026-04-25T09:12:36.998Z</time></trkpt><trkpt lat="43.371973292141966" lon="12.457475387358416"><ele>367.0</ele><time>2026-04-25T09:12:37.998Z</time></trkpt><trkpt lat="43.371934637149025" lon="12.457777453917872"><ele>368.0</ele><time>2026-04-25T09:12:38.998Z</time></trkpt><trkpt lat="43.37192226593234" lon="12.458090996109801"><ele>369.0</ele><time>2026-04-25T09:12:39.998Z</time></trkpt><trkpt lat="43.37196984498996" lon="12.458402858003229"><ele>369.0</ele><time>2026-04-25T09:12:40.998Z</time></trkpt><trkpt lat="43.37201615756821" lon="12.458695335535143"><ele>369.0</ele><time>2026-04-25T09:12:41.998Z</time></trkpt><trkpt lat="43.3720689829475" lon="12.459007394676316"><ele>369.0</ele><time>2026-04-25T09:12:42.998Z</time></trkpt><trkpt lat="43.37211935122435" lon="12.459320530117948"><ele>369.0</ele><time>2026-04-25T09:12:43.998Z</time></trkpt><trkpt lat="43.37216797291682" lon="12.459639259715045"><ele>381.5</ele><time>2026-04-25T09:12:44.998Z</time></trkpt><trkpt lat="43.3722030330559" lon="12.459964706774928"><ele>394.0</ele><time>2026-04-25T09:12:45.998Z</time></trkpt><trkpt lat="43.37221877666783" lon="12.46029485532524"><ele>393.5</ele><time>2026-04-25T09:12:46.998Z</time></trkpt><trkpt lat="43.37220068099091" lon="12.460625046613957"><ele>393.0</ele><time>2026-04-25T09:12:47.998Z</time></trkpt><trkpt lat="43.37215952731697" lon="12.460964241261149"><ele>380.5</ele><time>2026-04-25T09:12:48.998Z</time></trkpt><trkpt lat="43.37212544192603" lon="12.46129523164081"><ele>368.0</ele><time>2026-04-25T09:12:49.998Z</time></trkpt><trkpt lat="43.37211437271504" lon="12.46160954218711"><ele>368.0</ele><time>2026-04-25T09:12:50.998Z</time></trkpt><trkpt lat="43.372133194010836" lon="12.461900390744356"><ele>368.0</ele><time>2026-04-25T09:12:51.998Z</time></trkpt><trkpt lat="43.372189072112725" lon="12.462183799861775"><ele>368.0</ele><time>2026-04-25T09:12:52.998Z</time></trkpt><trkpt lat="43.3722799015654" lon="12.462460879924318"><ele>369.33333333333337</ele><time>2026-04-25T09:12:53.998Z</time></trkpt><trkpt lat="43.37239291428159" lon="12.462718795813043"><ele>370.6666666666667</ele><time>2026-04-25T09:12:54.998Z</time></trkpt><trkpt lat="43.372499513799326" lon="12.462955478450938"><ele>372.0</ele><time>2026-04-25T09:12:55.998Z</time></trkpt><trkpt lat="43.37261289398261" lon="12.463162227650171"><ele>372.0</ele><time>2026-04-25T09:12:56.998Z</time></trkpt><trkpt lat="43.372757568158256" lon="12.463312503675638"><ele>372.0</ele><time>2026-04-25T09:12:57.998Z</time></trkpt><trkpt lat="43.372938081959816" lon="12.463408122769978"><ele>372.0</ele><time>2026-04-25T09:12:58.998Z</time></trkpt><trkpt lat="43.37314373720726" lon="12.463441031440968"><ele>375.6666666666667</ele><time>2026-04-25T09:12:59.998Z</time></trkpt><trkpt lat="43.37335809586513" lon="12.463471308376095"><ele>379.33333333333337</ele><time>2026-04-25T09:13:00.998Z</time></trkpt><trkpt lat="43.373561805097296" lon="12.463580602442521"><ele>383.0</ele><time>2026-04-25T09:13:01.998Z</time></trkpt><trkpt lat="43.37375681794509" lon="12.463703360572282"><ele>380.33333333333337</ele><time>2026-04-25T09:13:02.998Z</time></trkpt><trkpt lat="43.3739395799135" lon="12.46379447007058"><ele>377.6666666666667</ele><time>2026-04-25T09:13:03.998Z</time></trkpt><trkpt lat="43.37410557896136" lon="12.463870172923066"><ele>375.0</ele><time>2026-04-25T09:13:04.998Z</time></trkpt><trkpt lat="43.374252401202256" lon="12.463990197319834"><ele>375.0</ele><time>2026-04-25T09:13:06Z</time></trkpt><trkpt lat="43.374373238147065" lon="12.464157578538396"><ele>375.0</ele><time>2026-04-25T09:13:07Z</time></trkpt><trkpt lat="43.37445064172702" lon="12.464365973109588"><ele>375.0</ele><time>2026-04-25T09:13:08Z</time></trkpt><trkpt lat="43.374490432514534" lon="12.464615829814429"><ele>373.6666666666667</ele><time>2026-04-25T09:13:09Z</time></trkpt><trkpt lat="43.374518485211134" lon="12.464881273788293"><ele>372.33333333333337</ele><time>2026-04-25T09:13:10Z</time></trkpt><trkpt lat="43.37455801149877" lon="12.465154944564931"><ele>371.0</ele><time>2026-04-25T09:13:11Z</time></trkpt><trkpt lat="43.374601592253825" lon="12.46543776004786"><ele>371.33333333333337</ele><time>2026-04-25T09:13:12Z</time></trkpt><trkpt lat="43.374648470056705" lon="12.465735945299826"><ele>371.6666666666667</ele><time>2026-04-25T09:13:13Z</time></trkpt><trkpt lat="43.37469527402583" lon="12.466042017562991"><ele>372.0</ele><time>2026-04-25T09:13:14Z</time></trkpt><trkpt lat="43.37474142246037" lon="12.466352875606617"><ele>381.0</ele><time>2026-04-25T09:13:15Z</time></trkpt><trkpt lat="43.374794155984674" lon="12.46666972556238"><ele>390.0</ele><time>2026-04-25T09:13:16Z</time></trkpt><trkpt lat="43.374851343137934" lon="12.466988635776925"><ele>390.0</ele><time>2026-04-25T09:13:17Z</time></trkpt><trkpt lat="43.37490569615029" lon="12.467309806219776"><ele>390.0</ele><time>2026-04-25T09:13:18Z</time></trkpt><trkpt lat="43.37495749554773" lon="12.467623122382816"><ele>390.0</ele><time>2026-04-25T09:13:19Z</time></trkpt><trkpt lat="43.374991915739514" lon="12.467921483143844"><ele>390.0</ele><time>2026-04-25T09:13:20Z</time></trkpt><trkpt lat="43.37499005162048" lon="12.468202295841598"><ele>390.0</ele><time>2026-04-25T09:13:21Z</time></trkpt><trkpt lat="43.37495629194974" lon="12.468467421254111"><ele>391.0</ele><time>2026-04-25T09:13:22Z</time></trkpt><trkpt lat="43.37489198496173" lon="12.468720326011582"><ele>392.0</ele><time>2026-04-25T09:13:23Z</time></trkpt><trkpt lat="43.37482491497306" lon="12.468952587170318"><ele>393.0</ele><time>2026-04-25T09:13:24Z</time></trkpt><trkpt lat="43.37481060250196" lon="12.46918729404064"><ele>393.0</ele><time>2026-04-25T09:13:25Z</time></trkpt><trkpt lat="43.37484766753224" lon="12.46944367860996"><ele>393.0</ele><time>2026-04-25T09:13:26Z</time></trkpt><trkpt lat="43.37491672386868" lon="12.469696230906699"><ele>393.0</ele><time>2026-04-25T09:13:27Z</time></trkpt><trkpt lat="43.375016293819996" lon="12.469936711829837"><ele>390.33333333333337</ele><time>2026-04-25T09:13:27.999Z</time></trkpt><trkpt lat="43.375152753362464" lon="12.470148996395704"><ele>387.6666666666667</ele><time>2026-04-25T09:13:28.999Z</time></trkpt><trkpt lat="43.37532289724162" lon="12.470324831897079"><ele>385.0</ele><time>2026-04-25T09:13:29.999Z</time></trkpt><trkpt lat="43.375491881197824" lon="12.47047111727035"><ele>389.0</ele><time>2026-04-25T09:13:30.999Z</time></trkpt><trkpt lat="43.375625691445556" lon="12.470653237308344"><ele>393.0</ele><time>2026-04-25T09:13:31.999Z</time></trkpt><trkpt lat="43.375719987694225" lon="12.470892269610538"><ele>397.0</ele><time>2026-04-25T09:13:32.999Z</time></trkpt><trkpt lat="43.37576964791541" lon="12.471166509205183"><ele>395.0</ele><time>2026-04-25T09:13:33.999Z</time></trkpt><trkpt lat="43.37576081328969" lon="12.47146134755026"><ele>393.0</ele><time>2026-04-25T09:13:34.999Z</time></trkpt><trkpt lat="43.37571922069031" lon="12.471746931607777"><ele>391.0</ele><time>2026-04-25T09:13:35.999Z</time></trkpt><trkpt lat="43.37568021405305" lon="12.472041289909106"><ele>394.5</ele><time>2026-04-25T09:13:36.999Z</time></trkpt><trkpt lat="43.37565952815718" lon="12.472347026635154"><ele>398.0</ele><time>2026-04-25T09:13:37.999Z</time></trkpt><trkpt lat="43.375642565834255" lon="12.472661947121011"><ele>400.0</ele><time>2026-04-25T09:13:38.999Z</time></trkpt><trkpt lat="43.375621775347284" lon="12.472983505371234"><ele>402.0</ele><time>2026-04-25T09:13:39.999Z</time></trkpt><trkpt lat="43.375599936144745" lon="12.473313199254413"><ele>402.0</ele><time>2026-04-25T09:13:40.999Z</time></trkpt><trkpt lat="43.37557932835705" lon="12.473648574357895"><ele>402.0</ele><time>2026-04-25T09:13:41.999Z</time></trkpt><trkpt lat="43.375556252866836" lon="12.473987688406678"><ele>404.5</ele><time>2026-04-25T09:13:42.999Z</time></trkpt><trkpt lat="43.37553181314796" lon="12.47432833325491"><ele>407.0</ele><time>2026-04-25T09:13:43.999Z</time></trkpt><trkpt lat="43.37551324905493" lon="12.474668023297772"><ele>393.5</ele><time>2026-04-25T09:13:44.999Z</time></trkpt><trkpt lat="43.37549350339706" lon="12.47501159379868"><ele>380.0</ele><time>2026-04-25T09:13:45.999Z</time></trkpt><trkpt lat="43.37547211682344" lon="12.475352765119215"><ele>382.0</ele><time>2026-04-25T09:13:46.999Z</time></trkpt><trkpt lat="43.37544657223195" lon="12.475693464408959"><ele>384.0</ele><time>2026-04-25T09:13:47.999Z</time></trkpt><trkpt lat="43.37542068645434" lon="12.476020895495205"><ele>384.0</ele><time>2026-04-25T09:13:48.999Z</time></trkpt><trkpt lat="43.375399214041195" lon="12.476319261147928"><ele>384.0</ele><time>2026-04-25T09:13:49.999Z</time></trkpt><trkpt lat="43.37536687329542" lon="12.476602494210685"><ele>384.0</ele><time>2026-04-25T09:13:50.999Z</time></trkpt><trkpt lat="43.37529460744045" lon="12.476882345911005"><ele>391.0</ele><time>2026-04-25T09:13:51.999Z</time></trkpt><trkpt lat="43.37518794482943" lon="12.47715892010217"><ele>398.0</ele><time>2026-04-25T09:13:52.999Z</time></trkpt><trkpt lat="43.375059615950505" lon="12.477423541033856"><ele>398.0</ele><time>2026-04-25T09:13:53.999Z</time></trkpt><trkpt lat="43.37490966164775" lon="12.477677244846479"><ele>398.0</ele><time>2026-04-25T09:13:54.999Z</time></trkpt><trkpt lat="43.37474126731739" lon="12.477918343519974"><ele>396.0</ele><time>2026-04-25T09:13:55.999Z</time></trkpt><trkpt lat="43.374556657277566" lon="12.478141481017602"><ele>394.0</ele><time>2026-04-25T09:13:56.999Z</time></trkpt><trkpt lat="43.37435480778059" lon="12.478346181091004"><ele>394.0</ele><time>2026-04-25T09:13:57.999Z</time></trkpt><trkpt lat="43.37416572582889" lon="12.478561129867996"><ele>394.0</ele><time>2026-04-25T09:13:58.999Z</time></trkpt><trkpt lat="43.3739766352187" lon="12.478770475466487"><ele>392.5</ele><time>2026-04-25T09:13:59.999Z</time></trkpt><trkpt lat="43.37379305689239" lon="12.478986900629451"><ele>391.0</ele><time>2026-04-25T09:14:00.999Z</time></trkpt><trkpt lat="43.37361135375048" lon="12.479194487415722"><ele>391.0</ele><time>2026-04-25T09:14:01.999Z</time></trkpt><trkpt lat="43.37344122002825" lon="12.47939268564228"><ele>391.0</ele><time>2026-04-25T09:14:02.999Z</time></trkpt><trkpt lat="43.37333365726707" lon="12.479665305415853"><ele>391.0</ele><time>2026-04-25T09:14:03.999Z</time></trkpt><trkpt lat="43.37322711600466" lon="12.47990252985007"><ele>394.6666666666667</ele><time>2026-04-25T09:14:04.999Z</time></trkpt><trkpt lat="43.373152134517014" lon="12.4801602476658"><ele>398.33333333333337</ele><time>2026-04-25T09:14:05.999Z</time></trkpt><trkpt lat="43.373111505067605" lon="12.48043061765602"><ele>402.0</ele><time>2026-04-25T09:14:06.999Z</time></trkpt><trkpt lat="43.37311288682134" lon="12.480672424575296"><ele>402.0</ele><time>2026-04-25T09:14:07.999Z</time></trkpt><trkpt lat="43.373187009901145" lon="12.480918903495803"><ele>402.0</ele><time>2026-04-25T09:14:08.999Z</time></trkpt><trkpt lat="43.373272683679645" lon="12.481174623288084"><ele>402.0</ele><time>2026-04-25T09:14:09.999Z</time></trkpt><trkpt lat="43.37340344759452" lon="12.481393242237035"><ele>402.33333333333337</ele><time>2026-04-25T09:14:10.999Z</time></trkpt><trkpt lat="43.37357056891924" lon="12.481583209009152"><ele>402.6666666666667</ele><time>2026-04-25T09:14:11.999Z</time></trkpt><trkpt lat="43.37375837575152" lon="12.481744970451249"><ele>403.0</ele><time>2026-04-25T09:14:12.999Z</time></trkpt><trkpt lat="43.373947367672365" lon="12.481912552430707"><ele>403.0</ele><time>2026-04-25T09:14:13.999Z</time></trkpt><trkpt lat="43.37413939504453" lon="12.482086285252112"><ele>403.0</ele><time>2026-04-25T09:14:14.999Z</time></trkpt><trkpt lat="43.37432665470425" lon="12.482278361518942"><ele>400.5</ele><time>2026-04-25T09:14:15.999Z</time></trkpt><trkpt lat="43.374507556462" lon="12.482496276948963"><ele>398.0</ele><time>2026-04-25T09:14:16.999Z</time></trkpt><trkpt lat="43.374673295836786" lon="12.482745312771197"><ele>400.0</ele><time>2026-04-25T09:14:17.999Z</time></trkpt><trkpt lat="43.374830484357744" lon="12.483013411876598"><ele>402.0</ele><time>2026-04-25T09:14:18.999Z</time></trkpt><trkpt lat="43.37498421876133" lon="12.483286066366539"><ele>402.0</ele><time>2026-04-25T09:14:19.999Z</time></trkpt><trkpt lat="43.37514351315899" lon="12.483558804262584"><ele>402.0</ele><time>2026-04-25T09:14:20.999Z</time></trkpt><trkpt lat="43.375306927098634" lon="12.483835942843761"><ele>403.5</ele><time>2026-04-25T09:14:21.999Z</time></trkpt><trkpt lat="43.375470369004745" lon="12.484118765521083"><ele>405.0</ele><time>2026-04-25T09:14:22.999Z</time></trkpt><trkpt lat="43.37563862295669" lon="12.484404193598404"><ele>401.5</ele><time>2026-04-25T09:14:23.999Z</time></trkpt><trkpt lat="43.37580744762687" lon="12.48469303431203"><ele>398.0</ele><time>2026-04-25T09:14:24.999Z</time></trkpt><trkpt lat="43.37597718543458" lon="12.484988477034621"><ele>398.0</ele><time>2026-04-25T09:14:25.999Z</time></trkpt><trkpt lat="43.37614982035718" lon="12.485282810706888"><ele>398.0</ele><time>2026-04-25T09:14:26.999Z</time></trkpt><trkpt lat="43.37632349286632" lon="12.485572794757049"><ele>399.0</ele><time>2026-04-25T09:14:27.999Z</time></trkpt><trkpt lat="43.376495807682986" lon="12.485866431230264"><ele>400.0</ele><time>2026-04-25T09:14:28.999Z</time></trkpt><trkpt lat="43.3766652588692" lon="12.4861590163625"><ele>400.0</ele><time>2026-04-25T09:14:29.998Z</time></trkpt><trkpt lat="43.37682577091935" lon="12.486427987670563"><ele>400.0</ele><time>2026-04-25T09:14:30.998Z</time></trkpt><trkpt lat="43.3769753616691" lon="12.486680088722071"><ele>400.0</ele><time>2026-04-25T09:14:31.998Z</time></trkpt><trkpt lat="43.37712049961749" lon="12.486908636968513"><ele>400.0</ele><time>2026-04-25T09:14:32.998Z</time></trkpt><trkpt lat="43.377254052761145" lon="12.487127924904595"><ele>400.0</ele><time>2026-04-25T09:14:33.998Z</time></trkpt><trkpt lat="43.37738096685565" lon="12.487337344082569"><ele>400.6666666666667</ele><time>2026-04-25T09:14:34.998Z</time></trkpt><trkpt lat="43.37749750018562" lon="12.487543305006195"><ele>401.33333333333337</ele><time>2026-04-25T09:14:35.998Z</time></trkpt><trkpt lat="43.377579689551354" lon="12.48776765469492"><ele>402.0</ele><time>2026-04-25T09:14:36.998Z</time></trkpt><trkpt lat="43.37762037111565" lon="12.488016460046639"><ele>402.0</ele><time>2026-04-25T09:14:37.998Z</time></trkpt><trkpt lat="43.37762490547283" lon="12.488281678414436"><ele>402.0</ele><time>2026-04-25T09:14:38.998Z</time></trkpt><trkpt lat="43.377590703702865" lon="12.488547146700784"><ele>402.0</ele><time>2026-04-25T09:14:39.998Z</time></trkpt><trkpt lat="43.377526844771936" lon="12.488819132833695"><ele>402.66666666666663</ele><time>2026-04-25T09:14:40.998Z</time></trkpt><trkpt lat="43.377460153147794" lon="12.489098191895355"><ele>403.3333333333333</ele><time>2026-04-25T09:14:41.998Z</time></trkpt><trkpt lat="43.37739988773026" lon="12.489387943349437"><ele>404.0</ele><time>2026-04-25T09:14:42.998Z</time></trkpt><trkpt lat="43.37734509585591" lon="12.489689141327883"><ele>405.3333333333333</ele><time>2026-04-25T09:14:43.998Z</time></trkpt><trkpt lat="43.37728417711646" lon="12.489982330251333"><ele>406.66666666666663</ele><time>2026-04-25T09:14:44.998Z</time></trkpt><trkpt lat="43.377225882904405" lon="12.490268917423817"><ele>408.0</ele><time>2026-04-25T09:14:45.998Z</time></trkpt><trkpt lat="43.3771754515121" lon="12.490536574761155"><ele>409.33333333333337</ele><time>2026-04-25T09:14:46.998Z</time></trkpt><trkpt lat="43.37713917307631" lon="12.490790692293016"><ele>410.6666666666667</ele><time>2026-04-25T09:14:47.998Z</time></trkpt><trkpt lat="43.37713866709079" lon="12.491041765289639"><ele>412.0</ele><time>2026-04-25T09:14:48.998Z</time></trkpt><trkpt lat="43.37717672388056" lon="12.491297510113471"><ele>411.33333333333337</ele><time>2026-04-25T09:14:49.998Z</time></trkpt><trkpt lat="43.37725015919899" lon="12.491556942014617"><ele>410.66666666666663</ele><time>2026-04-25T09:14:50.998Z</time></trkpt><trkpt lat="43.37734818536957" lon="12.49180511233917"><ele>410.0</ele><time>2026-04-25T09:14:51.998Z</time></trkpt><trkpt lat="43.37744551185876" lon="12.492049871089446"><ele>410.0</ele><time>2026-04-25T09:14:52.998Z</time></trkpt><trkpt lat="43.37752616990981" lon="12.492279442580395"><ele>410.0</ele><time>2026-04-25T09:14:53.998Z</time></trkpt><trkpt lat="43.377598542582454" lon="12.492479796792205"><ele>410.0</ele><time>2026-04-25T09:14:54.998Z</time></trkpt><trkpt lat="43.37766259664259" lon="12.492652244102045"><ele>410.0</ele><time>2026-04-25T09:14:55.998Z</time></trkpt><trkpt lat="43.37771170294266" lon="12.492795571153065"><ele>410.0</ele><time>2026-04-25T09:14:56.998Z</time></trkpt><trkpt lat="43.377746662766135" lon="12.492903320204098"><ele>410.0</ele><time>2026-04-25T09:14:57.998Z</time></trkpt><trkpt lat="43.37774134249901" lon="12.493067226285136"><ele>410.0</ele><time>2026-04-25T09:14:59.998Z</time></trkpt><trkpt lat="43.37765551053366" lon="12.493201934548345"><ele>410.5</ele><time>2026-04-25T09:15:01.998Z</time></trkpt><trkpt lat="43.377578229971846" lon="12.49323880608231"><ele>411.0</ele><time>2026-04-25T09:15:02.998Z</time></trkpt><trkpt lat="43.37747084895022" lon="12.49323354714598"><ele>411.5</ele><time>2026-04-25T09:15:03.998Z</time></trkpt><trkpt lat="43.377343105885686" lon="12.493198663006854"><ele>412.0</ele><time>2026-04-25T09:15:04.998Z</time></trkpt><trkpt lat="43.377201055217746" lon="12.493161766085104"><ele>411.6666666666667</ele><time>2026-04-25T09:15:05.998Z</time></trkpt><trkpt lat="43.3770437301493" lon="12.493126461208211"><ele>411.33333333333337</ele><time>2026-04-25T09:15:06.998Z</time></trkpt><trkpt lat="43.37687324295634" lon="12.493083846500339"><ele>411.0</ele><time>2026-04-25T09:15:07.998Z</time></trkpt><trkpt lat="43.37668577684035" lon="12.493037926587334"><ele>411.0</ele><time>2026-04-25T09:15:08.998Z</time></trkpt><trkpt lat="43.37650504714512" lon="12.492991599677987"><ele>411.0</ele><time>2026-04-25T09:15:09.998Z</time></trkpt><trkpt lat="43.37637390845159" lon="12.493009296052977"><ele>411.0</ele><time>2026-04-25T09:15:10.998Z</time></trkpt><trkpt lat="43.37624708822593" lon="12.49307743764736"><ele>411.5</ele><time>2026-04-25T09:15:12Z</time></trkpt><trkpt lat="43.37614215335898" lon="12.493201339648815"><ele>412.0</ele><time>2026-04-25T09:15:13Z</time></trkpt><trkpt lat="43.376068148897275" lon="12.493369253152444"><ele>412.5</ele><time>2026-04-25T09:15:14Z</time></trkpt><trkpt lat="43.37603777302317" lon="12.493561856588222"><ele>413.0</ele><time>2026-04-25T09:15:15Z</time></trkpt><trkpt lat="43.37605942322047" lon="12.493753510397692"><ele>413.0</ele><time>2026-04-25T09:15:16Z</time></trkpt><trkpt lat="43.376125867994155" lon="12.493935166441398"><ele>413.0</ele><time>2026-04-25T09:15:17Z</time></trkpt><trkpt lat="43.37624113802641" lon="12.494085618250349"><ele>413.0</ele><time>2026-04-25T09:15:18Z</time></trkpt><trkpt lat="43.37638361407106" lon="12.494201900671897"><ele>412.66666666666663</ele><time>2026-04-25T09:15:19Z</time></trkpt><trkpt lat="43.37652252100858" lon="12.494329459257184"><ele>412.33333333333337</ele><time>2026-04-25T09:15:20Z</time></trkpt><trkpt lat="43.37663279603303" lon="12.494503777904256"><ele>412.0</ele><time>2026-04-25T09:15:21Z</time></trkpt><trkpt lat="43.37670764246593" lon="12.494717101134219"><ele>412.0</ele><time>2026-04-25T09:15:22Z</time></trkpt><trkpt lat="43.376736272232954" lon="12.494933477669344"><ele>412.0</ele><time>2026-04-25T09:15:23Z</time></trkpt><trkpt lat="43.37672575055481" lon="12.495166349868487"><ele>412.0</ele><time>2026-04-25T09:15:24Z</time></trkpt><trkpt lat="43.37669679571695" lon="12.495413653483148"><ele>412.0</ele><time>2026-04-25T09:15:25Z</time></trkpt><trkpt lat="43.37666948429872" lon="12.495677778777289"><ele>412.0</ele><time>2026-04-25T09:15:26Z</time></trkpt><trkpt lat="43.37664359672008" lon="12.49595836497985"><ele>412.0</ele><time>2026-04-25T09:15:27Z</time></trkpt><trkpt lat="43.37661610636793" lon="12.496252165100296"><ele>411.5</ele><time>2026-04-25T09:15:28Z</time></trkpt><trkpt lat="43.376582347271075" lon="12.49655780315689"><ele>411.0</ele><time>2026-04-25T09:15:29Z</time></trkpt><trkpt lat="43.37654587082826" lon="12.496873040704257"><ele>410.5</ele><time>2026-04-25T09:15:30Z</time></trkpt><trkpt lat="43.376510915696954" lon="12.497195409586222"><ele>410.0</ele><time>2026-04-25T09:15:31Z</time></trkpt><trkpt lat="43.37647143492885" lon="12.49752211227601"><ele>410.0</ele><time>2026-04-25T09:15:32Z</time></trkpt><trkpt lat="43.37641815863581" lon="12.497842055625117"><ele>410.0</ele><time>2026-04-25T09:15:33Z</time></trkpt><trkpt lat="43.37635989820666" lon="12.498153214412397"><ele>411.0</ele><time>2026-04-25T09:15:33.999Z</time></trkpt><trkpt lat="43.376291640581286" lon="12.498469232421948"><ele>412.0</ele><time>2026-04-25T09:15:34.999Z</time></trkpt><trkpt lat="43.37621495325669" lon="12.498782020940032"><ele>412.0</ele><time>2026-04-25T09:15:35.999Z</time></trkpt><trkpt lat="43.37612398982015" lon="12.499099180695254"><ele>412.0</ele><time>2026-04-25T09:15:36.999Z</time></trkpt><trkpt lat="43.376012830761375" lon="12.499409014617942"><ele>411.5</ele><time>2026-04-25T09:15:37.999Z</time></trkpt><trkpt lat="43.37588339869624" lon="12.499713746034619"><ele>411.0</ele><time>2026-04-25T09:15:38.999Z</time></trkpt><trkpt lat="43.37574490995595" lon="12.500014556810223"><ele>411.0</ele><time>2026-04-25T09:15:39.999Z</time></trkpt><trkpt lat="43.37559898254533" lon="12.500309417775613"><ele>411.0</ele><time>2026-04-25T09:15:40.999Z</time></trkpt><trkpt lat="43.375449492633436" lon="12.500603006237323"><ele>411.0</ele><time>2026-04-25T09:15:41.999Z</time></trkpt><trkpt lat="43.37529644692033" lon="12.500897529493907"><ele>411.0</ele><time>2026-04-25T09:15:42.999Z</time></trkpt><trkpt lat="43.37514223464385" lon="12.501192612226147"><ele>411.0</ele><time>2026-04-25T09:15:43.999Z</time></trkpt><trkpt lat="43.37498546819048" lon="12.50148884446995"><ele>411.0</ele><time>2026-04-25T09:15:44.999Z</time></trkpt><trkpt lat="43.37482912620488" lon="12.501786202509722"><ele>408.5</ele><time>2026-04-25T09:15:45.999Z</time></trkpt><trkpt lat="43.374670651612355" lon="12.50208401107146"><ele>406.0</ele><time>2026-04-25T09:15:46.999Z</time></trkpt><trkpt lat="43.374513036049066" lon="12.50238320473424"><ele>406.0</ele><time>2026-04-25T09:15:47.999Z</time></trkpt><trkpt lat="43.37435733376398" lon="12.502685244189573"><ele>406.0</ele><time>2026-04-25T09:15:48.999Z</time></trkpt><trkpt lat="43.37420187837145" lon="12.502986013467096"><ele>405.5</ele><time>2026-04-25T09:15:49.999Z</time></trkpt><trkpt lat="43.37404055711778" lon="12.503286968547947"><ele>405.0</ele><time>2026-04-25T09:15:50.999Z</time></trkpt><trkpt lat="43.37387974211554" lon="12.503586469638654"><ele>404.0</ele><time>2026-04-25T09:15:51.999Z</time></trkpt><trkpt lat="43.373722096138934" lon="12.503886950955843"><ele>403.0</ele><time>2026-04-25T09:15:52.999Z</time></trkpt><trkpt lat="43.37356448079907" lon="12.504188738188853"><ele>403.0</ele><time>2026-04-25T09:15:53.999Z</time></trkpt><trkpt lat="43.37340609263632" lon="12.504491712158048"><ele>403.0</ele><time>2026-04-25T09:15:54.999Z</time></trkpt><trkpt lat="43.37324857891005" lon="12.504794375541865"><ele>403.5</ele><time>2026-04-25T09:15:55.999Z</time></trkpt><trkpt lat="43.37308783621608" lon="12.505098013147599"><ele>404.0</ele><time>2026-04-25T09:15:56.999Z</time></trkpt><trkpt lat="43.372925798613984" lon="12.505399687920166"><ele>402.0</ele><time>2026-04-25T09:15:57.999Z</time></trkpt><trkpt lat="43.37276719553353" lon="12.505707043252345"><ele>400.0</ele><time>2026-04-25T09:15:58.999Z</time></trkpt><trkpt lat="43.37260607898258" lon="12.506014545237118"><ele>399.5</ele><time>2026-04-25T09:15:59.999Z</time></trkpt><trkpt lat="43.37244583399226" lon="12.506323696492377"><ele>399.0</ele><time>2026-04-25T09:16:00.999Z</time></trkpt><trkpt lat="43.372280067347695" lon="12.506626762099923"><ele>398.5</ele><time>2026-04-25T09:16:01.999Z</time></trkpt><trkpt lat="43.372114737842814" lon="12.50693138712271"><ele>398.0</ele><time>2026-04-25T09:16:02.999Z</time></trkpt><trkpt lat="43.37194932442549" lon="12.507233691512841"><ele>398.0</ele><time>2026-04-25T09:16:03.999Z</time></trkpt><trkpt lat="43.3717847922034" lon="12.507534796006027"><ele>398.0</ele><time>2026-04-25T09:16:04.999Z</time></trkpt><trkpt lat="43.37161870447365" lon="12.507831418702196"><ele>398.5</ele><time>2026-04-25T09:16:05.999Z</time></trkpt><trkpt lat="43.37144816082574" lon="12.508118784284143"><ele>399.0</ele><time>2026-04-25T09:16:06.999Z</time></trkpt><trkpt lat="43.37128342237921" lon="12.508404462024588"><ele>399.0</ele><time>2026-04-25T09:16:07.999Z</time></trkpt><trkpt lat="43.37112153141269" lon="12.508686703642352"><ele>399.0</ele><time>2026-04-25T09:16:08.999Z</time></trkpt><trkpt lat="43.37095573830629" lon="12.50896328463331"><ele>400.0</ele><time>2026-04-25T09:16:09.999Z</time></trkpt><trkpt lat="43.370787834657456" lon="12.5092397854894"><ele>401.0</ele><time>2026-04-25T09:16:10.999Z</time></trkpt><trkpt lat="43.37062325486417" lon="12.509516280724863"><ele>399.5</ele><time>2026-04-25T09:16:11.999Z</time></trkpt><trkpt lat="43.370456274024" lon="12.509791955216432"><ele>398.0</ele><time>2026-04-25T09:16:12.999Z</time></trkpt><trkpt lat="43.37028785958446" lon="12.510064829038887"><ele>398.0</ele><time>2026-04-25T09:16:13.999Z</time></trkpt><trkpt lat="43.37012149850345" lon="12.510333115449482"><ele>398.0</ele><time>2026-04-25T09:16:14.999Z</time></trkpt><trkpt lat="43.36995334660335" lon="12.510604479960504"><ele>399.5</ele><time>2026-04-25T09:16:15.999Z</time></trkpt><trkpt lat="43.36978531909343" lon="12.510877008966073"><ele>401.0</ele><time>2026-04-25T09:16:16.999Z</time></trkpt><trkpt lat="43.36961899732394" lon="12.511151474576522"><ele>401.0</ele><time>2026-04-25T09:16:17.999Z</time></trkpt><trkpt lat="43.36945472073985" lon="12.51142771681869"><ele>401.0</ele><time>2026-04-25T09:16:18.999Z</time></trkpt><trkpt lat="43.369294121268595" lon="12.511708940205722"><ele>401.0</ele><time>2026-04-25T09:16:19.999Z</time></trkpt><trkpt lat="43.3691328549393" lon="12.511993373982362"><ele>401.0</ele><time>2026-04-25T09:16:20.999Z</time></trkpt><trkpt lat="43.36896641656653" lon="12.512276923071624"><ele>401.5</ele><time>2026-04-25T09:16:21.999Z</time></trkpt><trkpt lat="43.36879921474686" lon="12.51256288743815"><ele>402.0</ele><time>2026-04-25T09:16:22.999Z</time></trkpt><trkpt lat="43.36863519728175" lon="12.512855578755772"><ele>402.5</ele><time>2026-04-25T09:16:23.999Z</time></trkpt><trkpt lat="43.36846978424607" lon="12.513155505566344"><ele>403.0</ele><time>2026-04-25T09:16:24.999Z</time></trkpt><trkpt lat="43.36830531178605" lon="12.51345974725458"><ele>403.5</ele><time>2026-04-25T09:16:25.999Z</time></trkpt><trkpt lat="43.36814054648961" lon="12.513768370969403"><ele>404.0</ele><time>2026-04-25T09:16:26.999Z</time></trkpt><trkpt lat="43.36797535385426" lon="12.514077567349249"><ele>404.0</ele><time>2026-04-25T09:16:27.999Z</time></trkpt><trkpt lat="43.36781270090823" lon="12.514387879373768"><ele>404.0</ele><time>2026-04-25T09:16:28.999Z</time></trkpt><trkpt lat="43.36765138745922" lon="12.514699653051979"><ele>404.0</ele><time>2026-04-25T09:16:29.999Z</time></trkpt><trkpt lat="43.36749080884682" lon="12.515012537651666"><ele>404.0</ele><time>2026-04-25T09:16:30.999Z</time></trkpt><trkpt lat="43.36733141836326" lon="12.51532295492342"><ele>404.5</ele><time>2026-04-25T09:16:31.999Z</time></trkpt><trkpt lat="43.367175188552075" lon="12.515634818951606"><ele>405.0</ele><time>2026-04-25T09:16:32.999Z</time></trkpt><trkpt lat="43.3670221293514" lon="12.515948021364284"><ele>406.5</ele><time>2026-04-25T09:16:33.999Z</time></trkpt><trkpt lat="43.36686818129667" lon="12.516260253322946"><ele>408.0</ele><time>2026-04-25T09:16:34.999Z</time></trkpt><trkpt lat="43.366716110310314" lon="12.516573546111085"><ele>408.0</ele><time>2026-04-25T09:16:35.999Z</time></trkpt><trkpt lat="43.366564660242965" lon="12.516886894982138"><ele>408.0</ele><time>2026-04-25T09:16:36.999Z</time></trkpt><trkpt lat="43.366413878421454" lon="12.517199651685008"><ele>409.0</ele><time>2026-04-25T09:16:37.999Z</time></trkpt><trkpt lat="43.36626268239023" lon="12.517512652693814"><ele>410.0</ele><time>2026-04-25T09:16:38.998Z</time></trkpt><trkpt lat="43.36611224315675" lon="12.51782584623422"><ele>410.0</ele><time>2026-04-25T09:16:39.998Z</time></trkpt><trkpt lat="43.36595711413265" lon="12.518136750255048"><ele>410.0</ele><time>2026-04-25T09:16:40.998Z</time></trkpt><trkpt lat="43.36580113152507" lon="12.518446064246076"><ele>410.5</ele><time>2026-04-25T09:16:41.998Z</time></trkpt><trkpt lat="43.36564441208528" lon="12.518754410135896"><ele>411.0</ele><time>2026-04-25T09:16:42.998Z</time></trkpt><trkpt lat="43.365486876683036" lon="12.51906476046837"><ele>411.0</ele><time>2026-04-25T09:16:43.998Z</time></trkpt><trkpt lat="43.36532743591186" lon="12.519373270967785"><ele>411.0</ele><time>2026-04-25T09:16:44.998Z</time></trkpt><trkpt lat="43.36516529376612" lon="12.519681340475117"><ele>412.5</ele><time>2026-04-25T09:16:45.998Z</time></trkpt><trkpt lat="43.36500125016364" lon="12.519987752287715"><ele>414.0</ele><time>2026-04-25T09:16:46.998Z</time></trkpt><trkpt lat="43.36483608081327" lon="12.520294077035782"><ele>414.0</ele><time>2026-04-25T09:16:47.998Z</time></trkpt><trkpt lat="43.364668654051414" lon="12.520598968829567"><ele>414.0</ele><time>2026-04-25T09:16:48.998Z</time></trkpt><trkpt lat="43.364500752674374" lon="12.520906757444836"><ele>414.0</ele><time>2026-04-25T09:16:49.998Z</time></trkpt><trkpt lat="43.36433141429799" lon="12.521213357668545"><ele>414.0</ele><time>2026-04-25T09:16:50.998Z</time></trkpt><trkpt lat="43.36416044163037" lon="12.52151982715204"><ele>414.5</ele><time>2026-04-25T09:16:51.998Z</time></trkpt><trkpt lat="43.363986636829154" lon="12.521823859167204"><ele>415.0</ele><time>2026-04-25T09:16:52.998Z</time></trkpt><trkpt lat="43.36381185654938" lon="12.522126869585662"><ele>415.0</ele><time>2026-04-25T09:16:53.998Z</time></trkpt><trkpt lat="43.363638588662035" lon="12.52242938790682"><ele>415.0</ele><time>2026-04-25T09:16:54.998Z</time></trkpt><trkpt lat="43.363464206498634" lon="12.522734108890463"><ele>416.5</ele><time>2026-04-25T09:16:55.998Z</time></trkpt><trkpt lat="43.36328994696262" lon="12.523039801866684"><ele>418.0</ele><time>2026-04-25T09:16:56.998Z</time></trkpt><trkpt lat="43.363113753464845" lon="12.52334702410489"><ele>418.0</ele><time>2026-04-25T09:16:57.998Z</time></trkpt><trkpt lat="43.36293748261536" lon="12.523655604033095"><ele>418.0</ele><time>2026-04-25T09:16:58.998Z</time></trkpt><trkpt lat="43.362761297026104" lon="12.523965858081018"><ele>419.5</ele><time>2026-04-25T09:16:59.998Z</time></trkpt><trkpt lat="43.36258392845161" lon="12.524275703237032"><ele>421.0</ele><time>2026-04-25T09:17:00.998Z</time></trkpt><trkpt lat="43.362406059815335" lon="12.524589445826537"><ele>421.0</ele><time>2026-04-25T09:17:01.998Z</time></trkpt><trkpt lat="43.36222726964375" lon="12.524900776627716"><ele>421.0</ele><time>2026-04-25T09:17:02.998Z</time></trkpt><trkpt lat="43.36205156268933" lon="12.525211905746431"><ele>421.5</ele><time>2026-04-25T09:17:03.998Z</time></trkpt><trkpt lat="43.361875833222875" lon="12.525521297761397"><ele>422.0</ele><time>2026-04-25T09:17:04.998Z</time></trkpt><trkpt lat="43.361699646139755" lon="12.525832546229648"><ele>422.0</ele><time>2026-04-25T09:17:05.998Z</time></trkpt><trkpt lat="43.361523436561605" lon="12.526142441959557"><ele>422.0</ele><time>2026-04-25T09:17:06.998Z</time></trkpt><trkpt lat="43.36134749283988" lon="12.526449262909866"><ele>423.5</ele><time>2026-04-25T09:17:07.998Z</time></trkpt><trkpt lat="43.36117328845344" lon="12.526754333304304"><ele>425.0</ele><time>2026-04-25T09:17:08.998Z</time></trkpt><trkpt lat="43.36100142819067" lon="12.527058734468447"><ele>425.5</ele><time>2026-04-25T09:17:09.998Z</time></trkpt><trkpt lat="43.360825557014344" lon="12.527364724153284"><ele>426.0</ele><time>2026-04-25T09:17:10.998Z</time></trkpt><trkpt lat="43.360652839018016" lon="12.527670334311452"><ele>426.5</ele><time>2026-04-25T09:17:11.998Z</time></trkpt><trkpt lat="43.36047971259076" lon="12.527975245895412"><ele>427.0</ele><time>2026-04-25T09:17:12.998Z</time></trkpt><trkpt lat="43.36030555055973" lon="12.52827888139491"><ele>427.0</ele><time>2026-04-25T09:17:13.998Z</time></trkpt><trkpt lat="43.36013167363184" lon="12.52858365758317"><ele>427.0</ele><time>2026-04-25T09:17:14.998Z</time></trkpt><trkpt lat="43.35995836850065" lon="12.528888218071067"><ele>427.5</ele><time>2026-04-25T09:17:15.998Z</time></trkpt><trkpt lat="43.35978545856961" lon="12.529193668419149"><ele>428.0</ele><time>2026-04-25T09:17:16.998Z</time></trkpt><trkpt lat="43.35961166946518" lon="12.529498527254013"><ele>429.0</ele><time>2026-04-25T09:17:18Z</time></trkpt><trkpt lat="43.35943583171063" lon="12.529800649323567"><ele>430.0</ele><time>2026-04-25T09:17:19Z</time></trkpt><trkpt lat="43.359263599225436" lon="12.530106205291913"><ele>432.0</ele><time>2026-04-25T09:17:20Z</time></trkpt><trkpt lat="43.35908983735963" lon="12.530410247792183"><ele>434.0</ele><time>2026-04-25T09:17:21Z</time></trkpt><trkpt lat="43.358916066132586" lon="12.53071357598377"><ele>432.5</ele><time>2026-04-25T09:17:22Z</time></trkpt><trkpt lat="43.35874261889267" lon="12.531016220613642"><ele>431.0</ele><time>2026-04-25T09:17:23Z</time></trkpt><trkpt lat="43.35857442567876" lon="12.531321559421642"><ele>431.0</ele><time>2026-04-25T09:17:24Z</time></trkpt><trkpt lat="43.358415331124895" lon="12.531632510620456"><ele>431.0</ele><time>2026-04-25T09:17:25Z</time></trkpt><trkpt lat="43.35826612243796" lon="12.53195093008676"><ele>433.0</ele><time>2026-04-25T09:17:26Z</time></trkpt><trkpt lat="43.35812640382595" lon="12.532280507024625"><ele>435.0</ele><time>2026-04-25T09:17:27Z</time></trkpt><trkpt lat="43.358001820763995" lon="12.532621742435968"><ele>435.0</ele><time>2026-04-25T09:17:28Z</time></trkpt><trkpt lat="43.357894962472905" lon="12.532975093925545"><ele>435.0</ele><time>2026-04-25T09:17:29Z</time></trkpt><trkpt lat="43.35780491315579" lon="12.533335768522516"><ele>435.0</ele><time>2026-04-25T09:17:30Z</time></trkpt><trkpt lat="43.357728391090575" lon="12.533704348040459"><ele>435.0</ele><time>2026-04-25T09:17:31Z</time></trkpt><trkpt lat="43.35766545782832" lon="12.534077680647187"><ele>436.0</ele><time>2026-04-25T09:17:32Z</time></trkpt><trkpt lat="43.35761411195961" lon="12.534454837225432"><ele>437.0</ele><time>2026-04-25T09:17:33Z</time></trkpt><trkpt lat="43.35756242629098" lon="12.534827664422044"><ele>437.0</ele><time>2026-04-25T09:17:34Z</time></trkpt><trkpt lat="43.35751549203117" lon="12.535199941361146"><ele>437.0</ele><time>2026-04-25T09:17:35Z</time></trkpt><trkpt lat="43.357470784515016" lon="12.535570940454411"><ele>438.5</ele><time>2026-04-25T09:17:36Z</time></trkpt><trkpt lat="43.35742860677328" lon="12.53593785632069"><ele>440.0</ele><time>2026-04-25T09:17:37Z</time></trkpt><trkpt lat="43.35738097779757" lon="12.536304177334298"><ele>440.5</ele><time>2026-04-25T09:17:38Z</time></trkpt><trkpt lat="43.3573331525945" lon="12.536673662649791"><ele>441.0</ele><time>2026-04-25T09:17:38.999Z</time></trkpt><trkpt lat="43.35728475481526" lon="12.537043140798486"><ele>441.0</ele><time>2026-04-25T09:17:39.999Z</time></trkpt><trkpt lat="43.35724100689335" lon="12.53741090501932"><ele>441.0</ele><time>2026-04-25T09:17:40.999Z</time></trkpt><trkpt lat="43.35719408584535" lon="12.537780158992144"><ele>443.0</ele><time>2026-04-25T09:17:41.999Z</time></trkpt><trkpt lat="43.357147631580894" lon="12.538148174344693"><ele>445.0</ele><time>2026-04-25T09:17:42.999Z</time></trkpt><trkpt lat="43.35710164668458" lon="12.538513649571247"><ele>446.0</ele><time>2026-04-25T09:17:43.999Z</time></trkpt><trkpt lat="43.357052851478485" lon="12.538879761673686"><ele>447.0</ele><time>2026-04-25T09:17:44.999Z</time></trkpt><trkpt lat="43.35700456015886" lon="12.539245180888267"><ele>446.5</ele><time>2026-04-25T09:17:45.999Z</time></trkpt><trkpt lat="43.35695791090724" lon="12.539614494500796"><ele>446.0</ele><time>2026-04-25T09:17:46.999Z</time></trkpt><trkpt lat="43.35691192956577" lon="12.539984592104426"><ele>446.0</ele><time>2026-04-25T09:17:47.999Z</time></trkpt><trkpt lat="43.35686408540509" lon="12.540354491754917"><ele>446.0</ele><time>2026-04-25T09:17:48.999Z</time></trkpt><trkpt lat="43.35681658415712" lon="12.540725241619292"><ele>447.5</ele><time>2026-04-25T09:17:49.999Z</time></trkpt><trkpt lat="43.35676959211124" lon="12.541096496210638"><ele>449.0</ele><time>2026-04-25T09:17:50.999Z</time></trkpt><trkpt lat="43.35672271536932" lon="12.541466126217856"><ele>449.5</ele><time>2026-04-25T09:17:51.999Z</time></trkpt><trkpt lat="43.35667686212505" lon="12.541835312035674"><ele>450.0</ele><time>2026-04-25T09:17:52.999Z</time></trkpt><trkpt lat="43.356631318740575" lon="12.542203931866865"><ele>451.0</ele><time>2026-04-25T09:17:53.999Z</time></trkpt><trkpt lat="43.35658439205291" lon="12.542571353327542"><ele>452.0</ele><time>2026-04-25T09:17:54.999Z</time></trkpt><trkpt lat="43.35653714404729" lon="12.542938419618169"><ele>452.5</ele><time>2026-04-25T09:17:55.999Z</time></trkpt><trkpt lat="43.356488352314386" lon="12.543310722293283"><ele>453.0</ele><time>2026-04-25T09:17:56.999Z</time></trkpt><trkpt lat="43.356440539326094" lon="12.543684956175557"><ele>453.0</ele><time>2026-04-25T09:17:57.999Z</time></trkpt><trkpt lat="43.356392752955905" lon="12.544060334299502"><ele>453.0</ele><time>2026-04-25T09:17:58.999Z</time></trkpt><trkpt lat="43.35634437996951" lon="12.544438242785334"><ele>453.0</ele><time>2026-04-25T09:17:59.999Z</time></trkpt><trkpt lat="43.356297425007554" lon="12.544816247141"><ele>453.0</ele><time>2026-04-25T09:18:00.999Z</time></trkpt><trkpt lat="43.35624968177024" lon="12.545195067488823"><ele>454.5</ele><time>2026-04-25T09:18:01.999Z</time></trkpt><trkpt lat="43.356203379403375" lon="12.545567974177429"><ele>456.0</ele><time>2026-04-25T09:18:02.999Z</time></trkpt><trkpt lat="43.35616003670568" lon="12.545915513479226"><ele>456.0</ele><time>2026-04-25T09:18:03.999Z</time></trkpt><trkpt lat="43.35611832736491" lon="12.546249300810153"><ele>456.0</ele><time>2026-04-25T09:18:04.999Z</time></trkpt><trkpt lat="43.35607583757885" lon="12.546571547838644"><ele>456.0</ele><time>2026-04-25T09:18:05.999Z</time></trkpt><trkpt lat="43.35603134413586" lon="12.546896487993024"><ele>456.0</ele><time>2026-04-25T09:18:06.999Z</time></trkpt><trkpt lat="43.355988650643646" lon="12.547222204241033"><ele>456.33333333333337</ele><time>2026-04-25T09:18:07.999Z</time></trkpt><trkpt lat="43.35594372629218" lon="12.547527923189312"><ele>456.6666666666667</ele><time>2026-04-25T09:18:08.999Z</time></trkpt><trkpt lat="43.355893717655725" lon="12.547816560994509"><ele>457.0</ele><time>2026-04-25T09:18:09.999Z</time></trkpt><trkpt lat="43.355839504176956" lon="12.54809112398839"><ele>458.33333333333337</ele><time>2026-04-25T09:18:10.999Z</time></trkpt><trkpt lat="43.35578869409587" lon="12.548340507450265"><ele>459.66666666666663</ele><time>2026-04-25T09:18:11.999Z</time></trkpt><trkpt lat="43.35574696756915" lon="12.548565073449156"><ele>461.0</ele><time>2026-04-25T09:18:12.999Z</time></trkpt><trkpt lat="43.35569334381271" lon="12.548768096389427"><ele>461.25</ele><time>2026-04-25T09:18:13.999Z</time></trkpt><trkpt lat="43.35562248280554" lon="12.548942253111273"><ele>461.5</ele><time>2026-04-25T09:18:14.999Z</time></trkpt><trkpt lat="43.35553495707328" lon="12.549089076733432"><ele>461.75</ele><time>2026-04-25T09:18:15.999Z</time></trkpt><trkpt lat="43.35543591675939" lon="12.5491987544536"><ele>462.0</ele><time>2026-04-25T09:18:16.999Z</time></trkpt><trkpt lat="43.355320496735494" lon="12.549280947384204"><ele>460.75</ele><time>2026-04-25T09:18:17.999Z</time></trkpt><trkpt lat="43.355203172025384" lon="12.549327465119003"><ele>459.5</ele><time>2026-04-25T09:18:18.999Z</time></trkpt><trkpt lat="43.35508884749533" lon="12.549353757419313"><ele>458.25</ele><time>2026-04-25T09:18:19.999Z</time></trkpt><trkpt lat="43.35497044492907" lon="12.549352821880932"><ele>457.0</ele><time>2026-04-25T09:18:20.999Z</time></trkpt><trkpt lat="43.35485326641035" lon="12.549380615586427"><ele>457.0</ele><time>2026-04-25T09:18:21.999Z</time></trkpt><trkpt lat="43.35473451265881" lon="12.54939333104314"><ele>457.0</ele><time>2026-04-25T09:18:22.999Z</time></trkpt><trkpt lat="43.354622099408054" lon="12.549431352656711"><ele>457.0</ele><time>2026-04-25T09:18:23.999Z</time></trkpt><trkpt lat="43.35451671294028" lon="12.549492656267699"><ele>457.0</ele><time>2026-04-25T09:18:24.999Z</time></trkpt><trkpt lat="43.35442555202035" lon="12.549585537844125"><ele>457.0</ele><time>2026-04-25T09:18:25.999Z</time></trkpt><trkpt lat="43.354351304924236" lon="12.549707458498133"><ele>457.0</ele><time>2026-04-25T09:18:26.999Z</time></trkpt><trkpt lat="43.35429918701784" lon="12.54984925672616"><ele>457.0</ele><time>2026-04-25T09:18:27.999Z</time></trkpt><trkpt lat="43.35427620904183" lon="12.550008965910424"><ele>457.0</ele><time>2026-04-25T09:18:28.999Z</time></trkpt><trkpt lat="43.35428044888499" lon="12.550170425939744"><ele>457.0</ele><time>2026-04-25T09:18:29.999Z</time></trkpt><trkpt lat="43.35429626097587" lon="12.550316544120586"><ele>457.00000000000006</ele><time>2026-04-25T09:18:30.999Z</time></trkpt><trkpt lat="43.354338510394385" lon="12.550456064566294"><ele>457.00000000000006</ele><time>2026-04-25T09:18:31.999Z</time></trkpt><trkpt lat="43.35440498586529" lon="12.550577524641913"><ele>457.0</ele><time>2026-04-25T09:18:32.999Z</time></trkpt><trkpt lat="43.35449258044987" lon="12.550670682470644"><ele>457.0</ele><time>2026-04-25T09:18:33.999Z</time></trkpt><trkpt lat="43.35459165948043" lon="12.550736475322685"><ele>457.25</ele><time>2026-04-25T09:18:34.999Z</time></trkpt><trkpt lat="43.35469648323157" lon="12.550781794139455"><ele>457.5</ele><time>2026-04-25T09:18:35.999Z</time></trkpt><trkpt lat="43.35480698378412" lon="12.550808375479512"><ele>457.75</ele><time>2026-04-25T09:18:36.999Z</time></trkpt><trkpt lat="43.35491905450911" lon="12.550829479780093"><ele>458.0</ele><time>2026-04-25T09:18:37.999Z</time></trkpt><trkpt lat="43.35504130851696" lon="12.550842030488822"><ele>458.0</ele><time>2026-04-25T09:18:38.999Z</time></trkpt><trkpt lat="43.355171676560644" lon="12.550860790828414"><ele>458.0</ele><time>2026-04-25T09:18:39.999Z</time></trkpt><trkpt lat="43.35531606107135" lon="12.550880531230518"><ele>458.0</ele><time>2026-04-25T09:18:40.998Z</time></trkpt><trkpt lat="43.35547188863262" lon="12.550904218819928"><ele>458.0</ele><time>2026-04-25T09:18:41.998Z</time></trkpt><trkpt lat="43.35562020176871" lon="12.550929596370604"><ele>458.5</ele><time>2026-04-25T09:18:42.998Z</time></trkpt><trkpt lat="43.35575823734517" lon="12.550953184217052"><ele>459.0</ele><time>2026-04-25T09:18:43.998Z</time></trkpt><trkpt lat="43.35588975468054" lon="12.550972005138512"><ele>459.5</ele><time>2026-04-25T09:18:44.998Z</time></trkpt><trkpt lat="43.3560162204172" lon="12.550990632040088"><ele>460.0</ele><time>2026-04-25T09:18:45.998Z</time></trkpt><trkpt lat="43.356137350602125" lon="12.551007352021136"><ele>460.0</ele><time>2026-04-25T09:18:46.998Z</time></trkpt><trkpt lat="43.356247166526124" lon="12.551024022650576"><ele>460.0</ele><time>2026-04-25T09:18:47.998Z</time></trkpt><trkpt lat="43.35635214111297" lon="12.5510423526404"><ele>460.0</ele><time>2026-04-25T09:18:48.998Z</time></trkpt><trkpt lat="43.35645715095896" lon="12.551066478844492"><ele>460.0</ele><time>2026-04-25T09:18:49.998Z</time></trkpt><trkpt lat="43.356559053065816" lon="12.551080384060723"><ele>460.0</ele><time>2026-04-25T09:18:50.998Z</time></trkpt><trkpt lat="43.356660644590875" lon="12.551093216908795"><ele>460.6666666666667</ele><time>2026-04-25T09:18:51.998Z</time></trkpt><trkpt lat="43.35676049079636" lon="12.551107382870246"><ele>461.33333333333337</ele><time>2026-04-25T09:18:52.998Z</time></trkpt><trkpt lat="43.356849198019184" lon="12.55112263959374"><ele>462.0</ele><time>2026-04-25T09:18:53.998Z</time></trkpt><trkpt lat="43.35692865391105" lon="12.55113231809896"><ele>462.66666666666663</ele><time>2026-04-25T09:18:54.998Z</time></trkpt><trkpt lat="43.35699499610884" lon="12.551140912895157"><ele>463.3333333333333</ele><time>2026-04-25T09:18:55.998Z</time></trkpt><trkpt lat="43.35707112880319" lon="12.551103669068967"><ele>464.0</ele><time>2026-04-25T09:18:57.998Z</time></trkpt><trkpt lat="43.357026613909774" lon="12.551015321184797"><ele>464.0</ele><time>2026-04-25T09:18:59.998Z</time></trkpt><trkpt lat="43.35691361257686" lon="12.551028746576904"><ele>464.0</ele><time>2026-04-25T09:19:11.998Z</time></trkpt><trkpt lat="43.35682261476815" lon="12.551036458750001"><ele>464.0</ele><time>2026-04-25T09:19:12.998Z</time></trkpt><trkpt lat="43.356700814710074" lon="12.551033128885281"><ele>464.0</ele><time>2026-04-25T09:19:13.998Z</time></trkpt><trkpt lat="43.3565610865896" lon="12.551016420182624"><ele>464.0</ele><time>2026-04-25T09:19:14.998Z</time></trkpt><trkpt lat="43.35640504230989" lon="12.550992376561341"><ele>464.0</ele><time>2026-04-25T09:19:15.998Z</time></trkpt><trkpt lat="43.356230449333495" lon="12.550969819877851"><ele>464.0</ele><time>2026-04-25T09:19:16.998Z</time></trkpt><trkpt lat="43.356041398792975" lon="12.550941731867688"><ele>462.66666666666663</ele><time>2026-04-25T09:19:17.998Z</time></trkpt><trkpt lat="43.355846743127124" lon="12.550909320382802"><ele>461.33333333333337</ele><time>2026-04-25T09:19:18.998Z</time></trkpt><trkpt lat="43.35565488602942" lon="12.550878735499841"><ele>460.0</ele><time>2026-04-25T09:19:19.998Z</time></trkpt><trkpt lat="43.35547792682323" lon="12.550852312971822"><ele>459.5</ele><time>2026-04-25T09:19:20.998Z</time></trkpt><trkpt lat="43.355319968957424" lon="12.550826461626755"><ele>459.0</ele><time>2026-04-25T09:19:21.998Z</time></trkpt><trkpt lat="43.35517872502044" lon="12.550804198226615"><ele>458.5</ele><time>2026-04-25T09:19:22.998Z</time></trkpt><trkpt lat="43.35505459740597" lon="12.55078679307101"><ele>458.0</ele><time>2026-04-25T09:19:24Z</time></trkpt><trkpt lat="43.35494205486219" lon="12.550770735082546"><ele>458.0</ele><time>2026-04-25T09:19:25Z</time></trkpt><trkpt lat="43.35484659041938" lon="12.55075623547492"><ele>457.99999999999994</ele><time>2026-04-25T09:19:26Z</time></trkpt><trkpt lat="43.35475591577685" lon="12.550738177708249"><ele>457.99999999999994</ele><time>2026-04-25T09:19:27Z</time></trkpt><trkpt lat="43.35466810076852" lon="12.550713562556092"><ele>458.0</ele><time>2026-04-25T09:19:28Z</time></trkpt><trkpt lat="43.35458577580115" lon="12.55066466059135"><ele>458.0</ele><time>2026-04-25T09:19:29Z</time></trkpt><trkpt lat="43.35451054038565" lon="12.550610021439041"><ele>457.99999999999994</ele><time>2026-04-25T09:19:30Z</time></trkpt><trkpt lat="43.354448453884395" lon="12.550539086435327"><ele>458.0</ele><time>2026-04-25T09:19:31Z</time></trkpt><trkpt lat="43.35439495893926" lon="12.550452200735304"><ele>458.0</ele><time>2026-04-25T09:19:32Z</time></trkpt><trkpt lat="43.35436383050211" lon="12.550334021711205"><ele>458.0</ele><time>2026-04-25T09:19:33Z</time></trkpt><trkpt lat="43.35434161802761" lon="12.550218037664301"><ele>457.99999999999994</ele><time>2026-04-25T09:19:34Z</time></trkpt><trkpt lat="43.35433795390988" lon="12.550108815531173"><ele>458.0</ele><time>2026-04-25T09:19:35Z</time></trkpt><trkpt lat="43.35434413544728" lon="12.549990746653666"><ele>457.79999999999995</ele><time>2026-04-25T09:19:36Z</time></trkpt><trkpt lat="43.354368973330985" lon="12.549868145330988"><ele>457.59999999999997</ele><time>2026-04-25T09:19:37Z</time></trkpt><trkpt lat="43.354418159247096" lon="12.549747090005063"><ele>457.40000000000003</ele><time>2026-04-25T09:19:38Z</time></trkpt><trkpt lat="43.35448286216176" lon="12.549629737228852"><ele>457.20000000000005</ele><time>2026-04-25T09:19:39Z</time></trkpt><trkpt lat="43.354570225354706" lon="12.549534153311724"><ele>457.0</ele><time>2026-04-25T09:19:40Z</time></trkpt><trkpt lat="43.3546691441575" lon="12.54949776332577"><ele>457.0</ele><time>2026-04-25T09:19:40.999Z</time></trkpt><trkpt lat="43.35476625249893" lon="12.549470096278181"><ele>457.00000000000006</ele><time>2026-04-25T09:19:41.999Z</time></trkpt><trkpt lat="43.35486624727144" lon="12.549464903831598"><ele>457.00000000000006</ele><time>2026-04-25T09:19:42.999Z</time></trkpt><trkpt lat="43.35497093549567" lon="12.549481226507371"><ele>457.0</ele><time>2026-04-25T09:19:43.999Z</time></trkpt><trkpt lat="43.355069335753534" lon="12.549549758755633"><ele>457.0</ele><time>2026-04-25T09:19:44.999Z</time></trkpt><trkpt lat="43.3551460462326" lon="12.549642945233561"><ele>457.40000000000003</ele><time>2026-04-25T09:19:45.999Z</time></trkpt><trkpt lat="43.355203332516254" lon="12.549752831648746"><ele>457.80000000000007</ele><time>2026-04-25T09:19:46.999Z</time></trkpt><trkpt lat="43.35524159194242" lon="12.549880263924237"><ele>458.2</ele><time>2026-04-25T09:19:47.999Z</time></trkpt><trkpt lat="43.35525819711081" lon="12.550017093213857"><ele>458.6</ele><time>2026-04-25T09:19:48.999Z</time></trkpt><trkpt lat="43.3552567918428" lon="12.550154809631348"><ele>459.0</ele><time>2026-04-25T09:19:49.999Z</time></trkpt><trkpt lat="43.35523436774994" lon="12.550288603457165"><ele>458.75</ele><time>2026-04-25T09:19:50.999Z</time></trkpt><trkpt lat="43.35519109974392" lon="12.550419744291982"><ele>458.5</ele><time>2026-04-25T09:19:51.999Z</time></trkpt><trkpt lat="43.35514156329733" lon="12.550554953334961"><ele>458.25</ele><time>2026-04-25T09:19:52.999Z</time></trkpt><trkpt lat="43.35508499502921" lon="12.550696892254367"><ele>458.0</ele><time>2026-04-25T09:19:53.999Z</time></trkpt><trkpt lat="43.35501806841553" lon="12.55085123784059"><ele>458.0</ele><time>2026-04-25T09:19:54.999Z</time></trkpt><trkpt lat="43.354953907264594" lon="12.551015350220517"><ele>458.0</ele><time>2026-04-25T09:19:55.999Z</time></trkpt><trkpt lat="43.354876786422864" lon="12.551183667223183"><ele>458.0</ele><time>2026-04-25T09:19:56.999Z</time></trkpt><trkpt lat="43.35478786886932" lon="12.5513796209936"><ele>458.0</ele><time>2026-04-25T09:19:57.999Z</time></trkpt><trkpt lat="43.35468338515037" lon="12.55158522633181"><ele>458.3333333333333</ele><time>2026-04-25T09:19:58.999Z</time></trkpt><trkpt lat="43.35456222804061" lon="12.5517918904086"><ele>458.66666666666663</ele><time>2026-04-25T09:19:59.999Z</time></trkpt><trkpt lat="43.35443163886948" lon="12.552008572047713"><ele>459.0</ele><time>2026-04-25T09:20:00.999Z</time></trkpt><trkpt lat="43.35430567696467" lon="12.55224882206196"><ele>459.5</ele><time>2026-04-25T09:20:01.999Z</time></trkpt><trkpt lat="43.35418123818595" lon="12.55250784745115"><ele>460.0</ele><time>2026-04-25T09:20:02.999Z</time></trkpt><trkpt lat="43.354051621198245" lon="12.552776785699065"><ele>459.5</ele><time>2026-04-25T09:20:03.999Z</time></trkpt><trkpt lat="43.3539062103656" lon="12.55304870995953"><ele>459.0</ele><time>2026-04-25T09:20:04.999Z</time></trkpt><trkpt lat="43.35376140555381" lon="12.553316981382816"><ele>458.5</ele><time>2026-04-25T09:20:05.999Z</time></trkpt><trkpt lat="43.353620924719884" lon="12.553580092776022"><ele>458.0</ele><time>2026-04-25T09:20:06.999Z</time></trkpt><trkpt lat="43.35348211991171" lon="12.553827768845402"><ele>458.0</ele><time>2026-04-25T09:20:07.999Z</time></trkpt><trkpt lat="43.35335705121346" lon="12.554062043772246"><ele>458.0</ele><time>2026-04-25T09:20:08.999Z</time></trkpt><trkpt lat="43.35323123500609" lon="12.554289883273206"><ele>458.0</ele><time>2026-04-25T09:20:09.999Z</time></trkpt><trkpt lat="43.35310148982298" lon="12.55453337493574"><ele>458.5</ele><time>2026-04-25T09:20:10.999Z</time></trkpt><trkpt lat="43.35296727422471" lon="12.554797748435249"><ele>459.0</ele><time>2026-04-25T09:20:11.999Z</time></trkpt><trkpt lat="43.35282912582702" lon="12.55506697212685"><ele>459.0</ele><time>2026-04-25T09:20:12.999Z</time></trkpt><trkpt lat="43.3526766162967" lon="12.555332386789857"><ele>459.0</ele><time>2026-04-25T09:20:13.999Z</time></trkpt><trkpt lat="43.35251860820649" lon="12.555599257913677"><ele>459.0</ele><time>2026-04-25T09:20:14.999Z</time></trkpt><trkpt lat="43.35235366647059" lon="12.55587170309189"><ele>459.0</ele><time>2026-04-25T09:20:15.999Z</time></trkpt><trkpt lat="43.35219309100317" lon="12.55615752810366"><ele>457.5</ele><time>2026-04-25T09:20:16.999Z</time></trkpt><trkpt lat="43.35203144279629" lon="12.556446593693321"><ele>456.0</ele><time>2026-04-25T09:20:17.999Z</time></trkpt><trkpt lat="43.35186466780597" lon="12.556738886572758"><ele>456.0</ele><time>2026-04-25T09:20:18.999Z</time></trkpt><trkpt lat="43.35169679019417" lon="12.557033316381288"><ele>456.0</ele><time>2026-04-25T09:20:19.999Z</time></trkpt><trkpt lat="43.3515239886065" lon="12.557325976043101"><ele>458.0</ele><time>2026-04-25T09:20:20.999Z</time></trkpt><trkpt lat="43.35134544660217" lon="12.557609364723866"><ele>460.0</ele><time>2026-04-25T09:20:21.999Z</time></trkpt><trkpt lat="43.3511674695921" lon="12.55789321101974"><ele>461.0</ele><time>2026-04-25T09:20:22.999Z</time></trkpt><trkpt lat="43.35098549563984" lon="12.558171307867344"><ele>462.0</ele><time>2026-04-25T09:20:23.999Z</time></trkpt><trkpt lat="43.350799285259114" lon="12.558448450924287"><ele>462.5</ele><time>2026-04-25T09:20:24.999Z</time></trkpt><trkpt lat="43.35060874165069" lon="12.558723961116126"><ele>463.0</ele><time>2026-04-25T09:20:25.999Z</time></trkpt><trkpt lat="43.35041297604406" lon="12.558992511485544"><ele>463.0</ele><time>2026-04-25T09:20:26.999Z</time></trkpt><trkpt lat="43.35021453876196" lon="12.559256768612103"><ele>463.0</ele><time>2026-04-25T09:20:27.999Z</time></trkpt><trkpt lat="43.35001451249642" lon="12.559514858499316"><ele>462.0</ele><time>2026-04-25T09:20:28.999Z</time></trkpt><trkpt lat="43.34981071915679" lon="12.559771363927362"><ele>461.0</ele><time>2026-04-25T09:20:29.999Z</time></trkpt><trkpt lat="43.34960488295057" lon="12.560021968622165"><ele>461.0</ele><time>2026-04-25T09:20:30.999Z</time></trkpt><trkpt lat="43.34939760172734" lon="12.560265916611531"><ele>461.0</ele><time>2026-04-25T09:20:31.999Z</time></trkpt><trkpt lat="43.349191615451026" lon="12.560508666331062"><ele>461.5</ele><time>2026-04-25T09:20:32.999Z</time></trkpt><trkpt lat="43.34898276126995" lon="12.56074589631798"><ele>462.0</ele><time>2026-04-25T09:20:33.999Z</time></trkpt><trkpt lat="43.348768051503015" lon="12.560978944168584"><ele>464.0</ele><time>2026-04-25T09:20:34.999Z</time></trkpt><trkpt lat="43.34855420855684" lon="12.561209346691378"><ele>466.0</ele><time>2026-04-25T09:20:35.999Z</time></trkpt><trkpt lat="43.348347290998326" lon="12.561438918924926"><ele>466.0</ele><time>2026-04-25T09:20:36.999Z</time></trkpt><trkpt lat="43.34814500393341" lon="12.561662379335564"><ele>466.0</ele><time>2026-04-25T09:20:37.999Z</time></trkpt><trkpt lat="43.34793746699489" lon="12.561880182146796"><ele>465.5</ele><time>2026-04-25T09:20:38.999Z</time></trkpt><trkpt lat="43.34773983397386" lon="12.562087643726061"><ele>465.0</ele><time>2026-04-25T09:20:39.999Z</time></trkpt><trkpt lat="43.34755277708441" lon="12.562279283444923"><ele>465.0</ele><time>2026-04-25T09:20:40.999Z</time></trkpt><trkpt lat="43.3473801022553" lon="12.562461636363539"><ele>465.0</ele><time>2026-04-25T09:20:41.999Z</time></trkpt><trkpt lat="43.34721339993227" lon="12.5626295908448"><ele>465.0</ele><time>2026-04-25T09:20:42.999Z</time></trkpt><trkpt lat="43.34704675871552" lon="12.562786574412995"><ele>465.0</ele><time>2026-04-25T09:20:43.999Z</time></trkpt><trkpt lat="43.34688141923337" lon="12.562945346863351"><ele>465.0</ele><time>2026-04-25T09:20:44.999Z</time></trkpt><trkpt lat="43.34672117621768" lon="12.563096527478699"><ele>465.0</ele><time>2026-04-25T09:20:45.998Z</time></trkpt><trkpt lat="43.34656451358249" lon="12.563223818859498"><ele>465.0</ele><time>2026-04-25T09:20:46.998Z</time></trkpt><trkpt lat="43.34641759267616" lon="12.563326406871736"><ele>465.0</ele><time>2026-04-25T09:20:47.998Z</time></trkpt><trkpt lat="43.34628566410173" lon="12.563412817633841"><ele>465.0</ele><time>2026-04-25T09:20:48.998Z</time></trkpt><trkpt lat="43.34617549349954" lon="12.563485996771355"><ele>465.0</ele><time>2026-04-25T09:20:49.998Z</time></trkpt><trkpt lat="43.34608167524705" lon="12.563549158410646"><ele>464.8</ele><time>2026-04-25T09:20:50.998Z</time></trkpt><trkpt lat="43.34600402296357" lon="12.563595742291195"><ele>464.6</ele><time>2026-04-25T09:20:51.998Z</time></trkpt><trkpt lat="43.34592454202875" lon="12.563690764994842"><ele>464.4</ele><time>2026-04-25T09:20:53.998Z</time></trkpt><trkpt lat="43.34591323491131" lon="12.563777581975167"><ele>464.2</ele><time>2026-04-25T09:20:56.998Z</time></trkpt><trkpt lat="43.345981491735486" lon="12.56394222796387"><ele>464.0</ele><time>2026-04-25T09:20:58.998Z</time></trkpt><trkpt lat="43.34604720273578" lon="12.564054574421947"><ele>464.0</ele><time>2026-04-25T09:20:59.998Z</time></trkpt><trkpt lat="43.34612464421738" lon="12.564192281179976"><ele>464.0</ele><time>2026-04-25T09:21:00.998Z</time></trkpt><trkpt lat="43.34620630801927" lon="12.56433800608485"><ele>464.0</ele><time>2026-04-25T09:21:01.998Z</time></trkpt><trkpt lat="43.34629239984519" lon="12.564486199936344"><ele>464.0</ele><time>2026-04-25T09:21:02.998Z</time></trkpt><trkpt lat="43.34638044632453" lon="12.564633496127252"><ele>465.0</ele><time>2026-04-25T09:21:03.998Z</time></trkpt><trkpt lat="43.34646295011789" lon="12.564773180430837"><ele>466.0</ele><time>2026-04-25T09:21:04.998Z</time></trkpt><trkpt lat="43.34654406501748" lon="12.564911139121632"><ele>467.0</ele><time>2026-04-25T09:21:05.998Z</time></trkpt><trkpt lat="43.34662527527816" lon="12.565044537043732"><ele>468.0</ele><time>2026-04-25T09:21:06.998Z</time></trkpt><trkpt lat="43.34670480683118" lon="12.56517631961159"><ele>468.0</ele><time>2026-04-25T09:21:07.998Z</time></trkpt><trkpt lat="43.34677924607316" lon="12.565308022340439"><ele>467.99999999999994</ele><time>2026-04-25T09:21:08.998Z</time></trkpt><trkpt lat="43.34685189219286" lon="12.565422497230994"><ele>467.99999999999994</ele><time>2026-04-25T09:21:09.998Z</time></trkpt><trkpt lat="43.34691750641351" lon="12.565531964358437"><ele>468.0</ele><time>2026-04-25T09:21:10.998Z</time></trkpt><trkpt lat="43.34697347875787" lon="12.56563161710936"><ele>468.0</ele><time>2026-04-25T09:21:11.998Z</time></trkpt><trkpt lat="43.34702786723433" lon="12.565718063207457"><ele>468.0</ele><time>2026-04-25T09:21:12.998Z</time></trkpt><trkpt lat="43.34707464210035" lon="12.56580221642394"><ele>468.0</ele><time>2026-04-25T09:21:13.998Z</time></trkpt><trkpt lat="43.34710978432614" lon="12.565876727133366"><ele>468.0</ele><time>2026-04-25T09:21:14.998Z</time></trkpt><trkpt lat="43.3471567359512" lon="12.565982940480719"><ele>468.0</ele><time>2026-04-25T09:21:16.998Z</time></trkpt><trkpt lat="43.3472000037346" lon="12.56605940514382"><ele>468.0</ele><time>2026-04-25T09:21:19.998Z</time></trkpt><trkpt lat="43.347243484719975" lon="12.566159536577697"><ele>468.0</ele><time>2026-04-25T09:21:21.998Z</time></trkpt><trkpt lat="43.34730824000918" lon="12.56620757070125"><ele>468.75</ele><time>2026-04-25T09:21:22.998Z</time></trkpt><trkpt lat="43.34738477319326" lon="12.56629232378209"><ele>469.5</ele><time>2026-04-25T09:21:23.998Z</time></trkpt><trkpt lat="43.34746758514474" lon="12.566415590380018"><ele>470.25</ele><time>2026-04-25T09:21:24.998Z</time></trkpt><trkpt lat="43.34755818183935" lon="12.56656047404655"><ele>471.0</ele><time>2026-04-25T09:21:25.998Z</time></trkpt><trkpt lat="43.347651693290416" lon="12.566726586347684"><ele>471.0</ele><time>2026-04-25T09:21:26.998Z</time></trkpt><trkpt lat="43.34775287844879" lon="12.56691166329694"><ele>471.0</ele><time>2026-04-25T09:21:27.998Z</time></trkpt><trkpt lat="43.3478748281983" lon="12.567091008286718"><ele>471.0</ele><time>2026-04-25T09:21:28.998Z</time></trkpt><trkpt lat="43.348011562181355" lon="12.56726046354615"><ele>472.0</ele><time>2026-04-25T09:21:30Z</time></trkpt><trkpt lat="43.34815687748476" lon="12.567421369462465"><ele>473.0</ele><time>2026-04-25T09:21:31Z</time></trkpt><trkpt lat="43.34829817383195" lon="12.567569507174214"><ele>474.0</ele><time>2026-04-25T09:21:32Z</time></trkpt><trkpt lat="43.34843278400469" lon="12.567698795039979"><ele>474.0</ele><time>2026-04-25T09:21:33Z</time></trkpt><trkpt lat="43.34853429711348" lon="12.567842157988872"><ele>474.0</ele><time>2026-04-25T09:21:34Z</time></trkpt><trkpt lat="43.34866643958436" lon="12.567919739886941"><ele>474.0</ele><time>2026-04-25T09:21:35Z</time></trkpt><trkpt lat="43.348770815420224" lon="12.568009009903248"><ele>474.0</ele><time>2026-04-25T09:21:36Z</time></trkpt><trkpt lat="43.34885564488037" lon="12.56809435623467"><ele>474.8333333333333</ele><time>2026-04-25T09:21:37Z</time></trkpt><trkpt lat="43.34891314271407" lon="12.568178255411967"><ele>475.66666666666663</ele><time>2026-04-25T09:21:38Z</time></trkpt><trkpt lat="43.34895239609187" lon="12.568246140795438"><ele>476.5</ele><time>2026-04-25T09:21:39Z</time></trkpt><trkpt lat="43.34903901462162" lon="12.568328435389574"><ele>477.3333333333333</ele><time>2026-04-25T09:21:41Z</time></trkpt><trkpt lat="43.349100043374804" lon="12.56835345881839"><ele>478.16666666666663</ele><time>2026-04-25T09:21:42Z</time></trkpt><trkpt lat="43.349168710787424" lon="12.568380454986587"><ele>479.0</ele><time>2026-04-25T09:21:43Z</time></trkpt><trkpt lat="43.34923682082849" lon="12.568425095794828"><ele>479.0</ele><time>2026-04-25T09:21:44Z</time></trkpt><trkpt lat="43.34930782942697" lon="12.568481165801762"><ele>479.0</ele><time>2026-04-25T09:21:45Z</time></trkpt><trkpt lat="43.34938134541884" lon="12.568543710134703"><ele>479.0</ele><time>2026-04-25T09:21:45.999Z</time></trkpt><trkpt lat="43.34945410275544" lon="12.5686152795126"><ele>479.0</ele><time>2026-04-25T09:21:46.999Z</time></trkpt><trkpt lat="43.349534067619786" lon="12.568691236163815"><ele>479.0</ele><time>2026-04-25T09:21:47.999Z</time></trkpt><trkpt lat="43.349625855603364" lon="12.568766965634664"><ele>479.5</ele><time>2026-04-25T09:21:48.999Z</time></trkpt><trkpt lat="43.34972286718343" lon="12.568853138405395"><ele>480.0</ele><time>2026-04-25T09:21:49.999Z</time></trkpt><trkpt lat="43.34981613603564" lon="12.568942379516583"><ele>480.5</ele><time>2026-04-25T09:21:50.999Z</time></trkpt><trkpt lat="43.34991405634846" lon="12.569030316473448"><ele>481.0</ele><time>2026-04-25T09:21:51.999Z</time></trkpt><trkpt lat="43.35002753410527" lon="12.56913317582956"><ele>481.0</ele><time>2026-04-25T09:21:52.999Z</time></trkpt><trkpt lat="43.35015054871117" lon="12.569243937834532"><ele>481.0</ele><time>2026-04-25T09:21:53.999Z</time></trkpt><trkpt lat="43.350264533992444" lon="12.569349473773556"><ele>481.0</ele><time>2026-04-25T09:21:54.999Z</time></trkpt><trkpt lat="43.35035601078877" lon="12.56943392588747"><ele>481.0</ele><time>2026-04-25T09:21:55.999Z</time></trkpt><trkpt lat="43.35043417193012" lon="12.569512377921496"><ele>481.5</ele><time>2026-04-25T09:21:56.999Z</time></trkpt><trkpt lat="43.35051909145365" lon="12.569594675908753"><ele>482.0</ele><time>2026-04-25T09:21:57.999Z</time></trkpt><trkpt lat="43.35062676098559" lon="12.569677186623023"><ele>482.5</ele><time>2026-04-25T09:21:58.999Z</time></trkpt><trkpt lat="43.35075100747068" lon="12.569769358339192"><ele>483.0</ele><time>2026-04-25T09:21:59.999Z</time></trkpt><trkpt lat="43.35087873735918" lon="12.569879225865707"><ele>483.0</ele><time>2026-04-25T09:22:00.999Z</time></trkpt><trkpt lat="43.35101644586917" lon="12.569994930249848"><ele>483.0</ele><time>2026-04-25T09:22:01.999Z</time></trkpt><trkpt lat="43.35115304574053" lon="12.570093554059417"><ele>483.0</ele><time>2026-04-25T09:22:02.999Z</time></trkpt><trkpt lat="43.35126614070873" lon="12.570182335655224"><ele>483.0</ele><time>2026-04-25T09:22:03.999Z</time></trkpt><trkpt lat="43.35138646385059" lon="12.570280333083844"><ele>485.66666666666663</ele><time>2026-04-25T09:22:04.999Z</time></trkpt><trkpt lat="43.35150414538319" lon="12.570386821266906"><ele>488.3333333333333</ele><time>2026-04-25T09:22:05.999Z</time></trkpt><trkpt lat="43.351625496979885" lon="12.570510546129391"><ele>491.0</ele><time>2026-04-25T09:22:06.999Z</time></trkpt><trkpt lat="43.351762082059956" lon="12.570639127206515"><ele>491.0</ele><time>2026-04-25T09:22:07.999Z</time></trkpt><trkpt lat="43.35191066540852" lon="12.570767859963437"><ele>491.0</ele><time>2026-04-25T09:22:08.999Z</time></trkpt><trkpt lat="43.35206954077881" lon="12.570903675944903"><ele>491.0</ele><time>2026-04-25T09:22:09.999Z</time></trkpt><trkpt lat="43.35222588475406" lon="12.571041224918194"><ele>491.25</ele><time>2026-04-25T09:22:10.999Z</time></trkpt><trkpt lat="43.35236923320294" lon="12.571165451909808"><ele>491.5</ele><time>2026-04-25T09:22:11.999Z</time></trkpt><trkpt lat="43.35249527414301" lon="12.571273016990476"><ele>491.75</ele><time>2026-04-25T09:22:12.999Z</time></trkpt><trkpt lat="43.352597899679296" lon="12.571359791345945"><ele>492.0</ele><time>2026-04-25T09:22:13.999Z</time></trkpt><trkpt lat="43.352671990070704" lon="12.571419618339638"><ele>492.20000000000005</ele><time>2026-04-25T09:22:14.999Z</time></trkpt><trkpt lat="43.352761088170325" lon="12.571475501843448"><ele>492.40000000000003</ele><time>2026-04-25T09:22:16.999Z</time></trkpt><trkpt lat="43.3528283645421" lon="12.571546561910854"><ele>492.59999999999997</ele><time>2026-04-25T09:22:17.999Z</time></trkpt><trkpt lat="43.352927416225675" lon="12.57161109190608"><ele>492.79999999999995</ele><time>2026-04-25T09:22:18.999Z</time></trkpt><trkpt lat="43.353029344144964" lon="12.571718255281832"><ele>493.0</ele><time>2026-04-25T09:22:19.999Z</time></trkpt><trkpt lat="43.35313627143959" lon="12.571840444246677"><ele>493.0</ele><time>2026-04-25T09:22:20.999Z</time></trkpt><trkpt lat="43.35322522011372" lon="12.571976084514581"><ele>493.0</ele><time>2026-04-25T09:22:21.999Z</time></trkpt><trkpt lat="43.35329596043241" lon="12.572098681262696"><ele>493.0</ele><time>2026-04-25T09:22:22.999Z</time></trkpt><trkpt lat="43.35336372438124" lon="12.57221039809106"><ele>493.0</ele><time>2026-04-25T09:22:23.999Z</time></trkpt><trkpt lat="43.3534330628546" lon="12.572323876553247"><ele>493.25</ele><time>2026-04-25T09:22:24.999Z</time></trkpt><trkpt lat="43.35350665317764" lon="12.572443469920655"><ele>493.5</ele><time>2026-04-25T09:22:25.999Z</time></trkpt><trkpt lat="43.353583828937445" lon="12.572568810969099"><ele>493.75</ele><time>2026-04-25T09:22:26.999Z</time></trkpt><trkpt lat="43.35366127488419" lon="12.572688317688645"><ele>494.0</ele><time>2026-04-25T09:22:27.999Z</time></trkpt><trkpt lat="43.35373080472345" lon="12.572793574361778"><ele>493.99999999999994</ele><time>2026-04-25T09:22:28.999Z</time></trkpt><trkpt lat="43.35379255459128" lon="12.572891119795065"><ele>494.0</ele><time>2026-04-25T09:22:29.999Z</time></trkpt><trkpt lat="43.35384021242608" lon="12.572988730665285"><ele>494.0</ele><time>2026-04-25T09:22:30.999Z</time></trkpt><trkpt lat="43.3538713915388" lon="12.573082468982193"><ele>494.0</ele><time>2026-04-25T09:22:31.999Z</time></trkpt><trkpt lat="43.35388674429327" lon="12.573169144215894"><ele>493.99999999999994</ele><time>2026-04-25T09:22:32.999Z</time></trkpt><trkpt lat="43.353913820007655" lon="12.573335654691306"><ele>494.0</ele><time>2026-04-25T09:22:34.999Z</time></trkpt><trkpt lat="43.35400468693566" lon="12.573404333851787"><ele>495.0</ele><time>2026-04-25T09:22:36.999Z</time></trkpt><trkpt lat="43.354104228521784" lon="12.573322631379883"><ele>496.0</ele><time>2026-04-25T09:22:38.999Z</time></trkpt><trkpt lat="43.35417560679666" lon="12.573245717851828"><ele>497.0</ele><time>2026-04-25T09:22:39.999Z</time></trkpt><trkpt lat="43.354274051699456" lon="12.573161221342962"><ele>498.0</ele><time>2026-04-25T09:22:40.999Z</time></trkpt><trkpt lat="43.35438074054392" lon="12.57305851548218"><ele>498.0</ele><time>2026-04-25T09:22:41.999Z</time></trkpt><trkpt lat="43.35449408341403" lon="12.572953708069662"><ele>498.0</ele><time>2026-04-25T09:22:42.999Z</time></trkpt><trkpt lat="43.35460743494898" lon="12.572871166175174"><ele>498.0</ele><time>2026-04-25T09:22:43.999Z</time></trkpt><trkpt lat="43.35472519253455" lon="12.57281937995267"><ele>498.0</ele><time>2026-04-25T09:22:44.999Z</time></trkpt><trkpt lat="43.354856347984466" lon="12.572791088376777"><ele>499.2</ele><time>2026-04-25T09:22:45.999Z</time></trkpt><trkpt lat="43.3549748486779" lon="12.572772994672205"><ele>500.4</ele><time>2026-04-25T09:22:46.999Z</time></trkpt><trkpt lat="43.35507947401044" lon="12.572772451370293"><ele>501.59999999999997</ele><time>2026-04-25T09:22:47.999Z</time></trkpt><trkpt lat="43.355168981179276" lon="12.572805769132435"><ele>502.79999999999995</ele><time>2026-04-25T09:22:48.999Z</time></trkpt><trkpt lat="43.355247281402704" lon="12.57285792826177"><ele>504.0</ele><time>2026-04-25T09:22:49.998Z</time></trkpt><trkpt lat="43.355315043843795" lon="12.5729175845264"><ele>504.0</ele><time>2026-04-25T09:22:50.998Z</time></trkpt><trkpt lat="43.35535035899682" lon="12.573024646713385"><ele>504.0</ele><time>2026-04-25T09:22:53.998Z</time></trkpt><trkpt lat="43.35542998266143" lon="12.573138136605426"><ele>504.0</ele><time>2026-04-25T09:22:55.998Z</time></trkpt><trkpt lat="43.355493811196375" lon="12.573266797719258"><ele>504.0</ele><time>2026-04-25T09:22:56.998Z</time></trkpt><trkpt lat="43.35553576719169" lon="12.573393860768903"><ele>504.0</ele><time>2026-04-25T09:22:57.998Z</time></trkpt><trkpt lat="43.35560548008665" lon="12.573527485410855"><ele>505.0</ele><time>2026-04-25T09:22:58.998Z</time></trkpt><trkpt lat="43.35565159977916" lon="12.573616483072481"><ele>506.0</ele><time>2026-04-25T09:22:59.998Z</time></trkpt><trkpt lat="43.35569133917108" lon="12.573700048989185"><ele>507.0</ele><time>2026-04-25T09:23:00.998Z</time></trkpt><trkpt lat="43.35571443442756" lon="12.573867813092017"><ele>508.0</ele><time>2026-04-25T09:23:02.998Z</time></trkpt><trkpt lat="43.35584385575294" lon="12.57393908505931"><ele>509.0</ele><time>2026-04-25T09:23:04.998Z</time></trkpt><trkpt lat="43.355971952300884" lon="12.573996682636924"><ele>509.0</ele><time>2026-04-25T09:23:06.998Z</time></trkpt><trkpt lat="43.35602162138431" lon="12.574119905863732"><ele>509.0</ele><time>2026-04-25T09:23:07.998Z</time></trkpt><trkpt lat="43.3560780788699" lon="12.574269292199846"><ele>509.0</ele><time>2026-04-25T09:23:08.998Z</time></trkpt><trkpt lat="43.35614678190594" lon="12.574440074711413"><ele>509.0</ele><time>2026-04-25T09:23:09.998Z</time></trkpt><trkpt lat="43.35621741659976" lon="12.574605944471662"><ele>509.6</ele><time>2026-04-25T09:23:10.998Z</time></trkpt><trkpt lat="43.356270785270425" lon="12.574750436291353"><ele>510.2</ele><time>2026-04-25T09:23:11.998Z</time></trkpt><trkpt lat="43.35631621297693" lon="12.574876879969302"><ele>510.80000000000007</ele><time>2026-04-25T09:23:12.998Z</time></trkpt><trkpt lat="43.35635234936474" lon="12.574990069606395"><ele>511.40000000000003</ele><time>2026-04-25T09:23:13.998Z</time></trkpt><trkpt lat="43.35638741587153" lon="12.575093139881602"><ele>512.0</ele><time>2026-04-25T09:23:14.998Z</time></trkpt><trkpt lat="43.35642190346094" lon="12.57520059505848"><ele>513.3333333333333</ele><time>2026-04-25T09:23:15.998Z</time></trkpt><trkpt lat="43.356449700759754" lon="12.575307811044766"><ele>514.6666666666666</ele><time>2026-04-25T09:23:16.998Z</time></trkpt><trkpt lat="43.356476218981406" lon="12.575418425839562"><ele>516.0</ele><time>2026-04-25T09:23:17.998Z</time></trkpt><trkpt lat="43.356499224642334" lon="12.575533260098258"><ele>517.3333333333334</ele><time>2026-04-25T09:23:18.998Z</time></trkpt><trkpt lat="43.356522757748394" lon="12.575641393913005"><ele>518.6666666666667</ele><time>2026-04-25T09:23:19.998Z</time></trkpt><trkpt lat="43.35655320825847" lon="12.575747824408994"><ele>520.0</ele><time>2026-04-25T09:23:20.998Z</time></trkpt><trkpt lat="43.356580689502536" lon="12.575835220803157"><ele>520.0</ele><time>2026-04-25T09:23:21.998Z</time></trkpt><trkpt lat="43.35660647120223" lon="12.575926704730712"><ele>520.0</ele><time>2026-04-25T09:23:22.998Z</time></trkpt><trkpt lat="43.356644111606734" lon="12.576009824268034"><ele>520.0</ele><time>2026-04-25T09:23:23.998Z</time></trkpt><trkpt lat="43.35670146658518" lon="12.57607577384634"><ele>520.0</ele><time>2026-04-25T09:23:24.998Z</time></trkpt><trkpt lat="43.35677845475878" lon="12.57612143001519"><ele>520.0</ele><time>2026-04-25T09:23:25.998Z</time></trkpt><trkpt lat="43.356868495301306" lon="12.576145889553942"><ele>520.0</ele><time>2026-04-25T09:23:26.998Z</time></trkpt><trkpt lat="43.35697080937816" lon="12.576175182761183"><ele>520.75</ele><time>2026-04-25T09:23:27.998Z</time></trkpt><trkpt lat="43.35707620577313" lon="12.57625408732634"><ele>521.5</ele><time>2026-04-25T09:23:28.998Z</time></trkpt><trkpt lat="43.357201409384174" lon="12.57631067252842"><ele>522.25</ele><time>2026-04-25T09:23:29.998Z</time></trkpt><trkpt lat="43.35732640241498" lon="12.576388273346362"><ele>523.0</ele><time>2026-04-25T09:23:30.998Z</time></trkpt><trkpt lat="43.357445506762204" lon="12.576468830452368"><ele>523.0</ele><time>2026-04-25T09:23:31.998Z</time></trkpt><trkpt lat="43.357556748158785" lon="12.576533831830298"><ele>523.0</ele><time>2026-04-25T09:23:32.998Z</time></trkpt><trkpt lat="43.3576603478102" lon="12.576599753863674"><ele>523.0</ele><time>2026-04-25T09:23:33.998Z</time></trkpt><trkpt lat="43.35774944377277" lon="12.576682373629591"><ele>523.0</ele><time>2026-04-25T09:23:34.998Z</time></trkpt><trkpt lat="43.357830748077" lon="12.576768845198155"><ele>523.0</ele><time>2026-04-25T09:23:36Z</time></trkpt><trkpt lat="43.357911346362215" lon="12.576852631515058"><ele>523.0</ele><time>2026-04-25T09:23:37Z</time></trkpt><trkpt lat="43.35798135987192" lon="12.576965161954629"><ele>523.0</ele><time>2026-04-25T09:23:38Z</time></trkpt><trkpt lat="43.35803742932951" lon="12.577115523980696"><ele>523.0</ele><time>2026-04-25T09:23:39Z</time></trkpt><trkpt lat="43.35810043045376" lon="12.577286553260345"><ele>523.0</ele><time>2026-04-25T09:23:40Z</time></trkpt><trkpt lat="43.358178595901734" lon="12.577450159194731"><ele>524.6666666666667</ele><time>2026-04-25T09:23:41Z</time></trkpt><trkpt lat="43.35826822870718" lon="12.577618438548319"><ele>526.3333333333334</ele><time>2026-04-25T09:23:42Z</time></trkpt><trkpt lat="43.35836032075638" lon="12.577802087888704"><ele>528.0</ele><time>2026-04-25T09:23:43Z</time></trkpt><trkpt lat="43.35845863102769" lon="12.577998150425746"><ele>528.0</ele><time>2026-04-25T09:23:44Z</time></trkpt><trkpt lat="43.358563937873946" lon="12.578202543293223"><ele>528.0</ele><time>2026-04-25T09:23:45Z</time></trkpt><trkpt lat="43.35867296138993" lon="12.578417173797224"><ele>528.0</ele><time>2026-04-25T09:23:46Z</time></trkpt><trkpt lat="43.35877891074606" lon="12.578641446657084"><ele>529.6666666666666</ele><time>2026-04-25T09:23:47Z</time></trkpt><trkpt lat="43.35886644246642" lon="12.578850341514066"><ele>531.3333333333333</ele><time>2026-04-25T09:23:48Z</time></trkpt><trkpt lat="43.35893952780226" lon="12.579049530845282"><ele>533.0</ele><time>2026-04-25T09:23:49Z</time></trkpt><trkpt lat="43.359013028558465" lon="12.579250681608713"><ele>533.0</ele><time>2026-04-25T09:23:50Z</time></trkpt><trkpt lat="43.35909703072402" lon="12.579462082768428"><ele>533.0</ele><time>2026-04-25T09:23:50.999Z</time></trkpt><trkpt lat="43.359198416326855" lon="12.579652427974338"><ele>533.0</ele><time>2026-04-25T09:23:51.999Z</time></trkpt><trkpt lat="43.359336075845164" lon="12.579796158223138"><ele>536.6666666666666</ele><time>2026-04-25T09:23:52.999Z</time></trkpt><trkpt lat="43.35950614602161" lon="12.579901394343615"><ele>540.3333333333334</ele><time>2026-04-25T09:23:53.999Z</time></trkpt><trkpt lat="43.35968919694535" lon="12.579984562753758"><ele>544.0</ele><time>2026-04-25T09:23:54.999Z</time></trkpt><trkpt lat="43.35987891175517" lon="12.580068011962668"><ele>544.0</ele><time>2026-04-25T09:23:55.999Z</time></trkpt><trkpt lat="43.36006367021523" lon="12.580175792094417"><ele>544.0</ele><time>2026-04-25T09:23:56.999Z</time></trkpt><trkpt lat="43.360233418562174" lon="12.580329595392618"><ele>544.0</ele><time>2026-04-25T09:23:57.999Z</time></trkpt><trkpt lat="43.36038165359954" lon="12.580532462380097"><ele>546.6666666666667</ele><time>2026-04-25T09:23:58.999Z</time></trkpt><trkpt lat="43.360499933188365" lon="12.58077259059519"><ele>549.3333333333334</ele><time>2026-04-25T09:23:59.999Z</time></trkpt><trkpt lat="43.36058717417091" lon="12.581013857045601"><ele>552.0</ele><time>2026-04-25T09:24:00.999Z</time></trkpt><trkpt lat="43.36072757215107" lon="12.581195779417708"><ele>558.6666666666666</ele><time>2026-04-25T09:24:01.999Z</time></trkpt><trkpt lat="43.36090648439216" lon="12.581333019754668"><ele>565.3333333333333</ele><time>2026-04-25T09:24:02.999Z</time></trkpt><trkpt lat="43.36110372759123" lon="12.581443950189414"><ele>572.0</ele><time>2026-04-25T09:24:03.999Z</time></trkpt><trkpt lat="43.361303474339394" lon="12.58156708418648"><ele>562.5</ele><time>2026-04-25T09:24:04.999Z</time></trkpt><trkpt lat="43.36148955484492" lon="12.581739326519193"><ele>553.0</ele><time>2026-04-25T09:24:05.999Z</time></trkpt><trkpt lat="43.36167890041974" lon="12.581910662969017"><ele>565.5</ele><time>2026-04-25T09:24:06.999Z</time></trkpt><trkpt lat="43.361863473737024" lon="12.582100694170016"><ele>578.0</ele><time>2026-04-25T09:24:07.999Z</time></trkpt><trkpt lat="43.3620355425859" lon="12.582308777001918"><ele>572.3333333333333</ele><time>2026-04-25T09:24:08.999Z</time></trkpt><trkpt lat="43.36220183561321" lon="12.582510006894868"><ele>566.6666666666666</ele><time>2026-04-25T09:24:09.999Z</time></trkpt><trkpt lat="43.36238749076533" lon="12.58268888134271"><ele>561.0</ele><time>2026-04-25T09:24:10.999Z</time></trkpt><trkpt lat="43.36258696079637" lon="12.582843122259142"><ele>565.3333333333334</ele><time>2026-04-25T09:24:11.999Z</time></trkpt><trkpt lat="43.36279492060253" lon="12.58297142295614"><ele>569.6666666666667</ele><time>2026-04-25T09:24:12.999Z</time></trkpt><trkpt lat="43.362985403227256" lon="12.583098200240746"><ele>574.0</ele><time>2026-04-25T09:24:13.999Z</time></trkpt><trkpt lat="43.3631526704934" lon="12.583210855160639"><ele>574.0</ele><time>2026-04-25T09:24:14.999Z</time></trkpt><trkpt lat="43.36330752106377" lon="12.583293730185645"><ele>574.0</ele><time>2026-04-25T09:24:15.999Z</time></trkpt><trkpt lat="43.36346423124892" lon="12.58331502416258"><ele>574.0</ele><time>2026-04-25T09:24:16.999Z</time></trkpt><trkpt lat="43.36363171384904" lon="12.583247215999014"><ele>574.0</ele><time>2026-04-25T09:24:17.999Z</time></trkpt><trkpt lat="43.363792903131475" lon="12.583103187278859"><ele>574.0</ele><time>2026-04-25T09:24:18.999Z</time></trkpt><trkpt lat="43.3639390740267" lon="12.582935941418068"><ele>574.0</ele><time>2026-04-25T09:24:19.999Z</time></trkpt><trkpt lat="43.36410054546321" lon="12.582840904273715"><ele>572.3333333333334</ele><time>2026-04-25T09:24:20.999Z</time></trkpt><trkpt lat="43.364271881882814" lon="12.582837272067408"><ele>570.6666666666666</ele><time>2026-04-25T09:24:21.999Z</time></trkpt><trkpt lat="43.364503543793276" lon="12.582884752829683"><ele>569.0</ele><time>2026-04-25T09:24:22.999Z</time></trkpt><trkpt lat="43.364708085998764" lon="12.582938678306048"><ele>572.6666666666666</ele><time>2026-04-25T09:24:23.999Z</time></trkpt><trkpt lat="43.36491159778691" lon="12.582954990187385"><ele>576.3333333333334</ele><time>2026-04-25T09:24:24.999Z</time></trkpt><trkpt lat="43.36509835335221" lon="12.582815098487837"><ele>580.0</ele><time>2026-04-25T09:24:25.999Z</time></trkpt><trkpt lat="43.36529557258372" lon="12.582694128407615"><ele>580.0</ele><time>2026-04-25T09:24:26.999Z</time></trkpt><trkpt lat="43.36549215386579" lon="12.582553129229728"><ele>580.0</ele><time>2026-04-25T09:24:27.999Z</time></trkpt><trkpt lat="43.365664552491864" lon="12.582543287048173"><ele>580.0</ele><time>2026-04-25T09:24:29Z</time></trkpt><trkpt lat="43.36583714606692" lon="12.582601667574345"><ele>582.6666666666667</ele><time>2026-04-25T09:24:30Z</time></trkpt><trkpt lat="43.36598045585627" lon="12.582688717771603"><ele>585.3333333333334</ele><time>2026-04-25T09:24:31Z</time></trkpt><trkpt lat="43.36611317775211" lon="12.582845336572069"><ele>588.0</ele><time>2026-04-25T09:24:32Z</time></trkpt><trkpt lat="43.36628627807029" lon="12.583050016070123"><ele>593.0</ele><time>2026-04-25T09:24:33Z</time></trkpt><trkpt lat="43.36646570546554" lon="12.58320033884251"><ele>598.0</ele><time>2026-04-25T09:24:34Z</time></trkpt><trkpt lat="43.366642610608054" lon="12.583335180453133"><ele>603.0</ele><time>2026-04-25T09:24:35Z</time></trkpt><trkpt lat="43.36685039698597" lon="12.583345369014703"><ele>603.0</ele><time>2026-04-25T09:24:36Z</time></trkpt><trkpt lat="43.36708810190498" lon="12.58336100597125"><ele>603.0</ele><time>2026-04-25T09:24:37Z</time></trkpt><trkpt lat="43.36732314141641" lon="12.583411792269832"><ele>603.6666666666666</ele><time>2026-04-25T09:24:38Z</time></trkpt><trkpt lat="43.36753931531827" lon="12.583502441291367"><ele>604.3333333333333</ele><time>2026-04-25T09:24:39Z</time></trkpt><trkpt lat="43.36773884749323" lon="12.583605542018805"><ele>605.0</ele><time>2026-04-25T09:24:40Z</time></trkpt><trkpt lat="43.36788966779575" lon="12.583762317469741"><ele>605.0</ele><time>2026-04-25T09:24:41Z</time></trkpt><trkpt lat="43.367944624706084" lon="12.584020155678118"><ele>605.0</ele><time>2026-04-25T09:24:42Z</time></trkpt><trkpt lat="43.36802717261724" lon="12.584299094027056"><ele>605.0</ele><time>2026-04-25T09:24:43Z</time></trkpt><trkpt lat="43.36810984923746" lon="12.584553255559424"><ele>611.0</ele><time>2026-04-25T09:24:44Z</time></trkpt><trkpt lat="43.368157325455016" lon="12.584828350463788"><ele>617.0</ele><time>2026-04-25T09:24:45Z</time></trkpt><trkpt lat="43.368163786302254" lon="12.585086742359755"><ele>623.0</ele><time>2026-04-25T09:24:46Z</time></trkpt><trkpt lat="43.36813879232498" lon="12.585355588381171"><ele>624.3333333333333</ele><time>2026-04-25T09:24:47Z</time></trkpt><trkpt lat="43.36809010056158" lon="12.585645366301943"><ele>625.6666666666666</ele><time>2026-04-25T09:24:48Z</time></trkpt><trkpt lat="43.36802345590153" lon="12.585936011236807"><ele>627.0</ele><time>2026-04-25T09:24:49Z</time></trkpt><trkpt lat="43.36792017306471" lon="12.586217115480904"><ele>630.6666666666666</ele><time>2026-04-25T09:24:50Z</time></trkpt><trkpt lat="43.36781975314869" lon="12.586505347434636"><ele>634.3333333333333</ele><time>2026-04-25T09:24:51Z</time></trkpt><trkpt lat="43.367753374347494" lon="12.58677186940878"><ele>638.0</ele><time>2026-04-25T09:24:51.999Z</time></trkpt><trkpt lat="43.367761517933786" lon="12.587041652246915"><ele>638.0</ele><time>2026-04-25T09:24:52.999Z</time></trkpt><trkpt lat="43.36778669313246" lon="12.587293868942732"><ele>638.0</ele><time>2026-04-25T09:24:53.999Z</time></trkpt><trkpt lat="43.36789382411113" lon="12.587506025052845"><ele>638.0</ele><time>2026-04-25T09:24:54.999Z</time></trkpt><trkpt lat="43.36804877920595" lon="12.587667536421083"><ele>634.3333333333333</ele><time>2026-04-25T09:24:55.999Z</time></trkpt><trkpt lat="43.36823867272743" lon="12.587772949340195"><ele>630.6666666666666</ele><time>2026-04-25T09:24:56.999Z</time></trkpt><trkpt lat="43.368421673393485" lon="12.587905716088123"><ele>627.0</ele><time>2026-04-25T09:24:57.999Z</time></trkpt><trkpt lat="43.36860142768052" lon="12.588058778036563"><ele>627.0</ele><time>2026-04-25T09:24:58.999Z</time></trkpt><trkpt lat="43.36879950317289" lon="12.58816795512018"><ele>627.0</ele><time>2026-04-25T09:24:59.999Z</time></trkpt><trkpt lat="43.36903603102601" lon="12.588170863491461"><ele>623.6666666666666</ele><time>2026-04-25T09:25:00.999Z</time></trkpt><trkpt lat="43.36926687980939" lon="12.58813511105488"><ele>620.3333333333333</ele><time>2026-04-25T09:25:01.999Z</time></trkpt><trkpt lat="43.36947285283054" lon="12.588133415305604"><ele>617.0</ele><time>2026-04-25T09:25:02.999Z</time></trkpt><trkpt lat="43.36966241234649" lon="12.5882164277556"><ele>616.6666666666666</ele><time>2026-04-25T09:25:03.999Z</time></trkpt><trkpt lat="43.36981974504792" lon="12.588398262802691"><ele>616.3333333333334</ele><time>2026-04-25T09:25:04.999Z</time></trkpt><trkpt lat="43.369944531853925" lon="12.588641071477394"><ele>616.0</ele><time>2026-04-25T09:25:05.999Z</time></trkpt><trkpt lat="43.37007530233784" lon="12.588871564039774"><ele>627.5</ele><time>2026-04-25T09:25:06.999Z</time></trkpt><trkpt lat="43.37025497240245" lon="12.589045276772518"><ele>639.0</ele><time>2026-04-25T09:25:07.999Z</time></trkpt><trkpt lat="43.37047179049986" lon="12.58915865618504"><ele>632.5</ele><time>2026-04-25T09:25:08.999Z</time></trkpt><trkpt lat="43.37069745314741" lon="12.589225559910565"><ele>626.0</ele><time>2026-04-25T09:25:09.999Z</time></trkpt><trkpt lat="43.37092906404178" lon="12.589235809937671"><ele>626.0</ele><time>2026-04-25T09:25:10.999Z</time></trkpt><trkpt lat="43.371151576956244" lon="12.589199215685397"><ele>626.0</ele><time>2026-04-25T09:25:11.999Z</time></trkpt><trkpt lat="43.37133743714678" lon="12.589212011855867"><ele>626.0</ele><time>2026-04-25T09:25:12.999Z</time></trkpt><trkpt lat="43.37150168612203" lon="12.589377367910123"><ele>628.3333333333333</ele><time>2026-04-25T09:25:13.999Z</time></trkpt><trkpt lat="43.37169276472595" lon="12.589532487658607"><ele>630.6666666666666</ele><time>2026-04-25T09:25:14.999Z</time></trkpt><trkpt lat="43.37186696218439" lon="12.589709401982885"><ele>633.0</ele><time>2026-04-25T09:25:15.999Z</time></trkpt><trkpt lat="43.37205009496939" lon="12.58988681791873"><ele>631.0</ele><time>2026-04-25T09:25:16.999Z</time></trkpt><trkpt lat="43.37224310584603" lon="12.590055153078088"><ele>629.0</ele><time>2026-04-25T09:25:17.999Z</time></trkpt><trkpt lat="43.37245204010577" lon="12.59018242049836"><ele>629.0</ele><time>2026-04-25T09:25:18.999Z</time></trkpt><trkpt lat="43.372672383887284" lon="12.590237713651026"><ele>629.0</ele><time>2026-04-25T09:25:19.999Z</time></trkpt><trkpt lat="43.37286227477692" lon="12.590221348277376"><ele>629.0</ele><time>2026-04-25T09:25:20.999Z</time></trkpt><trkpt lat="43.373011306900004" lon="12.59020830822031"><ele>630.0</ele><time>2026-04-25T09:25:21.999Z</time></trkpt><trkpt lat="43.37311433052653" lon="12.590247503939445"><ele>631.0</ele><time>2026-04-25T09:25:22.999Z</time></trkpt><trkpt lat="43.37318453104523" lon="12.590357119753195"><ele>632.0</ele><time>2026-04-25T09:25:23.999Z</time></trkpt><trkpt lat="43.37319473558057" lon="12.590506989653493"><ele>633.0</ele><time>2026-04-25T09:25:24.999Z</time></trkpt><trkpt lat="43.37313502366881" lon="12.590644561556465"><ele>634.0</ele><time>2026-04-25T09:25:25.999Z</time></trkpt><trkpt lat="43.373016839665766" lon="12.590712240275526"><ele>636.75</ele><time>2026-04-25T09:25:26.999Z</time></trkpt><trkpt lat="43.372880813863205" lon="12.590702988529214"><ele>639.5</ele><time>2026-04-25T09:25:27.999Z</time></trkpt><trkpt lat="43.37273758404301" lon="12.590620237539685"><ele>642.25</ele><time>2026-04-25T09:25:28.999Z</time></trkpt><trkpt lat="43.372603941680694" lon="12.590565946126144"><ele>645.0</ele><time>2026-04-25T09:25:29.999Z</time></trkpt><trkpt lat="43.372463363463375" lon="12.590527457029383"><ele>645.0</ele><time>2026-04-25T09:25:30.999Z</time></trkpt><trkpt lat="43.372343380470674" lon="12.590531114327877"><ele>645.0</ele><time>2026-04-25T09:25:31.999Z</time></trkpt><trkpt lat="43.37225073452203" lon="12.590628176791476"><ele>645.0</ele><time>2026-04-25T09:25:32.999Z</time></trkpt><trkpt lat="43.372189857224775" lon="12.590797741141646"><ele>645.0</ele><time>2026-04-25T09:25:33.999Z</time></trkpt><trkpt lat="43.37215683967424" lon="12.590997263747692"><ele>645.3333333333334</ele><time>2026-04-25T09:25:34.999Z</time></trkpt><trkpt lat="43.3721302205244" lon="12.591195977931207"><ele>645.6666666666667</ele><time>2026-04-25T09:25:35.999Z</time></trkpt><trkpt lat="43.372099661655525" lon="12.591402864699289"><ele>646.0</ele><time>2026-04-25T09:25:36.999Z</time></trkpt><trkpt lat="43.37208940595274" lon="12.591622842104558"><ele>646.0</ele><time>2026-04-25T09:25:37.999Z</time></trkpt><trkpt lat="43.372098317301884" lon="12.591853944527339"><ele>646.0</ele><time>2026-04-25T09:25:38.999Z</time></trkpt><trkpt lat="43.37209727580876" lon="12.592096776506796"><ele>646.0</ele><time>2026-04-25T09:25:39.999Z</time></trkpt><trkpt lat="43.37205619617374" lon="12.592302762133698"><ele>646.5</ele><time>2026-04-25T09:25:40.999Z</time></trkpt><trkpt lat="43.37200559695301" lon="12.592484299800311"><ele>647.0</ele><time>2026-04-25T09:25:42Z</time></trkpt><trkpt lat="43.37200730647681" lon="12.592666260975918"><ele>647.5</ele><time>2026-04-25T09:25:43Z</time></trkpt><trkpt lat="43.37208937507518" lon="12.59284147250068"><ele>648.0</ele><time>2026-04-25T09:25:44Z</time></trkpt><trkpt lat="43.3722170706697" lon="12.592996382508094"><ele>658.3333333333334</ele><time>2026-04-25T09:25:45Z</time></trkpt><trkpt lat="43.37234441013407" lon="12.593141980799293"><ele>668.6666666666667</ele><time>2026-04-25T09:25:46Z</time></trkpt><trkpt lat="43.372422528034285" lon="12.593324246264418"><ele>679.0</ele><time>2026-04-25T09:25:47Z</time></trkpt><trkpt lat="43.372444084841526" lon="12.593550588787888"><ele>679.0</ele><time>2026-04-25T09:25:48Z</time></trkpt><trkpt lat="43.37241015963411" lon="12.593795873948011"><ele>679.0</ele><time>2026-04-25T09:25:49Z</time></trkpt><trkpt lat="43.3723532437814" lon="12.594039776560606"><ele>679.0</ele><time>2026-04-25T09:25:50Z</time></trkpt><trkpt lat="43.37232739715819" lon="12.594276307235491"><ele>680.0</ele><time>2026-04-25T09:25:51Z</time></trkpt><trkpt lat="43.37236045486225" lon="12.594516648151753"><ele>681.0</ele><time>2026-04-25T09:25:52Z</time></trkpt><trkpt lat="43.37246030901395" lon="12.594741259945"><ele>682.0</ele><time>2026-04-25T09:25:53Z</time></trkpt><trkpt lat="43.37258134978088" lon="12.594946937064286"><ele>682.0</ele><time>2026-04-25T09:25:54Z</time></trkpt><trkpt lat="43.37266669462368" lon="12.595181965336588"><ele>682.0</ele><time>2026-04-25T09:25:55Z</time></trkpt><trkpt lat="43.37273151173605" lon="12.595407086704984"><ele>682.0</ele><time>2026-04-25T09:25:56Z</time></trkpt><trkpt lat="43.37286235474911" lon="12.59558743332951"><ele>688.3333333333334</ele><time>2026-04-25T09:25:57Z</time></trkpt><trkpt lat="43.37302476269834" lon="12.595730276928167"><ele>694.6666666666666</ele><time>2026-04-25T09:25:58Z</time></trkpt><trkpt lat="43.3731604070986" lon="12.595912242076677"><ele>701.0</ele><time>2026-04-25T09:25:59Z</time></trkpt><trkpt lat="43.37326907502199" lon="12.596129544959494"><ele>698.6666666666666</ele><time>2026-04-25T09:26:00Z</time></trkpt><trkpt lat="43.373374450803446" lon="12.596355552425045"><ele>696.3333333333334</ele><time>2026-04-25T09:26:01Z</time></trkpt><trkpt lat="43.37348979104356" lon="12.596576320318597"><ele>694.0</ele><time>2026-04-25T09:26:02Z</time></trkpt><trkpt lat="43.37360588037318" lon="12.596807947981713"><ele>696.6666666666667</ele><time>2026-04-25T09:26:03Z</time></trkpt><trkpt lat="43.373727927821335" lon="12.597043274027545"><ele>699.3333333333334</ele><time>2026-04-25T09:26:04Z</time></trkpt><trkpt lat="43.3738504410019" lon="12.597286543669398"><ele>702.0</ele><time>2026-04-25T09:26:05Z</time></trkpt><trkpt lat="43.37396522490939" lon="12.597543358537186"><ele>702.5</ele><time>2026-04-25T09:26:06Z</time></trkpt><trkpt lat="43.37407262190276" lon="12.597810635102974"><ele>703.0</ele><time>2026-04-25T09:26:07Z</time></trkpt><trkpt lat="43.374175598727376" lon="12.598091800105697"><ele>703.0</ele><time>2026-04-25T09:26:08Z</time></trkpt><trkpt lat="43.37428151725977" lon="12.59837026101259"><ele>703.0</ele><time>2026-04-25T09:26:09Z</time></trkpt><trkpt lat="43.37439122740172" lon="12.59864875236132"><ele>704.5</ele><time>2026-04-25T09:26:10Z</time></trkpt><trkpt lat="43.37452377510396" lon="12.598904750842289"><ele>706.0</ele><time>2026-04-25T09:26:11Z</time></trkpt><trkpt lat="43.374683549035446" lon="12.599130483905727"><ele>711.0</ele><time>2026-04-25T09:26:12Z</time></trkpt><trkpt lat="43.37484184007212" lon="12.59936014501408"><ele>716.0</ele><time>2026-04-25T09:26:13Z</time></trkpt><trkpt lat="43.37497683348753" lon="12.599608087186324"><ele>716.0</ele><time>2026-04-25T09:26:14Z</time></trkpt><trkpt lat="43.37508876042259" lon="12.599867178028994"><ele>716.0</ele><time>2026-04-25T09:26:15Z</time></trkpt><trkpt lat="43.37522272225038" lon="12.600100793339854"><ele>716.0</ele><time>2026-04-25T09:26:16Z</time></trkpt><trkpt lat="43.375407041747636" lon="12.600278073786697"><ele>719.0</ele><time>2026-04-25T09:26:17Z</time></trkpt><trkpt lat="43.375589382258966" lon="12.600457211912456"><ele>722.0</ele><time>2026-04-25T09:26:18Z</time></trkpt><trkpt lat="43.37574974933259" lon="12.600672250544477"><ele>725.0</ele><time>2026-04-25T09:26:19Z</time></trkpt><trkpt lat="43.37588506271772" lon="12.60090278719632"><ele>725.0</ele><time>2026-04-25T09:26:20Z</time></trkpt><trkpt lat="43.37599355719499" lon="12.601127481830204"><ele>725.0</ele><time>2026-04-25T09:26:21Z</time></trkpt><trkpt lat="43.37607250117163" lon="12.601340141136166"><ele>725.0</ele><time>2026-04-25T09:26:22Z</time></trkpt><trkpt lat="43.37612030363364" lon="12.601553617197482"><ele>727.0</ele><time>2026-04-25T09:26:23Z</time></trkpt><trkpt lat="43.376116523817004" lon="12.601767249680382"><ele>729.0</ele><time>2026-04-25T09:26:24Z</time></trkpt><trkpt lat="43.37606122013979" lon="12.601979453716318"><ele>731.0</ele><time>2026-04-25T09:26:25Z</time></trkpt><trkpt lat="43.3759615485392" lon="12.602154664924651"><ele>732.8</ele><time>2026-04-25T09:26:26Z</time></trkpt><trkpt lat="43.375884438693205" lon="12.60226062302683"><ele>734.5999999999999</ele><time>2026-04-25T09:26:27Z</time></trkpt><trkpt lat="43.37589615951081" lon="12.60237824003859"><ele>736.4</ele><time>2026-04-25T09:26:28Z</time></trkpt><trkpt lat="43.37598342439874" lon="12.602497340873448"><ele>738.2</ele><time>2026-04-25T09:26:29Z</time></trkpt><trkpt lat="43.376109884063034" lon="12.602543470641622"><ele>740.0</ele><time>2026-04-25T09:26:30Z</time></trkpt><trkpt lat="43.37625250025525" lon="12.602501486476156"><ele>740.25</ele><time>2026-04-25T09:26:31Z</time></trkpt><trkpt lat="43.37638875439981" lon="12.602435851350924"><ele>740.5</ele><time>2026-04-25T09:26:32Z</time></trkpt><trkpt lat="43.376529218683366" lon="12.602391675443338"><ele>740.75</ele><time>2026-04-25T09:26:33Z</time></trkpt><trkpt lat="43.376667139321185" lon="12.602363340073392"><ele>741.0</ele><time>2026-04-25T09:26:34Z</time></trkpt><trkpt lat="43.376777957413445" lon="12.602394190408333"><ele>741.0</ele><time>2026-04-25T09:26:35Z</time></trkpt><trkpt lat="43.37685416695645" lon="12.602507152815466"><ele>741.0</ele><time>2026-04-25T09:26:36Z</time></trkpt><trkpt lat="43.376873594157374" lon="12.602670531501982"><ele>741.0</ele><time>2026-04-25T09:26:37Z</time></trkpt><trkpt lat="43.37681929391475" lon="12.602828313185933"><ele>741.0</ele><time>2026-04-25T09:26:38Z</time></trkpt><trkpt lat="43.37670697414322" lon="12.602937326635843"><ele>743.75</ele><time>2026-04-25T09:26:39Z</time></trkpt><trkpt lat="43.37656837462431" lon="12.60299189483577"><ele>746.5</ele><time>2026-04-25T09:26:40Z</time></trkpt><trkpt lat="43.3764290652675" lon="12.603037061067473"><ele>749.25</ele><time>2026-04-25T09:26:41Z</time></trkpt><trkpt lat="43.37629218892358" lon="12.603108321790705"><ele>752.0</ele><time>2026-04-25T09:26:42Z</time></trkpt><trkpt lat="43.37616603494893" lon="12.60318052509811"><ele>752.0</ele><time>2026-04-25T09:26:43Z</time></trkpt><trkpt lat="43.376076624565016" lon="12.603277696699866"><ele>752.0</ele><time>2026-04-25T09:26:44Z</time></trkpt><trkpt lat="43.37602792094598" lon="12.603423012061766"><ele>752.0</ele><time>2026-04-25T09:26:45Z</time></trkpt><trkpt lat="43.37605376134606" lon="12.603601973464398"><ele>752.0</ele><time>2026-04-25T09:26:46Z</time></trkpt><trkpt lat="43.37613367117043" lon="12.60374736882021"><ele>756.25</ele><time>2026-04-25T09:26:47Z</time></trkpt><trkpt lat="43.37626045178548" lon="12.603825754670567"><ele>760.5</ele><time>2026-04-25T09:26:48Z</time></trkpt><trkpt lat="43.37640785972251" lon="12.6038081826011"><ele>764.75</ele><time>2026-04-25T09:26:49Z</time></trkpt><trkpt lat="43.376553141394645" lon="12.603726155350403"><ele>769.0</ele><time>2026-04-25T09:26:50Z</time></trkpt><trkpt lat="43.37668386602026" lon="12.603664239024024"><ele>771.0</ele><time>2026-04-25T09:26:51Z</time></trkpt><trkpt lat="43.37684694659937" lon="12.60363769498256"><ele>773.0</ele><time>2026-04-25T09:26:52Z</time></trkpt><trkpt lat="43.37700599692266" lon="12.603631877045903"><ele>775.0</ele><time>2026-04-25T09:26:53Z</time></trkpt><trkpt lat="43.37717154054084" lon="12.603675005967192"><ele>776.0</ele><time>2026-04-25T09:26:54Z</time></trkpt><trkpt lat="43.3773306359216" lon="12.603783725788764"><ele>777.0</ele><time>2026-04-25T09:26:55Z</time></trkpt><trkpt lat="43.377491466754684" lon="12.60388894601065"><ele>778.0</ele><time>2026-04-25T09:26:56Z</time></trkpt><trkpt lat="43.37766438279252" lon="12.60394268029386"><ele>778.0</ele><time>2026-04-25T09:26:57Z</time></trkpt><trkpt lat="43.3778561977096" lon="12.60391825538622"><ele>778.0</ele><time>2026-04-25T09:26:58Z</time></trkpt><trkpt lat="43.37804531606364" lon="12.603899524183563"><ele>778.0</ele><time>2026-04-25T09:26:59Z</time></trkpt><trkpt lat="43.37821926406419" lon="12.603891035385793"><ele>778.5</ele><time>2026-04-25T09:27:00Z</time></trkpt><trkpt lat="43.37835547871511" lon="12.60390142810026"><ele>779.0</ele><time>2026-04-25T09:27:01Z</time></trkpt><trkpt lat="43.37846692194447" lon="12.603958418497243"><ele>779.5</ele><time>2026-04-25T09:27:01.999Z</time></trkpt><trkpt lat="43.37855831790585" lon="12.604078863660778"><ele>780.0</ele><time>2026-04-25T09:27:02.999Z</time></trkpt><trkpt lat="43.37861034069739" lon="12.604259885124769"><ele>780.0</ele><time>2026-04-25T09:27:03.999Z</time></trkpt><trkpt lat="43.37860612054445" lon="12.604481768998927"><ele>780.0</ele><time>2026-04-25T09:27:04.999Z</time></trkpt><trkpt lat="43.37857019184378" lon="12.604712509032522"><ele>780.0</ele><time>2026-04-25T09:27:05.999Z</time></trkpt><trkpt lat="43.378531079233134" lon="12.604929310532826"><ele>777.6666666666667</ele><time>2026-04-25T09:27:06.999Z</time></trkpt><trkpt lat="43.3784540443877" lon="12.605102107499564"><ele>775.3333333333334</ele><time>2026-04-25T09:27:07.999Z</time></trkpt><trkpt lat="43.378319980063054" lon="12.605249409046863"><ele>773.0</ele><time>2026-04-25T09:27:08.999Z</time></trkpt><trkpt lat="43.37813632473437" lon="12.605327188035279"><ele>771.0</ele><time>2026-04-25T09:27:09.999Z</time></trkpt><trkpt lat="43.377935249145445" lon="12.60533230195861"><ele>769.0</ele><time>2026-04-25T09:27:10.999Z</time></trkpt><trkpt lat="43.377750422813854" lon="12.605310149384362"><ele>767.0</ele><time>2026-04-25T09:27:11.999Z</time></trkpt><trkpt lat="43.37759005404917" lon="12.60535100939325"><ele>767.0</ele><time>2026-04-25T09:27:12.999Z</time></trkpt><trkpt lat="43.377454727084775" lon="12.60550640034459"><ele>767.0</ele><time>2026-04-25T09:27:13.999Z</time></trkpt><trkpt lat="43.377342425778124" lon="12.60572247408498"><ele>767.0</ele><time>2026-04-25T09:27:14.999Z</time></trkpt><trkpt lat="43.37724245176966" lon="12.605953057387287"><ele>770.25</ele><time>2026-04-25T09:27:15.999Z</time></trkpt><trkpt lat="43.37714596569291" lon="12.606148895671824"><ele>773.5</ele><time>2026-04-25T09:27:16.999Z</time></trkpt><trkpt lat="43.37707490316339" lon="12.606317716405671"><ele>776.75</ele><time>2026-04-25T09:27:17.999Z</time></trkpt><trkpt lat="43.37704962510136" lon="12.606497398195394"><ele>780.0</ele><time>2026-04-25T09:27:18.999Z</time></trkpt><trkpt lat="43.37708312193684" lon="12.606693129350562"><ele>781.3333333333333</ele><time>2026-04-25T09:27:19.999Z</time></trkpt><trkpt lat="43.37717619135753" lon="12.606862963654917"><ele>782.6666666666666</ele><time>2026-04-25T09:27:20.999Z</time></trkpt><trkpt lat="43.37731088689683" lon="12.606966131485619"><ele>784.0</ele><time>2026-04-25T09:27:21.999Z</time></trkpt><trkpt lat="43.37747321878661" lon="12.606989013736118"><ele>779.0</ele><time>2026-04-25T09:27:22.999Z</time></trkpt><trkpt lat="43.37764775902779" lon="12.60693612661854"><ele>774.0</ele><time>2026-04-25T09:27:23.999Z</time></trkpt><trkpt lat="43.3778308112513" lon="12.606850065497946"><ele>769.0</ele><time>2026-04-25T09:27:24.999Z</time></trkpt><trkpt lat="43.37802280337227" lon="12.606770264629796"><ele>765.3333333333333</ele><time>2026-04-25T09:27:25.999Z</time></trkpt><trkpt lat="43.378227648676194" lon="12.606708288580581"><ele>761.6666666666666</ele><time>2026-04-25T09:27:26.999Z</time></trkpt><trkpt lat="43.37844187867612" lon="12.606648797220817"><ele>758.0</ele><time>2026-04-25T09:27:27.999Z</time></trkpt><trkpt lat="43.37866614613933" lon="12.606625932739973"><ele>755.0</ele><time>2026-04-25T09:27:28.999Z</time></trkpt><trkpt lat="43.37889568894989" lon="12.606583312395045"><ele>752.0</ele><time>2026-04-25T09:27:29.999Z</time></trkpt><trkpt lat="43.3791213470521" lon="12.606533034719252"><ele>752.0</ele><time>2026-04-25T09:27:30.999Z</time></trkpt><trkpt lat="43.379336703457575" lon="12.606505369100097"><ele>752.0</ele><time>2026-04-25T09:27:31.999Z</time></trkpt><trkpt lat="43.37953674346557" lon="12.606488095099486"><ele>752.0</ele><time>2026-04-25T09:27:32.999Z</time></trkpt><trkpt lat="43.379722026503394" lon="12.60650602366607"><ele>749.6666666666666</ele><time>2026-04-25T09:27:33.999Z</time></trkpt><trkpt lat="43.37989420037964" lon="12.60651054990216"><ele>747.3333333333334</ele><time>2026-04-25T09:27:34.999Z</time></trkpt><trkpt lat="43.38005055379366" lon="12.60662996563176"><ele>745.0</ele><time>2026-04-25T09:27:35.999Z</time></trkpt><trkpt lat="43.38022418898569" lon="12.60677603172069"><ele>745.0</ele><time>2026-04-25T09:27:36.999Z</time></trkpt><trkpt lat="43.38041130737213" lon="12.606929559618207"><ele>745.0</ele><time>2026-04-25T09:27:37.999Z</time></trkpt><trkpt lat="43.38060184015821" lon="12.607096522962495"><ele>745.0</ele><time>2026-04-25T09:27:38.999Z</time></trkpt><trkpt lat="43.3807950254912" lon="12.60726060649387"><ele>741.0</ele><time>2026-04-25T09:27:39.999Z</time></trkpt><trkpt lat="43.380987816006254" lon="12.60745143717144"><ele>737.0</ele><time>2026-04-25T09:27:40.999Z</time></trkpt><trkpt lat="43.38117253534285" lon="12.60767111335114"><ele>731.5</ele><time>2026-04-25T09:27:41.999Z</time></trkpt><trkpt lat="43.38135026340266" lon="12.607902907541002"><ele>726.0</ele><time>2026-04-25T09:27:42.999Z</time></trkpt><trkpt lat="43.38152307736391" lon="12.608146157328342"><ele>726.0</ele><time>2026-04-25T09:27:43.999Z</time></trkpt><trkpt lat="43.38169104849106" lon="12.60838913334222"><ele>726.0</ele><time>2026-04-25T09:27:44.999Z</time></trkpt><trkpt lat="43.38185467649536" lon="12.608625096160848"><ele>731.0</ele><time>2026-04-25T09:27:45.999Z</time></trkpt><trkpt lat="43.382013413560735" lon="12.608851755653653"><ele>736.0</ele><time>2026-04-25T09:27:46.999Z</time></trkpt><trkpt lat="43.38216852019758" lon="12.609068249619149"><ele>729.3333333333334</ele><time>2026-04-25T09:27:48.001Z</time></trkpt><trkpt lat="43.382305993264644" lon="12.609257396851323"><ele>722.6666666666666</ele><time>2026-04-25T09:27:49.001Z</time></trkpt><trkpt lat="43.38241106110576" lon="12.60939162226336"><ele>716.0</ele><time>2026-04-25T09:27:50.001Z</time></trkpt><trkpt lat="43.38251409556427" lon="12.609464385899985"><ele>716.0</ele><time>2026-04-25T09:27:51.001Z</time></trkpt><trkpt lat="43.38263603095088" lon="12.609456931100393"><ele>716.0</ele><time>2026-04-25T09:27:52.001Z</time></trkpt><trkpt lat="43.38278176882374" lon="12.609364436044089"><ele>716.0</ele><time>2026-04-25T09:27:53Z</time></trkpt><trkpt lat="43.382908239286756" lon="12.609218341995406"><ele>716.0</ele><time>2026-04-25T09:27:54.001Z</time></trkpt><trkpt lat="43.38302832708223" lon="12.609121558072047"><ele>716.5</ele><time>2026-04-25T09:27:55.001Z</time></trkpt><trkpt lat="43.38315768858842" lon="12.609070670073752"><ele>717.0</ele><time>2026-04-25T09:27:56Z</time></trkpt><trkpt lat="43.38329036479108" lon="12.609186029034671"><ele>717.5</ele><time>2026-04-25T09:27:57Z</time></trkpt><trkpt lat="43.38337664041193" lon="12.609328230138965"><ele>718.0</ele><time>2026-04-25T09:27:58.001Z</time></trkpt><trkpt lat="43.383502879911845" lon="12.609528667870297"><ele>715.0</ele><time>2026-04-25T09:27:59Z</time></trkpt><trkpt lat="43.38361634902769" lon="12.609709591593623"><ele>712.0</ele><time>2026-04-25T09:28:00Z</time></trkpt><trkpt lat="43.38376012919255" lon="12.609895605385834"><ele>709.0</ele><time>2026-04-25T09:28:01Z</time></trkpt><trkpt lat="43.38395307002003" lon="12.610034804020064"><ele>709.0</ele><time>2026-04-25T09:28:02Z</time></trkpt><trkpt lat="43.384144417993426" lon="12.610133102465559"><ele>709.0</ele><time>2026-04-25T09:28:03Z</time></trkpt><trkpt lat="43.38432820763642" lon="12.610231650133722"><ele>709.0</ele><time>2026-04-25T09:28:04Z</time></trkpt><trkpt lat="43.38450830563904" lon="12.610310865568273"><ele>707.3333333333334</ele><time>2026-04-25T09:28:05Z</time></trkpt><trkpt lat="43.384668966757694" lon="12.61042835530011"><ele>705.6666666666666</ele><time>2026-04-25T09:28:06Z</time></trkpt><trkpt lat="43.384783322927674" lon="12.610566914694783"><ele>704.0</ele><time>2026-04-25T09:28:07Z</time></trkpt><trkpt lat="43.384866426359324" lon="12.610772907920031"><ele>704.0</ele><time>2026-04-25T09:28:08Z</time></trkpt><trkpt lat="43.38497962517103" lon="12.610995159468482"><ele>704.0</ele><time>2026-04-25T09:28:09Z</time></trkpt><trkpt lat="43.38510786185324" lon="12.611219632549956"><ele>704.0</ele><time>2026-04-25T09:28:10Z</time></trkpt><trkpt lat="43.38521989316986" lon="12.611471465550608"><ele>701.3333333333333</ele><time>2026-04-25T09:28:11Z</time></trkpt><trkpt lat="43.38534175004703" lon="12.611713041382641"><ele>698.6666666666666</ele><time>2026-04-25T09:28:12Z</time></trkpt><trkpt lat="43.385458405891626" lon="12.611948381230647"><ele>696.0</ele><time>2026-04-25T09:28:13Z</time></trkpt><trkpt lat="43.38556524797478" lon="12.61216975232907"><ele>696.0</ele><time>2026-04-25T09:28:14Z</time></trkpt><trkpt lat="43.38566533079172" lon="12.612342664927407"><ele>696.0</ele><time>2026-04-25T09:28:15Z</time></trkpt><trkpt lat="43.38578995802459" lon="12.612479185458612"><ele>696.0</ele><time>2026-04-25T09:28:16Z</time></trkpt><trkpt lat="43.38596387907914" lon="12.612549384093642"><ele>696.0</ele><time>2026-04-25T09:28:17Z</time></trkpt><trkpt lat="43.38616301581497" lon="12.612560811135607"><ele>696.0</ele><time>2026-04-25T09:28:18Z</time></trkpt><trkpt lat="43.38632973567252" lon="12.612566336501068"><ele>696.0</ele><time>2026-04-25T09:28:19Z</time></trkpt><trkpt lat="43.386530467463025" lon="12.612513863666067"><ele>701.0</ele><time>2026-04-25T09:28:20Z</time></trkpt><trkpt lat="43.386726814016974" lon="12.612475938940628"><ele>706.0</ele><time>2026-04-25T09:28:21Z</time></trkpt><trkpt lat="43.38692575089405" lon="12.612434180411112"><ele>711.0</ele><time>2026-04-25T09:28:22Z</time></trkpt><trkpt lat="43.38712597535677" lon="12.612379056595646"><ele>712.6666666666666</ele><time>2026-04-25T09:28:23Z</time></trkpt><trkpt lat="43.38732212322735" lon="12.612317595027752"><ele>714.3333333333333</ele><time>2026-04-25T09:28:24Z</time></trkpt><trkpt lat="43.38749704138184" lon="12.612266908880851"><ele>716.0</ele><time>2026-04-25T09:28:25Z</time></trkpt><trkpt lat="43.38764458969199" lon="12.612313060606946"><ele>716.0</ele><time>2026-04-25T09:28:26Z</time></trkpt><trkpt lat="43.387761480987464" lon="12.612408894000787"><ele>716.0</ele><time>2026-04-25T09:28:27Z</time></trkpt><trkpt lat="43.38784689469905" lon="12.612580579361152"><ele>716.0</ele><time>2026-04-25T09:28:28Z</time></trkpt><trkpt lat="43.38789096943367" lon="12.612856276139496"><ele>713.0</ele><time>2026-04-25T09:28:29Z</time></trkpt><trkpt lat="43.38788852703939" lon="12.613121234156013"><ele>710.0</ele><time>2026-04-25T09:28:30Z</time></trkpt><trkpt lat="43.3878854639391" lon="12.613377133550737"><ele>707.0</ele><time>2026-04-25T09:28:31Z</time></trkpt><trkpt lat="43.38788531017036" lon="12.613628795296185"><ele>706.3333333333333</ele><time>2026-04-25T09:28:32Z</time></trkpt><trkpt lat="43.387833830555124" lon="12.61386363164439"><ele>705.6666666666666</ele><time>2026-04-25T09:28:33Z</time></trkpt><trkpt lat="43.387791273503815" lon="12.614095654203293"><ele>705.0</ele><time>2026-04-25T09:28:34Z</time></trkpt><trkpt lat="43.38773816710459" lon="12.614265692406013"><ele>705.0</ele><time>2026-04-25T09:28:35Z</time></trkpt><trkpt lat="43.38774008193453" lon="12.614440383629967"><ele>705.0</ele><time>2026-04-25T09:28:36Z</time></trkpt><trkpt lat="43.38782330673099" lon="12.614622761356303"><ele>705.0</ele><time>2026-04-25T09:28:37Z</time></trkpt><trkpt lat="43.38796104517755" lon="12.614778774575079"><ele>706.6666666666666</ele><time>2026-04-25T09:28:38Z</time></trkpt><trkpt lat="43.3881218190973" lon="12.614921114268787"><ele>708.3333333333333</ele><time>2026-04-25T09:28:39Z</time></trkpt><trkpt lat="43.388292321513006" lon="12.615063048310803"><ele>710.0</ele><time>2026-04-25T09:28:40Z</time></trkpt><trkpt lat="43.38846963147907" lon="12.615195036710041"><ele>707.3333333333333</ele><time>2026-04-25T09:28:41Z</time></trkpt><trkpt lat="43.38863290357171" lon="12.61532964429436"><ele>704.6666666666666</ele><time>2026-04-25T09:28:42Z</time></trkpt><trkpt lat="43.38877338000973" lon="12.615460985061475"><ele>702.0</ele><time>2026-04-25T09:28:43Z</time></trkpt><trkpt lat="43.38891730475636" lon="12.615577559189823"><ele>702.0</ele><time>2026-04-25T09:28:44Z</time></trkpt><trkpt lat="43.38908636719702" lon="12.615655577392985"><ele>702.0</ele><time>2026-04-25T09:28:45Z</time></trkpt><trkpt lat="43.38927213894466" lon="12.61570946374851"><ele>702.0</ele><time>2026-04-25T09:28:46Z</time></trkpt><trkpt lat="43.38947339432105" lon="12.615762357880586"><ele>702.0</ele><time>2026-04-25T09:28:47Z</time></trkpt><trkpt lat="43.389672733951656" lon="12.61582538494105"><ele>702.0</ele><time>2026-04-25T09:28:48Z</time></trkpt><trkpt lat="43.38986637332827" lon="12.615879730947198"><ele>702.0</ele><time>2026-04-25T09:28:49Z</time></trkpt><trkpt lat="43.39006647941762" lon="12.615884902802616"><ele>701.3333333333334</ele><time>2026-04-25T09:28:50Z</time></trkpt><trkpt lat="43.390281160035734" lon="12.61582062062729"><ele>700.6666666666667</ele><time>2026-04-25T09:28:51Z</time></trkpt><trkpt lat="43.390498945324886" lon="12.61572997406261"><ele>700.0</ele><time>2026-04-25T09:28:52Z</time></trkpt><trkpt lat="43.39070809331352" lon="12.61567332738735"><ele>697.0</ele><time>2026-04-25T09:28:53Z</time></trkpt><trkpt lat="43.39090375489213" lon="12.61560891128509"><ele>694.0</ele><time>2026-04-25T09:28:54Z</time></trkpt><trkpt lat="43.3910886286227" lon="12.615574739494356"><ele>691.0</ele><time>2026-04-25T09:28:55Z</time></trkpt><trkpt lat="43.391269467400264" lon="12.61558227989306"><ele>691.0</ele><time>2026-04-25T09:28:56Z</time></trkpt><trkpt lat="43.39144821735605" lon="12.615619946315377"><ele>691.0</ele><time>2026-04-25T09:28:57Z</time></trkpt><trkpt lat="43.391627365810265" lon="12.615694082782628"><ele>691.0</ele><time>2026-04-25T09:28:58Z</time></trkpt><trkpt lat="43.391783084020005" lon="12.61587000902794"><ele>691.0</ele><time>2026-04-25T09:28:59Z</time></trkpt><trkpt lat="43.39195814801746" lon="12.616041750113753"><ele>691.0</ele><time>2026-04-25T09:29:00Z</time></trkpt><trkpt lat="43.392120789831985" lon="12.616247031709277"><ele>691.0</ele><time>2026-04-25T09:29:01Z</time></trkpt><trkpt lat="43.39229150497159" lon="12.616442762532108"><ele>690.5</ele><time>2026-04-25T09:29:02Z</time></trkpt><trkpt lat="43.392468944657814" lon="12.616640015188684"><ele>690.0</ele><time>2026-04-25T09:29:03Z</time></trkpt><trkpt lat="43.39264735205886" lon="12.61682990460019"><ele>691.6666666666666</ele><time>2026-04-25T09:29:04Z</time></trkpt><trkpt lat="43.392811556814486" lon="12.617013752999142"><ele>693.3333333333333</ele><time>2026-04-25T09:29:05Z</time></trkpt><trkpt lat="43.39295752158386" lon="12.617224335126933"><ele>695.0</ele><time>2026-04-25T09:29:06Z</time></trkpt><trkpt lat="43.39307387848447" lon="12.617470668746584"><ele>695.0</ele><time>2026-04-25T09:29:06.999Z</time></trkpt><trkpt lat="43.393157188170676" lon="12.6177469333018"><ele>695.0</ele><time>2026-04-25T09:29:07.999Z</time></trkpt><trkpt lat="43.39320428971037" lon="12.618037887376897"><ele>695.0</ele><time>2026-04-25T09:29:08.999Z</time></trkpt><trkpt lat="43.39322153881478" lon="12.618338327938876"><ele>693.3333333333333</ele><time>2026-04-25T09:29:09.999Z</time></trkpt><trkpt lat="43.39320676258274" lon="12.61863603488791"><ele>691.6666666666666</ele><time>2026-04-25T09:29:10.999Z</time></trkpt><trkpt lat="43.3931565016521" lon="12.618914275916543"><ele>690.0</ele><time>2026-04-25T09:29:11.999Z</time></trkpt><trkpt lat="43.39305242583993" lon="12.619168844083537"><ele>684.5</ele><time>2026-04-25T09:29:12.999Z</time></trkpt><trkpt lat="43.392946044517856" lon="12.619443349817878"><ele>679.0</ele><time>2026-04-25T09:29:13.999Z</time></trkpt><trkpt lat="43.39281324206412" lon="12.61970593066988"><ele>679.0</ele><time>2026-04-25T09:29:14.999Z</time></trkpt><trkpt lat="43.39269138018776" lon="12.619974693906258"><ele>679.0</ele><time>2026-04-25T09:29:15.999Z</time></trkpt><trkpt lat="43.39257954694305" lon="12.620253456750994"><ele>682.0</ele><time>2026-04-25T09:29:16.999Z</time></trkpt><trkpt lat="43.39246374476088" lon="12.620526280641824"><ele>685.0</ele><time>2026-04-25T09:29:17.999Z</time></trkpt><trkpt lat="43.39234348066126" lon="12.620791054524107"><ele>685.0</ele><time>2026-04-25T09:29:18.999Z</time></trkpt><trkpt lat="43.392234443925766" lon="12.621035251590085"><ele>685.0</ele><time>2026-04-25T09:29:19.999Z</time></trkpt><trkpt lat="43.39213849741843" lon="12.621252247957472"><ele>685.0</ele><time>2026-04-25T09:29:20.999Z</time></trkpt><trkpt lat="43.3920504445054" lon="12.621451164322808"><ele>679.0</ele><time>2026-04-25T09:29:21.999Z</time></trkpt><trkpt lat="43.391988544736144" lon="12.62165393543645"><ele>673.0</ele><time>2026-04-25T09:29:22.999Z</time></trkpt><trkpt lat="43.39197431448667" lon="12.621884690061817"><ele>667.0</ele><time>2026-04-25T09:29:23.999Z</time></trkpt><trkpt lat="43.391999903973534" lon="12.622130553796177"><ele>669.0</ele><time>2026-04-25T09:29:24.999Z</time></trkpt><trkpt lat="43.39207914920231" lon="12.622358813761743"><ele>671.0</ele><time>2026-04-25T09:29:25.999Z</time></trkpt><trkpt lat="43.39220797622062" lon="12.622564489163786"><ele>673.0</ele><time>2026-04-25T09:29:26.999Z</time></trkpt><trkpt lat="43.39236486996734" lon="12.62274447536364"><ele>666.6666666666667</ele><time>2026-04-25T09:29:27.999Z</time></trkpt><trkpt lat="43.39251993397045" lon="12.62294218400984"><ele>660.3333333333334</ele><time>2026-04-25T09:29:28.999Z</time></trkpt><trkpt lat="43.392665358352055" lon="12.623151625409294"><ele>654.0</ele><time>2026-04-25T09:29:29.999Z</time></trkpt><trkpt lat="43.39278645703759" lon="12.623362610910641"><ele>654.0</ele><time>2026-04-25T09:29:30.999Z</time></trkpt><trkpt lat="43.39287685180886" lon="12.6235914818952"><ele>654.0</ele><time>2026-04-25T09:29:31.999Z</time></trkpt><trkpt lat="43.392969134463534" lon="12.623803925644099"><ele>654.0</ele><time>2026-04-25T09:29:32.999Z</time></trkpt><trkpt lat="43.392940914855494" lon="12.624144658751709"><ele>648.0</ele><time>2026-04-25T09:29:33.999Z</time></trkpt><trkpt lat="43.39293732095075" lon="12.624451885513162"><ele>642.0</ele><time>2026-04-25T09:29:34.999Z</time></trkpt><trkpt lat="43.39295014926954" lon="12.624780572757022"><ele>641.0</ele><time>2026-04-25T09:29:35.999Z</time></trkpt><trkpt lat="43.39297055252336" lon="12.625118324415281"><ele>640.0</ele><time>2026-04-25T09:29:36.999Z</time></trkpt><trkpt lat="43.392988865249215" lon="12.625469505701243"><ele>637.5</ele><time>2026-04-25T09:29:37.999Z</time></trkpt><trkpt lat="43.39300412202094" lon="12.625827671500598"><ele>635.0</ele><time>2026-04-25T09:29:38.999Z</time></trkpt><trkpt lat="43.393018625226354" lon="12.62618935065522"><ele>635.0</ele><time>2026-04-25T09:29:39.999Z</time></trkpt><trkpt lat="43.3930315331356" lon="12.626554960824745"><ele>635.0</ele><time>2026-04-25T09:29:40.999Z</time></trkpt><trkpt lat="43.39305002630516" lon="12.626919732391395"><ele>635.0</ele><time>2026-04-25T09:29:41.999Z</time></trkpt><trkpt lat="43.393067282643834" lon="12.62728293550173"><ele>635.0</ele><time>2026-04-25T09:29:42.999Z</time></trkpt><trkpt lat="43.39308367469682" lon="12.627629782425387"><ele>636.6666666666666</ele><time>2026-04-25T09:29:43.999Z</time></trkpt><trkpt lat="43.393102890487626" lon="12.627951010827687"><ele>638.3333333333334</ele><time>2026-04-25T09:29:44.999Z</time></trkpt><trkpt lat="43.39310826700681" lon="12.62824147616123"><ele>640.0</ele><time>2026-04-25T09:29:45.999Z</time></trkpt><trkpt lat="43.39308885757289" lon="12.628520469136534"><ele>640.0</ele><time>2026-04-25T09:29:46.999Z</time></trkpt><trkpt lat="43.3930370563123" lon="12.628812190812821"><ele>640.0</ele><time>2026-04-25T09:29:47.999Z</time></trkpt><trkpt lat="43.39296697313401" lon="12.62910752411039"><ele>640.0</ele><time>2026-04-25T09:29:48.999Z</time></trkpt><trkpt lat="43.39288163327453" lon="12.629403613635233"><ele>637.5</ele><time>2026-04-25T09:29:49.999Z</time></trkpt><trkpt lat="43.39278667083099" lon="12.629709802420392"><ele>635.0</ele><time>2026-04-25T09:29:50.999Z</time></trkpt><trkpt lat="43.39270420460613" lon="12.630013887627213"><ele>634.0</ele><time>2026-04-25T09:29:51.999Z</time></trkpt><trkpt lat="43.39262529227982" lon="12.63032137517689"><ele>633.0</ele><time>2026-04-25T09:29:52.999Z</time></trkpt><trkpt lat="43.39253544254805" lon="12.6306378997462"><ele>633.0</ele><time>2026-04-25T09:29:54Z</time></trkpt><trkpt lat="43.39244577011128" lon="12.630949163172186"><ele>633.0</ele><time>2026-04-25T09:29:55Z</time></trkpt><trkpt lat="43.392355885932126" lon="12.631258704065205"><ele>635.0</ele><time>2026-04-25T09:29:56Z</time></trkpt><trkpt lat="43.39227919853546" lon="12.631564659845965"><ele>637.0</ele><time>2026-04-25T09:29:57Z</time></trkpt><trkpt lat="43.3921927693474" lon="12.631865494728487"><ele>634.0</ele><time>2026-04-25T09:29:58Z</time></trkpt><trkpt lat="43.392110171759256" lon="12.632156767188404"><ele>631.0</ele><time>2026-04-25T09:29:59Z</time></trkpt><trkpt lat="43.39202882013107" lon="12.632441918787553"><ele>631.0</ele><time>2026-04-25T09:30:00Z</time></trkpt><trkpt lat="43.391949406550935" lon="12.632707740984035"><ele>631.0</ele><time>2026-04-25T09:30:01Z</time></trkpt><trkpt lat="43.391879529639866" lon="12.632956957414232"><ele>631.0</ele><time>2026-04-25T09:30:02Z</time></trkpt><trkpt lat="43.391817284300636" lon="12.633192096720755"><ele>631.6666666666667</ele><time>2026-04-25T09:30:03Z</time></trkpt><trkpt lat="43.39175869148466" lon="12.633416573055436"><ele>632.3333333333334</ele><time>2026-04-25T09:30:04Z</time></trkpt><trkpt lat="43.391726362574616" lon="12.633639831846782"><ele>633.0</ele><time>2026-04-25T09:30:05Z</time></trkpt><trkpt lat="43.39173186264801" lon="12.633878388831587"><ele>633.0</ele><time>2026-04-25T09:30:06Z</time></trkpt><trkpt lat="43.39176726949411" lon="12.634128429547257"><ele>633.0</ele><time>2026-04-25T09:30:07Z</time></trkpt><trkpt lat="43.39182341107732" lon="12.634392304351627"><ele>633.0</ele><time>2026-04-25T09:30:08Z</time></trkpt><trkpt lat="43.391886449510665" lon="12.63466734985758"><ele>630.3333333333334</ele><time>2026-04-25T09:30:09Z</time></trkpt><trkpt lat="43.391944421948644" lon="12.63494776958228"><ele>627.6666666666667</ele><time>2026-04-25T09:30:10Z</time></trkpt><trkpt lat="43.391998781324986" lon="12.635233350619274"><ele>625.0</ele><time>2026-04-25T09:30:11Z</time></trkpt><trkpt lat="43.392053255852105" lon="12.63552702627696"><ele>623.6666666666667</ele><time>2026-04-25T09:30:12Z</time></trkpt><trkpt lat="43.39211007899129" lon="12.635820876209849"><ele>622.3333333333334</ele><time>2026-04-25T09:30:13Z</time></trkpt><trkpt lat="43.392174860268305" lon="12.636117858743582"><ele>621.0</ele><time>2026-04-25T09:30:14Z</time></trkpt><trkpt lat="43.39224836659649" lon="12.636416232824864"><ele>619.5</ele><time>2026-04-25T09:30:15Z</time></trkpt><trkpt lat="43.392335962531384" lon="12.636712486043914"><ele>618.0</ele><time>2026-04-25T09:30:16Z</time></trkpt><trkpt lat="43.3924336391388" lon="12.637007602959951"><ele>618.0</ele><time>2026-04-25T09:30:17Z</time></trkpt><trkpt lat="43.39252635068091" lon="12.637288968772669"><ele>618.0</ele><time>2026-04-25T09:30:18Z</time></trkpt><trkpt lat="43.392611428817894" lon="12.637557327867873"><ele>618.0</ele><time>2026-04-25T09:30:19Z</time></trkpt><trkpt lat="43.392690870247066" lon="12.637807312823384"><ele>617.6666666666666</ele><time>2026-04-25T09:30:20Z</time></trkpt><trkpt lat="43.392767875222894" lon="12.6380467781311"><ele>617.3333333333333</ele><time>2026-04-25T09:30:21Z</time></trkpt><trkpt lat="43.39286502638601" lon="12.638276892550323"><ele>617.0</ele><time>2026-04-25T09:30:22Z</time></trkpt><trkpt lat="43.39300198006982" lon="12.63848880706165"><ele>619.3333333333333</ele><time>2026-04-25T09:30:23Z</time></trkpt><trkpt lat="43.39316618531413" lon="12.638686277758561"><ele>621.6666666666666</ele><time>2026-04-25T09:30:24Z</time></trkpt><trkpt lat="43.39333607726528" lon="12.638889530827376"><ele>624.0</ele><time>2026-04-25T09:30:25Z</time></trkpt><trkpt lat="43.39350463460161" lon="12.639106913921337"><ele>624.0</ele><time>2026-04-25T09:30:26Z</time></trkpt><trkpt lat="43.3936736444608" lon="12.639335485075103"><ele>624.0</ele><time>2026-04-25T09:30:27Z</time></trkpt><trkpt lat="43.39384786295305" lon="12.639565778998668"><ele>622.5</ele><time>2026-04-25T09:30:28Z</time></trkpt><trkpt lat="43.394025101397474" lon="12.63979902667447"><ele>621.0</ele><time>2026-04-25T09:30:29Z</time></trkpt><trkpt lat="43.39420286205501" lon="12.640035404352284"><ele>621.0</ele><time>2026-04-25T09:30:30Z</time></trkpt><trkpt lat="43.39438287229241" lon="12.640272748816916"><ele>621.0</ele><time>2026-04-25T09:30:31Z</time></trkpt><trkpt lat="43.394564695226364" lon="12.640505810634943"><ele>621.5</ele><time>2026-04-25T09:30:32Z</time></trkpt><trkpt lat="43.394740630530606" lon="12.640742948802458"><ele>622.0</ele><time>2026-04-25T09:30:33Z</time></trkpt><trkpt lat="43.39491632809987" lon="12.64098124215089"><ele>618.5</ele><time>2026-04-25T09:30:34Z</time></trkpt><trkpt lat="43.39509243684666" lon="12.641215605119442"><ele>615.0</ele><time>2026-04-25T09:30:35Z</time></trkpt><trkpt lat="43.39526469795397" lon="12.641443937238172"><ele>615.0</ele><time>2026-04-25T09:30:36Z</time></trkpt><trkpt lat="43.39543947385507" lon="12.641667700758342"><ele>615.0</ele><time>2026-04-25T09:30:37Z</time></trkpt><trkpt lat="43.39561209782281" lon="12.641890349565836"><ele>615.5</ele><time>2026-04-25T09:30:38Z</time></trkpt><trkpt lat="43.39578310770794" lon="12.642119290397742"><ele>616.0</ele><time>2026-04-25T09:30:39Z</time></trkpt><trkpt lat="43.39595290891318" lon="12.64234850442169"><ele>616.0</ele><time>2026-04-25T09:30:40Z</time></trkpt><trkpt lat="43.39612278455494" lon="12.642583403157747"><ele>616.0</ele><time>2026-04-25T09:30:41Z</time></trkpt><trkpt lat="43.396279352255284" lon="12.642846478306652"><ele>620.5</ele><time>2026-04-25T09:30:42Z</time></trkpt><trkpt lat="43.39642518883505" lon="12.643126455137091"><ele>625.0</ele><time>2026-04-25T09:30:43Z</time></trkpt><trkpt lat="43.396569724904545" lon="12.643397843415777"><ele>619.5</ele><time>2026-04-25T09:30:44Z</time></trkpt><trkpt lat="43.396719744154055" lon="12.643677710672709"><ele>614.0</ele><time>2026-04-25T09:30:45Z</time></trkpt><trkpt lat="43.396867248465995" lon="12.643956605267604"><ele>614.0</ele><time>2026-04-25T09:30:46Z</time></trkpt><trkpt lat="43.39700600647952" lon="12.644241911509557"><ele>614.0</ele><time>2026-04-25T09:30:47Z</time></trkpt><trkpt lat="43.39712839761865" lon="12.644536416264375"><ele>619.5</ele><time>2026-04-25T09:30:48Z</time></trkpt><trkpt lat="43.39723512031215" lon="12.644833876901368"><ele>625.0</ele><time>2026-04-25T09:30:49Z</time></trkpt><trkpt lat="43.39734194764074" lon="12.64512636947923"><ele>622.0</ele><time>2026-04-25T09:30:50Z</time></trkpt><trkpt lat="43.39745195187003" lon="12.645408733995767"><ele>619.0</ele><time>2026-04-25T09:30:51Z</time></trkpt><trkpt lat="43.397552740676005" lon="12.645679209474208"><ele>619.0</ele><time>2026-04-25T09:30:52Z</time></trkpt><trkpt lat="43.39764852137562" lon="12.645930908368223"><ele>619.0</ele><time>2026-04-25T09:30:53Z</time></trkpt><trkpt lat="43.397742629487155" lon="12.646165053914277"><ele>619.0</ele><time>2026-04-25T09:30:54Z</time></trkpt><trkpt lat="43.397847850868345" lon="12.646380975780962"><ele>620.0</ele><time>2026-04-25T09:30:55Z</time></trkpt><trkpt lat="43.39798151212077" lon="12.646570224406867"><ele>621.0</ele><time>2026-04-25T09:30:56Z</time></trkpt><trkpt lat="43.39812848577736" lon="12.646765551697907"><ele>622.0</ele><time>2026-04-25T09:30:57Z</time></trkpt><trkpt lat="43.398252553846305" lon="12.646997589980026"><ele>622.0</ele><time>2026-04-25T09:30:58Z</time></trkpt><trkpt lat="43.39835299440753" lon="12.647265622096098"><ele>622.0</ele><time>2026-04-25T09:30:59Z</time></trkpt><trkpt lat="43.398452017755204" lon="12.647532929971385"><ele>622.0</ele><time>2026-04-25T09:31:00Z</time></trkpt><trkpt lat="43.39855253367659" lon="12.647780395612896"><ele>620.0</ele><time>2026-04-25T09:31:01Z</time></trkpt><trkpt lat="43.39862859754938" lon="12.648026323643725"><ele>618.0</ele><time>2026-04-25T09:31:02Z</time></trkpt><trkpt lat="43.39867098827507" lon="12.648283545321915"><ele>616.0</ele><time>2026-04-25T09:31:03Z</time></trkpt><trkpt lat="43.39868309171601" lon="12.64856973182331"><ele>617.3333333333334</ele><time>2026-04-25T09:31:03.999Z</time></trkpt><trkpt lat="43.39870454754131" lon="12.648830890033048"><ele>618.6666666666666</ele><time>2026-04-25T09:31:04.999Z</time></trkpt><trkpt lat="43.398775302843845" lon="12.64908633047152"><ele>620.0</ele><time>2026-04-25T09:31:05.999Z</time></trkpt><trkpt lat="43.398884750010424" lon="12.649328491362244"><ele>614.6666666666666</ele><time>2026-04-25T09:31:06.999Z</time></trkpt><trkpt lat="43.3990315340822" lon="12.649547298927699"><ele>609.3333333333334</ele><time>2026-04-25T09:31:07.999Z</time></trkpt><trkpt lat="43.39920309297222" lon="12.649737313480816"><ele>604.0</ele><time>2026-04-25T09:31:08.999Z</time></trkpt><trkpt lat="43.39937530817434" lon="12.649937447158525"><ele>604.0</ele><time>2026-04-25T09:31:09.999Z</time></trkpt><trkpt lat="43.3995428911087" lon="12.650148484608835"><ele>604.0</ele><time>2026-04-25T09:31:10.999Z</time></trkpt><trkpt lat="43.39972314569891" lon="12.650344567507254"><ele>602.5</ele><time>2026-04-25T09:31:11.999Z</time></trkpt><trkpt lat="43.399913215770034" lon="12.650523716536393"><ele>601.0</ele><time>2026-04-25T09:31:12.999Z</time></trkpt><trkpt lat="43.40010330549564" lon="12.650702574819976"><ele>601.0</ele><time>2026-04-25T09:31:13.999Z</time></trkpt><trkpt lat="43.40029494700924" lon="12.650861766753579"><ele>601.0</ele><time>2026-04-25T09:31:14.999Z</time></trkpt><trkpt lat="43.400482691400136" lon="12.651004262955887"><ele>601.0</ele><time>2026-04-25T09:31:15.999Z</time></trkpt><trkpt lat="43.40066028074874" lon="12.651147237555497"><ele>599.0</ele><time>2026-04-25T09:31:16.999Z</time></trkpt><trkpt lat="43.40082759538913" lon="12.651303944340404"><ele>597.0</ele><time>2026-04-25T09:31:17.999Z</time></trkpt><trkpt lat="43.40098297726262" lon="12.651494378242887"><ele>595.0</ele><time>2026-04-25T09:31:18.999Z</time></trkpt><trkpt lat="43.401127229542766" lon="12.651711427332852"><ele>595.0</ele><time>2026-04-25T09:31:19.999Z</time></trkpt><trkpt lat="43.40126383964138" lon="12.651945764320185"><ele>595.0</ele><time>2026-04-25T09:31:20.999Z</time></trkpt><trkpt lat="43.401383732959815" lon="12.65220789294162"><ele>595.0</ele><time>2026-04-25T09:31:21.999Z</time></trkpt><trkpt lat="43.401487738473115" lon="12.652498575039294"><ele>594.0</ele><time>2026-04-25T09:31:22.999Z</time></trkpt><trkpt lat="43.401591890129886" lon="12.65279285801101"><ele>593.0</ele><time>2026-04-25T09:31:23.999Z</time></trkpt><trkpt lat="43.40170409657885" lon="12.653088543572874"><ele>593.0</ele><time>2026-04-25T09:31:24.999Z</time></trkpt><trkpt lat="43.4018157479764" lon="12.653384405469025"><ele>593.0</ele><time>2026-04-25T09:31:25.999Z</time></trkpt><trkpt lat="43.40192587642739" lon="12.653670138369092"><ele>592.0</ele><time>2026-04-25T09:31:26.999Z</time></trkpt><trkpt lat="43.40202792634231" lon="12.65394486101657"><ele>591.0</ele><time>2026-04-25T09:31:27.999Z</time></trkpt><trkpt lat="43.402128459046466" lon="12.654216655971833"><ele>590.0</ele><time>2026-04-25T09:31:28.999Z</time></trkpt><trkpt lat="43.40225025425368" lon="12.654480976542365"><ele>590.0</ele><time>2026-04-25T09:31:29.999Z</time></trkpt><trkpt lat="43.4023933001063" lon="12.654725011500064"><ele>590.0</ele><time>2026-04-25T09:31:30.999Z</time></trkpt><trkpt lat="43.40254515326258" lon="12.654935150861157"><ele>590.0</ele><time>2026-04-25T09:31:31.999Z</time></trkpt><trkpt lat="43.40267906929165" lon="12.655145864871"><ele>589.0</ele><time>2026-04-25T09:31:32.999Z</time></trkpt><trkpt lat="43.40279276039154" lon="12.655355229986922"><ele>588.0</ele><time>2026-04-25T09:31:33.999Z</time></trkpt><trkpt lat="43.40285787708853" lon="12.655574895374924"><ele>587.0</ele><time>2026-04-25T09:31:34.999Z</time></trkpt><trkpt lat="43.40286076785393" lon="12.655821431643085"><ele>587.0</ele><time>2026-04-25T09:31:35.999Z</time></trkpt><trkpt lat="43.40281727086047" lon="12.656073068108798"><ele>587.0</ele><time>2026-04-25T09:31:36.999Z</time></trkpt><trkpt lat="43.40272662928431" lon="12.656323285986563"><ele>587.0</ele><time>2026-04-25T09:31:37.999Z</time></trkpt><trkpt lat="43.402637783339216" lon="12.656575744232786"><ele>587.6666666666666</ele><time>2026-04-25T09:31:38.999Z</time></trkpt><trkpt lat="43.40258816017707" lon="12.656833906975777"><ele>588.3333333333334</ele><time>2026-04-25T09:31:39.999Z</time></trkpt><trkpt lat="43.40258102438829" lon="12.657106530285766"><ele>589.0</ele><time>2026-04-25T09:31:40.999Z</time></trkpt><trkpt lat="43.40262472297217" lon="12.657386924559395"><ele>589.0</ele><time>2026-04-25T09:31:41.999Z</time></trkpt><trkpt lat="43.402687727963844" lon="12.657667815289944"><ele>589.0</ele><time>2026-04-25T09:31:42.999Z</time></trkpt><trkpt lat="43.402716636313635" lon="12.657962859534118"><ele>589.0</ele><time>2026-04-25T09:31:43.999Z</time></trkpt><trkpt lat="43.40269269241931" lon="12.658279155099747"><ele>589.5</ele><time>2026-04-25T09:31:44.999Z</time></trkpt><trkpt lat="43.40266030308566" lon="12.658598557632752"><ele>590.0</ele><time>2026-04-25T09:31:45.999Z</time></trkpt><trkpt lat="43.402639616360744" lon="12.658910996906497"><ele>590.0</ele><time>2026-04-25T09:31:46.999Z</time></trkpt><trkpt lat="43.40262039394523" lon="12.659226190020473"><ele>590.0</ele><time>2026-04-25T09:31:47.999Z</time></trkpt><trkpt lat="43.4025980192736" lon="12.659540626757584"><ele>589.5</ele><time>2026-04-25T09:31:48.999Z</time></trkpt><trkpt lat="43.40257736617776" lon="12.659849638053421"><ele>589.0</ele><time>2026-04-25T09:31:49.999Z</time></trkpt><trkpt lat="43.40255860194135" lon="12.660159331571377"><ele>588.3333333333334</ele><time>2026-04-25T09:31:50.999Z</time></trkpt><trkpt lat="43.40253948120707" lon="12.660458488303908"><ele>587.6666666666666</ele><time>2026-04-25T09:31:51.999Z</time></trkpt><trkpt lat="43.40252322791896" lon="12.660737105058981"><ele>587.0</ele><time>2026-04-25T09:31:52.999Z</time></trkpt><trkpt lat="43.40250472316235" lon="12.661013860885273"><ele>587.3333333333333</ele><time>2026-04-25T09:31:53.999Z</time></trkpt><trkpt lat="43.40249012886785" lon="12.661291341708672"><ele>587.6666666666666</ele><time>2026-04-25T09:31:54.999Z</time></trkpt><trkpt lat="43.40247634187446" lon="12.66157021555082"><ele>588.0</ele><time>2026-04-25T09:31:55.999Z</time></trkpt><trkpt lat="43.40246032501288" lon="12.661843072268876"><ele>587.3333333333334</ele><time>2026-04-25T09:31:56.999Z</time></trkpt><trkpt lat="43.40244298217599" lon="12.662114684421137"><ele>586.6666666666667</ele><time>2026-04-25T09:31:57.999Z</time></trkpt><trkpt lat="43.402426826234134" lon="12.6623834761034"><ele>586.0</ele><time>2026-04-25T09:31:58.999Z</time></trkpt><trkpt lat="43.40241027850301" lon="12.662647393000555"><ele>585.6666666666667</ele><time>2026-04-25T09:32:00Z</time></trkpt><trkpt lat="43.402401516117415" lon="12.662915091433428"><ele>585.3333333333334</ele><time>2026-04-25T09:32:01Z</time></trkpt><trkpt lat="43.402396193197134" lon="12.663179787855368"><ele>585.0</ele><time>2026-04-25T09:32:02Z</time></trkpt><trkpt lat="43.40240251203275" lon="12.66344615690172"><ele>585.6666666666666</ele><time>2026-04-25T09:32:03Z</time></trkpt><trkpt lat="43.40241857375393" lon="12.663711127384666"><ele>586.3333333333333</ele><time>2026-04-25T09:32:04Z</time></trkpt><trkpt lat="43.402448829312675" lon="12.66396817666758"><ele>587.0</ele><time>2026-04-25T09:32:05Z</time></trkpt><trkpt lat="43.402474939720534" lon="12.664221491450373"><ele>586.6666666666666</ele><time>2026-04-25T09:32:06Z</time></trkpt><trkpt lat="43.40249950116553" lon="12.664463869723223"><ele>586.3333333333334</ele><time>2026-04-25T09:32:07Z</time></trkpt><trkpt lat="43.402521020960776" lon="12.6646945223449"><ele>586.0</ele><time>2026-04-25T09:32:08Z</time></trkpt><trkpt lat="43.40254600684436" lon="12.664917334122718"><ele>586.0</ele><time>2026-04-25T09:32:09Z</time></trkpt><trkpt lat="43.402570561414215" lon="12.665141796051355"><ele>586.0</ele><time>2026-04-25T09:32:10Z</time></trkpt><trkpt lat="43.40259460582077" lon="12.665356622640427"><ele>586.0</ele><time>2026-04-25T09:32:11Z</time></trkpt><trkpt lat="43.40261876863686" lon="12.665560277525303"><ele>585.5</ele><time>2026-04-25T09:32:12Z</time></trkpt><trkpt lat="43.40264738870773" lon="12.665748371257262"><ele>585.0</ele><time>2026-04-25T09:32:13Z</time></trkpt><trkpt lat="43.402676412471195" lon="12.665915177007191"><ele>584.5</ele><time>2026-04-25T09:32:14Z</time></trkpt><trkpt lat="43.40271129050313" lon="12.666059076666222"><ele>584.0</ele><time>2026-04-25T09:32:15Z</time></trkpt><trkpt lat="43.402745970609686" lon="12.666181657822166"><ele>584.0</ele><time>2026-04-25T09:32:16Z</time></trkpt><trkpt lat="43.40277913412443" lon="12.666282328880477"><ele>584.0</ele><time>2026-04-25T09:32:17Z</time></trkpt><trkpt lat="43.40280458665593" lon="12.66636852198856"><ele>584.0</ele><time>2026-04-25T09:32:18Z</time></trkpt><trkpt lat="43.40285941509742" lon="12.666498590972369"><ele>584.0</ele><time>2026-04-25T09:32:20Z</time></trkpt><trkpt lat="43.40289272840587" lon="12.666581392816358"><ele>584.0</ele><time>2026-04-25T09:32:21Z</time></trkpt><trkpt lat="43.40290991264814" lon="12.666696195301597"><ele>584.0</ele><time>2026-04-25T09:32:22Z</time></trkpt><trkpt lat="43.40291187665383" lon="12.666833694814073"><ele>583.5</ele><time>2026-04-25T09:32:23Z</time></trkpt><trkpt lat="43.40291029540932" lon="12.666964195067575"><ele>583.0</ele><time>2026-04-25T09:32:24Z</time></trkpt><trkpt lat="43.40291159932353" lon="12.667080077280724"><ele>582.5</ele><time>2026-04-25T09:32:25Z</time></trkpt><trkpt lat="43.40291454682907" lon="12.667191264467226"><ele>582.0</ele><time>2026-04-25T09:32:26Z</time></trkpt><trkpt lat="43.402917456008836" lon="12.667301827796557"><ele>581.5</ele><time>2026-04-25T09:32:27Z</time></trkpt><trkpt lat="43.40291439137164" lon="12.667418222340013"><ele>581.0</ele><time>2026-04-25T09:32:28Z</time></trkpt><trkpt lat="43.402904259407954" lon="12.667559010465112"><ele>581.0</ele><time>2026-04-25T09:32:29Z</time></trkpt><trkpt lat="43.4028852775057" lon="12.667708156082016"><ele>581.0</ele><time>2026-04-25T09:32:30Z</time></trkpt><trkpt lat="43.402857096896234" lon="12.667858208435646"><ele>581.0</ele><time>2026-04-25T09:32:31Z</time></trkpt><trkpt lat="43.40281248639111" lon="12.668003523998172"><ele>581.0</ele><time>2026-04-25T09:32:32Z</time></trkpt><trkpt lat="43.40275764614957" lon="12.668154105560962"><ele>580.25</ele><time>2026-04-25T09:32:33Z</time></trkpt><trkpt lat="43.40269601342288" lon="12.668297613219668"><ele>579.5</ele><time>2026-04-25T09:32:34Z</time></trkpt><trkpt lat="43.40262800127544" lon="12.668433137761076"><ele>578.75</ele><time>2026-04-25T09:32:35Z</time></trkpt><trkpt lat="43.40254796520128" lon="12.668568450130126"><ele>578.0</ele><time>2026-04-25T09:32:36Z</time></trkpt><trkpt lat="43.402473746710946" lon="12.668710849471104"><ele>578.0</ele><time>2026-04-25T09:32:37Z</time></trkpt><trkpt lat="43.402399569537934" lon="12.668841996168034"><ele>578.0</ele><time>2026-04-25T09:32:38Z</time></trkpt><trkpt lat="43.402330661833176" lon="12.668969408508017"><ele>578.0</ele><time>2026-04-25T09:32:39Z</time></trkpt><trkpt lat="43.40226660466383" lon="12.669088617384578"><ele>578.0</ele><time>2026-04-25T09:32:40Z</time></trkpt><trkpt lat="43.40220806618938" lon="12.669197744282206"><ele>578.0</ele><time>2026-04-25T09:32:41Z</time></trkpt><trkpt lat="43.40215188056044" lon="12.669297463938625"><ele>577.8333333333333</ele><time>2026-04-25T09:32:42Z</time></trkpt><trkpt lat="43.40209981051741" lon="12.66938869155713"><ele>577.6666666666666</ele><time>2026-04-25T09:32:43Z</time></trkpt><trkpt lat="43.40205076338301" lon="12.669472762576039"><ele>577.5</ele><time>2026-04-25T09:32:44Z</time></trkpt><trkpt lat="43.40200663330443" lon="12.669540867299663"><ele>577.3333333333334</ele><time>2026-04-25T09:32:45Z</time></trkpt><trkpt lat="43.401944442983066" lon="12.669661491290174"><ele>577.1666666666667</ele><time>2026-04-25T09:32:47Z</time></trkpt><trkpt lat="43.401980400292324" lon="12.669799634029053"><ele>577.0</ele><time>2026-04-25T09:32:49Z</time></trkpt><trkpt lat="43.40203573558709" lon="12.669842673767404"><ele>577.5714285714286</ele><time>2026-04-25T09:32:50Z</time></trkpt><trkpt lat="43.40210371417207" lon="12.669852303305769"><ele>578.1428571428571</ele><time>2026-04-25T09:32:51Z</time></trkpt><trkpt lat="43.40217329801334" lon="12.669842361241187"><ele>578.7142857142858</ele><time>2026-04-25T09:32:52Z</time></trkpt><trkpt lat="43.402243354022005" lon="12.669823085984957"><ele>579.2857142857142</ele><time>2026-04-25T09:32:53Z</time></trkpt><trkpt lat="43.40231409842355" lon="12.669807742424391"><ele>579.8571428571429</ele><time>2026-04-25T09:32:54Z</time></trkpt><trkpt lat="43.40239094296406" lon="12.669798716723369"><ele>580.4285714285714</ele><time>2026-04-25T09:32:55Z</time></trkpt><trkpt lat="43.402471347702026" lon="12.669784451337593"><ele>581.0</ele><time>2026-04-25T09:32:56Z</time></trkpt><trkpt lat="43.40255788303038" lon="12.669778413827212"><ele>581.4</ele><time>2026-04-25T09:32:57Z</time></trkpt><trkpt lat="43.40264754148371" lon="12.669768343697056"><ele>581.8</ele><time>2026-04-25T09:32:58Z</time></trkpt><trkpt lat="43.40274402374594" lon="12.669752071000374"><ele>582.1999999999999</ele><time>2026-04-25T09:32:59Z</time></trkpt><trkpt lat="43.40284536562507" lon="12.669746945543901"><ele>582.6</ele><time>2026-04-25T09:33:00Z</time></trkpt><trkpt lat="43.402940944712974" lon="12.669743175680068"><ele>583.0</ele><time>2026-04-25T09:33:01Z</time></trkpt><trkpt lat="43.40303391840797" lon="12.66973296704652"><ele>583.0</ele><time>2026-04-25T09:33:02Z</time></trkpt><trkpt lat="43.403123043089174" lon="12.669732832122417"><ele>583.0</ele><time>2026-04-25T09:33:03Z</time></trkpt><trkpt lat="43.40320457390036" lon="12.669734349575014"><ele>583.0</ele><time>2026-04-25T09:33:04Z</time></trkpt><trkpt lat="43.403275596662375" lon="12.669727919730182"><ele>583.0</ele><time>2026-04-25T09:33:05Z</time></trkpt><trkpt lat="43.403346091983295" lon="12.669733392307837"><ele>583.0</ele><time>2026-04-25T09:33:06Z</time></trkpt><trkpt lat="43.40341766570532" lon="12.669774178790167"><ele>583.0</ele><time>2026-04-25T09:33:07Z</time></trkpt><trkpt lat="43.4034883409964" lon="12.669848522488953"><ele>583.0</ele><time>2026-04-25T09:33:08Z</time></trkpt><trkpt lat="43.40355743550727" lon="12.669932473316287"><ele>583.0</ele><time>2026-04-25T09:33:09Z</time></trkpt><trkpt lat="43.40363268952592" lon="12.670017919383932"><ele>583.0</ele><time>2026-04-25T09:33:10Z</time></trkpt><trkpt lat="43.40371904923203" lon="12.670101904917786"><ele>583.0</ele><time>2026-04-25T09:33:11Z</time></trkpt><trkpt lat="43.403802874432245" lon="12.670201149938059"><ele>583.0</ele><time>2026-04-25T09:33:12Z</time></trkpt><trkpt lat="43.40388024516668" lon="12.670319125497487"><ele>583.5</ele><time>2026-04-25T09:33:13Z</time></trkpt><trkpt lat="43.40395359098292" lon="12.670452575081711"><ele>584.0</ele><time>2026-04-25T09:33:13.999Z</time></trkpt><trkpt lat="43.40402781966476" lon="12.670585696764697"><ele>584.5</ele><time>2026-04-25T09:33:14.999Z</time></trkpt><trkpt lat="43.40410838080244" lon="12.670717223976867"><ele>585.0</ele><time>2026-04-25T09:33:15.999Z</time></trkpt><trkpt lat="43.40418280743189" lon="12.670836983008043"><ele>585.0</ele><time>2026-04-25T09:33:16.999Z</time></trkpt><trkpt lat="43.40425288367284" lon="12.670953939094955"><ele>585.0</ele><time>2026-04-25T09:33:17.999Z</time></trkpt><trkpt lat="43.40432920387276" lon="12.671073038306037"><ele>585.0</ele><time>2026-04-25T09:33:18.999Z</time></trkpt><trkpt lat="43.40440727392072" lon="12.671195275298409"><ele>585.0</ele><time>2026-04-25T09:33:19.999Z</time></trkpt><trkpt lat="43.404481193955895" lon="12.671326224181511"><ele>586.25</ele><time>2026-04-25T09:33:20.999Z</time></trkpt><trkpt lat="43.404550278252536" lon="12.671461551748612"><ele>587.5</ele><time>2026-04-25T09:33:21.999Z</time></trkpt><trkpt lat="43.40462263010446" lon="12.671600244326887"><ele>588.75</ele><time>2026-04-25T09:33:22.999Z</time></trkpt><trkpt lat="43.40469681932328" lon="12.671737495303827"><ele>590.0</ele><time>2026-04-25T09:33:23.999Z</time></trkpt><trkpt lat="43.40476603272596" lon="12.67188304242223"><ele>588.25</ele><time>2026-04-25T09:33:24.999Z</time></trkpt><trkpt lat="43.40483665853829" lon="12.672030582151178"><ele>586.5</ele><time>2026-04-25T09:33:25.999Z</time></trkpt><trkpt lat="43.40490821796729" lon="12.672178741213544"><ele>584.75</ele><time>2026-04-25T09:33:26.999Z</time></trkpt><trkpt lat="43.404981243497204" lon="12.67232897839952"><ele>583.0</ele><time>2026-04-25T09:33:27.999Z</time></trkpt><trkpt lat="43.4050559764593" lon="12.672478812491486"><ele>583.0</ele><time>2026-04-25T09:33:28.999Z</time></trkpt><trkpt lat="43.40513154096744" lon="12.672627445679366"><ele>583.0</ele><time>2026-04-25T09:33:29.999Z</time></trkpt><trkpt lat="43.40519909338417" lon="12.672768834273132"><ele>583.0</ele><time>2026-04-25T09:33:30.999Z</time></trkpt><trkpt lat="43.40526092798976" lon="12.672905700415788"><ele>583.0</ele><time>2026-04-25T09:33:31.999Z</time></trkpt><trkpt lat="43.40532909124604" lon="12.673041834378285"><ele>582.5</ele><time>2026-04-25T09:33:32.999Z</time></trkpt><trkpt lat="43.40539883158719" lon="12.67317784403664"><ele>582.0</ele><time>2026-04-25T09:33:33.999Z</time></trkpt><trkpt lat="43.405465044260225" lon="12.673318544796823"><ele>581.5</ele><time>2026-04-25T09:33:34.999Z</time></trkpt><trkpt lat="43.40553071022203" lon="12.673462951378662"><ele>581.0</ele><time>2026-04-25T09:33:35.999Z</time></trkpt><trkpt lat="43.40560148731479" lon="12.673606760099906"><ele>581.0</ele><time>2026-04-25T09:33:36.999Z</time></trkpt><trkpt lat="43.40567200078578" lon="12.673755335414057"><ele>581.0</ele><time>2026-04-25T09:33:37.999Z</time></trkpt><trkpt lat="43.405743116298424" lon="12.673906784069068"><ele>581.0</ele><time>2026-04-25T09:33:38.999Z</time></trkpt><trkpt lat="43.4058205040811" lon="12.674058043099306"><ele>581.0</ele><time>2026-04-25T09:33:39.999Z</time></trkpt><trkpt lat="43.40590130642164" lon="12.674210595144633"><ele>581.0</ele><time>2026-04-25T09:33:40.999Z</time></trkpt><trkpt lat="43.40598225946117" lon="12.674371719062144"><ele>581.0</ele><time>2026-04-25T09:33:41.999Z</time></trkpt><trkpt lat="43.40606006817139" lon="12.674548876459179"><ele>581.0</ele><time>2026-04-25T09:33:42.999Z</time></trkpt><trkpt lat="43.406135824427025" lon="12.674748297519185"><ele>579.6666666666666</ele><time>2026-04-25T09:33:43.999Z</time></trkpt><trkpt lat="43.40620930096347" lon="12.67496297840426"><ele>578.3333333333334</ele><time>2026-04-25T09:33:44.999Z</time></trkpt><trkpt lat="43.406276362919854" lon="12.67519968560496"><ele>577.0</ele><time>2026-04-25T09:33:45.999Z</time></trkpt><trkpt lat="43.40633823164622" lon="12.67544921801606"><ele>579.0</ele><time>2026-04-25T09:33:46.999Z</time></trkpt><trkpt lat="43.40640480844407" lon="12.67570484871708"><ele>581.0</ele><time>2026-04-25T09:33:47.999Z</time></trkpt><trkpt lat="43.40647220075888" lon="12.67596743779934"><ele>583.0</ele><time>2026-04-25T09:33:48.999Z</time></trkpt><trkpt lat="43.406529622831634" lon="12.676244198928256"><ele>583.0</ele><time>2026-04-25T09:33:49.999Z</time></trkpt><trkpt lat="43.406571397321535" lon="12.676523925730901"><ele>583.0</ele><time>2026-04-25T09:33:50.999Z</time></trkpt><trkpt lat="43.40661530507425" lon="12.67680214013846"><ele>583.0</ele><time>2026-04-25T09:33:51.999Z</time></trkpt><trkpt lat="43.40668474788795" lon="12.677072274245074"><ele>582.3333333333334</ele><time>2026-04-25T09:33:52.999Z</time></trkpt><trkpt lat="43.4067919083493" lon="12.677327852381518"><ele>581.6666666666666</ele><time>2026-04-25T09:33:53.999Z</time></trkpt><trkpt lat="43.40692729309589" lon="12.677576825689297"><ele>581.0</ele><time>2026-04-25T09:33:54.999Z</time></trkpt><trkpt lat="43.40706411872929" lon="12.677836643475137"><ele>584.0</ele><time>2026-04-25T09:33:55.999Z</time></trkpt><trkpt lat="43.4071927921955" lon="12.678110230474635"><ele>587.0</ele><time>2026-04-25T09:33:56.999Z</time></trkpt><trkpt lat="43.407323484101134" lon="12.678388071456844"><ele>579.5</ele><time>2026-04-25T09:33:57.999Z</time></trkpt><trkpt lat="43.40745735448736" lon="12.67867140920591"><ele>572.0</ele><time>2026-04-25T09:33:58.999Z</time></trkpt><trkpt lat="43.40759368553766" lon="12.678953728246237"><ele>572.0</ele><time>2026-04-25T09:33:59.999Z</time></trkpt><trkpt lat="43.40772592337523" lon="12.67923924464474"><ele>572.0</ele><time>2026-04-25T09:34:00.999Z</time></trkpt><trkpt lat="43.407845595524655" lon="12.679532225454407"><ele>572.0</ele><time>2026-04-25T09:34:01.999Z</time></trkpt><trkpt lat="43.40794025039536" lon="12.679818782078561"><ele>572.0</ele><time>2026-04-25T09:34:02.999Z</time></trkpt><trkpt lat="43.40802115385274" lon="12.680089957731234"><ele>572.0</ele><time>2026-04-25T09:34:03.999Z</time></trkpt><trkpt lat="43.40809571929889" lon="12.680330098728005"><ele>572.0</ele><time>2026-04-25T09:34:05Z</time></trkpt><trkpt lat="43.40817643040318" lon="12.680558302380769"><ele>572.0</ele><time>2026-04-25T09:34:06Z</time></trkpt><trkpt lat="43.40827328903682" lon="12.6807776559458"><ele>572.0</ele><time>2026-04-25T09:34:07Z</time></trkpt><trkpt lat="43.408379529910746" lon="12.680982309226218"><ele>570.0</ele><time>2026-04-25T09:34:08Z</time></trkpt><trkpt lat="43.40848140949105" lon="12.681174662819247"><ele>568.0</ele><time>2026-04-25T09:34:09Z</time></trkpt><trkpt lat="43.40857701696962" lon="12.681358826519505"><ele>566.0</ele><time>2026-04-25T09:34:10Z</time></trkpt><trkpt lat="43.40866922846728" lon="12.681531512119113"><ele>566.0</ele><time>2026-04-25T09:34:11Z</time></trkpt><trkpt lat="43.408750020152766" lon="12.681699064460187"><ele>566.0</ele><time>2026-04-25T09:34:12Z</time></trkpt><trkpt lat="43.40882733805762" lon="12.681875563873371"><ele>566.0</ele><time>2026-04-25T09:34:13Z</time></trkpt><trkpt lat="43.40891491275838" lon="12.682027482751515"><ele>566.0</ele><time>2026-04-25T09:34:14Z</time></trkpt><trkpt lat="43.40900102694884" lon="12.682173714191897"><ele>566.0</ele><time>2026-04-25T09:34:15Z</time></trkpt><trkpt lat="43.40909052359048" lon="12.682330451865854"><ele>566.0</ele><time>2026-04-25T09:34:16Z</time></trkpt><trkpt lat="43.409171240060715" lon="12.682488427695395"><ele>566.0</ele><time>2026-04-25T09:34:17Z</time></trkpt><trkpt lat="43.409241705030766" lon="12.682639425271917"><ele>566.0</ele><time>2026-04-25T09:34:18Z</time></trkpt><trkpt lat="43.40928668937521" lon="12.682774007113752"><ele>565.25</ele><time>2026-04-25T09:34:19Z</time></trkpt><trkpt lat="43.409356448965916" lon="12.682902574006494"><ele>564.5</ele><time>2026-04-25T09:34:20Z</time></trkpt><trkpt lat="43.409442199486726" lon="12.683064321280824"><ele>563.75</ele><time>2026-04-25T09:34:21Z</time></trkpt><trkpt lat="43.409519161303" lon="12.683188013414918"><ele>563.0</ele><time>2026-04-25T09:34:22Z</time></trkpt><trkpt lat="43.40958680412356" lon="12.683311778156984"><ele>563.0</ele><time>2026-04-25T09:34:23Z</time></trkpt><trkpt lat="43.409651055495324" lon="12.683456541735746"><ele>563.0</ele><time>2026-04-25T09:34:24Z</time></trkpt><trkpt lat="43.40970858878962" lon="12.683607003944651"><ele>563.0</ele><time>2026-04-25T09:34:25Z</time></trkpt><trkpt lat="43.40976816127333" lon="12.683763079977425"><ele>563.0</ele><time>2026-04-25T09:34:26Z</time></trkpt><trkpt lat="43.40984272376936" lon="12.683902686566194"><ele>564.5</ele><time>2026-04-25T09:34:27Z</time></trkpt><trkpt lat="43.40993212844798" lon="12.684024698430253"><ele>566.0</ele><time>2026-04-25T09:34:28Z</time></trkpt><trkpt lat="43.41003557990883" lon="12.684133565836929"><ele>567.5</ele><time>2026-04-25T09:34:29Z</time></trkpt><trkpt lat="43.41014207676889" lon="12.684256087224137"><ele>569.0</ele><time>2026-04-25T09:34:30Z</time></trkpt><trkpt lat="43.410236877745106" lon="12.684408711961494"><ele>570.6666666666666</ele><time>2026-04-25T09:34:31Z</time></trkpt><trkpt lat="43.41031733237628" lon="12.684597826536988"><ele>572.3333333333334</ele><time>2026-04-25T09:34:32Z</time></trkpt><trkpt lat="43.410392537188805" lon="12.684816716457197"><ele>574.0</ele><time>2026-04-25T09:34:33Z</time></trkpt><trkpt lat="43.410488239146254" lon="12.685024275099812"><ele>574.6666666666667</ele><time>2026-04-25T09:34:34Z</time></trkpt><trkpt lat="43.41060996985555" lon="12.685197621325207"><ele>575.3333333333334</ele><time>2026-04-25T09:34:35Z</time></trkpt><trkpt lat="43.41075137844101" lon="12.685354357064458"><ele>576.0</ele><time>2026-04-25T09:34:36Z</time></trkpt><trkpt lat="43.41091385055996" lon="12.685474775721268"><ele>574.6666666666666</ele><time>2026-04-25T09:34:37Z</time></trkpt><trkpt lat="43.411090519403814" lon="12.68555536239809"><ele>573.3333333333333</ele><time>2026-04-25T09:34:38Z</time></trkpt><trkpt lat="43.41126467674807" lon="12.685622380557744"><ele>572.0</ele><time>2026-04-25T09:34:39Z</time></trkpt><trkpt lat="43.411403976771425" lon="12.685717327238745"><ele>572.6666666666666</ele><time>2026-04-25T09:34:40Z</time></trkpt><trkpt lat="43.41151021693203" lon="12.68585418435424"><ele>573.3333333333334</ele><time>2026-04-25T09:34:41Z</time></trkpt><trkpt lat="43.4115818071083" lon="12.686051546133138"><ele>574.0</ele><time>2026-04-25T09:34:42Z</time></trkpt><trkpt lat="43.411618255366086" lon="12.686278217920995"><ele>574.0</ele><time>2026-04-25T09:34:43Z</time></trkpt><trkpt lat="43.41162532594397" lon="12.686535434920637"><ele>574.0</ele><time>2026-04-25T09:34:44Z</time></trkpt><trkpt lat="43.41164338232395" lon="12.68679749583566"><ele>574.0</ele><time>2026-04-25T09:34:45Z</time></trkpt><trkpt lat="43.411690574803714" lon="12.687068225798628"><ele>571.0</ele><time>2026-04-25T09:34:46Z</time></trkpt><trkpt lat="43.411766883089996" lon="12.687338476939393"><ele>568.0</ele><time>2026-04-25T09:34:47Z</time></trkpt><trkpt lat="43.41186011666006" lon="12.68760678388711"><ele>565.0</ele><time>2026-04-25T09:34:48Z</time></trkpt><trkpt lat="43.41193745387393" lon="12.687896534954826"><ele>564.5</ele><time>2026-04-25T09:34:49Z</time></trkpt><trkpt lat="43.41200064652295" lon="12.68819668496708"><ele>564.0</ele><time>2026-04-25T09:34:50Z</time></trkpt><trkpt lat="43.412061364826094" lon="12.688492172044551"><ele>563.6666666666666</ele><time>2026-04-25T09:34:51Z</time></trkpt><trkpt lat="43.41212106583969" lon="12.688767218400208"><ele>563.3333333333333</ele><time>2026-04-25T09:34:52Z</time></trkpt><trkpt lat="43.41217626089281" lon="12.689029744950346"><ele>563.0</ele><time>2026-04-25T09:34:53Z</time></trkpt><trkpt lat="43.41222158362787" lon="12.689289106271191"><ele>566.0</ele><time>2026-04-25T09:34:54Z</time></trkpt><trkpt lat="43.41225899125912" lon="12.689554264259858"><ele>569.0</ele><time>2026-04-25T09:34:55Z</time></trkpt><trkpt lat="43.412316125701686" lon="12.689818354309105"><ele>572.0</ele><time>2026-04-25T09:34:56Z</time></trkpt><trkpt lat="43.41241367581057" lon="12.690067206138124"><ele>567.0</ele><time>2026-04-25T09:34:57Z</time></trkpt><trkpt lat="43.41253760951907" lon="12.690311042397354"><ele>562.0</ele><time>2026-04-25T09:34:58Z</time></trkpt><trkpt lat="43.41266916293324" lon="12.690555310141225"><ele>557.0</ele><time>2026-04-25T09:34:59Z</time></trkpt><trkpt lat="43.41280761834321" lon="12.690805726169234"><ele>557.0</ele><time>2026-04-25T09:35:00Z</time></trkpt><trkpt lat="43.41294780451186" lon="12.691058050763754"><ele>557.0</ele><time>2026-04-25T09:35:01Z</time></trkpt><trkpt lat="43.41308907806768" lon="12.691311183685276"><ele>555.6666666666666</ele><time>2026-04-25T09:35:02Z</time></trkpt><trkpt lat="43.41322261860389" lon="12.691561113569056"><ele>554.3333333333334</ele><time>2026-04-25T09:35:03Z</time></trkpt><trkpt lat="43.41335018376577" lon="12.691799418054925"><ele>553.0</ele><time>2026-04-25T09:35:04Z</time></trkpt><trkpt lat="43.41347186816842" lon="12.692048885990978"><ele>553.0</ele><time>2026-04-25T09:35:05Z</time></trkpt><trkpt lat="43.413579604752975" lon="12.692318468460913"><ele>553.0</ele><time>2026-04-25T09:35:06Z</time></trkpt><trkpt lat="43.413671388675034" lon="12.69260804518075"><ele>551.5</ele><time>2026-04-25T09:35:07Z</time></trkpt><trkpt lat="43.413759929641635" lon="12.692901990244629"><ele>550.0</ele><time>2026-04-25T09:35:08Z</time></trkpt><trkpt lat="43.41385090270926" lon="12.693186061573366"><ele>553.0</ele><time>2026-04-25T09:35:09Z</time></trkpt><trkpt lat="43.41393492149718" lon="12.693468997049768"><ele>556.0</ele><time>2026-04-25T09:35:10Z</time></trkpt><trkpt lat="43.41401922595711" lon="12.69375897835648"><ele>559.0</ele><time>2026-04-25T09:35:11Z</time></trkpt><trkpt lat="43.414105208096494" lon="12.694038931658861"><ele>559.6666666666667</ele><time>2026-04-25T09:35:12Z</time></trkpt><trkpt lat="43.414183209996715" lon="12.69429702996455"><ele>560.3333333333334</ele><time>2026-04-25T09:35:13Z</time></trkpt><trkpt lat="43.414231818787265" lon="12.69455461641594"><ele>561.0</ele><time>2026-04-25T09:35:14Z</time></trkpt><trkpt lat="43.41424998167147" lon="12.694828914868248"><ele>561.0</ele><time>2026-04-25T09:35:15Z</time></trkpt><trkpt lat="43.41422182739173" lon="12.695108376984626"><ele>561.0</ele><time>2026-04-25T09:35:16Z</time></trkpt><trkpt lat="43.41418333937654" lon="12.695396065267088"><ele>561.0</ele><time>2026-04-25T09:35:17Z</time></trkpt><trkpt lat="43.41414664631758" lon="12.695689055529094"><ele>561.0</ele><time>2026-04-25T09:35:17.999Z</time></trkpt><trkpt lat="43.41411525985331" lon="12.695972837532759"><ele>561.0</ele><time>2026-04-25T09:35:18.999Z</time></trkpt><trkpt lat="43.41410701827796" lon="12.696266195879346"><ele>561.0</ele><time>2026-04-25T09:35:19.999Z</time></trkpt><trkpt lat="43.41411837411857" lon="12.696557311040907"><ele>562.0</ele><time>2026-04-25T09:35:20.999Z</time></trkpt><trkpt lat="43.414149759435404" lon="12.696847769699387"><ele>563.0</ele><time>2026-04-25T09:35:21.999Z</time></trkpt><trkpt lat="43.41420132432464" lon="12.697132020971297"><ele>564.0</ele><time>2026-04-25T09:35:22.999Z</time></trkpt><trkpt lat="43.41426403368936" lon="12.697395535364063"><ele>564.6666666666666</ele><time>2026-04-25T09:35:23.999Z</time></trkpt><trkpt lat="43.41432316957493" lon="12.697655265880035"><ele>565.3333333333333</ele><time>2026-04-25T09:35:24.999Z</time></trkpt><trkpt lat="43.41439777110388" lon="12.697914432027721"><ele>566.0</ele><time>2026-04-25T09:35:25.999Z</time></trkpt><trkpt lat="43.41449659535869" lon="12.698159347305248"><ele>564.3333333333333</ele><time>2026-04-25T09:35:26.999Z</time></trkpt><trkpt lat="43.41460148373859" lon="12.698393728843477"><ele>562.6666666666666</ele><time>2026-04-25T09:35:27.999Z</time></trkpt><trkpt lat="43.41469327920275" lon="12.698619697876971"><ele>561.0</ele><time>2026-04-25T09:35:28.999Z</time></trkpt><trkpt lat="43.41475969662259" lon="12.69885733570446"><ele>559.6666666666666</ele><time>2026-04-25T09:35:29.999Z</time></trkpt><trkpt lat="43.41476600329196" lon="12.699117022558559"><ele>558.3333333333333</ele><time>2026-04-25T09:35:30.999Z</time></trkpt><trkpt lat="43.41479219141209" lon="12.69939082986561"><ele>557.0</ele><time>2026-04-25T09:35:31.999Z</time></trkpt><trkpt lat="43.414810724760315" lon="12.699665852075386"><ele>557.0</ele><time>2026-04-25T09:35:32.999Z</time></trkpt><trkpt lat="43.41483844100775" lon="12.699929150258225"><ele>557.0</ele><time>2026-04-25T09:35:33.999Z</time></trkpt><trkpt lat="43.41486130163439" lon="12.700169934848248"><ele>557.0</ele><time>2026-04-25T09:35:34.999Z</time></trkpt><trkpt lat="43.41487609512871" lon="12.700371995186913"><ele>555.0</ele><time>2026-04-25T09:35:35.999Z</time></trkpt><trkpt lat="43.41491011807488" lon="12.70053674972479"><ele>553.0</ele><time>2026-04-25T09:35:36.999Z</time></trkpt><trkpt lat="43.41498523054911" lon="12.700667702090861"><ele>551.0</ele><time>2026-04-25T09:35:37.999Z</time></trkpt><trkpt lat="43.415101600018446" lon="12.700742789567226"><ele>549.0</ele><time>2026-04-25T09:35:38.999Z</time></trkpt><trkpt lat="43.41524599052256" lon="12.700773193430999"><ele>549.0</ele><time>2026-04-25T09:35:39.999Z</time></trkpt><trkpt lat="43.41540238087224" lon="12.70079702478241"><ele>549.0</ele><time>2026-04-25T09:35:40.999Z</time></trkpt><trkpt lat="43.415564174773856" lon="12.700833986365323"><ele>549.0</ele><time>2026-04-25T09:35:41.999Z</time></trkpt><trkpt lat="43.41572769851078" lon="12.700917129077276"><ele>548.3333333333334</ele><time>2026-04-25T09:35:42.999Z</time></trkpt><trkpt lat="43.415883526403526" lon="12.701044123878932"><ele>547.6666666666667</ele><time>2026-04-25T09:35:43.999Z</time></trkpt><trkpt lat="43.41602755549514" lon="12.70120497758263"><ele>547.0</ele><time>2026-04-25T09:35:44.999Z</time></trkpt><trkpt lat="43.41615419590756" lon="12.701378652404939"><ele>547.0</ele><time>2026-04-25T09:35:45.999Z</time></trkpt><trkpt lat="43.41625447083129" lon="12.701559601577506"><ele>547.0</ele><time>2026-04-25T09:35:46.999Z</time></trkpt><trkpt lat="43.41631703357764" lon="12.7017670997298"><ele>547.0</ele><time>2026-04-25T09:35:47.999Z</time></trkpt><trkpt lat="43.41633279433486" lon="12.701996612458897"><ele>546.6666666666667</ele><time>2026-04-25T09:35:48.999Z</time></trkpt><trkpt lat="43.41629939141677" lon="12.702247784139303"><ele>546.3333333333334</ele><time>2026-04-25T09:35:49.999Z</time></trkpt><trkpt lat="43.41622017162245" lon="12.702486294047835"><ele>546.0</ele><time>2026-04-25T09:35:50.999Z</time></trkpt><trkpt lat="43.41610433606883" lon="12.702706079046415"><ele>547.3333333333334</ele><time>2026-04-25T09:35:51.999Z</time></trkpt><trkpt lat="43.41595761416547" lon="12.702900870785328"><ele>548.6666666666667</ele><time>2026-04-25T09:35:52.999Z</time></trkpt><trkpt lat="43.41579714200031" lon="12.703070722368935"><ele>550.0</ele><time>2026-04-25T09:35:53.999Z</time></trkpt><trkpt lat="43.415666646209594" lon="12.703222427283446"><ele>550.0</ele><time>2026-04-25T09:35:54.999Z</time></trkpt><trkpt lat="43.41559072395016" lon="12.70338734284975"><ele>550.0</ele><time>2026-04-25T09:35:55.999Z</time></trkpt><trkpt lat="43.41556915383147" lon="12.703591310747917"><ele>550.0</ele><time>2026-04-25T09:35:56.999Z</time></trkpt><trkpt lat="43.41559693331902" lon="12.703823594542676"><ele>548.6666666666667</ele><time>2026-04-25T09:35:57.999Z</time></trkpt><trkpt lat="43.41565922713532" lon="12.70405639881375"><ele>547.3333333333334</ele><time>2026-04-25T09:35:58.999Z</time></trkpt><trkpt lat="43.41573047279661" lon="12.70429108990793"><ele>546.0</ele><time>2026-04-25T09:35:59.999Z</time></trkpt><trkpt lat="43.41578727052463" lon="12.704552563117561"><ele>545.3333333333334</ele><time>2026-04-25T09:36:00.999Z</time></trkpt><trkpt lat="43.4158452834376" lon="12.704821018877178"><ele>544.6666666666667</ele><time>2026-04-25T09:36:01.999Z</time></trkpt><trkpt lat="43.415908050377624" lon="12.705092377366368"><ele>544.0</ele><time>2026-04-25T09:36:02.999Z</time></trkpt><trkpt lat="43.41596348196502" lon="12.705354935357626"><ele>544.0</ele><time>2026-04-25T09:36:03.999Z</time></trkpt><trkpt lat="43.41601651456296" lon="12.705603270510462"><ele>544.0</ele><time>2026-04-25T09:36:04.999Z</time></trkpt><trkpt lat="43.41607475850314" lon="12.705840859159665"><ele>544.0</ele><time>2026-04-25T09:36:05.999Z</time></trkpt><trkpt lat="43.41615984520701" lon="12.706049109451639"><ele>543.6666666666667</ele><time>2026-04-25T09:36:06.999Z</time></trkpt><trkpt lat="43.41629081203551" lon="12.706229637055099"><ele>543.3333333333334</ele><time>2026-04-25T09:36:07.999Z</time></trkpt><trkpt lat="43.41645768926798" lon="12.706374513055458"><ele>543.0</ele><time>2026-04-25T09:36:08.999Z</time></trkpt><trkpt lat="43.416616540559055" lon="12.706525032566972"><ele>543.0</ele><time>2026-04-25T09:36:10Z</time></trkpt><trkpt lat="43.416742154701396" lon="12.706673075065469"><ele>543.0</ele><time>2026-04-25T09:36:11Z</time></trkpt><trkpt lat="43.41683493418631" lon="12.706808916933072"><ele>543.0</ele><time>2026-04-25T09:36:12Z</time></trkpt><trkpt lat="43.416933182149414" lon="12.706896854527875"><ele>543.0</ele><time>2026-04-25T09:36:13Z</time></trkpt><trkpt lat="43.41706722947157" lon="12.706905808557975"><ele>545.6666666666666</ele><time>2026-04-25T09:36:14Z</time></trkpt><trkpt lat="43.4172209053036" lon="12.70685220916649"><ele>548.3333333333333</ele><time>2026-04-25T09:36:15Z</time></trkpt><trkpt lat="43.41738008216627" lon="12.706762423331757"><ele>551.0</ele><time>2026-04-25T09:36:16Z</time></trkpt><trkpt lat="43.41755179836134" lon="12.706680780053086"><ele>551.0</ele><time>2026-04-25T09:36:17Z</time></trkpt><trkpt lat="43.41772665884572" lon="12.706613201379373"><ele>551.0</ele><time>2026-04-25T09:36:18Z</time></trkpt><trkpt lat="43.41789963282942" lon="12.706516338787745"><ele>551.0</ele><time>2026-04-25T09:36:19Z</time></trkpt><trkpt lat="43.41807808798715" lon="12.706440369802769"><ele>549.0</ele><time>2026-04-25T09:36:20Z</time></trkpt><trkpt lat="43.41826749519983" lon="12.706411569175787"><ele>547.0</ele><time>2026-04-25T09:36:21Z</time></trkpt><trkpt lat="43.41846620360294" lon="12.706421473991496"><ele>545.0</ele><time>2026-04-25T09:36:22Z</time></trkpt><trkpt lat="43.418656675015946" lon="12.706497775747488"><ele>549.3333333333333</ele><time>2026-04-25T09:36:23Z</time></trkpt><trkpt lat="43.41883589359216" lon="12.706627742854192"><ele>553.6666666666666</ele><time>2026-04-25T09:36:24Z</time></trkpt><trkpt lat="43.4189954166253" lon="12.706750861254896"><ele>558.0</ele><time>2026-04-25T09:36:25Z</time></trkpt><trkpt lat="43.41913370766937" lon="12.706888905675516"><ele>552.3333333333334</ele><time>2026-04-25T09:36:26Z</time></trkpt><trkpt lat="43.41926876948403" lon="12.70702579433727"><ele>546.6666666666667</ele><time>2026-04-25T09:36:27Z</time></trkpt><trkpt lat="43.41938637653115" lon="12.707280259535342"><ele>541.0</ele><time>2026-04-25T09:36:28Z</time></trkpt><trkpt lat="43.41944495783871" lon="12.707506591338163"><ele>541.0</ele><time>2026-04-25T09:36:29Z</time></trkpt><trkpt lat="43.41945359546351" lon="12.707737870326442"><ele>541.0</ele><time>2026-04-25T09:36:30Z</time></trkpt><trkpt lat="43.419452124080294" lon="12.707983820426323"><ele>541.0</ele><time>2026-04-25T09:36:31Z</time></trkpt><trkpt lat="43.41946369923684" lon="12.708238046781213"><ele>540.6666666666667</ele><time>2026-04-25T09:36:32Z</time></trkpt><trkpt lat="43.41949161981917" lon="12.708474213990012"><ele>540.3333333333334</ele><time>2026-04-25T09:36:33Z</time></trkpt><trkpt lat="43.41964836505003" lon="12.708588972100294"><ele>540.0</ele><time>2026-04-25T09:36:34Z</time></trkpt><trkpt lat="43.41977567317403" lon="12.708736768513381"><ele>538.5</ele><time>2026-04-25T09:36:35Z</time></trkpt><trkpt lat="43.419869596751006" lon="12.708819344344784"><ele>537.0</ele><time>2026-04-25T09:36:36Z</time></trkpt><trkpt lat="43.419997274392934" lon="12.708864366556659"><ele>535.5</ele><time>2026-04-25T09:36:37Z</time></trkpt><trkpt lat="43.42015735046141" lon="12.708746083816449"><ele>534.0</ele><time>2026-04-25T09:36:38Z</time></trkpt><trkpt lat="43.42031601199938" lon="12.708626519901769"><ele>535.0</ele><time>2026-04-25T09:36:39Z</time></trkpt><trkpt lat="43.42047634390102" lon="12.708482893452258"><ele>536.0</ele><time>2026-04-25T09:36:40Z</time></trkpt><trkpt lat="43.420629806215956" lon="12.708261296233685"><ele>537.0</ele><time>2026-04-25T09:36:41Z</time></trkpt><trkpt lat="43.42074972469241" lon="12.708041692398677"><ele>537.0</ele><time>2026-04-25T09:36:42Z</time></trkpt><trkpt lat="43.42088575689427" lon="12.707846463059408"><ele>537.0</ele><time>2026-04-25T09:36:43Z</time></trkpt><trkpt lat="43.4210522106397" lon="12.707691291907073"><ele>537.0</ele><time>2026-04-25T09:36:44Z</time></trkpt><trkpt lat="43.421219228001526" lon="12.707589076582925"><ele>536.25</ele><time>2026-04-25T09:36:45Z</time></trkpt><trkpt lat="43.421330213554945" lon="12.707581416750667"><ele>535.5</ele><time>2026-04-25T09:36:46Z</time></trkpt><trkpt lat="43.42147199899211" lon="12.70762676861743"><ele>534.75</ele><time>2026-04-25T09:36:47Z</time></trkpt><trkpt lat="43.421591784981224" lon="12.707751661971889"><ele>534.0</ele><time>2026-04-25T09:36:48Z</time></trkpt><trkpt lat="43.42173734842961" lon="12.707887871363079"><ele>534.0</ele><time>2026-04-25T09:36:49Z</time></trkpt><trkpt lat="43.42187529144072" lon="12.707959271625498"><ele>534.0</ele><time>2026-04-25T09:36:50Z</time></trkpt><trkpt lat="43.42204452444019" lon="12.707880393128615"><ele>534.0</ele><time>2026-04-25T09:36:51Z</time></trkpt><trkpt lat="43.42219158138587" lon="12.707776671934061"><ele>533.6666666666666</ele><time>2026-04-25T09:36:52Z</time></trkpt><trkpt lat="43.422340326963756" lon="12.7077449760519"><ele>533.3333333333333</ele><time>2026-04-25T09:36:53Z</time></trkpt><trkpt lat="43.422489160216614" lon="12.707826177692256"><ele>533.0</ele><time>2026-04-25T09:36:54Z</time></trkpt><trkpt lat="43.42263145014094" lon="12.707974222475961"><ele>533.0</ele><time>2026-04-25T09:36:55Z</time></trkpt><trkpt lat="43.422760631090526" lon="12.708168114020205"><ele>533.0</ele><time>2026-04-25T09:36:56Z</time></trkpt><trkpt lat="43.422925534371366" lon="12.7082853721915"><ele>533.0</ele><time>2026-04-25T09:36:57Z</time></trkpt><trkpt lat="43.42310700810321" lon="12.708355398481265"><ele>531.0</ele><time>2026-04-25T09:36:58Z</time></trkpt><trkpt lat="43.42329705107573" lon="12.708405171064644"><ele>529.0</ele><time>2026-04-25T09:36:59Z</time></trkpt><trkpt lat="43.42346112250661" lon="12.708541690048603"><ele>527.0</ele><time>2026-04-25T09:37:00Z</time></trkpt><trkpt lat="43.42358442069272" lon="12.708729728322488"><ele>527.0</ele><time>2026-04-25T09:37:01Z</time></trkpt><trkpt lat="43.42368499026814" lon="12.708916671748403"><ele>527.0</ele><time>2026-04-25T09:37:02Z</time></trkpt><trkpt lat="43.42373849485655" lon="12.709074927020614"><ele>527.0</ele><time>2026-04-25T09:37:03Z</time></trkpt><trkpt lat="43.42376423563341" lon="12.709250074410212"><ele>527.0</ele><time>2026-04-25T09:37:04Z</time></trkpt><trkpt lat="43.42375237333809" lon="12.709442158595472"><ele>527.3333333333333</ele><time>2026-04-25T09:37:05Z</time></trkpt><trkpt lat="43.42376755796046" lon="12.709665064955287"><ele>527.6666666666666</ele><time>2026-04-25T09:37:06Z</time></trkpt><trkpt lat="43.42383880031878" lon="12.709862561604993"><ele>528.0</ele><time>2026-04-25T09:37:07Z</time></trkpt><trkpt lat="43.423950220086205" lon="12.710033026027538"><ele>528.0</ele><time>2026-04-25T09:37:08Z</time></trkpt><trkpt lat="43.424083105436566" lon="12.710171486488687"><ele>528.0</ele><time>2026-04-25T09:37:09Z</time></trkpt><trkpt lat="43.424214094754724" lon="12.710293664347477"><ele>528.0</ele><time>2026-04-25T09:37:10Z</time></trkpt><trkpt lat="43.42438443141832" lon="12.710344950358225"><ele>527.6666666666666</ele><time>2026-04-25T09:37:11Z</time></trkpt><trkpt lat="43.42454295772984" lon="12.710423080704558"><ele>527.3333333333333</ele><time>2026-04-25T09:37:12Z</time></trkpt><trkpt lat="43.42468254005611" lon="12.710512003078444"><ele>527.0</ele><time>2026-04-25T09:37:13Z</time></trkpt><trkpt lat="43.424819471516905" lon="12.710591089772617"><ele>525.5</ele><time>2026-04-25T09:37:14Z</time></trkpt><trkpt lat="43.424946099940065" lon="12.710659916683245"><ele>524.0</ele><time>2026-04-25T09:37:15Z</time></trkpt><trkpt lat="43.42504175218776" lon="12.710790919945406"><ele>522.5</ele><time>2026-04-25T09:37:16Z</time></trkpt><trkpt lat="43.42513616064746" lon="12.710892140838869"><ele>521.0</ele><time>2026-04-25T09:37:17Z</time></trkpt><trkpt lat="43.42522820538808" lon="12.710930979081542"><ele>521.0</ele><time>2026-04-25T09:37:18Z</time></trkpt><trkpt lat="43.425306633143116" lon="12.711023299133727"><ele>521.0</ele><time>2026-04-25T09:37:19Z</time></trkpt><trkpt lat="43.42536668501165" lon="12.711130741808962"><ele>521.0</ele><time>2026-04-25T09:37:20Z</time></trkpt><trkpt lat="43.42539364339802" lon="12.71126997619419"><ele>521.0</ele><time>2026-04-25T09:37:21Z</time></trkpt><trkpt lat="43.42538054487371" lon="12.711439687554284"><ele>521.0</ele><time>2026-04-25T09:37:22Z</time></trkpt><trkpt lat="43.4253809783837" lon="12.711629382196914"><ele>521.0</ele><time>2026-04-25T09:37:23Z</time></trkpt><trkpt lat="43.42536824295889" lon="12.711794443246072"><ele>521.0</ele><time>2026-04-25T09:37:23.999Z</time></trkpt><trkpt lat="43.425326747473626" lon="12.711951564726633"><ele>521.0</ele><time>2026-04-25T09:37:24.999Z</time></trkpt><trkpt lat="43.42531606133432" lon="12.712111466780312"><ele>521.0</ele><time>2026-04-25T09:37:25.999Z</time></trkpt><trkpt lat="43.42535152888484" lon="12.712264713453802"><ele>521.0</ele><time>2026-04-25T09:37:26.999Z</time></trkpt><trkpt lat="43.425404695052336" lon="12.712448911264682"><ele>521.0</ele><time>2026-04-25T09:37:27.999Z</time></trkpt><trkpt lat="43.42545574726966" lon="12.712637080501315"><ele>521.0</ele><time>2026-04-25T09:37:28.999Z</time></trkpt><trkpt lat="43.42549049356678" lon="12.712825443246427"><ele>521.0</ele><time>2026-04-25T09:37:29.999Z</time></trkpt><trkpt lat="43.42549553120408" lon="12.713025553495564"><ele>523.0</ele><time>2026-04-25T09:37:30.999Z</time></trkpt><trkpt lat="43.42545712516166" lon="12.713231178576105"><ele>525.0</ele><time>2026-04-25T09:37:31.999Z</time></trkpt><trkpt lat="43.42543479729193" lon="12.713428047152286"><ele>527.0</ele><time>2026-04-25T09:37:32.999Z</time></trkpt><trkpt lat="43.425465759336" lon="12.713638297756484"><ele>526.0</ele><time>2026-04-25T09:37:33.999Z</time></trkpt><trkpt lat="43.42552868352483" lon="12.713844612751979"><ele>525.0</ele><time>2026-04-25T09:37:34.999Z</time></trkpt><trkpt lat="43.42560448459317" lon="12.714052808321476"><ele>524.0</ele><time>2026-04-25T09:37:35.999Z</time></trkpt><trkpt lat="43.42568658461704" lon="12.714256978202922"><ele>524.0</ele><time>2026-04-25T09:37:36.999Z</time></trkpt><trkpt lat="43.42575529892684" lon="12.714454171892601"><ele>524.0</ele><time>2026-04-25T09:37:37.999Z</time></trkpt><trkpt lat="43.4258166324437" lon="12.714646705359392"><ele>524.0</ele><time>2026-04-25T09:37:38.999Z</time></trkpt><trkpt lat="43.42583564626233" lon="12.714831561265894"><ele>524.0</ele><time>2026-04-25T09:37:39.999Z</time></trkpt><trkpt lat="43.42580492463986" lon="12.715008458998478"><ele>524.0</ele><time>2026-04-25T09:37:40.999Z</time></trkpt><trkpt lat="43.42571155572458" lon="12.715164273376871"><ele>524.0</ele><time>2026-04-25T09:37:41.999Z</time></trkpt><trkpt lat="43.42560618244323" lon="12.71531879973988"><ele>524.0</ele><time>2026-04-25T09:37:42.999Z</time></trkpt><trkpt lat="43.42550147892672" lon="12.715471613145468"><ele>528.3333333333333</ele><time>2026-04-25T09:37:43.999Z</time></trkpt><trkpt lat="43.42538730657342" lon="12.715598865219174"><ele>532.6666666666666</ele><time>2026-04-25T09:37:44.999Z</time></trkpt><trkpt lat="43.42523722857583" lon="12.715679428733235"><ele>537.0</ele><time>2026-04-25T09:37:45.999Z</time></trkpt><trkpt lat="43.425073483534" lon="12.715714826758747"><ele>537.0</ele><time>2026-04-25T09:37:46.999Z</time></trkpt><trkpt lat="43.42489493494273" lon="12.715700636081609"><ele>537.0</ele><time>2026-04-25T09:37:47.999Z</time></trkpt><trkpt lat="43.42471741060796" lon="12.715655664883135"><ele>537.0</ele><time>2026-04-25T09:37:48.999Z</time></trkpt><trkpt lat="43.42453853365869" lon="12.71561908740785"><ele>532.0</ele><time>2026-04-25T09:37:49.999Z</time></trkpt><trkpt lat="43.4243658779646" lon="12.715579440473098"><ele>527.0</ele><time>2026-04-25T09:37:50.999Z</time></trkpt><trkpt lat="43.424213238220275" lon="12.715514979204203"><ele>522.0</ele><time>2026-04-25T09:37:51.999Z</time></trkpt><trkpt lat="43.424078742842354" lon="12.715422574331031"><ele>522.0</ele><time>2026-04-25T09:37:52.999Z</time></trkpt><trkpt lat="43.423962243875096" lon="12.715365365611719"><ele>522.0</ele><time>2026-04-25T09:37:53.999Z</time></trkpt><trkpt lat="43.42385598841944" lon="12.715382818157757"><ele>522.0</ele><time>2026-04-25T09:37:54.999Z</time></trkpt><trkpt lat="43.4237684086814" lon="12.715479834855818"><ele>522.0</ele><time>2026-04-25T09:37:55.999Z</time></trkpt><trkpt lat="43.42370131886819" lon="12.715620892300812"><ele>519.3333333333334</ele><time>2026-04-25T09:37:56.999Z</time></trkpt><trkpt lat="43.42366553835258" lon="12.71579802911417"><ele>516.6666666666667</ele><time>2026-04-25T09:37:57.999Z</time></trkpt><trkpt lat="43.423645893059245" lon="12.71599942377341"><ele>514.0</ele><time>2026-04-25T09:37:58.999Z</time></trkpt><trkpt lat="43.42364079506677" lon="12.716232070467997"><ele>514.0</ele><time>2026-04-25T09:37:59.999Z</time></trkpt><trkpt lat="43.42354435702469" lon="12.716414802777585"><ele>514.0</ele><time>2026-04-25T09:38:00.999Z</time></trkpt><trkpt lat="43.42344794976434" lon="12.716596959693721"><ele>514.0</ele><time>2026-04-25T09:38:01.999Z</time></trkpt><trkpt lat="43.42331199847334" lon="12.716752388503684"><ele>514.0</ele><time>2026-04-25T09:38:02.999Z</time></trkpt><trkpt lat="43.42316384278548" lon="12.716890277418633"><ele>514.0</ele><time>2026-04-25T09:38:03.999Z</time></trkpt><trkpt lat="43.4230078470355" lon="12.717040715085664"><ele>514.0</ele><time>2026-04-25T09:38:04.999Z</time></trkpt><trkpt lat="43.42285411679066" lon="12.717187010898122"><ele>515.0</ele><time>2026-04-25T09:38:05.999Z</time></trkpt><trkpt lat="43.42269352867435" lon="12.717322881636903"><ele>516.0</ele><time>2026-04-25T09:38:06.999Z</time></trkpt><trkpt lat="43.422541939021464" lon="12.71746003857596"><ele>517.0</ele><time>2026-04-25T09:38:07.999Z</time></trkpt><trkpt lat="43.422438107744526" lon="12.717711610232486"><ele>521.0</ele><time>2026-04-25T09:38:08.999Z</time></trkpt><trkpt lat="43.42234582853283" lon="12.717926280954975"><ele>525.0</ele><time>2026-04-25T09:38:09.999Z</time></trkpt><trkpt lat="43.42228470699626" lon="12.718169426974194"><ele>529.0</ele><time>2026-04-25T09:38:10.999Z</time></trkpt><trkpt lat="43.422235992951364" lon="12.718418954795784"><ele>532.6666666666667</ele><time>2026-04-25T09:38:11.999Z</time></trkpt><trkpt lat="43.42218330999307" lon="12.718669101662822"><ele>536.3333333333334</ele><time>2026-04-25T09:38:12.999Z</time></trkpt><trkpt lat="43.422128641826596" lon="12.718919270653025"><ele>540.0</ele><time>2026-04-25T09:38:13.999Z</time></trkpt><trkpt lat="43.422069081639215" lon="12.719176126064475"><ele>530.0</ele><time>2026-04-25T09:38:14.999Z</time></trkpt><trkpt lat="43.422019478064506" lon="12.719436737562058"><ele>520.0</ele><time>2026-04-25T09:38:16Z</time></trkpt><trkpt lat="43.42199439696235" lon="12.719701398959696"><ele>510.0</ele><time>2026-04-25T09:38:17Z</time></trkpt><trkpt lat="43.42198163411758" lon="12.719961887565002"><ele>510.0</ele><time>2026-04-25T09:38:18Z</time></trkpt><trkpt lat="43.42195909218784" lon="12.720200104898293"><ele>510.0</ele><time>2026-04-25T09:38:19Z</time></trkpt><trkpt lat="43.42190748935524" lon="12.7204132517015"><ele>510.0</ele><time>2026-04-25T09:38:20Z</time></trkpt><trkpt lat="43.421849983700604" lon="12.720625623747514"><ele>514.0</ele><time>2026-04-25T09:38:21Z</time></trkpt><trkpt lat="43.42181308238406" lon="12.720828609512273"><ele>518.0</ele><time>2026-04-25T09:38:22Z</time></trkpt><trkpt lat="43.42177300682655" lon="12.721030930553555"><ele>522.0</ele><time>2026-04-25T09:38:23Z</time></trkpt><trkpt lat="43.42169914114743" lon="12.721222206587397"><ele>528.3333333333334</ele><time>2026-04-25T09:38:24Z</time></trkpt><trkpt lat="43.42158202247701" lon="12.721394280783096"><ele>534.6666666666667</ele><time>2026-04-25T09:38:25Z</time></trkpt><trkpt lat="43.42145527698288" lon="12.72154185925328"><ele>541.0</ele><time>2026-04-25T09:38:26Z</time></trkpt><trkpt lat="43.421320323783256" lon="12.721671904038262"><ele>535.3333333333334</ele><time>2026-04-25T09:38:27Z</time></trkpt><trkpt lat="43.421165077718356" lon="12.721754038977195"><ele>529.6666666666666</ele><time>2026-04-25T09:38:28Z</time></trkpt><trkpt lat="43.42104279678576" lon="12.72184887152149"><ele>524.0</ele><time>2026-04-25T09:38:29Z</time></trkpt><trkpt lat="43.420946186350825" lon="12.722013276229834"><ele>524.0</ele><time>2026-04-25T09:38:30Z</time></trkpt><trkpt lat="43.420893400704685" lon="12.722227843073329"><ele>524.0</ele><time>2026-04-25T09:38:31Z</time></trkpt><trkpt lat="43.42086181550796" lon="12.722448144363197"><ele>524.0</ele><time>2026-04-25T09:38:32Z</time></trkpt><trkpt lat="43.42082856945212" lon="12.722642840753668"><ele>525.0</ele><time>2026-04-25T09:38:33Z</time></trkpt><trkpt lat="43.42076342382435" lon="12.722795913160319"><ele>526.0</ele><time>2026-04-25T09:38:34Z</time></trkpt><trkpt lat="43.420675573934886" lon="12.722908257813467"><ele>527.0</ele><time>2026-04-25T09:38:35Z</time></trkpt><trkpt lat="43.420578191281095" lon="12.722986315769333"><ele>528.0</ele><time>2026-04-25T09:38:36Z</time></trkpt><trkpt lat="43.42051133104941" lon="12.723054222002547"><ele>529.0</ele><time>2026-04-25T09:38:37Z</time></trkpt><trkpt lat="43.42046065655208" lon="12.723138675959314"><ele>529.0</ele><time>2026-04-25T09:38:38Z</time></trkpt><trkpt lat="43.42042465803277" lon="12.723231302854943"><ele>529.0</ele><time>2026-04-25T09:38:39Z</time></trkpt><trkpt lat="43.42039443849988" lon="12.723414028276661"><ele>529.0</ele><time>2026-04-25T09:38:41Z</time></trkpt><trkpt lat="43.42037734841709" lon="12.723579226821869"><ele>529.0</ele><time>2026-04-25T09:38:42Z</time></trkpt><trkpt lat="43.420368809222005" lon="12.7237263121978"><ele>529.0</ele><time>2026-04-25T09:38:43Z</time></trkpt><trkpt lat="43.4203588697181" lon="12.7238887958521"><ele>533.4</ele><time>2026-04-25T09:38:44Z</time></trkpt><trkpt lat="43.42031463114875" lon="12.72403104229364"><ele>537.8</ele><time>2026-04-25T09:38:45Z</time></trkpt><trkpt lat="43.42029961962781" lon="12.724162712229205"><ele>542.2</ele><time>2026-04-25T09:38:46Z</time></trkpt><trkpt lat="43.42029121769888" lon="12.724288513515368"><ele>546.6</ele><time>2026-04-25T09:38:47Z</time></trkpt><trkpt lat="43.420311599401266" lon="12.724418806207325"><ele>551.0</ele><time>2026-04-25T09:38:48Z</time></trkpt><trkpt lat="43.42039199802843" lon="12.724523206131746"><ele>567.6</ele><time>2026-04-25T09:38:49Z</time></trkpt><trkpt lat="43.42047369502428" lon="12.724604060769785"><ele>584.2</ele><time>2026-04-25T09:38:50Z</time></trkpt><trkpt lat="43.42056255038816" lon="12.724673140536362"><ele>600.8</ele><time>2026-04-25T09:38:51Z</time></trkpt><trkpt lat="43.42065123018452" lon="12.724757855068106"><ele>617.4</ele><time>2026-04-25T09:38:52Z</time></trkpt><trkpt lat="43.420755839012095" lon="12.72479929151239"><ele>634.0</ele><time>2026-04-25T09:38:53Z</time></trkpt><trkpt lat="43.42087156036583" lon="12.724848313966387"><ele>634.0</ele><time>2026-04-25T09:38:54Z</time></trkpt><trkpt lat="43.420945515692445" lon="12.724937870175378"><ele>634.0</ele><time>2026-04-25T09:38:55Z</time></trkpt><trkpt lat="43.42098115683408" lon="12.725029951857891"><ele>634.0</ele><time>2026-04-25T09:38:56Z</time></trkpt><trkpt lat="43.42100228648074" lon="12.725140446239761"><ele>634.0</ele><time>2026-04-25T09:38:57Z</time></trkpt><trkpt lat="43.42100821265929" lon="12.725274890079396"><ele>634.0</ele><time>2026-04-25T09:38:58Z</time></trkpt><trkpt lat="43.42098470946846" lon="12.725392872505765"><ele>634.0</ele><time>2026-04-25T09:38:59Z</time></trkpt><trkpt lat="43.420942279365576" lon="12.725524659447167"><ele>611.8</ele><time>2026-04-25T09:39:00Z</time></trkpt><trkpt lat="43.42091954070277" lon="12.725650709186178"><ele>589.5999999999999</ele><time>2026-04-25T09:39:01Z</time></trkpt><trkpt lat="43.420931962809284" lon="12.725811993935725"><ele>567.4</ele><time>2026-04-25T09:39:02Z</time></trkpt><trkpt lat="43.420943968641986" lon="12.725976103879937"><ele>545.1999999999999</ele><time>2026-04-25T09:39:03Z</time></trkpt><trkpt lat="43.42095537088363" lon="12.726124173998912"><ele>523.0</ele><time>2026-04-25T09:39:04Z</time></trkpt><trkpt lat="43.420966508635836" lon="12.726266302628272"><ele>523.0</ele><time>2026-04-25T09:39:05Z</time></trkpt><trkpt lat="43.42097577385675" lon="12.72638649817333"><ele>523.0</ele><time>2026-04-25T09:39:06Z</time></trkpt><trkpt lat="43.420983988013745" lon="12.726509689132815"><ele>523.0</ele><time>2026-04-25T09:39:07Z</time></trkpt><trkpt lat="43.420990443469776" lon="12.726633997967939"><ele>523.0</ele><time>2026-04-25T09:39:08Z</time></trkpt><trkpt lat="43.42102210371342" lon="12.726751401670937"><ele>523.0</ele><time>2026-04-25T09:39:09Z</time></trkpt><trkpt lat="43.42106421253957" lon="12.726885668970775"><ele>520.25</ele><time>2026-04-25T09:39:10Z</time></trkpt><trkpt lat="43.42112745219446" lon="12.727005802416288"><ele>517.5</ele><time>2026-04-25T09:39:11Z</time></trkpt><trkpt lat="43.421190649796586" lon="12.727145122976806"><ele>514.75</ele><time>2026-04-25T09:39:12Z</time></trkpt><trkpt lat="43.42122756729409" lon="12.727365442522338"><ele>512.0</ele><time>2026-04-25T09:39:13Z</time></trkpt><trkpt lat="43.42125651973923" lon="12.727511025949923"><ele>511.99999999999994</ele><time>2026-04-25T09:39:14Z</time></trkpt><trkpt lat="43.421293560560095" lon="12.727638839200903"><ele>512.0</ele><time>2026-04-25T09:39:15Z</time></trkpt><trkpt lat="43.421352481871075" lon="12.72770872421783"><ele>512.0</ele><time>2026-04-25T09:39:16Z</time></trkpt><trkpt lat="43.42142117988252" lon="12.72779718966305"><ele>512.0</ele><time>2026-04-25T09:39:17Z</time></trkpt><trkpt lat="43.421490434481335" lon="12.727866525397362"><ele>511.99999999999994</ele><time>2026-04-25T09:39:18Z</time></trkpt><trkpt lat="43.42157383808117" lon="12.727900994302018"><ele>512.0</ele><time>2026-04-25T09:39:19Z</time></trkpt><trkpt lat="43.4216757287247" lon="12.72790887327952"><ele>506.8</ele><time>2026-04-25T09:39:20Z</time></trkpt><trkpt lat="43.42177924671931" lon="12.727931787641747"><ele>501.6</ele><time>2026-04-25T09:39:21Z</time></trkpt><trkpt lat="43.4218703864163" lon="12.728004602370369"><ele>496.40000000000003</ele><time>2026-04-25T09:39:22Z</time></trkpt><trkpt lat="43.42196222111758" lon="12.728073832447125"><ele>491.20000000000005</ele><time>2026-04-25T09:39:23Z</time></trkpt><trkpt lat="43.42203941676782" lon="12.728173524542536"><ele>486.0</ele><time>2026-04-25T09:39:24Z</time></trkpt><trkpt lat="43.4221054307683" lon="12.72830792051025"><ele>494.5</ele><time>2026-04-25T09:39:25Z</time></trkpt><trkpt lat="43.422173475288325" lon="12.728446595709546"><ele>503.0</ele><time>2026-04-25T09:39:25.999Z</time></trkpt><trkpt lat="43.42225545113539" lon="12.72856572709766"><ele>511.5</ele><time>2026-04-25T09:39:26.999Z</time></trkpt><trkpt lat="43.42234227232925" lon="12.728681860595247"><ele>520.0</ele><time>2026-04-25T09:39:27.999Z</time></trkpt><trkpt lat="43.422411874921295" lon="12.728808270562377"><ele>520.0</ele><time>2026-04-25T09:39:28.999Z</time></trkpt><trkpt lat="43.422447488749874" lon="12.728947864979736"><ele>520.0</ele><time>2026-04-25T09:39:29.999Z</time></trkpt><trkpt lat="43.42244821820719" lon="12.72914117479252"><ele>520.0</ele><time>2026-04-25T09:39:30.999Z</time></trkpt><trkpt lat="43.42244024833653" lon="12.729321180129975"><ele>520.0</ele><time>2026-04-25T09:39:31.999Z</time></trkpt><trkpt lat="43.42244522190119" lon="12.729500488107123"><ele>516.0</ele><time>2026-04-25T09:39:32.999Z</time></trkpt><trkpt lat="43.422453028965386" lon="12.729690610144782"><ele>512.0</ele><time>2026-04-25T09:39:33.999Z</time></trkpt><trkpt lat="43.422457495546375" lon="12.729876490878679"><ele>508.0</ele><time>2026-04-25T09:39:34.999Z</time></trkpt><trkpt lat="43.422465252544505" lon="12.730047415432724"><ele>504.0</ele><time>2026-04-25T09:39:35.999Z</time></trkpt><trkpt lat="43.42247050314912" lon="12.730210840566995"><ele>503.0</ele><time>2026-04-25T09:39:36.999Z</time></trkpt><trkpt lat="43.42246755595399" lon="12.730380835017105"><ele>502.0</ele><time>2026-04-25T09:39:37.999Z</time></trkpt><trkpt lat="43.42244651124964" lon="12.730539941196641"><ele>501.0</ele><time>2026-04-25T09:39:38.999Z</time></trkpt><trkpt lat="43.42235916890527" lon="12.730677596644194"><ele>500.0</ele><time>2026-04-25T09:39:39.999Z</time></trkpt><trkpt lat="43.422320282045014" lon="12.730808703673908"><ele>500.0</ele><time>2026-04-25T09:39:40.999Z</time></trkpt><trkpt lat="43.42232324768649" lon="12.730970724522496"><ele>500.0</ele><time>2026-04-25T09:39:41.999Z</time></trkpt><trkpt lat="43.422378583661" lon="12.731132562388863"><ele>500.0</ele><time>2026-04-25T09:39:42.999Z</time></trkpt><trkpt lat="43.422487983086306" lon="12.731225725425757"><ele>500.0</ele><time>2026-04-25T09:39:43.999Z</time></trkpt><trkpt lat="43.42262151972579" lon="12.731250667400634"><ele>490.66666666666663</ele><time>2026-04-25T09:39:44.999Z</time></trkpt><trkpt lat="43.42276378542699" lon="12.731224620394661"><ele>481.33333333333337</ele><time>2026-04-25T09:39:45.999Z</time></trkpt><trkpt lat="43.42291949289804" lon="12.731205655210882"><ele>472.0</ele><time>2026-04-25T09:39:46.999Z</time></trkpt><trkpt lat="43.4230832071122" lon="12.73117568000221"><ele>471.6666666666667</ele><time>2026-04-25T09:39:47.999Z</time></trkpt><trkpt lat="43.42325859787956" lon="12.731146998274868"><ele>471.33333333333337</ele><time>2026-04-25T09:39:48.999Z</time></trkpt><trkpt lat="43.42344320723274" lon="12.731109979989686"><ele>471.0</ele><time>2026-04-25T09:39:49.999Z</time></trkpt><trkpt lat="43.42363603522398" lon="12.731075525152608"><ele>482.33333333333337</ele><time>2026-04-25T09:39:50.999Z</time></trkpt><trkpt lat="43.42383254916456" lon="12.73105044372159"><ele>493.6666666666667</ele><time>2026-04-25T09:39:51.999Z</time></trkpt><trkpt lat="43.424026275284675" lon="12.731017781418835"><ele>505.0</ele><time>2026-04-25T09:39:52.999Z</time></trkpt><trkpt lat="43.42421133220742" lon="12.730991218834404"><ele>505.0</ele><time>2026-04-25T09:39:53.999Z</time></trkpt><trkpt lat="43.42439065487977" lon="12.73096533348595"><ele>505.0</ele><time>2026-04-25T09:39:54.999Z</time></trkpt><trkpt lat="43.424566896640115" lon="12.730931393733897"><ele>505.0</ele><time>2026-04-25T09:39:55.999Z</time></trkpt><trkpt lat="43.424739233220116" lon="12.73087633358677"><ele>500.25</ele><time>2026-04-25T09:39:56.999Z</time></trkpt><trkpt lat="43.42489464396724" lon="12.730786062083904"><ele>495.5</ele><time>2026-04-25T09:39:57.999Z</time></trkpt><trkpt lat="43.42501864791867" lon="12.73066232906458"><ele>490.75</ele><time>2026-04-25T09:39:58.999Z</time></trkpt><trkpt lat="43.42512529564982" lon="12.730568981423739"><ele>486.0</ele><time>2026-04-25T09:39:59.999Z</time></trkpt><trkpt lat="43.42524062907546" lon="12.730545530217706"><ele>486.0</ele><time>2026-04-25T09:40:00.999Z</time></trkpt><trkpt lat="43.425366755555" lon="12.73059423407982"><ele>486.0</ele><time>2026-04-25T09:40:01.999Z</time></trkpt><trkpt lat="43.42551710574736" lon="12.730696544129035"><ele>486.0</ele><time>2026-04-25T09:40:02.999Z</time></trkpt><trkpt lat="43.42565815883762" lon="12.730820893229708"><ele>487.66666666666663</ele><time>2026-04-25T09:40:03.999Z</time></trkpt><trkpt lat="43.425809522848894" lon="12.73092069900333"><ele>489.3333333333333</ele><time>2026-04-25T09:40:04.999Z</time></trkpt><trkpt lat="43.42596816472886" lon="12.731035531047155"><ele>491.0</ele><time>2026-04-25T09:40:05.999Z</time></trkpt><trkpt lat="43.42612149812775" lon="12.731173482197313"><ele>487.66666666666663</ele><time>2026-04-25T09:40:06.999Z</time></trkpt><trkpt lat="43.426268129321876" lon="12.731350330846434"><ele>484.33333333333337</ele><time>2026-04-25T09:40:07.999Z</time></trkpt><trkpt lat="43.42640650219227" lon="12.731518438726088"><ele>481.0</ele><time>2026-04-25T09:40:08.999Z</time></trkpt><trkpt lat="43.426545618277586" lon="12.731668400382585"><ele>481.0</ele><time>2026-04-25T09:40:09.999Z</time></trkpt><trkpt lat="43.42666820332873" lon="12.73184169218295"><ele>481.0</ele><time>2026-04-25T09:40:10.999Z</time></trkpt><trkpt lat="43.42677869499209" lon="12.732046785996193"><ele>481.0</ele><time>2026-04-25T09:40:11.999Z</time></trkpt><trkpt lat="43.42687080039039" lon="12.73226352041203"><ele>473.6666666666667</ele><time>2026-04-25T09:40:12.999Z</time></trkpt><trkpt lat="43.42698889302131" lon="12.732449772047646"><ele>466.33333333333337</ele><time>2026-04-25T09:40:13.999Z</time></trkpt><trkpt lat="43.42713616908332" lon="12.732602162026911"><ele>459.0</ele><time>2026-04-25T09:40:14.999Z</time></trkpt><trkpt lat="43.427280542466555" lon="12.732750753011807"><ele>457.33333333333337</ele><time>2026-04-25T09:40:15.999Z</time></trkpt><trkpt lat="43.42741867165248" lon="12.732890151131144"><ele>455.6666666666667</ele><time>2026-04-25T09:40:16.999Z</time></trkpt><trkpt lat="43.42756758700396" lon="12.732998385588562"><ele>454.0</ele><time>2026-04-25T09:40:17.999Z</time></trkpt><trkpt lat="43.427731970607915" lon="12.733029385066605"><ele>454.0</ele><time>2026-04-25T09:40:18.999Z</time></trkpt><trkpt lat="43.4279039683393" lon="12.733020863046104"><ele>454.0</ele><time>2026-04-25T09:40:19.999Z</time></trkpt><trkpt lat="43.42809148033273" lon="12.732998122886778"><ele>454.0</ele><time>2026-04-25T09:40:20.999Z</time></trkpt><trkpt lat="43.42828418100686" lon="12.732991957052452"><ele>453.6666666666667</ele><time>2026-04-25T09:40:22Z</time></trkpt><trkpt lat="43.42847560687907" lon="12.732962089646625"><ele>453.33333333333337</ele><time>2026-04-25T09:40:23Z</time></trkpt><trkpt lat="43.428669096862386" lon="12.732943177538385"><ele>453.0</ele><time>2026-04-25T09:40:24Z</time></trkpt><trkpt lat="43.42885130316168" lon="12.732912426751339"><ele>453.0</ele><time>2026-04-25T09:40:25Z</time></trkpt><trkpt lat="43.42902803468809" lon="12.732858948175062"><ele>453.0</ele><time>2026-04-25T09:40:26Z</time></trkpt><trkpt lat="43.42920730797535" lon="12.732776593219226"><ele>453.0</ele><time>2026-04-25T09:40:27Z</time></trkpt><trkpt lat="43.429386416314664" lon="12.732678811860255"><ele>453.66666666666663</ele><time>2026-04-25T09:40:28Z</time></trkpt><trkpt lat="43.42956543432584" lon="12.73257334754018"><ele>454.3333333333333</ele><time>2026-04-25T09:40:29Z</time></trkpt><trkpt lat="43.429739920275985" lon="12.732471036640908"><ele>455.0</ele><time>2026-04-25T09:40:30Z</time></trkpt><trkpt lat="43.429904863290844" lon="12.73237856558911"><ele>455.0</ele><time>2026-04-25T09:40:31Z</time></trkpt><trkpt lat="43.430057701128426" lon="12.732307941940839"><ele>455.0</ele><time>2026-04-25T09:40:32Z</time></trkpt><trkpt lat="43.430205803325435" lon="12.732259848908745"><ele>455.0</ele><time>2026-04-25T09:40:33Z</time></trkpt><trkpt lat="43.430349724102534" lon="12.732236590976768"><ele>458.75</ele><time>2026-04-25T09:40:34Z</time></trkpt><trkpt lat="43.43049062835462" lon="12.732240085079276"><ele>462.5</ele><time>2026-04-25T09:40:35Z</time></trkpt><trkpt lat="43.43062291583011" lon="12.732277673238002"><ele>466.25</ele><time>2026-04-25T09:40:36Z</time></trkpt><trkpt lat="43.430738419179065" lon="12.732342187378897"><ele>470.0</ele><time>2026-04-25T09:40:37Z</time></trkpt><trkpt lat="43.43083425399795" lon="12.732453520565445"><ele>470.0</ele><time>2026-04-25T09:40:38Z</time></trkpt><trkpt lat="43.430914728692805" lon="12.73263599736733"><ele>470.0</ele><time>2026-04-25T09:40:39Z</time></trkpt><trkpt lat="43.430998874542816" lon="12.732811418760411"><ele>470.0</ele><time>2026-04-25T09:40:40Z</time></trkpt><trkpt lat="43.43109981493141" lon="12.732985525152728"><ele>465.66666666666663</ele><time>2026-04-25T09:40:41Z</time></trkpt><trkpt lat="43.43119497678215" lon="12.733189889637524"><ele>461.33333333333337</ele><time>2026-04-25T09:40:42Z</time></trkpt><trkpt lat="43.43129182443289" lon="12.733397024021226"><ele>457.0</ele><time>2026-04-25T09:40:43Z</time></trkpt><trkpt lat="43.431390498252306" lon="12.733616170852878"><ele>457.0</ele><time>2026-04-25T09:40:44Z</time></trkpt><trkpt lat="43.431482686695574" lon="12.733842111842868"><ele>457.0</ele><time>2026-04-25T09:40:45Z</time></trkpt><trkpt lat="43.43155990434569" lon="12.734069754112294"><ele>457.0</ele><time>2026-04-25T09:40:46Z</time></trkpt><trkpt lat="43.43161693179772" lon="12.734296636711184"><ele>455.33333333333337</ele><time>2026-04-25T09:40:47Z</time></trkpt><trkpt lat="43.43168556302419" lon="12.734516679416261"><ele>453.66666666666663</ele><time>2026-04-25T09:40:48Z</time></trkpt><trkpt lat="43.43178203821348" lon="12.734727238554854"><ele>452.0</ele><time>2026-04-25T09:40:49Z</time></trkpt><trkpt lat="43.431903667134506" lon="12.734924033704985"><ele>452.0</ele><time>2026-04-25T09:40:50Z</time></trkpt><trkpt lat="43.43202599602705" lon="12.735115405668164"><ele>452.0</ele><time>2026-04-25T09:40:51Z</time></trkpt><trkpt lat="43.432141735812195" lon="12.735297947882177"><ele>452.0</ele><time>2026-04-25T09:40:52Z</time></trkpt><trkpt lat="43.432251886446245" lon="12.735473554947434"><ele>451.66666666666663</ele><time>2026-04-25T09:40:53Z</time></trkpt><trkpt lat="43.43234910342257" lon="12.735647943306462"><ele>451.33333333333337</ele><time>2026-04-25T09:40:54Z</time></trkpt><trkpt lat="43.43242317435235" lon="12.735838195913347"><ele>451.0</ele><time>2026-04-25T09:40:55Z</time></trkpt><trkpt lat="43.432479631938804" lon="12.736032813891834"><ele>449.0</ele><time>2026-04-25T09:40:56Z</time></trkpt><trkpt lat="43.43253133998233" lon="12.736222997318855"><ele>447.0</ele><time>2026-04-25T09:40:57Z</time></trkpt><trkpt lat="43.43258241885597" lon="12.736406588579273"><ele>445.0</ele><time>2026-04-25T09:40:58Z</time></trkpt><trkpt lat="43.43263617937144" lon="12.736580890083216"><ele>443.0</ele><time>2026-04-25T09:40:59Z</time></trkpt><trkpt lat="43.43268441159269" lon="12.736743642855242"><ele>442.75</ele><time>2026-04-25T09:41:00Z</time></trkpt><trkpt lat="43.43272336177864" lon="12.736901403735555"><ele>442.5</ele><time>2026-04-25T09:41:01Z</time></trkpt><trkpt lat="43.432760482272236" lon="12.737051585348743"><ele>442.25</ele><time>2026-04-25T09:41:02Z</time></trkpt><trkpt lat="43.43281342027047" lon="12.737187786754259"><ele>442.0</ele><time>2026-04-25T09:41:03Z</time></trkpt><trkpt lat="43.43287189167294" lon="12.737307521194294"><ele>442.0</ele><time>2026-04-25T09:41:04Z</time></trkpt><trkpt lat="43.432930456767856" lon="12.737411216947718"><ele>442.00000000000006</ele><time>2026-04-25T09:41:05Z</time></trkpt><trkpt lat="43.432970985690694" lon="12.73752157184732"><ele>442.00000000000006</ele><time>2026-04-25T09:41:06Z</time></trkpt><trkpt lat="43.43300732477358" lon="12.737629005831586"><ele>442.0</ele><time>2026-04-25T09:41:07Z</time></trkpt><trkpt lat="43.43301973364741" lon="12.737765217642757"><ele>442.0</ele><time>2026-04-25T09:41:08Z</time></trkpt><trkpt lat="43.43304771729645" lon="12.737903002758216"><ele>441.6</ele><time>2026-04-25T09:41:09Z</time></trkpt><trkpt lat="43.43309066795866" lon="12.738033131146938"><ele>441.20000000000005</ele><time>2026-04-25T09:41:10Z</time></trkpt><trkpt lat="43.43312279578054" lon="12.738178850244816"><ele>440.8</ele><time>2026-04-25T09:41:11Z</time></trkpt><trkpt lat="43.43318634825858" lon="12.738299664835598"><ele>440.4</ele><time>2026-04-25T09:41:12Z</time></trkpt><trkpt lat="43.43326778883048" lon="12.738413295398965"><ele>440.0</ele><time>2026-04-25T09:41:13Z</time></trkpt><trkpt lat="43.43333758325091" lon="12.73855834688474"><ele>440.0</ele><time>2026-04-25T09:41:14Z</time></trkpt><trkpt lat="43.43340796567667" lon="12.738693967407512"><ele>440.0</ele><time>2026-04-25T09:41:15Z</time></trkpt><trkpt lat="43.43347786817282" lon="12.738817021030346"><ele>440.0</ele><time>2026-04-25T09:41:16Z</time></trkpt><trkpt lat="43.43352815479715" lon="12.738941327559315"><ele>440.0</ele><time>2026-04-25T09:41:17Z</time></trkpt><trkpt lat="43.43354916098202" lon="12.73907523309903"><ele>440.0</ele><time>2026-04-25T09:41:18Z</time></trkpt><trkpt lat="43.4335894202398" lon="12.739153842094474"><ele>440.0</ele><time>2026-04-25T09:41:19Z</time></trkpt><trkpt lat="43.43341481309634" lon="12.739260299473301"><ele>440.0</ele><time>2026-04-25T09:41:20Z</time></trkpt><trkpt lat="43.433325945132374" lon="12.73936244711966"><ele>440.0</ele><time>2026-04-25T09:41:21Z</time></trkpt><trkpt lat="43.43323295700424" lon="12.739440115239063"><ele>440.0</ele><time>2026-04-25T09:41:22Z</time></trkpt><trkpt lat="43.43312475064523" lon="12.739480909954521"><ele>439.5</ele><time>2026-04-25T09:41:23Z</time></trkpt><trkpt lat="43.43300697413205" lon="12.739460511636631"><ele>439.0</ele><time>2026-04-25T09:41:24Z</time></trkpt><trkpt lat="43.432858472358845" lon="12.739412228997955"><ele>438.5</ele><time>2026-04-25T09:41:25Z</time></trkpt><trkpt lat="43.432721256572876" lon="12.73938303702653"><ele>438.0</ele><time>2026-04-25T09:41:26Z</time></trkpt><trkpt lat="43.432589506480426" lon="12.739368874430655"><ele>440.33333333333337</ele><time>2026-04-25T09:41:27Z</time></trkpt><trkpt lat="43.432440714115515" lon="12.739404769558927"><ele>442.6666666666667</ele><time>2026-04-25T09:41:28Z</time></trkpt><trkpt lat="43.432289876376885" lon="12.73946179620068"><ele>445.0</ele><time>2026-04-25T09:41:29Z</time></trkpt><trkpt lat="43.432130283066186" lon="12.739521573502085"><ele>445.0</ele><time>2026-04-25T09:41:30Z</time></trkpt><trkpt lat="43.43196203740615" lon="12.739583905822455"><ele>445.0</ele><time>2026-04-25T09:41:30.999Z</time></trkpt><trkpt lat="43.43178410858125" lon="12.739647293943987"><ele>445.0</ele><time>2026-04-25T09:41:31.999Z</time></trkpt><trkpt lat="43.431614358405795" lon="12.73976289887172"><ele>445.0</ele><time>2026-04-25T09:41:32.999Z</time></trkpt><trkpt lat="43.431432737819165" lon="12.739825847446365"><ele>445.0</ele><time>2026-04-25T09:41:33.999Z</time></trkpt><trkpt lat="43.43125738213047" lon="12.739880250961054"><ele>445.0</ele><time>2026-04-25T09:41:34.999Z</time></trkpt><trkpt lat="43.431092660744206" lon="12.739933104186175"><ele>444.75</ele><time>2026-04-25T09:41:35.999Z</time></trkpt><trkpt lat="43.430940524176634" lon="12.739948980567661"><ele>444.5</ele><time>2026-04-25T09:41:36.999Z</time></trkpt><trkpt lat="43.43080551605681" lon="12.740009229276748"><ele>444.25</ele><time>2026-04-25T09:41:37.999Z</time></trkpt><trkpt lat="43.43068868329321" lon="12.740086349662755"><ele>444.0</ele><time>2026-04-25T09:41:38.999Z</time></trkpt><trkpt lat="43.430601698927894" lon="12.740252868892279"><ele>444.0</ele><time>2026-04-25T09:41:39.999Z</time></trkpt><trkpt lat="43.430547182247466" lon="12.740461969079727"><ele>444.0</ele><time>2026-04-25T09:41:40.999Z</time></trkpt><trkpt lat="43.430500062964335" lon="12.740686653655406"><ele>444.0</ele><time>2026-04-25T09:41:41.999Z</time></trkpt><trkpt lat="43.430450777740724" lon="12.740918559278876"><ele>440.0</ele><time>2026-04-25T09:41:42.999Z</time></trkpt><trkpt lat="43.43039863134036" lon="12.741155962752751"><ele>436.0</ele><time>2026-04-25T09:41:43.999Z</time></trkpt><trkpt lat="43.43034520658948" lon="12.741400037948845"><ele>432.0</ele><time>2026-04-25T09:41:44.999Z</time></trkpt><trkpt lat="43.430288524119746" lon="12.741659683631443"><ele>434.33333333333337</ele><time>2026-04-25T09:41:45.999Z</time></trkpt><trkpt lat="43.43022995164701" lon="12.741927987086623"><ele>436.6666666666667</ele><time>2026-04-25T09:41:46.999Z</time></trkpt><trkpt lat="43.430169747033545" lon="12.742203766946218"><ele>439.0</ele><time>2026-04-25T09:41:47.999Z</time></trkpt><trkpt lat="43.430108614293395" lon="12.742484218455003"><ele>442.33333333333337</ele><time>2026-04-25T09:41:48.999Z</time></trkpt><trkpt lat="43.43004919522799" lon="12.742758940904725"><ele>445.66666666666663</ele><time>2026-04-25T09:41:49.999Z</time></trkpt><trkpt lat="43.429995186121005" lon="12.743015392035243"><ele>449.0</ele><time>2026-04-25T09:41:50.999Z</time></trkpt><trkpt lat="43.42994030421658" lon="12.74325435581916"><ele>449.0</ele><time>2026-04-25T09:41:51.999Z</time></trkpt><trkpt lat="43.42987274075295" lon="12.743469269235815"><ele>449.0</ele><time>2026-04-25T09:41:52.999Z</time></trkpt><trkpt lat="43.42976573188424" lon="12.7436691804749"><ele>449.0</ele><time>2026-04-25T09:41:53.999Z</time></trkpt><trkpt lat="43.42962187567044" lon="12.743836127886167"><ele>444.3333333333333</ele><time>2026-04-25T09:41:54.999Z</time></trkpt><trkpt lat="43.429452310862295" lon="12.74397308676749"><ele>439.66666666666663</ele><time>2026-04-25T09:41:55.999Z</time></trkpt><trkpt lat="43.429262468752285" lon="12.744111708824086"><ele>435.0</ele><time>2026-04-25T09:41:56.999Z</time></trkpt><trkpt lat="43.429084451399234" lon="12.744251443621096"><ele>433.0</ele><time>2026-04-25T09:41:57.999Z</time></trkpt><trkpt lat="43.428912931973805" lon="12.744436333041701"><ele>431.0</ele><time>2026-04-25T09:41:58.999Z</time></trkpt><trkpt lat="43.42875555705255" lon="12.744655036658546"><ele>429.0</ele><time>2026-04-25T09:41:59.999Z</time></trkpt><trkpt lat="43.4285967049674" lon="12.744874996634243"><ele>429.0</ele><time>2026-04-25T09:42:00.999Z</time></trkpt><trkpt lat="43.428435405492536" lon="12.745097068841858"><ele>429.0</ele><time>2026-04-25T09:42:01.999Z</time></trkpt><trkpt lat="43.4282709963545" lon="12.745324752489676"><ele>427.0</ele><time>2026-04-25T09:42:02.999Z</time></trkpt><trkpt lat="43.428107369183174" lon="12.745556059172337"><ele>425.0</ele><time>2026-04-25T09:42:03.999Z</time></trkpt><trkpt lat="43.427952455635335" lon="12.745797440379306"><ele>425.0</ele><time>2026-04-25T09:42:04.999Z</time></trkpt><trkpt lat="43.42781122586341" lon="12.746030600557157"><ele>425.0</ele><time>2026-04-25T09:42:05.999Z</time></trkpt><trkpt lat="43.42768072897415" lon="12.746252222715771"><ele>425.0</ele><time>2026-04-25T09:42:06.999Z</time></trkpt><trkpt lat="43.42756199548106" lon="12.746455971904918"><ele>426.3333333333333</ele><time>2026-04-25T09:42:07.999Z</time></trkpt><trkpt lat="43.42742964602057" lon="12.746619911791685"><ele>427.66666666666663</ele><time>2026-04-25T09:42:08.999Z</time></trkpt><trkpt lat="43.42725919721188" lon="12.746741310959834"><ele>429.0</ele><time>2026-04-25T09:42:09.999Z</time></trkpt><trkpt lat="43.42706779535902" lon="12.746865013766921"><ele>431.0</ele><time>2026-04-25T09:42:10.999Z</time></trkpt><trkpt lat="43.42687008924281" lon="12.746996219650685"><ele>433.0</ele><time>2026-04-25T09:42:11.999Z</time></trkpt><trkpt lat="43.426670903707105" lon="12.74712923419957"><ele>435.0</ele><time>2026-04-25T09:42:12.999Z</time></trkpt><trkpt lat="43.426469707744914" lon="12.747263591489288"><ele>431.33333333333337</ele><time>2026-04-25T09:42:13.999Z</time></trkpt><trkpt lat="43.426275492656195" lon="12.747393907872105"><ele>427.6666666666667</ele><time>2026-04-25T09:42:14.999Z</time></trkpt><trkpt lat="43.42609390199542" lon="12.747516715416753"><ele>424.0</ele><time>2026-04-25T09:42:15.999Z</time></trkpt><trkpt lat="43.42592577627156" lon="12.747629811643119"><ele>424.0</ele><time>2026-04-25T09:42:16.999Z</time></trkpt><trkpt lat="43.42576491687464" lon="12.747703243814012"><ele>424.0</ele><time>2026-04-25T09:42:17.999Z</time></trkpt><trkpt lat="43.42559762845699" lon="12.74769781421813"><ele>424.0</ele><time>2026-04-25T09:42:18.999Z</time></trkpt><trkpt lat="43.4254183420524" lon="12.74766069540063"><ele>424.33333333333337</ele><time>2026-04-25T09:42:19.999Z</time></trkpt><trkpt lat="43.42521471162141" lon="12.747652315729633"><ele>424.66666666666663</ele><time>2026-04-25T09:42:20.999Z</time></trkpt><trkpt lat="43.42502478197521" lon="12.747665472218284"><ele>425.0</ele><time>2026-04-25T09:42:21.999Z</time></trkpt><trkpt lat="43.42484517409528" lon="12.747737429933753"><ele>428.0</ele><time>2026-04-25T09:42:22.999Z</time></trkpt><trkpt lat="43.42468888717472" lon="12.747763339663022"><ele>431.0</ele><time>2026-04-25T09:42:23.999Z</time></trkpt><trkpt lat="43.424559571142794" lon="12.747797984226775"><ele>434.0</ele><time>2026-04-25T09:42:24.999Z</time></trkpt><trkpt lat="43.424453251158475" lon="12.747802255370331"><ele>437.0</ele><time>2026-04-25T09:42:25.999Z</time></trkpt><trkpt lat="43.42435982471277" lon="12.747753564218783"><ele>433.75</ele><time>2026-04-25T09:42:26.999Z</time></trkpt><trkpt lat="43.4242823287916" lon="12.747648937408421"><ele>430.5</ele><time>2026-04-25T09:42:28Z</time></trkpt><trkpt lat="43.42419111941293" lon="12.747524060052562"><ele>427.25</ele><time>2026-04-25T09:42:29Z</time></trkpt><trkpt lat="43.42410930426085" lon="12.747410274644567"><ele>424.0</ele><time>2026-04-25T09:42:30Z</time></trkpt><trkpt lat="43.42401234430226" lon="12.747340375005255"><ele>424.0</ele><time>2026-04-25T09:42:31Z</time></trkpt><trkpt lat="43.42389953959448" lon="12.747350696948429"><ele>424.0</ele><time>2026-04-25T09:42:32Z</time></trkpt><trkpt lat="43.42380432958544" lon="12.747432418599285"><ele>424.0</ele><time>2026-04-25T09:42:33Z</time></trkpt><trkpt lat="43.42375318150645" lon="12.747569899198982"><ele>424.0</ele><time>2026-04-25T09:42:34Z</time></trkpt><trkpt lat="43.423742806120806" lon="12.74773918993794"><ele>421.75</ele><time>2026-04-25T09:42:35Z</time></trkpt><trkpt lat="43.423771858719206" lon="12.747921830425408"><ele>419.5</ele><time>2026-04-25T09:42:36Z</time></trkpt><trkpt lat="43.42381874209012" lon="12.748111726544769"><ele>417.25</ele><time>2026-04-25T09:42:37Z</time></trkpt><trkpt lat="43.42386042787366" lon="12.748308270657843"><ele>415.0</ele><time>2026-04-25T09:42:38Z</time></trkpt><trkpt lat="43.42389611017627" lon="12.748503303614438"><ele>425.33333333333337</ele><time>2026-04-25T09:42:39Z</time></trkpt><trkpt lat="43.42391275298972" lon="12.748702219031602"><ele>435.66666666666663</ele><time>2026-04-25T09:42:40Z</time></trkpt><trkpt lat="43.423902528963225" lon="12.748915860768705"><ele>446.0</ele><time>2026-04-25T09:42:41Z</time></trkpt><trkpt lat="43.423882872427406" lon="12.749122784189003"><ele>446.0</ele><time>2026-04-25T09:42:42Z</time></trkpt><trkpt lat="43.423854265996" lon="12.749307450306242"><ele>446.0</ele><time>2026-04-25T09:42:43Z</time></trkpt><trkpt lat="43.42380337344857" lon="12.749468984915703"><ele>446.0</ele><time>2026-04-25T09:42:44Z</time></trkpt><trkpt lat="43.4237242376309" lon="12.749620919976502"><ele>446.0</ele><time>2026-04-25T09:42:45Z</time></trkpt><trkpt lat="43.42364205418434" lon="12.749793184025881"><ele>442.0</ele><time>2026-04-25T09:42:46Z</time></trkpt><trkpt lat="43.423579684917954" lon="12.749987209027992"><ele>438.0</ele><time>2026-04-25T09:42:47Z</time></trkpt><trkpt lat="43.42349757992341" lon="12.750162724867522"><ele>434.0</ele><time>2026-04-25T09:42:48Z</time></trkpt><trkpt lat="43.4234342535359" lon="12.750357214002777"><ele>434.0</ele><time>2026-04-25T09:42:49Z</time></trkpt><trkpt lat="43.42337166553836" lon="12.750551332248858"><ele>434.0</ele><time>2026-04-25T09:42:50Z</time></trkpt><trkpt lat="43.423309969550154" lon="12.750744031984834"><ele>434.0</ele><time>2026-04-25T09:42:51Z</time></trkpt><trkpt lat="43.42325376850193" lon="12.750925954452043"><ele>432.25</ele><time>2026-04-25T09:42:52Z</time></trkpt><trkpt lat="43.423195573986064" lon="12.751091354966348"><ele>430.5</ele><time>2026-04-25T09:42:53Z</time></trkpt><trkpt lat="43.42312491035505" lon="12.751236513516202"><ele>428.75</ele><time>2026-04-25T09:42:54Z</time></trkpt><trkpt lat="43.42304016481733" lon="12.751348399914937"><ele>427.0</ele><time>2026-04-25T09:42:55Z</time></trkpt><trkpt lat="43.422935133906094" lon="12.751422554533834"><ele>427.0</ele><time>2026-04-25T09:42:56Z</time></trkpt><trkpt lat="43.422824746809056" lon="12.751446081096512"><ele>427.00000000000006</ele><time>2026-04-25T09:42:57Z</time></trkpt><trkpt lat="43.42271127519858" lon="12.751455744227458"><ele>427.00000000000006</ele><time>2026-04-25T09:42:58Z</time></trkpt><trkpt lat="43.42260429079601" lon="12.751487544057635"><ele>427.0</ele><time>2026-04-25T09:42:59Z</time></trkpt><trkpt lat="43.42249627875193" lon="12.751524755296582"><ele>427.0</ele><time>2026-04-25T09:43:00Z</time></trkpt><trkpt lat="43.42239631771331" lon="12.751623312572049"><ele>427.0</ele><time>2026-04-25T09:43:01Z</time></trkpt><trkpt lat="43.422296414445334" lon="12.751753519701362"><ele>427.0</ele><time>2026-04-25T09:43:02Z</time></trkpt><trkpt lat="43.422193829166496" lon="12.751886018456357"><ele>427.0</ele><time>2026-04-25T09:43:03Z</time></trkpt><trkpt lat="43.42208583669351" lon="12.751987929350989"><ele>427.0</ele><time>2026-04-25T09:43:04Z</time></trkpt><trkpt lat="43.42201160218302" lon="12.752129390080153"><ele>425.25</ele><time>2026-04-25T09:43:05Z</time></trkpt><trkpt lat="43.42194846242857" lon="12.752283903382782"><ele>423.5</ele><time>2026-04-25T09:43:06Z</time></trkpt><trkpt lat="43.42192661067756" lon="12.752482660441048"><ele>421.75</ele><time>2026-04-25T09:43:07Z</time></trkpt><trkpt lat="43.42188677966154" lon="12.75268652889318"><ele>420.0</ele><time>2026-04-25T09:43:08Z</time></trkpt><trkpt lat="43.421861540742356" lon="12.752898452990248"><ele>420.0</ele><time>2026-04-25T09:43:09Z</time></trkpt><trkpt lat="43.42182477414993" lon="12.753103751230896"><ele>420.0</ele><time>2026-04-25T09:43:10Z</time></trkpt><trkpt lat="43.42179199899104" lon="12.753304330569668"><ele>420.0</ele><time>2026-04-25T09:43:11Z</time></trkpt><trkpt lat="43.42175667951381" lon="12.753494369102347"><ele>420.0</ele><time>2026-04-25T09:43:12Z</time></trkpt><trkpt lat="43.42170683213538" lon="12.753689255616521"><ele>421.33333333333337</ele><time>2026-04-25T09:43:13Z</time></trkpt><trkpt lat="43.42164641366873" lon="12.753881092681036"><ele>422.6666666666667</ele><time>2026-04-25T09:43:14Z</time></trkpt><trkpt lat="43.4215599225987" lon="12.754059592951284"><ele>424.0</ele><time>2026-04-25T09:43:15Z</time></trkpt><trkpt lat="43.42147346817431" lon="12.75423989593872"><ele>422.75</ele><time>2026-04-25T09:43:16Z</time></trkpt><trkpt lat="43.421373679419894" lon="12.754411053308123"><ele>421.5</ele><time>2026-04-25T09:43:17Z</time></trkpt><trkpt lat="43.42126692943504" lon="12.75454953477976"><ele>420.25</ele><time>2026-04-25T09:43:18Z</time></trkpt><trkpt lat="43.42114685542808" lon="12.7546234889977"><ele>419.0</ele><time>2026-04-25T09:43:19Z</time></trkpt><trkpt lat="43.42101681654358" lon="12.754660153949436"><ele>419.0</ele><time>2026-04-25T09:43:20Z</time></trkpt><trkpt lat="43.42089308725756" lon="12.754714204839987"><ele>419.0</ele><time>2026-04-25T09:43:21Z</time></trkpt><trkpt lat="43.42078796544367" lon="12.754773879248672"><ele>419.0</ele><time>2026-04-25T09:43:22Z</time></trkpt><trkpt lat="43.42071200388492" lon="12.754909464724296"><ele>419.0</ele><time>2026-04-25T09:43:23Z</time></trkpt><trkpt lat="43.42065982727349" lon="12.755088121785903"><ele>422.0</ele><time>2026-04-25T09:43:24Z</time></trkpt><trkpt lat="43.42061916429704" lon="12.755284539700101"><ele>425.0</ele><time>2026-04-25T09:43:25Z</time></trkpt><trkpt lat="43.4205809347691" lon="12.755487533463572"><ele>428.0</ele><time>2026-04-25T09:43:26Z</time></trkpt><trkpt lat="43.42052684899973" lon="12.755685710535086"><ele>423.66666666666663</ele><time>2026-04-25T09:43:27Z</time></trkpt><trkpt lat="43.420444191168635" lon="12.755867801419871"><ele>419.33333333333337</ele><time>2026-04-25T09:43:28Z</time></trkpt><trkpt lat="43.42033621483318" lon="12.756026820857914"><ele>415.0</ele><time>2026-04-25T09:43:29Z</time></trkpt><trkpt lat="43.420225134814324" lon="12.756157669244232"><ele>415.0</ele><time>2026-04-25T09:43:30Z</time></trkpt><trkpt lat="43.42012830992251" lon="12.756277782415797"><ele>415.0</ele><time>2026-04-25T09:43:31Z</time></trkpt><trkpt lat="43.420050609076455" lon="12.756397427393905"><ele>415.0</ele><time>2026-04-25T09:43:32Z</time></trkpt><trkpt lat="43.420015144257306" lon="12.75652724976686"><ele>415.0</ele><time>2026-04-25T09:43:33Z</time></trkpt><trkpt lat="43.42002620795298" lon="12.756659028111303"><ele>415.0</ele><time>2026-04-25T09:43:34Z</time></trkpt><trkpt lat="43.42009338357683" lon="12.756773725706758"><ele>415.0</ele><time>2026-04-25T09:43:35Z</time></trkpt><trkpt lat="43.42019830318482" lon="12.756854122432246"><ele>415.0</ele><time>2026-04-25T09:43:36Z</time></trkpt><trkpt lat="43.420327681096744" lon="12.756886968946944"><ele>415.0</ele><time>2026-04-25T09:43:37Z</time></trkpt><trkpt lat="43.42045846974086" lon="12.75687506462644"><ele>415.0</ele><time>2026-04-25T09:43:37.999Z</time></trkpt><trkpt lat="43.42057370799421" lon="12.756876750415065"><ele>413.25</ele><time>2026-04-25T09:43:38.999Z</time></trkpt><trkpt lat="43.42065488501801" lon="12.756963677403492"><ele>411.5</ele><time>2026-04-25T09:43:39.999Z</time></trkpt><trkpt lat="43.42072595325771" lon="12.757092109259306"><ele>409.75</ele><time>2026-04-25T09:43:40.999Z</time></trkpt><trkpt lat="43.420806268771784" lon="12.757244890480218"><ele>408.0</ele><time>2026-04-25T09:43:41.999Z</time></trkpt><trkpt lat="43.42087527794841" lon="12.757424005447822"><ele>408.0</ele><time>2026-04-25T09:43:42.999Z</time></trkpt><trkpt lat="43.42094696886183" lon="12.757611055314127"><ele>408.0</ele><time>2026-04-25T09:43:43.999Z</time></trkpt><trkpt lat="43.421018223216" lon="12.7578085608603"><ele>408.0</ele><time>2026-04-25T09:43:44.999Z</time></trkpt><trkpt lat="43.421094852296" lon="12.75798677096779"><ele>409.0</ele><time>2026-04-25T09:43:45.999Z</time></trkpt><trkpt lat="43.42115894202051" lon="12.758138913727464"><ele>410.0</ele><time>2026-04-25T09:43:46.999Z</time></trkpt><trkpt lat="43.42119756803282" lon="12.758270886412092"><ele>411.0</ele><time>2026-04-25T09:43:47.999Z</time></trkpt><trkpt lat="43.421180797737094" lon="12.75841258960867"><ele>412.0</ele><time>2026-04-25T09:43:48.999Z</time></trkpt><trkpt lat="43.421115303125276" lon="12.758550564317593"><ele>414.25</ele><time>2026-04-25T09:43:49.999Z</time></trkpt><trkpt lat="43.420999598932255" lon="12.758647352947936"><ele>416.5</ele><time>2026-04-25T09:43:50.999Z</time></trkpt><trkpt lat="43.42090398876443" lon="12.758784385794224"><ele>418.75</ele><time>2026-04-25T09:43:51.999Z</time></trkpt><trkpt lat="43.42078759561326" lon="12.758915840660283"><ele>421.0</ele><time>2026-04-25T09:43:52.999Z</time></trkpt><trkpt lat="43.42066345713732" lon="12.759059151482028"><ele>421.0</ele><time>2026-04-25T09:43:53.999Z</time></trkpt><trkpt lat="43.420534592190364" lon="12.759204488499082"><ele>421.0</ele><time>2026-04-25T09:43:54.999Z</time></trkpt><trkpt lat="43.42041383395728" lon="12.759339577363505"><ele>421.0</ele><time>2026-04-25T09:43:55.999Z</time></trkpt><trkpt lat="43.42031017913466" lon="12.759450343492597"><ele>419.8</ele><time>2026-04-25T09:43:56.999Z</time></trkpt><trkpt lat="43.42022773905236" lon="12.75954809478403"><ele>418.6</ele><time>2026-04-25T09:43:57.999Z</time></trkpt><trkpt lat="43.42018141150489" lon="12.75966607567828"><ele>417.4</ele><time>2026-04-25T09:43:58.999Z</time></trkpt><trkpt lat="43.42018727940038" lon="12.759806199675905"><ele>416.2</ele><time>2026-04-25T09:43:59.999Z</time></trkpt><trkpt lat="43.420243092061995" lon="12.759958626703332"><ele>415.0</ele><time>2026-04-25T09:44:00.999Z</time></trkpt><trkpt lat="43.42033527136357" lon="12.76009964151381"><ele>416.33333333333337</ele><time>2026-04-25T09:44:01.999Z</time></trkpt><trkpt lat="43.420451650994515" lon="12.760227876245654"><ele>417.66666666666663</ele><time>2026-04-25T09:44:02.999Z</time></trkpt><trkpt lat="43.42056638504833" lon="12.760379865379063"><ele>419.0</ele><time>2026-04-25T09:44:03.999Z</time></trkpt><trkpt lat="43.42065634918059" lon="12.76057321774997"><ele>419.0</ele><time>2026-04-25T09:44:04.999Z</time></trkpt><trkpt lat="43.42073104349029" lon="12.760790714439661"><ele>419.0</ele><time>2026-04-25T09:44:05.999Z</time></trkpt><trkpt lat="43.42080470119975" lon="12.761029978489903"><ele>419.0</ele><time>2026-04-25T09:44:06.999Z</time></trkpt><trkpt lat="43.42089125754559" lon="12.761274119960053"><ele>420.0</ele><time>2026-04-25T09:44:07.999Z</time></trkpt><trkpt lat="43.42096418063107" lon="12.76153614788343"><ele>421.0</ele><time>2026-04-25T09:44:08.999Z</time></trkpt><trkpt lat="43.42101561696377" lon="12.761818025792515"><ele>422.0</ele><time>2026-04-25T09:44:09.999Z</time></trkpt><trkpt lat="43.42107339042339" lon="12.762093294543044"><ele>422.0</ele><time>2026-04-25T09:44:10.999Z</time></trkpt><trkpt lat="43.42113541461107" lon="12.762346066218642"><ele>422.0</ele><time>2026-04-25T09:44:11.999Z</time></trkpt><trkpt lat="43.421177254163176" lon="12.762583879097658"><ele>422.0</ele><time>2026-04-25T09:44:12.999Z</time></trkpt><trkpt lat="43.42121292705623" lon="12.76280630110146"><ele>421.66666666666663</ele><time>2026-04-25T09:44:13.999Z</time></trkpt><trkpt lat="43.4212630891323" lon="12.763015407963591"><ele>421.33333333333337</ele><time>2026-04-25T09:44:14.999Z</time></trkpt><trkpt lat="43.42135330347201" lon="12.76318350800061"><ele>421.0</ele><time>2026-04-25T09:44:15.999Z</time></trkpt><trkpt lat="43.421480262682756" lon="12.763324229415446"><ele>421.0</ele><time>2026-04-25T09:44:16.999Z</time></trkpt><trkpt lat="43.42162524646144" lon="12.763449707137099"><ele>421.0</ele><time>2026-04-25T09:44:17.999Z</time></trkpt><trkpt lat="43.42176390032727" lon="12.763590528811074"><ele>421.0</ele><time>2026-04-25T09:44:18.999Z</time></trkpt><trkpt lat="43.42190218994086" lon="12.763730076016763"><ele>419.0</ele><time>2026-04-25T09:44:19.999Z</time></trkpt><trkpt lat="43.42202814149369" lon="12.763866934650592"><ele>417.0</ele><time>2026-04-25T09:44:20.999Z</time></trkpt><trkpt lat="43.422127225347054" lon="12.76400619194373"><ele>415.0</ele><time>2026-04-25T09:44:21.999Z</time></trkpt><trkpt lat="43.42218755965049" lon="12.764170436205477"><ele>413.0</ele><time>2026-04-25T09:44:22.999Z</time></trkpt><trkpt lat="43.42222560400041" lon="12.764358145188108"><ele>415.0</ele><time>2026-04-25T09:44:23.999Z</time></trkpt><trkpt lat="43.42228666134" lon="12.764552121590338"><ele>417.0</ele><time>2026-04-25T09:44:24.999Z</time></trkpt><trkpt lat="43.422374208445994" lon="12.764742699233864"><ele>419.0</ele><time>2026-04-25T09:44:25.999Z</time></trkpt><trkpt lat="43.42248570919574" lon="12.764928814716816"><ele>419.0</ele><time>2026-04-25T09:44:26.999Z</time></trkpt><trkpt lat="43.422616819459996" lon="12.765097714220456"><ele>419.0</ele><time>2026-04-25T09:44:27.999Z</time></trkpt><trkpt lat="43.42275372449919" lon="12.765263290037314"><ele>419.0</ele><time>2026-04-25T09:44:28.999Z</time></trkpt><trkpt lat="43.42288566364562" lon="12.765443252993391"><ele>419.3333333333333</ele><time>2026-04-25T09:44:29.999Z</time></trkpt><trkpt lat="43.42301479061478" lon="12.765635355741995"><ele>419.66666666666663</ele><time>2026-04-25T09:44:30.999Z</time></trkpt><trkpt lat="43.42314583022451" lon="12.765825710493912"><ele>420.0</ele><time>2026-04-25T09:44:31.999Z</time></trkpt><trkpt lat="43.423278775591875" lon="12.76600905332818"><ele>416.33333333333337</ele><time>2026-04-25T09:44:32.999Z</time></trkpt><trkpt lat="43.42340198657901" lon="12.766191268191525"><ele>412.6666666666667</ele><time>2026-04-25T09:44:34Z</time></trkpt><trkpt lat="43.42352618750554" lon="12.766350569932232"><ele>409.0</ele><time>2026-04-25T09:44:35Z</time></trkpt><trkpt lat="43.4236646571321" lon="12.766466675761228"><ele>409.0</ele><time>2026-04-25T09:44:36Z</time></trkpt><trkpt lat="43.423810487285245" lon="12.766554419932438"><ele>409.0</ele><time>2026-04-25T09:44:37Z</time></trkpt><trkpt lat="43.42393604273355" lon="12.766650063559208"><ele>409.0</ele><time>2026-04-25T09:44:38Z</time></trkpt><trkpt lat="43.4240211673225" lon="12.766802132006664"><ele>409.0</ele><time>2026-04-25T09:44:39Z</time></trkpt><trkpt lat="43.42411629442414" lon="12.76699702519731"><ele>405.6666666666667</ele><time>2026-04-25T09:44:40Z</time></trkpt><trkpt lat="43.42420210831448" lon="12.767186846441966"><ele>402.33333333333337</ele><time>2026-04-25T09:44:41Z</time></trkpt><trkpt lat="43.42427282802141" lon="12.767399548466631"><ele>399.0</ele><time>2026-04-25T09:44:42Z</time></trkpt><trkpt lat="43.424316788554336" lon="12.76762870672475"><ele>398.0</ele><time>2026-04-25T09:44:43Z</time></trkpt><trkpt lat="43.42434408650695" lon="12.767850275248627"><ele>397.0</ele><time>2026-04-25T09:44:44Z</time></trkpt><trkpt lat="43.424362359302215" lon="12.768068312150923"><ele>396.0</ele><time>2026-04-25T09:44:45Z</time></trkpt><trkpt lat="43.42433675569167" lon="12.768281369271294"><ele>396.0</ele><time>2026-04-25T09:44:46Z</time></trkpt><trkpt lat="43.4242966089434" lon="12.76850073090583"><ele>396.0</ele><time>2026-04-25T09:44:47Z</time></trkpt><trkpt lat="43.4242561187571" lon="12.768741744791866"><ele>396.0</ele><time>2026-04-25T09:44:48Z</time></trkpt><trkpt lat="43.424197674008695" lon="12.768988883249065"><ele>397.66666666666663</ele><time>2026-04-25T09:44:49Z</time></trkpt><trkpt lat="43.424135943730654" lon="12.769252163005692"><ele>399.3333333333333</ele><time>2026-04-25T09:44:50Z</time></trkpt><trkpt lat="43.42407250555996" lon="12.769527109133573"><ele>401.0</ele><time>2026-04-25T09:44:51Z</time></trkpt><trkpt lat="43.42400651744032" lon="12.769813449314737"><ele>402.66666666666663</ele><time>2026-04-25T09:44:52Z</time></trkpt><trkpt lat="43.42393976392595" lon="12.770103445997677"><ele>404.33333333333337</ele><time>2026-04-25T09:44:53Z</time></trkpt><trkpt lat="43.42387256551795" lon="12.77039830152196"><ele>406.0</ele><time>2026-04-25T09:44:54Z</time></trkpt><trkpt lat="43.42380336558531" lon="12.770696110267936"><ele>398.5</ele><time>2026-04-25T09:44:55Z</time></trkpt><trkpt lat="43.42373319335227" lon="12.770997122731856"><ele>391.0</ele><time>2026-04-25T09:44:56Z</time></trkpt><trkpt lat="43.42366463037988" lon="12.771301780499119"><ele>391.5</ele><time>2026-04-25T09:44:57Z</time></trkpt><trkpt lat="43.423594313999125" lon="12.771612036220695"><ele>392.0</ele><time>2026-04-25T09:44:58Z</time></trkpt><trkpt lat="43.423522426732774" lon="12.771922175007509"><ele>392.0</ele><time>2026-04-25T09:44:59Z</time></trkpt><trkpt lat="43.42344583453204" lon="12.772228704077273"><ele>392.0</ele><time>2026-04-25T09:45:00Z</time></trkpt><trkpt lat="43.42337780837017" lon="12.772541179382575"><ele>393.5</ele><time>2026-04-25T09:45:01Z</time></trkpt><trkpt lat="43.4233113812865" lon="12.772848969715206"><ele>395.0</ele><time>2026-04-25T09:45:02Z</time></trkpt><trkpt lat="43.42324502837302" lon="12.773157835437898"><ele>395.0</ele><time>2026-04-25T09:45:03Z</time></trkpt><trkpt lat="43.42317709545903" lon="12.773462452039306"><ele>395.0</ele><time>2026-04-25T09:45:04Z</time></trkpt><trkpt lat="43.42311483189831" lon="12.773752506610597"><ele>395.66666666666663</ele><time>2026-04-25T09:45:05Z</time></trkpt><trkpt lat="43.42306072709255" lon="12.774020266514828"><ele>396.33333333333337</ele><time>2026-04-25T09:45:06Z</time></trkpt><trkpt lat="43.423005739952615" lon="12.774263563879138"><ele>397.0</ele><time>2026-04-25T09:45:07Z</time></trkpt><trkpt lat="43.42291372479709" lon="12.774473335263988"><ele>397.0</ele><time>2026-04-25T09:45:08Z</time></trkpt><trkpt lat="43.422787126911345" lon="12.774660378616135"><ele>397.0</ele><time>2026-04-25T09:45:09Z</time></trkpt><trkpt lat="43.42264992260447" lon="12.774832876948105"><ele>397.0</ele><time>2026-04-25T09:45:10Z</time></trkpt><trkpt lat="43.42249294147227" lon="12.774962064562205"><ele>397.0</ele><time>2026-04-25T09:45:11Z</time></trkpt><trkpt lat="43.4223042283056" lon="12.775045123707955"><ele>397.0</ele><time>2026-04-25T09:45:12Z</time></trkpt><trkpt lat="43.42210504466089" lon="12.775122937124204"><ele>397.0</ele><time>2026-04-25T09:45:13Z</time></trkpt><trkpt lat="43.421900062159935" lon="12.775201305889713"><ele>400.33333333333337</ele><time>2026-04-25T09:45:14Z</time></trkpt><trkpt lat="43.42169340236734" lon="12.77527662080848"><ele>403.66666666666663</ele><time>2026-04-25T09:45:15Z</time></trkpt><trkpt lat="43.421480587055655" lon="12.775336160790658"><ele>407.0</ele><time>2026-04-25T09:45:16Z</time></trkpt><trkpt lat="43.421256616269545" lon="12.775365161709681"><ele>407.0</ele><time>2026-04-25T09:45:17Z</time></trkpt><trkpt lat="43.42102785444581" lon="12.775386369334653"><ele>407.0</ele><time>2026-04-25T09:45:18Z</time></trkpt><trkpt lat="43.420797199752016" lon="12.775407400001926"><ele>407.0</ele><time>2026-04-25T09:45:19Z</time></trkpt><trkpt lat="43.42056735219045" lon="12.775428357059853"><ele>407.0</ele><time>2026-04-25T09:45:20Z</time></trkpt><trkpt lat="43.42033909380666" lon="12.775451053366066"><ele>404.0</ele><time>2026-04-25T09:45:21Z</time></trkpt><trkpt lat="43.420114501769234" lon="12.775518089455977"><ele>401.0</ele><time>2026-04-25T09:45:22Z</time></trkpt><trkpt lat="43.41989471462386" lon="12.775587664145439"><ele>401.0</ele><time>2026-04-25T09:45:23Z</time></trkpt><trkpt lat="43.419684392297796" lon="12.775678324402008"><ele>401.0</ele><time>2026-04-25T09:45:24Z</time></trkpt><trkpt lat="43.41948666190498" lon="12.775769343691683"><ele>401.0</ele><time>2026-04-25T09:45:25Z</time></trkpt><trkpt lat="43.419299391672844" lon="12.775857313374823"><ele>396.0</ele><time>2026-04-25T09:45:26Z</time></trkpt><trkpt lat="43.41912625363934" lon="12.775977590624645"><ele>391.0</ele><time>2026-04-25T09:45:27Z</time></trkpt><trkpt lat="43.418968055851074" lon="12.776147627090975"><ele>386.0</ele><time>2026-04-25T09:45:28Z</time></trkpt><trkpt lat="43.41881368818775" lon="12.776337035773144"><ele>385.66666666666663</ele><time>2026-04-25T09:45:29Z</time></trkpt><trkpt lat="43.41864452522333" lon="12.776515692069268"><ele>385.33333333333337</ele><time>2026-04-25T09:45:30Z</time></trkpt><trkpt lat="43.418462936894045" lon="12.776672165243511"><ele>385.0</ele><time>2026-04-25T09:45:31Z</time></trkpt><trkpt lat="43.418288146003704" lon="12.776819702721774"><ele>382.6666666666667</ele><time>2026-04-25T09:45:32Z</time></trkpt><trkpt lat="43.41813439720368" lon="12.77699777396839"><ele>380.33333333333337</ele><time>2026-04-25T09:45:33Z</time></trkpt><trkpt lat="43.41800004196711" lon="12.777223578263364"><ele>378.0</ele><time>2026-04-25T09:45:34Z</time></trkpt><trkpt lat="43.41787177337734" lon="12.777468477612349"><ele>384.0</ele><time>2026-04-25T09:45:35Z</time></trkpt><trkpt lat="43.41773186414045" lon="12.777717648199502"><ele>390.0</ele><time>2026-04-25T09:45:36Z</time></trkpt><trkpt lat="43.41759344149507" lon="12.777968357364237"><ele>390.0</ele><time>2026-04-25T09:45:37Z</time></trkpt><trkpt lat="43.41745709007891" lon="12.778212852444131"><ele>390.0</ele><time>2026-04-25T09:45:38Z</time></trkpt><trkpt lat="43.41732209719385" lon="12.778437653720827"><ele>390.0</ele><time>2026-04-25T09:45:39Z</time></trkpt><trkpt lat="43.41720083932576" lon="12.77866553508773"><ele>392.0</ele><time>2026-04-25T09:45:40Z</time></trkpt><trkpt lat="43.41710500083706" lon="12.778898707472559"><ele>394.0</ele><time>2026-04-25T09:45:40.999Z</time></trkpt><trkpt lat="43.417029448078075" lon="12.779136103976292"><ele>396.0</ele><time>2026-04-25T09:45:41.999Z</time></trkpt><trkpt lat="43.41693888133389" lon="12.779365060192053"><ele>396.0</ele><time>2026-04-25T09:45:42.999Z</time></trkpt><trkpt lat="43.41681484126118" lon="12.779563168880678"><ele>396.0</ele><time>2026-04-25T09:45:43.999Z</time></trkpt><trkpt lat="43.41664804968434" lon="12.779737034405734"><ele>396.0</ele><time>2026-04-25T09:45:44.999Z</time></trkpt><trkpt lat="43.416471872285925" lon="12.779858820479275"><ele>396.0</ele><time>2026-04-25T09:45:45.999Z</time></trkpt><trkpt lat="43.41633500316056" lon="12.77998620718413"><ele>396.0</ele><time>2026-04-25T09:45:46.999Z</time></trkpt><trkpt lat="43.41621186935363" lon="12.780162218343943"><ele>396.0</ele><time>2026-04-25T09:45:47.999Z</time></trkpt><trkpt lat="43.41611200923138" lon="12.780388151330651"><ele>391.0</ele><time>2026-04-25T09:45:48.999Z</time></trkpt><trkpt lat="43.416007014898696" lon="12.780615234380415"><ele>386.0</ele><time>2026-04-25T09:45:49.999Z</time></trkpt><trkpt lat="43.415907766381316" lon="12.78081123413619"><ele>381.0</ele><time>2026-04-25T09:45:50.999Z</time></trkpt><trkpt lat="43.4158326168122" lon="12.780999688880748"><ele>380.6666666666667</ele><time>2026-04-25T09:45:51.999Z</time></trkpt><trkpt lat="43.415801284677556" lon="12.781199562722852"><ele>380.33333333333337</ele><time>2026-04-25T09:45:52.999Z</time></trkpt><trkpt lat="43.415813068341855" lon="12.781425072638744"><ele>380.0</ele><time>2026-04-25T09:45:53.999Z</time></trkpt><trkpt lat="43.41585430148219" lon="12.781662663817594"><ele>378.6666666666667</ele><time>2026-04-25T09:45:54.999Z</time></trkpt><trkpt lat="43.415910134979285" lon="12.781908468594539"><ele>377.3333333333333</ele><time>2026-04-25T09:45:55.999Z</time></trkpt><trkpt lat="43.4159674425439" lon="12.782167992344966"><ele>376.0</ele><time>2026-04-25T09:45:56.999Z</time></trkpt><trkpt lat="43.416021119659376" lon="12.782439004950348"><ele>375.0</ele><time>2026-04-25T09:45:57.999Z</time></trkpt><trkpt lat="43.41607687063426" lon="12.782716281717551"><ele>374.0</ele><time>2026-04-25T09:45:58.999Z</time></trkpt><trkpt lat="43.416133883685795" lon="12.782998366730336"><ele>373.0</ele><time>2026-04-25T09:45:59.999Z</time></trkpt><trkpt lat="43.416191309003125" lon="12.78327406396474"><ele>373.66666666666663</ele><time>2026-04-25T09:46:00.999Z</time></trkpt><trkpt lat="43.416250998997654" lon="12.783547024238779"><ele>374.3333333333333</ele><time>2026-04-25T09:46:01.999Z</time></trkpt><trkpt lat="43.416308307227" lon="12.783822026664621"><ele>375.0</ele><time>2026-04-25T09:46:02.999Z</time></trkpt><trkpt lat="43.416363325016604" lon="12.784095789013499"><ele>374.6666666666667</ele><time>2026-04-25T09:46:03.999Z</time></trkpt><trkpt lat="43.41641835777053" lon="12.78437172185945"><ele>374.33333333333337</ele><time>2026-04-25T09:46:04.999Z</time></trkpt><trkpt lat="43.41647287302476" lon="12.784643277724195"><ele>374.0</ele><time>2026-04-25T09:46:05.999Z</time></trkpt><trkpt lat="43.416522634914166" lon="12.78492093635061"><ele>376.6666666666667</ele><time>2026-04-25T09:46:06.999Z</time></trkpt><trkpt lat="43.41657727446769" lon="12.785183306254785"><ele>379.3333333333333</ele><time>2026-04-25T09:46:07.999Z</time></trkpt><trkpt lat="43.41663291762212" lon="12.78542471082886"><ele>382.0</ele><time>2026-04-25T09:46:08.999Z</time></trkpt><trkpt lat="43.41671198099655" lon="12.785655446805611"><ele>382.0</ele><time>2026-04-25T09:46:09.999Z</time></trkpt><trkpt lat="43.41682778105098" lon="12.785872524260231"><ele>382.0</ele><time>2026-04-25T09:46:10.999Z</time></trkpt><trkpt lat="43.41697452521756" lon="12.78606841462506"><ele>382.0</ele><time>2026-04-25T09:46:11.999Z</time></trkpt><trkpt lat="43.41714164025933" lon="12.786247078852938"><ele>383.3333333333333</ele><time>2026-04-25T09:46:12.999Z</time></trkpt><trkpt lat="43.41731354875398" lon="12.786431628291492"><ele>384.66666666666663</ele><time>2026-04-25T09:46:13.999Z</time></trkpt><trkpt lat="43.417482602354106" lon="12.786620493593523"><ele>386.0</ele><time>2026-04-25T09:46:14.999Z</time></trkpt><trkpt lat="43.41764993030099" lon="12.786813885446652"><ele>385.0</ele><time>2026-04-25T09:46:15.999Z</time></trkpt><trkpt lat="43.417820354747555" lon="12.787003712133924"><ele>384.0</ele><time>2026-04-25T09:46:16.999Z</time></trkpt><trkpt lat="43.41800280841281" lon="12.787179908722866"><ele>383.0</ele><time>2026-04-25T09:46:17.999Z</time></trkpt><trkpt lat="43.418191893843535" lon="12.78733633513877"><ele>383.0</ele><time>2026-04-25T09:46:18.999Z</time></trkpt><trkpt lat="43.41838634896257" lon="12.787475650035589"><ele>383.0</ele><time>2026-04-25T09:46:19.999Z</time></trkpt><trkpt lat="43.41856680651665" lon="12.787592636565762"><ele>383.0</ele><time>2026-04-25T09:46:20.999Z</time></trkpt><trkpt lat="43.418733203548314" lon="12.787712411066154"><ele>380.33333333333337</ele><time>2026-04-25T09:46:21.999Z</time></trkpt><trkpt lat="43.41887433183287" lon="12.787843046033188"><ele>377.6666666666667</ele><time>2026-04-25T09:46:22.999Z</time></trkpt><trkpt lat="43.41897903579048" lon="12.78799708648564"><ele>375.0</ele><time>2026-04-25T09:46:23.999Z</time></trkpt><trkpt lat="43.41903485452595" lon="12.788178934476942"><ele>375.0</ele><time>2026-04-25T09:46:24.999Z</time></trkpt><trkpt lat="43.4190443173616" lon="12.788378210426131"><ele>375.0</ele><time>2026-04-25T09:46:25.999Z</time></trkpt><trkpt lat="43.41903895706601" lon="12.788599772226423"><ele>375.0</ele><time>2026-04-25T09:46:26.999Z</time></trkpt><trkpt lat="43.41900755527872" lon="12.788819476529088"><ele>373.3333333333333</ele><time>2026-04-25T09:46:27.999Z</time></trkpt><trkpt lat="43.418934542902605" lon="12.789045088449454"><ele>371.66666666666663</ele><time>2026-04-25T09:46:28.999Z</time></trkpt><trkpt lat="43.41883283696722" lon="12.78927240706587"><ele>370.0</ele><time>2026-04-25T09:46:29.999Z</time></trkpt><trkpt lat="43.41871520818823" lon="12.78950178237937"><ele>371.66666666666663</ele><time>2026-04-25T09:46:30.999Z</time></trkpt><trkpt lat="43.41861607990056" lon="12.789735519629657"><ele>373.3333333333333</ele><time>2026-04-25T09:46:31.999Z</time></trkpt><trkpt lat="43.41852576992724" lon="12.789981986205385"><ele>375.0</ele><time>2026-04-25T09:46:32.999Z</time></trkpt><trkpt lat="43.418451252376826" lon="12.79024128648407"><ele>375.0</ele><time>2026-04-25T09:46:33.999Z</time></trkpt><trkpt lat="43.41839370616186" lon="12.790500373849753"><ele>375.0</ele><time>2026-04-25T09:46:34.999Z</time></trkpt><trkpt lat="43.41833758696759" lon="12.790748703270422"><ele>375.0</ele><time>2026-04-25T09:46:35.999Z</time></trkpt><trkpt lat="43.41828124181778" lon="12.79096628614029"><ele>374.3333333333333</ele><time>2026-04-25T09:46:36.999Z</time></trkpt><trkpt lat="43.41820366551659" lon="12.791156475103152"><ele>373.66666666666663</ele><time>2026-04-25T09:46:37.999Z</time></trkpt><trkpt lat="43.41808483484124" lon="12.791292352930597"><ele>373.0</ele><time>2026-04-25T09:46:38.999Z</time></trkpt><trkpt lat="43.41793041891799" lon="12.791363708881981"><ele>371.66666666666663</ele><time>2026-04-25T09:46:40Z</time></trkpt><trkpt lat="43.417753569514225" lon="12.791376541191148"><ele>370.3333333333333</ele><time>2026-04-25T09:46:41Z</time></trkpt><trkpt lat="43.41756973599078" lon="12.791322651615426"><ele>369.0</ele><time>2026-04-25T09:46:42Z</time></trkpt><trkpt lat="43.41737956355217" lon="12.791285005191881"><ele>369.0</ele><time>2026-04-25T09:46:43Z</time></trkpt><trkpt lat="43.41718289098997" lon="12.79129588331524"><ele>369.0</ele><time>2026-04-25T09:46:44Z</time></trkpt><trkpt lat="43.41698634676433" lon="12.79132714474879"><ele>369.0</ele><time>2026-04-25T09:46:45Z</time></trkpt><trkpt lat="43.41680096789195" lon="12.791349755139342"><ele>369.0</ele><time>2026-04-25T09:46:46Z</time></trkpt><trkpt lat="43.41661486683517" lon="12.7914005677304"><ele>369.0</ele><time>2026-04-25T09:46:47Z</time></trkpt><trkpt lat="43.416420388262985" lon="12.79150231059127"><ele>369.0</ele><time>2026-04-25T09:46:48Z</time></trkpt><trkpt lat="43.416224725574594" lon="12.791621132478076"><ele>367.6666666666667</ele><time>2026-04-25T09:46:49Z</time></trkpt><trkpt lat="43.41603268070548" lon="12.791749681412657"><ele>366.33333333333337</ele><time>2026-04-25T09:46:50Z</time></trkpt><trkpt lat="43.415846934783154" lon="12.791884220336962"><ele>365.0</ele><time>2026-04-25T09:46:51Z</time></trkpt><trkpt lat="43.415684187629545" lon="12.792039144678807"><ele>365.0</ele><time>2026-04-25T09:46:52Z</time></trkpt><trkpt lat="43.41555630205467" lon="12.792211350835807"><ele>365.0</ele><time>2026-04-25T09:46:53Z</time></trkpt><trkpt lat="43.415441023684515" lon="12.792381432887675"><ele>365.0</ele><time>2026-04-25T09:46:54Z</time></trkpt><trkpt lat="43.41536175643568" lon="12.792576059681037"><ele>375.6666666666667</ele><time>2026-04-25T09:46:55Z</time></trkpt><trkpt lat="43.41530914107858" lon="12.792796645395732"><ele>386.33333333333337</ele><time>2026-04-25T09:46:56Z</time></trkpt><trkpt lat="43.4152969531177" lon="12.79303572492544"><ele>397.0</ele><time>2026-04-25T09:46:57Z</time></trkpt><trkpt lat="43.41531577259217" lon="12.793278428115743"><ele>392.6666666666667</ele><time>2026-04-25T09:46:58Z</time></trkpt><trkpt lat="43.41536722677181" lon="12.793517184667463"><ele>388.33333333333337</ele><time>2026-04-25T09:46:59Z</time></trkpt><trkpt lat="43.41545200218713" lon="12.793739264143706"><ele>384.0</ele><time>2026-04-25T09:47:00Z</time></trkpt><trkpt lat="43.41557636996435" lon="12.793933807095975"><ele>382.3333333333333</ele><time>2026-04-25T09:47:01Z</time></trkpt><trkpt lat="43.41571428815376" lon="12.79411470560421"><ele>380.66666666666663</ele><time>2026-04-25T09:47:02Z</time></trkpt><trkpt lat="43.41585319115489" lon="12.794313361215883"><ele>379.0</ele><time>2026-04-25T09:47:03Z</time></trkpt><trkpt lat="43.41597203266694" lon="12.794510383386529"><ele>379.0</ele><time>2026-04-25T09:47:04Z</time></trkpt><trkpt lat="43.4160785894974" lon="12.794689146375028"><ele>379.0</ele><time>2026-04-25T09:47:05Z</time></trkpt><trkpt lat="43.41618053799779" lon="12.794852397721746"><ele>379.0</ele><time>2026-04-25T09:47:06Z</time></trkpt><trkpt lat="43.416275403309584" lon="12.794982089989075"><ele>375.0</ele><time>2026-04-25T09:47:07Z</time></trkpt><trkpt lat="43.41639891724251" lon="12.795063923503134"><ele>371.0</ele><time>2026-04-25T09:47:08Z</time></trkpt><trkpt lat="43.4165589645645" lon="12.795075362277267"><ele>367.0</ele><time>2026-04-25T09:47:09Z</time></trkpt><trkpt lat="43.416722023139876" lon="12.795048828310007"><ele>367.0</ele><time>2026-04-25T09:47:10Z</time></trkpt><trkpt lat="43.416860885653065" lon="12.795013192060486"><ele>367.0</ele><time>2026-04-25T09:47:11Z</time></trkpt><trkpt lat="43.41699266304251" lon="12.79492790323552"><ele>367.0</ele><time>2026-04-25T09:47:12Z</time></trkpt><trkpt lat="43.41711995917013" lon="12.794776287387293"><ele>365.3333333333333</ele><time>2026-04-25T09:47:13Z</time></trkpt><trkpt lat="43.417252763299295" lon="12.79460839146035"><ele>363.6666666666667</ele><time>2026-04-25T09:47:14Z</time></trkpt><trkpt lat="43.41739989597568" lon="12.79445809367783"><ele>362.0</ele><time>2026-04-25T09:47:15Z</time></trkpt><trkpt lat="43.41755644674439" lon="12.79433466258823"><ele>362.0</ele><time>2026-04-25T09:47:16Z</time></trkpt><trkpt lat="43.41771592147185" lon="12.794272711935045"><ele>362.0</ele><time>2026-04-25T09:47:17Z</time></trkpt><trkpt lat="43.41788514160503" lon="12.79427487779471"><ele>362.0</ele><time>2026-04-25T09:47:18Z</time></trkpt><trkpt lat="43.4180548658281" lon="12.794349169699558"><ele>364.0</ele><time>2026-04-25T09:47:19Z</time></trkpt><trkpt lat="43.418227916045865" lon="12.794417648668146"><ele>366.0</ele><time>2026-04-25T09:47:20Z</time></trkpt><trkpt lat="43.41839920739975" lon="12.794407567697169"><ele>368.0</ele><time>2026-04-25T09:47:21Z</time></trkpt><trkpt lat="43.418583742621294" lon="12.794336408657538"><ele>368.0</ele><time>2026-04-25T09:47:22Z</time></trkpt><trkpt lat="43.41876963728125" lon="12.794261995043527"><ele>368.0</ele><time>2026-04-25T09:47:23Z</time></trkpt><trkpt lat="43.41895933994139" lon="12.794159855101805"><ele>368.0</ele><time>2026-04-25T09:47:24Z</time></trkpt><trkpt lat="43.41915330888454" lon="12.794056577166362"><ele>369.33333333333337</ele><time>2026-04-25T09:47:25Z</time></trkpt><trkpt lat="43.41936055214283" lon="12.793970929552005"><ele>370.6666666666667</ele><time>2026-04-25T09:47:26Z</time></trkpt><trkpt lat="43.41958082581247" lon="12.793905527898287"><ele>372.0</ele><time>2026-04-25T09:47:27Z</time></trkpt><trkpt lat="43.41980245317786" lon="12.793837831945737"><ele>376.0</ele><time>2026-04-25T09:47:28Z</time></trkpt><trkpt lat="43.42002614806374" lon="12.793766527670922"><ele>380.0</ele><time>2026-04-25T09:47:29Z</time></trkpt><trkpt lat="43.42024185619358" lon="12.793702636982346"><ele>380.0</ele><time>2026-04-25T09:47:30Z</time></trkpt><trkpt lat="43.42044265240917" lon="12.793651611449217"><ele>380.0</ele><time>2026-04-25T09:47:31Z</time></trkpt><trkpt lat="43.42063378019999" lon="12.793634304918811"><ele>380.0</ele><time>2026-04-25T09:47:32Z</time></trkpt><trkpt lat="43.42082826691961" lon="12.793680416648511"><ele>380.6666666666667</ele><time>2026-04-25T09:47:33Z</time></trkpt><trkpt lat="43.421015589251915" lon="12.793785261949523"><ele>381.3333333333333</ele><time>2026-04-25T09:47:34Z</time></trkpt><trkpt lat="43.42118823816175" lon="12.793925065066928"><ele>382.0</ele><time>2026-04-25T09:47:35Z</time></trkpt><trkpt lat="43.42134079363718" lon="12.794103292789515"><ele>376.0</ele><time>2026-04-25T09:47:36Z</time></trkpt><trkpt lat="43.42147063008957" lon="12.794309802381633"><ele>370.0</ele><time>2026-04-25T09:47:37Z</time></trkpt><trkpt lat="43.42157721134072" lon="12.794528787967367"><ele>364.0</ele><time>2026-04-25T09:47:38Z</time></trkpt><trkpt lat="43.42166021595193" lon="12.79477229079677"><ele>364.0</ele><time>2026-04-25T09:47:39Z</time></trkpt><trkpt lat="43.42170972619483" lon="12.795030925544909"><ele>364.0</ele><time>2026-04-25T09:47:40Z</time></trkpt><trkpt lat="43.42171800531182" lon="12.795272626374851"><ele>364.0</ele><time>2026-04-25T09:47:41Z</time></trkpt><trkpt lat="43.421674873335746" lon="12.795517492841062"><ele>361.3333333333333</ele><time>2026-04-25T09:47:42Z</time></trkpt><trkpt lat="43.42159373791145" lon="12.795767115206026"><ele>358.6666666666667</ele><time>2026-04-25T09:47:43Z</time></trkpt><trkpt lat="43.42149663029413" lon="12.796014237584163"><ele>356.0</ele><time>2026-04-25T09:47:44Z</time></trkpt><trkpt lat="43.42140356365075" lon="12.796250618617734"><ele>354.75</ele><time>2026-04-25T09:47:45Z</time></trkpt><trkpt lat="43.421325840363025" lon="12.796461679090493"><ele>353.5</ele><time>2026-04-25T09:47:46Z</time></trkpt><trkpt lat="43.42127930544417" lon="12.796640492053978"><ele>352.25</ele><time>2026-04-25T09:47:47Z</time></trkpt><trkpt lat="43.42130077537556" lon="12.79681966140472"><ele>351.0</ele><time>2026-04-25T09:47:47.999Z</time></trkpt><trkpt lat="43.42136779731857" lon="12.797011969904801"><ele>351.0</ele><time>2026-04-25T09:47:48.999Z</time></trkpt><trkpt lat="43.421425454960165" lon="12.797191028521256"><ele>351.0</ele><time>2026-04-25T09:47:49.999Z</time></trkpt><trkpt lat="43.42142372516437" lon="12.79741106602842"><ele>351.0</ele><time>2026-04-25T09:47:50.999Z</time></trkpt><trkpt lat="43.42136791461546" lon="12.797665794252323"><ele>350.3333333333333</ele><time>2026-04-25T09:47:51.999Z</time></trkpt><trkpt lat="43.421320412182155" lon="12.79791670332653"><ele>349.66666666666663</ele><time>2026-04-25T09:47:52.999Z</time></trkpt><trkpt lat="43.42128279450273" lon="12.798178108727068"><ele>349.0</ele><time>2026-04-25T09:47:53.999Z</time></trkpt><trkpt lat="43.42124589109014" lon="12.79844610345578"><ele>362.0</ele><time>2026-04-25T09:47:54.999Z</time></trkpt><trkpt lat="43.42120479996663" lon="12.798730608140007"><ele>375.0</ele><time>2026-04-25T09:47:55.999Z</time></trkpt><trkpt lat="43.421167918844404" lon="12.799020832722494"><ele>388.0</ele><time>2026-04-25T09:47:56.999Z</time></trkpt><trkpt lat="43.42112246699783" lon="12.799305981485958"><ele>387.0</ele><time>2026-04-25T09:47:57.999Z</time></trkpt><trkpt lat="43.42107880320278" lon="12.799573228955145"><ele>386.0</ele><time>2026-04-25T09:47:58.999Z</time></trkpt><trkpt lat="43.421045538939154" lon="12.799820368648414"><ele>385.0</ele><time>2026-04-25T09:47:59.999Z</time></trkpt><trkpt lat="43.42101121083214" lon="12.800048342760563"><ele>377.6666666666667</ele><time>2026-04-25T09:48:00.999Z</time></trkpt><trkpt lat="43.420959295302616" lon="12.800281725716072"><ele>370.33333333333337</ele><time>2026-04-25T09:48:01.999Z</time></trkpt><trkpt lat="43.420873496146896" lon="12.800507223343068"><ele>363.0</ele><time>2026-04-25T09:48:02.999Z</time></trkpt><trkpt lat="43.42074751472633" lon="12.800721523500325"><ele>363.0</ele><time>2026-04-25T09:48:03.999Z</time></trkpt><trkpt lat="43.420611009445885" lon="12.800921950732501"><ele>363.0</ele><time>2026-04-25T09:48:04.999Z</time></trkpt><trkpt lat="43.42045888744228" lon="12.801103596737583"><ele>363.0</ele><time>2026-04-25T09:48:05.999Z</time></trkpt><trkpt lat="43.42029075768761" lon="12.80128322046911"><ele>364.3333333333333</ele><time>2026-04-25T09:48:06.999Z</time></trkpt><trkpt lat="43.42012106887113" lon="12.801453668705008"><ele>365.66666666666663</ele><time>2026-04-25T09:48:07.999Z</time></trkpt><trkpt lat="43.41994846473853" lon="12.801630412397857"><ele>367.0</ele><time>2026-04-25T09:48:08.999Z</time></trkpt><trkpt lat="43.419782662226055" lon="12.801808140402471"><ele>371.0</ele><time>2026-04-25T09:48:09.999Z</time></trkpt><trkpt lat="43.419626068433075" lon="12.801968199094235"><ele>375.0</ele><time>2026-04-25T09:48:10.999Z</time></trkpt><trkpt lat="43.419487391478505" lon="12.802115415671018"><ele>379.0</ele><time>2026-04-25T09:48:11.999Z</time></trkpt><trkpt lat="43.4193586468044" lon="12.802242883487194"><ele>379.0</ele><time>2026-04-25T09:48:12.999Z</time></trkpt><trkpt lat="43.419251099959986" lon="12.802362765818703"><ele>379.0</ele><time>2026-04-25T09:48:13.999Z</time></trkpt><trkpt lat="43.41919027775018" lon="12.802516171010344"><ele>379.0</ele><time>2026-04-25T09:48:14.999Z</time></trkpt><trkpt lat="43.4191695724389" lon="12.802707395655746"><ele>379.0</ele><time>2026-04-25T09:48:15.999Z</time></trkpt><trkpt lat="43.41915266012927" lon="12.802937423847146"><ele>375.3333333333333</ele><time>2026-04-25T09:48:16.999Z</time></trkpt><trkpt lat="43.41912296176499" lon="12.80317708199473"><ele>371.6666666666667</ele><time>2026-04-25T09:48:17.999Z</time></trkpt><trkpt lat="43.41908733524108" lon="12.803425325635812"><ele>368.0</ele><time>2026-04-25T09:48:18.999Z</time></trkpt><trkpt lat="43.41909293015304" lon="12.803675871696607"><ele>368.0</ele><time>2026-04-25T09:48:19.999Z</time></trkpt><trkpt lat="43.41912722108219" lon="12.803912553181624"><ele>368.0</ele><time>2026-04-25T09:48:20.999Z</time></trkpt><trkpt lat="43.41914648985461" lon="12.80416239049854"><ele>368.0</ele><time>2026-04-25T09:48:21.999Z</time></trkpt><trkpt lat="43.41918194136242" lon="12.804450780623048"><ele>369.0</ele><time>2026-04-25T09:48:22.999Z</time></trkpt><trkpt lat="43.41922885130594" lon="12.80472871782336"><ele>370.0</ele><time>2026-04-25T09:48:23.999Z</time></trkpt><trkpt lat="43.41924570564739" lon="12.804894020107628"><ele>371.0</ele><time>2026-04-25T09:48:24.999Z</time></trkpt><trkpt lat="43.419335973355835" lon="12.80511914652268"><ele>370.0</ele><time>2026-04-25T09:48:25.999Z</time></trkpt><trkpt lat="43.4194499548051" lon="12.80531740292551"><ele>369.0</ele><time>2026-04-25T09:48:26.999Z</time></trkpt><trkpt lat="43.419560430641155" lon="12.805487358936722"><ele>368.0</ele><time>2026-04-25T09:48:27.999Z</time></trkpt><trkpt lat="43.419631702657746" lon="12.805654374022968"><ele>364.0</ele><time>2026-04-25T09:48:28.999Z</time></trkpt><trkpt lat="43.41965270900077" lon="12.80585009116149"><ele>360.0</ele><time>2026-04-25T09:48:29.999Z</time></trkpt><trkpt lat="43.419593373833656" lon="12.806014886386187"><ele>356.0</ele><time>2026-04-25T09:48:30.999Z</time></trkpt><trkpt lat="43.41956923394286" lon="12.806185941138704"><ele>352.0</ele><time>2026-04-25T09:48:31.999Z</time></trkpt><trkpt lat="43.419337525860016" lon="12.806277548821088"><ele>352.0</ele><time>2026-04-25T09:48:32.999Z</time></trkpt><trkpt lat="43.41918500547646" lon="12.806467084109936"><ele>352.0</ele><time>2026-04-25T09:48:33.999Z</time></trkpt><trkpt lat="43.41904740214221" lon="12.80666493325414"><ele>352.0</ele><time>2026-04-25T09:48:34.999Z</time></trkpt><trkpt lat="43.41891763858107" lon="12.806852730865707"><ele>353.3333333333333</ele><time>2026-04-25T09:48:35.999Z</time></trkpt><trkpt lat="43.41879222041958" lon="12.807087503327091"><ele>354.6666666666667</ele><time>2026-04-25T09:48:36.999Z</time></trkpt><trkpt lat="43.41868532637537" lon="12.80734222902799"><ele>356.0</ele><time>2026-04-25T09:48:37.999Z</time></trkpt><trkpt lat="43.418588177721894" lon="12.807595840290544"><ele>353.6666666666667</ele><time>2026-04-25T09:48:38.999Z</time></trkpt><trkpt lat="43.41845887115475" lon="12.807834477937325"><ele>351.3333333333333</ele><time>2026-04-25T09:48:39.999Z</time></trkpt><trkpt lat="43.41830883189607" lon="12.808054517051508"><ele>349.0</ele><time>2026-04-25T09:48:40.999Z</time></trkpt><trkpt lat="43.418116104270844" lon="12.808239431969504"><ele>347.5</ele><time>2026-04-25T09:48:41.999Z</time></trkpt><trkpt lat="43.417921961136976" lon="12.808421539346805"><ele>346.0</ele><time>2026-04-25T09:48:42.999Z</time></trkpt><trkpt lat="43.41773228571166" lon="12.808616911468361"><ele>346.0</ele><time>2026-04-25T09:48:43.999Z</time></trkpt><trkpt lat="43.417545655520826" lon="12.808809789236362"><ele>346.0</ele><time>2026-04-25T09:48:44.999Z</time></trkpt><trkpt lat="43.41735915712616" lon="12.809016158725184"><ele>346.0</ele><time>2026-04-25T09:48:46Z</time></trkpt><trkpt lat="43.41718004877248" lon="12.809217539668213"><ele>346.0</ele><time>2026-04-25T09:48:47Z</time></trkpt><trkpt lat="43.41700656036329" lon="12.809420229696658"><ele>347.66666666666663</ele><time>2026-04-25T09:48:48Z</time></trkpt><trkpt lat="43.41684597197611" lon="12.809639528586724"><ele>349.3333333333333</ele><time>2026-04-25T09:48:49Z</time></trkpt><trkpt lat="43.41670989149892" lon="12.809871627659575"><ele>351.0</ele><time>2026-04-25T09:48:50Z</time></trkpt><trkpt lat="43.416581725896755" lon="12.81008926080659"><ele>349.6666666666667</ele><time>2026-04-25T09:48:51Z</time></trkpt><trkpt lat="43.416436410914606" lon="12.81036728497356"><ele>348.33333333333337</ele><time>2026-04-25T09:48:52Z</time></trkpt><trkpt lat="43.416291045525405" lon="12.81054667638512"><ele>347.0</ele><time>2026-04-25T09:48:53Z</time></trkpt><trkpt lat="43.41612291912254" lon="12.810703794008385"><ele>347.0</ele><time>2026-04-25T09:48:54Z</time></trkpt><trkpt lat="43.41593637240456" lon="12.810836742049256"><ele>347.0</ele><time>2026-04-25T09:48:55Z</time></trkpt><trkpt lat="43.41575057535208" lon="12.81095882808906"><ele>347.0</ele><time>2026-04-25T09:48:56Z</time></trkpt><trkpt lat="43.41557581272042" lon="12.811083250870327"><ele>346.0</ele><time>2026-04-25T09:48:57Z</time></trkpt><trkpt lat="43.41540815902948" lon="12.811186199057301"><ele>345.0</ele><time>2026-04-25T09:48:58Z</time></trkpt><trkpt lat="43.415263350621395" lon="12.811298337811001"><ele>344.0</ele><time>2026-04-25T09:48:59Z</time></trkpt><trkpt lat="43.41516470680554" lon="12.811491349332613"><ele>344.0</ele><time>2026-04-25T09:49:00Z</time></trkpt><trkpt lat="43.415047636936514" lon="12.81164091523827"><ele>344.0</ele><time>2026-04-25T09:49:01Z</time></trkpt><trkpt lat="43.414912459443244" lon="12.811759655208071"><ele>344.0</ele><time>2026-04-25T09:49:02Z</time></trkpt><trkpt lat="43.41472917040486" lon="12.811847600585033"><ele>339.6666666666667</ele><time>2026-04-25T09:49:03Z</time></trkpt><trkpt lat="43.414527799738664" lon="12.811924600752267"><ele>335.3333333333333</ele><time>2026-04-25T09:49:04Z</time></trkpt><trkpt lat="43.41431721849419" lon="12.81201327336924"><ele>331.0</ele><time>2026-04-25T09:49:05Z</time></trkpt><trkpt lat="43.41409561867566" lon="12.812104143116757"><ele>331.0</ele><time>2026-04-25T09:49:06Z</time></trkpt><trkpt lat="43.41387209183996" lon="12.812186603452194"><ele>331.0</ele><time>2026-04-25T09:49:07Z</time></trkpt><trkpt lat="43.413660336800945" lon="12.812286542379919"><ele>330.0</ele><time>2026-04-25T09:49:08Z</time></trkpt><trkpt lat="43.41345753851143" lon="12.812446579908684"><ele>329.0</ele><time>2026-04-25T09:49:09Z</time></trkpt><trkpt lat="43.413282737246114" lon="12.812620199348702"><ele>328.0</ele><time>2026-04-25T09:49:10Z</time></trkpt><trkpt lat="43.41313939021245" lon="12.812776438517751"><ele>328.0</ele><time>2026-04-25T09:49:11Z</time></trkpt><trkpt lat="43.41301148689645" lon="12.81294300945048"><ele>328.0</ele><time>2026-04-25T09:49:12Z</time></trkpt><trkpt lat="43.41291058335128" lon="12.813163087674631"><ele>328.0</ele><time>2026-04-25T09:49:13Z</time></trkpt><trkpt lat="43.41284217635653" lon="12.813426504248273"><ele>330.66666666666663</ele><time>2026-04-25T09:49:14Z</time></trkpt><trkpt lat="43.41278716206637" lon="12.813695404212982"><ele>333.3333333333333</ele><time>2026-04-25T09:49:15Z</time></trkpt><trkpt lat="43.41272161586093" lon="12.813939870976558"><ele>336.0</ele><time>2026-04-25T09:49:16Z</time></trkpt><trkpt lat="43.41262724795119" lon="12.814150250632851"><ele>333.0</ele><time>2026-04-25T09:49:17Z</time></trkpt><trkpt lat="43.4125024996922" lon="12.814343970237923"><ele>330.0</ele><time>2026-04-25T09:49:18Z</time></trkpt><trkpt lat="43.41237235302575" lon="12.814512814003464"><ele>327.0</ele><time>2026-04-25T09:49:19Z</time></trkpt><trkpt lat="43.41225403801614" lon="12.814657356633944"><ele>333.0</ele><time>2026-04-25T09:49:20Z</time></trkpt><trkpt lat="43.4121516440978" lon="12.814788419602534"><ele>339.0</ele><time>2026-04-25T09:49:21Z</time></trkpt><trkpt lat="43.41208089724805" lon="12.814947664289733"><ele>345.0</ele><time>2026-04-25T09:49:22Z</time></trkpt><trkpt lat="43.412058689653044" lon="12.815149114188655"><ele>351.0</ele><time>2026-04-25T09:49:23Z</time></trkpt><trkpt lat="43.41205774075681" lon="12.815362253806802"><ele>351.0</ele><time>2026-04-25T09:49:24Z</time></trkpt><trkpt lat="43.412053905836785" lon="12.815583063643997"><ele>351.0</ele><time>2026-04-25T09:49:25Z</time></trkpt><trkpt lat="43.41205283684807" lon="12.815811433411533"><ele>351.0</ele><time>2026-04-25T09:49:26Z</time></trkpt><trkpt lat="43.41205759842914" lon="12.816045426492341"><ele>348.3333333333333</ele><time>2026-04-25T09:49:27Z</time></trkpt><trkpt lat="43.41205791236854" lon="12.816274499927257"><ele>345.66666666666663</ele><time>2026-04-25T09:49:28Z</time></trkpt><trkpt lat="43.41205093029456" lon="12.816493812863573"><ele>343.0</ele><time>2026-04-25T09:49:29Z</time></trkpt><trkpt lat="43.41201701883922" lon="12.816721951402418"><ele>340.66666666666663</ele><time>2026-04-25T09:49:30Z</time></trkpt><trkpt lat="43.4119657353266" lon="12.816956243755854"><ele>338.3333333333333</ele><time>2026-04-25T09:49:31Z</time></trkpt><trkpt lat="43.411906357031256" lon="12.817190751056195"><ele>336.0</ele><time>2026-04-25T09:49:32Z</time></trkpt><trkpt lat="43.41184402838444" lon="12.817439839047188"><ele>335.6666666666667</ele><time>2026-04-25T09:49:33Z</time></trkpt><trkpt lat="43.4117794177858" lon="12.817692917304175"><ele>335.33333333333337</ele><time>2026-04-25T09:49:34Z</time></trkpt><trkpt lat="43.41171537597336" lon="12.817953079978777"><ele>335.0</ele><time>2026-04-25T09:49:35Z</time></trkpt><trkpt lat="43.41165320391227" lon="12.818204778956467"><ele>335.0</ele><time>2026-04-25T09:49:36Z</time></trkpt><trkpt lat="43.41159608431504" lon="12.818435302713976"><ele>335.0</ele><time>2026-04-25T09:49:37Z</time></trkpt><trkpt lat="43.41154785447189" lon="12.818640238861933"><ele>335.0</ele><time>2026-04-25T09:49:38Z</time></trkpt><trkpt lat="43.411505713142155" lon="12.818844541214307"><ele>335.6666666666667</ele><time>2026-04-25T09:49:39Z</time></trkpt><trkpt lat="43.41148700122499" lon="12.81905677313681"><ele>336.3333333333333</ele><time>2026-04-25T09:49:40Z</time></trkpt><trkpt lat="43.41150987669134" lon="12.819272829022715"><ele>337.0</ele><time>2026-04-25T09:49:41Z</time></trkpt><trkpt lat="43.41157018630477" lon="12.819485474784507"><ele>337.0</ele><time>2026-04-25T09:49:42Z</time></trkpt><trkpt lat="43.4116462241479" lon="12.819709859826427"><ele>337.0</ele><time>2026-04-25T09:49:43Z</time></trkpt><trkpt lat="43.41172727150324" lon="12.81992575469901"><ele>337.0</ele><time>2026-04-25T09:49:44Z</time></trkpt><trkpt lat="43.411793056012144" lon="12.82013581076158"><ele>336.0</ele><time>2026-04-25T09:49:45Z</time></trkpt><trkpt lat="43.41183082797308" lon="12.820354498215718"><ele>335.0</ele><time>2026-04-25T09:49:46Z</time></trkpt><trkpt lat="43.41182459666744" lon="12.820584051942898"><ele>334.0</ele><time>2026-04-25T09:49:47Z</time></trkpt><trkpt lat="43.411751737423316" lon="12.820816434920825"><ele>333.66666666666663</ele><time>2026-04-25T09:49:48Z</time></trkpt><trkpt lat="43.41166806162311" lon="12.821055244261379"><ele>333.3333333333333</ele><time>2026-04-25T09:49:49Z</time></trkpt><trkpt lat="43.4115838386912" lon="12.821301193680853"><ele>333.0</ele><time>2026-04-25T09:49:50Z</time></trkpt><trkpt lat="43.4115097555063" lon="12.821560962568274"><ele>333.0</ele><time>2026-04-25T09:49:51Z</time></trkpt><trkpt lat="43.41142880709922" lon="12.821796856151309"><ele>333.0</ele><time>2026-04-25T09:49:52Z</time></trkpt><trkpt lat="43.41135031527789" lon="12.822017860368286"><ele>333.0</ele><time>2026-04-25T09:49:52.999Z</time></trkpt><trkpt lat="43.41127811744264" lon="12.822240429768724"><ele>333.0</ele><time>2026-04-25T09:49:53.999Z</time></trkpt><trkpt lat="43.41121793405811" lon="12.822479058516791"><ele>333.0</ele><time>2026-04-25T09:49:54.999Z</time></trkpt><trkpt lat="43.41117356011274" lon="12.82273379768176"><ele>333.0</ele><time>2026-04-25T09:49:55.999Z</time></trkpt><trkpt lat="43.411146365710344" lon="12.823004112971939"><ele>333.0</ele><time>2026-04-25T09:49:56.999Z</time></trkpt><trkpt lat="43.411127122037925" lon="12.82326018304866"><ele>333.0</ele><time>2026-04-25T09:49:57.999Z</time></trkpt><trkpt lat="43.41111289390612" lon="12.823491049901667"><ele>333.0</ele><time>2026-04-25T09:49:58.999Z</time></trkpt><trkpt lat="43.41112214713892" lon="12.82368785674286"><ele>333.0</ele><time>2026-04-25T09:49:59.999Z</time></trkpt><trkpt lat="43.41116494183128" lon="12.823892619196414"><ele>333.0</ele><time>2026-04-25T09:50:00.999Z</time></trkpt><trkpt lat="43.411253987823" lon="12.824099996280047"><ele>333.0</ele><time>2026-04-25T09:50:01.999Z</time></trkpt><trkpt lat="43.411367606584015" lon="12.824310816112556"><ele>330.3333333333333</ele><time>2026-04-25T09:50:02.999Z</time></trkpt><trkpt lat="43.41148336597094" lon="12.824524958469391"><ele>327.66666666666663</ele><time>2026-04-25T09:50:03.999Z</time></trkpt><trkpt lat="43.41158990895447" lon="12.824749065885273"><ele>325.0</ele><time>2026-04-25T09:50:04.999Z</time></trkpt><trkpt lat="43.411687777603355" lon="12.82497607505661"><ele>324.0</ele><time>2026-04-25T09:50:05.999Z</time></trkpt><trkpt lat="43.41173809834662" lon="12.825236026312364"><ele>323.0</ele><time>2026-04-25T09:50:06.999Z</time></trkpt><trkpt lat="43.41179900267085" lon="12.825515977789202"><ele>322.0</ele><time>2026-04-25T09:50:07.999Z</time></trkpt><trkpt lat="43.41187115380659" lon="12.825798213697544"><ele>322.3333333333333</ele><time>2026-04-25T09:50:08.999Z</time></trkpt><trkpt lat="43.41191113295524" lon="12.826082915558874"><ele>322.6666666666667</ele><time>2026-04-25T09:50:09.999Z</time></trkpt><trkpt lat="43.41194595072194" lon="12.826381685883002"><ele>323.0</ele><time>2026-04-25T09:50:10.999Z</time></trkpt><trkpt lat="43.41197222580987" lon="12.826671392475431"><ele>324.33333333333337</ele><time>2026-04-25T09:50:11.999Z</time></trkpt><trkpt lat="43.412012640213945" lon="12.826946677656705"><ele>325.6666666666667</ele><time>2026-04-25T09:50:12.999Z</time></trkpt><trkpt lat="43.4120291291817" lon="12.827191747860336"><ele>327.0</ele><time>2026-04-25T09:50:13.999Z</time></trkpt><trkpt lat="43.41205598855668" lon="12.827382068332895"><ele>327.0</ele><time>2026-04-25T09:50:14.999Z</time></trkpt><trkpt lat="43.41212426165232" lon="12.827556490242946"><ele>327.0</ele><time>2026-04-25T09:50:15.999Z</time></trkpt><trkpt lat="43.412243056029475" lon="12.827706276420708"><ele>327.0</ele><time>2026-04-25T09:50:16.999Z</time></trkpt><trkpt lat="43.41240711199707" lon="12.82781554569565"><ele>326.6666666666667</ele><time>2026-04-25T09:50:17.999Z</time></trkpt><trkpt lat="43.41258138229887" lon="12.827898162778261"><ele>326.33333333333337</ele><time>2026-04-25T09:50:18.999Z</time></trkpt><trkpt lat="43.412745623889066" lon="12.827959673814426"><ele>326.0</ele><time>2026-04-25T09:50:19.999Z</time></trkpt><trkpt lat="43.412884600074904" lon="12.828016802869476"><ele>326.0</ele><time>2026-04-25T09:50:20.999Z</time></trkpt><trkpt lat="43.41300680825441" lon="12.828116974056917"><ele>326.0</ele><time>2026-04-25T09:50:21.999Z</time></trkpt><trkpt lat="43.41309513890721" lon="12.828300752678091"><ele>326.0</ele><time>2026-04-25T09:50:22.999Z</time></trkpt><trkpt lat="43.41319267144021" lon="12.828486852833857"><ele>326.0</ele><time>2026-04-25T09:50:23.999Z</time></trkpt><trkpt lat="43.413279903320365" lon="12.828656711976103"><ele>326.0</ele><time>2026-04-25T09:50:24.999Z</time></trkpt><trkpt lat="43.41337072196796" lon="12.828807321259523"><ele>326.0</ele><time>2026-04-25T09:50:25.999Z</time></trkpt><trkpt lat="43.41345305370038" lon="12.828955517627978"><ele>326.0</ele><time>2026-04-25T09:50:26.999Z</time></trkpt><trkpt lat="43.41355306528808" lon="12.829090294256643"><ele>326.0</ele><time>2026-04-25T09:50:27.999Z</time></trkpt><trkpt lat="43.41367345118147" lon="12.829238787824309"><ele>326.0</ele><time>2026-04-25T09:50:28.999Z</time></trkpt><trkpt lat="43.41381151854949" lon="12.829383366291967"><ele>326.0</ele><time>2026-04-25T09:50:29.999Z</time></trkpt><trkpt lat="43.4139586265176" lon="12.82953741170569"><ele>325.0</ele><time>2026-04-25T09:50:30.999Z</time></trkpt><trkpt lat="43.41411645370066" lon="12.829676248633644"><ele>324.0</ele><time>2026-04-25T09:50:31.999Z</time></trkpt><trkpt lat="43.41423792691954" lon="12.829830577254642"><ele>323.0</ele><time>2026-04-25T09:50:32.999Z</time></trkpt><trkpt lat="43.41434631019097" lon="12.829963603228125"><ele>323.0</ele><time>2026-04-25T09:50:33.999Z</time></trkpt><trkpt lat="43.414416603055564" lon="12.830108783485024"><ele>323.0</ele><time>2026-04-25T09:50:34.999Z</time></trkpt><trkpt lat="43.41445364995701" lon="12.830279862277395"><ele>323.0</ele><time>2026-04-25T09:50:35.999Z</time></trkpt><trkpt lat="43.414427680350116" lon="12.830440719468006"><ele>323.0</ele><time>2026-04-25T09:50:36.999Z</time></trkpt><trkpt lat="43.414400481844396" lon="12.83061340431418"><ele>323.0</ele><time>2026-04-25T09:50:37.999Z</time></trkpt><trkpt lat="43.4143673735812" lon="12.830826076202701"><ele>323.0</ele><time>2026-04-25T09:50:38.999Z</time></trkpt><trkpt lat="43.41433214485037" lon="12.831055981217885"><ele>323.0</ele><time>2026-04-25T09:50:39.999Z</time></trkpt><trkpt lat="43.414294516525366" lon="12.831305319072113"><ele>322.33333333333337</ele><time>2026-04-25T09:50:40.999Z</time></trkpt><trkpt lat="43.414270330298" lon="12.831544670401403"><ele>321.6666666666667</ele><time>2026-04-25T09:50:41.999Z</time></trkpt><trkpt lat="43.41423960401493" lon="12.831768772367344"><ele>321.0</ele><time>2026-04-25T09:50:42.999Z</time></trkpt><trkpt lat="43.41422511000256" lon="12.831998745357186"><ele>319.3333333333333</ele><time>2026-04-25T09:50:43.999Z</time></trkpt><trkpt lat="43.41424956672212" lon="12.832245780773695"><ele>317.66666666666663</ele><time>2026-04-25T09:50:44.999Z</time></trkpt><trkpt lat="43.41430874416588" lon="12.832499104804581"><ele>316.0</ele><time>2026-04-25T09:50:45.999Z</time></trkpt><trkpt lat="43.41435441760147" lon="12.832735688443606"><ele>314.75</ele><time>2026-04-25T09:50:46.999Z</time></trkpt><trkpt lat="43.414399380735794" lon="12.832951624528995"><ele>313.5</ele><time>2026-04-25T09:50:47.999Z</time></trkpt><trkpt lat="43.41443192920788" lon="12.833129162135753"><ele>312.25</ele><time>2026-04-25T09:50:48.999Z</time></trkpt><trkpt lat="43.41444870818526" lon="12.833283914722642"><ele>311.0</ele><time>2026-04-25T09:50:49.999Z</time></trkpt><trkpt lat="43.41442481377886" lon="12.833417326435855"><ele>311.0</ele><time>2026-04-25T09:50:50.999Z</time></trkpt><trkpt lat="43.41435236334992" lon="12.833493918849824"><ele>311.0</ele><time>2026-04-25T09:50:52Z</time></trkpt><trkpt lat="43.41424545969945" lon="12.833552509852568"><ele>311.0</ele><time>2026-04-25T09:50:53Z</time></trkpt><trkpt lat="43.414107458603056" lon="12.83361893744346"><ele>311.0</ele><time>2026-04-25T09:50:54Z</time></trkpt><trkpt lat="43.41398403421725" lon="12.833709929663875"><ele>311.0</ele><time>2026-04-25T09:50:55Z</time></trkpt><trkpt lat="43.41387391707608" lon="12.833861420463403"><ele>311.0</ele><time>2026-04-25T09:50:56Z</time></trkpt><trkpt lat="43.41380830419988" lon="12.834054005836485"><ele>311.0</ele><time>2026-04-25T09:50:57Z</time></trkpt><trkpt lat="43.413797403855696" lon="12.83423523965012"><ele>311.0</ele><time>2026-04-25T09:50:58Z</time></trkpt><trkpt lat="43.41384083881036" lon="12.83438259350323"><ele>313.25</ele><time>2026-04-25T09:50:59Z</time></trkpt><trkpt lat="43.413937845144304" lon="12.834487322319951"><ele>315.5</ele><time>2026-04-25T09:51:00Z</time></trkpt><trkpt lat="43.41407732098869" lon="12.834541143960381"><ele>317.75</ele><time>2026-04-25T09:51:01Z</time></trkpt><trkpt lat="43.41422160007125" lon="12.834563905805945"><ele>320.0</ele><time>2026-04-25T09:51:02Z</time></trkpt><trkpt lat="43.41433550061067" lon="12.834599292620544"><ele>320.0</ele><time>2026-04-25T09:51:03Z</time></trkpt><trkpt lat="43.41450399338829" lon="12.834680392448385"><ele>320.0</ele><time>2026-04-25T09:51:04Z</time></trkpt><trkpt lat="43.414640944918396" lon="12.834798459552545"><ele>320.0</ele><time>2026-04-25T09:51:05Z</time></trkpt><trkpt lat="43.414763007092766" lon="12.83494769697623"><ele>316.5</ele><time>2026-04-25T09:51:06Z</time></trkpt><trkpt lat="43.41485891859669" lon="12.835101624231761"><ele>313.0</ele><time>2026-04-25T09:51:07Z</time></trkpt><trkpt lat="43.414912993357284" lon="12.835271417398456"><ele>309.5</ele><time>2026-04-25T09:51:08Z</time></trkpt><trkpt lat="43.41488236977683" lon="12.835407639347235"><ele>306.0</ele><time>2026-04-25T09:51:09Z</time></trkpt><trkpt lat="43.41483059369051" lon="12.835576651637071"><ele>306.0</ele><time>2026-04-25T09:51:10Z</time></trkpt><trkpt lat="43.414776419926305" lon="12.83579212465565"><ele>306.0</ele><time>2026-04-25T09:51:11Z</time></trkpt><trkpt lat="43.414703503810024" lon="12.835979418729268"><ele>306.0</ele><time>2026-04-25T09:51:12Z</time></trkpt><trkpt lat="43.414618014300714" lon="12.83619366741831"><ele>311.3333333333333</ele><time>2026-04-25T09:51:13Z</time></trkpt><trkpt lat="43.41451328627777" lon="12.836384870240874"><ele>316.66666666666663</ele><time>2026-04-25T09:51:14Z</time></trkpt><trkpt lat="43.41439503829169" lon="12.836562114924535"><ele>322.0</ele><time>2026-04-25T09:51:15Z</time></trkpt><trkpt lat="43.41430461262586" lon="12.836744741337512"><ele>320.3333333333333</ele><time>2026-04-25T09:51:16Z</time></trkpt><trkpt lat="43.41421760909487" lon="12.836918223851978"><ele>318.6666666666667</ele><time>2026-04-25T09:51:17Z</time></trkpt><trkpt lat="43.41415827253363" lon="12.837097657522714"><ele>317.0</ele><time>2026-04-25T09:51:18Z</time></trkpt><trkpt lat="43.41412558996364" lon="12.837318830320541"><ele>317.0</ele><time>2026-04-25T09:51:19Z</time></trkpt><trkpt lat="43.41412200998119" lon="12.837499456626634"><ele>317.0</ele><time>2026-04-25T09:51:20Z</time></trkpt><trkpt lat="43.414162103746115" lon="12.837678665197279"><ele>317.0</ele><time>2026-04-25T09:51:21Z</time></trkpt><trkpt lat="43.41424852297141" lon="12.837781021424531"><ele>317.0</ele><time>2026-04-25T09:51:22Z</time></trkpt><trkpt lat="43.41435324534702" lon="12.837864375790671"><ele>317.25</ele><time>2026-04-25T09:51:23Z</time></trkpt><trkpt lat="43.414453467892216" lon="12.8378742226228"><ele>317.5</ele><time>2026-04-25T09:51:24Z</time></trkpt><trkpt lat="43.414562183954054" lon="12.837791622146094"><ele>317.75</ele><time>2026-04-25T09:51:25Z</time></trkpt><trkpt lat="43.41467184916282" lon="12.837648987151015"><ele>318.0</ele><time>2026-04-25T09:51:26Z</time></trkpt><trkpt lat="43.41477407621353" lon="12.83754817237161"><ele>318.25</ele><time>2026-04-25T09:51:27Z</time></trkpt><trkpt lat="43.41489880786579" lon="12.837476529281028"><ele>318.5</ele><time>2026-04-25T09:51:28Z</time></trkpt><trkpt lat="43.41500366721434" lon="12.837464459821442"><ele>318.75</ele><time>2026-04-25T09:51:29Z</time></trkpt><trkpt lat="43.4151188334601" lon="12.837623431787048"><ele>319.0</ele><time>2026-04-25T09:51:30Z</time></trkpt><trkpt lat="43.41521216040956" lon="12.837725928402024"><ele>320.0</ele><time>2026-04-25T09:51:31Z</time></trkpt><trkpt lat="43.41533476540122" lon="12.837848571203658"><ele>321.0</ele><time>2026-04-25T09:51:32Z</time></trkpt><trkpt lat="43.41546165996094" lon="12.838005988568359"><ele>322.0</ele><time>2026-04-25T09:51:33Z</time></trkpt><trkpt lat="43.4155968490126" lon="12.838168697206514"><ele>322.0</ele><time>2026-04-25T09:51:34Z</time></trkpt><trkpt lat="43.4157834665861" lon="12.838386873942456"><ele>322.0</ele><time>2026-04-25T09:51:35Z</time></trkpt><trkpt lat="43.41593460778971" lon="12.838584508439894"><ele>321.66666666666663</ele><time>2026-04-25T09:51:36Z</time></trkpt><trkpt lat="43.41607336524358" lon="12.83881244007692"><ele>321.3333333333333</ele><time>2026-04-25T09:51:37Z</time></trkpt><trkpt lat="43.416212858293264" lon="12.83906006709441"><ele>321.0</ele><time>2026-04-25T09:51:38Z</time></trkpt><trkpt lat="43.41636013959252" lon="12.839302873989674"><ele>321.0</ele><time>2026-04-25T09:51:39Z</time></trkpt><trkpt lat="43.41651439814348" lon="12.839550823655575"><ele>321.0</ele><time>2026-04-25T09:51:40Z</time></trkpt><trkpt lat="43.41666856643367" lon="12.839805196059446"><ele>321.0</ele><time>2026-04-25T09:51:41Z</time></trkpt><trkpt lat="43.41682279286814" lon="12.840061288508211"><ele>321.0</ele><time>2026-04-25T09:51:42Z</time></trkpt><trkpt lat="43.41698092151193" lon="12.840315102416296"><ele>321.0</ele><time>2026-04-25T09:51:43Z</time></trkpt><trkpt lat="43.41715153017587" lon="12.840562651506474"><ele>321.0</ele><time>2026-04-25T09:51:44Z</time></trkpt><trkpt lat="43.41732753879306" lon="12.840796924391999"><ele>320.5</ele><time>2026-04-25T09:51:45Z</time></trkpt><trkpt lat="43.41750695151089" lon="12.841026289238876"><ele>320.0</ele><time>2026-04-25T09:51:46Z</time></trkpt><trkpt lat="43.4176758291809" lon="12.84125117409227"><ele>320.0</ele><time>2026-04-25T09:51:47Z</time></trkpt><trkpt lat="43.41782959118577" lon="12.841475863365426"><ele>320.0</ele><time>2026-04-25T09:51:48Z</time></trkpt><trkpt lat="43.41796814679457" lon="12.841718929941887"><ele>320.0</ele><time>2026-04-25T09:51:49Z</time></trkpt><trkpt lat="43.41808398800394" lon="12.841994540762034"><ele>317.0</ele><time>2026-04-25T09:51:50Z</time></trkpt><trkpt lat="43.41818154427921" lon="12.842301900939985"><ele>314.0</ele><time>2026-04-25T09:51:50.999Z</time></trkpt><trkpt lat="43.418279624079965" lon="12.842615788304137"><ele>313.5</ele><time>2026-04-25T09:51:51.999Z</time></trkpt><trkpt lat="43.418382806911886" lon="12.842930037004884"><ele>313.0</ele><time>2026-04-25T09:51:52.999Z</time></trkpt><trkpt lat="43.418485841610526" lon="12.843244040625185"><ele>313.5</ele><time>2026-04-25T09:51:53.999Z</time></trkpt><trkpt lat="43.41858873430155" lon="12.843555770466677"><ele>314.0</ele><time>2026-04-25T09:51:54.999Z</time></trkpt><trkpt lat="43.41868986860488" lon="12.843864402348071"><ele>314.0</ele><time>2026-04-25T09:51:55.999Z</time></trkpt><trkpt lat="43.418792905663636" lon="12.84416538802228"><ele>314.0</ele><time>2026-04-25T09:51:56.999Z</time></trkpt><trkpt lat="43.41889517092536" lon="12.844460422452604"><ele>312.0</ele><time>2026-04-25T09:51:57.999Z</time></trkpt><trkpt lat="43.418989342944315" lon="12.844759838123986"><ele>310.0</ele><time>2026-04-25T09:51:58.999Z</time></trkpt><trkpt lat="43.41906221708217" lon="12.845074282735887"><ele>311.0</ele><time>2026-04-25T09:51:59.999Z</time></trkpt><trkpt lat="43.41909820325615" lon="12.845406270049937"><ele>312.0</ele><time>2026-04-25T09:52:00.999Z</time></trkpt><trkpt lat="43.4191133448762" lon="12.845743876345391"><ele>313.5</ele><time>2026-04-25T09:52:01.999Z</time></trkpt><trkpt lat="43.419132739001775" lon="12.846077677974984"><ele>315.0</ele><time>2026-04-25T09:52:02.999Z</time></trkpt><trkpt lat="43.41915495538777" lon="12.846407117766402"><ele>315.0</ele><time>2026-04-25T09:52:03.999Z</time></trkpt><trkpt lat="43.41916217160768" lon="12.846735186258108"><ele>315.0</ele><time>2026-04-25T09:52:04.999Z</time></trkpt><trkpt lat="43.41914388430835" lon="12.847070948112199"><ele>313.0</ele><time>2026-04-25T09:52:05.999Z</time></trkpt><trkpt lat="43.41911125303202" lon="12.847406069506727"><ele>311.0</ele><time>2026-04-25T09:52:06.999Z</time></trkpt><trkpt lat="43.41907832775252" lon="12.847743848788637"><ele>309.0</ele><time>2026-04-25T09:52:07.999Z</time></trkpt><trkpt lat="43.41905242934568" lon="12.848078599426819"><ele>307.0</ele><time>2026-04-25T09:52:08.999Z</time></trkpt><trkpt lat="43.4190270902178" lon="12.848396829458878"><ele>307.3333333333333</ele><time>2026-04-25T09:52:09.999Z</time></trkpt><trkpt lat="43.419003311471606" lon="12.848694915383565"><ele>307.6666666666667</ele><time>2026-04-25T09:52:10.999Z</time></trkpt><trkpt lat="43.418980981489746" lon="12.848969332096186"><ele>308.0</ele><time>2026-04-25T09:52:11.999Z</time></trkpt><trkpt lat="43.4189740797337" lon="12.849231420223193"><ele>310.0</ele><time>2026-04-25T09:52:12.999Z</time></trkpt><trkpt lat="43.41899714111575" lon="12.849487373163452"><ele>312.0</ele><time>2026-04-25T09:52:13.999Z</time></trkpt><trkpt lat="43.41905482592871" lon="12.84974479459956"><ele>314.0</ele><time>2026-04-25T09:52:14.999Z</time></trkpt><trkpt lat="43.419136276927844" lon="12.850007132856398"><ele>314.33333333333337</ele><time>2026-04-25T09:52:15.999Z</time></trkpt><trkpt lat="43.41922566816309" lon="12.850273387096014"><ele>314.6666666666667</ele><time>2026-04-25T09:52:16.999Z</time></trkpt><trkpt lat="43.41932700378391" lon="12.850539960417871"><ele>315.0</ele><time>2026-04-25T09:52:17.999Z</time></trkpt><trkpt lat="43.41942130076329" lon="12.85078679895361"><ele>314.0</ele><time>2026-04-25T09:52:18.999Z</time></trkpt><trkpt lat="43.41950529072575" lon="12.851005495301605"><ele>313.0</ele><time>2026-04-25T09:52:19.999Z</time></trkpt><trkpt lat="43.41957666936727" lon="12.851194592762194"><ele>312.0</ele><time>2026-04-25T09:52:20.999Z</time></trkpt><trkpt lat="43.419632573531985" lon="12.851342781066123"><ele>311.6</ele><time>2026-04-25T09:52:21.999Z</time></trkpt><trkpt lat="43.419677438096976" lon="12.851464468183535"><ele>311.2</ele><time>2026-04-25T09:52:22.999Z</time></trkpt><trkpt lat="43.41972032980506" lon="12.85156436276765"><ele>310.8</ele><time>2026-04-25T09:52:23.999Z</time></trkpt><trkpt lat="43.419765598657726" lon="12.851657868201091"><ele>310.4</ele><time>2026-04-25T09:52:24.999Z</time></trkpt><trkpt lat="43.41982006937323" lon="12.851772110470826"><ele>310.0</ele><time>2026-04-25T09:52:25.999Z</time></trkpt><trkpt lat="43.41989055907512" lon="12.851901106874172"><ele>309.0</ele><time>2026-04-25T09:52:26.999Z</time></trkpt><trkpt lat="43.41997758582942" lon="12.852043103629063"><ele>308.0</ele><time>2026-04-25T09:52:27.999Z</time></trkpt><trkpt lat="43.420080203160694" lon="12.852194608980833"><ele>307.0</ele><time>2026-04-25T09:52:28.999Z</time></trkpt><trkpt lat="43.42020772395544" lon="12.852342802767279"><ele>307.0</ele><time>2026-04-25T09:52:29.999Z</time></trkpt><trkpt lat="43.42035946661119" lon="12.852479878350318"><ele>307.0</ele><time>2026-04-25T09:52:30.999Z</time></trkpt><trkpt lat="43.42052929733484" lon="12.852611489978411"><ele>307.0</ele><time>2026-04-25T09:52:31.999Z</time></trkpt><trkpt lat="43.420708757278064" lon="12.852751273728911"><ele>307.66666666666663</ele><time>2026-04-25T09:52:32.999Z</time></trkpt><trkpt lat="43.42089396310933" lon="12.852900160919198"><ele>308.3333333333333</ele><time>2026-04-25T09:52:33.999Z</time></trkpt><trkpt lat="43.42108539396882" lon="12.85305273976644"><ele>309.0</ele><time>2026-04-25T09:52:34.999Z</time></trkpt><trkpt lat="43.42127979603722" lon="12.853202578176592"><ele>308.5</ele><time>2026-04-25T09:52:35.999Z</time></trkpt><trkpt lat="43.42147456273641" lon="12.85335609831488"><ele>308.0</ele><time>2026-04-25T09:52:36.999Z</time></trkpt><trkpt lat="43.421669721050094" lon="12.853515247913764"><ele>309.5</ele><time>2026-04-25T09:52:37.999Z</time></trkpt><trkpt lat="43.42187363855161" lon="12.853675310131905"><ele>311.0</ele><time>2026-04-25T09:52:38.999Z</time></trkpt><trkpt lat="43.42208245897116" lon="12.853837834060657"><ele>309.5</ele><time>2026-04-25T09:52:39.999Z</time></trkpt><trkpt lat="43.42229312401095" lon="12.854006960681856"><ele>308.0</ele><time>2026-04-25T09:52:40.999Z</time></trkpt><trkpt lat="43.422507414993554" lon="12.85417753170838"><ele>308.5</ele><time>2026-04-25T09:52:41.999Z</time></trkpt><trkpt lat="43.42272305585073" lon="12.854344156915435"><ele>309.0</ele><time>2026-04-25T09:52:42.999Z</time></trkpt><trkpt lat="43.42293594293245" lon="12.854514360588214"><ele>308.0</ele><time>2026-04-25T09:52:43.999Z</time></trkpt><trkpt lat="43.42314898733444" lon="12.854684617687802"><ele>307.0</ele><time>2026-04-25T09:52:44.999Z</time></trkpt><trkpt lat="43.423360970977924" lon="12.854855470764601"><ele>307.0</ele><time>2026-04-25T09:52:45.999Z</time></trkpt><trkpt lat="43.423571139215944" lon="12.855023612970426"><ele>307.0</ele><time>2026-04-25T09:52:46.999Z</time></trkpt><trkpt lat="43.42377510034441" lon="12.855187352620318"><ele>304.3333333333333</ele><time>2026-04-25T09:52:47.999Z</time></trkpt><trkpt lat="43.423966138916875" lon="12.855343421041264"><ele>301.6666666666667</ele><time>2026-04-25T09:52:48.999Z</time></trkpt><trkpt lat="43.424148305088416" lon="12.855491236299919"><ele>299.0</ele><time>2026-04-25T09:52:49.999Z</time></trkpt><trkpt lat="43.424325007858606" lon="12.855624744692788"><ele>299.0</ele><time>2026-04-25T09:52:50.999Z</time></trkpt><trkpt lat="43.42449683879969" lon="12.85575269405283"><ele>299.0</ele><time>2026-04-25T09:52:51.999Z</time></trkpt><trkpt lat="43.42466536044128" lon="12.855871797266005"><ele>299.0</ele><time>2026-04-25T09:52:52.999Z</time></trkpt><trkpt lat="43.42483976810008" lon="12.85597063483001"><ele>299.33333333333337</ele><time>2026-04-25T09:52:53.999Z</time></trkpt><trkpt lat="43.42502614241129" lon="12.856041965176313"><ele>299.6666666666667</ele><time>2026-04-25T09:52:54.999Z</time></trkpt><trkpt lat="43.42521834522744" lon="12.856094989780738"><ele>300.0</ele><time>2026-04-25T09:52:55.999Z</time></trkpt><trkpt lat="43.42540992438714" lon="12.856142157169252"><ele>300.0</ele><time>2026-04-25T09:52:56.999Z</time></trkpt><trkpt lat="43.42559202819027" lon="12.856184765618893"><ele>300.0</ele><time>2026-04-25T09:52:58Z</time></trkpt><trkpt lat="43.425765414649355" lon="12.856228081353986"><ele>300.0</ele><time>2026-04-25T09:52:59Z</time></trkpt><trkpt lat="43.42593661000848" lon="12.856269396363182"><ele>300.0</ele><time>2026-04-25T09:53:00Z</time></trkpt><trkpt lat="43.426101521270546" lon="12.856311397529268"><ele>300.0</ele><time>2026-04-25T09:53:01Z</time></trkpt><trkpt lat="43.4262562913475" lon="12.856354775211022"><ele>300.0</ele><time>2026-04-25T09:53:02Z</time></trkpt><trkpt lat="43.426408822691" lon="12.856391360376618"><ele>299.25</ele><time>2026-04-25T09:53:03Z</time></trkpt><trkpt lat="43.42654873934486" lon="12.856425724682481"><ele>298.5</ele><time>2026-04-25T09:53:04Z</time></trkpt><trkpt lat="43.42668601240264" lon="12.856465896884462"><ele>297.75</ele><time>2026-04-25T09:53:05Z</time></trkpt><trkpt lat="43.42681851655522" lon="12.856498184031734"><ele>297.0</ele><time>2026-04-25T09:53:06Z</time></trkpt><trkpt lat="43.426945465414505" lon="12.85653016395121"><ele>297.0</ele><time>2026-04-25T09:53:07Z</time></trkpt><trkpt lat="43.4270732643907" lon="12.856556396227333"><ele>297.0</ele><time>2026-04-25T09:53:08Z</time></trkpt><trkpt lat="43.427185028823466" lon="12.856590965505951"><ele>297.0</ele><time>2026-04-25T09:53:09Z</time></trkpt><trkpt lat="43.42730010246911" lon="12.856624125892914"><ele>297.0</ele><time>2026-04-25T09:53:10Z</time></trkpt><trkpt lat="43.42740694641598" lon="12.856663103779043"><ele>296.0</ele><time>2026-04-25T09:53:11Z</time></trkpt><trkpt lat="43.42751066319012" lon="12.856690997854255"><ele>295.0</ele><time>2026-04-25T09:53:12Z</time></trkpt><trkpt lat="43.427612954623356" lon="12.856716516991836"><ele>294.0</ele><time>2026-04-25T09:53:13Z</time></trkpt><trkpt lat="43.42770704740095" lon="12.856744140161318"><ele>293.0</ele><time>2026-04-25T09:53:14Z</time></trkpt><trkpt lat="43.427799341365606" lon="12.856765617319583"><ele>292.0</ele><time>2026-04-25T09:53:15Z</time></trkpt><trkpt lat="43.42789236136177" lon="12.856793291756883"><ele>291.0</ele><time>2026-04-25T09:53:16Z</time></trkpt><trkpt lat="43.42797670648021" lon="12.856809698254617"><ele>290.0</ele><time>2026-04-25T09:53:17Z</time></trkpt><trkpt lat="43.42806566595488" lon="12.856819237309548"><ele>289.0</ele><time>2026-04-25T09:53:18Z</time></trkpt><trkpt lat="43.42813790285236" lon="12.85684411756388"><ele>288.0</ele><time>2026-04-25T09:53:19Z</time></trkpt><trkpt lat="43.42820256622311" lon="12.856860928246265"><ele>287.0</ele><time>2026-04-25T09:53:20Z</time></trkpt><trkpt lat="43.42833040092727" lon="12.856903440855938"><ele>286.0</ele><time>2026-04-25T09:53:22Z</time></trkpt><trkpt lat="43.4284356204971" lon="12.856921211932328"><ele>286.0</ele><time>2026-04-25T09:53:23Z</time></trkpt><trkpt lat="43.4285472825012" lon="12.856962602214544"><ele>286.0</ele><time>2026-04-25T09:53:24Z</time></trkpt><trkpt lat="43.42866487223716" lon="12.85700677525126"><ele>286.0</ele><time>2026-04-25T09:53:25Z</time></trkpt><trkpt lat="43.42877370715768" lon="12.857028640865758"><ele>286.0</ele><time>2026-04-25T09:53:26Z</time></trkpt><trkpt lat="43.428877149443174" lon="12.857053642550849"><ele>286.6</ele><time>2026-04-25T09:53:27Z</time></trkpt><trkpt lat="43.42897462919884" lon="12.857084303525253"><ele>287.20000000000005</ele><time>2026-04-25T09:53:28Z</time></trkpt><trkpt lat="43.42906720400514" lon="12.857105491712042"><ele>287.79999999999995</ele><time>2026-04-25T09:53:29Z</time></trkpt><trkpt lat="43.429157294572185" lon="12.857125857416728"><ele>288.4</ele><time>2026-04-25T09:53:30Z</time></trkpt><trkpt lat="43.429237738021804" lon="12.857153484781575"><ele>289.0</ele><time>2026-04-25T09:53:31Z</time></trkpt><trkpt lat="43.42931993678675" lon="12.857178635782066"><ele>289.0</ele><time>2026-04-25T09:53:32Z</time></trkpt><trkpt lat="43.42939919848887" lon="12.85719662603947"><ele>289.0</ele><time>2026-04-25T09:53:33Z</time></trkpt><trkpt lat="43.42947635614395" lon="12.857210723592495"><ele>289.0</ele><time>2026-04-25T09:53:34Z</time></trkpt><trkpt lat="43.42954435410684" lon="12.857236229622146"><ele>289.0</ele><time>2026-04-25T09:53:35Z</time></trkpt><trkpt lat="43.429616194694866" lon="12.85726485003786"><ele>289.0</ele><time>2026-04-25T09:53:36Z</time></trkpt><trkpt lat="43.42969084840535" lon="12.857279928585386"><ele>289.0</ele><time>2026-04-25T09:53:37Z</time></trkpt><trkpt lat="43.42977708881036" lon="12.85729810165611"><ele>288.16666666666663</ele><time>2026-04-25T09:53:38Z</time></trkpt><trkpt lat="43.42985027028343" lon="12.857336510510434"><ele>287.3333333333333</ele><time>2026-04-25T09:53:39Z</time></trkpt><trkpt lat="43.42991176935296" lon="12.857366765759311"><ele>286.5</ele><time>2026-04-25T09:53:40Z</time></trkpt><trkpt lat="43.42998128443849" lon="12.8574082690317"><ele>285.6666666666667</ele><time>2026-04-25T09:53:41Z</time></trkpt><trkpt lat="43.43003396637984" lon="12.857477325090407"><ele>284.83333333333337</ele><time>2026-04-25T09:53:42Z</time></trkpt><trkpt lat="43.43009650204549" lon="12.857522377755316"><ele>284.0</ele><time>2026-04-25T09:53:43Z</time></trkpt><trkpt lat="43.430190173556255" lon="12.85759773796402"><ele>283.83333333333337</ele><time>2026-04-25T09:53:45Z</time></trkpt><trkpt lat="43.430211613826486" lon="12.85769408310957"><ele>283.6666666666667</ele><time>2026-04-25T09:53:48Z</time></trkpt><trkpt lat="43.43020295537635" lon="12.85779816471698"><ele>283.5</ele><time>2026-04-25T09:53:50Z</time></trkpt><trkpt lat="43.43019174874317" lon="12.857928694702695"><ele>283.3333333333333</ele><time>2026-04-25T09:53:53Z</time></trkpt><trkpt lat="43.430178490964316" lon="12.858054261390487"><ele>283.16666666666663</ele><time>2026-04-25T09:53:55Z</time></trkpt><trkpt lat="43.430151084189475" lon="12.858198236575795"><ele>283.0</ele><time>2026-04-25T09:53:57Z</time></trkpt><trkpt lat="43.430159821060634" lon="12.858296814699521"><ele>283.0</ele><time>2026-04-25T09:53:59Z</time></trkpt><trkpt lat="43.43023481036994" lon="12.85831280189761"><ele>283.0</ele><time>2026-04-25T09:54:51.999Z</time></trkpt><trkpt lat="43.43017177135845" lon="12.858315982874107"><ele>283.0</ele><time>2026-04-25T10:04:20Z</time></trkpt><trkpt lat="43.4301834124189" lon="12.85820683877231"><ele>283.0</ele><time>2026-04-25T10:08:02.999Z</time></trkpt><trkpt lat="43.43018125309906" lon="12.858108645699888"><ele>283.0</ele><time>2026-04-25T10:08:03.999Z</time></trkpt><trkpt lat="43.430188837157125" lon="12.858002470999063"><ele>283.0</ele><time>2026-04-25T10:08:04.999Z</time></trkpt><trkpt lat="43.430200437419316" lon="12.857888983197412"><ele>283.0</ele><time>2026-04-25T10:08:05.999Z</time></trkpt><trkpt lat="43.430209074110444" lon="12.857780069270698"><ele>283.0</ele><time>2026-04-25T10:08:06.999Z</time></trkpt><trkpt lat="43.430220209993394" lon="12.857651323543665"><ele>283.0</ele><time>2026-04-25T10:08:08.999Z</time></trkpt><trkpt lat="43.43028360115742" lon="12.857586017533677"><ele>283.0</ele><time>2026-04-25T10:08:18.999Z</time></trkpt><trkpt lat="43.43039392158684" lon="12.857691698350195"><ele>283.0</ele><time>2026-04-25T10:08:20.999Z</time></trkpt><trkpt lat="43.43045459618809" lon="12.857753440674799"><ele>282.8</ele><time>2026-04-25T10:08:21.999Z</time></trkpt><trkpt lat="43.43051726738169" lon="12.857806316689409"><ele>282.6</ele><time>2026-04-25T10:08:22.999Z</time></trkpt><trkpt lat="43.43059150785182" lon="12.857859010109307"><ele>282.4</ele><time>2026-04-25T10:08:23.999Z</time></trkpt><trkpt lat="43.43067308948163" lon="12.857919622841498"><ele>282.2</ele><time>2026-04-25T10:08:24.999Z</time></trkpt><trkpt lat="43.43076198168327" lon="12.857993356892289"><ele>282.0</ele><time>2026-04-25T10:08:25.999Z</time></trkpt><trkpt lat="43.430851545544336" lon="12.858063755698216"><ele>282.0</ele><time>2026-04-25T10:08:26.999Z</time></trkpt><trkpt lat="43.43095430091608" lon="12.85813274670694"><ele>282.0</ele><time>2026-04-25T10:08:27.999Z</time></trkpt><trkpt lat="43.43105147997838" lon="12.85820808261346"><ele>282.0</ele><time>2026-04-25T10:08:28.999Z</time></trkpt><trkpt lat="43.43113888769279" lon="12.858283106303778"><ele>282.0</ele><time>2026-04-25T10:08:29.999Z</time></trkpt><trkpt lat="43.43122743377395" lon="12.858346200055395"><ele>282.0</ele><time>2026-04-25T10:08:30.999Z</time></trkpt><trkpt lat="43.43132472576576" lon="12.858414664746121"><ele>283.5</ele><time>2026-04-25T10:08:31.999Z</time></trkpt><trkpt lat="43.43142239392322" lon="12.858490460453984"><ele>285.0</ele><time>2026-04-25T10:08:32.999Z</time></trkpt><trkpt lat="43.43151202945072" lon="12.858561085969573"><ele>286.5</ele><time>2026-04-25T10:08:33.999Z</time></trkpt><trkpt lat="43.43158650606823" lon="12.858617539952734"><ele>288.0</ele><time>2026-04-25T10:08:34.999Z</time></trkpt><trkpt lat="43.43164995447284" lon="12.858666701626545"><ele>289.5</ele><time>2026-04-25T10:08:35.999Z</time></trkpt><trkpt lat="43.43170630539631" lon="12.85871088512284"><ele>291.0</ele><time>2026-04-25T10:08:36.999Z</time></trkpt><trkpt lat="43.43179286055946" lon="12.858779885944722"><ele>291.0</ele><time>2026-04-25T10:08:38.999Z</time></trkpt><trkpt lat="43.43187241949028" lon="12.858834449080993"><ele>291.0</ele><time>2026-04-25T10:08:40.999Z</time></trkpt><trkpt lat="43.431935031624405" lon="12.858891557066954"><ele>291.0</ele><time>2026-04-25T10:08:42.999Z</time></trkpt><trkpt lat="43.432017901803846" lon="12.85891542225487"><ele>291.0</ele><time>2026-04-25T10:08:44.999Z</time></trkpt><trkpt lat="43.43207725607473" lon="12.858978445437627"><ele>291.0</ele><time>2026-04-25T10:08:46.999Z</time></trkpt><trkpt lat="43.43216082555238" lon="12.858894690625977"><ele>291.0</ele><time>2026-04-25T10:08:48.999Z</time></trkpt><trkpt lat="43.43227550732317" lon="12.859085412643966"><ele>291.40000000000003</ele><time>2026-04-25T10:11:51.998Z</time></trkpt><trkpt lat="43.4323595489942" lon="12.859183589857016"><ele>291.8</ele><time>2026-04-25T10:11:52.998Z</time></trkpt><trkpt lat="43.432462027227444" lon="12.859286732471295"><ele>292.20000000000005</ele><time>2026-04-25T10:11:53.998Z</time></trkpt><trkpt lat="43.43255530903947" lon="12.859368082254736"><ele>292.6</ele><time>2026-04-25T10:11:54.998Z</time></trkpt><trkpt lat="43.43263243577074" lon="12.859439349976107"><ele>293.0</ele><time>2026-04-25T10:11:55.998Z</time></trkpt><trkpt lat="43.43270181415644" lon="12.859512194052424"><ele>293.1666666666667</ele><time>2026-04-25T10:11:56.998Z</time></trkpt><trkpt lat="43.432766681821896" lon="12.859579795719494"><ele>293.33333333333337</ele><time>2026-04-25T10:11:57.998Z</time></trkpt><trkpt lat="43.43283620366537" lon="12.859647232512254"><ele>293.5</ele><time>2026-04-25T10:11:58.998Z</time></trkpt><trkpt lat="43.43291046161493" lon="12.859726489710225"><ele>293.6666666666667</ele><time>2026-04-25T10:11:59.998Z</time></trkpt><trkpt lat="43.43298542276857" lon="12.859814246275093"><ele>293.8333333333333</ele><time>2026-04-25T10:12:00.998Z</time></trkpt><trkpt lat="43.433047019508265" lon="12.859903299074404"><ele>294.0</ele><time>2026-04-25T10:12:01.998Z</time></trkpt><trkpt lat="43.43310484551713" lon="12.85999716533428"><ele>294.0</ele><time>2026-04-25T10:12:02.998Z</time></trkpt><trkpt lat="43.43316505831657" lon="12.860094650202296"><ele>294.0</ele><time>2026-04-25T10:12:03.998Z</time></trkpt><trkpt lat="43.43322290938878" lon="12.86019804239523"><ele>294.0</ele><time>2026-04-25T10:12:04.998Z</time></trkpt><trkpt lat="43.4332785203927" lon="12.860303714454695"><ele>294.0</ele><time>2026-04-25T10:12:05.998Z</time></trkpt><trkpt lat="43.43332795272849" lon="12.86041399149198"><ele>294.0</ele><time>2026-04-25T10:12:06.998Z</time></trkpt><trkpt lat="43.433373134802764" lon="12.860525883440676"><ele>293.0</ele><time>2026-04-25T10:12:07.998Z</time></trkpt><trkpt lat="43.43341560013742" lon="12.860640643125615"><ele>292.0</ele><time>2026-04-25T10:12:08.998Z</time></trkpt><trkpt lat="43.43345603187708" lon="12.860749875451122"><ele>291.0</ele><time>2026-04-25T10:12:09.998Z</time></trkpt><trkpt lat="43.43349339494867" lon="12.860863713110463"><ele>290.0</ele><time>2026-04-25T10:12:10.998Z</time></trkpt><trkpt lat="43.43352638712659" lon="12.860980739798682"><ele>289.0</ele><time>2026-04-25T10:12:11.998Z</time></trkpt><trkpt lat="43.43356490996341" lon="12.861096013850009"><ele>288.4</ele><time>2026-04-25T10:12:12.998Z</time></trkpt><trkpt lat="43.433603141724355" lon="12.861211979267583"><ele>287.79999999999995</ele><time>2026-04-25T10:12:13.998Z</time></trkpt><trkpt lat="43.433637437398374" lon="12.861338626389701"><ele>287.20000000000005</ele><time>2026-04-25T10:12:14.998Z</time></trkpt><trkpt lat="43.43365924430963" lon="12.861477744353202"><ele>286.6</ele><time>2026-04-25T10:12:15.998Z</time></trkpt><trkpt lat="43.43367260792813" lon="12.861625733079531"><ele>286.0</ele><time>2026-04-25T10:12:16.998Z</time></trkpt><trkpt lat="43.43368301986049" lon="12.861779825427876"><ele>285.75</ele><time>2026-04-25T10:12:17.998Z</time></trkpt><trkpt lat="43.43369263397429" lon="12.861942549755433"><ele>285.5</ele><time>2026-04-25T10:12:18.998Z</time></trkpt><trkpt lat="43.43370174786817" lon="12.862103599136383"><ele>285.25</ele><time>2026-04-25T10:12:19.999Z</time></trkpt><trkpt lat="43.43370679531178" lon="12.86225158482661"><ele>285.0</ele><time>2026-04-25T10:12:20.999Z</time></trkpt><trkpt lat="43.43371474146586" lon="12.862402088696616"><ele>285.0</ele><time>2026-04-25T10:12:21.999Z</time></trkpt><trkpt lat="43.433721086857695" lon="12.862565446161927"><ele>285.0</ele><time>2026-04-25T10:12:22.999Z</time></trkpt><trkpt lat="43.43371016246544" lon="12.862725652148606"><ele>285.0</ele><time>2026-04-25T10:12:23.999Z</time></trkpt><trkpt lat="43.43371440084205" lon="12.862857883259643"><ele>285.0</ele><time>2026-04-25T10:12:24.999Z</time></trkpt><trkpt lat="43.43371833055893" lon="12.862980485136438"><ele>285.0</ele><time>2026-04-25T10:12:25.999Z</time></trkpt><trkpt lat="43.433722693780695" lon="12.86311661137356"><ele>284.25</ele><time>2026-04-25T10:12:26.999Z</time></trkpt><trkpt lat="43.433728035208055" lon="12.86328325639299"><ele>283.5</ele><time>2026-04-25T10:12:27.999Z</time></trkpt><trkpt lat="43.433745474472154" lon="12.86348056291907"><ele>282.75</ele><time>2026-04-25T10:12:28.999Z</time></trkpt><trkpt lat="43.433754981437815" lon="12.863695868860477"><ele>282.0</ele><time>2026-04-25T10:12:29.999Z</time></trkpt><trkpt lat="43.43376231387402" lon="12.86393976563482"><ele>282.0</ele><time>2026-04-25T10:12:30.999Z</time></trkpt><trkpt lat="43.43377211263488" lon="12.864203250875642"><ele>282.0</ele><time>2026-04-25T10:12:31.999Z</time></trkpt><trkpt lat="43.43378250079338" lon="12.864475311577424"><ele>282.0</ele><time>2026-04-25T10:12:32.999Z</time></trkpt><trkpt lat="43.43379159072979" lon="12.864754532072284"><ele>283.3333333333333</ele><time>2026-04-25T10:12:33.999Z</time></trkpt><trkpt lat="43.43379754942378" lon="12.865029538994467"><ele>284.66666666666663</ele><time>2026-04-25T10:12:34.999Z</time></trkpt><trkpt lat="43.4338067231732" lon="12.865304749479463"><ele>286.0</ele><time>2026-04-25T10:12:35.999Z</time></trkpt><trkpt lat="43.43381623706521" lon="12.865575003111198"><ele>288.66666666666663</ele><time>2026-04-25T10:12:36.999Z</time></trkpt><trkpt lat="43.43382160967498" lon="12.865844366765902"><ele>291.3333333333333</ele><time>2026-04-25T10:12:37.999Z</time></trkpt><trkpt lat="43.433825661966736" lon="12.86611339292643"><ele>294.0</ele><time>2026-04-25T10:12:38.999Z</time></trkpt><trkpt lat="43.433832196453864" lon="12.866379429638824"><ele>294.0</ele><time>2026-04-25T10:12:39.999Z</time></trkpt><trkpt lat="43.43383941760164" lon="12.866646302243382"><ele>294.0</ele><time>2026-04-25T10:12:40.999Z</time></trkpt><trkpt lat="43.43384931989064" lon="12.866912788604372"><ele>294.0</ele><time>2026-04-25T10:12:41.999Z</time></trkpt><trkpt lat="43.43385810975661" lon="12.867178101653852"><ele>292.6666666666667</ele><time>2026-04-25T10:12:42.999Z</time></trkpt><trkpt lat="43.4338770651152" lon="12.867442162437802"><ele>291.33333333333337</ele><time>2026-04-25T10:12:43.999Z</time></trkpt><trkpt lat="43.43392203907927" lon="12.867700102311055"><ele>290.0</ele><time>2026-04-25T10:12:44.999Z</time></trkpt><trkpt lat="43.433993307218806" lon="12.867951697531163"><ele>288.33333333333337</ele><time>2026-04-25T10:12:45.999Z</time></trkpt><trkpt lat="43.43408669780833" lon="12.86819495290559"><ele>286.6666666666667</ele><time>2026-04-25T10:12:46.999Z</time></trkpt><trkpt lat="43.43419568837746" lon="12.868431301075566"><ele>285.0</ele><time>2026-04-25T10:12:47.999Z</time></trkpt><trkpt lat="43.43431490400814" lon="12.868664253841054"><ele>284.0</ele><time>2026-04-25T10:12:48.999Z</time></trkpt><trkpt lat="43.43444309099471" lon="12.868889931377456"><ele>283.0</ele><time>2026-04-25T10:12:49.999Z</time></trkpt><trkpt lat="43.434582193262784" lon="12.869106548996587"><ele>282.0</ele><time>2026-04-25T10:12:50.999Z</time></trkpt><trkpt lat="43.43473177830435" lon="12.869310775627918"><ele>282.0</ele><time>2026-04-25T10:12:51.999Z</time></trkpt><trkpt lat="43.43488457331447" lon="12.869507158221856"><ele>282.0</ele><time>2026-04-25T10:12:52.999Z</time></trkpt><trkpt lat="43.43502910054147" lon="12.869692090601534"><ele>282.0</ele><time>2026-04-25T10:12:53.999Z</time></trkpt><trkpt lat="43.43516840304586" lon="12.869865356218936"><ele>282.0</ele><time>2026-04-25T10:12:54.999Z</time></trkpt><trkpt lat="43.435304530644125" lon="12.87003213748978"><ele>282.0</ele><time>2026-04-25T10:12:55.999Z</time></trkpt><trkpt lat="43.4354317533435" lon="12.870193443704814"><ele>282.0</ele><time>2026-04-25T10:12:56.999Z</time></trkpt><trkpt lat="43.43554252637508" lon="12.870371029986575"><ele>282.6666666666667</ele><time>2026-04-25T10:12:57.999Z</time></trkpt><trkpt lat="43.43563228612653" lon="12.870587818603948"><ele>283.33333333333337</ele><time>2026-04-25T10:12:58.999Z</time></trkpt><trkpt lat="43.43570026774854" lon="12.870841588739113"><ele>284.0</ele><time>2026-04-25T10:12:59.999Z</time></trkpt><trkpt lat="43.435752465623374" lon="12.871109529415884"><ele>284.0</ele><time>2026-04-25T10:13:00.999Z</time></trkpt><trkpt lat="43.43579579639473" lon="12.871382269499518"><ele>284.0</ele><time>2026-04-25T10:13:01.999Z</time></trkpt><trkpt lat="43.43582621168521" lon="12.871658175943443"><ele>284.0</ele><time>2026-04-25T10:13:02.999Z</time></trkpt><trkpt lat="43.43584042894758" lon="12.871937215917301"><ele>284.0</ele><time>2026-04-25T10:13:03.999Z</time></trkpt><trkpt lat="43.435853307304264" lon="12.872217024281714"><ele>284.0</ele><time>2026-04-25T10:13:04.999Z</time></trkpt><trkpt lat="43.43586554574817" lon="12.872498988762644"><ele>284.0</ele><time>2026-04-25T10:13:05.999Z</time></trkpt><trkpt lat="43.43587752811441" lon="12.872783113580995"><ele>283.33333333333337</ele><time>2026-04-25T10:13:06.999Z</time></trkpt><trkpt lat="43.43588926283941" lon="12.873066361011164"><ele>282.6666666666667</ele><time>2026-04-25T10:13:07.999Z</time></trkpt><trkpt lat="43.4359050791824" lon="12.873350841274249"><ele>282.0</ele><time>2026-04-25T10:13:08.999Z</time></trkpt><trkpt lat="43.435935261938646" lon="12.873638154376893"><ele>282.0</ele><time>2026-04-25T10:13:09.999Z</time></trkpt><trkpt lat="43.43598646550992" lon="12.873924281822406"><ele>282.0</ele><time>2026-04-25T10:13:10.999Z</time></trkpt><trkpt lat="43.436053594278356" lon="12.874211060536696"><ele>282.0</ele><time>2026-04-25T10:13:11.999Z</time></trkpt><trkpt lat="43.43612214345287" lon="12.874479939725616"><ele>280.6666666666667</ele><time>2026-04-25T10:13:12.998Z</time></trkpt><trkpt lat="43.43618043486316" lon="12.874740153525297"><ele>279.33333333333337</ele><time>2026-04-25T10:13:13.998Z</time></trkpt><trkpt lat="43.43621620949838" lon="12.875005762345996"><ele>278.0</ele><time>2026-04-25T10:13:14.998Z</time></trkpt><trkpt lat="43.4362306134517" lon="12.875293293535835"><ele>278.0</ele><time>2026-04-25T10:13:15.998Z</time></trkpt><trkpt lat="43.4362376457702" lon="12.875591355457004"><ele>278.0</ele><time>2026-04-25T10:13:16.998Z</time></trkpt><trkpt lat="43.43624649857137" lon="12.875894145778958"><ele>278.0</ele><time>2026-04-25T10:13:17.998Z</time></trkpt><trkpt lat="43.436257217824625" lon="12.87620109059215"><ele>276.0</ele><time>2026-04-25T10:13:18.998Z</time></trkpt><trkpt lat="43.43627062067473" lon="12.876506616710438"><ele>274.0</ele><time>2026-04-25T10:13:19.998Z</time></trkpt><trkpt lat="43.436279960283365" lon="12.876826497692248"><ele>273.66666666666663</ele><time>2026-04-25T10:13:20.998Z</time></trkpt><trkpt lat="43.436293340789454" lon="12.877141622310685"><ele>273.3333333333333</ele><time>2026-04-25T10:13:21.998Z</time></trkpt><trkpt lat="43.4363029148708" lon="12.877434811676684"><ele>273.0</ele><time>2026-04-25T10:13:22.998Z</time></trkpt><trkpt lat="43.43631164525437" lon="12.877711905847265"><ele>275.6666666666667</ele><time>2026-04-25T10:13:23.998Z</time></trkpt><trkpt lat="43.43631875446267" lon="12.877976245644598"><ele>278.33333333333337</ele><time>2026-04-25T10:13:24.998Z</time></trkpt><trkpt lat="43.43633016525289" lon="12.878231567383201"><ele>281.0</ele><time>2026-04-25T10:13:25.998Z</time></trkpt><trkpt lat="43.436358879071264" lon="12.878484575121474"><ele>281.0</ele><time>2026-04-25T10:13:26.998Z</time></trkpt><trkpt lat="43.43641021885886" lon="12.878744483664907"><ele>281.0</ele><time>2026-04-25T10:13:27.998Z</time></trkpt><trkpt lat="43.43648632116255" lon="12.87901264239013"><ele>281.0</ele><time>2026-04-25T10:13:28.998Z</time></trkpt><trkpt lat="43.43657560420421" lon="12.879287518499611"><ele>278.0</ele><time>2026-04-25T10:13:29.998Z</time></trkpt><trkpt lat="43.4366716062809" lon="12.87957423058067"><ele>275.0</ele><time>2026-04-25T10:13:30.998Z</time></trkpt><trkpt lat="43.43677502857253" lon="12.879870289561111"><ele>274.0</ele><time>2026-04-25T10:13:31.998Z</time></trkpt><trkpt lat="43.43688035292337" lon="12.880169596473776"><ele>273.0</ele><time>2026-04-25T10:13:32.998Z</time></trkpt><trkpt lat="43.43698963037644" lon="12.880480226558078"><ele>273.0</ele><time>2026-04-25T10:13:33.998Z</time></trkpt><trkpt lat="43.43709692681709" lon="12.880797446274602"><ele>273.0</ele><time>2026-04-25T10:13:34.998Z</time></trkpt><trkpt lat="43.43720496402653" lon="12.881121425006164"><ele>272.5</ele><time>2026-04-25T10:13:35.998Z</time></trkpt><trkpt lat="43.43731616460365" lon="12.88144626589059"><ele>272.0</ele><time>2026-04-25T10:13:36.998Z</time></trkpt><trkpt lat="43.43742850867353" lon="12.88177272613657"><ele>271.0</ele><time>2026-04-25T10:13:37.998Z</time></trkpt><trkpt lat="43.437539696447715" lon="12.882099488918696"><ele>270.0</ele><time>2026-04-25T10:13:38.998Z</time></trkpt><trkpt lat="43.437648586687494" lon="12.882427411773664"><ele>267.0</ele><time>2026-04-25T10:13:39.998Z</time></trkpt><trkpt lat="43.43775896588309" lon="12.882757375843799"><ele>264.0</ele><time>2026-04-25T10:13:40.998Z</time></trkpt><trkpt lat="43.43787055880369" lon="12.88308708028747"><ele>264.5</ele><time>2026-04-25T10:13:41.998Z</time></trkpt><trkpt lat="43.4379835780861" lon="12.883417902616047"><ele>265.0</ele><time>2026-04-25T10:13:42.998Z</time></trkpt><trkpt lat="43.43809689400431" lon="12.883749146794276"><ele>265.0</ele><time>2026-04-25T10:13:43.998Z</time></trkpt><trkpt lat="43.43821012361833" lon="12.88408099954613"><ele>265.0</ele><time>2026-04-25T10:13:44.998Z</time></trkpt><trkpt lat="43.43832400858591" lon="12.884415616430893"><ele>264.0</ele><time>2026-04-25T10:13:45.998Z</time></trkpt><trkpt lat="43.43843663340333" lon="12.884749004040886"><ele>263.0</ele><time>2026-04-25T10:13:46.998Z</time></trkpt><trkpt lat="43.43854960777317" lon="12.885081076913297"><ele>262.5</ele><time>2026-04-25T10:13:47.998Z</time></trkpt><trkpt lat="43.4386602257537" lon="12.885406793105727"><ele>262.0</ele><time>2026-04-25T10:13:48.998Z</time></trkpt><trkpt lat="43.43876447217748" lon="12.885713505246752"><ele>264.0</ele><time>2026-04-25T10:13:49.998Z</time></trkpt><trkpt lat="43.43886420941959" lon="12.886005623651467"><ele>266.0</ele><time>2026-04-25T10:13:50.998Z</time></trkpt><trkpt lat="43.438958665347215" lon="12.886285588555172"><ele>266.0</ele><time>2026-04-25T10:13:51.998Z</time></trkpt><trkpt lat="43.43904660555699" lon="12.886551635464393"><ele>266.0</ele><time>2026-04-25T10:13:52.998Z</time></trkpt><trkpt lat="43.43913051767515" lon="12.8867988212124"><ele>266.0</ele><time>2026-04-25T10:13:53.998Z</time></trkpt><trkpt lat="43.43920123775068" lon="12.887004455217511"><ele>265.6666666666667</ele><time>2026-04-25T10:13:54.998Z</time></trkpt><trkpt lat="43.439268948307735" lon="12.887202922372751"><ele>265.3333333333333</ele><time>2026-04-25T10:13:55.998Z</time></trkpt><trkpt lat="43.43933949073961" lon="12.887411316319511"><ele>265.0</ele><time>2026-04-25T10:13:56.998Z</time></trkpt><trkpt lat="43.43941562991697" lon="12.887630177445823"><ele>265.0</ele><time>2026-04-25T10:13:57.998Z</time></trkpt><trkpt lat="43.43949803040339" lon="12.887871629923534"><ele>265.0</ele><time>2026-04-25T10:13:58.998Z</time></trkpt><trkpt lat="43.439583681680155" lon="12.888124807118503"><ele>265.0</ele><time>2026-04-25T10:13:59.998Z</time></trkpt><trkpt lat="43.43968146623241" lon="12.888390084663548"><ele>266.3333333333333</ele><time>2026-04-25T10:14:00.998Z</time></trkpt><trkpt lat="43.43978570566773" lon="12.888661622267566"><ele>267.6666666666667</ele><time>2026-04-25T10:14:01.998Z</time></trkpt><trkpt lat="43.439879738292554" lon="12.888942256306619"><ele>269.0</ele><time>2026-04-25T10:14:02.998Z</time></trkpt><trkpt lat="43.43997158836126" lon="12.889238526557248"><ele>271.0</ele><time>2026-04-25T10:14:03.998Z</time></trkpt><trkpt lat="43.44006503564178" lon="12.889542025077516"><ele>273.0</ele><time>2026-04-25T10:14:04.998Z</time></trkpt><trkpt lat="43.44016215073734" lon="12.889839336550855"><ele>273.0</ele><time>2026-04-25T10:14:05.998Z</time></trkpt><trkpt lat="43.44026048967442" lon="12.890139723210192"><ele>273.0</ele><time>2026-04-25T10:14:06.998Z</time></trkpt><trkpt lat="43.44035952172576" lon="12.890431455385947"><ele>273.0</ele><time>2026-04-25T10:14:07.998Z</time></trkpt><trkpt lat="43.44045772303847" lon="12.890719588669995"><ele>273.0</ele><time>2026-04-25T10:14:08.998Z</time></trkpt><trkpt lat="43.44055736468004" lon="12.891006152791032"><ele>274.0</ele><time>2026-04-25T10:14:09.998Z</time></trkpt><trkpt lat="43.440655574018116" lon="12.89129423190304"><ele>275.0</ele><time>2026-04-25T10:14:10.998Z</time></trkpt><trkpt lat="43.440753144656135" lon="12.891583096585576"><ele>275.6666666666667</ele><time>2026-04-25T10:14:11.998Z</time></trkpt><trkpt lat="43.440843356952385" lon="12.891861284348924"><ele>276.3333333333333</ele><time>2026-04-25T10:14:12.998Z</time></trkpt><trkpt lat="43.440930483179415" lon="12.892120497261915"><ele>277.0</ele><time>2026-04-25T10:14:13.998Z</time></trkpt><trkpt lat="43.44100976805718" lon="12.892360463753871"><ele>277.0</ele><time>2026-04-25T10:14:14.998Z</time></trkpt><trkpt lat="43.44108148765282" lon="12.89257761347053"><ele>277.0</ele><time>2026-04-25T10:14:15.998Z</time></trkpt><trkpt lat="43.441147349619335" lon="12.892770517271025"><ele>277.0</ele><time>2026-04-25T10:14:16.998Z</time></trkpt><trkpt lat="43.44120377379844" lon="12.892935298324527"><ele>277.2</ele><time>2026-04-25T10:14:17.999Z</time></trkpt><trkpt lat="43.441259411846104" lon="12.89308767853106"><ele>277.4</ele><time>2026-04-25T10:14:18.999Z</time></trkpt><trkpt lat="43.44132157628843" lon="12.893208622848581"><ele>277.6</ele><time>2026-04-25T10:14:19.999Z</time></trkpt><trkpt lat="43.441380644241825" lon="12.893311078922155"><ele>277.8</ele><time>2026-04-25T10:14:20.999Z</time></trkpt><trkpt lat="43.44142960747984" lon="12.89338552269168"><ele>278.0</ele><time>2026-04-25T10:14:21.999Z</time></trkpt><trkpt lat="43.44147404265881" lon="12.893472159377248"><ele>276.6</ele><time>2026-04-25T10:14:23.999Z</time></trkpt><trkpt lat="43.441539207440556" lon="12.893539857909703"><ele>275.20000000000005</ele><time>2026-04-25T10:14:39.999Z</time></trkpt><trkpt lat="43.441641919648724" lon="12.893655885814901"><ele>273.8</ele><time>2026-04-25T10:14:41.999Z</time></trkpt><trkpt lat="43.441713027239466" lon="12.893720567556304"><ele>272.40000000000003</ele><time>2026-04-25T10:14:42.999Z</time></trkpt><trkpt lat="43.44180476186334" lon="12.893764870190981"><ele>271.0</ele><time>2026-04-25T10:14:43.999Z</time></trkpt><trkpt lat="43.4418853607437" lon="12.89380310072398"><ele>271.0</ele><time>2026-04-25T10:14:44.999Z</time></trkpt><trkpt lat="43.44196516143899" lon="12.893833236844664"><ele>271.0</ele><time>2026-04-25T10:14:45.999Z</time></trkpt><trkpt lat="43.442044017172236" lon="12.893859766559043"><ele>271.0</ele><time>2026-04-25T10:14:46.999Z</time></trkpt><trkpt lat="43.44212592364264" lon="12.893882389520522"><ele>271.0</ele><time>2026-04-25T10:14:47.999Z</time></trkpt><trkpt lat="43.442215213172325" lon="12.893906994156763"><ele>271.0</ele><time>2026-04-25T10:14:48.999Z</time></trkpt><trkpt lat="43.442311897104986" lon="12.893936119322541"><ele>271.0</ele><time>2026-04-25T10:14:49.999Z</time></trkpt><trkpt lat="43.44242107690817" lon="12.893969008735896"><ele>270.5</ele><time>2026-04-25T10:14:50.999Z</time></trkpt><trkpt lat="43.442539697667826" lon="12.894004742147184"><ele>270.0</ele><time>2026-04-25T10:14:51.999Z</time></trkpt><trkpt lat="43.44266701119031" lon="12.894043093020457"><ele>269.5</ele><time>2026-04-25T10:14:52.999Z</time></trkpt><trkpt lat="43.4428006633146" lon="12.894083070863042"><ele>269.0</ele><time>2026-04-25T10:14:53.999Z</time></trkpt><trkpt lat="43.44292658852756" lon="12.89412030795811"><ele>269.0</ele><time>2026-04-25T10:14:54.999Z</time></trkpt><trkpt lat="43.44304260272061" lon="12.894154878796712"><ele>269.0</ele><time>2026-04-25T10:14:55.999Z</time></trkpt><trkpt lat="43.443143403887504" lon="12.89416567202939"><ele>269.0</ele><time>2026-04-25T10:14:56.999Z</time></trkpt><trkpt lat="43.443232686209264" lon="12.894209393296922"><ele>269.0</ele><time>2026-04-25T10:14:57.999Z</time></trkpt><trkpt lat="43.44330355493326" lon="12.894251875907571"><ele>269.0</ele><time>2026-04-25T10:14:58.999Z</time></trkpt><trkpt lat="43.44334884504972" lon="12.89432093717453"><ele>269.0</ele><time>2026-04-25T10:14:59.999Z</time></trkpt><trkpt lat="43.44337978524995" lon="12.894438103936938"><ele>269.0</ele><time>2026-04-25T10:15:00.999Z</time></trkpt><trkpt lat="43.44338891552695" lon="12.894592808257606"><ele>269.0</ele><time>2026-04-25T10:15:01.999Z</time></trkpt><trkpt lat="43.443376993504735" lon="12.894774663507336"><ele>269.0</ele><time>2026-04-25T10:15:02.999Z</time></trkpt><trkpt lat="43.443359275022175" lon="12.894972667008945"><ele>270.0</ele><time>2026-04-25T10:15:03.999Z</time></trkpt><trkpt lat="43.44333730430835" lon="12.895189865672913"><ele>271.0</ele><time>2026-04-25T10:15:04.999Z</time></trkpt><trkpt lat="43.44331388168939" lon="12.895416169657494"><ele>272.0</ele><time>2026-04-25T10:15:05.999Z</time></trkpt><trkpt lat="43.44329117831411" lon="12.895649883058022"><ele>272.0</ele><time>2026-04-25T10:15:06.999Z</time></trkpt><trkpt lat="43.44325521668372" lon="12.895885648891685"><ele>272.0</ele><time>2026-04-25T10:15:07.999Z</time></trkpt><trkpt lat="43.44318882613708" lon="12.896122550217937"><ele>272.0</ele><time>2026-04-25T10:15:08.999Z</time></trkpt><trkpt lat="43.44308921925074" lon="12.89634528023627"><ele>271.33333333333337</ele><time>2026-04-25T10:15:09.999Z</time></trkpt><trkpt lat="43.442964509455805" lon="12.896552931811007"><ele>270.6666666666667</ele><time>2026-04-25T10:15:10.999Z</time></trkpt><trkpt lat="43.442799725711694" lon="12.89673139425439"><ele>270.0</ele><time>2026-04-25T10:15:11.999Z</time></trkpt><trkpt lat="43.44262158808582" lon="12.896903345153875"><ele>270.0</ele><time>2026-04-25T10:15:12.999Z</time></trkpt><trkpt lat="43.44244907382076" lon="12.897085603367666"><ele>270.0</ele><time>2026-04-25T10:15:13.999Z</time></trkpt><trkpt lat="43.44227188967197" lon="12.89726520387304"><ele>270.0</ele><time>2026-04-25T10:15:14.999Z</time></trkpt><trkpt lat="43.44211497214786" lon="12.897469679395966"><ele>268.3333333333333</ele><time>2026-04-25T10:15:15.999Z</time></trkpt><trkpt lat="43.441957264105504" lon="12.897641805340339"><ele>266.66666666666663</ele><time>2026-04-25T10:15:16.999Z</time></trkpt><trkpt lat="43.44180734277234" lon="12.8978132745883"><ele>265.0</ele><time>2026-04-25T10:15:17.999Z</time></trkpt><trkpt lat="43.441668944688786" lon="12.897982871035783"><ele>265.0</ele><time>2026-04-25T10:15:18.999Z</time></trkpt><trkpt lat="43.44153734712934" lon="12.898146199722168"><ele>265.0</ele><time>2026-04-25T10:15:19.999Z</time></trkpt><trkpt lat="43.44141596717977" lon="12.898307643625664"><ele>265.0</ele><time>2026-04-25T10:15:20.999Z</time></trkpt><trkpt lat="43.4413018197877" lon="12.898459725027541"><ele>264.0</ele><time>2026-04-25T10:15:21.999Z</time></trkpt><trkpt lat="43.44119283211276" lon="12.898610244698386"><ele>263.0</ele><time>2026-04-25T10:15:22.999Z</time></trkpt><trkpt lat="43.44108539068491" lon="12.89875077844911"><ele>262.0</ele><time>2026-04-25T10:15:23.999Z</time></trkpt><trkpt lat="43.440986195593965" lon="12.898890809309181"><ele>261.0</ele><time>2026-04-25T10:15:24.999Z</time></trkpt><trkpt lat="43.44089658832347" lon="12.89902533764348"><ele>261.0</ele><time>2026-04-25T10:15:25.999Z</time></trkpt><trkpt lat="43.44081148031608" lon="12.899156256255308"><ele>261.0</ele><time>2026-04-25T10:15:26.999Z</time></trkpt><trkpt lat="43.440727742451365" lon="12.899285717240453"><ele>261.0</ele><time>2026-04-25T10:15:27.999Z</time></trkpt><trkpt lat="43.44065024648188" lon="12.899426622877463"><ele>261.0</ele><time>2026-04-25T10:15:28.999Z</time></trkpt><trkpt lat="43.440579264635105" lon="12.899572958656421"><ele>261.5</ele><time>2026-04-25T10:15:29.999Z</time></trkpt><trkpt lat="43.44050624789751" lon="12.89971950842521"><ele>262.0</ele><time>2026-04-25T10:15:30.999Z</time></trkpt><trkpt lat="43.44043162831879" lon="12.89986904019524"><ele>262.5</ele><time>2026-04-25T10:15:31.999Z</time></trkpt><trkpt lat="43.440358877634495" lon="12.900026247177161"><ele>263.0</ele><time>2026-04-25T10:15:32.999Z</time></trkpt><trkpt lat="43.440286405248294" lon="12.900194166083448"><ele>261.33333333333337</ele><time>2026-04-25T10:15:33.999Z</time></trkpt><trkpt lat="43.440208781644294" lon="12.900370967883632"><ele>259.6666666666667</ele><time>2026-04-25T10:15:34.999Z</time></trkpt><trkpt lat="43.44012567690288" lon="12.900552171162063"><ele>258.0</ele><time>2026-04-25T10:15:35.999Z</time></trkpt><trkpt lat="43.440036595602145" lon="12.900738323407248"><ele>258.6666666666667</ele><time>2026-04-25T10:15:36.999Z</time></trkpt><trkpt lat="43.43995076831617" lon="12.900933749445123"><ele>259.33333333333337</ele><time>2026-04-25T10:15:37.999Z</time></trkpt><trkpt lat="43.43985734778732" lon="12.901130535298806"><ele>260.0</ele><time>2026-04-25T10:15:38.999Z</time></trkpt><trkpt lat="43.439754688677056" lon="12.901331290862215"><ele>260.0</ele><time>2026-04-25T10:15:39.999Z</time></trkpt><trkpt lat="43.439638320302" lon="12.901526186274456"><ele>260.0</ele><time>2026-04-25T10:15:40.999Z</time></trkpt><trkpt lat="43.43950064365093" lon="12.901712480329708"><ele>260.0</ele><time>2026-04-25T10:15:41.999Z</time></trkpt><trkpt lat="43.43934590581287" lon="12.901887645622532"><ele>260.33333333333337</ele><time>2026-04-25T10:15:42.999Z</time></trkpt><trkpt lat="43.43918347193956" lon="12.902067672011004"><ele>260.6666666666667</ele><time>2026-04-25T10:15:43.999Z</time></trkpt><trkpt lat="43.43902134664969" lon="12.902253700722927"><ele>261.0</ele><time>2026-04-25T10:15:44.999Z</time></trkpt><trkpt lat="43.438854496590636" lon="12.902443884906491"><ele>262.0</ele><time>2026-04-25T10:15:45.999Z</time></trkpt><trkpt lat="43.43868666458383" lon="12.902637589909352"><ele>263.0</ele><time>2026-04-25T10:15:46.999Z</time></trkpt><trkpt lat="43.43851596060233" lon="12.902835222371332"><ele>264.0</ele><time>2026-04-25T10:15:47.999Z</time></trkpt><trkpt lat="43.438342791685024" lon="12.903038516793666"><ele>264.0</ele><time>2026-04-25T10:15:48.999Z</time></trkpt><trkpt lat="43.43816892578523" lon="12.903244977212356"><ele>264.0</ele><time>2026-04-25T10:15:49.999Z</time></trkpt><trkpt lat="43.437991886143884" lon="12.903450886537632"><ele>263.5</ele><time>2026-04-25T10:15:50.999Z</time></trkpt><trkpt lat="43.43781227117386" lon="12.90365521423488"><ele>263.0</ele><time>2026-04-25T10:15:51.999Z</time></trkpt><trkpt lat="43.437632096427286" lon="12.903864444807837"><ele>263.0</ele><time>2026-04-25T10:15:52.999Z</time></trkpt><trkpt lat="43.43745245191252" lon="12.904078103039367"><ele>263.0</ele><time>2026-04-25T10:15:53.999Z</time></trkpt><trkpt lat="43.43727319516068" lon="12.904290952550497"><ele>263.0</ele><time>2026-04-25T10:15:54.999Z</time></trkpt><trkpt lat="43.43709418538353" lon="12.90450361901157"><ele>263.0</ele><time>2026-04-25T10:15:55.999Z</time></trkpt><trkpt lat="43.43691592867147" lon="12.904714336961502"><ele>263.0</ele><time>2026-04-25T10:15:56.999Z</time></trkpt><trkpt lat="43.43674865131164" lon="12.904910199813612"><ele>263.0</ele><time>2026-04-25T10:15:57.999Z</time></trkpt><trkpt lat="43.43658867542227" lon="12.905094492366587"><ele>263.0</ele><time>2026-04-25T10:15:58.999Z</time></trkpt><trkpt lat="43.43643099997153" lon="12.905274864937617"><ele>262.6666666666667</ele><time>2026-04-25T10:15:59.999Z</time></trkpt><trkpt lat="43.43626900441106" lon="12.905467231218706"><ele>262.3333333333333</ele><time>2026-04-25T10:16:00.999Z</time></trkpt><trkpt lat="43.43610147467657" lon="12.905664347131141"><ele>262.0</ele><time>2026-04-25T10:16:01.999Z</time></trkpt><trkpt lat="43.435925347784675" lon="12.905858945134097"><ele>263.5</ele><time>2026-04-25T10:16:02.999Z</time></trkpt><trkpt lat="43.43574714043076" lon="12.906049326503735"><ele>265.0</ele><time>2026-04-25T10:16:03.999Z</time></trkpt><trkpt lat="43.43556299922825" lon="12.906241906957607"><ele>264.66666666666663</ele><time>2026-04-25T10:16:04.999Z</time></trkpt><trkpt lat="43.43537945232475" lon="12.906427262845487"><ele>264.3333333333333</ele><time>2026-04-25T10:16:05.999Z</time></trkpt><trkpt lat="43.43520523200733" lon="12.906591492796547"><ele>264.0</ele><time>2026-04-25T10:16:06.999Z</time></trkpt><trkpt lat="43.43503521283593" lon="12.906748111499743"><ele>264.0</ele><time>2026-04-25T10:16:07.999Z</time></trkpt><trkpt lat="43.434871312955416" lon="12.906901235901838"><ele>264.0</ele><time>2026-04-25T10:16:08.999Z</time></trkpt><trkpt lat="43.43470577261379" lon="12.907060530881576"><ele>264.0</ele><time>2026-04-25T10:16:09.999Z</time></trkpt><trkpt lat="43.43453447513577" lon="12.90722765525971"><ele>264.0</ele><time>2026-04-25T10:16:10.999Z</time></trkpt><trkpt lat="43.43435189273897" lon="12.90739803422051"><ele>264.0</ele><time>2026-04-25T10:16:11.999Z</time></trkpt><trkpt lat="43.434166864210916" lon="12.907566885752267"><ele>264.0</ele><time>2026-04-25T10:16:12.999Z</time></trkpt><trkpt lat="43.43398078402303" lon="12.907738722496799"><ele>263.0</ele><time>2026-04-25T10:16:13.999Z</time></trkpt><trkpt lat="43.4338021551946" lon="12.907902516617106"><ele>262.0</ele><time>2026-04-25T10:16:14.999Z</time></trkpt><trkpt lat="43.43362995823932" lon="12.908055698772046"><ele>261.0</ele><time>2026-04-25T10:16:15.999Z</time></trkpt><trkpt lat="43.43346515848805" lon="12.908197450534896"><ele>261.0</ele><time>2026-04-25T10:16:16.999Z</time></trkpt><trkpt lat="43.43330797513876" lon="12.90833530003651"><ele>261.0</ele><time>2026-04-25T10:16:17.999Z</time></trkpt><trkpt lat="43.4331466373702" lon="12.908476629015986"><ele>261.0</ele><time>2026-04-25T10:16:18.999Z</time></trkpt><trkpt lat="43.432982506542785" lon="12.908618379771813"><ele>261.3333333333333</ele><time>2026-04-25T10:16:20Z</time></trkpt><trkpt lat="43.43281584156749" lon="12.908766988473566"><ele>261.66666666666663</ele><time>2026-04-25T10:16:21Z</time></trkpt><trkpt lat="43.432641780360505" lon="12.908918357230412"><ele>262.0</ele><time>2026-04-25T10:16:22Z</time></trkpt><trkpt lat="43.43246515620768" lon="12.909071274836117"><ele>262.0</ele><time>2026-04-25T10:16:23Z</time></trkpt><trkpt lat="43.432282519153325" lon="12.909229592283097"><ele>262.0</ele><time>2026-04-25T10:16:24Z</time></trkpt><trkpt lat="43.432104391200625" lon="12.909381472718493"><ele>262.0</ele><time>2026-04-25T10:16:25Z</time></trkpt><trkpt lat="43.431935443871964" lon="12.909536268789982"><ele>262.0</ele><time>2026-04-25T10:16:26Z</time></trkpt><trkpt lat="43.4317805688484" lon="12.909726440363128"><ele>262.0</ele><time>2026-04-25T10:16:27Z</time></trkpt><trkpt lat="43.43163697993685" lon="12.909950209761673"><ele>262.0</ele><time>2026-04-25T10:16:28Z</time></trkpt><trkpt lat="43.43150703552604" lon="12.910201252446123"><ele>257.5</ele><time>2026-04-25T10:16:29Z</time></trkpt><trkpt lat="43.431390158316695" lon="12.910474286043046"><ele>253.0</ele><time>2026-04-25T10:16:30Z</time></trkpt><trkpt lat="43.43126790408084" lon="12.91075762370307"><ele>256.5</ele><time>2026-04-25T10:16:31Z</time></trkpt><trkpt lat="43.43113705610278" lon="12.91104181580816"><ele>260.0</ele><time>2026-04-25T10:16:32Z</time></trkpt><trkpt lat="43.4310065287799" lon="12.911327893352158"><ele>260.0</ele><time>2026-04-25T10:16:33Z</time></trkpt><trkpt lat="43.43087753117384" lon="12.911615112645695"><ele>260.0</ele><time>2026-04-25T10:16:34Z</time></trkpt><trkpt lat="43.43074527671934" lon="12.911897996993849"><ele>256.0</ele><time>2026-04-25T10:16:35Z</time></trkpt><trkpt lat="43.43060446742316" lon="12.912173159081199"><ele>252.0</ele><time>2026-04-25T10:16:36Z</time></trkpt><trkpt lat="43.43045543411375" lon="12.91244171275819"><ele>259.5</ele><time>2026-04-25T10:16:37Z</time></trkpt><trkpt lat="43.43029373210868" lon="12.912697269363758"><ele>267.0</ele><time>2026-04-25T10:16:38Z</time></trkpt><trkpt lat="43.43011366874329" lon="12.91293013657442"><ele>267.0</ele><time>2026-04-25T10:16:39Z</time></trkpt><trkpt lat="43.429913065808606" lon="12.913130103966495"><ele>267.0</ele><time>2026-04-25T10:16:40Z</time></trkpt><trkpt lat="43.429711105356674" lon="12.91332869095408"><ele>269.0</ele><time>2026-04-25T10:16:41Z</time></trkpt><trkpt lat="43.42947400394515" lon="12.913469855109703"><ele>271.0</ele><time>2026-04-25T10:16:42Z</time></trkpt><trkpt lat="43.42924310565991" lon="12.913619829651584"><ele>271.0</ele><time>2026-04-25T10:16:43Z</time></trkpt><trkpt lat="43.429013800678845" lon="12.913772925391696"><ele>271.0</ele><time>2026-04-25T10:16:44Z</time></trkpt><trkpt lat="43.4287839224442" lon="12.913922064624185"><ele>265.5</ele><time>2026-04-25T10:16:45Z</time></trkpt><trkpt lat="43.42855356502664" lon="12.914071896930235"><ele>260.0</ele><time>2026-04-25T10:16:46Z</time></trkpt><trkpt lat="43.428326255013275" lon="12.914220825244557"><ele>259.0</ele><time>2026-04-25T10:16:47Z</time></trkpt><trkpt lat="43.42811105461019" lon="12.914364112940214"><ele>258.0</ele><time>2026-04-25T10:16:48Z</time></trkpt><trkpt lat="43.42791075925498" lon="12.914524052402037"><ele>258.0</ele><time>2026-04-25T10:16:49Z</time></trkpt><trkpt lat="43.42772835138903" lon="12.914711968715576"><ele>258.0</ele><time>2026-04-25T10:16:50Z</time></trkpt><trkpt lat="43.427569390201626" lon="12.914921448585451"><ele>258.0</ele><time>2026-04-25T10:16:51Z</time></trkpt><trkpt lat="43.427434511990576" lon="12.91514745865623"><ele>263.0</ele><time>2026-04-25T10:16:52Z</time></trkpt><trkpt lat="43.42732289956479" lon="12.915401154124442"><ele>268.0</ele><time>2026-04-25T10:16:53Z</time></trkpt><trkpt lat="43.42723413476119" lon="12.915674158309267"><ele>273.0</ele><time>2026-04-25T10:16:54Z</time></trkpt><trkpt lat="43.427178149538044" lon="12.915971239715605"><ele>276.0</ele><time>2026-04-25T10:16:55Z</time></trkpt><trkpt lat="43.42715303246356" lon="12.9162833766142"><ele>279.0</ele><time>2026-04-25T10:16:56Z</time></trkpt><trkpt lat="43.42715855435018" lon="12.916605270812816"><ele>277.5</ele><time>2026-04-25T10:16:57Z</time></trkpt><trkpt lat="43.42719270981332" lon="12.916928743863886"><ele>276.0</ele><time>2026-04-25T10:16:58Z</time></trkpt><trkpt lat="43.42724451370609" lon="12.917254922360824"><ele>271.0</ele><time>2026-04-25T10:16:59Z</time></trkpt><trkpt lat="43.42728783403656" lon="12.91758665696468"><ele>266.0</ele><time>2026-04-25T10:17:00Z</time></trkpt><trkpt lat="43.42731819607893" lon="12.917928264627172"><ele>266.0</ele><time>2026-04-25T10:17:01Z</time></trkpt><trkpt lat="43.42733963127524" lon="12.91827430496398"><ele>266.0</ele><time>2026-04-25T10:17:02Z</time></trkpt><trkpt lat="43.42735345081504" lon="12.918625678078012"><ele>261.5</ele><time>2026-04-25T10:17:03Z</time></trkpt><trkpt lat="43.42736621130415" lon="12.91896533358155"><ele>257.0</ele><time>2026-04-25T10:17:04Z</time></trkpt><trkpt lat="43.42737470548143" lon="12.91928039847533"><ele>256.0</ele><time>2026-04-25T10:17:05Z</time></trkpt><trkpt lat="43.42738862880581" lon="12.919572536758057"><ele>255.0</ele><time>2026-04-25T10:17:06Z</time></trkpt><trkpt lat="43.42743305866186" lon="12.91986266195753"><ele>254.0</ele><time>2026-04-25T10:17:07Z</time></trkpt><trkpt lat="43.427512551689" lon="12.920156208803958"><ele>251.5</ele><time>2026-04-25T10:17:08Z</time></trkpt><trkpt lat="43.42761040401223" lon="12.920452722049383"><ele>249.0</ele><time>2026-04-25T10:17:09Z</time></trkpt><trkpt lat="43.4277141750199" lon="12.920747390173513"><ele>245.0</ele><time>2026-04-25T10:17:10Z</time></trkpt><trkpt lat="43.42782269274254" lon="12.921047607449228"><ele>241.0</ele><time>2026-04-25T10:17:11Z</time></trkpt><trkpt lat="43.42791851538958" lon="12.921358199426106"><ele>251.0</ele><time>2026-04-25T10:17:12Z</time></trkpt><trkpt lat="43.427998096459184" lon="12.921678715746214"><ele>261.0</ele><time>2026-04-25T10:17:13Z</time></trkpt><trkpt lat="43.428058900906" lon="12.922002346095287"><ele>261.0</ele><time>2026-04-25T10:17:14Z</time></trkpt><trkpt lat="43.428109808705294" lon="12.922327068168125"><ele>261.0</ele><time>2026-04-25T10:17:15Z</time></trkpt><trkpt lat="43.42814715398969" lon="12.922652654261304"><ele>257.5</ele><time>2026-04-25T10:17:16Z</time></trkpt><trkpt lat="43.42817616868706" lon="12.922986755837774"><ele>254.0</ele><time>2026-04-25T10:17:17Z</time></trkpt><trkpt lat="43.42820090639606" lon="12.923324638462084"><ele>251.5</ele><time>2026-04-25T10:17:18Z</time></trkpt><trkpt lat="43.428216006174104" lon="12.923667363002828"><ele>249.0</ele><time>2026-04-25T10:17:19Z</time></trkpt><trkpt lat="43.428231970461475" lon="12.924012554319674"><ele>248.0</ele><time>2026-04-25T10:17:20Z</time></trkpt><trkpt lat="43.42824661046422" lon="12.92435910017711"><ele>247.0</ele><time>2026-04-25T10:17:21Z</time></trkpt><trkpt lat="43.42825968702589" lon="12.924703337917835"><ele>247.0</ele><time>2026-04-25T10:17:22Z</time></trkpt><trkpt lat="43.428275823778755" lon="12.925047050878069"><ele>247.0</ele><time>2026-04-25T10:17:23Z</time></trkpt><trkpt lat="43.428292061417665" lon="12.925390357448212"><ele>247.0</ele><time>2026-04-25T10:17:24Z</time></trkpt><trkpt lat="43.428309083364184" lon="12.925738961384678"><ele>247.0</ele><time>2026-04-25T10:17:25Z</time></trkpt><trkpt lat="43.42832406350724" lon="12.926090004983969"><ele>247.0</ele><time>2026-04-25T10:17:26Z</time></trkpt><trkpt lat="43.42833799406674" lon="12.92644412407535"><ele>247.0</ele><time>2026-04-25T10:17:27Z</time></trkpt><trkpt lat="43.42835328941083" lon="12.926798832289164"><ele>246.0</ele><time>2026-04-25T10:17:28Z</time></trkpt><trkpt lat="43.42836959069829" lon="12.927154744847288"><ele>245.0</ele><time>2026-04-25T10:17:29Z</time></trkpt><trkpt lat="43.42838530685244" lon="12.927507622657792"><ele>244.5</ele><time>2026-04-25T10:17:30Z</time></trkpt><trkpt lat="43.42840384403539" lon="12.927859079733773"><ele>244.0</ele><time>2026-04-25T10:17:31Z</time></trkpt><trkpt lat="43.428420249418416" lon="12.928208629166463"><ele>243.5</ele><time>2026-04-25T10:17:32Z</time></trkpt><trkpt lat="43.42843476614113" lon="12.928557909176611"><ele>243.0</ele><time>2026-04-25T10:17:33Z</time></trkpt><trkpt lat="43.4284505943576" lon="12.928887175426745"><ele>243.0</ele><time>2026-04-25T10:17:34Z</time></trkpt><trkpt lat="43.42846907368466" lon="12.929195944501314"><ele>243.0</ele><time>2026-04-25T10:17:35Z</time></trkpt><trkpt lat="43.42848648583067" lon="12.929500975031477"><ele>243.0</ele><time>2026-04-25T10:17:36Z</time></trkpt><trkpt lat="43.42847347793522" lon="12.929805948688758"><ele>248.0</ele><time>2026-04-25T10:17:37Z</time></trkpt><trkpt lat="43.42842579532757" lon="12.930105418365006"><ele>253.0</ele><time>2026-04-25T10:17:38Z</time></trkpt><trkpt lat="43.428350879892115" lon="12.9304056928932"><ele>253.0</ele><time>2026-04-25T10:17:39Z</time></trkpt><trkpt lat="43.42825210776298" lon="12.930700627511852"><ele>253.0</ele><time>2026-04-25T10:17:40Z</time></trkpt><trkpt lat="43.42816366060912" lon="12.930982293060017"><ele>255.0</ele><time>2026-04-25T10:17:41Z</time></trkpt><trkpt lat="43.42809680058246" lon="12.931239961593272"><ele>257.0</ele><time>2026-04-25T10:17:42Z</time></trkpt><trkpt lat="43.42803292274782" lon="12.931475462378575"><ele>259.0</ele><time>2026-04-25T10:17:43Z</time></trkpt><trkpt lat="43.42797428180065" lon="12.931682980452265"><ele>254.0</ele><time>2026-04-25T10:17:44Z</time></trkpt><trkpt lat="43.427918001935204" lon="12.931865420787128"><ele>249.0</ele><time>2026-04-25T10:17:45Z</time></trkpt><trkpt lat="43.427866672085955" lon="12.932013408975052"><ele>244.0</ele><time>2026-04-25T10:17:46Z</time></trkpt><trkpt lat="43.42780737259803" lon="12.932133052969885"><ele>239.0</ele><time>2026-04-25T10:17:47Z</time></trkpt><trkpt lat="43.427746249329005" lon="12.932226894944703"><ele>239.00000000000003</ele><time>2026-04-25T10:17:48Z</time></trkpt><trkpt lat="43.427681845320556" lon="12.932305287366148"><ele>239.0</ele><time>2026-04-25T10:17:49Z</time></trkpt><trkpt lat="43.42763147384797" lon="12.932364117097238"><ele>239.0</ele><time>2026-04-25T10:17:50Z</time></trkpt><trkpt lat="43.42759113937309" lon="12.932502691801023"><ele>239.0</ele><time>2026-04-25T10:17:52Z</time></trkpt><trkpt lat="43.42762481639189" lon="12.932619283702772"><ele>239.00000000000003</ele><time>2026-04-25T10:17:54Z</time></trkpt><trkpt lat="43.42764734875874" lon="12.932739236998064"><ele>239.0</ele><time>2026-04-25T10:17:58Z</time></trkpt><trkpt lat="43.42768563421986" lon="12.932821065861878"><ele>239.75</ele><time>2026-04-25T10:18:01Z</time></trkpt><trkpt lat="43.42771291275678" lon="12.932945313453525"><ele>240.5</ele><time>2026-04-25T10:18:03Z</time></trkpt><trkpt lat="43.42772171460668" lon="12.933084418847825"><ele>241.25</ele><time>2026-04-25T10:18:04Z</time></trkpt><trkpt lat="43.42772870681062" lon="12.933250400747923"><ele>242.0</ele><time>2026-04-25T10:18:05Z</time></trkpt><trkpt lat="43.427737123945874" lon="12.9334383513576"><ele>243.33333333333334</ele><time>2026-04-25T10:18:06Z</time></trkpt><trkpt lat="43.42774610796988" lon="12.933635820264715"><ele>244.66666666666669</ele><time>2026-04-25T10:18:07.001Z</time></trkpt><trkpt lat="43.427758842370864" lon="12.93385308529552"><ele>246.0</ele><time>2026-04-25T10:18:08.001Z</time></trkpt><trkpt lat="43.427770735690004" lon="12.934076090161213"><ele>249.33333333333331</ele><time>2026-04-25T10:18:09.001Z</time></trkpt><trkpt lat="43.427777935244954" lon="12.934293722310295"><ele>252.66666666666666</ele><time>2026-04-25T10:18:10.001Z</time></trkpt><trkpt lat="43.42776909109685" lon="12.934507385327777"><ele>256.0</ele><time>2026-04-25T10:18:11.001Z</time></trkpt><trkpt lat="43.427721677668735" lon="12.934709332366522"><ele>256.0</ele><time>2026-04-25T10:18:12.001Z</time></trkpt><trkpt lat="43.427625484108034" lon="12.934930941689226"><ele>256.0</ele><time>2026-04-25T10:18:13.001Z</time></trkpt><trkpt lat="43.427534266314865" lon="12.935158499501918"><ele>256.0</ele><time>2026-04-25T10:18:14.001Z</time></trkpt><trkpt lat="43.4274153444835" lon="12.935356785671756"><ele>253.66666666666666</ele><time>2026-04-25T10:18:15.001Z</time></trkpt><trkpt lat="43.42729299446202" lon="12.935550024000172"><ele>251.33333333333331</ele><time>2026-04-25T10:18:16.001Z</time></trkpt><trkpt lat="43.427145996659036" lon="12.935722588408627"><ele>249.0</ele><time>2026-04-25T10:18:17.001Z</time></trkpt><trkpt lat="43.426985754803574" lon="12.935865632039176"><ele>250.25</ele><time>2026-04-25T10:18:18.001Z</time></trkpt><trkpt lat="43.42684040033652" lon="12.935984652310138"><ele>251.5</ele><time>2026-04-25T10:18:19.001Z</time></trkpt><trkpt lat="43.42672731437744" lon="12.936087062815496"><ele>252.75</ele><time>2026-04-25T10:18:20.001Z</time></trkpt><trkpt lat="43.42664284002404" lon="12.936186159332378"><ele>254.0</ele><time>2026-04-25T10:18:21.001Z</time></trkpt><trkpt lat="43.42659724069228" lon="12.936308613288285"><ele>254.0</ele><time>2026-04-25T10:18:22.001Z</time></trkpt><trkpt lat="43.42661155517749" lon="12.936453323537608"><ele>254.0</ele><time>2026-04-25T10:18:23.001Z</time></trkpt><trkpt lat="43.426684104655024" lon="12.936598641467377"><ele>254.0</ele><time>2026-04-25T10:18:24.001Z</time></trkpt><trkpt lat="43.426802106704635" lon="12.93669922345105"><ele>254.0</ele><time>2026-04-25T10:18:25.001Z</time></trkpt><trkpt lat="43.426944676018884" lon="12.936744796867224"><ele>251.33333333333334</ele><time>2026-04-25T10:18:26.001Z</time></trkpt><trkpt lat="43.42710080389546" lon="12.936724400256969"><ele>248.66666666666669</ele><time>2026-04-25T10:18:27.001Z</time></trkpt><trkpt lat="43.427253358312946" lon="12.936654836839432"><ele>246.0</ele><time>2026-04-25T10:18:28.001Z</time></trkpt><trkpt lat="43.4274048952865" lon="12.936552020273151"><ele>253.0</ele><time>2026-04-25T10:18:29.001Z</time></trkpt><trkpt lat="43.42756657827466" lon="12.936467491667294"><ele>260.0</ele><time>2026-04-25T10:18:30.001Z</time></trkpt><trkpt lat="43.4277477131991" lon="12.93643844074776"><ele>267.0</ele><time>2026-04-25T10:18:31.001Z</time></trkpt><trkpt lat="43.427935863842514" lon="12.936425199359247"><ele>269.6666666666667</ele><time>2026-04-25T10:18:32.001Z</time></trkpt><trkpt lat="43.42813324183117" lon="12.936408864240024"><ele>272.33333333333337</ele><time>2026-04-25T10:18:33.001Z</time></trkpt><trkpt lat="43.428330680221016" lon="12.936394135764031"><ele>275.0</ele><time>2026-04-25T10:18:34.001Z</time></trkpt><trkpt lat="43.42853159197023" lon="12.936392601003242"><ele>275.0</ele><time>2026-04-25T10:18:35.001Z</time></trkpt><trkpt lat="43.428722658196946" lon="12.936403127655627"><ele>275.0</ele><time>2026-04-25T10:18:36.001Z</time></trkpt><trkpt lat="43.428904301320195" lon="12.936393902367826"><ele>275.0</ele><time>2026-04-25T10:18:37.001Z</time></trkpt><trkpt lat="43.42908076719113" lon="12.93634695945638"><ele>275.6666666666667</ele><time>2026-04-25T10:18:38.001Z</time></trkpt><trkpt lat="43.429258651520016" lon="12.936272696334976"><ele>276.3333333333333</ele><time>2026-04-25T10:18:39.001Z</time></trkpt><trkpt lat="43.42944373699166" lon="12.93620005013331"><ele>277.0</ele><time>2026-04-25T10:18:40.001Z</time></trkpt><trkpt lat="43.429613278524066" lon="12.936152201005253"><ele>279.0</ele><time>2026-04-25T10:18:41.001Z</time></trkpt><trkpt lat="43.42975322536457" lon="12.936153644476446"><ele>281.0</ele><time>2026-04-25T10:18:42.001Z</time></trkpt><trkpt lat="43.42986853778507" lon="12.936217950476369"><ele>283.0</ele><time>2026-04-25T10:18:43.001Z</time></trkpt><trkpt lat="43.429983418699315" lon="12.936341680659279"><ele>285.0</ele><time>2026-04-25T10:18:44.001Z</time></trkpt><trkpt lat="43.43010469350866" lon="12.936486102799028"><ele>285.0</ele><time>2026-04-25T10:18:45.001Z</time></trkpt><trkpt lat="43.43024941766678" lon="12.936584289574215"><ele>285.0</ele><time>2026-04-25T10:18:46.001Z</time></trkpt><trkpt lat="43.43041884817671" lon="12.93663109171036"><ele>285.0</ele><time>2026-04-25T10:18:47.001Z</time></trkpt><trkpt lat="43.430601505153845" lon="12.936643584957906"><ele>288.0</ele><time>2026-04-25T10:18:48.001Z</time></trkpt><trkpt lat="43.430776647773925" lon="12.936648412571383"><ele>291.0</ele><time>2026-04-25T10:18:49.001Z</time></trkpt><trkpt lat="43.430925837593946" lon="12.936668148560122"><ele>294.0</ele><time>2026-04-25T10:18:50.001Z</time></trkpt><trkpt lat="43.43104745842468" lon="12.93668269666376"><ele>297.0</ele><time>2026-04-25T10:18:51.001Z</time></trkpt><trkpt lat="43.431159834687385" lon="12.93661601378481"><ele>297.0</ele><time>2026-04-25T10:18:52.001Z</time></trkpt><trkpt lat="43.431269282654725" lon="12.936492829771842"><ele>297.0</ele><time>2026-04-25T10:18:53.001Z</time></trkpt><trkpt lat="43.43137332910768" lon="12.936422844316615"><ele>297.0</ele><time>2026-04-25T10:18:54.001Z</time></trkpt><trkpt lat="43.43145211695343" lon="12.936462803871944"><ele>297.0</ele><time>2026-04-25T10:18:55.001Z</time></trkpt><trkpt lat="43.43158892845827" lon="12.936585590419893"><ele>298.0</ele><time>2026-04-25T10:18:56.001Z</time></trkpt><trkpt lat="43.431715142221364" lon="12.936707426713703"><ele>299.0</ele><time>2026-04-25T10:18:57.001Z</time></trkpt><trkpt lat="43.43181922453649" lon="12.9367211955456"><ele>300.0</ele><time>2026-04-25T10:18:58.001Z</time></trkpt><trkpt lat="43.43190047046031" lon="12.936640881707982"><ele>301.0</ele><time>2026-04-25T10:18:59Z</time></trkpt><trkpt lat="43.43192677896455" lon="12.936495490110351"><ele>301.0</ele><time>2026-04-25T10:19:00Z</time></trkpt><trkpt lat="43.43189277252012" lon="12.936361181196544"><ele>301.0</ele><time>2026-04-25T10:19:01Z</time></trkpt><trkpt lat="43.43180763383263" lon="12.936277025407861"><ele>301.0</ele><time>2026-04-25T10:19:02Z</time></trkpt><trkpt lat="43.43169370682069" lon="12.93624111195286"><ele>301.0</ele><time>2026-04-25T10:19:03Z</time></trkpt><trkpt lat="43.43156460353282" lon="12.93621465175807"><ele>301.0</ele><time>2026-04-25T10:19:04Z</time></trkpt><trkpt lat="43.43144015308949" lon="12.936192674291751"><ele>301.0</ele><time>2026-04-25T10:19:05Z</time></trkpt><trkpt lat="43.43129375798315" lon="12.936200396706193"><ele>301.0</ele><time>2026-04-25T10:19:06Z</time></trkpt><trkpt lat="43.43116635255779" lon="12.93627748214446"><ele>301.0</ele><time>2026-04-25T10:19:07Z</time></trkpt><trkpt lat="43.43105475258018" lon="12.936377551069935"><ele>300.0</ele><time>2026-04-25T10:19:08Z</time></trkpt><trkpt lat="43.430925415409114" lon="12.936404457968882"><ele>299.0</ele><time>2026-04-25T10:19:09Z</time></trkpt><trkpt lat="43.43079631513277" lon="12.936335266612783"><ele>298.0</ele><time>2026-04-25T10:19:10Z</time></trkpt><trkpt lat="43.43065589106839" lon="12.936219839442616"><ele>297.0</ele><time>2026-04-25T10:19:11Z</time></trkpt><trkpt lat="43.43053334242083" lon="12.936115810464347"><ele>298.5</ele><time>2026-04-25T10:19:12Z</time></trkpt><trkpt lat="43.4304215853241" lon="12.93598801378747"><ele>300.0</ele><time>2026-04-25T10:19:13Z</time></trkpt><trkpt lat="43.43033432555916" lon="12.935831004627754"><ele>301.5</ele><time>2026-04-25T10:19:14Z</time></trkpt><trkpt lat="43.430264555919806" lon="12.93569217150286"><ele>303.0</ele><time>2026-04-25T10:19:15Z</time></trkpt><trkpt lat="43.4301842545745" lon="12.935588590879494"><ele>303.0</ele><time>2026-04-25T10:19:16Z</time></trkpt><trkpt lat="43.430106327767426" lon="12.935512082041168"><ele>303.0</ele><time>2026-04-25T10:19:17Z</time></trkpt><trkpt lat="43.430042893860104" lon="12.935451397153043"><ele>303.0</ele><time>2026-04-25T10:19:18Z</time></trkpt><trkpt lat="43.42999106947588" lon="12.935374545686619"><ele>303.0</ele><time>2026-04-25T10:19:20Z</time></trkpt><trkpt lat="43.43014764521793" lon="12.935374162536354"><ele>303.0</ele><time>2026-04-25T10:19:23Z</time></trkpt><trkpt lat="43.4302482963907" lon="12.935391726765445"><ele>303.0</ele><time>2026-04-25T10:19:24Z</time></trkpt><trkpt lat="43.43036017327568" lon="12.935362567737434"><ele>303.0</ele><time>2026-04-25T10:19:25Z</time></trkpt><trkpt lat="43.43047868236178" lon="12.93533760483261"><ele>303.0</ele><time>2026-04-25T10:19:26Z</time></trkpt><trkpt lat="43.43060969324625" lon="12.935369608244786"><ele>303.0</ele><time>2026-04-25T10:19:27Z</time></trkpt><trkpt lat="43.43071673678202" lon="12.9353374731984"><ele>307.25</ele><time>2026-04-25T10:19:28Z</time></trkpt><trkpt lat="43.43080949030159" lon="12.935300165369064"><ele>311.5</ele><time>2026-04-25T10:19:29Z</time></trkpt><trkpt lat="43.43087966084717" lon="12.935266268053917"><ele>315.75</ele><time>2026-04-25T10:19:30Z</time></trkpt><trkpt lat="43.4308421296324" lon="12.935009601900559"><ele>320.0</ele><time>2026-04-25T10:19:31Z</time></trkpt><trkpt lat="43.430790019732555" lon="12.934902444833565"><ele>321.8</ele><time>2026-04-25T10:19:32Z</time></trkpt><trkpt lat="43.430693561112044" lon="12.934839640364908"><ele>323.6</ele><time>2026-04-25T10:19:33Z</time></trkpt><trkpt lat="43.43057193147226" lon="12.93483065213378"><ele>325.4</ele><time>2026-04-25T10:19:34Z</time></trkpt><trkpt lat="43.43046592369858" lon="12.934837574519966"><ele>327.2</ele><time>2026-04-25T10:19:35Z</time></trkpt><trkpt lat="43.43039205679622" lon="12.93479150362307"><ele>329.0</ele><time>2026-04-25T10:19:36Z</time></trkpt><trkpt lat="43.430339470858954" lon="12.934709093766212"><ele>329.0</ele><time>2026-04-25T10:19:37Z</time></trkpt><trkpt lat="43.43037920596431" lon="12.93456916560587"><ele>329.0</ele><time>2026-04-25T10:19:39Z</time></trkpt><trkpt lat="43.430455922564974" lon="12.934541831232496"><ele>329.0</ele><time>2026-04-25T10:19:40Z</time></trkpt><trkpt lat="43.4305577916679" lon="12.934565085222284"><ele>329.0</ele><time>2026-04-25T10:19:41Z</time></trkpt><trkpt lat="43.43067435571604" lon="12.934627767523612"><ele>329.0</ele><time>2026-04-25T10:19:42Z</time></trkpt><trkpt lat="43.43079526682357" lon="12.934685332878225"><ele>329.0</ele><time>2026-04-25T10:19:43Z</time></trkpt><trkpt lat="43.430919138364246" lon="12.934749478311824"><ele>329.0</ele><time>2026-04-25T10:19:44Z</time></trkpt><trkpt lat="43.431030821396114" lon="12.934861665631328"><ele>329.0</ele><time>2026-04-25T10:19:45Z</time></trkpt><trkpt lat="43.43112641139996" lon="12.935018479933394"><ele>329.0</ele><time>2026-04-25T10:19:46Z</time></trkpt><trkpt lat="43.4312078756517" lon="12.935202712458967"><ele>328.0</ele><time>2026-04-25T10:19:47Z</time></trkpt><trkpt lat="43.43128881413735" lon="12.9353547498209"><ele>327.0</ele><time>2026-04-25T10:19:48Z</time></trkpt><trkpt lat="43.43136708263471" lon="12.935466389301327"><ele>326.0</ele><time>2026-04-25T10:19:49Z</time></trkpt><trkpt lat="43.431461469617986" lon="12.935532628770686"><ele>325.0</ele><time>2026-04-25T10:19:50Z</time></trkpt><trkpt lat="43.4315782884465" lon="12.935532001174463"><ele>325.0</ele><time>2026-04-25T10:19:51Z</time></trkpt><trkpt lat="43.431703971972944" lon="12.935472813377093"><ele>325.0</ele><time>2026-04-25T10:19:52Z</time></trkpt><trkpt lat="43.43182797068579" lon="12.935396489851342"><ele>325.0</ele><time>2026-04-25T10:19:53Z</time></trkpt><trkpt lat="43.4319512333248" lon="12.935333603916613"><ele>325.0</ele><time>2026-04-25T10:19:54Z</time></trkpt><trkpt lat="43.43207420631888" lon="12.935321276859177"><ele>330.3333333333333</ele><time>2026-04-25T10:19:55Z</time></trkpt><trkpt lat="43.43219184168825" lon="12.935380135227255"><ele>335.6666666666667</ele><time>2026-04-25T10:19:56Z</time></trkpt><trkpt lat="43.43233748514587" lon="12.935417833854277"><ele>341.0</ele><time>2026-04-25T10:19:57Z</time></trkpt><trkpt lat="43.43237375186581" lon="12.9356738158862"><ele>341.0</ele><time>2026-04-25T10:19:58Z</time></trkpt><trkpt lat="43.43247027469856" lon="12.935786729394719"><ele>341.0</ele><time>2026-04-25T10:19:59Z</time></trkpt><trkpt lat="43.43257970810679" lon="12.935838346450605"><ele>341.0</ele><time>2026-04-25T10:20:00Z</time></trkpt><trkpt lat="43.43271448770212" lon="12.935817159464738"><ele>341.0</ele><time>2026-04-25T10:20:01Z</time></trkpt><trkpt lat="43.43285426998563" lon="12.935805746802446"><ele>341.6666666666667</ele><time>2026-04-25T10:20:02Z</time></trkpt><trkpt lat="43.43299635250251" lon="12.935846375813258"><ele>342.3333333333333</ele><time>2026-04-25T10:20:03Z</time></trkpt><trkpt lat="43.433150110568164" lon="12.935885284618344"><ele>343.0</ele><time>2026-04-25T10:20:04Z</time></trkpt><trkpt lat="43.43329964902714" lon="12.935910715330577"><ele>343.0</ele><time>2026-04-25T10:20:05Z</time></trkpt><trkpt lat="43.43342754084215" lon="12.935940081533666"><ele>343.0</ele><time>2026-04-25T10:20:06Z</time></trkpt><trkpt lat="43.43353469753997" lon="12.936014890598486"><ele>343.0</ele><time>2026-04-25T10:20:07Z</time></trkpt><trkpt lat="43.43361372177328" lon="12.936138059846515"><ele>343.0</ele><time>2026-04-25T10:20:08Z</time></trkpt><trkpt lat="43.433643683326615" lon="12.936296337268285"><ele>343.0</ele><time>2026-04-25T10:20:09Z</time></trkpt><trkpt lat="43.433641316311665" lon="12.9364750156572"><ele>343.0</ele><time>2026-04-25T10:20:10Z</time></trkpt><trkpt lat="43.433649768139404" lon="12.936667612761182"><ele>343.0</ele><time>2026-04-25T10:20:11Z</time></trkpt><trkpt lat="43.433673688776246" lon="12.93683293745743"><ele>343.0</ele><time>2026-04-25T10:20:12Z</time></trkpt><trkpt lat="43.433725635130585" lon="12.93696420312897"><ele>345.0</ele><time>2026-04-25T10:20:13.001Z</time></trkpt><trkpt lat="43.43380870760178" lon="12.93705997543419"><ele>347.0</ele><time>2026-04-25T10:20:14.001Z</time></trkpt><trkpt lat="43.433916104492546" lon="12.937113722782147"><ele>349.0</ele><time>2026-04-25T10:20:15.001Z</time></trkpt><trkpt lat="43.43404996544954" lon="12.937111105825597"><ele>351.0</ele><time>2026-04-25T10:20:16.001Z</time></trkpt><trkpt lat="43.43419024398174" lon="12.937092534510066"><ele>351.0</ele><time>2026-04-25T10:20:17.001Z</time></trkpt><trkpt lat="43.43432852978829" lon="12.937108357401309"><ele>351.0</ele><time>2026-04-25T10:20:18.001Z</time></trkpt><trkpt lat="43.43447060792671" lon="12.937162276150717"><ele>351.0</ele><time>2026-04-25T10:20:19.001Z</time></trkpt><trkpt lat="43.43460744269353" lon="12.937198255007553"><ele>351.0</ele><time>2026-04-25T10:20:20.001Z</time></trkpt><trkpt lat="43.434722847899515" lon="12.937168231312038"><ele>352.75</ele><time>2026-04-25T10:20:21.001Z</time></trkpt><trkpt lat="43.434849243025006" lon="12.937086634276987"><ele>354.5</ele><time>2026-04-25T10:20:22.001Z</time></trkpt><trkpt lat="43.434977259549086" lon="12.936979227531573"><ele>356.25</ele><time>2026-04-25T10:20:23.001Z</time></trkpt><trkpt lat="43.43509367675363" lon="12.936904032716328"><ele>358.0</ele><time>2026-04-25T10:20:24.001Z</time></trkpt><trkpt lat="43.43521320099635" lon="12.936885557203654"><ele>358.0</ele><time>2026-04-25T10:20:25.001Z</time></trkpt><trkpt lat="43.43532694903258" lon="12.936926846615984"><ele>358.0</ele><time>2026-04-25T10:20:26.001Z</time></trkpt><trkpt lat="43.435425131179194" lon="12.937048032999321"><ele>358.0</ele><time>2026-04-25T10:20:27.001Z</time></trkpt><trkpt lat="43.435495272177626" lon="12.937224514532323"><ele>358.0</ele><time>2026-04-25T10:20:28.001Z</time></trkpt><trkpt lat="43.4355660639364" lon="12.9373951414791"><ele>360.66666666666663</ele><time>2026-04-25T10:20:29.001Z</time></trkpt><trkpt lat="43.435651340484306" lon="12.937578460740669"><ele>363.3333333333333</ele><time>2026-04-25T10:20:30.001Z</time></trkpt><trkpt lat="43.43576685960614" lon="12.937727578884283"><ele>366.0</ele><time>2026-04-25T10:20:31.001Z</time></trkpt><trkpt lat="43.43590128413081" lon="12.937866578123904"><ele>366.0</ele><time>2026-04-25T10:20:32.001Z</time></trkpt><trkpt lat="43.436037603312066" lon="12.938011138350737"><ele>366.0</ele><time>2026-04-25T10:20:33.001Z</time></trkpt><trkpt lat="43.4361795330261" lon="12.938155684362552"><ele>366.0</ele><time>2026-04-25T10:20:34.001Z</time></trkpt><trkpt lat="43.4363263658057" lon="12.938305501334385"><ele>367.3333333333333</ele><time>2026-04-25T10:20:35.001Z</time></trkpt><trkpt lat="43.43646731493768" lon="12.938452569118512"><ele>368.66666666666663</ele><time>2026-04-25T10:20:36.001Z</time></trkpt><trkpt lat="43.4365877118698" lon="12.938581693193152"><ele>370.0</ele><time>2026-04-25T10:20:37.001Z</time></trkpt><trkpt lat="43.43669932334038" lon="12.938687239242268"><ele>370.0</ele><time>2026-04-25T10:20:38.001Z</time></trkpt><trkpt lat="43.43681109753639" lon="12.938749921680788"><ele>370.0</ele><time>2026-04-25T10:20:39.001Z</time></trkpt><trkpt lat="43.43692780531085" lon="12.938787494965359"><ele>370.0</ele><time>2026-04-25T10:20:40.001Z</time></trkpt><trkpt lat="43.43705087423911" lon="12.938786900498313"><ele>370.0</ele><time>2026-04-25T10:20:41.001Z</time></trkpt><trkpt lat="43.437173945562314" lon="12.938743896099878"><ele>373.25</ele><time>2026-04-25T10:20:42.001Z</time></trkpt><trkpt lat="43.43729448961256" lon="12.938655856605962"><ele>376.5</ele><time>2026-04-25T10:20:43.001Z</time></trkpt><trkpt lat="43.43741933654223" lon="12.938576958023233"><ele>379.75</ele><time>2026-04-25T10:20:44.001Z</time></trkpt><trkpt lat="43.43754463114891" lon="12.938526970523467"><ele>383.0</ele><time>2026-04-25T10:20:45.001Z</time></trkpt><trkpt lat="43.43765523857894" lon="12.938518009714484"><ele>383.0</ele><time>2026-04-25T10:20:46.001Z</time></trkpt><trkpt lat="43.43776233949623" lon="12.938569020571117"><ele>383.0</ele><time>2026-04-25T10:20:47.001Z</time></trkpt><trkpt lat="43.437863336722735" lon="12.938673378760503"><ele>383.0</ele><time>2026-04-25T10:20:48.001Z</time></trkpt><trkpt lat="43.437942559288174" lon="12.938832489622905"><ele>383.0</ele><time>2026-04-25T10:20:49.001Z</time></trkpt><trkpt lat="43.43801638833286" lon="12.939000642617337"><ele>385.33333333333337</ele><time>2026-04-25T10:20:50.001Z</time></trkpt><trkpt lat="43.43810357657053" lon="12.939175230715605"><ele>387.6666666666667</ele><time>2026-04-25T10:20:51.001Z</time></trkpt><trkpt lat="43.438220700090035" lon="12.939294481491128"><ele>390.0</ele><time>2026-04-25T10:20:52.001Z</time></trkpt><trkpt lat="43.43836163752947" lon="12.93938305730765"><ele>390.0</ele><time>2026-04-25T10:20:53.001Z</time></trkpt><trkpt lat="43.438502245114904" lon="12.939479016650829"><ele>390.0</ele><time>2026-04-25T10:20:54.001Z</time></trkpt><trkpt lat="43.438637279208635" lon="12.93958975796929"><ele>390.0</ele><time>2026-04-25T10:20:55.001Z</time></trkpt><trkpt lat="43.43877950229917" lon="12.939695494215595"><ele>392.66666666666663</ele><time>2026-04-25T10:20:56.001Z</time></trkpt><trkpt lat="43.438914903227605" lon="12.939778919728214"><ele>395.3333333333333</ele><time>2026-04-25T10:20:57.001Z</time></trkpt><trkpt lat="43.43906318937949" lon="12.939856204832735"><ele>398.0</ele><time>2026-04-25T10:20:58.001Z</time></trkpt><trkpt lat="43.43921508736928" lon="12.939902139483817"><ele>398.0</ele><time>2026-04-25T10:20:59.001Z</time></trkpt><trkpt lat="43.43938031768805" lon="12.939932424527365"><ele>398.0</ele><time>2026-04-25T10:21:00.001Z</time></trkpt><trkpt lat="43.43955661394765" lon="12.93996413271279"><ele>398.0</ele><time>2026-04-25T10:21:01.001Z</time></trkpt><trkpt lat="43.4397280262684" lon="12.940007782175906"><ele>394.66666666666663</ele><time>2026-04-25T10:21:02.001Z</time></trkpt><trkpt lat="43.43990250788125" lon="12.940053288988716"><ele>391.33333333333337</ele><time>2026-04-25T10:21:03.001Z</time></trkpt><trkpt lat="43.44006735549475" lon="12.940077767304192"><ele>388.0</ele><time>2026-04-25T10:21:04.001Z</time></trkpt><trkpt lat="43.44023155165022" lon="12.940116864570523"><ele>388.0</ele><time>2026-04-25T10:21:05.001Z</time></trkpt><trkpt lat="43.44038635276826" lon="12.940188828229251"><ele>388.0</ele><time>2026-04-25T10:21:06.001Z</time></trkpt><trkpt lat="43.44055580229244" lon="12.940297928622813"><ele>388.0</ele><time>2026-04-25T10:21:07.001Z</time></trkpt><trkpt lat="43.44072233396301" lon="12.940378428998"><ele>391.6666666666667</ele><time>2026-04-25T10:21:08.001Z</time></trkpt><trkpt lat="43.44089919348064" lon="12.940453699374032"><ele>395.33333333333337</ele><time>2026-04-25T10:21:09.001Z</time></trkpt><trkpt lat="43.44106685273499" lon="12.940579374469413"><ele>399.0</ele><time>2026-04-25T10:21:10.001Z</time></trkpt><trkpt lat="43.441222042281474" lon="12.940746157632153"><ele>399.66666666666663</ele><time>2026-04-25T10:21:11.001Z</time></trkpt><trkpt lat="43.441381982936065" lon="12.940895851429344"><ele>400.3333333333333</ele><time>2026-04-25T10:21:12.001Z</time></trkpt><trkpt lat="43.44154944492633" lon="12.941028488957583"><ele>401.0</ele><time>2026-04-25T10:21:13.001Z</time></trkpt><trkpt lat="43.44172137136504" lon="12.941159572389331"><ele>401.0</ele><time>2026-04-25T10:21:14.001Z</time></trkpt><trkpt lat="43.441891256127434" lon="12.941301105891586"><ele>401.0</ele><time>2026-04-25T10:21:15.001Z</time></trkpt><trkpt lat="43.44204729100974" lon="12.941457680854988"><ele>401.0</ele><time>2026-04-25T10:21:16.001Z</time></trkpt><trkpt lat="43.442189775798106" lon="12.941620722119524"><ele>405.66666666666663</ele><time>2026-04-25T10:21:17.001Z</time></trkpt><trkpt lat="43.442317125789614" lon="12.941818207593773"><ele>410.33333333333337</ele><time>2026-04-25T10:21:18.001Z</time></trkpt><trkpt lat="43.4424304558804" lon="12.942028116294557"><ele>415.0</ele><time>2026-04-25T10:21:19.001Z</time></trkpt><trkpt lat="43.44253122118221" lon="12.942252417536379"><ele>415.0</ele><time>2026-04-25T10:21:20.001Z</time></trkpt><trkpt lat="43.442621434998934" lon="12.942480444714164"><ele>415.0</ele><time>2026-04-25T10:21:21.001Z</time></trkpt><trkpt lat="43.44269050836534" lon="12.942713200425692"><ele>415.0</ele><time>2026-04-25T10:21:22.001Z</time></trkpt><trkpt lat="43.44272432534345" lon="12.94295912153704"><ele>415.6666666666667</ele><time>2026-04-25T10:21:23.001Z</time></trkpt><trkpt lat="43.44271253103883" lon="12.943214485771687"><ele>416.33333333333337</ele><time>2026-04-25T10:21:24.001Z</time></trkpt><trkpt lat="43.44267816175144" lon="12.94348856543632"><ele>417.0</ele><time>2026-04-25T10:21:25.001Z</time></trkpt><trkpt lat="43.44265723059637" lon="12.943693182662297"><ele>418.6</ele><time>2026-04-25T10:21:26.001Z</time></trkpt><trkpt lat="43.442629855907505" lon="12.943852213383076"><ele>420.20000000000005</ele><time>2026-04-25T10:21:27.001Z</time></trkpt><trkpt lat="43.44264591926816" lon="12.943978768873695"><ele>421.8</ele><time>2026-04-25T10:21:28Z</time></trkpt><trkpt lat="43.44268540802158" lon="12.94406885158718"><ele>423.4</ele><time>2026-04-25T10:21:29Z</time></trkpt><trkpt lat="43.44274650819767" lon="12.944130830361463"><ele>425.0</ele><time>2026-04-25T10:21:30Z</time></trkpt><trkpt lat="43.442842322214204" lon="12.944105928021818"><ele>425.0</ele><time>2026-04-25T10:21:31Z</time></trkpt><trkpt lat="43.44293101466461" lon="12.944018073654098"><ele>425.0</ele><time>2026-04-25T10:21:32Z</time></trkpt><trkpt lat="43.443007759086015" lon="12.94387054243241"><ele>425.0</ele><time>2026-04-25T10:21:33Z</time></trkpt><trkpt lat="43.443072138143094" lon="12.943696848163379"><ele>425.0</ele><time>2026-04-25T10:21:34Z</time></trkpt><trkpt lat="43.44314666094593" lon="12.943537404001978"><ele>426.3333333333333</ele><time>2026-04-25T10:21:35Z</time></trkpt><trkpt lat="43.44325952741987" lon="12.943392602394574"><ele>427.66666666666663</ele><time>2026-04-25T10:21:36Z</time></trkpt><trkpt lat="43.443384246349034" lon="12.943259470045385"><ele>429.0</ele><time>2026-04-25T10:21:37Z</time></trkpt><trkpt lat="43.44353950687831" lon="12.943157026849146"><ele>429.0</ele><time>2026-04-25T10:21:38Z</time></trkpt><trkpt lat="43.4436931824698" lon="12.943080369627946"><ele>429.0</ele><time>2026-04-25T10:21:39Z</time></trkpt><trkpt lat="43.44383475479722" lon="12.94304112630308"><ele>429.0</ele><time>2026-04-25T10:21:40Z</time></trkpt><trkpt lat="43.44396008401874" lon="12.943036278858793"><ele>429.0</ele><time>2026-04-25T10:21:41Z</time></trkpt><trkpt lat="43.44411625914295" lon="12.9430278402979"><ele>428.0</ele><time>2026-04-25T10:21:42Z</time></trkpt><trkpt lat="43.44427670573025" lon="12.943058597781631"><ele>427.0</ele><time>2026-04-25T10:21:43Z</time></trkpt><trkpt lat="43.44445478041922" lon="12.943098495938745"><ele>426.0</ele><time>2026-04-25T10:21:44Z</time></trkpt><trkpt lat="43.444645351509635" lon="12.943121205586849"><ele>426.0</ele><time>2026-04-25T10:21:45Z</time></trkpt><trkpt lat="43.44483936101026" lon="12.943148359592538"><ele>426.0</ele><time>2026-04-25T10:21:46Z</time></trkpt><trkpt lat="43.44503389309432" lon="12.943186973025336"><ele>426.0</ele><time>2026-04-25T10:21:47Z</time></trkpt><trkpt lat="43.4452251063845" lon="12.94320853264987"><ele>426.0</ele><time>2026-04-25T10:21:48Z</time></trkpt><trkpt lat="43.44541156670947" lon="12.943211569082738"><ele>426.0</ele><time>2026-04-25T10:21:49Z</time></trkpt><trkpt lat="43.445594375367676" lon="12.943216490180449"><ele>426.0</ele><time>2026-04-25T10:21:50Z</time></trkpt><trkpt lat="43.44577115891075" lon="12.943224733520507"><ele>423.66666666666663</ele><time>2026-04-25T10:21:51Z</time></trkpt><trkpt lat="43.445938912479164" lon="12.943230786654748"><ele>421.3333333333333</ele><time>2026-04-25T10:21:52Z</time></trkpt><trkpt lat="43.44609029197856" lon="12.943241484090235"><ele>419.0</ele><time>2026-04-25T10:21:53Z</time></trkpt><trkpt lat="43.4462318856527" lon="12.94328969826696"><ele>415.75</ele><time>2026-04-25T10:21:54Z</time></trkpt><trkpt lat="43.44635901892023" lon="12.943382343425831"><ele>412.5</ele><time>2026-04-25T10:21:55Z</time></trkpt><trkpt lat="43.44647456125056" lon="12.943504734115558"><ele>409.25</ele><time>2026-04-25T10:21:56Z</time></trkpt><trkpt lat="43.44659485046851" lon="12.943629919496518"><ele>406.0</ele><time>2026-04-25T10:21:57Z</time></trkpt><trkpt lat="43.44673000167789" lon="12.943723559917663"><ele>406.0</ele><time>2026-04-25T10:21:58Z</time></trkpt><trkpt lat="43.446878648503215" lon="12.943804617738792"><ele>406.0</ele><time>2026-04-25T10:21:59Z</time></trkpt><trkpt lat="43.44701196878917" lon="12.943920177556754"><ele>406.0</ele><time>2026-04-25T10:22:00Z</time></trkpt><trkpt lat="43.447150227155035" lon="12.94399760072464"><ele>404.5</ele><time>2026-04-25T10:22:01Z</time></trkpt><trkpt lat="43.44726689573844" lon="12.944105663200416"><ele>403.0</ele><time>2026-04-25T10:22:02Z</time></trkpt><trkpt lat="43.44734002889232" lon="12.944271364028328"><ele>401.5</ele><time>2026-04-25T10:22:03Z</time></trkpt><trkpt lat="43.44742188099327" lon="12.944434124217858"><ele>400.0</ele><time>2026-04-25T10:22:04Z</time></trkpt><trkpt lat="43.44746993845376" lon="12.944638020554093"><ele>398.75</ele><time>2026-04-25T10:22:05Z</time></trkpt><trkpt lat="43.44751310050382" lon="12.944830113561226"><ele>397.5</ele><time>2026-04-25T10:22:06Z</time></trkpt><trkpt lat="43.447567728494455" lon="12.944999736674598"><ele>396.25</ele><time>2026-04-25T10:22:07Z</time></trkpt><trkpt lat="43.44762354204592" lon="12.945151704596825"><ele>395.0</ele><time>2026-04-25T10:22:08Z</time></trkpt><trkpt lat="43.44768384268777" lon="12.945282686603091"><ele>392.8</ele><time>2026-04-25T10:22:09Z</time></trkpt><trkpt lat="43.44776125849955" lon="12.94538006856937"><ele>390.6</ele><time>2026-04-25T10:22:10Z</time></trkpt><trkpt lat="43.44785223469037" lon="12.945435027826825"><ele>388.4</ele><time>2026-04-25T10:22:11Z</time></trkpt><trkpt lat="43.447949703071316" lon="12.945437830154"><ele>386.2</ele><time>2026-04-25T10:22:12Z</time></trkpt><trkpt lat="43.44804208577751" lon="12.945390012988522"><ele>384.0</ele><time>2026-04-25T10:22:13Z</time></trkpt><trkpt lat="43.448117797279885" lon="12.945294313989272"><ele>384.0</ele><time>2026-04-25T10:22:14Z</time></trkpt><trkpt lat="43.448160021636994" lon="12.945162449006876"><ele>384.0</ele><time>2026-04-25T10:22:15Z</time></trkpt><trkpt lat="43.44816460119652" lon="12.945021014808093"><ele>384.0</ele><time>2026-04-25T10:22:16Z</time></trkpt><trkpt lat="43.4481336777737" lon="12.944877516881192"><ele>384.0</ele><time>2026-04-25T10:22:17Z</time></trkpt><trkpt lat="43.44806862018107" lon="12.944742581839192"><ele>384.0</ele><time>2026-04-25T10:22:18Z</time></trkpt><trkpt lat="43.44798468524806" lon="12.944600201276561"><ele>386.75</ele><time>2026-04-25T10:22:19.001Z</time></trkpt><trkpt lat="43.44789912651483" lon="12.9444423934474"><ele>389.5</ele><time>2026-04-25T10:22:20.001Z</time></trkpt><trkpt lat="43.44781958495859" lon="12.94426970447096"><ele>392.25</ele><time>2026-04-25T10:22:21.001Z</time></trkpt><trkpt lat="43.447771015787595" lon="12.944101624402053"><ele>395.0</ele><time>2026-04-25T10:22:22.001Z</time></trkpt><trkpt lat="43.44772479354373" lon="12.943952876742504"><ele>396.25</ele><time>2026-04-25T10:22:23.001Z</time></trkpt><trkpt lat="43.44776134623358" lon="12.943779619278626"><ele>397.5</ele><time>2026-04-25T10:22:24.001Z</time></trkpt><trkpt lat="43.4477904889967" lon="12.943581601020119"><ele>398.75</ele><time>2026-04-25T10:22:25.001Z</time></trkpt><trkpt lat="43.447867547150096" lon="12.943387627754044"><ele>400.0</ele><time>2026-04-25T10:22:26.001Z</time></trkpt><trkpt lat="43.44792960822873" lon="12.943191396858092"><ele>393.75</ele><time>2026-04-25T10:22:27.001Z</time></trkpt><trkpt lat="43.44799050304387" lon="12.943020592361385"><ele>387.5</ele><time>2026-04-25T10:22:28.001Z</time></trkpt><trkpt lat="43.44805089083864" lon="12.942856779110485"><ele>381.25</ele><time>2026-04-25T10:22:29.001Z</time></trkpt><trkpt lat="43.44807699269883" lon="12.94268619914606"><ele>375.0</ele><time>2026-04-25T10:22:30.001Z</time></trkpt><trkpt lat="43.448057421548334" lon="12.942487382533946"><ele>375.0</ele><time>2026-04-25T10:22:31.001Z</time></trkpt><trkpt lat="43.44804173398945" lon="12.942270383725829"><ele>375.0</ele><time>2026-04-25T10:22:32.001Z</time></trkpt><trkpt lat="43.448035328661824" lon="12.9420623484448"><ele>375.0</ele><time>2026-04-25T10:22:33.001Z</time></trkpt><trkpt lat="43.44804578266124" lon="12.941871839686293"><ele>375.0</ele><time>2026-04-25T10:22:34.001Z</time></trkpt><trkpt lat="43.44807616492975" lon="12.941697256548418"><ele>376.6</ele><time>2026-04-25T10:22:35.001Z</time></trkpt><trkpt lat="43.44811253310188" lon="12.941557278422204"><ele>378.2</ele><time>2026-04-25T10:22:36.001Z</time></trkpt><trkpt lat="43.448155440367984" lon="12.941450197749981"><ele>379.79999999999995</ele><time>2026-04-25T10:22:37.001Z</time></trkpt><trkpt lat="43.448221600756526" lon="12.941382723074192"><ele>381.4</ele><time>2026-04-25T10:22:38.001Z</time></trkpt><trkpt lat="43.44829583064311" lon="12.941369203885833"><ele>383.0</ele><time>2026-04-25T10:22:39.001Z</time></trkpt><trkpt lat="43.44839349645689" lon="12.941421844429764"><ele>383.0</ele><time>2026-04-25T10:22:40.001Z</time></trkpt><trkpt lat="43.44849143606632" lon="12.94154353182879"><ele>383.0</ele><time>2026-04-25T10:22:41.001Z</time></trkpt><trkpt lat="43.448574932959716" lon="12.941691638366214"><ele>383.0</ele><time>2026-04-25T10:22:42.001Z</time></trkpt><trkpt lat="43.44865536593727" lon="12.941852687141834"><ele>383.0</ele><time>2026-04-25T10:22:43.001Z</time></trkpt><trkpt lat="43.448727076798676" lon="12.94201254601499"><ele>382.0</ele><time>2026-04-25T10:22:44.001Z</time></trkpt><trkpt lat="43.448786335773484" lon="12.942172977128417"><ele>381.0</ele><time>2026-04-25T10:22:45.001Z</time></trkpt><trkpt lat="43.44884490629916" lon="12.94233836369056"><ele>380.0</ele><time>2026-04-25T10:22:46.001Z</time></trkpt><trkpt lat="43.44889904605475" lon="12.942519802646844"><ele>379.0</ele><time>2026-04-25T10:22:47.001Z</time></trkpt><trkpt lat="43.44896115981995" lon="12.94269977031168"><ele>379.0</ele><time>2026-04-25T10:22:48.001Z</time></trkpt><trkpt lat="43.449022323329615" lon="12.942881157008117"><ele>379.0</ele><time>2026-04-25T10:22:49.001Z</time></trkpt><trkpt lat="43.449081840656014" lon="12.943053378821366"><ele>379.0</ele><time>2026-04-25T10:22:50.001Z</time></trkpt><trkpt lat="43.44914930662195" lon="12.943213758266056"><ele>379.0</ele><time>2026-04-25T10:22:51.001Z</time></trkpt><trkpt lat="43.44924311113039" lon="12.943353558096534"><ele>372.66666666666663</ele><time>2026-04-25T10:22:52.001Z</time></trkpt><trkpt lat="43.4493479773451" lon="12.943493324336828"><ele>366.3333333333333</ele><time>2026-04-25T10:22:53.001Z</time></trkpt><trkpt lat="43.4494646488019" lon="12.943632950202066"><ele>360.0</ele><time>2026-04-25T10:22:54.001Z</time></trkpt><trkpt lat="43.449587587160195" lon="12.943778914187993"><ele>367.6666666666667</ele><time>2026-04-25T10:22:55.001Z</time></trkpt><trkpt lat="43.44971381652592" lon="12.943928761957492"><ele>375.33333333333337</ele><time>2026-04-25T10:22:56.001Z</time></trkpt><trkpt lat="43.449827492453494" lon="12.944069526082686"><ele>383.0</ele><time>2026-04-25T10:22:57.001Z</time></trkpt><trkpt lat="43.449944292444094" lon="12.944183622992956"><ele>381.5</ele><time>2026-04-25T10:22:58.001Z</time></trkpt><trkpt lat="43.450068175532316" lon="12.944273395864428"><ele>380.0</ele><time>2026-04-25T10:22:59.001Z</time></trkpt><trkpt lat="43.45021048218102" lon="12.944337579176905"><ele>378.5</ele><time>2026-04-25T10:23:00.001Z</time></trkpt><trkpt lat="43.45036624741623" lon="12.944363410103065"><ele>377.0</ele><time>2026-04-25T10:23:01.001Z</time></trkpt><trkpt lat="43.45052830914309" lon="12.944363256571833"><ele>377.0</ele><time>2026-04-25T10:23:02.001Z</time></trkpt><trkpt lat="43.45069101504267" lon="12.944353686056878"><ele>377.0</ele><time>2026-04-25T10:23:03.001Z</time></trkpt><trkpt lat="43.45085407746295" lon="12.944342641398453"><ele>377.0</ele><time>2026-04-25T10:23:04.001Z</time></trkpt><trkpt lat="43.45101595906992" lon="12.944356895881384"><ele>377.0</ele><time>2026-04-25T10:23:05Z</time></trkpt><trkpt lat="43.4511784259579" lon="12.944391347683359"><ele>377.0</ele><time>2026-04-25T10:23:06Z</time></trkpt><trkpt lat="43.45132484399147" lon="12.944398802245075"><ele>377.0</ele><time>2026-04-25T10:23:07Z</time></trkpt><trkpt lat="43.45144851870726" lon="12.944355689376605"><ele>377.0</ele><time>2026-04-25T10:23:08Z</time></trkpt><trkpt lat="43.45157334950836" lon="12.944268326601778"><ele>381.25</ele><time>2026-04-25T10:23:09Z</time></trkpt><trkpt lat="43.45170058953809" lon="12.944156773173557"><ele>385.5</ele><time>2026-04-25T10:23:10Z</time></trkpt><trkpt lat="43.451828947945614" lon="12.944055999273314"><ele>389.75</ele><time>2026-04-25T10:23:11Z</time></trkpt><trkpt lat="43.451954633339646" lon="12.943969753144886"><ele>394.0</ele><time>2026-04-25T10:23:12Z</time></trkpt><trkpt lat="43.45206828562926" lon="12.94390941415708"><ele>395.5</ele><time>2026-04-25T10:23:13Z</time></trkpt><trkpt lat="43.45218169353354" lon="12.94389566577322"><ele>397.0</ele><time>2026-04-25T10:23:14Z</time></trkpt><trkpt lat="43.452286464345526" lon="12.9439394170349"><ele>398.5</ele><time>2026-04-25T10:23:15Z</time></trkpt><trkpt lat="43.45238112572052" lon="12.94402462502333"><ele>400.0</ele><time>2026-04-25T10:23:16Z</time></trkpt><trkpt lat="43.45247386938532" lon="12.944129830026121"><ele>401.8</ele><time>2026-04-25T10:23:17Z</time></trkpt><trkpt lat="43.45257296088884" lon="12.944230853212584"><ele>403.6</ele><time>2026-04-25T10:23:18Z</time></trkpt><trkpt lat="43.45268223696271" lon="12.944282458204233"><ele>405.4</ele><time>2026-04-25T10:23:19Z</time></trkpt><trkpt lat="43.4527844776862" lon="12.944287095774175"><ele>407.2</ele><time>2026-04-25T10:23:20Z</time></trkpt><trkpt lat="43.452887931130974" lon="12.944252507292697"><ele>409.0</ele><time>2026-04-25T10:23:21Z</time></trkpt><trkpt lat="43.45298889661991" lon="12.944178854686886"><ele>409.0</ele><time>2026-04-25T10:23:22Z</time></trkpt><trkpt lat="43.45308930177765" lon="12.944073532921017"><ele>409.0</ele><time>2026-04-25T10:23:23Z</time></trkpt><trkpt lat="43.45321039853457" lon="12.944016466323918"><ele>409.0</ele><time>2026-04-25T10:23:24Z</time></trkpt><trkpt lat="43.45332067216436" lon="12.943967256482603"><ele>409.0</ele><time>2026-04-25T10:23:25Z</time></trkpt><trkpt lat="43.45344182215541" lon="12.943999731072125"><ele>409.0</ele><time>2026-04-25T10:23:26Z</time></trkpt><trkpt lat="43.45354225321776" lon="12.94408862275401"><ele>409.0</ele><time>2026-04-25T10:23:27Z</time></trkpt><trkpt lat="43.45363326883903" lon="12.944190007503183"><ele>409.0</ele><time>2026-04-25T10:23:28Z</time></trkpt><trkpt lat="43.45373249781484" lon="12.94432042660465"><ele>409.0</ele><time>2026-04-25T10:23:29Z</time></trkpt><trkpt lat="43.45381793841856" lon="12.944472032437373"><ele>408.25</ele><time>2026-04-25T10:23:30Z</time></trkpt><trkpt lat="43.45389758572702" lon="12.94463822410139"><ele>407.5</ele><time>2026-04-25T10:23:31Z</time></trkpt><trkpt lat="43.45397588142483" lon="12.944810959329866"><ele>406.75</ele><time>2026-04-25T10:23:32Z</time></trkpt><trkpt lat="43.454076267433535" lon="12.944957095639461"><ele>406.0</ele><time>2026-04-25T10:23:33Z</time></trkpt><trkpt lat="43.45419429553104" lon="12.945086438435203"><ele>406.0</ele><time>2026-04-25T10:23:34Z</time></trkpt><trkpt lat="43.454304674409705" lon="12.945233999557136"><ele>406.0</ele><time>2026-04-25T10:23:35Z</time></trkpt><trkpt lat="43.45439652640541" lon="12.945395481785454"><ele>406.0</ele><time>2026-04-25T10:23:36Z</time></trkpt><trkpt lat="43.45449767687861" lon="12.945530210054274"><ele>406.0</ele><time>2026-04-25T10:23:37Z</time></trkpt><trkpt lat="43.454620436756514" lon="12.945632824541843"><ele>413.33333333333337</ele><time>2026-04-25T10:23:38Z</time></trkpt><trkpt lat="43.454758539708706" lon="12.945715147827867"><ele>420.66666666666663</ele><time>2026-04-25T10:23:39Z</time></trkpt><trkpt lat="43.454907077735236" lon="12.945779661924021"><ele>428.0</ele><time>2026-04-25T10:23:40Z</time></trkpt><trkpt lat="43.45505194392829" lon="12.945833867952302"><ele>428.0</ele><time>2026-04-25T10:23:41Z</time></trkpt><trkpt lat="43.455197573561485" lon="12.94586312753173"><ele>428.0</ele><time>2026-04-25T10:23:42Z</time></trkpt><trkpt lat="43.45534404252763" lon="12.9459049507685"><ele>428.0</ele><time>2026-04-25T10:23:43Z</time></trkpt><trkpt lat="43.455488238862124" lon="12.945967874898123"><ele>428.0</ele><time>2026-04-25T10:23:44Z</time></trkpt><trkpt lat="43.45563742210214" lon="12.946020813333659"><ele>429.3333333333333</ele><time>2026-04-25T10:23:45Z</time></trkpt><trkpt lat="43.455788920230766" lon="12.946067936696958"><ele>430.66666666666663</ele><time>2026-04-25T10:23:46Z</time></trkpt><trkpt lat="43.455946035620364" lon="12.946109202367802"><ele>432.0</ele><time>2026-04-25T10:23:47Z</time></trkpt><trkpt lat="43.456100775897134" lon="12.946150983990494"><ele>432.0</ele><time>2026-04-25T10:23:48Z</time></trkpt><trkpt lat="43.45625339176779" lon="12.946202688303956"><ele>432.0</ele><time>2026-04-25T10:23:49Z</time></trkpt><trkpt lat="43.456389986260156" lon="12.946262896832474"><ele>432.0</ele><time>2026-04-25T10:23:50Z</time></trkpt><trkpt lat="43.456503876609275" lon="12.94636284526455"><ele>432.0</ele><time>2026-04-25T10:23:51Z</time></trkpt><trkpt lat="43.45659656971554" lon="12.946505350795393"><ele>435.0</ele><time>2026-04-25T10:23:52Z</time></trkpt><trkpt lat="43.45666168457319" lon="12.946675509838945"><ele>438.0</ele><time>2026-04-25T10:23:53Z</time></trkpt><trkpt lat="43.456721622248516" lon="12.946818417190038"><ele>441.0</ele><time>2026-04-25T10:23:54Z</time></trkpt><trkpt lat="43.45679820109865" lon="12.946920666068028"><ele>444.0</ele><time>2026-04-25T10:23:55Z</time></trkpt><trkpt lat="43.45689807350959" lon="12.946962665285222"><ele>444.0</ele><time>2026-04-25T10:23:56Z</time></trkpt><trkpt lat="43.456998612302456" lon="12.946955534356729"><ele>444.0</ele><time>2026-04-25T10:23:57Z</time></trkpt><trkpt lat="43.4570744712121" lon="12.946881230541557"><ele>444.0</ele><time>2026-04-25T10:23:58Z</time></trkpt><trkpt lat="43.45712089815043" lon="12.946763196976345"><ele>444.0</ele><time>2026-04-25T10:23:59Z</time></trkpt><trkpt lat="43.45712014910026" lon="12.946620177595088"><ele>444.0</ele><time>2026-04-25T10:24:00Z</time></trkpt><trkpt lat="43.457090055984445" lon="12.946478764868951"><ele>444.0</ele><time>2026-04-25T10:24:01Z</time></trkpt><trkpt lat="43.457023014084626" lon="12.946339836879954"><ele>444.0</ele><time>2026-04-25T10:24:02Z</time></trkpt><trkpt lat="43.45693976155708" lon="12.946214543601812"><ele>444.0</ele><time>2026-04-25T10:24:03Z</time></trkpt><trkpt lat="43.45687855764111" lon="12.946081690555879"><ele>444.0</ele><time>2026-04-25T10:24:04Z</time></trkpt><trkpt lat="43.456833908189935" lon="12.945988925159696"><ele>444.0</ele><time>2026-04-25T10:24:05Z</time></trkpt><trkpt lat="43.45681396335156" lon="12.945902638351201"><ele>444.0</ele><time>2026-04-25T10:24:07Z</time></trkpt><trkpt lat="43.45685465831523" lon="12.945832316828545"><ele>444.0</ele><time>2026-04-25T10:24:09Z</time></trkpt><trkpt lat="43.45696826261344" lon="12.945815179936618"><ele>444.0</ele><time>2026-04-25T10:24:11Z</time></trkpt><trkpt lat="43.45703760318446" lon="12.945858972901988"><ele>444.0</ele><time>2026-04-25T10:24:12Z</time></trkpt><trkpt lat="43.45709188850159" lon="12.945923324356452"><ele>444.0</ele><time>2026-04-25T10:24:13Z</time></trkpt><trkpt lat="43.45715365004423" lon="12.945981375053163"><ele>444.0</ele><time>2026-04-25T10:24:14Z</time></trkpt><trkpt lat="43.457217161809076" lon="12.946045414602178"><ele>446.3333333333333</ele><time>2026-04-25T10:24:15Z</time></trkpt><trkpt lat="43.4572783401152" lon="12.946116240134351"><ele>448.66666666666663</ele><time>2026-04-25T10:24:16Z</time></trkpt><trkpt lat="43.45735048321988" lon="12.946182298980327"><ele>451.0</ele><time>2026-04-25T10:24:17Z</time></trkpt><trkpt lat="43.45741905756894" lon="12.946250505905091"><ele>453.3333333333333</ele><time>2026-04-25T10:24:18Z</time></trkpt><trkpt lat="43.45747945676782" lon="12.946321932835106"><ele>455.66666666666663</ele><time>2026-04-25T10:24:19Z</time></trkpt><trkpt lat="43.45753904612059" lon="12.946389358956614"><ele>458.0</ele><time>2026-04-25T10:24:20Z</time></trkpt><trkpt lat="43.45759815238325" lon="12.946455078104357"><ele>458.0</ele><time>2026-04-25T10:24:21Z</time></trkpt><trkpt lat="43.45765797611852" lon="12.946529661145288"><ele>457.99999999999994</ele><time>2026-04-25T10:24:22Z</time></trkpt><trkpt lat="43.45771263943921" lon="12.946631125835038"><ele>457.99999999999994</ele><time>2026-04-25T10:24:23Z</time></trkpt><trkpt lat="43.457770196266644" lon="12.946736716280787"><ele>458.0</ele><time>2026-04-25T10:24:24Z</time></trkpt><trkpt lat="43.45782469878046" lon="12.946844402451422"><ele>458.0</ele><time>2026-04-25T10:24:25.001Z</time></trkpt><trkpt lat="43.457875947147606" lon="12.946942404200149"><ele>458.79999999999995</ele><time>2026-04-25T10:24:26.001Z</time></trkpt><trkpt lat="43.4579171549353" lon="12.94702422340009"><ele>459.59999999999997</ele><time>2026-04-25T10:24:27.001Z</time></trkpt><trkpt lat="43.45796375248506" lon="12.947099388432576"><ele>460.40000000000003</ele><time>2026-04-25T10:24:28.001Z</time></trkpt><trkpt lat="43.45805097603625" lon="12.94718843923101"><ele>461.20000000000005</ele><time>2026-04-25T10:24:30.001Z</time></trkpt><trkpt lat="43.45811702546064" lon="12.947218994076717"><ele>462.0</ele><time>2026-04-25T10:24:32.001Z</time></trkpt><trkpt lat="43.458245025599794" lon="12.947242796584085"><ele>462.5</ele><time>2026-04-25T10:24:34.001Z</time></trkpt><trkpt lat="43.458346226750386" lon="12.947233772704038"><ele>463.0</ele><time>2026-04-25T10:24:35.001Z</time></trkpt><trkpt lat="43.458458514094794" lon="12.947209480259474"><ele>463.5</ele><time>2026-04-25T10:24:36.001Z</time></trkpt><trkpt lat="43.45857983868746" lon="12.947179696606858"><ele>464.0</ele><time>2026-04-25T10:24:37.001Z</time></trkpt><trkpt lat="43.458714787982025" lon="12.947139045103626"><ele>462.75</ele><time>2026-04-25T10:24:38Z</time></trkpt><trkpt lat="43.4588555445151" lon="12.94709914202838"><ele>461.5</ele><time>2026-04-25T10:24:39Z</time></trkpt><trkpt lat="43.45900432159368" lon="12.947066899206737"><ele>460.25</ele><time>2026-04-25T10:24:40Z</time></trkpt><trkpt lat="43.45915280326522" lon="12.94703944876358"><ele>459.0</ele><time>2026-04-25T10:24:41Z</time></trkpt><trkpt lat="43.459302288362046" lon="12.947027620602054"><ele>459.0</ele><time>2026-04-25T10:24:42Z</time></trkpt><trkpt lat="43.459433809095856" lon="12.947010331333496"><ele>459.0</ele><time>2026-04-25T10:24:43Z</time></trkpt><trkpt lat="43.45956439750182" lon="12.94695442957207"><ele>459.0</ele><time>2026-04-25T10:24:44Z</time></trkpt><trkpt lat="43.459688127340804" lon="12.946875776606266"><ele>459.0</ele><time>2026-04-25T10:24:45Z</time></trkpt><trkpt lat="43.45981613656636" lon="12.946797857686459"><ele>456.33333333333337</ele><time>2026-04-25T10:24:46Z</time></trkpt><trkpt lat="43.4599569350774" lon="12.946748184560162"><ele>453.6666666666667</ele><time>2026-04-25T10:24:47Z</time></trkpt><trkpt lat="43.460107182880265" lon="12.946730251371946"><ele>451.0</ele><time>2026-04-25T10:24:48Z</time></trkpt><trkpt lat="43.460265756474364" lon="12.946741437575755"><ele>451.0</ele><time>2026-04-25T10:24:49Z</time></trkpt><trkpt lat="43.46042096142616" lon="12.946793594050963"><ele>451.0</ele><time>2026-04-25T10:24:50Z</time></trkpt><trkpt lat="43.460577834493535" lon="12.94686068360685"><ele>451.0</ele><time>2026-04-25T10:24:51Z</time></trkpt><trkpt lat="43.46072575162433" lon="12.946906953384136"><ele>451.75</ele><time>2026-04-25T10:24:52Z</time></trkpt><trkpt lat="43.460859534183264" lon="12.946934220219536"><ele>452.5</ele><time>2026-04-25T10:24:53Z</time></trkpt><trkpt lat="43.46098170311167" lon="12.946902545083695"><ele>453.25</ele><time>2026-04-25T10:24:54Z</time></trkpt><trkpt lat="43.46109101097253" lon="12.946818064235256"><ele>454.0</ele><time>2026-04-25T10:24:55Z</time></trkpt><trkpt lat="43.461180034546516" lon="12.946685507400096"><ele>458.0</ele><time>2026-04-25T10:24:56Z</time></trkpt><trkpt lat="43.46124983957413" lon="12.946502326652745"><ele>462.0</ele><time>2026-04-25T10:24:57Z</time></trkpt><trkpt lat="43.46131967691903" lon="12.946318081045453"><ele>466.0</ele><time>2026-04-25T10:24:58Z</time></trkpt><trkpt lat="43.46140526160011" lon="12.946165897430461"><ele>470.0</ele><time>2026-04-25T10:24:59Z</time></trkpt><trkpt lat="43.46148733868457" lon="12.946034932660552"><ele>470.0</ele><time>2026-04-25T10:25:00Z</time></trkpt><trkpt lat="43.46156675991881" lon="12.945934229591579"><ele>470.0</ele><time>2026-04-25T10:25:01Z</time></trkpt><trkpt lat="43.46165416426614" lon="12.94585672645259"><ele>470.0</ele><time>2026-04-25T10:25:02Z</time></trkpt><trkpt lat="43.46177144768743" lon="12.945856373593077"><ele>470.0</ele><time>2026-04-25T10:25:03Z</time></trkpt><trkpt lat="43.461887311029585" lon="12.945916209816245"><ele>470.0</ele><time>2026-04-25T10:25:04Z</time></trkpt><trkpt lat="43.461971649688316" lon="12.946057476686283"><ele>470.0</ele><time>2026-04-25T10:25:05Z</time></trkpt><trkpt lat="43.462080293569784" lon="12.94619051546505"><ele>470.0</ele><time>2026-04-25T10:25:06Z</time></trkpt><trkpt lat="43.46217528540136" lon="12.946361830676121"><ele>470.0</ele><time>2026-04-25T10:25:07Z</time></trkpt><trkpt lat="43.462280619296195" lon="12.946518067747904"><ele>470.3333333333333</ele><time>2026-04-25T10:25:08Z</time></trkpt><trkpt lat="43.46241019098849" lon="12.94664707173908"><ele>470.66666666666663</ele><time>2026-04-25T10:25:09Z</time></trkpt><trkpt lat="43.46256188607628" lon="12.946757604736325"><ele>471.0</ele><time>2026-04-25T10:25:10Z</time></trkpt><trkpt lat="43.46271050412454" lon="12.946886249310909"><ele>471.0</ele><time>2026-04-25T10:25:11Z</time></trkpt><trkpt lat="43.46282912714401" lon="12.94705092742901"><ele>471.0</ele><time>2026-04-25T10:25:12Z</time></trkpt><trkpt lat="43.46294235387142" lon="12.947210434320384"><ele>471.0</ele><time>2026-04-25T10:25:13Z</time></trkpt><trkpt lat="43.46307050956054" lon="12.947336163475034"><ele>475.0</ele><time>2026-04-25T10:25:14Z</time></trkpt><trkpt lat="43.46322524263785" lon="12.947407428996241"><ele>479.0</ele><time>2026-04-25T10:25:15Z</time></trkpt><trkpt lat="43.463384471454226" lon="12.94748325209719"><ele>483.0</ele><time>2026-04-25T10:25:16Z</time></trkpt><trkpt lat="43.46350948327309" lon="12.947645056284575"><ele>483.0</ele><time>2026-04-25T10:25:17Z</time></trkpt><trkpt lat="43.463627943575524" lon="12.947820755808555"><ele>483.0</ele><time>2026-04-25T10:25:18Z</time></trkpt><trkpt lat="43.46375279279544" lon="12.947981634938948"><ele>483.0</ele><time>2026-04-25T10:25:19Z</time></trkpt><trkpt lat="43.46388073446208" lon="12.948121794007655"><ele>482.66666666666663</ele><time>2026-04-25T10:25:20Z</time></trkpt><trkpt lat="43.464026999620444" lon="12.948238499947093"><ele>482.3333333333333</ele><time>2026-04-25T10:25:21Z</time></trkpt><trkpt lat="43.46417410945042" lon="12.948353881535612"><ele>482.0</ele><time>2026-04-25T10:25:22Z</time></trkpt><trkpt lat="43.46430304749933" lon="12.948477505886459"><ele>482.0</ele><time>2026-04-25T10:25:23Z</time></trkpt><trkpt lat="43.46443161135356" lon="12.948593590718355"><ele>482.0</ele><time>2026-04-25T10:25:24Z</time></trkpt><trkpt lat="43.46458718380013" lon="12.948669692820891"><ele>482.0</ele><time>2026-04-25T10:25:25Z</time></trkpt><trkpt lat="43.46475257373823" lon="12.948749127761992"><ele>485.0</ele><time>2026-04-25T10:25:26Z</time></trkpt><trkpt lat="43.46491641703956" lon="12.948853788872283"><ele>488.0</ele><time>2026-04-25T10:25:27Z</time></trkpt><trkpt lat="43.4650638512872" lon="12.94899811356392"><ele>491.0</ele><time>2026-04-25T10:25:28Z</time></trkpt><trkpt lat="43.46519870578933" lon="12.949164669841082"><ele>490.75</ele><time>2026-04-25T10:25:29Z</time></trkpt><trkpt lat="43.46531482751749" lon="12.949319124308625"><ele>490.5</ele><time>2026-04-25T10:25:30Z</time></trkpt><trkpt lat="43.46541666684511" lon="12.949448877398165"><ele>490.25</ele><time>2026-04-25T10:25:31Z</time></trkpt><trkpt lat="43.46551850617182" lon="12.949551441102495"><ele>490.0</ele><time>2026-04-25T10:25:32Z</time></trkpt><trkpt lat="43.465606967428606" lon="12.94961753432451"><ele>490.0</ele><time>2026-04-25T10:25:33Z</time></trkpt><trkpt lat="43.46568973904448" lon="12.949653275440992"><ele>490.0</ele><time>2026-04-25T10:25:34Z</time></trkpt><trkpt lat="43.465775288506535" lon="12.949708879025836"><ele>490.0</ele><time>2026-04-25T10:25:35Z</time></trkpt><trkpt lat="43.46580847816605" lon="12.949865559277818"><ele>490.0</ele><time>2026-04-25T10:25:36Z</time></trkpt><trkpt lat="43.465861569733036" lon="12.949984190041606"><ele>490.0</ele><time>2026-04-25T10:25:37Z</time></trkpt><trkpt lat="43.465924247197904" lon="12.95010953423606"><ele>490.5</ele><time>2026-04-25T10:25:38Z</time></trkpt><trkpt lat="43.46597516902305" lon="12.950240622794746"><ele>491.0</ele><time>2026-04-25T10:25:39Z</time></trkpt><trkpt lat="43.46602429309767" lon="12.950482021032201"><ele>491.5</ele><time>2026-04-25T10:25:41Z</time></trkpt><trkpt lat="43.46601221498748" lon="12.950591486766925"><ele>492.0</ele><time>2026-04-25T10:25:42Z</time></trkpt><trkpt lat="43.46597608280422" lon="12.95070767261166"><ele>492.0</ele><time>2026-04-25T10:25:43Z</time></trkpt><trkpt lat="43.46588189946458" lon="12.950792978924229"><ele>492.0</ele><time>2026-04-25T10:25:44Z</time></trkpt><trkpt lat="43.46578748097766" lon="12.950879469187424"><ele>492.0</ele><time>2026-04-25T10:25:45Z</time></trkpt><trkpt lat="43.46567769404703" lon="12.950955693485378"><ele>492.0</ele><time>2026-04-25T10:25:46Z</time></trkpt><trkpt lat="43.46555793459" lon="12.95104884311716"><ele>490.75</ele><time>2026-04-25T10:25:47Z</time></trkpt><trkpt lat="43.46545374328845" lon="12.95115946305178"><ele>489.5</ele><time>2026-04-25T10:25:48Z</time></trkpt><trkpt lat="43.46536003857898" lon="12.951299791431174"><ele>488.25</ele><time>2026-04-25T10:25:49Z</time></trkpt><trkpt lat="43.46528641763552" lon="12.95146657972312"><ele>487.0</ele><time>2026-04-25T10:25:50Z</time></trkpt><trkpt lat="43.46521497076074" lon="12.95163747701525"><ele>493.5</ele><time>2026-04-25T10:25:51Z</time></trkpt><trkpt lat="43.46514401605479" lon="12.951785893487807"><ele>500.0</ele><time>2026-04-25T10:25:52Z</time></trkpt><trkpt lat="43.46504859431912" lon="12.951908293905305"><ele>506.5</ele><time>2026-04-25T10:25:53Z</time></trkpt><trkpt lat="43.46493113654414" lon="12.951951514048911"><ele>513.0</ele><time>2026-04-25T10:25:54Z</time></trkpt><trkpt lat="43.46480335737724" lon="12.951999715893564"><ele>513.0</ele><time>2026-04-25T10:25:55Z</time></trkpt><trkpt lat="43.464685528891586" lon="12.95204588348998"><ele>513.0</ele><time>2026-04-25T10:25:56Z</time></trkpt><trkpt lat="43.46458607137088" lon="12.952085770464546"><ele>513.0</ele><time>2026-04-25T10:25:57Z</time></trkpt><trkpt lat="43.464495890926585" lon="12.952133565114229"><ele>513.0</ele><time>2026-04-25T10:25:58Z</time></trkpt><trkpt lat="43.46439752922454" lon="12.952148294572403"><ele>513.0</ele><time>2026-04-25T10:25:59Z</time></trkpt><trkpt lat="43.4642945055654" lon="12.952189374972974"><ele>510.25</ele><time>2026-04-25T10:26:00Z</time></trkpt><trkpt lat="43.464177853175336" lon="12.952230416261319"><ele>507.5</ele><time>2026-04-25T10:26:01Z</time></trkpt><trkpt lat="43.464044565238794" lon="12.952298157935234"><ele>504.75</ele><time>2026-04-25T10:26:02Z</time></trkpt><trkpt lat="43.4639133722246" lon="12.952377703327368"><ele>502.0</ele><time>2026-04-25T10:26:03Z</time></trkpt><trkpt lat="43.463783132469274" lon="12.952487196566612"><ele>501.6666666666667</ele><time>2026-04-25T10:26:04Z</time></trkpt><trkpt lat="43.46365717345968" lon="12.952618745741692"><ele>501.33333333333337</ele><time>2026-04-25T10:26:05Z</time></trkpt><trkpt lat="43.46352745713931" lon="12.952758188974032"><ele>501.0</ele><time>2026-04-25T10:26:06Z</time></trkpt><trkpt lat="43.4634005442365" lon="12.95289476861178"><ele>501.0</ele><time>2026-04-25T10:26:07Z</time></trkpt><trkpt lat="43.463284896191404" lon="12.953024532571431"><ele>501.0</ele><time>2026-04-25T10:26:08Z</time></trkpt><trkpt lat="43.4631928114886" lon="12.953134063915943"><ele>501.0</ele><time>2026-04-25T10:26:09Z</time></trkpt><trkpt lat="43.46312116966587" lon="12.953250619795046"><ele>501.0</ele><time>2026-04-25T10:26:10Z</time></trkpt><trkpt lat="43.463088390692" lon="12.953387105722715"><ele>500.4</ele><time>2026-04-25T10:26:11Z</time></trkpt><trkpt lat="43.463097624477854" lon="12.953532494521005"><ele>499.8</ele><time>2026-04-25T10:26:12Z</time></trkpt><trkpt lat="43.46314164071246" lon="12.953672128493023"><ele>499.19999999999993</ele><time>2026-04-25T10:26:13Z</time></trkpt><trkpt lat="43.46322096402298" lon="12.953763185284075"><ele>498.59999999999997</ele><time>2026-04-25T10:26:14Z</time></trkpt><trkpt lat="43.46331005777937" lon="12.953830743003472"><ele>498.0</ele><time>2026-04-25T10:26:15Z</time></trkpt><trkpt lat="43.46340914802815" lon="12.953897925512928"><ele>498.0</ele><time>2026-04-25T10:26:16Z</time></trkpt><trkpt lat="43.46351140016403" lon="12.953982619472136"><ele>498.0</ele><time>2026-04-25T10:26:17Z</time></trkpt><trkpt lat="43.46361479808425" lon="12.954080173626734"><ele>498.0</ele><time>2026-04-25T10:26:18Z</time></trkpt><trkpt lat="43.46371462846905" lon="12.954187300994002"><ele>498.0</ele><time>2026-04-25T10:26:19Z</time></trkpt><trkpt lat="43.46380468276699" lon="12.954300505911295"><ele>507.5</ele><time>2026-04-25T10:26:20Z</time></trkpt><trkpt lat="43.46388635503491" lon="12.954431530891176"><ele>517.0</ele><time>2026-04-25T10:26:21Z</time></trkpt><trkpt lat="43.46394825757713" lon="12.95458974890743"><ele>526.5</ele><time>2026-04-25T10:26:22Z</time></trkpt><trkpt lat="43.46399995277863" lon="12.954748104728761"><ele>536.0</ele><time>2026-04-25T10:26:23Z</time></trkpt><trkpt lat="43.46403798412452" lon="12.95487407194658"><ele>536.0</ele><time>2026-04-25T10:26:24Z</time></trkpt><trkpt lat="43.46405923686827" lon="12.954980045398646"><ele>536.0</ele><time>2026-04-25T10:26:25Z</time></trkpt><trkpt lat="43.464053477043606" lon="12.955072919763708"><ele>536.0</ele><time>2026-04-25T10:26:26Z</time></trkpt><trkpt lat="43.46401301463844" lon="12.955144221131684"><ele>536.0</ele><time>2026-04-25T10:26:27Z</time></trkpt><trkpt lat="43.46394333181707" lon="12.955194758724115"><ele>536.0</ele><time>2026-04-25T10:26:28Z</time></trkpt><trkpt lat="43.46384332104452" lon="12.955171304770802"><ele>536.0</ele><time>2026-04-25T10:26:29Z</time></trkpt><trkpt lat="43.463748799602605" lon="12.955207997012822"><ele>536.5</ele><time>2026-04-25T10:26:30Z</time></trkpt><trkpt lat="43.463665660539974" lon="12.955268373591927"><ele>537.0</ele><time>2026-04-25T10:26:31Z</time></trkpt><trkpt lat="43.46360243517917" lon="12.95541501616661"><ele>537.5</ele><time>2026-04-25T10:26:32Z</time></trkpt><trkpt lat="43.463518334912806" lon="12.95554158329933"><ele>538.0</ele><time>2026-04-25T10:26:33Z</time></trkpt><trkpt lat="43.463442446629465" lon="12.955655819676622"><ele>538.0</ele><time>2026-04-25T10:26:34Z</time></trkpt><trkpt lat="43.46334970556303" lon="12.955758157571859"><ele>538.0</ele><time>2026-04-25T10:26:35Z</time></trkpt><trkpt lat="43.463238743374475" lon="12.955833778217674"><ele>538.0</ele><time>2026-04-25T10:26:36Z</time></trkpt><trkpt lat="43.463112242414674" lon="12.955874041758939"><ele>538.0</ele><time>2026-04-25T10:26:37Z</time></trkpt><trkpt lat="43.46298596391695" lon="12.955930421122373"><ele>540.75</ele><time>2026-04-25T10:26:38Z</time></trkpt><trkpt lat="43.46286203595992" lon="12.956013485971534"><ele>543.5</ele><time>2026-04-25T10:26:39Z</time></trkpt><trkpt lat="43.46274054532665" lon="12.956097461314721"><ele>546.25</ele><time>2026-04-25T10:26:40Z</time></trkpt><trkpt lat="43.462613147924046" lon="12.956167157792375"><ele>549.0</ele><time>2026-04-25T10:26:41Z</time></trkpt><trkpt lat="43.4624887195395" lon="12.95624731554481"><ele>549.0</ele><time>2026-04-25T10:26:42Z</time></trkpt><trkpt lat="43.46237129496862" lon="12.956336961111921"><ele>549.0</ele><time>2026-04-25T10:26:43Z</time></trkpt><trkpt lat="43.46226325636793" lon="12.956430847198154"><ele>549.0</ele><time>2026-04-25T10:26:44Z</time></trkpt><trkpt lat="43.462151871719115" lon="12.956538608165927"><ele>549.0</ele><time>2026-04-25T10:26:45Z</time></trkpt><trkpt lat="43.46205258121637" lon="12.95666008029798"><ele>552.75</ele><time>2026-04-25T10:26:46Z</time></trkpt><trkpt lat="43.461947770735215" lon="12.956767482264436"><ele>556.5</ele><time>2026-04-25T10:26:47Z</time></trkpt><trkpt lat="43.461828945640335" lon="12.956851993385667"><ele>560.25</ele><time>2026-04-25T10:26:48Z</time></trkpt><trkpt lat="43.46169429426996" lon="12.956901050506756"><ele>564.0</ele><time>2026-04-25T10:26:49Z</time></trkpt><trkpt lat="43.46155047470629" lon="12.95690760502398"><ele>564.0</ele><time>2026-04-25T10:26:50Z</time></trkpt><trkpt lat="43.461413654155976" lon="12.956930981022143"><ele>564.0</ele><time>2026-04-25T10:26:51Z</time></trkpt><trkpt lat="43.46128767790015" lon="12.957019377635909"><ele>564.0</ele><time>2026-04-25T10:26:52Z</time></trkpt><trkpt lat="43.46115739249756" lon="12.957138190827969"><ele>564.0</ele><time>2026-04-25T10:26:53Z</time></trkpt><trkpt lat="43.4610241492697" lon="12.957243522610671"><ele>562.6666666666666</ele><time>2026-04-25T10:26:54Z</time></trkpt><trkpt lat="43.46088237516717" lon="12.957318826380146"><ele>561.3333333333333</ele><time>2026-04-25T10:26:55Z</time></trkpt><trkpt lat="43.460737505476075" lon="12.957384473777008"><ele>560.0</ele><time>2026-04-25T10:26:56Z</time></trkpt><trkpt lat="43.4606059997295" lon="12.95747712991587"><ele>564.0</ele><time>2026-04-25T10:26:57Z</time></trkpt><trkpt lat="43.46047478354408" lon="12.95759766077802"><ele>568.0</ele><time>2026-04-25T10:26:58Z</time></trkpt><trkpt lat="43.46034156156732" lon="12.957722254622805"><ele>572.0</ele><time>2026-04-25T10:26:59Z</time></trkpt><trkpt lat="43.46020343755674" lon="12.95784063770644"><ele>572.0</ele><time>2026-04-25T10:27:00Z</time></trkpt><trkpt lat="43.46006594841964" lon="12.957947305694141"><ele>572.0</ele><time>2026-04-25T10:27:01Z</time></trkpt><trkpt lat="43.459922043310115" lon="12.958044900995676"><ele>572.0</ele><time>2026-04-25T10:27:02Z</time></trkpt><trkpt lat="43.459776075204495" lon="12.958152549706801"><ele>572.0</ele><time>2026-04-25T10:27:03Z</time></trkpt><trkpt lat="43.45964617451535" lon="12.958272069567562"><ele>572.0</ele><time>2026-04-25T10:27:04Z</time></trkpt><trkpt lat="43.459507917819565" lon="12.958391680406399"><ele>572.0</ele><time>2026-04-25T10:27:05Z</time></trkpt><trkpt lat="43.4593655406423" lon="12.958502741205656"><ele>575.6666666666666</ele><time>2026-04-25T10:27:06Z</time></trkpt><trkpt lat="43.459229016718716" lon="12.958617875874847"><ele>579.3333333333334</ele><time>2026-04-25T10:27:07Z</time></trkpt><trkpt lat="43.45909238778621" lon="12.958727568150112"><ele>583.0</ele><time>2026-04-25T10:27:08Z</time></trkpt><trkpt lat="43.45895283885584" lon="12.958834328420108"><ele>583.0</ele><time>2026-04-25T10:27:09Z</time></trkpt><trkpt lat="43.45881751940494" lon="12.958914248067096"><ele>583.0</ele><time>2026-04-25T10:27:10Z</time></trkpt><trkpt lat="43.45870645710389" lon="12.958971610842633"><ele>583.0</ele><time>2026-04-25T10:27:11Z</time></trkpt><trkpt lat="43.458630316468806" lon="12.95903007554927"><ele>583.0</ele><time>2026-04-25T10:27:12Z</time></trkpt><trkpt lat="43.458584604352744" lon="12.959109551371569"><ele>583.0</ele><time>2026-04-25T10:27:13Z</time></trkpt><trkpt lat="43.45856926422135" lon="12.959203349149696"><ele>577.0</ele><time>2026-04-25T10:27:14Z</time></trkpt><trkpt lat="43.45858340206488" lon="12.959315229235768"><ele>571.0</ele><time>2026-04-25T10:27:15Z</time></trkpt><trkpt lat="43.45862260005339" lon="12.959431332532343"><ele>565.0</ele><time>2026-04-25T10:27:16Z</time></trkpt><trkpt lat="43.458668787057825" lon="12.95956462473674"><ele>559.0</ele><time>2026-04-25T10:27:17Z</time></trkpt><trkpt lat="43.45871710126512" lon="12.959712804987268"><ele>553.0</ele><time>2026-04-25T10:27:18Z</time></trkpt><trkpt lat="43.45877483949396" lon="12.959882066488259"><ele>559.75</ele><time>2026-04-25T10:27:19Z</time></trkpt><trkpt lat="43.458832057292625" lon="12.960035496756968"><ele>566.5</ele><time>2026-04-25T10:27:20Z</time></trkpt><trkpt lat="43.458896536519084" lon="12.960183649238036"><ele>573.25</ele><time>2026-04-25T10:27:21Z</time></trkpt><trkpt lat="43.45897094441691" lon="12.960343482842442"><ele>580.0</ele><time>2026-04-25T10:27:22Z</time></trkpt><trkpt lat="43.4590530458741" lon="12.960496008934111"><ele>580.0</ele><time>2026-04-25T10:27:23Z</time></trkpt><trkpt lat="43.459136142533396" lon="12.960645032697954"><ele>580.0</ele><time>2026-04-25T10:27:24Z</time></trkpt><trkpt lat="43.4592081354883" lon="12.9607787740128"><ele>580.0</ele><time>2026-04-25T10:27:25Z</time></trkpt><trkpt lat="43.45928104135996" lon="12.960904942666453"><ele>580.0</ele><time>2026-04-25T10:27:26Z</time></trkpt><trkpt lat="43.45936070244281" lon="12.961039440709595"><ele>581.0</ele><time>2026-04-25T10:27:27Z</time></trkpt><trkpt lat="43.45943189047321" lon="12.961180663363242"><ele>582.0</ele><time>2026-04-25T10:27:28Z</time></trkpt><trkpt lat="43.45949448839943" lon="12.961311148685239"><ele>583.0</ele><time>2026-04-25T10:27:29Z</time></trkpt><trkpt lat="43.45954684589858" lon="12.961414232794313"><ele>584.0</ele><time>2026-04-25T10:27:30Z</time></trkpt><trkpt lat="43.45956755720939" lon="12.961500264859492"><ele>585.0</ele><time>2026-04-25T10:27:31Z</time></trkpt><trkpt lat="43.459514076741335" lon="12.961619211697196"><ele>585.0</ele><time>2026-04-25T10:27:33Z</time></trkpt><trkpt lat="43.459396444877974" lon="12.961628014786296"><ele>585.0</ele><time>2026-04-25T10:27:35Z</time></trkpt><trkpt lat="43.459329630458846" lon="12.961584667524688"><ele>585.0</ele><time>2026-04-25T10:27:36Z</time></trkpt><trkpt lat="43.4592509794683" lon="12.961533235816395"><ele>585.0</ele><time>2026-04-25T10:27:37Z</time></trkpt><trkpt lat="43.45917063785902" lon="12.961486597011909"><ele>585.0</ele><time>2026-04-25T10:27:38Z</time></trkpt><trkpt lat="43.459082811292596" lon="12.961467963590435"><ele>585.0</ele><time>2026-04-25T10:27:39Z</time></trkpt><trkpt lat="43.45898859341331" lon="12.961472068623202"><ele>585.0</ele><time>2026-04-25T10:27:40Z</time></trkpt><trkpt lat="43.45889450547364" lon="12.961451119906359"><ele>585.0</ele><time>2026-04-25T10:27:41Z</time></trkpt><trkpt lat="43.45879618146927" lon="12.961443682151774"><ele>585.0</ele><time>2026-04-25T10:27:42Z</time></trkpt><trkpt lat="43.45869904610372" lon="12.961437907773178"><ele>585.0</ele><time>2026-04-25T10:27:43Z</time></trkpt><trkpt lat="43.45859873869782" lon="12.961425028612036"><ele>585.8</ele><time>2026-04-25T10:27:44Z</time></trkpt><trkpt lat="43.45849866871874" lon="12.961421157349818"><ele>586.6</ele><time>2026-04-25T10:27:45Z</time></trkpt><trkpt lat="43.45839592108238" lon="12.961436153645527"><ele>587.4</ele><time>2026-04-25T10:27:46Z</time></trkpt><trkpt lat="43.45829341248612" lon="12.961466816116756"><ele>588.2</ele><time>2026-04-25T10:27:47Z</time></trkpt><trkpt lat="43.45819115426959" lon="12.961498228547887"><ele>589.0</ele><time>2026-04-25T10:27:48Z</time></trkpt><trkpt lat="43.45807899839721" lon="12.961528234534441"><ele>589.0</ele><time>2026-04-25T10:27:49Z</time></trkpt><trkpt lat="43.45796685025188" lon="12.96155292878963"><ele>589.0</ele><time>2026-04-25T10:27:50Z</time></trkpt><trkpt lat="43.45784737557162" lon="12.961562230619286"><ele>589.0</ele><time>2026-04-25T10:27:51Z</time></trkpt><trkpt lat="43.45773705961801" lon="12.961566236553836"><ele>589.0</ele><time>2026-04-25T10:27:52Z</time></trkpt><trkpt lat="43.45763250846222" lon="12.96158498457447"><ele>589.0</ele><time>2026-04-25T10:27:53Z</time></trkpt><trkpt lat="43.45753191041421" lon="12.961630084745185"><ele>589.75</ele><time>2026-04-25T10:27:54Z</time></trkpt><trkpt lat="43.457439159135546" lon="12.961717300259885"><ele>590.5</ele><time>2026-04-25T10:27:55Z</time></trkpt><trkpt lat="43.45736540896188" lon="12.961846050313264"><ele>591.25</ele><time>2026-04-25T10:27:56Z</time></trkpt><trkpt lat="43.457287803036195" lon="12.961975894633454"><ele>592.0</ele><time>2026-04-25T10:27:57Z</time></trkpt><trkpt lat="43.457205398101195" lon="12.96211165787058"><ele>592.0</ele><time>2026-04-25T10:27:58Z</time></trkpt><trkpt lat="43.45712177696723" lon="12.96224997725652"><ele>592.0</ele><time>2026-04-25T10:27:59Z</time></trkpt><trkpt lat="43.45703516243014" lon="12.962376845257134"><ele>592.0</ele><time>2026-04-25T10:28:00Z</time></trkpt><trkpt lat="43.45695070295044" lon="12.962498868999301"><ele>592.0</ele><time>2026-04-25T10:28:01Z</time></trkpt><trkpt lat="43.456873423945304" lon="12.962610801257823"><ele>588.2</ele><time>2026-04-25T10:28:02Z</time></trkpt><trkpt lat="43.45680735557721" lon="12.962717652608223"><ele>584.4000000000001</ele><time>2026-04-25T10:28:03Z</time></trkpt><trkpt lat="43.45676453447082" lon="12.962821177052929"><ele>580.5999999999999</ele><time>2026-04-25T10:28:04Z</time></trkpt><trkpt lat="43.456759498813234" lon="12.962929347557482"><ele>576.8</ele><time>2026-04-25T10:28:05Z</time></trkpt><trkpt lat="43.45679088580301" lon="12.963044152506518"><ele>573.0</ele><time>2026-04-25T10:28:06Z</time></trkpt><trkpt lat="43.45684295865101" lon="12.963154058782802"><ele>573.0</ele><time>2026-04-25T10:28:07Z</time></trkpt><trkpt lat="43.456920922770976" lon="12.96326248851551"><ele>573.0</ele><time>2026-04-25T10:28:08Z</time></trkpt><trkpt lat="43.457005760326425" lon="12.96337325399282"><ele>573.0</ele><time>2026-04-25T10:28:09Z</time></trkpt><trkpt lat="43.45709351263988" lon="12.963487638353326"><ele>573.0</ele><time>2026-04-25T10:28:10Z</time></trkpt><trkpt lat="43.45718517631854" lon="12.96361005893785"><ele>573.5</ele><time>2026-04-25T10:28:11Z</time></trkpt><trkpt lat="43.45728072060337" lon="12.96372394564338"><ele>574.0</ele><time>2026-04-25T10:28:12Z</time></trkpt><trkpt lat="43.45737540662334" lon="12.963817230685605"><ele>574.5</ele><time>2026-04-25T10:28:13Z</time></trkpt><trkpt lat="43.45746660756294" lon="12.963904253770565"><ele>575.0</ele><time>2026-04-25T10:28:14Z</time></trkpt><trkpt lat="43.45755835843451" lon="12.963992511885635"><ele>575.0</ele><time>2026-04-25T10:28:15Z</time></trkpt><trkpt lat="43.45765559964591" lon="12.964067914662092"><ele>575.0</ele><time>2026-04-25T10:28:16Z</time></trkpt><trkpt lat="43.457751446908155" lon="12.964130632530352"><ele>575.0</ele><time>2026-04-25T10:28:17Z</time></trkpt><trkpt lat="43.45785078723672" lon="12.964196853360843"><ele>575.0</ele><time>2026-04-25T10:28:18Z</time></trkpt><trkpt lat="43.45794949282625" lon="12.964263864058832"><ele>575.0</ele><time>2026-04-25T10:28:19Z</time></trkpt><trkpt lat="43.458052732011566" lon="12.964319543399432"><ele>571.6</ele><time>2026-04-25T10:28:20Z</time></trkpt><trkpt lat="43.4581550393749" lon="12.964371130928317"><ele>568.2</ele><time>2026-04-25T10:28:21Z</time></trkpt><trkpt lat="43.458264550843396" lon="12.964401093873573"><ele>564.8</ele><time>2026-04-25T10:28:22Z</time></trkpt><trkpt lat="43.45837708635092" lon="12.964414257056541"><ele>561.4</ele><time>2026-04-25T10:28:23Z</time></trkpt><trkpt lat="43.45848871110485" lon="12.964439042278112"><ele>558.0</ele><time>2026-04-25T10:28:24Z</time></trkpt><trkpt lat="43.45860398683554" lon="12.964480444507819"><ele>558.0</ele><time>2026-04-25T10:28:25Z</time></trkpt><trkpt lat="43.45871821871143" lon="12.964527379219687"><ele>558.0</ele><time>2026-04-25T10:28:26Z</time></trkpt><trkpt lat="43.45882239729727" lon="12.964581592223249"><ele>558.0</ele><time>2026-04-25T10:28:27Z</time></trkpt><trkpt lat="43.45891967030481" lon="12.964669306301786"><ele>558.0</ele><time>2026-04-25T10:28:28Z</time></trkpt><trkpt lat="43.45901002649834" lon="12.964778574203793"><ele>558.0</ele><time>2026-04-25T10:28:29Z</time></trkpt><trkpt lat="43.45909248511475" lon="12.964891894560994"><ele>558.0</ele><time>2026-04-25T10:28:30Z</time></trkpt><trkpt lat="43.45916672331426" lon="12.965005428385918"><ele>558.0</ele><time>2026-04-25T10:28:31Z</time></trkpt><trkpt lat="43.45924136662382" lon="12.965135646019679"><ele>558.0</ele><time>2026-04-25T10:28:32Z</time></trkpt><trkpt lat="43.459310300643956" lon="12.965272975017"><ele>558.0</ele><time>2026-04-25T10:28:33Z</time></trkpt><trkpt lat="43.45936983667852" lon="12.965438351910668"><ele>558.0</ele><time>2026-04-25T10:28:34Z</time></trkpt><trkpt lat="43.45943575950925" lon="12.965590221720774"><ele>558.0</ele><time>2026-04-25T10:28:35Z</time></trkpt><trkpt lat="43.45949848320353" lon="12.965737181431205"><ele>558.0</ele><time>2026-04-25T10:28:35.999Z</time></trkpt><trkpt lat="43.45956447719192" lon="12.965889697752917"><ele>561.0</ele><time>2026-04-25T10:28:36.999Z</time></trkpt><trkpt lat="43.45963394101169" lon="12.966041366508627"><ele>564.0</ele><time>2026-04-25T10:28:37.999Z</time></trkpt><trkpt lat="43.45970880849323" lon="12.966185667599023"><ele>567.0</ele><time>2026-04-25T10:28:38.999Z</time></trkpt><trkpt lat="43.45978610513625" lon="12.966319927350847"><ele>570.0</ele><time>2026-04-25T10:28:39.999Z</time></trkpt><trkpt lat="43.45987006753966" lon="12.966440269607821"><ele>570.0</ele><time>2026-04-25T10:28:40.999Z</time></trkpt><trkpt lat="43.45994823909374" lon="12.96655876002307"><ele>570.0</ele><time>2026-04-25T10:28:42Z</time></trkpt><trkpt lat="43.46002770714169" lon="12.966672055018206"><ele>570.0</ele><time>2026-04-25T10:28:43Z</time></trkpt><trkpt lat="43.46011007466797" lon="12.966783217382599"><ele>570.0</ele><time>2026-04-25T10:28:44Z</time></trkpt><trkpt lat="43.46019581079379" lon="12.966883736517438"><ele>570.6</ele><time>2026-04-25T10:28:45Z</time></trkpt><trkpt lat="43.46027741855327" lon="12.966985484580077"><ele>571.2</ele><time>2026-04-25T10:28:46Z</time></trkpt><trkpt lat="43.4603527070594" lon="12.967098345328939"><ele>571.8</ele><time>2026-04-25T10:28:47Z</time></trkpt><trkpt lat="43.46042290191715" lon="12.967216888898037"><ele>572.4</ele><time>2026-04-25T10:28:48Z</time></trkpt><trkpt lat="43.460494511486026" lon="12.967338726717392"><ele>573.0</ele><time>2026-04-25T10:28:49Z</time></trkpt><trkpt lat="43.46056865169053" lon="12.967472484157318"><ele>566.25</ele><time>2026-04-25T10:28:50Z</time></trkpt><trkpt lat="43.46064051925268" lon="12.967621457374873"><ele>559.5</ele><time>2026-04-25T10:28:51Z</time></trkpt><trkpt lat="43.46071267078267" lon="12.967766216287407"><ele>552.75</ele><time>2026-04-25T10:28:52Z</time></trkpt><trkpt lat="43.46078621548303" lon="12.967908394720935"><ele>546.0</ele><time>2026-04-25T10:28:53Z</time></trkpt><trkpt lat="43.46085103796086" lon="12.968051522779737"><ele>546.0</ele><time>2026-04-25T10:28:54Z</time></trkpt><trkpt lat="43.460924447020545" lon="12.968193458574598"><ele>546.0</ele><time>2026-04-25T10:28:55Z</time></trkpt><trkpt lat="43.46099831379243" lon="12.968328076424516"><ele>546.0</ele><time>2026-04-25T10:28:56Z</time></trkpt><trkpt lat="43.461068868386334" lon="12.968471045098829"><ele>546.0</ele><time>2026-04-25T10:28:57Z</time></trkpt><trkpt lat="43.461138760202154" lon="12.968606605120769"><ele>545.75</ele><time>2026-04-25T10:28:58Z</time></trkpt><trkpt lat="43.46121740855962" lon="12.9687377339172"><ele>545.5</ele><time>2026-04-25T10:28:59Z</time></trkpt><trkpt lat="43.461295265498535" lon="12.968866291229316"><ele>545.25</ele><time>2026-04-25T10:29:00Z</time></trkpt><trkpt lat="43.461376895345104" lon="12.968990047386654"><ele>545.0</ele><time>2026-04-25T10:29:01Z</time></trkpt><trkpt lat="43.46146162757628" lon="12.969106671868154"><ele>543.75</ele><time>2026-04-25T10:29:02Z</time></trkpt><trkpt lat="43.46153400254242" lon="12.969239860465414"><ele>542.5</ele><time>2026-04-25T10:29:03Z</time></trkpt><trkpt lat="43.461619263472514" lon="12.969356323242998"><ele>541.25</ele><time>2026-04-25T10:29:04Z</time></trkpt><trkpt lat="43.461713308771174" lon="12.969456621370487"><ele>540.0</ele><time>2026-04-25T10:29:05Z</time></trkpt><trkpt lat="43.46179735516595" lon="12.969574484428243"><ele>540.0</ele><time>2026-04-25T10:29:06Z</time></trkpt><trkpt lat="43.46188069455742" lon="12.969689138223991"><ele>540.0</ele><time>2026-04-25T10:29:07Z</time></trkpt><trkpt lat="43.46196297212706" lon="12.96981252788253"><ele>540.0</ele><time>2026-04-25T10:29:08Z</time></trkpt><trkpt lat="43.46204704142048" lon="12.969929825270723"><ele>540.0</ele><time>2026-04-25T10:29:09Z</time></trkpt><trkpt lat="43.46213102308647" lon="12.970036743369617"><ele>542.6</ele><time>2026-04-25T10:29:10Z</time></trkpt><trkpt lat="43.46221266183171" lon="12.970116850860558"><ele>545.2</ele><time>2026-04-25T10:29:11Z</time></trkpt><trkpt lat="43.46229979719018" lon="12.970205378207817"><ele>547.8</ele><time>2026-04-25T10:29:12Z</time></trkpt><trkpt lat="43.462400977976245" lon="12.970262921232235"><ele>550.4</ele><time>2026-04-25T10:29:13Z</time></trkpt><trkpt lat="43.46251675267712" lon="12.970315428379612"><ele>553.0</ele><time>2026-04-25T10:29:14Z</time></trkpt><trkpt lat="43.46263475913545" lon="12.970360743415187"><ele>553.0</ele><time>2026-04-25T10:29:15Z</time></trkpt><trkpt lat="43.462747891209446" lon="12.970418579635902"><ele>553.0</ele><time>2026-04-25T10:29:16Z</time></trkpt><trkpt lat="43.46288058864116" lon="12.970497196486681"><ele>553.0</ele><time>2026-04-25T10:29:17Z</time></trkpt><trkpt lat="43.463008027675045" lon="12.970578971982976"><ele>553.0</ele><time>2026-04-25T10:29:18Z</time></trkpt><trkpt lat="43.46313086073733" lon="12.970676085220624"><ele>553.0</ele><time>2026-04-25T10:29:19Z</time></trkpt><trkpt lat="43.4632503384732" lon="12.97079568458957"><ele>553.0</ele><time>2026-04-25T10:29:20Z</time></trkpt><trkpt lat="43.46336039194421" lon="12.970910686141874"><ele>553.0</ele><time>2026-04-25T10:29:21Z</time></trkpt><trkpt lat="43.46346441385111" lon="12.971039707884827"><ele>553.0</ele><time>2026-04-25T10:29:22Z</time></trkpt><trkpt lat="43.463567911168795" lon="12.971191725759164"><ele>553.0</ele><time>2026-04-25T10:29:23Z</time></trkpt><trkpt lat="43.46366841011124" lon="12.971345595592933"><ele>553.0</ele><time>2026-04-25T10:29:24Z</time></trkpt><trkpt lat="43.463769411778216" lon="12.971509106745076"><ele>553.0</ele><time>2026-04-25T10:29:25Z</time></trkpt><trkpt lat="43.46386335780381" lon="12.971679968346805"><ele>547.3333333333334</ele><time>2026-04-25T10:29:26Z</time></trkpt><trkpt lat="43.463957997968976" lon="12.971846139582698"><ele>541.6666666666666</ele><time>2026-04-25T10:29:27Z</time></trkpt><trkpt lat="43.4640330007465" lon="12.972027175465966"><ele>536.0</ele><time>2026-04-25T10:29:28Z</time></trkpt><trkpt lat="43.46412146400688" lon="12.972198944509064"><ele>536.0</ele><time>2026-04-25T10:29:29Z</time></trkpt><trkpt lat="43.46420291404995" lon="12.972362441398756"><ele>536.0</ele><time>2026-04-25T10:29:30Z</time></trkpt><trkpt lat="43.46429635552566" lon="12.972522209082701"><ele>536.0</ele><time>2026-04-25T10:29:31Z</time></trkpt><trkpt lat="43.464371513781984" lon="12.97268262629422"><ele>536.0</ele><time>2026-04-25T10:29:32Z</time></trkpt><trkpt lat="43.46444285347031" lon="12.972838792838505"><ele>533.5</ele><time>2026-04-25T10:29:33Z</time></trkpt><trkpt lat="43.464510566103435" lon="12.973005096263421"><ele>531.0</ele><time>2026-04-25T10:29:34Z</time></trkpt><trkpt lat="43.464570689648106" lon="12.973170082595415"><ele>528.5</ele><time>2026-04-25T10:29:35Z</time></trkpt><trkpt lat="43.464632152422155" lon="12.973348264316865"><ele>526.0</ele><time>2026-04-25T10:29:36Z</time></trkpt><trkpt lat="43.46471146296884" lon="12.973508935089928"><ele>526.0</ele><time>2026-04-25T10:29:37Z</time></trkpt><trkpt lat="43.46479320781949" lon="12.973666055986776"><ele>526.0</ele><time>2026-04-25T10:29:38Z</time></trkpt><trkpt lat="43.46487268868555" lon="12.973822200418464"><ele>526.0</ele><time>2026-04-25T10:29:39Z</time></trkpt><trkpt lat="43.46493481044889" lon="12.97398540684612"><ele>526.0</ele><time>2026-04-25T10:29:40Z</time></trkpt><trkpt lat="43.465011883723356" lon="12.974138482124644"><ele>529.25</ele><time>2026-04-25T10:29:41Z</time></trkpt><trkpt lat="43.46508887035734" lon="12.974288422210666"><ele>532.5</ele><time>2026-04-25T10:29:42Z</time></trkpt><trkpt lat="43.465165688519036" lon="12.974436411480433"><ele>535.75</ele><time>2026-04-25T10:29:43Z</time></trkpt><trkpt lat="43.46524098905725" lon="12.974581836662507"><ele>539.0</ele><time>2026-04-25T10:29:44Z</time></trkpt><trkpt lat="43.46531503483523" lon="12.974726688465397"><ele>539.0</ele><time>2026-04-25T10:29:45Z</time></trkpt><trkpt lat="43.46538796145535" lon="12.974869378761014"><ele>539.0</ele><time>2026-04-25T10:29:46Z</time></trkpt><trkpt lat="43.46545838675586" lon="12.975009681396795"><ele>539.0</ele><time>2026-04-25T10:29:47Z</time></trkpt><trkpt lat="43.465526450868005" lon="12.975149528440806"><ele>539.0</ele><time>2026-04-25T10:29:48Z</time></trkpt><trkpt lat="43.46558828726849" lon="12.975291354593313"><ele>530.5</ele><time>2026-04-25T10:29:49Z</time></trkpt><trkpt lat="43.46563667347306" lon="12.975432832331466"><ele>522.0</ele><time>2026-04-25T10:29:50Z</time></trkpt><trkpt lat="43.465672916086945" lon="12.975590600729886"><ele>513.5</ele><time>2026-04-25T10:29:51Z</time></trkpt><trkpt lat="43.465693870755274" lon="12.975762212806663"><ele>505.0</ele><time>2026-04-25T10:29:52Z</time></trkpt><trkpt lat="43.46571497364057" lon="12.975946069214901"><ele>503.8</ele><time>2026-04-25T10:29:53Z</time></trkpt><trkpt lat="43.465731589183726" lon="12.976108706069164"><ele>502.6</ele><time>2026-04-25T10:29:54Z</time></trkpt><trkpt lat="43.46573994895602" lon="12.976252470615057"><ele>501.4</ele><time>2026-04-25T10:29:55Z</time></trkpt><trkpt lat="43.465733228836186" lon="12.97635109650951"><ele>500.2</ele><time>2026-04-25T10:29:56Z</time></trkpt><trkpt lat="43.46571569199387" lon="12.976460362381356"><ele>499.0</ele><time>2026-04-25T10:29:57Z</time></trkpt><trkpt lat="43.465641636524985" lon="12.976550781095254"><ele>499.0</ele><time>2026-04-25T10:29:58Z</time></trkpt><trkpt lat="43.465552824329556" lon="12.976667064503658"><ele>499.0</ele><time>2026-04-25T10:29:59Z</time></trkpt><trkpt lat="43.4654635866904" lon="12.976790664362657"><ele>499.0</ele><time>2026-04-25T10:30:00Z</time></trkpt><trkpt lat="43.46537646851882" lon="12.976912365982674"><ele>499.0</ele><time>2026-04-25T10:30:01Z</time></trkpt><trkpt lat="43.465297750542895" lon="12.977030121113971"><ele>498.79999999999995</ele><time>2026-04-25T10:30:02Z</time></trkpt><trkpt lat="43.46523006960435" lon="12.977137518560895"><ele>498.59999999999997</ele><time>2026-04-25T10:30:03Z</time></trkpt><trkpt lat="43.46518543011938" lon="12.97725820348152"><ele>498.4</ele><time>2026-04-25T10:30:04Z</time></trkpt><trkpt lat="43.4651324556106" lon="12.977387262580379"><ele>498.2</ele><time>2026-04-25T10:30:05Z</time></trkpt><trkpt lat="43.46509492662708" lon="12.977524586180376"><ele>498.0</ele><time>2026-04-25T10:30:06Z</time></trkpt><trkpt lat="43.465035419871704" lon="12.977803744370311"><ele>495.5</ele><time>2026-04-25T10:30:08Z</time></trkpt><trkpt lat="43.46502933204126" lon="12.97794222011993"><ele>493.0</ele><time>2026-04-25T10:30:09Z</time></trkpt><trkpt lat="43.465024480408935" lon="12.978072301467883"><ele>490.5</ele><time>2026-04-25T10:30:10Z</time></trkpt><trkpt lat="43.46503191924387" lon="12.978190329527498"><ele>488.0</ele><time>2026-04-25T10:30:11Z</time></trkpt><trkpt lat="43.465042699018625" lon="12.978295247849578"><ele>485.5</ele><time>2026-04-25T10:30:12Z</time></trkpt><trkpt lat="43.46505968214929" lon="12.978397356086308"><ele>483.0</ele><time>2026-04-25T10:30:13Z</time></trkpt><trkpt lat="43.46508022209226" lon="12.978500221859019"><ele>478.75</ele><time>2026-04-25T10:30:14Z</time></trkpt><trkpt lat="43.46512513636234" lon="12.978613396890108"><ele>474.5</ele><time>2026-04-25T10:30:15Z</time></trkpt><trkpt lat="43.465190087743146" lon="12.978783458923234"><ele>470.25</ele><time>2026-04-25T10:30:16Z</time></trkpt><trkpt lat="43.4652849862275" lon="12.978957764739885"><ele>466.0</ele><time>2026-04-25T10:30:17Z</time></trkpt><trkpt lat="43.46539416521541" lon="12.979129170630554"><ele>464.0</ele><time>2026-04-25T10:30:18Z</time></trkpt><trkpt lat="43.465489388487036" lon="12.979300221680454"><ele>462.0</ele><time>2026-04-25T10:30:19Z</time></trkpt><trkpt lat="43.46559927159983" lon="12.97944722557097"><ele>460.0</ele><time>2026-04-25T10:30:20Z</time></trkpt><trkpt lat="43.46570836342646" lon="12.979582026537841"><ele>460.0</ele><time>2026-04-25T10:30:21Z</time></trkpt><trkpt lat="43.465832196913034" lon="12.979696411992313"><ele>460.0</ele><time>2026-04-25T10:30:22Z</time></trkpt><trkpt lat="43.46596861721394" lon="12.97978868154495"><ele>460.0</ele><time>2026-04-25T10:30:23Z</time></trkpt><trkpt lat="43.466111774866555" lon="12.979877393565658"><ele>460.0</ele><time>2026-04-25T10:30:24Z</time></trkpt><trkpt lat="43.46624516530527" lon="12.979977687263718"><ele>460.0</ele><time>2026-04-25T10:30:25Z</time></trkpt><trkpt lat="43.46636927526175" lon="12.980082797113942"><ele>460.0</ele><time>2026-04-25T10:30:26Z</time></trkpt><trkpt lat="43.46649420836691" lon="12.980193994121915"><ele>460.0</ele><time>2026-04-25T10:30:27Z</time></trkpt><trkpt lat="43.46660719043152" lon="12.980323297592438"><ele>457.0</ele><time>2026-04-25T10:30:28Z</time></trkpt><trkpt lat="43.46670661263248" lon="12.980479497449693"><ele>454.0</ele><time>2026-04-25T10:30:29Z</time></trkpt><trkpt lat="43.46680097599797" lon="12.98063850446019"><ele>451.0</ele><time>2026-04-25T10:30:30Z</time></trkpt><trkpt lat="43.46689476109104" lon="12.980795164889575"><ele>448.0</ele><time>2026-04-25T10:30:31Z</time></trkpt><trkpt lat="43.46698755618912" lon="12.980947368868355"><ele>446.0</ele><time>2026-04-25T10:30:32Z</time></trkpt><trkpt lat="43.46707395019172" lon="12.981092988642033"><ele>444.0</ele><time>2026-04-25T10:30:33Z</time></trkpt><trkpt lat="43.467160134878604" lon="12.98123420228847"><ele>442.0</ele><time>2026-04-25T10:30:34Z</time></trkpt><trkpt lat="43.467253711716296" lon="12.981357204348067"><ele>440.0</ele><time>2026-04-25T10:30:35Z</time></trkpt><trkpt lat="43.467362510292595" lon="12.981467797137292"><ele>440.0</ele><time>2026-04-25T10:30:36Z</time></trkpt><trkpt lat="43.467488420044106" lon="12.981565507077066"><ele>440.0</ele><time>2026-04-25T10:30:37Z</time></trkpt><trkpt lat="43.46762445975748" lon="12.981655080146638"><ele>440.0</ele><time>2026-04-25T10:30:38Z</time></trkpt><trkpt lat="43.46776698534932" lon="12.981735355987157"><ele>440.0</ele><time>2026-04-25T10:30:39Z</time></trkpt><trkpt lat="43.467907590548116" lon="12.98181233339761"><ele>437.0</ele><time>2026-04-25T10:30:40Z</time></trkpt><trkpt lat="43.46805536106216" lon="12.981891333284313"><ele>434.0</ele><time>2026-04-25T10:30:41Z</time></trkpt><trkpt lat="43.46820406011135" lon="12.981976911957176"><ele>431.0</ele><time>2026-04-25T10:30:41.999Z</time></trkpt><trkpt lat="43.46835123023423" lon="12.982063714155139"><ele>431.0</ele><time>2026-04-25T10:30:42.999Z</time></trkpt><trkpt lat="43.46850013250871" lon="12.982155590167055"><ele>431.0</ele><time>2026-04-25T10:30:43.999Z</time></trkpt><trkpt lat="43.468645738742744" lon="12.98223698175375"><ele>431.0</ele><time>2026-04-25T10:30:44.999Z</time></trkpt><trkpt lat="43.468784260617134" lon="12.98230175341085"><ele>429.25</ele><time>2026-04-25T10:30:45.999Z</time></trkpt><trkpt lat="43.46891224636731" lon="12.982355063804146"><ele>427.5</ele><time>2026-04-25T10:30:46.999Z</time></trkpt><trkpt lat="43.469030323288976" lon="12.982408937685957"><ele>425.75</ele><time>2026-04-25T10:30:47.999Z</time></trkpt><trkpt lat="43.469140338549394" lon="12.982466021055894"><ele>424.0</ele><time>2026-04-25T10:30:48.999Z</time></trkpt><trkpt lat="43.469247799662575" lon="12.98251869278392"><ele>424.0</ele><time>2026-04-25T10:30:49.999Z</time></trkpt><trkpt lat="43.469349453478884" lon="12.982569710710028"><ele>424.0</ele><time>2026-04-25T10:30:50.999Z</time></trkpt><trkpt lat="43.46945476809408" lon="12.982625217883738"><ele>424.0</ele><time>2026-04-25T10:30:51.999Z</time></trkpt><trkpt lat="43.46955659494057" lon="12.982682937434296"><ele>424.0</ele><time>2026-04-25T10:30:52.999Z</time></trkpt><trkpt lat="43.46965900491748" lon="12.98274066248181"><ele>424.0</ele><time>2026-04-25T10:30:53.999Z</time></trkpt><trkpt lat="43.46975802478688" lon="12.982804730631782"><ele>426.6666666666667</ele><time>2026-04-25T10:30:54.999Z</time></trkpt><trkpt lat="43.469854103609514" lon="12.982870312115967"><ele>429.33333333333337</ele><time>2026-04-25T10:30:55.999Z</time></trkpt><trkpt lat="43.469935806563385" lon="12.982937134318547"><ele>432.0</ele><time>2026-04-25T10:30:56.999Z</time></trkpt><trkpt lat="43.470002921656054" lon="12.982989127368292"><ele>434.66666666666663</ele><time>2026-04-25T10:30:57.999Z</time></trkpt><trkpt lat="43.47010473936028" lon="12.98301212490426"><ele>437.3333333333333</ele><time>2026-04-25T10:31:00Z</time></trkpt><trkpt lat="43.47016932829092" lon="12.98300060127548"><ele>440.0</ele><time>2026-04-25T10:31:01Z</time></trkpt><trkpt lat="43.47024277303147" lon="12.982978460518675"><ele>440.0</ele><time>2026-04-25T10:31:02Z</time></trkpt><trkpt lat="43.470321034780156" lon="12.982917450081066"><ele>440.0</ele><time>2026-04-25T10:31:03Z</time></trkpt><trkpt lat="43.47042207365364" lon="12.98294354717179"><ele>440.0</ele><time>2026-04-25T10:31:04Z</time></trkpt><trkpt lat="43.470526083667906" lon="12.982980539285418"><ele>440.0</ele><time>2026-04-25T10:31:05Z</time></trkpt><trkpt lat="43.47062598239022" lon="12.983010213022032"><ele>440.0</ele><time>2026-04-25T10:31:06Z</time></trkpt><trkpt lat="43.47071942455088" lon="12.983043525465213"><ele>440.49999999999994</ele><time>2026-04-25T10:31:07Z</time></trkpt><trkpt lat="43.470812661888615" lon="12.983074166823187"><ele>441.0</ele><time>2026-04-25T10:31:08Z</time></trkpt><trkpt lat="43.47090578067505" lon="12.983098847901655"><ele>441.5</ele><time>2026-04-25T10:31:09Z</time></trkpt><trkpt lat="43.47099174038686" lon="12.983124737433148"><ele>442.0</ele><time>2026-04-25T10:31:10Z</time></trkpt><trkpt lat="43.47106612922548" lon="12.98314432469432"><ele>442.49999999999994</ele><time>2026-04-25T10:31:11Z</time></trkpt><trkpt lat="43.47114059853366" lon="12.983162959373288"><ele>443.0</ele><time>2026-04-25T10:31:12Z</time></trkpt><trkpt lat="43.47121668707844" lon="12.983188241594707"><ele>445.25</ele><time>2026-04-25T10:31:13Z</time></trkpt><trkpt lat="43.47130560352194" lon="12.983217482398052"><ele>447.5</ele><time>2026-04-25T10:31:14Z</time></trkpt><trkpt lat="43.471410945623404" lon="12.983276529525533"><ele>449.75</ele><time>2026-04-25T10:31:15Z</time></trkpt><trkpt lat="43.4715385951796" lon="12.983322773970194"><ele>452.0</ele><time>2026-04-25T10:31:16Z</time></trkpt><trkpt lat="43.471679628643116" lon="12.983357704376585"><ele>452.0</ele><time>2026-04-25T10:31:17Z</time></trkpt><trkpt lat="43.47182811421224" lon="12.983382274994094"><ele>452.0</ele><time>2026-04-25T10:31:18Z</time></trkpt><trkpt lat="43.47198947477088" lon="12.983386798816468"><ele>452.0</ele><time>2026-04-25T10:31:19Z</time></trkpt><trkpt lat="43.47215331832874" lon="12.983377620202866"><ele>452.0</ele><time>2026-04-25T10:31:20Z</time></trkpt><trkpt lat="43.472310860153335" lon="12.983366932055747"><ele>452.0</ele><time>2026-04-25T10:31:21Z</time></trkpt><trkpt lat="43.47246313192586" lon="12.98336233226451"><ele>452.0</ele><time>2026-04-25T10:31:22Z</time></trkpt><trkpt lat="43.47260476411119" lon="12.983353338222333"><ele>448.5</ele><time>2026-04-25T10:31:23Z</time></trkpt><trkpt lat="43.47273571618826" lon="12.98334123325166"><ele>445.0</ele><time>2026-04-25T10:31:24Z</time></trkpt><trkpt lat="43.472862587716776" lon="12.983339758744115"><ele>441.5</ele><time>2026-04-25T10:31:25Z</time></trkpt><trkpt lat="43.4729915721218" lon="12.98336931361092"><ele>438.0</ele><time>2026-04-25T10:31:26Z</time></trkpt><trkpt lat="43.47313262699515" lon="12.98345304138745"><ele>438.0</ele><time>2026-04-25T10:31:27Z</time></trkpt><trkpt lat="43.473269743893624" lon="12.983570426106136"><ele>438.0</ele><time>2026-04-25T10:31:28Z</time></trkpt><trkpt lat="43.473410116448854" lon="12.98369293476482"><ele>438.0</ele><time>2026-04-25T10:31:29Z</time></trkpt><trkpt lat="43.4735436239211" lon="12.983812342248171"><ele>438.0</ele><time>2026-04-25T10:31:30Z</time></trkpt><trkpt lat="43.47366899430565" lon="12.98392600450402"><ele>438.0</ele><time>2026-04-25T10:31:31Z</time></trkpt><trkpt lat="43.473795212150975" lon="12.98402544845736"><ele>438.0</ele><time>2026-04-25T10:31:32Z</time></trkpt><trkpt lat="43.473920964279294" lon="12.984132979053532"><ele>438.0</ele><time>2026-04-25T10:31:33Z</time></trkpt><trkpt lat="43.47407681608952" lon="12.98419593266673"><ele>440.33333333333337</ele><time>2026-04-25T10:31:34Z</time></trkpt><trkpt lat="43.47424000311235" lon="12.984215580751505"><ele>442.6666666666667</ele><time>2026-04-25T10:31:35Z</time></trkpt><trkpt lat="43.47440610930787" lon="12.98423590380488"><ele>445.0</ele><time>2026-04-25T10:31:36Z</time></trkpt><trkpt lat="43.47455993838452" lon="12.984248477586503"><ele>436.6666666666667</ele><time>2026-04-25T10:31:37Z</time></trkpt><trkpt lat="43.47470898254943" lon="12.984308074624618"><ele>428.33333333333337</ele><time>2026-04-25T10:31:38Z</time></trkpt><trkpt lat="43.47486127602958" lon="12.984350627368146"><ele>420.0</ele><time>2026-04-25T10:31:39Z</time></trkpt><trkpt lat="43.4749998160591" lon="12.984448215023578"><ele>420.0</ele><time>2026-04-25T10:31:40Z</time></trkpt><trkpt lat="43.4751384790934" lon="12.984507658184773"><ele>420.0</ele><time>2026-04-25T10:31:41Z</time></trkpt><trkpt lat="43.47525962127796" lon="12.98460476300014"><ele>420.0</ele><time>2026-04-25T10:31:42Z</time></trkpt><trkpt lat="43.47538131568358" lon="12.984725407969279"><ele>420.0</ele><time>2026-04-25T10:31:43Z</time></trkpt><trkpt lat="43.47549442382356" lon="12.984874704273672"><ele>413.66666666666663</ele><time>2026-04-25T10:31:44Z</time></trkpt><trkpt lat="43.47561641328156" lon="12.985022166888124"><ele>407.3333333333333</ele><time>2026-04-25T10:31:45Z</time></trkpt><trkpt lat="43.475738641622584" lon="12.985169917966429"><ele>401.0</ele><time>2026-04-25T10:31:46Z</time></trkpt><trkpt lat="43.47585402814186" lon="12.985309398740533"><ele>401.0</ele><time>2026-04-25T10:31:47Z</time></trkpt><trkpt lat="43.475940645963114" lon="12.985417856300353"><ele>401.0</ele><time>2026-04-25T10:31:48Z</time></trkpt><trkpt lat="43.47603033730603" lon="12.985538942940225"><ele>401.0</ele><time>2026-04-25T10:31:49Z</time></trkpt><trkpt lat="43.47610010983327" lon="12.985651461889828"><ele>401.0</ele><time>2026-04-25T10:31:50Z</time></trkpt><trkpt lat="43.47614435556748" lon="12.985785188008803"><ele>400.8</ele><time>2026-04-25T10:31:51Z</time></trkpt><trkpt lat="43.47614562248331" lon="12.985918086122416"><ele>400.6</ele><time>2026-04-25T10:31:52Z</time></trkpt><trkpt lat="43.47607886487744" lon="12.986048570711988"><ele>400.4</ele><time>2026-04-25T10:31:53Z</time></trkpt><trkpt lat="43.476019132137935" lon="12.986156341988517"><ele>400.2</ele><time>2026-04-25T10:31:54Z</time></trkpt><trkpt lat="43.47596983210074" lon="12.986269736555926"><ele>400.0</ele><time>2026-04-25T10:31:55Z</time></trkpt><trkpt lat="43.47597182569429" lon="12.986405771169109"><ele>400.0</ele><time>2026-04-25T10:31:56Z</time></trkpt><trkpt lat="43.47600529204885" lon="12.98657672121246"><ele>400.0</ele><time>2026-04-25T10:31:57Z</time></trkpt><trkpt lat="43.47605615874389" lon="12.986709420931051"><ele>400.0</ele><time>2026-04-25T10:31:58Z</time></trkpt><trkpt lat="43.476104970224654" lon="12.986869684888392"><ele>400.0</ele><time>2026-04-25T10:31:59Z</time></trkpt><trkpt lat="43.476161226535176" lon="12.987040952103195"><ele>399.75</ele><time>2026-04-25T10:32:00Z</time></trkpt><trkpt lat="43.476216375553555" lon="12.987213807237394"><ele>399.5</ele><time>2026-04-25T10:32:01Z</time></trkpt><trkpt lat="43.476239549934526" lon="12.987393895488633"><ele>399.25</ele><time>2026-04-25T10:32:02Z</time></trkpt><trkpt lat="43.47626105171916" lon="12.987569341481509"><ele>399.0</ele><time>2026-04-25T10:32:03Z</time></trkpt><trkpt lat="43.47629020298659" lon="12.987737945762115"><ele>394.0</ele><time>2026-04-25T10:32:04Z</time></trkpt><trkpt lat="43.47633043076808" lon="12.987899313246869"><ele>389.0</ele><time>2026-04-25T10:32:05Z</time></trkpt><trkpt lat="43.476402960250184" lon="12.988035065144647"><ele>384.0</ele><time>2026-04-25T10:32:06Z</time></trkpt><trkpt lat="43.47649569728324" lon="12.988142000299787"><ele>379.0</ele><time>2026-04-25T10:32:07Z</time></trkpt><trkpt lat="43.47660035600232" lon="12.98822531051354"><ele>379.0</ele><time>2026-04-25T10:32:08Z</time></trkpt><trkpt lat="43.47670783858212" lon="12.988313588143438"><ele>379.0</ele><time>2026-04-25T10:32:09Z</time></trkpt><trkpt lat="43.476818694859666" lon="12.988403253689746"><ele>379.0</ele><time>2026-04-25T10:32:10Z</time></trkpt><trkpt lat="43.47693432755936" lon="12.988498538940414"><ele>379.0</ele><time>2026-04-25T10:32:11Z</time></trkpt><trkpt lat="43.477055632108716" lon="12.988599749720072"><ele>377.75</ele><time>2026-04-25T10:32:12Z</time></trkpt><trkpt lat="43.47716938047468" lon="12.988691947113592"><ele>376.5</ele><time>2026-04-25T10:32:13Z</time></trkpt><trkpt lat="43.47727767809066" lon="12.988777948781948"><ele>375.25</ele><time>2026-04-25T10:32:14Z</time></trkpt><trkpt lat="43.47738130672007" lon="12.988877340846388"><ele>374.0</ele><time>2026-04-25T10:32:15Z</time></trkpt><trkpt lat="43.4774698720099" lon="12.988985779899737"><ele>374.0</ele><time>2026-04-25T10:32:16Z</time></trkpt><trkpt lat="43.47754435693937" lon="12.989090268699828"><ele>374.0</ele><time>2026-04-25T10:32:17Z</time></trkpt><trkpt lat="43.47761778063407" lon="12.989184177743867"><ele>374.0</ele><time>2026-04-25T10:32:18Z</time></trkpt><trkpt lat="43.477674515398775" lon="12.989257717135068"><ele>374.0</ele><time>2026-04-25T10:32:19Z</time></trkpt><trkpt lat="43.47773528647685" lon="12.989333042952996"><ele>374.0</ele><time>2026-04-25T10:32:21Z</time></trkpt><trkpt lat="43.477769416397734" lon="12.98942917237618"><ele>374.0</ele><time>2026-04-25T10:32:25Z</time></trkpt><trkpt lat="43.47768718067585" lon="12.989538856839498"><ele>372.75</ele><time>2026-04-25T10:32:26Z</time></trkpt><trkpt lat="43.47759332482074" lon="12.98957858376894"><ele>371.5</ele><time>2026-04-25T10:32:27Z</time></trkpt><trkpt lat="43.47748589625001" lon="12.989549172007074"><ele>370.25</ele><time>2026-04-25T10:32:28Z</time></trkpt><trkpt lat="43.47738008553428" lon="12.989435366442077"><ele>369.0</ele><time>2026-04-25T10:32:29Z</time></trkpt><trkpt lat="43.47724788473661" lon="12.989352199058207"><ele>369.0</ele><time>2026-04-25T10:32:30Z</time></trkpt><trkpt lat="43.477129331135636" lon="12.989256340634077"><ele>369.0</ele><time>2026-04-25T10:32:31Z</time></trkpt><trkpt lat="43.477016441878256" lon="12.98918876109238"><ele>369.0</ele><time>2026-04-25T10:32:32Z</time></trkpt><trkpt lat="43.47689712969832" lon="12.989168203402965"><ele>369.0</ele><time>2026-04-25T10:32:33Z</time></trkpt><trkpt lat="43.47677217336595" lon="12.989205036355992"><ele>365.6666666666667</ele><time>2026-04-25T10:32:34Z</time></trkpt><trkpt lat="43.476643122099055" lon="12.989323765706223"><ele>362.33333333333337</ele><time>2026-04-25T10:32:35Z</time></trkpt><trkpt lat="43.4765293825574" lon="12.989473491024395"><ele>359.0</ele><time>2026-04-25T10:32:36Z</time></trkpt><trkpt lat="43.47643464645277" lon="12.98965914903148"><ele>359.0</ele><time>2026-04-25T10:32:37Z</time></trkpt><trkpt lat="43.47633171880319" lon="12.98980699771562"><ele>359.0</ele><time>2026-04-25T10:32:38Z</time></trkpt><trkpt lat="43.4762412344231" lon="12.989937319335679"><ele>359.0</ele><time>2026-04-25T10:32:39Z</time></trkpt><trkpt lat="43.47614222843781" lon="12.990040397429711"><ele>359.0</ele><time>2026-04-25T10:32:40Z</time></trkpt><trkpt lat="43.476023383329256" lon="12.990091491438655"><ele>352.33333333333337</ele><time>2026-04-25T10:32:41Z</time></trkpt><trkpt lat="43.47587476164553" lon="12.990126935926222"><ele>345.6666666666667</ele><time>2026-04-25T10:32:42Z</time></trkpt><trkpt lat="43.475711234721096" lon="12.990151599047048"><ele>339.0</ele><time>2026-04-25T10:32:43Z</time></trkpt><trkpt lat="43.475539236684035" lon="12.990182373384682"><ele>337.6666666666667</ele><time>2026-04-25T10:32:44Z</time></trkpt><trkpt lat="43.47535965053541" lon="12.990215652972578"><ele>336.33333333333337</ele><time>2026-04-25T10:32:45Z</time></trkpt><trkpt lat="43.475187156792344" lon="12.990244921963798"><ele>335.0</ele><time>2026-04-25T10:32:46Z</time></trkpt><trkpt lat="43.47502387061264" lon="12.990272514123397"><ele>335.0</ele><time>2026-04-25T10:32:47Z</time></trkpt><trkpt lat="43.47486980935562" lon="12.990296958149255"><ele>335.0</ele><time>2026-04-25T10:32:48Z</time></trkpt><trkpt lat="43.47473136660148" lon="12.990312045617847"><ele>335.0</ele><time>2026-04-25T10:32:49Z</time></trkpt><trkpt lat="43.474596672636785" lon="12.990305991755"><ele>335.0</ele><time>2026-04-25T10:32:50Z</time></trkpt><trkpt lat="43.4744725154655" lon="12.990249899525782"><ele>331.33333333333337</ele><time>2026-04-25T10:32:51Z</time></trkpt><trkpt lat="43.47432817384162" lon="12.990211831346517"><ele>327.6666666666667</ele><time>2026-04-25T10:32:52Z</time></trkpt><trkpt lat="43.47418769494658" lon="12.990125950407574"><ele>324.0</ele><time>2026-04-25T10:32:53Z</time></trkpt><trkpt lat="43.47404379395881" lon="12.990033468808061"><ele>324.3333333333333</ele><time>2026-04-25T10:32:54Z</time></trkpt><trkpt lat="43.47389716190926" lon="12.989922845309472"><ele>324.66666666666663</ele><time>2026-04-25T10:32:55Z</time></trkpt><trkpt lat="43.47375102163158" lon="12.989799789974235"><ele>325.0</ele><time>2026-04-25T10:32:56Z</time></trkpt><trkpt lat="43.47360073554437" lon="12.989669435395133"><ele>325.0</ele><time>2026-04-25T10:32:57Z</time></trkpt><trkpt lat="43.47344301173716" lon="12.989540314502412"><ele>325.0</ele><time>2026-04-25T10:32:58Z</time></trkpt><trkpt lat="43.47327141104017" lon="12.989423200665634"><ele>325.0</ele><time>2026-04-25T10:32:59Z</time></trkpt><trkpt lat="43.473088916019876" lon="12.98931326397738"><ele>327.3333333333333</ele><time>2026-04-25T10:33:00Z</time></trkpt><trkpt lat="43.47290162933085" lon="12.989208114506885"><ele>329.6666666666667</ele><time>2026-04-25T10:33:01Z</time></trkpt><trkpt lat="43.47270974945097" lon="12.989102806239709"><ele>332.0</ele><time>2026-04-25T10:33:02Z</time></trkpt><trkpt lat="43.47251593332963" lon="12.98899605826892"><ele>332.0</ele><time>2026-04-25T10:33:03Z</time></trkpt><trkpt lat="43.47232878827184" lon="12.988890921043975"><ele>332.0</ele><time>2026-04-25T10:33:04Z</time></trkpt><trkpt lat="43.47214700564476" lon="12.988789783470404"><ele>332.0</ele><time>2026-04-25T10:33:05Z</time></trkpt><trkpt lat="43.471964232036136" lon="12.988690143173175"><ele>327.33333333333337</ele><time>2026-04-25T10:33:06Z</time></trkpt><trkpt lat="43.4717771410535" lon="12.988586508930679"><ele>322.6666666666667</ele><time>2026-04-25T10:33:07Z</time></trkpt><trkpt lat="43.471584384476614" lon="12.98848102514993"><ele>318.0</ele><time>2026-04-25T10:33:08Z</time></trkpt><trkpt lat="43.47139099698098" lon="12.988383246473775"><ele>319.3333333333333</ele><time>2026-04-25T10:33:09Z</time></trkpt><trkpt lat="43.47120603533452" lon="12.988280143582326"><ele>320.66666666666663</ele><time>2026-04-25T10:33:10Z</time></trkpt><trkpt lat="43.471027127141106" lon="12.988166012505163"><ele>322.0</ele><time>2026-04-25T10:33:11Z</time></trkpt><trkpt lat="43.47085402253736" lon="12.988020837686578"><ele>322.0</ele><time>2026-04-25T10:33:12Z</time></trkpt><trkpt lat="43.47070228657251" lon="12.987840840088843"><ele>322.0</ele><time>2026-04-25T10:33:13Z</time></trkpt><trkpt lat="43.470570935414344" lon="12.9876652852348"><ele>322.0</ele><time>2026-04-25T10:33:14Z</time></trkpt><trkpt lat="43.47045293823247" lon="12.987515906196498"><ele>324.0</ele><time>2026-04-25T10:33:15Z</time></trkpt><trkpt lat="43.47035661925828" lon="12.987393139851845"><ele>326.0</ele><time>2026-04-25T10:33:16Z</time></trkpt><trkpt lat="43.470272923762536" lon="12.98731051140961"><ele>328.0</ele><time>2026-04-25T10:33:17Z</time></trkpt><trkpt lat="43.47016995035387" lon="12.987285496623636"><ele>330.0</ele><time>2026-04-25T10:33:18Z</time></trkpt><trkpt lat="43.47005589012031" lon="12.987313051064541"><ele>330.0</ele><time>2026-04-25T10:33:19Z</time></trkpt><trkpt lat="43.469957896620826" lon="12.987364268885711"><ele>330.0</ele><time>2026-04-25T10:33:20Z</time></trkpt><trkpt lat="43.46988321790506" lon="12.987437629487687"><ele>330.0</ele><time>2026-04-25T10:33:21Z</time></trkpt><trkpt lat="43.46985742287727" lon="12.987561606876774"><ele>330.0</ele><time>2026-04-25T10:33:22Z</time></trkpt><trkpt lat="43.4698796252991" lon="12.987714173610527"><ele>330.0</ele><time>2026-04-25T10:33:23Z</time></trkpt><trkpt lat="43.469940939046914" lon="12.987872804545619"><ele>334.5</ele><time>2026-04-25T10:33:24Z</time></trkpt><trkpt lat="43.47004049056017" lon="12.988008232582365"><ele>339.0</ele><time>2026-04-25T10:33:25Z</time></trkpt><trkpt lat="43.47014532810464" lon="12.988145488075384"><ele>343.5</ele><time>2026-04-25T10:33:26Z</time></trkpt><trkpt lat="43.4702452736971" lon="12.988310216324388"><ele>348.0</ele><time>2026-04-25T10:33:27Z</time></trkpt><trkpt lat="43.47035235072021" lon="12.988485457781882"><ele>343.6666666666667</ele><time>2026-04-25T10:33:28Z</time></trkpt><trkpt lat="43.47046982357276" lon="12.98866617554687"><ele>339.33333333333337</ele><time>2026-04-25T10:33:29Z</time></trkpt><trkpt lat="43.47059510437932" lon="12.988860786983704"><ele>335.0</ele><time>2026-04-25T10:33:30Z</time></trkpt><trkpt lat="43.47072159077038" lon="12.989058066957282"><ele>346.0</ele><time>2026-04-25T10:33:31Z</time></trkpt><trkpt lat="43.47084516350234" lon="12.989258485281459"><ele>357.0</ele><time>2026-04-25T10:33:32Z</time></trkpt><trkpt lat="43.47097754468434" lon="12.989458752262207"><ele>368.0</ele><time>2026-04-25T10:33:33Z</time></trkpt><trkpt lat="43.471107776301025" lon="12.989676631728104"><ele>368.0</ele><time>2026-04-25T10:33:34Z</time></trkpt><trkpt lat="43.471245452228814" lon="12.989888856762292"><ele>368.0</ele><time>2026-04-25T10:33:35Z</time></trkpt><trkpt lat="43.47139419343147" lon="12.990091575659351"><ele>368.0</ele><time>2026-04-25T10:33:36Z</time></trkpt><trkpt lat="43.4715526383288" lon="12.990281667907466"><ele>368.0</ele><time>2026-04-25T10:33:37Z</time></trkpt><trkpt lat="43.47171741382309" lon="12.990467618784683"><ele>368.0</ele><time>2026-04-25T10:33:38Z</time></trkpt><trkpt lat="43.471872434160545" lon="12.990671139310459"><ele>368.0</ele><time>2026-04-25T10:33:39Z</time></trkpt><trkpt lat="43.47203123823315" lon="12.990865215363833"><ele>363.33333333333337</ele><time>2026-04-25T10:33:40Z</time></trkpt><trkpt lat="43.472181669088094" lon="12.991076764682328"><ele>358.6666666666667</ele><time>2026-04-25T10:33:41Z</time></trkpt><trkpt lat="43.4723229849097" lon="12.991302221611264"><ele>354.0</ele><time>2026-04-25T10:33:42Z</time></trkpt><trkpt lat="43.47246203623384" lon="12.991527777506978"><ele>359.0</ele><time>2026-04-25T10:33:43Z</time></trkpt><trkpt lat="43.47259204325943" lon="12.991736969492198"><ele>364.0</ele><time>2026-04-25T10:33:44Z</time></trkpt><trkpt lat="43.472712430334916" lon="12.991915026228286"><ele>369.0</ele><time>2026-04-25T10:33:45Z</time></trkpt><trkpt lat="43.47282751069137" lon="12.992073657067762"><ele>369.0</ele><time>2026-04-25T10:33:46Z</time></trkpt><trkpt lat="43.47292953991445" lon="12.992209717983021"><ele>369.0</ele><time>2026-04-25T10:33:47Z</time></trkpt><trkpt lat="43.47304138518438" lon="12.99228048134589"><ele>369.0</ele><time>2026-04-25T10:33:48Z</time></trkpt><trkpt lat="43.47309912404753" lon="12.992388110721038"><ele>369.0</ele><time>2026-04-25T10:33:49Z</time></trkpt><trkpt lat="43.47311764042109" lon="12.992507752195888"><ele>366.75</ele><time>2026-04-25T10:33:50Z</time></trkpt><trkpt lat="43.47308932621072" lon="12.99262229557443"><ele>364.5</ele><time>2026-04-25T10:33:51Z</time></trkpt><trkpt lat="43.47301174230476" lon="12.992727083087905"><ele>362.25</ele><time>2026-04-25T10:33:52Z</time></trkpt><trkpt lat="43.472892947704565" lon="12.992792773058396"><ele>360.0</ele><time>2026-04-25T10:33:53Z</time></trkpt><trkpt lat="43.472758708250346" lon="12.992822218680836"><ele>360.0</ele><time>2026-04-25T10:33:54Z</time></trkpt><trkpt lat="43.47261824144998" lon="12.992857076043546"><ele>360.0</ele><time>2026-04-25T10:33:55Z</time></trkpt><trkpt lat="43.47247098749658" lon="12.992892639012071"><ele>360.0</ele><time>2026-04-25T10:33:56Z</time></trkpt><trkpt lat="43.472311818434356" lon="12.992908408201375"><ele>368.5</ele><time>2026-04-25T10:33:57Z</time></trkpt><trkpt lat="43.4719770989628" lon="12.99287168690161"><ele>377.0</ele><time>2026-04-25T10:33:59Z</time></trkpt><trkpt lat="43.47182955966739" lon="12.992834098462815"><ele>377.0</ele><time>2026-04-25T10:34:00Z</time></trkpt><trkpt lat="43.471712518217785" lon="12.992793470680963"><ele>377.0</ele><time>2026-04-25T10:34:01Z</time></trkpt><trkpt lat="43.4716233999841" lon="12.992794350127118"><ele>377.0</ele><time>2026-04-25T10:34:02Z</time></trkpt><trkpt lat="43.47153487877134" lon="12.992823762699109"><ele>377.0</ele><time>2026-04-25T10:34:03Z</time></trkpt><trkpt lat="43.47148366173577" lon="12.9929176804029"><ele>377.0</ele><time>2026-04-25T10:34:04Z</time></trkpt><trkpt lat="43.47147950289367" lon="12.993062341916655"><ele>377.0</ele><time>2026-04-25T10:34:05Z</time></trkpt><trkpt lat="43.47151760232169" lon="12.993192271796733"><ele>377.0</ele><time>2026-04-25T10:34:06Z</time></trkpt><trkpt lat="43.47159935518416" lon="12.993305881373923"><ele>377.0</ele><time>2026-04-25T10:34:07Z</time></trkpt><trkpt lat="43.47169800011672" lon="12.993419235484064"><ele>377.0</ele><time>2026-04-25T10:34:08Z</time></trkpt><trkpt lat="43.47178476455797" lon="12.993561399365284"><ele>379.0</ele><time>2026-04-25T10:34:09Z</time></trkpt><trkpt lat="43.47188903420783" lon="12.993695602799162"><ele>381.0</ele><time>2026-04-25T10:34:10Z</time></trkpt><trkpt lat="43.47202022382809" lon="12.993811019137139"><ele>383.0</ele><time>2026-04-25T10:34:11Z</time></trkpt><trkpt lat="43.47216100280901" lon="12.99390642934139"><ele>379.59999999999997</ele><time>2026-04-25T10:34:12Z</time></trkpt><trkpt lat="43.47228534420138" lon="12.993992196846085"><ele>376.2</ele><time>2026-04-25T10:34:13Z</time></trkpt><trkpt lat="43.47235118768818" lon="12.994094989489787"><ele>372.8</ele><time>2026-04-25T10:34:14Z</time></trkpt><trkpt lat="43.47235263933954" lon="12.994222588103408"><ele>369.4</ele><time>2026-04-25T10:34:15Z</time></trkpt><trkpt lat="43.472294450971376" lon="12.994328896742466"><ele>366.0</ele><time>2026-04-25T10:34:16Z</time></trkpt><trkpt lat="43.47219264605252" lon="12.994378367529666"><ele>365.75</ele><time>2026-04-25T10:34:17Z</time></trkpt><trkpt lat="43.472066714114916" lon="12.994373990247244"><ele>365.5</ele><time>2026-04-25T10:34:18Z</time></trkpt><trkpt lat="43.47193590382863" lon="12.994364683942182"><ele>365.25</ele><time>2026-04-25T10:34:19Z</time></trkpt><trkpt lat="43.47179944984741" lon="12.994384265227037"><ele>365.0</ele><time>2026-04-25T10:34:20Z</time></trkpt><trkpt lat="43.47165309988784" lon="12.994406559383286"><ele>365.0</ele><time>2026-04-25T10:34:21Z</time></trkpt><trkpt lat="43.47149804017329" lon="12.994423811416317"><ele>365.0</ele><time>2026-04-25T10:34:22Z</time></trkpt><trkpt lat="43.47133174304154" lon="12.994446326902006"><ele>365.0</ele><time>2026-04-25T10:34:23Z</time></trkpt><trkpt lat="43.471158359271264" lon="12.994470771103847"><ele>368.0</ele><time>2026-04-25T10:34:24Z</time></trkpt><trkpt lat="43.47097643685725" lon="12.994496200057139"><ele>371.0</ele><time>2026-04-25T10:34:25Z</time></trkpt><trkpt lat="43.470792037022406" lon="12.994536511223682"><ele>374.0</ele><time>2026-04-25T10:34:26Z</time></trkpt><trkpt lat="43.47060782746222" lon="12.99459400302714"><ele>376.6666666666667</ele><time>2026-04-25T10:34:27Z</time></trkpt><trkpt lat="43.47042249147051" lon="12.994628277791358"><ele>379.3333333333333</ele><time>2026-04-25T10:34:28Z</time></trkpt><trkpt lat="43.47022831426197" lon="12.994610209477136"><ele>382.0</ele><time>2026-04-25T10:34:29Z</time></trkpt><trkpt lat="43.47004676501526" lon="12.994579661466048"><ele>382.0</ele><time>2026-04-25T10:34:30Z</time></trkpt><trkpt lat="43.4698811554017" lon="12.99459206999928"><ele>382.0</ele><time>2026-04-25T10:34:31Z</time></trkpt><trkpt lat="43.46972293641244" lon="12.994650741099248"><ele>382.0</ele><time>2026-04-25T10:34:32Z</time></trkpt><trkpt lat="43.46957314134477" lon="12.994761467789791"><ele>379.0</ele><time>2026-04-25T10:34:33Z</time></trkpt><trkpt lat="43.469436971390884" lon="12.994907629320068"><ele>376.0</ele><time>2026-04-25T10:34:34Z</time></trkpt><trkpt lat="43.469291932047035" lon="12.995025693721566"><ele>373.0</ele><time>2026-04-25T10:34:35Z</time></trkpt><trkpt lat="43.469127682772964" lon="12.995065207318316"><ele>373.0</ele><time>2026-04-25T10:34:36Z</time></trkpt><trkpt lat="43.46895537807801" lon="12.995034087766062"><ele>373.0</ele><time>2026-04-25T10:34:37Z</time></trkpt><trkpt lat="43.46881470826551" lon="12.994920887920674"><ele>373.0</ele><time>2026-04-25T10:34:38Z</time></trkpt><trkpt lat="43.46868337828044" lon="12.99476996432736"><ele>382.3333333333333</ele><time>2026-04-25T10:34:39Z</time></trkpt><trkpt lat="43.468544765224074" lon="12.994631883915579"><ele>391.66666666666663</ele><time>2026-04-25T10:34:40Z</time></trkpt><trkpt lat="43.46839113785938" lon="12.994500746400318"><ele>401.0</ele><time>2026-04-25T10:34:41Z</time></trkpt><trkpt lat="43.46823616477174" lon="12.99438776538487"><ele>401.0</ele><time>2026-04-25T10:34:42Z</time></trkpt><trkpt lat="43.468089512270524" lon="12.994282857806956"><ele>401.0</ele><time>2026-04-25T10:34:43Z</time></trkpt><trkpt lat="43.467975136703934" lon="12.994207783178355"><ele>401.0</ele><time>2026-04-25T10:34:44Z</time></trkpt><trkpt lat="43.467780817845885" lon="12.994187833275303"><ele>406.8</ele><time>2026-04-25T10:34:45Z</time></trkpt><trkpt lat="43.46767938983034" lon="12.994105382160177"><ele>412.6</ele><time>2026-04-25T10:34:46Z</time></trkpt><trkpt lat="43.46759139081171" lon="12.99403896425533"><ele>418.4</ele><time>2026-04-25T10:34:47Z</time></trkpt><trkpt lat="43.46751676557032" lon="12.994067433694486"><ele>424.2</ele><time>2026-04-25T10:34:48Z</time></trkpt><trkpt lat="43.46744850357223" lon="12.994141013851971"><ele>430.0</ele><time>2026-04-25T10:34:49Z</time></trkpt><trkpt lat="43.46741326958065" lon="12.994266298232061"><ele>430.0</ele><time>2026-04-25T10:34:50Z</time></trkpt><trkpt lat="43.46742517673963" lon="12.994406777817437"><ele>430.0</ele><time>2026-04-25T10:34:51Z</time></trkpt><trkpt lat="43.46748652907504" lon="12.99457413549621"><ele>430.0</ele><time>2026-04-25T10:34:52Z</time></trkpt><trkpt lat="43.467561749086315" lon="12.994728629608508"><ele>430.0</ele><time>2026-04-25T10:34:53Z</time></trkpt><trkpt lat="43.467627102887974" lon="12.994907260890566"><ele>433.0</ele><time>2026-04-25T10:34:54Z</time></trkpt><trkpt lat="43.46766769816635" lon="12.995109041152823"><ele>436.0</ele><time>2026-04-25T10:34:55Z</time></trkpt><trkpt lat="43.467701294672665" lon="12.995324602513776"><ele>439.0</ele><time>2026-04-25T10:34:56Z</time></trkpt><trkpt lat="43.46775129173658" lon="12.995547393471899"><ele>439.0</ele><time>2026-04-25T10:34:57Z</time></trkpt><trkpt lat="43.46780377983069" lon="12.995774143871461"><ele>439.0</ele><time>2026-04-25T10:34:58Z</time></trkpt><trkpt lat="43.46784878585323" lon="12.995986167632942"><ele>439.0</ele><time>2026-04-25T10:34:59Z</time></trkpt><trkpt lat="43.46788935339547" lon="12.996171277886468"><ele>438.25</ele><time>2026-04-25T10:35:00Z</time></trkpt><trkpt lat="43.46791909563559" lon="12.996332820357999"><ele>437.5</ele><time>2026-04-25T10:35:01Z</time></trkpt><trkpt lat="43.46790583205039" lon="12.996507326627405"><ele>436.75</ele><time>2026-04-25T10:35:02Z</time></trkpt><trkpt lat="43.46783975063733" lon="12.996693322891128"><ele>436.0</ele><time>2026-04-25T10:35:03Z</time></trkpt><trkpt lat="43.46774742301785" lon="12.996875446154117"><ele>430.33333333333337</ele><time>2026-04-25T10:35:04Z</time></trkpt><trkpt lat="43.46764413854842" lon="12.99704292213853"><ele>424.66666666666663</ele><time>2026-04-25T10:35:05Z</time></trkpt><trkpt lat="43.46752471959182" lon="12.99718797466659"><ele>419.0</ele><time>2026-04-25T10:35:06Z</time></trkpt><trkpt lat="43.46738061797903" lon="12.99731291523687"><ele>419.0</ele><time>2026-04-25T10:35:07Z</time></trkpt><trkpt lat="43.46722279507449" lon="12.997416069761947"><ele>419.0</ele><time>2026-04-25T10:35:08Z</time></trkpt><trkpt lat="43.467056914755396" lon="12.997481830117849"><ele>419.0</ele><time>2026-04-25T10:35:09Z</time></trkpt><trkpt lat="43.46688611958475" lon="12.997509317912112"><ele>419.66666666666663</ele><time>2026-04-25T10:35:10Z</time></trkpt><trkpt lat="43.466714426098406" lon="12.997544628690779"><ele>420.33333333333337</ele><time>2026-04-25T10:35:11Z</time></trkpt><trkpt lat="43.466550555234875" lon="12.99759036734413"><ele>421.0</ele><time>2026-04-25T10:35:12Z</time></trkpt><trkpt lat="43.466395297583084" lon="12.997684609206162"><ele>432.33333333333337</ele><time>2026-04-25T10:35:13Z</time></trkpt><trkpt lat="43.466254573860574" lon="12.99780923915882"><ele>443.66666666666663</ele><time>2026-04-25T10:35:14Z</time></trkpt><trkpt lat="43.466136346864154" lon="12.9979802348373"><ele>455.0</ele><time>2026-04-25T10:35:15Z</time></trkpt><trkpt lat="43.46603875646494" lon="12.998182796636703"><ele>448.3333333333333</ele><time>2026-04-25T10:35:16Z</time></trkpt><trkpt lat="43.46594530431617" lon="12.998394120718503"><ele>441.66666666666663</ele><time>2026-04-25T10:35:17Z</time></trkpt><trkpt lat="43.46584130143741" lon="12.998592796945674"><ele>435.0</ele><time>2026-04-25T10:35:18Z</time></trkpt><trkpt lat="43.46570991239524" lon="12.998761064803041"><ele>435.0</ele><time>2026-04-25T10:35:19Z</time></trkpt><trkpt lat="43.46556323103184" lon="12.998922106713612"><ele>435.0</ele><time>2026-04-25T10:35:20Z</time></trkpt><trkpt lat="43.46542007778329" lon="12.999083917197671"><ele>435.0</ele><time>2026-04-25T10:35:21Z</time></trkpt><trkpt lat="43.465278479185784" lon="12.99925276087516"><ele>441.0</ele><time>2026-04-25T10:35:22Z</time></trkpt><trkpt lat="43.46513481513409" lon="12.999416180557267"><ele>447.0</ele><time>2026-04-25T10:35:23Z</time></trkpt><trkpt lat="43.464989968710704" lon="12.999550615246122"><ele>453.0</ele><time>2026-04-25T10:35:24Z</time></trkpt><trkpt lat="43.46486544397054" lon="12.999672836330122"><ele>453.0</ele><time>2026-04-25T10:35:25Z</time></trkpt><trkpt lat="43.464754981432826" lon="12.999797627410675"><ele>453.0</ele><time>2026-04-25T10:35:26Z</time></trkpt><trkpt lat="43.464657055929464" lon="12.99994227662411"><ele>453.0</ele><time>2026-04-25T10:35:27Z</time></trkpt><trkpt lat="43.46459111401143" lon="13.00006292733429"><ele>453.0</ele><time>2026-04-25T10:35:28Z</time></trkpt><trkpt lat="43.464540977096604" lon="13.00015882260043"><ele>457.2</ele><time>2026-04-25T10:35:29Z</time></trkpt><trkpt lat="43.46449508091451" lon="13.000286111609057"><ele>461.4</ele><time>2026-04-25T10:35:31Z</time></trkpt><trkpt lat="43.46442309611358" lon="13.000341843182284"><ele>465.59999999999997</ele><time>2026-04-25T10:35:41Z</time></trkpt><trkpt lat="43.46435486955491" lon="13.000395256027227"><ele>469.79999999999995</ele><time>2026-04-25T10:35:42Z</time></trkpt><trkpt lat="43.464244550600576" lon="13.000458655906101"><ele>474.0</ele><time>2026-04-25T10:35:43Z</time></trkpt><trkpt lat="43.46411493480219" lon="13.000544282885073"><ele>474.0</ele><time>2026-04-25T10:35:44Z</time></trkpt><trkpt lat="43.46400201854307" lon="13.000600618458884"><ele>474.0</ele><time>2026-04-25T10:35:45Z</time></trkpt><trkpt lat="43.46392252219372" lon="13.0006552805988"><ele>474.0</ele><time>2026-04-25T10:35:46Z</time></trkpt><trkpt lat="43.46383589701612" lon="13.000702209700087"><ele>474.0</ele><time>2026-04-25T10:35:48Z</time></trkpt><trkpt lat="43.46396817782814" lon="13.000816102511736"><ele>470.75</ele><time>2026-04-25T10:35:50Z</time></trkpt><trkpt lat="43.46402512038148" lon="13.000910671561359"><ele>467.5</ele><time>2026-04-25T10:35:51Z</time></trkpt><trkpt lat="43.46408984924239" lon="13.001040244052254"><ele>464.25</ele><time>2026-04-25T10:35:52Z</time></trkpt><trkpt lat="43.46418196407596" lon="13.001177930254116"><ele>461.0</ele><time>2026-04-25T10:35:53Z</time></trkpt><trkpt lat="43.46427103816552" lon="13.001350716262252"><ele>461.0</ele><time>2026-04-25T10:35:54Z</time></trkpt><trkpt lat="43.46435304441481" lon="13.001530729931458"><ele>461.0</ele><time>2026-04-25T10:35:55Z</time></trkpt><trkpt lat="43.46440146134111" lon="13.001743530490941"><ele>461.0</ele><time>2026-04-25T10:35:56Z</time></trkpt><trkpt lat="43.464426546003274" lon="13.001973490495947"><ele>459.0</ele><time>2026-04-25T10:35:57Z</time></trkpt><trkpt lat="43.46445039721348" lon="13.002174395795297"><ele>457.0</ele><time>2026-04-25T10:35:58Z</time></trkpt><trkpt lat="43.46447098491329" lon="13.002364304430643"><ele>455.0</ele><time>2026-04-25T10:35:59Z</time></trkpt><trkpt lat="43.46451759633735" lon="13.002514180019523"><ele>453.0</ele><time>2026-04-25T10:36:00Z</time></trkpt><trkpt lat="43.46456329893448" lon="13.00261656096486"><ele>453.0</ele><time>2026-04-25T10:36:01Z</time></trkpt><trkpt lat="43.464633163263144" lon="13.002655972179737"><ele>452.99999999999994</ele><time>2026-04-25T10:36:02Z</time></trkpt><trkpt lat="43.46471218576028" lon="13.002683282194782"><ele>452.99999999999994</ele><time>2026-04-25T10:36:03Z</time></trkpt><trkpt lat="43.46480918848481" lon="13.002651268329569"><ele>453.0</ele><time>2026-04-25T10:36:04Z</time></trkpt><trkpt lat="43.46492264988872" lon="13.002604300608114"><ele>453.0</ele><time>2026-04-25T10:36:05Z</time></trkpt><trkpt lat="43.46505354529521" lon="13.002573567788348"><ele>453.0</ele><time>2026-04-25T10:36:06Z</time></trkpt><trkpt lat="43.46518538972247" lon="13.002507767069568"><ele>453.0</ele><time>2026-04-25T10:36:07Z</time></trkpt><trkpt lat="43.465325909928815" lon="13.00244898837578"><ele>453.0</ele><time>2026-04-25T10:36:08Z</time></trkpt><trkpt lat="43.46546418614183" lon="13.002380787932935"><ele>453.0</ele><time>2026-04-25T10:36:09Z</time></trkpt><trkpt lat="43.46558846372746" lon="13.002323468439634"><ele>451.59999999999997</ele><time>2026-04-25T10:36:10Z</time></trkpt><trkpt lat="43.46569053677388" lon="13.002269448762487"><ele>450.19999999999993</ele><time>2026-04-25T10:36:11Z</time></trkpt><trkpt lat="43.465768198733606" lon="13.002235909442707"><ele>448.8</ele><time>2026-04-25T10:36:12Z</time></trkpt><trkpt lat="43.46583948552738" lon="13.002220083780022"><ele>447.4</ele><time>2026-04-25T10:36:13Z</time></trkpt><trkpt lat="43.465957842401906" lon="13.002349668190845"><ele>446.0</ele><time>2026-04-25T10:36:15Z</time></trkpt><trkpt lat="43.46602770477177" lon="13.002427718942888"><ele>448.5</ele><time>2026-04-25T10:36:16Z</time></trkpt><trkpt lat="43.466068102759436" lon="13.002536344249513"><ele>451.0</ele><time>2026-04-25T10:36:17Z</time></trkpt><trkpt lat="43.46615265602432" lon="13.002708627203159"><ele>453.5</ele><time>2026-04-25T10:36:18Z</time></trkpt><trkpt lat="43.46621673429677" lon="13.002837698724749"><ele>456.0</ele><time>2026-04-25T10:36:19Z</time></trkpt><trkpt lat="43.466298408019206" lon="13.003002212418382"><ele>456.66666666666663</ele><time>2026-04-25T10:36:20Z</time></trkpt><trkpt lat="43.46638489745014" lon="13.003181711218609"><ele>457.3333333333333</ele><time>2026-04-25T10:36:21Z</time></trkpt><trkpt lat="43.4664800541435" lon="13.00338100990382"><ele>458.0</ele><time>2026-04-25T10:36:22Z</time></trkpt><trkpt lat="43.46657547239167" lon="13.003583930422044"><ele>456.3333333333333</ele><time>2026-04-25T10:36:23Z</time></trkpt><trkpt lat="43.46667231404359" lon="13.003794280699283"><ele>454.66666666666663</ele><time>2026-04-25T10:36:24Z</time></trkpt><trkpt lat="43.46676956054034" lon="13.00400551033761"><ele>453.0</ele><time>2026-04-25T10:36:25Z</time></trkpt><trkpt lat="43.46686814076829" lon="13.00421963697861"><ele>453.0</ele><time>2026-04-25T10:36:26Z</time></trkpt><trkpt lat="43.46696340684003" lon="13.004428063406142"><ele>453.0</ele><time>2026-04-25T10:36:27Z</time></trkpt><trkpt lat="43.467054069971624" lon="13.00463913477131"><ele>453.0</ele><time>2026-04-25T10:36:28Z</time></trkpt><trkpt lat="43.46714963922617" lon="13.004854638814438"><ele>459.0</ele><time>2026-04-25T10:36:29Z</time></trkpt><trkpt lat="43.467215871963" lon="13.0050872250303"><ele>465.0</ele><time>2026-04-25T10:36:30Z</time></trkpt><trkpt lat="43.46725684493742" lon="13.005338669418279"><ele>471.0</ele><time>2026-04-25T10:36:31Z</time></trkpt><trkpt lat="43.46729337990842" lon="13.00558758310388"><ele>469.0</ele><time>2026-04-25T10:36:32Z</time></trkpt><trkpt lat="43.46732907882706" lon="13.005832623542002"><ele>467.0</ele><time>2026-04-25T10:36:33Z</time></trkpt><trkpt lat="43.46737035728689" lon="13.006062287304287"><ele>465.0</ele><time>2026-04-25T10:36:34Z</time></trkpt><trkpt lat="43.46739913181725" lon="13.006276024830113"><ele>465.0</ele><time>2026-04-25T10:36:35Z</time></trkpt><trkpt lat="43.467429567719535" lon="13.00648573731829"><ele>465.0</ele><time>2026-04-25T10:36:36Z</time></trkpt><trkpt lat="43.46745435963408" lon="13.006705255504823"><ele>465.0</ele><time>2026-04-25T10:36:37Z</time></trkpt><trkpt lat="43.467430109491005" lon="13.006925224694914"><ele>464.0</ele><time>2026-04-25T10:36:38Z</time></trkpt><trkpt lat="43.46740015044563" lon="13.007149614765794"><ele>463.0</ele><time>2026-04-25T10:36:39Z</time></trkpt><trkpt lat="43.46737908808114" lon="13.00735734292828"><ele>462.0</ele><time>2026-04-25T10:36:40Z</time></trkpt><trkpt lat="43.46735498001733" lon="13.007546785861091"><ele>461.5</ele><time>2026-04-25T10:36:41Z</time></trkpt><trkpt lat="43.46736193768882" lon="13.007729170728304"><ele>461.0</ele><time>2026-04-25T10:36:42Z</time></trkpt><trkpt lat="43.46740729813922" lon="13.007922892443332"><ele>460.5</ele><time>2026-04-25T10:36:43Z</time></trkpt><trkpt lat="43.46746346830011" lon="13.008128172696509"><ele>460.0</ele><time>2026-04-25T10:36:44Z</time></trkpt><trkpt lat="43.467504872553214" lon="13.00834545639018"><ele>459.0</ele><time>2026-04-25T10:36:45Z</time></trkpt><trkpt lat="43.46754641371232" lon="13.008551059925104"><ele>458.0</ele><time>2026-04-25T10:36:46Z</time></trkpt><trkpt lat="43.46760128596558" lon="13.008737494640059"><ele>457.0</ele><time>2026-04-25T10:36:47Z</time></trkpt><trkpt lat="43.46768255840792" lon="13.00890620063589"><ele>456.0</ele><time>2026-04-25T10:36:48Z</time></trkpt><trkpt lat="43.467789828608595" lon="13.009067106222519"><ele>452.66666666666663</ele><time>2026-04-25T10:36:49Z</time></trkpt><trkpt lat="43.46789908135605" lon="13.009233265668971"><ele>449.3333333333333</ele><time>2026-04-25T10:36:50Z</time></trkpt><trkpt lat="43.46801114020341" lon="13.009399171274005"><ele>446.0</ele><time>2026-04-25T10:36:51Z</time></trkpt><trkpt lat="43.46813159384519" lon="13.009552255747524"><ele>451.0</ele><time>2026-04-25T10:36:52Z</time></trkpt><trkpt lat="43.468242132208935" lon="13.00968978796119"><ele>456.0</ele><time>2026-04-25T10:36:53Z</time></trkpt><trkpt lat="43.46835587970625" lon="13.00980854161516"><ele>461.0</ele><time>2026-04-25T10:36:54Z</time></trkpt><trkpt lat="43.468473995913975" lon="13.009898172643732"><ele>466.0</ele><time>2026-04-25T10:36:55Z</time></trkpt><trkpt lat="43.46859616957364" lon="13.009978404318872"><ele>465.5</ele><time>2026-04-25T10:36:56Z</time></trkpt><trkpt lat="43.46872034427204" lon="13.010067673178716"><ele>465.0</ele><time>2026-04-25T10:36:57Z</time></trkpt><trkpt lat="43.46884195992609" lon="13.010165773802397"><ele>464.5</ele><time>2026-04-25T10:36:58Z</time></trkpt><trkpt lat="43.468946727050074" lon="13.01029305881431"><ele>464.0</ele><time>2026-04-25T10:36:59Z</time></trkpt><trkpt lat="43.46901832625324" lon="13.010446999825689"><ele>464.0</ele><time>2026-04-25T10:37:00.001Z</time></trkpt><trkpt lat="43.46905381462384" lon="13.010638233181696"><ele>464.0</ele><time>2026-04-25T10:37:01.001Z</time></trkpt><trkpt lat="43.469063030106646" lon="13.01083744306107"><ele>464.0</ele><time>2026-04-25T10:37:02.001Z</time></trkpt><trkpt lat="43.46907838742052" lon="13.011031657942668"><ele>464.0</ele><time>2026-04-25T10:37:03.001Z</time></trkpt><trkpt lat="43.46913929117885" lon="13.011197261736614"><ele>462.0</ele><time>2026-04-25T10:37:04.001Z</time></trkpt><trkpt lat="43.46924369143126" lon="13.011338919553873"><ele>460.0</ele><time>2026-04-25T10:37:05.001Z</time></trkpt><trkpt lat="43.469373579383216" lon="13.011447569722721"><ele>458.0</ele><time>2026-04-25T10:37:06.001Z</time></trkpt><trkpt lat="43.4695219907523" lon="13.011509357359614"><ele>459.3333333333333</ele><time>2026-04-25T10:37:07.001Z</time></trkpt><trkpt lat="43.46968370491302" lon="13.011516202748933"><ele>460.66666666666663</ele><time>2026-04-25T10:37:08.001Z</time></trkpt><trkpt lat="43.46985259587413" lon="13.011488974758876"><ele>462.0</ele><time>2026-04-25T10:37:09.001Z</time></trkpt><trkpt lat="43.47002418071971" lon="13.011456098871436"><ele>462.0</ele><time>2026-04-25T10:37:10.001Z</time></trkpt><trkpt lat="43.47020000594302" lon="13.011436236308072"><ele>462.0</ele><time>2026-04-25T10:37:11.001Z</time></trkpt><trkpt lat="43.47037927788764" lon="13.011426079375878"><ele>462.0</ele><time>2026-04-25T10:37:12.001Z</time></trkpt><trkpt lat="43.470559238238685" lon="13.011421040177218"><ele>465.0</ele><time>2026-04-25T10:37:13.001Z</time></trkpt><trkpt lat="43.47072385476729" lon="13.011463357461286"><ele>468.0</ele><time>2026-04-25T10:37:14.001Z</time></trkpt><trkpt lat="43.47087853565179" lon="13.01147309120594"><ele>471.0</ele><time>2026-04-25T10:37:15.001Z</time></trkpt><trkpt lat="43.47102466573014" lon="13.01155389155215"><ele>470.66666666666663</ele><time>2026-04-25T10:37:16.001Z</time></trkpt><trkpt lat="43.47113906811215" lon="13.011708870199454"><ele>470.3333333333333</ele><time>2026-04-25T10:37:17.001Z</time></trkpt><trkpt lat="43.47125578092628" lon="13.011880100906021"><ele>470.0</ele><time>2026-04-25T10:37:18.001Z</time></trkpt><trkpt lat="43.471377273862835" lon="13.01205496086269"><ele>470.0</ele><time>2026-04-25T10:37:19.001Z</time></trkpt><trkpt lat="43.47150796523225" lon="13.012230068898688"><ele>470.0</ele><time>2026-04-25T10:37:20.001Z</time></trkpt><trkpt lat="43.471628922976635" lon="13.012405664334471"><ele>470.0</ele><time>2026-04-25T10:37:21.001Z</time></trkpt><trkpt lat="43.471745174520265" lon="13.012563238060675"><ele>466.5</ele><time>2026-04-25T10:37:22.001Z</time></trkpt><trkpt lat="43.4718451121066" lon="13.012699573804706"><ele>463.0</ele><time>2026-04-25T10:37:23.001Z</time></trkpt><trkpt lat="43.47192291075777" lon="13.012812761058957"><ele>459.5</ele><time>2026-04-25T10:37:24.001Z</time></trkpt><trkpt lat="43.47198271393797" lon="13.012920832852792"><ele>456.0</ele><time>2026-04-25T10:37:25.001Z</time></trkpt><trkpt lat="43.47200398047661" lon="13.0130722859753"><ele>456.0</ele><time>2026-04-25T10:37:26.001Z</time></trkpt><trkpt lat="43.47204496221087" lon="13.013242277838934"><ele>456.0</ele><time>2026-04-25T10:37:27.001Z</time></trkpt><trkpt lat="43.472064760527665" lon="13.013436873273891"><ele>456.0</ele><time>2026-04-25T10:37:28.001Z</time></trkpt><trkpt lat="43.472109859826645" lon="13.013638289359802"><ele>456.0</ele><time>2026-04-25T10:37:29.001Z</time></trkpt><trkpt lat="43.47216071925361" lon="13.013839284965924"><ele>457.0</ele><time>2026-04-25T10:37:30.001Z</time></trkpt><trkpt lat="43.472233802905436" lon="13.014025786177198"><ele>458.0</ele><time>2026-04-25T10:37:31.001Z</time></trkpt><trkpt lat="43.4723414591739" lon="13.01418768849445"><ele>459.0</ele><time>2026-04-25T10:37:32.001Z</time></trkpt><trkpt lat="43.47245372295966" lon="13.01435481892222"><ele>459.0</ele><time>2026-04-25T10:37:33.001Z</time></trkpt><trkpt lat="43.472549879523655" lon="13.01453882705029"><ele>459.0</ele><time>2026-04-25T10:37:34.001Z</time></trkpt><trkpt lat="43.47261837978674" lon="13.014751464124632"><ele>459.0</ele><time>2026-04-25T10:37:35.001Z</time></trkpt><trkpt lat="43.47263692571741" lon="13.014980189107774"><ele>457.0</ele><time>2026-04-25T10:37:36.001Z</time></trkpt><trkpt lat="43.472640411814524" lon="13.015193762723856"><ele>455.0</ele><time>2026-04-25T10:37:37.001Z</time></trkpt><trkpt lat="43.47264933758098" lon="13.015385261252048"><ele>453.0</ele><time>2026-04-25T10:37:38.001Z</time></trkpt><trkpt lat="43.472662970232875" lon="13.01553510226394"><ele>451.0</ele><time>2026-04-25T10:37:39.001Z</time></trkpt><trkpt lat="43.47273046187733" lon="13.015659350594408"><ele>451.0</ele><time>2026-04-25T10:37:40.001Z</time></trkpt><trkpt lat="43.47283956396448" lon="13.015757688590263"><ele>451.0</ele><time>2026-04-25T10:37:41.001Z</time></trkpt><trkpt lat="43.472968597745485" lon="13.015836011330292"><ele>451.0</ele><time>2026-04-25T10:37:42.001Z</time></trkpt><trkpt lat="43.47310462937894" lon="13.015917298756506"><ele>451.0</ele><time>2026-04-25T10:37:43.001Z</time></trkpt><trkpt lat="43.4732437621037" lon="13.016007709903738"><ele>452.25</ele><time>2026-04-25T10:37:44.001Z</time></trkpt><trkpt lat="43.473379698732415" lon="13.016098247434607"><ele>453.5</ele><time>2026-04-25T10:37:45.001Z</time></trkpt><trkpt lat="43.47349288037956" lon="13.016188329430431"><ele>454.75</ele><time>2026-04-25T10:37:46.001Z</time></trkpt><trkpt lat="43.473590418768495" lon="13.016289494673737"><ele>456.0</ele><time>2026-04-25T10:37:47.001Z</time></trkpt><trkpt lat="43.473661464852704" lon="13.016410157804986"><ele>456.0</ele><time>2026-04-25T10:37:48.001Z</time></trkpt><trkpt lat="43.47373110762506" lon="13.016544796746707"><ele>456.0</ele><time>2026-04-25T10:37:49.001Z</time></trkpt><trkpt lat="43.473794108051" lon="13.016693488633548"><ele>456.0</ele><time>2026-04-25T10:37:50.001Z</time></trkpt><trkpt lat="43.47382268361405" lon="13.016867433783222"><ele>456.0</ele><time>2026-04-25T10:37:51.001Z</time></trkpt><trkpt lat="43.47386721293181" lon="13.017048740966892"><ele>456.0</ele><time>2026-04-25T10:37:52.001Z</time></trkpt><trkpt lat="43.4738827361886" lon="13.017256234059744"><ele>456.0</ele><time>2026-04-25T10:37:53.001Z</time></trkpt><trkpt lat="43.473907015010234" lon="13.017478647256205"><ele>456.0</ele><time>2026-04-25T10:37:54.001Z</time></trkpt><trkpt lat="43.47395493460371" lon="13.017663489580217"><ele>456.0</ele><time>2026-04-25T10:37:55.001Z</time></trkpt><trkpt lat="43.4739792746668" lon="13.017844084210605"><ele>456.0</ele><time>2026-04-25T10:37:56.001Z</time></trkpt><trkpt lat="43.47400560249354" lon="13.01801496423313"><ele>456.0</ele><time>2026-04-25T10:37:57.001Z</time></trkpt><trkpt lat="43.474033823495105" lon="13.018175103641461"><ele>456.0</ele><time>2026-04-25T10:37:58.001Z</time></trkpt><trkpt lat="43.47405480267682" lon="13.018320733319248"><ele>455.25</ele><time>2026-04-25T10:37:59.001Z</time></trkpt><trkpt lat="43.474075438563894" lon="13.018480975903227"><ele>454.5</ele><time>2026-04-25T10:38:00.001Z</time></trkpt><trkpt lat="43.474098898062444" lon="13.018650627564048"><ele>453.75</ele><time>2026-04-25T10:38:01.001Z</time></trkpt><trkpt lat="43.47412091805868" lon="13.018837617819727"><ele>453.0</ele><time>2026-04-25T10:38:02.001Z</time></trkpt><trkpt lat="43.47415343233068" lon="13.019037765149953"><ele>451.0</ele><time>2026-04-25T10:38:03.001Z</time></trkpt><trkpt lat="43.47419022851045" lon="13.019243845456167"><ele>449.0</ele><time>2026-04-25T10:38:04.001Z</time></trkpt><trkpt lat="43.47422484354612" lon="13.01946438321356"><ele>447.0</ele><time>2026-04-25T10:38:05.001Z</time></trkpt><trkpt lat="43.47428328959076" lon="13.019679856512456"><ele>447.0</ele><time>2026-04-25T10:38:06.001Z</time></trkpt><trkpt lat="43.474377729758665" lon="13.01988828953002"><ele>447.0</ele><time>2026-04-25T10:38:07.001Z</time></trkpt><trkpt lat="43.47449582528385" lon="13.020081612979864"><ele>447.0</ele><time>2026-04-25T10:38:08.001Z</time></trkpt><trkpt lat="43.4746045819129" lon="13.020262825586494"><ele>447.33333333333337</ele><time>2026-04-25T10:38:09.001Z</time></trkpt><trkpt lat="43.47470900748776" lon="13.020440896220281"><ele>447.6666666666667</ele><time>2026-04-25T10:38:10.001Z</time></trkpt><trkpt lat="43.47481619664334" lon="13.020629097980136"><ele>448.0</ele><time>2026-04-25T10:38:11.001Z</time></trkpt><trkpt lat="43.47492603594618" lon="13.020817835949575"><ele>445.6666666666667</ele><time>2026-04-25T10:38:12.001Z</time></trkpt><trkpt lat="43.47502927413722" lon="13.02100062930713"><ele>443.33333333333337</ele><time>2026-04-25T10:38:13.001Z</time></trkpt><trkpt lat="43.47513177735751" lon="13.02117628277312"><ele>441.0</ele><time>2026-04-25T10:38:14.001Z</time></trkpt><trkpt lat="43.47521968717661" lon="13.021354750421814"><ele>441.0</ele><time>2026-04-25T10:38:15.001Z</time></trkpt><trkpt lat="43.475280118738205" lon="13.021556797785472"><ele>441.0</ele><time>2026-04-25T10:38:16.001Z</time></trkpt><trkpt lat="43.47530365227673" lon="13.021787662086522"><ele>441.0</ele><time>2026-04-25T10:38:17.001Z</time></trkpt><trkpt lat="43.47529366553151" lon="13.022042778243158"><ele>438.33333333333337</ele><time>2026-04-25T10:38:18.001Z</time></trkpt><trkpt lat="43.475282519629246" lon="13.022301549118994"><ele>435.6666666666667</ele><time>2026-04-25T10:38:19.001Z</time></trkpt><trkpt lat="43.47528279682396" lon="13.022568345023696"><ele>433.0</ele><time>2026-04-25T10:38:20.001Z</time></trkpt><trkpt lat="43.47528537285675" lon="13.022839927801737"><ele>431.33333333333337</ele><time>2026-04-25T10:38:21.001Z</time></trkpt><trkpt lat="43.475285917775686" lon="13.023104908929257"><ele>429.66666666666663</ele><time>2026-04-25T10:38:22.001Z</time></trkpt><trkpt lat="43.47528244125916" lon="13.023360621284784"><ele>428.0</ele><time>2026-04-25T10:38:23.001Z</time></trkpt><trkpt lat="43.475281717710224" lon="13.023607042362075"><ele>425.3333333333333</ele><time>2026-04-25T10:38:24.001Z</time></trkpt><trkpt lat="43.47528481266669" lon="13.023835984175626"><ele>422.66666666666663</ele><time>2026-04-25T10:38:25.001Z</time></trkpt><trkpt lat="43.47529919160195" lon="13.02405519605989"><ele>420.0</ele><time>2026-04-25T10:38:26.001Z</time></trkpt><trkpt lat="43.47534828825124" lon="13.024263250110252"><ele>419.0</ele><time>2026-04-25T10:38:27.001Z</time></trkpt><trkpt lat="43.47541676030916" lon="13.024478422650896"><ele>418.0</ele><time>2026-04-25T10:38:28.001Z</time></trkpt><trkpt lat="43.47550243252468" lon="13.024693192416436"><ele>417.0</ele><time>2026-04-25T10:38:29.001Z</time></trkpt><trkpt lat="43.47560804138196" lon="13.024911122028273"><ele>419.33333333333337</ele><time>2026-04-25T10:38:30.001Z</time></trkpt><trkpt lat="43.4757145124298" lon="13.02513783004689"><ele>421.6666666666667</ele><time>2026-04-25T10:38:31.001Z</time></trkpt><trkpt lat="43.47580852253092" lon="13.025345438309705"><ele>424.0</ele><time>2026-04-25T10:38:32.001Z</time></trkpt><trkpt lat="43.47590127713609" lon="13.025554169490015"><ele>424.0</ele><time>2026-04-25T10:38:33.001Z</time></trkpt><trkpt lat="43.47598280091034" lon="13.025773739388931"><ele>424.0</ele><time>2026-04-25T10:38:34.001Z</time></trkpt><trkpt lat="43.476051516759725" lon="13.026010735368423"><ele>424.0</ele><time>2026-04-25T10:38:35.001Z</time></trkpt><trkpt lat="43.47610358483905" lon="13.026259875406936"><ele>420.33333333333337</ele><time>2026-04-25T10:38:36.001Z</time></trkpt><trkpt lat="43.47614568142605" lon="13.026494380703655"><ele>416.66666666666663</ele><time>2026-04-25T10:38:37.001Z</time></trkpt><trkpt lat="43.476165360561325" lon="13.026735743229896"><ele>413.0</ele><time>2026-04-25T10:38:38.001Z</time></trkpt><trkpt lat="43.4761975007534" lon="13.026950226336792"><ele>412.75</ele><time>2026-04-25T10:38:39.001Z</time></trkpt><trkpt lat="43.4762428126676" lon="13.027136384985216"><ele>412.5</ele><time>2026-04-25T10:38:40.001Z</time></trkpt><trkpt lat="43.476263733054616" lon="13.02730973552177"><ele>412.25</ele><time>2026-04-25T10:38:41.001Z</time></trkpt><trkpt lat="43.47628745203393" lon="13.027474593865666"><ele>412.0</ele><time>2026-04-25T10:38:42.001Z</time></trkpt><trkpt lat="43.476308816153846" lon="13.027635197601475"><ele>410.8</ele><time>2026-04-25T10:38:43.001Z</time></trkpt><trkpt lat="43.47633253282049" lon="13.027786293594877"><ele>409.6</ele><time>2026-04-25T10:38:44.001Z</time></trkpt><trkpt lat="43.47635196631354" lon="13.027923604979962"><ele>408.40000000000003</ele><time>2026-04-25T10:38:45.001Z</time></trkpt><trkpt lat="43.47637234566741" lon="13.02804964691102"><ele>407.20000000000005</ele><time>2026-04-25T10:38:46.001Z</time></trkpt><trkpt lat="43.476439979938064" lon="13.028140102044572"><ele>406.0</ele><time>2026-04-25T10:38:47.001Z</time></trkpt><trkpt lat="43.476389751846604" lon="13.028360691514866"><ele>405.0</ele><time>2026-04-25T10:38:48.001Z</time></trkpt><trkpt lat="43.476360241464555" lon="13.02854842817156"><ele>404.0</ele><time>2026-04-25T10:38:49.001Z</time></trkpt><trkpt lat="43.476315129478955" lon="13.028732660962648"><ele>403.0</ele><time>2026-04-25T10:38:50.001Z</time></trkpt><trkpt lat="43.47623963030447" lon="13.02891297455383"><ele>402.0</ele><time>2026-04-25T10:38:51.001Z</time></trkpt><trkpt lat="43.47613398934405" lon="13.029092168806084"><ele>401.66666666666663</ele><time>2026-04-25T10:38:52.001Z</time></trkpt><trkpt lat="43.476019868038605" lon="13.029262798696966"><ele>401.3333333333333</ele><time>2026-04-25T10:38:53.001Z</time></trkpt><trkpt lat="43.475888974788184" lon="13.029423731719277"><ele>401.0</ele><time>2026-04-25T10:38:54.001Z</time></trkpt><trkpt lat="43.475740497733135" lon="13.029567696478987"><ele>401.0</ele><time>2026-04-25T10:38:55.001Z</time></trkpt><trkpt lat="43.475597217299125" lon="13.029692064186229"><ele>401.0</ele><time>2026-04-25T10:38:56.001Z</time></trkpt><trkpt lat="43.47545881265311" lon="13.02980358440923"><ele>401.0</ele><time>2026-04-25T10:38:57.001Z</time></trkpt><trkpt lat="43.475316889013186" lon="13.029899537230557"><ele>401.5</ele><time>2026-04-25T10:38:58.001Z</time></trkpt><trkpt lat="43.475159798139586" lon="13.0299576883216"><ele>402.0</ele><time>2026-04-25T10:38:59.001Z</time></trkpt><trkpt lat="43.47501662328558" lon="13.029997772246325"><ele>402.5</ele><time>2026-04-25T10:39:00.001Z</time></trkpt><trkpt lat="43.47488891945386" lon="13.030047194674324"><ele>403.0</ele><time>2026-04-25T10:39:01.001Z</time></trkpt><trkpt lat="43.474774819933344" lon="13.030135884385714"><ele>403.0</ele><time>2026-04-25T10:39:02.001Z</time></trkpt><trkpt lat="43.47468285810871" lon="13.030277735538943"><ele>403.0</ele><time>2026-04-25T10:39:03.001Z</time></trkpt><trkpt lat="43.47461186735512" lon="13.030465950455858"><ele>403.0</ele><time>2026-04-25T10:39:04.001Z</time></trkpt><trkpt lat="43.474559822621636" lon="13.030681119491756"><ele>397.33333333333337</ele><time>2026-04-25T10:39:05.001Z</time></trkpt><trkpt lat="43.474513294618056" lon="13.030901352909096"><ele>391.66666666666663</ele><time>2026-04-25T10:39:06.001Z</time></trkpt><trkpt lat="43.47449012099508" lon="13.031127961692707"><ele>386.0</ele><time>2026-04-25T10:39:07.001Z</time></trkpt><trkpt lat="43.47453127578932" lon="13.031368751559677"><ele>386.0</ele><time>2026-04-25T10:39:08.001Z</time></trkpt><trkpt lat="43.47456338005217" lon="13.03160529930273"><ele>386.0</ele><time>2026-04-25T10:39:09.001Z</time></trkpt><trkpt lat="43.47456620841519" lon="13.031834166752068"><ele>386.0</ele><time>2026-04-25T10:39:10.001Z</time></trkpt><trkpt lat="43.474553946122896" lon="13.03206663888914"><ele>384.0</ele><time>2026-04-25T10:39:11.001Z</time></trkpt><trkpt lat="43.474532868802676" lon="13.03230186789896"><ele>382.0</ele><time>2026-04-25T10:39:12.001Z</time></trkpt><trkpt lat="43.47449837627863" lon="13.032518037234274"><ele>380.0</ele><time>2026-04-25T10:39:13.001Z</time></trkpt><trkpt lat="43.47444184149262" lon="13.032715101157144"><ele>379.33333333333337</ele><time>2026-04-25T10:39:14.001Z</time></trkpt><trkpt lat="43.474347568522894" lon="13.032898454781773"><ele>378.6666666666667</ele><time>2026-04-25T10:39:15.001Z</time></trkpt><trkpt lat="43.47421684563996" lon="13.033049658924405"><ele>378.0</ele><time>2026-04-25T10:39:16Z</time></trkpt><trkpt lat="43.47409884635609" lon="13.033223205761725"><ele>381.0</ele><time>2026-04-25T10:39:17Z</time></trkpt><trkpt lat="43.47397439609432" lon="13.033363281199891"><ele>384.0</ele><time>2026-04-25T10:39:18Z</time></trkpt><trkpt lat="43.473867539461985" lon="13.033510103430737"><ele>387.0</ele><time>2026-04-25T10:39:19Z</time></trkpt><trkpt lat="43.47378704340645" lon="13.033687621187568"><ele>380.6666666666667</ele><time>2026-04-25T10:39:20Z</time></trkpt><trkpt lat="43.47374055900892" lon="13.03390795869715"><ele>374.33333333333337</ele><time>2026-04-25T10:39:21Z</time></trkpt><trkpt lat="43.47369431647342" lon="13.03413702810009"><ele>368.0</ele><time>2026-04-25T10:39:22Z</time></trkpt><trkpt lat="43.47361828245737" lon="13.03436787504866"><ele>368.0</ele><time>2026-04-25T10:39:23Z</time></trkpt><trkpt lat="43.47351786650977" lon="13.034584884454077"><ele>368.0</ele><time>2026-04-25T10:39:24Z</time></trkpt><trkpt lat="43.47340273121241" lon="13.034798102237163"><ele>368.0</ele><time>2026-04-25T10:39:25Z</time></trkpt><trkpt lat="43.473283389435494" lon="13.035011548356849"><ele>367.0</ele><time>2026-04-25T10:39:26Z</time></trkpt><trkpt lat="43.47317802842195" lon="13.035226718432758"><ele>366.0</ele><time>2026-04-25T10:39:27Z</time></trkpt><trkpt lat="43.47309672043344" lon="13.035448908462149"><ele>365.0</ele><time>2026-04-25T10:39:28Z</time></trkpt><trkpt lat="43.47303436829627" lon="13.035665273790007"><ele>365.0</ele><time>2026-04-25T10:39:29Z</time></trkpt><trkpt lat="43.472968180702125" lon="13.035866831910308"><ele>365.0</ele><time>2026-04-25T10:39:30Z</time></trkpt><trkpt lat="43.472882307666886" lon="13.036036904555345"><ele>365.0</ele><time>2026-04-25T10:39:31Z</time></trkpt><trkpt lat="43.47278642993221" lon="13.036173742555967"><ele>365.0</ele><time>2026-04-25T10:39:32Z</time></trkpt><trkpt lat="43.472700107979946" lon="13.036288584429785"><ele>364.6</ele><time>2026-04-25T10:39:33Z</time></trkpt><trkpt lat="43.47261919084289" lon="13.03638673546414"><ele>364.2</ele><time>2026-04-25T10:39:34Z</time></trkpt><trkpt lat="43.47253608673641" lon="13.036478117985224"><ele>363.79999999999995</ele><time>2026-04-25T10:39:35Z</time></trkpt><trkpt lat="43.472453292649696" lon="13.036565338560065"><ele>363.4</ele><time>2026-04-25T10:39:36Z</time></trkpt><trkpt lat="43.4723780207701" lon="13.03665255489022"><ele>363.0</ele><time>2026-04-25T10:39:37Z</time></trkpt><trkpt lat="43.47230151554551" lon="13.036739125435819"><ele>363.0</ele><time>2026-04-25T10:39:38Z</time></trkpt><trkpt lat="43.472229462568436" lon="13.036809665505917"><ele>363.0</ele><time>2026-04-25T10:39:39Z</time></trkpt><trkpt lat="43.47215733393978" lon="13.036876759547233"><ele>363.0</ele><time>2026-04-25T10:39:40Z</time></trkpt><trkpt lat="43.47208469505394" lon="13.036946856770951"><ele>363.0</ele><time>2026-04-25T10:39:41Z</time></trkpt><trkpt lat="43.47201530278539" lon="13.037016917892283"><ele>363.0</ele><time>2026-04-25T10:39:42Z</time></trkpt><trkpt lat="43.47194894255634" lon="13.037088631769505"><ele>363.0</ele><time>2026-04-25T10:39:43Z</time></trkpt><trkpt lat="43.4718634207379" lon="13.037164221165414"><ele>363.5</ele><time>2026-04-25T10:39:44Z</time></trkpt><trkpt lat="43.471793015747274" lon="13.037233622439889"><ele>364.0</ele><time>2026-04-25T10:39:45Z</time></trkpt><trkpt lat="43.47172941569812" lon="13.037295580522231"><ele>364.5</ele><time>2026-04-25T10:39:46Z</time></trkpt><trkpt lat="43.47166599399393" lon="13.037348687858229"><ele>365.0</ele><time>2026-04-25T10:39:47Z</time></trkpt><trkpt lat="43.47161584140877" lon="13.037405687567862"><ele>365.5</ele><time>2026-04-25T10:39:48Z</time></trkpt><trkpt lat="43.47156731863546" lon="13.037567128883232"><ele>366.0</ele><time>2026-04-25T10:39:50Z</time></trkpt><trkpt lat="43.471570286984765" lon="13.037670198732485"><ele>366.0</ele><time>2026-04-25T10:39:51Z</time></trkpt><trkpt lat="43.47158275514399" lon="13.037777183144087"><ele>366.0</ele><time>2026-04-25T10:39:52Z</time></trkpt><trkpt lat="43.47160821966662" lon="13.037866070716461"><ele>366.0</ele><time>2026-04-25T10:39:53Z</time></trkpt><trkpt lat="43.47162159916749" lon="13.038009362188202"><ele>366.0</ele><time>2026-04-25T10:39:55Z</time></trkpt><trkpt lat="43.471627310393586" lon="13.038113041048788"><ele>366.0</ele><time>2026-04-25T10:39:57Z</time></trkpt><trkpt lat="43.471559430039655" lon="13.038208116181302"><ele>366.0</ele><time>2026-04-25T10:40:00Z</time></trkpt><trkpt lat="43.4714496976631" lon="13.038236268473813"><ele>366.0</ele><time>2026-04-25T10:40:02Z</time></trkpt><trkpt lat="43.47137797760846" lon="13.038244474518528"><ele>366.0</ele><time>2026-04-25T10:40:03Z</time></trkpt><trkpt lat="43.47129861968722" lon="13.038262320989396"><ele>366.0</ele><time>2026-04-25T10:40:04Z</time></trkpt><trkpt lat="43.47121822310247" lon="13.038297310625282"><ele>366.0</ele><time>2026-04-25T10:40:05Z</time></trkpt><trkpt lat="43.47111889648655" lon="13.038305725475622"><ele>366.0</ele><time>2026-04-25T10:40:06Z</time></trkpt><trkpt lat="43.471009497800594" lon="13.038308056886379"><ele>366.0</ele><time>2026-04-25T10:40:07Z</time></trkpt><trkpt lat="43.470900092230984" lon="13.038300916183372"><ele>362.25</ele><time>2026-04-25T10:40:08Z</time></trkpt><trkpt lat="43.47078510229967" lon="13.038314200399936"><ele>358.5</ele><time>2026-04-25T10:40:09Z</time></trkpt><trkpt lat="43.47066700778089" lon="13.038331051499753"><ele>354.75</ele><time>2026-04-25T10:40:10Z</time></trkpt><trkpt lat="43.47055345221687" lon="13.038365591548823"><ele>351.0</ele><time>2026-04-25T10:40:11Z</time></trkpt><trkpt lat="43.47044747177171" lon="13.038430274800573"><ele>348.0</ele><time>2026-04-25T10:40:12Z</time></trkpt><trkpt lat="43.470361425092" lon="13.038498901385328"><ele>345.0</ele><time>2026-04-25T10:40:13Z</time></trkpt><trkpt lat="43.47029471728116" lon="13.038589922893246"><ele>342.0</ele><time>2026-04-25T10:40:14Z</time></trkpt><trkpt lat="43.470280237674196" lon="13.038726817200978"><ele>339.0</ele><time>2026-04-25T10:40:15Z</time></trkpt><trkpt lat="43.47030400854264" lon="13.038859274534163"><ele>336.0</ele><time>2026-04-25T10:40:16Z</time></trkpt><trkpt lat="43.470363136174676" lon="13.038970984281944"><ele>339.75</ele><time>2026-04-25T10:40:17Z</time></trkpt><trkpt lat="43.4704607458801" lon="13.03903056389707"><ele>343.5</ele><time>2026-04-25T10:40:18Z</time></trkpt><trkpt lat="43.47057617766136" lon="13.03903265836896"><ele>347.25</ele><time>2026-04-25T10:40:19Z</time></trkpt><trkpt lat="43.47070267059284" lon="13.039028104353926"><ele>351.0</ele><time>2026-04-25T10:40:20Z</time></trkpt><trkpt lat="43.47094187643759" lon="13.039022067315468"><ele>351.0</ele><time>2026-04-25T10:40:22Z</time></trkpt><trkpt lat="43.47105784162592" lon="13.039014068187837"><ele>351.0</ele><time>2026-04-25T10:40:23Z</time></trkpt><trkpt lat="43.47117627956201" lon="13.039011213630726"><ele>351.0</ele><time>2026-04-25T10:40:24Z</time></trkpt><trkpt lat="43.471289867055646" lon="13.03903550040789"><ele>351.0</ele><time>2026-04-25T10:40:25Z</time></trkpt><trkpt lat="43.47138977714719" lon="13.03911167580626"><ele>347.25</ele><time>2026-04-25T10:40:26Z</time></trkpt><trkpt lat="43.47146605724505" lon="13.03924167286766"><ele>343.5</ele><time>2026-04-25T10:40:27Z</time></trkpt><trkpt lat="43.471505681910244" lon="13.039404653568308"><ele>339.75</ele><time>2026-04-25T10:40:28Z</time></trkpt><trkpt lat="43.471495291389225" lon="13.039580065984769"><ele>336.0</ele><time>2026-04-25T10:40:29Z</time></trkpt><trkpt lat="43.47145590019259" lon="13.039757968996618"><ele>336.0</ele><time>2026-04-25T10:40:30Z</time></trkpt><trkpt lat="43.47141512860704" lon="13.039938680690982"><ele>336.0</ele><time>2026-04-25T10:40:31Z</time></trkpt><trkpt lat="43.471367935946745" lon="13.040131695239323"><ele>336.0</ele><time>2026-04-25T10:40:32Z</time></trkpt><trkpt lat="43.471328404487636" lon="13.040332186360759"><ele>336.0</ele><time>2026-04-25T10:40:33Z</time></trkpt><trkpt lat="43.471287915102046" lon="13.040531267467768"><ele>336.5</ele><time>2026-04-25T10:40:34Z</time></trkpt><trkpt lat="43.47125497455934" lon="13.040727786370292"><ele>337.0</ele><time>2026-04-25T10:40:35Z</time></trkpt><trkpt lat="43.47119931090929" lon="13.040908934356937"><ele>337.5</ele><time>2026-04-25T10:40:36Z</time></trkpt><trkpt lat="43.47111646942624" lon="13.041064327745923"><ele>338.0</ele><time>2026-04-25T10:40:37Z</time></trkpt><trkpt lat="43.471012530073374" lon="13.041213590737186"><ele>334.6666666666667</ele><time>2026-04-25T10:40:38Z</time></trkpt><trkpt lat="43.47090116906318" lon="13.041356931947487"><ele>331.3333333333333</ele><time>2026-04-25T10:40:39Z</time></trkpt><trkpt lat="43.47079108183429" lon="13.041499773004414"><ele>328.0</ele><time>2026-04-25T10:40:40Z</time></trkpt><trkpt lat="43.47068703133121" lon="13.041641564626843"><ele>324.3333333333333</ele><time>2026-04-25T10:40:41Z</time></trkpt><trkpt lat="43.470603857469975" lon="13.041802142185013"><ele>320.6666666666667</ele><time>2026-04-25T10:40:42Z</time></trkpt><trkpt lat="43.47055556331669" lon="13.041997412087495"><ele>317.0</ele><time>2026-04-25T10:40:43Z</time></trkpt><trkpt lat="43.47053721777857" lon="13.042217453011656"><ele>317.0</ele><time>2026-04-25T10:40:44Z</time></trkpt><trkpt lat="43.47052927290454" lon="13.042454258029782"><ele>317.0</ele><time>2026-04-25T10:40:45Z</time></trkpt><trkpt lat="43.47052102051766" lon="13.042704375766204"><ele>317.0</ele><time>2026-04-25T10:40:46Z</time></trkpt><trkpt lat="43.47051464385954" lon="13.042964284570996"><ele>314.33333333333337</ele><time>2026-04-25T10:40:47Z</time></trkpt><trkpt lat="43.470505525369745" lon="13.043230996368594"><ele>311.6666666666667</ele><time>2026-04-25T10:40:48Z</time></trkpt><trkpt lat="43.47049315228315" lon="13.043499716143902"><ele>309.0</ele><time>2026-04-25T10:40:49Z</time></trkpt><trkpt lat="43.47048246748054" lon="13.043762147586454"><ele>307.6666666666667</ele><time>2026-04-25T10:40:50Z</time></trkpt><trkpt lat="43.4704776512801" lon="13.044011326758046"><ele>306.33333333333337</ele><time>2026-04-25T10:40:51Z</time></trkpt><trkpt lat="43.47047376099354" lon="13.044239511654526"><ele>305.0</ele><time>2026-04-25T10:40:52Z</time></trkpt><trkpt lat="43.470464743939715" lon="13.044434544041605"><ele>305.5</ele><time>2026-04-25T10:40:53Z</time></trkpt><trkpt lat="43.47042802951783" lon="13.044592371413659"><ele>306.0</ele><time>2026-04-25T10:40:54Z</time></trkpt><trkpt lat="43.47034574504958" lon="13.044734882303908"><ele>306.5</ele><time>2026-04-25T10:40:55Z</time></trkpt><trkpt lat="43.4702230610136" lon="13.044842722081338"><ele>307.0</ele><time>2026-04-25T10:40:56Z</time></trkpt><trkpt lat="43.470073215729336" lon="13.044936029533043"><ele>306.66666666666663</ele><time>2026-04-25T10:40:57Z</time></trkpt><trkpt lat="43.46991694944159" lon="13.04504507701743"><ele>306.3333333333333</ele><time>2026-04-25T10:40:58Z</time></trkpt><trkpt lat="43.46975500466867" lon="13.045162061769794"><ele>306.0</ele><time>2026-04-25T10:40:59Z</time></trkpt><trkpt lat="43.46958270169752" lon="13.045275631269591"><ele>306.0</ele><time>2026-04-25T10:41:00Z</time></trkpt><trkpt lat="43.469408035035265" lon="13.045378400398434"><ele>306.0</ele><time>2026-04-25T10:41:01Z</time></trkpt><trkpt lat="43.46924916251241" lon="13.045467641251875"><ele>306.0</ele><time>2026-04-25T10:41:02Z</time></trkpt><trkpt lat="43.4691104351619" lon="13.045551968938934"><ele>306.0</ele><time>2026-04-25T10:41:03Z</time></trkpt><trkpt lat="43.46898730230823" lon="13.045646823114618"><ele>306.0</ele><time>2026-04-25T10:41:04Z</time></trkpt><trkpt lat="43.46888635179555" lon="13.045781447301765"><ele>306.0</ele><time>2026-04-25T10:41:05Z</time></trkpt><trkpt lat="43.468816053091196" lon="13.04596226677468"><ele>306.0</ele><time>2026-04-25T10:41:06Z</time></trkpt><trkpt lat="43.468783774052156" lon="13.046176652308521"><ele>304.3333333333333</ele><time>2026-04-25T10:41:07Z</time></trkpt><trkpt lat="43.46878435584601" lon="13.046394546980252"><ele>302.66666666666663</ele><time>2026-04-25T10:41:08Z</time></trkpt><trkpt lat="43.46882103276078" lon="13.04661071975654"><ele>301.0</ele><time>2026-04-25T10:41:09Z</time></trkpt><trkpt lat="43.46889197999204" lon="13.046812968501287"><ele>300.3333333333333</ele><time>2026-04-25T10:41:10Z</time></trkpt><trkpt lat="43.469010895246484" lon="13.04698688188061"><ele>299.6666666666667</ele><time>2026-04-25T10:41:11Z</time></trkpt><trkpt lat="43.46914471309854" lon="13.047149314586093"><ele>299.0</ele><time>2026-04-25T10:41:12Z</time></trkpt><trkpt lat="43.46926526683834" lon="13.047327664122701"><ele>298.33333333333337</ele><time>2026-04-25T10:41:13Z</time></trkpt><trkpt lat="43.46935253364973" lon="13.04752980677189"><ele>297.6666666666667</ele><time>2026-04-25T10:41:14Z</time></trkpt><trkpt lat="43.46940284547225" lon="13.047745722362015"><ele>297.0</ele><time>2026-04-25T10:41:15Z</time></trkpt><trkpt lat="43.469415601101744" lon="13.0479824155338"><ele>297.0</ele><time>2026-04-25T10:41:16Z</time></trkpt><trkpt lat="43.469385517699266" lon="13.048236623955892"><ele>297.0</ele><time>2026-04-25T10:41:17Z</time></trkpt><trkpt lat="43.469348001067495" lon="13.048490529523466"><ele>297.0</ele><time>2026-04-25T10:41:18Z</time></trkpt><trkpt lat="43.46930726226425" lon="13.048751893883063"><ele>295.6666666666667</ele><time>2026-04-25T10:41:19Z</time></trkpt><trkpt lat="43.469251146655104" lon="13.049000964532754"><ele>294.33333333333337</ele><time>2026-04-25T10:41:20Z</time></trkpt><trkpt lat="43.46919100198363" lon="13.049232523248325"><ele>293.0</ele><time>2026-04-25T10:41:21Z</time></trkpt><trkpt lat="43.469141642307086" lon="13.049434846804829"><ele>291.0</ele><time>2026-04-25T10:41:22Z</time></trkpt><trkpt lat="43.46909767951097" lon="13.049617577491512"><ele>289.0</ele><time>2026-04-25T10:41:23Z</time></trkpt><trkpt lat="43.46900812310044" lon="13.049787588308257"><ele>287.0</ele><time>2026-04-25T10:41:24Z</time></trkpt><trkpt lat="43.46891768967173" lon="13.04995684624358"><ele>285.0</ele><time>2026-04-25T10:41:25Z</time></trkpt><trkpt lat="43.46877722539793" lon="13.050118414661428"><ele>283.6666666666667</ele><time>2026-04-25T10:41:26Z</time></trkpt><trkpt lat="43.46864411712048" lon="13.050322861286626"><ele>282.33333333333337</ele><time>2026-04-25T10:41:27Z</time></trkpt><trkpt lat="43.46855215037503" lon="13.050566161075471"><ele>281.0</ele><time>2026-04-25T10:41:28Z</time></trkpt><trkpt lat="43.468463299685595" lon="13.050821716335715"><ele>281.0</ele><time>2026-04-25T10:41:29Z</time></trkpt><trkpt lat="43.46837023147744" lon="13.051076031288746"><ele>281.0</ele><time>2026-04-25T10:41:30Z</time></trkpt><trkpt lat="43.46827820389373" lon="13.051319472977534"><ele>281.0</ele><time>2026-04-25T10:41:31Z</time></trkpt><trkpt lat="43.46819031015606" lon="13.051552904065941"><ele>277.0</ele><time>2026-04-25T10:41:32Z</time></trkpt><trkpt lat="43.46809881227881" lon="13.051761863507084"><ele>273.0</ele><time>2026-04-25T10:41:33Z</time></trkpt><trkpt lat="43.46801450585251" lon="13.051942903383143"><ele>269.0</ele><time>2026-04-25T10:41:34Z</time></trkpt><trkpt lat="43.467947125347955" lon="13.052101278075911"><ele>266.5</ele><time>2026-04-25T10:41:35Z</time></trkpt><trkpt lat="43.467903983112734" lon="13.052255556686221"><ele>264.0</ele><time>2026-04-25T10:41:36Z</time></trkpt><trkpt lat="43.46791009646101" lon="13.052445107407014"><ele>261.5</ele><time>2026-04-25T10:41:37Z</time></trkpt><trkpt lat="43.46795160891295" lon="13.05263269055102"><ele>259.0</ele><time>2026-04-25T10:41:38Z</time></trkpt><trkpt lat="43.467982674452664" lon="13.05279346276875"><ele>259.0</ele><time>2026-04-25T10:41:39Z</time></trkpt><trkpt lat="43.467971742558525" lon="13.052950392538936"><ele>259.0</ele><time>2026-04-25T10:41:40Z</time></trkpt><trkpt lat="43.46788338226542" lon="13.05309476861969"><ele>259.0</ele><time>2026-04-25T10:41:41Z</time></trkpt><trkpt lat="43.467782556533145" lon="13.053172619712447"><ele>259.0</ele><time>2026-04-25T10:41:42Z</time></trkpt><trkpt lat="43.4677017720875" lon="13.053174637890846"><ele>259.0</ele><time>2026-04-25T10:41:43Z</time></trkpt><trkpt lat="43.46763012847834" lon="13.053080801088358"><ele>260.4</ele><time>2026-04-25T10:41:44Z</time></trkpt><trkpt lat="43.46758753927653" lon="13.052939168562553"><ele>261.79999999999995</ele><time>2026-04-25T10:41:45Z</time></trkpt><trkpt lat="43.46759129001827" lon="13.052783484829803"><ele>263.20000000000005</ele><time>2026-04-25T10:41:46Z</time></trkpt><trkpt lat="43.46756697115605" lon="13.052681043410091"><ele>264.6</ele><time>2026-04-25T10:41:47Z</time></trkpt><trkpt lat="43.46749301620207" lon="13.052640220131005"><ele>266.0</ele><time>2026-04-25T10:41:48Z</time></trkpt><trkpt lat="43.46739573888947" lon="13.052690095637445"><ele>266.0</ele><time>2026-04-25T10:41:49Z</time></trkpt><trkpt lat="43.46734054343548" lon="13.052797710415982"><ele>266.0</ele><time>2026-04-25T10:41:50Z</time></trkpt><trkpt lat="43.467349843389066" lon="13.052959056591021"><ele>266.0</ele><time>2026-04-25T10:41:51Z</time></trkpt><trkpt lat="43.467396403991756" lon="13.053128271950426"><ele>266.0</ele><time>2026-04-25T10:41:52Z</time></trkpt><trkpt lat="43.46744792083331" lon="13.053308769998303"><ele>262.5</ele><time>2026-04-25T10:41:53Z</time></trkpt><trkpt lat="43.46748269310919" lon="13.053497214297694"><ele>259.0</ele><time>2026-04-25T10:41:54Z</time></trkpt><trkpt lat="43.46749970494739" lon="13.053657569442507"><ele>255.5</ele><time>2026-04-25T10:41:55Z</time></trkpt><trkpt lat="43.467562684604346" lon="13.0537892477863"><ele>252.0</ele><time>2026-04-25T10:41:56Z</time></trkpt><trkpt lat="43.46766246591287" lon="13.053880851437206"><ele>252.0</ele><time>2026-04-25T10:41:57Z</time></trkpt><trkpt lat="43.46780013179726" lon="13.053919983743146"><ele>252.0</ele><time>2026-04-25T10:41:58Z</time></trkpt><trkpt lat="43.467958959652535" lon="13.053902123351689"><ele>252.0</ele><time>2026-04-25T10:41:59Z</time></trkpt><trkpt lat="43.468125660759156" lon="13.053841202718756"><ele>251.66666666666669</ele><time>2026-04-25T10:42:00Z</time></trkpt><trkpt lat="43.46829165243225" lon="13.05380048228178"><ele>251.33333333333334</ele><time>2026-04-25T10:42:01Z</time></trkpt><trkpt lat="43.468470875877905" lon="13.05382907366349"><ele>251.0</ele><time>2026-04-25T10:42:02Z</time></trkpt><trkpt lat="43.468649555778136" lon="13.053795544537262"><ele>247.66666666666669</ele><time>2026-04-25T10:42:03Z</time></trkpt><trkpt lat="43.468835286708114" lon="13.053796051502989"><ele>244.33333333333331</ele><time>2026-04-25T10:42:04Z</time></trkpt><trkpt lat="43.469013031986194" lon="13.053771638914897"><ele>241.0</ele><time>2026-04-25T10:42:05Z</time></trkpt><trkpt lat="43.4691714928757" lon="13.0537559460093"><ele>241.0</ele><time>2026-04-25T10:42:06Z</time></trkpt><trkpt lat="43.46931173827638" lon="13.053731276001615"><ele>241.0</ele><time>2026-04-25T10:42:07Z</time></trkpt><trkpt lat="43.46942837100641" lon="13.053647394257505"><ele>241.0</ele><time>2026-04-25T10:42:08Z</time></trkpt><trkpt lat="43.469521524125085" lon="13.053495531586558"><ele>241.0</ele><time>2026-04-25T10:42:09Z</time></trkpt><trkpt lat="43.469596063230014" lon="13.053284713742064"><ele>240.4</ele><time>2026-04-25T10:42:10Z</time></trkpt><trkpt lat="43.469663722130704" lon="13.053093455547343"><ele>239.8</ele><time>2026-04-25T10:42:11Z</time></trkpt><trkpt lat="43.469720030478065" lon="13.05296053674811"><ele>239.20000000000002</ele><time>2026-04-25T10:42:12Z</time></trkpt><trkpt lat="43.46978699103616" lon="13.052892267038999"><ele>238.60000000000002</ele><time>2026-04-25T10:42:13Z</time></trkpt><trkpt lat="43.46986943530694" lon="13.052890642990151"><ele>238.0</ele><time>2026-04-25T10:42:14Z</time></trkpt><trkpt lat="43.46994809767245" lon="13.052945899010112"><ele>238.0</ele><time>2026-04-25T10:42:15Z</time></trkpt><trkpt lat="43.46998363779779" lon="13.05304829184659"><ele>238.0</ele><time>2026-04-25T10:42:16Z</time></trkpt><trkpt lat="43.469963060678076" lon="13.053187632481782"><ele>238.0</ele><time>2026-04-25T10:42:17Z</time></trkpt><trkpt lat="43.46988593686621" lon="13.053332497583497"><ele>238.0</ele><time>2026-04-25T10:42:18Z</time></trkpt><trkpt lat="43.46977547340111" lon="13.053470559312563"><ele>239.0</ele><time>2026-04-25T10:42:19Z</time></trkpt><trkpt lat="43.46966352449734" lon="13.053623856014786"><ele>240.0</ele><time>2026-04-25T10:42:20Z</time></trkpt><trkpt lat="43.46956289849818" lon="13.053804658861832"><ele>241.0</ele><time>2026-04-25T10:42:21Z</time></trkpt><trkpt lat="43.46946105527365" lon="13.054000260252405"><ele>238.33333333333331</ele><time>2026-04-25T10:42:22Z</time></trkpt><trkpt lat="43.46936506913725" lon="13.054208641703596"><ele>235.66666666666669</ele><time>2026-04-25T10:42:23Z</time></trkpt><trkpt lat="43.46929462780415" lon="13.05443842020366"><ele>233.0</ele><time>2026-04-25T10:42:24Z</time></trkpt><trkpt lat="43.46927507312865" lon="13.054658481834599"><ele>233.0</ele><time>2026-04-25T10:42:25Z</time></trkpt><trkpt lat="43.46925446435859" lon="13.054855433043013"><ele>233.0</ele><time>2026-04-25T10:42:26Z</time></trkpt><trkpt lat="43.46923031645304" lon="13.055031757285072"><ele>233.0</ele><time>2026-04-25T10:42:27Z</time></trkpt><trkpt lat="43.469181016851735" lon="13.055183774885027"><ele>233.0</ele><time>2026-04-25T10:42:28Z</time></trkpt><trkpt lat="43.4690831968152" lon="13.055308735519928"><ele>231.25</ele><time>2026-04-25T10:42:29Z</time></trkpt><trkpt lat="43.46896277336536" lon="13.055418722566385"><ele>229.5</ele><time>2026-04-25T10:42:30Z</time></trkpt><trkpt lat="43.468828039078254" lon="13.055493402381924"><ele>227.75</ele><time>2026-04-25T10:42:31Z</time></trkpt><trkpt lat="43.468674595949956" lon="13.0555238055072"><ele>226.0</ele><time>2026-04-25T10:42:32Z</time></trkpt><trkpt lat="43.46851044227798" lon="13.055508807058587"><ele>226.0</ele><time>2026-04-25T10:42:33Z</time></trkpt><trkpt lat="43.46836065518318" lon="13.05548385899804"><ele>226.0</ele><time>2026-04-25T10:42:34Z</time></trkpt><trkpt lat="43.46824157065988" lon="13.055487240022533"><ele>226.0</ele><time>2026-04-25T10:42:35Z</time></trkpt><trkpt lat="43.46814229899796" lon="13.05552711562579"><ele>226.0</ele><time>2026-04-25T10:42:36Z</time></trkpt><trkpt lat="43.46805616784043" lon="13.055634215255692"><ele>221.5</ele><time>2026-04-25T10:42:37Z</time></trkpt><trkpt lat="43.46799192596772" lon="13.055814829487781"><ele>217.0</ele><time>2026-04-25T10:42:38Z</time></trkpt><trkpt lat="43.46794535577713" lon="13.055993155422989"><ele>212.5</ele><time>2026-04-25T10:42:39Z</time></trkpt><trkpt lat="43.46786793740479" lon="13.056108627779153"><ele>208.0</ele><time>2026-04-25T10:42:40Z</time></trkpt><trkpt lat="43.46774682204252" lon="13.056180296616349"><ele>208.0</ele><time>2026-04-25T10:42:41Z</time></trkpt><trkpt lat="43.46759992677445" lon="13.056224245379132"><ele>208.0</ele><time>2026-04-25T10:42:42Z</time></trkpt><trkpt lat="43.4674608063712" lon="13.056261217123172"><ele>208.0</ele><time>2026-04-25T10:42:43Z</time></trkpt><trkpt lat="43.467329144404076" lon="13.05626194971478"><ele>208.0</ele><time>2026-04-25T10:42:44Z</time></trkpt><trkpt lat="43.467194279353855" lon="13.056194095948465"><ele>205.66666666666666</ele><time>2026-04-25T10:42:45Z</time></trkpt><trkpt lat="43.46705928973096" lon="13.056071898106127"><ele>203.33333333333331</ele><time>2026-04-25T10:42:46Z</time></trkpt><trkpt lat="43.4669256245207" lon="13.055929428319105"><ele>201.0</ele><time>2026-04-25T10:42:47Z</time></trkpt><trkpt lat="43.46679703088986" lon="13.055765046650816"><ele>201.0</ele><time>2026-04-25T10:42:48Z</time></trkpt><trkpt lat="43.46667636493903" lon="13.055592892938975"><ele>201.0</ele><time>2026-04-25T10:42:49Z</time></trkpt><trkpt lat="43.46656886357506" lon="13.055398358193608"><ele>201.0</ele><time>2026-04-25T10:42:50Z</time></trkpt><trkpt lat="43.466474808549584" lon="13.055198817051703"><ele>201.0</ele><time>2026-04-25T10:42:51Z</time></trkpt><trkpt lat="43.46639634479654" lon="13.055010097203194"><ele>201.0</ele><time>2026-04-25T10:42:52Z</time></trkpt><trkpt lat="43.46634252338932" lon="13.054829226334128"><ele>201.0</ele><time>2026-04-25T10:42:53Z</time></trkpt><trkpt lat="43.466315506184266" lon="13.05468745481895"><ele>201.0</ele><time>2026-04-25T10:42:54Z</time></trkpt><trkpt lat="43.46628536945167" lon="13.054593410858146"><ele>197.60000000000002</ele><time>2026-04-25T10:42:55Z</time></trkpt><trkpt lat="43.46621889135857" lon="13.054537969504976"><ele>194.2</ele><time>2026-04-25T10:42:56Z</time></trkpt><trkpt lat="43.466136853604745" lon="13.054535587789655"><ele>190.8</ele><time>2026-04-25T10:42:57Z</time></trkpt><trkpt lat="43.46605018192795" lon="13.054617618677057"><ele>187.39999999999998</ele><time>2026-04-25T10:42:58Z</time></trkpt><trkpt lat="43.46601044572976" lon="13.054749066646734"><ele>184.0</ele><time>2026-04-25T10:42:59Z</time></trkpt><trkpt lat="43.46602244732983" lon="13.054918139119572"><ele>181.5</ele><time>2026-04-25T10:43:00Z</time></trkpt><trkpt lat="43.46607391528272" lon="13.055090700161127"><ele>179.0</ele><time>2026-04-25T10:43:01Z</time></trkpt><trkpt lat="43.46612847803593" lon="13.05528613697071"><ele>176.5</ele><time>2026-04-25T10:43:02Z</time></trkpt><trkpt lat="43.46615298111626" lon="13.055498365779759"><ele>174.0</ele><time>2026-04-25T10:43:03Z</time></trkpt><trkpt lat="43.46617353517407" lon="13.055712325707317"><ele>171.5</ele><time>2026-04-25T10:43:04Z</time></trkpt><trkpt lat="43.46619192243887" lon="13.055907336411003"><ele>169.0</ele><time>2026-04-25T10:43:05Z</time></trkpt><trkpt lat="43.46623423269725" lon="13.05607677114707"><ele>166.5</ele><time>2026-04-25T10:43:06Z</time></trkpt><trkpt lat="43.46633066421311" lon="13.056229087696229"><ele>164.0</ele><time>2026-04-25T10:43:07Z</time></trkpt><trkpt lat="43.4664673983802" lon="13.056353530776326"><ele>166.25</ele><time>2026-04-25T10:43:08Z</time></trkpt><trkpt lat="43.466589478322895" lon="13.056459770282443"><ele>168.5</ele><time>2026-04-25T10:43:09Z</time></trkpt><trkpt lat="43.46670062065133" lon="13.056567374638693"><ele>170.75</ele><time>2026-04-25T10:43:10Z</time></trkpt><trkpt lat="43.46681022813942" lon="13.056688358056451"><ele>173.0</ele><time>2026-04-25T10:43:11Z</time></trkpt><trkpt lat="43.466925482609966" lon="13.056817916317227"><ele>173.0</ele><time>2026-04-25T10:43:12Z</time></trkpt><trkpt lat="43.46705173946418" lon="13.056944535077088"><ele>173.0</ele><time>2026-04-25T10:43:13Z</time></trkpt><trkpt lat="43.467183188210065" lon="13.057069856954989"><ele>173.0</ele><time>2026-04-25T10:43:14Z</time></trkpt><trkpt lat="43.46729924738012" lon="13.057207094384145"><ele>172.25</ele><time>2026-04-25T10:43:15Z</time></trkpt><trkpt lat="43.46739773427657" lon="13.057356922582372"><ele>171.5</ele><time>2026-04-25T10:43:16Z</time></trkpt><trkpt lat="43.46749124766093" lon="13.057511878710216"><ele>170.75</ele><time>2026-04-25T10:43:17.001Z</time></trkpt><trkpt lat="43.467583847880206" lon="13.057663968163972"><ele>170.0</ele><time>2026-04-25T10:43:18.001Z</time></trkpt><trkpt lat="43.46768231633503" lon="13.05781050708317"><ele>170.0</ele><time>2026-04-25T10:43:19.001Z</time></trkpt><trkpt lat="43.46778114310225" lon="13.057943219054057"><ele>170.0</ele><time>2026-04-25T10:43:20.001Z</time></trkpt><trkpt lat="43.46787764249085" lon="13.058064648791248"><ele>170.0</ele><time>2026-04-25T10:43:21.001Z</time></trkpt><trkpt lat="43.46797015281807" lon="13.058164748721408"><ele>170.0</ele><time>2026-04-25T10:43:22.001Z</time></trkpt><trkpt lat="43.46805403199691" lon="13.058262106861436"><ele>168.2</ele><time>2026-04-25T10:43:23.001Z</time></trkpt><trkpt lat="43.46813398018597" lon="13.058352608587432"><ele>166.4</ele><time>2026-04-25T10:43:24.001Z</time></trkpt><trkpt lat="43.468211077018644" lon="13.058443472565465"><ele>164.60000000000002</ele><time>2026-04-25T10:43:25.001Z</time></trkpt><trkpt lat="43.468289694270524" lon="13.05854445755755"><ele>162.8</ele><time>2026-04-25T10:43:26.001Z</time></trkpt><trkpt lat="43.46836186586789" lon="13.058655355797743"><ele>161.0</ele><time>2026-04-25T10:43:27.001Z</time></trkpt><trkpt lat="43.46842450699038" lon="13.058769876088853"><ele>161.0</ele><time>2026-04-25T10:43:28.001Z</time></trkpt><trkpt lat="43.4684758587071" lon="13.058889207912925"><ele>161.0</ele><time>2026-04-25T10:43:29.001Z</time></trkpt><trkpt lat="43.468522616448325" lon="13.059007798540973"><ele>161.0</ele><time>2026-04-25T10:43:30.001Z</time></trkpt><trkpt lat="43.46856598217631" lon="13.059132415601177"><ele>161.0</ele><time>2026-04-25T10:43:31.001Z</time></trkpt><trkpt lat="43.4686021622053" lon="13.059256384577086"><ele>161.0</ele><time>2026-04-25T10:43:32.001Z</time></trkpt><trkpt lat="43.468621712912224" lon="13.059376998826389"><ele>160.16666666666666</ele><time>2026-04-25T10:43:33.001Z</time></trkpt><trkpt lat="43.468634598358015" lon="13.059491871120409"><ele>159.33333333333331</ele><time>2026-04-25T10:43:34.001Z</time></trkpt><trkpt lat="43.46864229483905" lon="13.059602444192302"><ele>158.5</ele><time>2026-04-25T10:43:35.001Z</time></trkpt><trkpt lat="43.468643063252344" lon="13.059709576102142"><ele>157.66666666666666</ele><time>2026-04-25T10:43:36.001Z</time></trkpt><trkpt lat="43.46863625795767" lon="13.059814807062438"><ele>156.83333333333334</ele><time>2026-04-25T10:43:37.001Z</time></trkpt><trkpt lat="43.46862634066813" lon="13.059931020547102"><ele>156.0</ele><time>2026-04-25T10:43:38.001Z</time></trkpt><trkpt lat="43.468613181171406" lon="13.060061155419191"><ele>155.75</ele><time>2026-04-25T10:43:39.001Z</time></trkpt><trkpt lat="43.468592664633604" lon="13.06018096151275"><ele>155.5</ele><time>2026-04-25T10:43:40.001Z</time></trkpt><trkpt lat="43.468559978737325" lon="13.060307157802198"><ele>155.25</ele><time>2026-04-25T10:43:41.001Z</time></trkpt><trkpt lat="43.468512566781285" lon="13.060460795481697"><ele>155.0</ele><time>2026-04-25T10:43:42.001Z</time></trkpt><trkpt lat="43.468432212392834" lon="13.060625710142997"><ele>153.75</ele><time>2026-04-25T10:43:43.001Z</time></trkpt><trkpt lat="43.46835616526288" lon="13.060806898132974"><ele>152.5</ele><time>2026-04-25T10:43:44.001Z</time></trkpt><trkpt lat="43.46828703441173" lon="13.060974862305963"><ele>151.25</ele><time>2026-04-25T10:43:45.001Z</time></trkpt><trkpt lat="43.46823782711874" lon="13.061132852505462"><ele>150.0</ele><time>2026-04-25T10:43:46.001Z</time></trkpt><trkpt lat="43.46818076010269" lon="13.061261107357796"><ele>150.0</ele><time>2026-04-25T10:43:47.001Z</time></trkpt><trkpt lat="43.46812802523028" lon="13.06137637140338"><ele>150.0</ele><time>2026-04-25T10:43:48.001Z</time></trkpt><trkpt lat="43.468083926796105" lon="13.061479981133301"><ele>150.0</ele><time>2026-04-25T10:43:49.001Z</time></trkpt><trkpt lat="43.468046394633205" lon="13.061578794263829"><ele>150.0</ele><time>2026-04-25T10:43:50.001Z</time></trkpt><trkpt lat="43.46800937827552" lon="13.061656495100458"><ele>150.0</ele><time>2026-04-25T10:43:51.001Z</time></trkpt><trkpt lat="43.467942161497895" lon="13.061772100301175"><ele>150.0</ele><time>2026-04-25T10:43:53.001Z</time></trkpt><trkpt lat="43.46787178993378" lon="13.061862133044793"><ele>148.5</ele><time>2026-04-25T10:43:55.001Z</time></trkpt><trkpt lat="43.46780930142958" lon="13.061937208549422"><ele>147.0</ele><time>2026-04-25T10:43:57.001Z</time></trkpt><trkpt lat="43.46775705144657" lon="13.062046596033083"><ele>145.5</ele><time>2026-04-25T10:44:34Z</time></trkpt><trkpt lat="43.46770957657399" lon="13.062114189569568"><ele>144.0</ele><time>2026-04-25T10:44:35Z</time></trkpt><trkpt lat="43.467628804273325" lon="13.062187197811928"><ele>142.5</ele><time>2026-04-25T10:44:37Z</time></trkpt><trkpt lat="43.46754436014661" lon="13.062240091056704"><ele>141.0</ele><time>2026-04-25T10:44:39Z</time></trkpt><trkpt lat="43.467474837977576" lon="13.06228529686847"><ele>141.0</ele><time>2026-04-25T10:44:40Z</time></trkpt><trkpt lat="43.46740487332816" lon="13.06234211613949"><ele>141.0</ele><time>2026-04-25T10:44:41Z</time></trkpt><trkpt lat="43.46730225362027" lon="13.062409380491388"><ele>141.0</ele><time>2026-04-25T10:44:43Z</time></trkpt><trkpt lat="43.46723005826527" lon="13.062483360365448"><ele>141.0</ele><time>2026-04-25T10:44:45Z</time></trkpt><trkpt lat="43.467119626345486" lon="13.062553447104374"><ele>141.0</ele><time>2026-04-25T10:44:47Z</time></trkpt><trkpt lat="43.467054756951896" lon="13.06260071371726"><ele>139.4</ele><time>2026-04-25T10:44:48Z</time></trkpt><trkpt lat="43.46698057927094" lon="13.062652830993349"><ele>137.8</ele><time>2026-04-25T10:44:49Z</time></trkpt><trkpt lat="43.466892896222554" lon="13.062707133410136"><ele>136.20000000000002</ele><time>2026-04-25T10:44:50Z</time></trkpt><trkpt lat="43.46680011132639" lon="13.062773789181973"><ele>134.6</ele><time>2026-04-25T10:44:51Z</time></trkpt><trkpt lat="43.46670233790759" lon="13.062848086181578"><ele>133.0</ele><time>2026-04-25T10:44:52Z</time></trkpt><trkpt lat="43.46661369909205" lon="13.062912962031"><ele>133.0</ele><time>2026-04-25T10:44:53Z</time></trkpt><trkpt lat="43.466530714687586" lon="13.062966382226328"><ele>133.0</ele><time>2026-04-25T10:44:54Z</time></trkpt><trkpt lat="43.46644764084039" lon="13.063022610040552"><ele>133.0</ele><time>2026-04-25T10:44:55Z</time></trkpt><trkpt lat="43.46635832413414" lon="13.063076564094724"><ele>133.0</ele><time>2026-04-25T10:44:56Z</time></trkpt><trkpt lat="43.46626627426155" lon="13.06313157122336"><ele>133.0</ele><time>2026-04-25T10:44:57Z</time></trkpt><trkpt lat="43.46617323501932" lon="13.063192941865521"><ele>133.0</ele><time>2026-04-25T10:44:58Z</time></trkpt><trkpt lat="43.46608060818454" lon="13.063258258169242"><ele>133.0</ele><time>2026-04-25T10:44:59Z</time></trkpt><trkpt lat="43.465980652403964" lon="13.063310140961327"><ele>133.0</ele><time>2026-04-25T10:45:00Z</time></trkpt><trkpt lat="43.4658859185326" lon="13.063366605918864"><ele>133.0</ele><time>2026-04-25T10:45:01Z</time></trkpt><trkpt lat="43.46579511894616" lon="13.063416395988867"><ele>133.0</ele><time>2026-04-25T10:45:02Z</time></trkpt><trkpt lat="43.465698392420876" lon="13.063467074954195"><ele>133.0</ele><time>2026-04-25T10:45:03Z</time></trkpt><trkpt lat="43.465593477134654" lon="13.063530177008374"><ele>133.0</ele><time>2026-04-25T10:45:04Z</time></trkpt><trkpt lat="43.465478951607814" lon="13.06359111125869"><ele>133.0</ele><time>2026-04-25T10:45:05Z</time></trkpt><trkpt lat="43.465352303404934" lon="13.063655117335953"><ele>133.0</ele><time>2026-04-25T10:45:06Z</time></trkpt><trkpt lat="43.4652289960401" lon="13.063720104874294"><ele>133.20000000000002</ele><time>2026-04-25T10:45:07Z</time></trkpt><trkpt lat="43.46511597454515" lon="13.063776471595359"><ele>133.4</ele><time>2026-04-25T10:45:08Z</time></trkpt><trkpt lat="43.4650153501059" lon="13.063836868396962"><ele>133.60000000000002</ele><time>2026-04-25T10:45:09Z</time></trkpt><trkpt lat="43.464920162988044" lon="13.063892385567467"><ele>133.8</ele><time>2026-04-25T10:45:10Z</time></trkpt><trkpt lat="43.46482621534097" lon="13.063943606495942"><ele>134.0</ele><time>2026-04-25T10:45:11Z</time></trkpt><trkpt lat="43.464738972480106" lon="13.063986579849962"><ele>134.0</ele><time>2026-04-25T10:45:12Z</time></trkpt><trkpt lat="43.46465830185405" lon="13.06402552093071"><ele>134.0</ele><time>2026-04-25T10:45:13Z</time></trkpt><trkpt lat="43.46458305391616" lon="13.064072629045311"><ele>134.0</ele><time>2026-04-25T10:45:14Z</time></trkpt><trkpt lat="43.464506366790225" lon="13.06411385568094"><ele>134.0</ele><time>2026-04-25T10:45:15Z</time></trkpt><trkpt lat="43.46442515493475" lon="13.064148128403836"><ele>134.0</ele><time>2026-04-25T10:45:16Z</time></trkpt><trkpt lat="43.464352284338005" lon="13.064185792682203"><ele>134.0</ele><time>2026-04-25T10:45:17Z</time></trkpt><trkpt lat="43.46427476612071" lon="13.06425134986367"><ele>134.5</ele><time>2026-04-25T10:45:18Z</time></trkpt><trkpt lat="43.46420219194323" lon="13.06431167637878"><ele>135.0</ele><time>2026-04-25T10:45:19Z</time></trkpt><trkpt lat="43.46413541960296" lon="13.064382672175507"><ele>135.5</ele><time>2026-04-25T10:45:20Z</time></trkpt><trkpt lat="43.464075788671565" lon="13.064462527582757"><ele>136.0</ele><time>2026-04-25T10:45:21Z</time></trkpt><trkpt lat="43.46402357924187" lon="13.064553327529257"><ele>136.5</ele><time>2026-04-25T10:45:22Z</time></trkpt><trkpt lat="43.46397660705597" lon="13.064651108329459"><ele>137.0</ele><time>2026-04-25T10:45:23.001Z</time></trkpt><trkpt lat="43.46393896192077" lon="13.064755843850016"><ele>137.0</ele><time>2026-04-25T10:45:24.001Z</time></trkpt><trkpt lat="43.46390586035079" lon="13.064867105091938"><ele>137.0</ele><time>2026-04-25T10:45:25.001Z</time></trkpt><trkpt lat="43.46388230454382" lon="13.064995366702606"><ele>137.0</ele><time>2026-04-25T10:45:26.001Z</time></trkpt><trkpt lat="43.463870321150985" lon="13.06513119615873"><ele>137.0</ele><time>2026-04-25T10:45:27.001Z</time></trkpt><trkpt lat="43.46385490203132" lon="13.065267309754136"><ele>137.0</ele><time>2026-04-25T10:45:28.001Z</time></trkpt><trkpt lat="43.46383963720369" lon="13.065404921374684"><ele>137.2</ele><time>2026-04-25T10:45:29.001Z</time></trkpt><trkpt lat="43.46382833671911" lon="13.065545369261054"><ele>137.39999999999998</ele><time>2026-04-25T10:45:30.001Z</time></trkpt><trkpt lat="43.463818231885504" lon="13.06568623913575"><ele>137.60000000000002</ele><time>2026-04-25T10:45:31.001Z</time></trkpt><trkpt lat="43.463803446945185" lon="13.065833299341516"><ele>137.8</ele><time>2026-04-25T10:45:32.001Z</time></trkpt><trkpt lat="43.463787901188105" lon="13.065995755772112"><ele>138.0</ele><time>2026-04-25T10:45:33.001Z</time></trkpt><trkpt lat="43.4637754444487" lon="13.066166470286195"><ele>138.5</ele><time>2026-04-25T10:45:34.001Z</time></trkpt><trkpt lat="43.46375764424392" lon="13.066338534324958"><ele>139.0</ele><time>2026-04-25T10:45:35.001Z</time></trkpt><trkpt lat="43.46373115676599" lon="13.066519827701365"><ele>139.5</ele><time>2026-04-25T10:45:36.001Z</time></trkpt><trkpt lat="43.46369311817779" lon="13.066698563818322"><ele>140.0</ele><time>2026-04-25T10:45:37.001Z</time></trkpt><trkpt lat="43.46363378768224" lon="13.066866159583642"><ele>141.0</ele><time>2026-04-25T10:45:38.001Z</time></trkpt><trkpt lat="43.46355934593863" lon="13.067016649119529"><ele>142.0</ele><time>2026-04-25T10:45:39.001Z</time></trkpt><trkpt lat="43.46347947766098" lon="13.067134252582068"><ele>143.0</ele><time>2026-04-25T10:45:40.001Z</time></trkpt><trkpt lat="43.46342043020897" lon="13.067221769714834"><ele>144.0</ele><time>2026-04-25T10:45:41.001Z</time></trkpt><trkpt lat="43.463364565178146" lon="13.067266212882371"><ele>145.0</ele><time>2026-04-25T10:45:42.001Z</time></trkpt><trkpt lat="43.46330750757829" lon="13.067320782516365"><ele>146.0</ele><time>2026-04-25T10:45:43.001Z</time></trkpt><trkpt lat="43.463306271079716" lon="13.06756173860414"><ele>147.0</ele><time>2026-04-25T10:45:44.001Z</time></trkpt><trkpt lat="43.46321404440412" lon="13.06765341877194"><ele>148.0</ele><time>2026-04-25T10:45:45.001Z</time></trkpt><trkpt lat="43.463103078510066" lon="13.067741309961681"><ele>149.0</ele><time>2026-04-25T10:45:46.001Z</time></trkpt><trkpt lat="43.46300055255942" lon="13.067859096057166"><ele>148.25</ele><time>2026-04-25T10:45:47.001Z</time></trkpt><trkpt lat="43.46290278223758" lon="13.067998468146452"><ele>147.5</ele><time>2026-04-25T10:45:48.001Z</time></trkpt><trkpt lat="43.46281935864639" lon="13.068164163592654"><ele>146.75</ele><time>2026-04-25T10:45:49.001Z</time></trkpt><trkpt lat="43.46274974487969" lon="13.06834200198623"><ele>146.0</ele><time>2026-04-25T10:45:50.001Z</time></trkpt><trkpt lat="43.462683718269794" lon="13.068517811479422"><ele>149.0</ele><time>2026-04-25T10:45:51.001Z</time></trkpt><trkpt lat="43.4626034198199" lon="13.068678962465036"><ele>152.0</ele><time>2026-04-25T10:45:52.001Z</time></trkpt><trkpt lat="43.46249904895417" lon="13.068814540872753"><ele>155.0</ele><time>2026-04-25T10:45:53.001Z</time></trkpt><trkpt lat="43.46236499143402" lon="13.068915246673315"><ele>158.0</ele><time>2026-04-25T10:45:54.001Z</time></trkpt><trkpt lat="43.462211082910336" lon="13.068978443769284"><ele>160.0</ele><time>2026-04-25T10:45:55.001Z</time></trkpt><trkpt lat="43.462051026989045" lon="13.069049413485484"><ele>162.0</ele><time>2026-04-25T10:45:56.001Z</time></trkpt><trkpt lat="43.46189818940633" lon="13.069156987625787"><ele>164.0</ele><time>2026-04-25T10:45:57.001Z</time></trkpt><trkpt lat="43.461760680045614" lon="13.069303504138679"><ele>164.0</ele><time>2026-04-25T10:45:58.001Z</time></trkpt><trkpt lat="43.461639297353464" lon="13.06948577992519"><ele>164.0</ele><time>2026-04-25T10:45:59.001Z</time></trkpt><trkpt lat="43.461532552400335" lon="13.06968839178814"><ele>164.0</ele><time>2026-04-25T10:46:00.001Z</time></trkpt><trkpt lat="43.461438950588246" lon="13.069904367861023"><ele>163.66666666666666</ele><time>2026-04-25T10:46:01.001Z</time></trkpt><trkpt lat="43.46135102819418" lon="13.070113377860284"><ele>163.33333333333334</ele><time>2026-04-25T10:46:02.001Z</time></trkpt><trkpt lat="43.46126810016368" lon="13.070295247861237"><ele>163.0</ele><time>2026-04-25T10:46:03.001Z</time></trkpt><trkpt lat="43.46118943467101" lon="13.070455787114817"><ele>163.0</ele><time>2026-04-25T10:46:04.001Z</time></trkpt><trkpt lat="43.461130077300076" lon="13.070609686422483"><ele>163.0</ele><time>2026-04-25T10:46:05.001Z</time></trkpt><trkpt lat="43.46108024295815" lon="13.070755521800283"><ele>163.0</ele><time>2026-04-25T10:46:06.001Z</time></trkpt><trkpt lat="43.461054124188635" lon="13.070865810290577"><ele>163.0</ele><time>2026-04-25T10:46:07.001Z</time></trkpt><trkpt lat="43.46107275334785" lon="13.070984785922159"><ele>163.0</ele><time>2026-04-25T10:46:08.001Z</time></trkpt><trkpt lat="43.46114521088249" lon="13.071079947226306"><ele>165.75</ele><time>2026-04-25T10:46:09.001Z</time></trkpt><trkpt lat="43.4612493677198" lon="13.07113056918789"><ele>168.5</ele><time>2026-04-25T10:46:10.001Z</time></trkpt><trkpt lat="43.46137606034199" lon="13.071105277276159"><ele>171.25</ele><time>2026-04-25T10:46:11.001Z</time></trkpt><trkpt lat="43.461505890775086" lon="13.071048453804286"><ele>174.0</ele><time>2026-04-25T10:46:12.001Z</time></trkpt><trkpt lat="43.46163159565738" lon="13.071007720654269"><ele>178.0</ele><time>2026-04-25T10:46:13.001Z</time></trkpt><trkpt lat="43.46176981489879" lon="13.070959702259064"><ele>182.0</ele><time>2026-04-25T10:46:14.001Z</time></trkpt><trkpt lat="43.46191314434805" lon="13.0709163100266"><ele>186.0</ele><time>2026-04-25T10:46:15.001Z</time></trkpt><trkpt lat="43.46205361309101" lon="13.070880396176406"><ele>190.0</ele><time>2026-04-25T10:46:16.001Z</time></trkpt><trkpt lat="43.46218881993797" lon="13.070872019288778"><ele>190.5</ele><time>2026-04-25T10:46:17.001Z</time></trkpt><trkpt lat="43.46231509064872" lon="13.070919713376014"><ele>191.0</ele><time>2026-04-25T10:46:18.001Z</time></trkpt><trkpt lat="43.462415037711764" lon="13.071071507017594"><ele>191.5</ele><time>2026-04-25T10:46:19.001Z</time></trkpt><trkpt lat="43.46252477710313" lon="13.071221953759837"><ele>192.0</ele><time>2026-04-25T10:46:20.001Z</time></trkpt><trkpt lat="43.462650777411135" lon="13.071365967364661"><ele>192.0</ele><time>2026-04-25T10:46:21.001Z</time></trkpt><trkpt lat="43.462766328437375" lon="13.071524797686166"><ele>192.0</ele><time>2026-04-25T10:46:22.001Z</time></trkpt><trkpt lat="43.46287623875622" lon="13.071702455495569"><ele>192.0</ele><time>2026-04-25T10:46:23.001Z</time></trkpt><trkpt lat="43.46300336972116" lon="13.071870228161355"><ele>193.33333333333331</ele><time>2026-04-25T10:46:24.001Z</time></trkpt><trkpt lat="43.46313300762301" lon="13.072036383896098"><ele>194.66666666666666</ele><time>2026-04-25T10:46:25.001Z</time></trkpt><trkpt lat="43.4632821113958" lon="13.072191803599218"><ele>196.0</ele><time>2026-04-25T10:46:26.001Z</time></trkpt><trkpt lat="43.46341533082193" lon="13.072356963115626"><ele>200.75</ele><time>2026-04-25T10:46:27.001Z</time></trkpt><trkpt lat="43.46353667193125" lon="13.072502443939143"><ele>205.5</ele><time>2026-04-25T10:46:28.001Z</time></trkpt><trkpt lat="43.46364001606263" lon="13.072623083999439"><ele>210.25</ele><time>2026-04-25T10:46:29.001Z</time></trkpt><trkpt lat="43.46371936499237" lon="13.072727881819299"><ele>215.0</ele><time>2026-04-25T10:46:30.001Z</time></trkpt><trkpt lat="43.46375849733711" lon="13.07282705663079"><ele>215.0</ele><time>2026-04-25T10:46:31.001Z</time></trkpt><trkpt lat="43.463749851060484" lon="13.072928161077304"><ele>215.0</ele><time>2026-04-25T10:46:32.001Z</time></trkpt><trkpt lat="43.463695458365926" lon="13.07301172862651"><ele>215.0</ele><time>2026-04-25T10:46:33.001Z</time></trkpt><trkpt lat="43.463537426443885" lon="13.073007968432808"><ele>215.0</ele><time>2026-04-25T10:46:35.001Z</time></trkpt><trkpt lat="43.46344624967386" lon="13.072916252900301"><ele>215.0</ele><time>2026-04-25T10:46:36.001Z</time></trkpt><trkpt lat="43.46335524016188" lon="13.072781443165935"><ele>215.0</ele><time>2026-04-25T10:46:37.001Z</time></trkpt><trkpt lat="43.46325820252601" lon="13.072663434742584"><ele>215.0</ele><time>2026-04-25T10:46:38.001Z</time></trkpt><trkpt lat="43.46314188859286" lon="13.07256254520808"><ele>215.0</ele><time>2026-04-25T10:46:39.001Z</time></trkpt><trkpt lat="43.46301547208014" lon="13.072500395488376"><ele>215.0</ele><time>2026-04-25T10:46:40.001Z</time></trkpt><trkpt lat="43.462883939561486" lon="13.072492526804059"><ele>216.75</ele><time>2026-04-25T10:46:41.001Z</time></trkpt><trkpt lat="43.462746121165345" lon="13.072535149955261"><ele>218.5</ele><time>2026-04-25T10:46:42.001Z</time></trkpt><trkpt lat="43.462604070988334" lon="13.072622533744186"><ele>220.25</ele><time>2026-04-25T10:46:43.001Z</time></trkpt><trkpt lat="43.46247287937564" lon="13.072716894378004"><ele>222.0</ele><time>2026-04-25T10:46:44.001Z</time></trkpt><trkpt lat="43.46232391558955" lon="13.072796388523303"><ele>222.0</ele><time>2026-04-25T10:46:45.001Z</time></trkpt><trkpt lat="43.46218536579975" lon="13.072914607561538"><ele>222.0</ele><time>2026-04-25T10:46:46.001Z</time></trkpt><trkpt lat="43.462056860470504" lon="13.073079377196656"><ele>222.0</ele><time>2026-04-25T10:46:47.001Z</time></trkpt><trkpt lat="43.461946646010254" lon="13.073278866437747"><ele>222.66666666666669</ele><time>2026-04-25T10:46:48Z</time></trkpt><trkpt lat="43.46185680956632" lon="13.073507215106718"><ele>223.33333333333334</ele><time>2026-04-25T10:46:49Z</time></trkpt><trkpt lat="43.461791058790496" lon="13.073735541223922"><ele>224.0</ele><time>2026-04-25T10:46:50Z</time></trkpt><trkpt lat="43.46172262517121" lon="13.073926894438078"><ele>224.0</ele><time>2026-04-25T10:46:51Z</time></trkpt><trkpt lat="43.46163084769267" lon="13.074061917246297"><ele>224.0</ele><time>2026-04-25T10:46:52Z</time></trkpt><trkpt lat="43.46155494005631" lon="13.074152332896588"><ele>224.0</ele><time>2026-04-25T10:46:53Z</time></trkpt><trkpt lat="43.46148837607273" lon="13.074436830731985"><ele>227.5</ele><time>2026-04-25T10:46:55Z</time></trkpt><trkpt lat="43.46154598883535" lon="13.074482028639075"><ele>231.0</ele><time>2026-04-25T10:46:56Z</time></trkpt><trkpt lat="43.461649177660576" lon="13.074467453239794"><ele>234.5</ele><time>2026-04-25T10:46:58Z</time></trkpt><trkpt lat="43.46180624977556" lon="13.074435581864906"><ele>238.0</ele><time>2026-04-25T10:46:59Z</time></trkpt><trkpt lat="43.461962484716906" lon="13.074389357910944"><ele>243.0</ele><time>2026-04-25T10:47:00Z</time></trkpt><trkpt lat="43.46213916553813" lon="13.074279975922863"><ele>248.0</ele><time>2026-04-25T10:47:01Z</time></trkpt><trkpt lat="43.46229062722429" lon="13.074206057300811"><ele>253.0</ele><time>2026-04-25T10:47:02Z</time></trkpt><trkpt lat="43.46242157028481" lon="13.074142199409245"><ele>253.0</ele><time>2026-04-25T10:47:03Z</time></trkpt><trkpt lat="43.46250430591743" lon="13.074106641114874"><ele>253.0</ele><time>2026-04-25T10:47:04Z</time></trkpt><trkpt lat="43.46258323676853" lon="13.074095320840714"><ele>253.0</ele><time>2026-04-25T10:47:05Z</time></trkpt><trkpt lat="43.4626040833818" lon="13.074282823201967"><ele>253.0</ele><time>2026-04-25T10:47:06Z</time></trkpt><trkpt lat="43.462623840390826" lon="13.074369405810424"><ele>253.0</ele><time>2026-04-25T10:47:07Z</time></trkpt><trkpt lat="43.462595866391496" lon="13.074503267171185"><ele>253.0</ele><time>2026-04-25T10:47:08Z</time></trkpt><trkpt lat="43.46252055409833" lon="13.07466151334474"><ele>253.0</ele><time>2026-04-25T10:47:09Z</time></trkpt><trkpt lat="43.46241028743367" lon="13.07481997591148"><ele>253.0</ele><time>2026-04-25T10:47:10Z</time></trkpt><trkpt lat="43.46226652242203" lon="13.074911307819995"><ele>252.75</ele><time>2026-04-25T10:47:11Z</time></trkpt><trkpt lat="43.46213141730768" lon="13.074995587786228"><ele>252.5</ele><time>2026-04-25T10:47:12Z</time></trkpt><trkpt lat="43.462034627035464" lon="13.075116685538685"><ele>252.25</ele><time>2026-04-25T10:47:13Z</time></trkpt><trkpt lat="43.462008736077884" lon="13.075277676619812"><ele>252.0</ele><time>2026-04-25T10:47:14Z</time></trkpt><trkpt lat="43.46204163232459" lon="13.075460041239241"><ele>255.25</ele><time>2026-04-25T10:47:15Z</time></trkpt><trkpt lat="43.46212437974383" lon="13.075593697395039"><ele>258.5</ele><time>2026-04-25T10:47:16Z</time></trkpt><trkpt lat="43.46219811067114" lon="13.075687919280744"><ele>261.75</ele><time>2026-04-25T10:47:17Z</time></trkpt><trkpt lat="43.46231187395273" lon="13.075621383897955"><ele>265.0</ele><time>2026-04-25T10:47:18Z</time></trkpt><trkpt lat="43.46242419414781" lon="13.075514506997962"><ele>265.0</ele><time>2026-04-25T10:47:19Z</time></trkpt><trkpt lat="43.462526357595635" lon="13.075402992304895"><ele>265.0</ele><time>2026-04-25T10:47:20Z</time></trkpt><trkpt lat="43.46263689548583" lon="13.075314255096101"><ele>265.0</ele><time>2026-04-25T10:47:21Z</time></trkpt><trkpt lat="43.46275986692471" lon="13.07521068446738"><ele>265.0</ele><time>2026-04-25T10:47:22Z</time></trkpt><trkpt lat="43.46287521715674" lon="13.07511303273832"><ele>266.5</ele><time>2026-04-25T10:47:23Z</time></trkpt><trkpt lat="43.462973078935306" lon="13.07505420358671"><ele>268.0</ele><time>2026-04-25T10:47:24Z</time></trkpt><trkpt lat="43.46308915894281" lon="13.075034585441065"><ele>269.5</ele><time>2026-04-25T10:47:25Z</time></trkpt><trkpt lat="43.46320613014981" lon="13.075077370401878"><ele>271.0</ele><time>2026-04-25T10:47:26Z</time></trkpt><trkpt lat="43.46321713316486" lon="13.075290898635835"><ele>271.0</ele><time>2026-04-25T10:47:27Z</time></trkpt><trkpt lat="43.46323961480338" lon="13.075382868029386"><ele>271.0</ele><time>2026-04-25T10:47:28.001Z</time></trkpt><trkpt lat="43.46323557360567" lon="13.075474922412692"><ele>271.0</ele><time>2026-04-25T10:47:29.001Z</time></trkpt><trkpt lat="43.46311762732009" lon="13.075569212622417"><ele>271.0</ele><time>2026-04-25T10:47:30.001Z</time></trkpt><trkpt lat="43.463000697764095" lon="13.075699837196316"><ele>271.0</ele><time>2026-04-25T10:47:31.001Z</time></trkpt><trkpt lat="43.46288062106572" lon="13.075892561356916"><ele>272.0</ele><time>2026-04-25T10:47:32.001Z</time></trkpt><trkpt lat="43.4628313489837" lon="13.076048781558155"><ele>273.0</ele><time>2026-04-25T10:47:33.001Z</time></trkpt><trkpt lat="43.46283710813668" lon="13.076195700119282"><ele>274.0</ele><time>2026-04-25T10:47:34.001Z</time></trkpt><trkpt lat="43.462931087160044" lon="13.076347239225784"><ele>275.0</ele><time>2026-04-25T10:47:35.001Z</time></trkpt><trkpt lat="43.46304744606133" lon="13.076443629824613"><ele>279.33333333333337</ele><time>2026-04-25T10:47:36.001Z</time></trkpt><trkpt lat="43.463175026325" lon="13.076574697830154"><ele>283.6666666666667</ele><time>2026-04-25T10:47:37.001Z</time></trkpt><trkpt lat="43.46332234988751" lon="13.076688992796102"><ele>288.0</ele><time>2026-04-25T10:47:38.001Z</time></trkpt><trkpt lat="43.46348715603644" lon="13.076821066522548"><ele>288.3333333333333</ele><time>2026-04-25T10:47:39.001Z</time></trkpt><trkpt lat="43.46361116533967" lon="13.07698431520595"><ele>288.66666666666663</ele><time>2026-04-25T10:47:40.001Z</time></trkpt><trkpt lat="43.46368354902267" lon="13.077191690029364"><ele>289.0</ele><time>2026-04-25T10:47:41.001Z</time></trkpt><trkpt lat="43.4636879444586" lon="13.077437950649522"><ele>289.0</ele><time>2026-04-25T10:47:42.001Z</time></trkpt><trkpt lat="43.463686824625306" lon="13.077674313476287"><ele>289.0</ele><time>2026-04-25T10:47:43.001Z</time></trkpt><trkpt lat="43.463668201447724" lon="13.077940210864995"><ele>289.0</ele><time>2026-04-25T10:47:44.001Z</time></trkpt><trkpt lat="43.463649859371465" lon="13.078197214038369"><ele>291.3333333333333</ele><time>2026-04-25T10:47:45.001Z</time></trkpt><trkpt lat="43.46362488548959" lon="13.078451399844248"><ele>293.6666666666667</ele><time>2026-04-25T10:47:46.001Z</time></trkpt><trkpt lat="43.46357495913983" lon="13.07870404781881"><ele>296.0</ele><time>2026-04-25T10:47:47.001Z</time></trkpt><trkpt lat="43.46348482528269" lon="13.078945535261193"><ele>300.0</ele><time>2026-04-25T10:47:48.001Z</time></trkpt><trkpt lat="43.46335725220688" lon="13.079166870379101"><ele>304.0</ele><time>2026-04-25T10:47:49.001Z</time></trkpt><trkpt lat="43.46324048248759" lon="13.079381370568447"><ele>308.0</ele><time>2026-04-25T10:47:50.001Z</time></trkpt><trkpt lat="43.46311030873968" lon="13.079566316678507"><ele>308.0</ele><time>2026-04-25T10:47:51.001Z</time></trkpt><trkpt lat="43.462989127339874" lon="13.07974579737565"><ele>308.0</ele><time>2026-04-25T10:47:52.001Z</time></trkpt><trkpt lat="43.462909173341316" lon="13.079939803518762"><ele>308.0</ele><time>2026-04-25T10:47:53.001Z</time></trkpt><trkpt lat="43.46288129544167" lon="13.0801741378204"><ele>306.0</ele><time>2026-04-25T10:47:54.001Z</time></trkpt><trkpt lat="43.46290459661351" lon="13.080426566857145"><ele>304.0</ele><time>2026-04-25T10:47:55.001Z</time></trkpt><trkpt lat="43.46296257368877" lon="13.080670596552851"><ele>302.0</ele><time>2026-04-25T10:47:56.001Z</time></trkpt><trkpt lat="43.46299948652236" lon="13.080924638602092"><ele>302.6666666666667</ele><time>2026-04-25T10:47:57.001Z</time></trkpt><trkpt lat="43.462974013619274" lon="13.081201906356334"><ele>303.3333333333333</ele><time>2026-04-25T10:47:58.001Z</time></trkpt><trkpt lat="43.46291978584801" lon="13.081476178967577"><ele>304.0</ele><time>2026-04-25T10:47:59.001Z</time></trkpt><trkpt lat="43.4628395444385" lon="13.081727831113323"><ele>306.66666666666663</ele><time>2026-04-25T10:48:00.001Z</time></trkpt><trkpt lat="43.46276842840913" lon="13.081975499716187"><ele>309.3333333333333</ele><time>2026-04-25T10:48:01.001Z</time></trkpt><trkpt lat="43.462718915602196" lon="13.082191612816374"><ele>312.0</ele><time>2026-04-25T10:48:02.001Z</time></trkpt><trkpt lat="43.46268976399203" lon="13.082393678053695"><ele>314.3333333333333</ele><time>2026-04-25T10:48:03.001Z</time></trkpt><trkpt lat="43.46269346403499" lon="13.082597877845112"><ele>316.66666666666663</ele><time>2026-04-25T10:48:04.001Z</time></trkpt><trkpt lat="43.46274246932861" lon="13.082807612930644"><ele>319.0</ele><time>2026-04-25T10:48:05.001Z</time></trkpt><trkpt lat="43.462837513072834" lon="13.083005001096764"><ele>322.3333333333333</ele><time>2026-04-25T10:48:06.001Z</time></trkpt><trkpt lat="43.46296615682665" lon="13.08317733094365"><ele>325.6666666666667</ele><time>2026-04-25T10:48:07.001Z</time></trkpt><trkpt lat="43.463073826278766" lon="13.083324790500592"><ele>329.0</ele><time>2026-04-25T10:48:08.001Z</time></trkpt><trkpt lat="43.46313398108763" lon="13.083506180304457"><ele>329.0</ele><time>2026-04-25T10:48:09.001Z</time></trkpt><trkpt lat="43.46314119470564" lon="13.083721093701397"><ele>329.0</ele><time>2026-04-25T10:48:10.001Z</time></trkpt><trkpt lat="43.46310143431332" lon="13.08395248506426"><ele>329.0</ele><time>2026-04-25T10:48:11.001Z</time></trkpt><trkpt lat="43.46305719062335" lon="13.084193408024616"><ele>328.33333333333337</ele><time>2026-04-25T10:48:12.001Z</time></trkpt><trkpt lat="43.46302981401648" lon="13.084437282290919"><ele>327.6666666666667</ele><time>2026-04-25T10:48:13.001Z</time></trkpt><trkpt lat="43.46298778687916" lon="13.084670856105719"><ele>327.0</ele><time>2026-04-25T10:48:14.001Z</time></trkpt><trkpt lat="43.46291264497148" lon="13.084863201682204"><ele>330.3333333333333</ele><time>2026-04-25T10:48:15.001Z</time></trkpt><trkpt lat="43.46280338124252" lon="13.085012799655189"><ele>333.66666666666663</ele><time>2026-04-25T10:48:16.001Z</time></trkpt><trkpt lat="43.462647865594654" lon="13.085060964850975"><ele>337.0</ele><time>2026-04-25T10:48:17.001Z</time></trkpt><trkpt lat="43.462489893308245" lon="13.085061241128074"><ele>337.0</ele><time>2026-04-25T10:48:18.001Z</time></trkpt><trkpt lat="43.46233162680062" lon="13.085052773137418"><ele>337.0</ele><time>2026-04-25T10:48:19.001Z</time></trkpt><trkpt lat="43.46216288384708" lon="13.085054302365236"><ele>337.0</ele><time>2026-04-25T10:48:20.001Z</time></trkpt><trkpt lat="43.46199339792258" lon="13.0850343804995"><ele>340.0</ele><time>2026-04-25T10:48:21.001Z</time></trkpt><trkpt lat="43.46181855475712" lon="13.085008785727096"><ele>343.0</ele><time>2026-04-25T10:48:22.001Z</time></trkpt><trkpt lat="43.46165674489786" lon="13.084984525765963"><ele>346.0</ele><time>2026-04-25T10:48:23.001Z</time></trkpt><trkpt lat="43.46152781651917" lon="13.08496544776702"><ele>346.0</ele><time>2026-04-25T10:48:24.001Z</time></trkpt><trkpt lat="43.461428793127915" lon="13.084947005140883"><ele>346.0</ele><time>2026-04-25T10:48:25.001Z</time></trkpt><trkpt lat="43.46134757341283" lon="13.084946109797386"><ele>346.0</ele><time>2026-04-25T10:48:26.001Z</time></trkpt><trkpt lat="43.461296891548955" lon="13.0850239401214"><ele>346.0</ele><time>2026-04-25T10:48:27.001Z</time></trkpt><trkpt lat="43.461289476253704" lon="13.085158264331822"><ele>346.0</ele><time>2026-04-25T10:48:28.001Z</time></trkpt><trkpt lat="43.4613130053296" lon="13.085298629487077"><ele>346.0</ele><time>2026-04-25T10:48:29.001Z</time></trkpt><trkpt lat="43.46141478594388" lon="13.085393727637344"><ele>346.0</ele><time>2026-04-25T10:48:30.001Z</time></trkpt><trkpt lat="43.461515760754565" lon="13.085484170502951"><ele>346.0</ele><time>2026-04-25T10:48:31.001Z</time></trkpt><trkpt lat="43.46157582196761" lon="13.085619235606986"><ele>346.0</ele><time>2026-04-25T10:48:32.001Z</time></trkpt><trkpt lat="43.461618073619" lon="13.085788086152045"><ele>349.3333333333333</ele><time>2026-04-25T10:48:33.001Z</time></trkpt><trkpt lat="43.46167034188368" lon="13.085972510691724"><ele>352.6666666666667</ele><time>2026-04-25T10:48:34.001Z</time></trkpt><trkpt lat="43.46172554680903" lon="13.086164405035646"><ele>356.0</ele><time>2026-04-25T10:48:35.001Z</time></trkpt><trkpt lat="43.46181011120723" lon="13.086346611358856"><ele>356.0</ele><time>2026-04-25T10:48:36Z</time></trkpt><trkpt lat="43.461911565876385" lon="13.086507494009362"><ele>356.0</ele><time>2026-04-25T10:48:37Z</time></trkpt><trkpt lat="43.46201026128949" lon="13.086646944442842"><ele>356.0</ele><time>2026-04-25T10:48:38Z</time></trkpt><trkpt lat="43.4621024667112" lon="13.086764437200747"><ele>356.0</ele><time>2026-04-25T10:48:39Z</time></trkpt><trkpt lat="43.46221412329552" lon="13.086879113859167"><ele>357.75</ele><time>2026-04-25T10:48:40Z</time></trkpt><trkpt lat="43.462320638904785" lon="13.08698587123074"><ele>359.5</ele><time>2026-04-25T10:48:41Z</time></trkpt><trkpt lat="43.46242991123957" lon="13.087085363757787"><ele>361.25</ele><time>2026-04-25T10:48:42Z</time></trkpt><trkpt lat="43.46252916236327" lon="13.087170356204952"><ele>363.0</ele><time>2026-04-25T10:48:43Z</time></trkpt><trkpt lat="43.4626235713704" lon="13.087232598581313"><ele>363.0</ele><time>2026-04-25T10:48:44Z</time></trkpt><trkpt lat="43.4627319989664" lon="13.087293532174096"><ele>363.0</ele><time>2026-04-25T10:48:45Z</time></trkpt><trkpt lat="43.46282468793277" lon="13.087373045046423"><ele>363.0</ele><time>2026-04-25T10:48:46Z</time></trkpt><trkpt lat="43.46291085109745" lon="13.087459270951584"><ele>363.0</ele><time>2026-04-25T10:48:47Z</time></trkpt><trkpt lat="43.46299525483412" lon="13.08756244734271"><ele>363.0</ele><time>2026-04-25T10:48:48Z</time></trkpt><trkpt lat="43.46308012565998" lon="13.087677986609462"><ele>361.5</ele><time>2026-04-25T10:48:49Z</time></trkpt><trkpt lat="43.46315634000892" lon="13.087817315237277"><ele>360.0</ele><time>2026-04-25T10:48:50Z</time></trkpt><trkpt lat="43.463238773153584" lon="13.087972490390479"><ele>358.5</ele><time>2026-04-25T10:48:51Z</time></trkpt><trkpt lat="43.463330463951166" lon="13.088126012207654"><ele>357.0</ele><time>2026-04-25T10:48:52Z</time></trkpt><trkpt lat="43.463425618777414" lon="13.088287311475773"><ele>357.0</ele><time>2026-04-25T10:48:53Z</time></trkpt><trkpt lat="43.463526632882605" lon="13.088449132309961"><ele>357.0</ele><time>2026-04-25T10:48:54Z</time></trkpt><trkpt lat="43.46362944543302" lon="13.088604314157287"><ele>357.0</ele><time>2026-04-25T10:48:55Z</time></trkpt><trkpt lat="43.46372161009642" lon="13.088758981265952"><ele>355.3333333333333</ele><time>2026-04-25T10:48:56Z</time></trkpt><trkpt lat="43.46381559867902" lon="13.088916401843555"><ele>353.66666666666663</ele><time>2026-04-25T10:48:57Z</time></trkpt><trkpt lat="43.46392072178797" lon="13.089077946030365"><ele>352.0</ele><time>2026-04-25T10:48:58Z</time></trkpt><trkpt lat="43.464030714579735" lon="13.089243312349076"><ele>352.0</ele><time>2026-04-25T10:48:59Z</time></trkpt><trkpt lat="43.46414174934048" lon="13.089416372886097"><ele>352.0</ele><time>2026-04-25T10:49:00Z</time></trkpt><trkpt lat="43.46424779649178" lon="13.089583191864946"><ele>352.0</ele><time>2026-04-25T10:49:01Z</time></trkpt><trkpt lat="43.46435229267274" lon="13.089740508315"><ele>352.0</ele><time>2026-04-25T10:49:02Z</time></trkpt><trkpt lat="43.46445146087505" lon="13.089878657769919"><ele>352.0</ele><time>2026-04-25T10:49:03Z</time></trkpt><trkpt lat="43.464535850658564" lon="13.09002021509742"><ele>352.0</ele><time>2026-04-25T10:49:04Z</time></trkpt><trkpt lat="43.464579399838335" lon="13.090181041805524"><ele>352.0</ele><time>2026-04-25T10:49:05Z</time></trkpt><trkpt lat="43.4645477941113" lon="13.090360730848737"><ele>351.3333333333333</ele><time>2026-04-25T10:49:06Z</time></trkpt><trkpt lat="43.46450066557542" lon="13.09055779685135"><ele>350.6666666666667</ele><time>2026-04-25T10:49:07Z</time></trkpt><trkpt lat="43.46444737661251" lon="13.090784159369152"><ele>350.0</ele><time>2026-04-25T10:49:08Z</time></trkpt><trkpt lat="43.4643848108476" lon="13.091018337194898"><ele>350.0</ele><time>2026-04-25T10:49:09Z</time></trkpt><trkpt lat="43.46432220325711" lon="13.09126896039316"><ele>350.0</ele><time>2026-04-25T10:49:10Z</time></trkpt><trkpt lat="43.46425117566584" lon="13.091522090588537"><ele>350.0</ele><time>2026-04-25T10:49:11Z</time></trkpt><trkpt lat="43.464179784443786" lon="13.091784423726354"><ele>350.33333333333337</ele><time>2026-04-25T10:49:12Z</time></trkpt><trkpt lat="43.46411211279886" lon="13.092051068169633"><ele>350.6666666666667</ele><time>2026-04-25T10:49:13Z</time></trkpt><trkpt lat="43.46404129061712" lon="13.092324639296011"><ele>351.0</ele><time>2026-04-25T10:49:14Z</time></trkpt><trkpt lat="43.46396879669013" lon="13.092601726255767"><ele>351.3333333333333</ele><time>2026-04-25T10:49:15Z</time></trkpt><trkpt lat="43.46389128374649" lon="13.092885175128078"><ele>351.66666666666663</ele><time>2026-04-25T10:49:16Z</time></trkpt><trkpt lat="43.46381434212373" lon="13.093174817244028"><ele>352.0</ele><time>2026-04-25T10:49:17Z</time></trkpt><trkpt lat="43.46373583963352" lon="13.093447765905369"><ele>351.3333333333333</ele><time>2026-04-25T10:49:18Z</time></trkpt><trkpt lat="43.463662782286" lon="13.093691449416985"><ele>350.6666666666667</ele><time>2026-04-25T10:49:19Z</time></trkpt><trkpt lat="43.46359748871739" lon="13.093925600335494"><ele>350.0</ele><time>2026-04-25T10:49:20Z</time></trkpt><trkpt lat="43.46350794982948" lon="13.094155649500394"><ele>351.6666666666667</ele><time>2026-04-25T10:49:21Z</time></trkpt><trkpt lat="43.46342038287236" lon="13.094385621657546"><ele>353.3333333333333</ele><time>2026-04-25T10:49:22Z</time></trkpt><trkpt lat="43.46334009330838" lon="13.094627409213032"><ele>355.0</ele><time>2026-04-25T10:49:23Z</time></trkpt><trkpt lat="43.46325292344702" lon="13.094866824802331"><ele>355.0</ele><time>2026-04-25T10:49:24Z</time></trkpt><trkpt lat="43.463164721632204" lon="13.095111473907693"><ele>355.0</ele><time>2026-04-25T10:49:25Z</time></trkpt><trkpt lat="43.46306653143576" lon="13.095350420254094"><ele>355.0</ele><time>2026-04-25T10:49:26Z</time></trkpt><trkpt lat="43.46294124254695" lon="13.095563934426169"><ele>355.66666666666663</ele><time>2026-04-25T10:49:27Z</time></trkpt><trkpt lat="43.46278955172186" lon="13.095753913943811"><ele>356.3333333333333</ele><time>2026-04-25T10:49:28Z</time></trkpt><trkpt lat="43.46262979920073" lon="13.095933914748526"><ele>357.0</ele><time>2026-04-25T10:49:29Z</time></trkpt><trkpt lat="43.46246844810097" lon="13.096105706117838"><ele>357.0</ele><time>2026-04-25T10:49:30Z</time></trkpt><trkpt lat="43.462311300494804" lon="13.096276560374083"><ele>357.0</ele><time>2026-04-25T10:49:31Z</time></trkpt><trkpt lat="43.46215478071044" lon="13.096453077265304"><ele>357.0</ele><time>2026-04-25T10:49:32Z</time></trkpt><trkpt lat="43.461996991155516" lon="13.096635276581678"><ele>360.6666666666667</ele><time>2026-04-25T10:49:33Z</time></trkpt><trkpt lat="43.46183960369502" lon="13.09680490899425"><ele>364.33333333333337</ele><time>2026-04-25T10:49:34.001Z</time></trkpt><trkpt lat="43.46168465757895" lon="13.096949772449939"><ele>368.0</ele><time>2026-04-25T10:49:35.001Z</time></trkpt><trkpt lat="43.46153753077098" lon="13.097073733776805"><ele>368.0</ele><time>2026-04-25T10:49:36.001Z</time></trkpt><trkpt lat="43.46138353930043" lon="13.097199064509104"><ele>368.0</ele><time>2026-04-25T10:49:37.001Z</time></trkpt><trkpt lat="43.46122264096599" lon="13.097332582356575"><ele>368.0</ele><time>2026-04-25T10:49:38.001Z</time></trkpt><trkpt lat="43.46105824061622" lon="13.097464506340687"><ele>367.6666666666667</ele><time>2026-04-25T10:49:39.001Z</time></trkpt><trkpt lat="43.46089663341185" lon="13.097597182686803"><ele>367.3333333333333</ele><time>2026-04-25T10:49:40.001Z</time></trkpt><trkpt lat="43.46075301681668" lon="13.097714547547847"><ele>367.0</ele><time>2026-04-25T10:49:41.001Z</time></trkpt><trkpt lat="43.46062121543424" lon="13.097844410528737"><ele>367.0</ele><time>2026-04-25T10:49:42.001Z</time></trkpt><trkpt lat="43.46050299152968" lon="13.098011616675699"><ele>367.0</ele><time>2026-04-25T10:49:43.001Z</time></trkpt><trkpt lat="43.46041725209638" lon="13.09822770210526"><ele>367.0</ele><time>2026-04-25T10:49:44.001Z</time></trkpt><trkpt lat="43.4603736179106" lon="13.098476868549536"><ele>368.0</ele><time>2026-04-25T10:49:45.001Z</time></trkpt><trkpt lat="43.46036582367239" lon="13.098743105474291"><ele>369.0</ele><time>2026-04-25T10:49:46.001Z</time></trkpt><trkpt lat="43.46036660446289" lon="13.099015365568665"><ele>370.0</ele><time>2026-04-25T10:49:47.001Z</time></trkpt><trkpt lat="43.460361150341264" lon="13.099281944741898"><ele>370.66666666666663</ele><time>2026-04-25T10:49:48.001Z</time></trkpt><trkpt lat="43.46035283429511" lon="13.09952444361659"><ele>371.3333333333333</ele><time>2026-04-25T10:49:49.001Z</time></trkpt><trkpt lat="43.46034663682496" lon="13.099741504151863"><ele>372.0</ele><time>2026-04-25T10:49:50.001Z</time></trkpt><trkpt lat="43.46033860851475" lon="13.099943423025525"><ele>372.75</ele><time>2026-04-25T10:49:51.001Z</time></trkpt><trkpt lat="43.46033065372287" lon="13.100128524025392"><ele>373.5</ele><time>2026-04-25T10:49:52.001Z</time></trkpt><trkpt lat="43.46032150390891" lon="13.100301541225402"><ele>374.25</ele><time>2026-04-25T10:49:53.001Z</time></trkpt><trkpt lat="43.4603152006689" lon="13.10046061919522"><ele>375.0</ele><time>2026-04-25T10:49:54.001Z</time></trkpt><trkpt lat="43.46030567695597" lon="13.100610864145805"><ele>375.4</ele><time>2026-04-25T10:49:55.001Z</time></trkpt><trkpt lat="43.460292948861806" lon="13.100756653984632"><ele>375.8</ele><time>2026-04-25T10:49:56.001Z</time></trkpt><trkpt lat="43.46027984487254" lon="13.100892889527525"><ele>376.20000000000005</ele><time>2026-04-25T10:49:57.001Z</time></trkpt><trkpt lat="43.46027019326025" lon="13.101012340240358"><ele>376.6</ele><time>2026-04-25T10:49:58.001Z</time></trkpt><trkpt lat="43.46026364759121" lon="13.101141357059582"><ele>377.0</ele><time>2026-04-25T10:49:59.001Z</time></trkpt><trkpt lat="43.46024629700423" lon="13.101280663039852"><ele>377.0</ele><time>2026-04-25T10:50:00.001Z</time></trkpt><trkpt lat="43.460233008292185" lon="13.101426844760672"><ele>377.0</ele><time>2026-04-25T10:50:01.001Z</time></trkpt><trkpt lat="43.4602133518919" lon="13.101587737221054"><ele>377.0</ele><time>2026-04-25T10:50:02.001Z</time></trkpt><trkpt lat="43.46017617700544" lon="13.10174932817728"><ele>377.0</ele><time>2026-04-25T10:50:03.001Z</time></trkpt><trkpt lat="43.46013721991173" lon="13.101886581039423"><ele>378.0</ele><time>2026-04-25T10:50:04.001Z</time></trkpt><trkpt lat="43.460103543367275" lon="13.102014692190602"><ele>379.0</ele><time>2026-04-25T10:50:05.001Z</time></trkpt><trkpt lat="43.46006600213852" lon="13.102136694705711"><ele>380.0</ele><time>2026-04-25T10:50:06.001Z</time></trkpt><trkpt lat="43.460025131425226" lon="13.10224893033121"><ele>381.0</ele><time>2026-04-25T10:50:07.001Z</time></trkpt><trkpt lat="43.45999342619763" lon="13.102355577468153"><ele>382.0</ele><time>2026-04-25T10:50:08.001Z</time></trkpt><trkpt lat="43.459965524380195" lon="13.102451186708363"><ele>383.0</ele><time>2026-04-25T10:50:09.001Z</time></trkpt><trkpt lat="43.45990816824776" lon="13.102573749599058"><ele>383.4</ele><time>2026-04-25T10:50:11.001Z</time></trkpt><trkpt lat="43.45987073792931" lon="13.102656744292164"><ele>383.79999999999995</ele><time>2026-04-25T10:50:18.001Z</time></trkpt><trkpt lat="43.45974046888036" lon="13.102746582685981"><ele>384.2</ele><time>2026-04-25T10:50:20.001Z</time></trkpt><trkpt lat="43.45964894037219" lon="13.10280446197382"><ele>384.6</ele><time>2026-04-25T10:50:21.001Z</time></trkpt><trkpt lat="43.45955369955129" lon="13.102884211107824"><ele>385.0</ele><time>2026-04-25T10:50:22.001Z</time></trkpt><trkpt lat="43.45944071897006" lon="13.102970587409315"><ele>384.5</ele><time>2026-04-25T10:50:23.001Z</time></trkpt><trkpt lat="43.45933265582833" lon="13.103054444057848"><ele>384.0</ele><time>2026-04-25T10:50:24.001Z</time></trkpt><trkpt lat="43.459212427212826" lon="13.103151683380212"><ele>383.5</ele><time>2026-04-25T10:50:25.001Z</time></trkpt><trkpt lat="43.45910451689894" lon="13.103239175260896"><ele>383.0</ele><time>2026-04-25T10:50:26.001Z</time></trkpt><trkpt lat="43.45900156168164" lon="13.103318017381971"><ele>383.0</ele><time>2026-04-25T10:50:27.001Z</time></trkpt><trkpt lat="43.458897255035204" lon="13.103397394470464"><ele>383.0</ele><time>2026-04-25T10:50:28.001Z</time></trkpt><trkpt lat="43.4587908455915" lon="13.103482393875993"><ele>383.0</ele><time>2026-04-25T10:50:29Z</time></trkpt><trkpt lat="43.458689141742845" lon="13.103571582054062"><ele>383.0</ele><time>2026-04-25T10:50:30Z</time></trkpt><trkpt lat="43.45858042135882" lon="13.103658816308672"><ele>383.0</ele><time>2026-04-25T10:50:31Z</time></trkpt><trkpt lat="43.45846932227973" lon="13.103737346717685"><ele>383.0</ele><time>2026-04-25T10:50:32Z</time></trkpt><trkpt lat="43.45835635068185" lon="13.103817854098434"><ele>383.0</ele><time>2026-04-25T10:50:33Z</time></trkpt><trkpt lat="43.45824407229414" lon="13.103901649611142"><ele>383.0</ele><time>2026-04-25T10:50:34Z</time></trkpt><trkpt lat="43.458126664726926" lon="13.10396429665169"><ele>383.0</ele><time>2026-04-25T10:50:35Z</time></trkpt><trkpt lat="43.45799656624779" lon="13.10399815559288"><ele>383.0</ele><time>2026-04-25T10:50:36Z</time></trkpt><trkpt lat="43.457853256084924" lon="13.103993817120147"><ele>383.0</ele><time>2026-04-25T10:50:37Z</time></trkpt><trkpt lat="43.4576998029259" lon="13.103973861702377"><ele>383.0</ele><time>2026-04-25T10:50:38Z</time></trkpt><trkpt lat="43.45755030164502" lon="13.103896360521528"><ele>383.33333333333337</ele><time>2026-04-25T10:50:39Z</time></trkpt><trkpt lat="43.45738767212019" lon="13.103840358730386"><ele>383.6666666666667</ele><time>2026-04-25T10:50:40Z</time></trkpt><trkpt lat="43.45723261439681" lon="13.10374814793004"><ele>384.0</ele><time>2026-04-25T10:50:41Z</time></trkpt><trkpt lat="43.45708008441255" lon="13.10367730818763"><ele>385.5</ele><time>2026-04-25T10:50:42Z</time></trkpt><trkpt lat="43.45693677445489" lon="13.103642067493364"><ele>387.0</ele><time>2026-04-25T10:50:43Z</time></trkpt><trkpt lat="43.45680154412147" lon="13.10365078914808"><ele>388.5</ele><time>2026-04-25T10:50:44Z</time></trkpt><trkpt lat="43.45667531452349" lon="13.103730370423289"><ele>390.0</ele><time>2026-04-25T10:50:45Z</time></trkpt><trkpt lat="43.45657530222756" lon="13.103880225950121"><ele>390.0</ele><time>2026-04-25T10:50:46Z</time></trkpt><trkpt lat="43.456519954502454" lon="13.10406797098569"><ele>390.0</ele><time>2026-04-25T10:50:47Z</time></trkpt><trkpt lat="43.45648159392651" lon="13.104269971325772"><ele>390.0</ele><time>2026-04-25T10:50:48Z</time></trkpt><trkpt lat="43.45644684862757" lon="13.104477733637019"><ele>393.0</ele><time>2026-04-25T10:50:49Z</time></trkpt><trkpt lat="43.45639952224302" lon="13.104692853582346"><ele>396.0</ele><time>2026-04-25T10:50:50Z</time></trkpt><trkpt lat="43.45635256248342" lon="13.104909199178657"><ele>399.0</ele><time>2026-04-25T10:50:51Z</time></trkpt><trkpt lat="43.456307978446425" lon="13.105115646776992"><ele>400.25</ele><time>2026-04-25T10:50:52Z</time></trkpt><trkpt lat="43.456260284247406" lon="13.105298268530982"><ele>401.5</ele><time>2026-04-25T10:50:53Z</time></trkpt><trkpt lat="43.45619462142285" lon="13.105455364833322"><ele>402.75</ele><time>2026-04-25T10:50:54Z</time></trkpt><trkpt lat="43.45609819580612" lon="13.105592483433023"><ele>404.0</ele><time>2026-04-25T10:50:55Z</time></trkpt><trkpt lat="43.45597446592766" lon="13.105704589598734"><ele>405.0</ele><time>2026-04-25T10:50:56Z</time></trkpt><trkpt lat="43.45583999717686" lon="13.105817248531451"><ele>406.0</ele><time>2026-04-25T10:50:57Z</time></trkpt><trkpt lat="43.45570217872897" lon="13.105939259822877"><ele>407.0</ele><time>2026-04-25T10:50:58Z</time></trkpt><trkpt lat="43.455555745053985" lon="13.106059185203293"><ele>409.0</ele><time>2026-04-25T10:50:59Z</time></trkpt><trkpt lat="43.45540941287514" lon="13.106174280773432"><ele>411.0</ele><time>2026-04-25T10:51:00Z</time></trkpt><trkpt lat="43.45526248156102" lon="13.106285653890577"><ele>413.0</ele><time>2026-04-25T10:51:01Z</time></trkpt><trkpt lat="43.455117547432344" lon="13.106403584797006"><ele>413.0</ele><time>2026-04-25T10:51:02Z</time></trkpt><trkpt lat="43.454970388634884" lon="13.106522873386636"><ele>413.0</ele><time>2026-04-25T10:51:03Z</time></trkpt><trkpt lat="43.454817007330526" lon="13.106644652076016"><ele>413.0</ele><time>2026-04-25T10:51:04Z</time></trkpt><trkpt lat="43.454663371375744" lon="13.106775595344155"><ele>416.3333333333333</ele><time>2026-04-25T10:51:05Z</time></trkpt><trkpt lat="43.45450636512754" lon="13.106901183359513"><ele>419.66666666666663</ele><time>2026-04-25T10:51:06Z</time></trkpt><trkpt lat="43.454344564575976" lon="13.107027481717445"><ele>423.0</ele><time>2026-04-25T10:51:07Z</time></trkpt><trkpt lat="43.454188375327256" lon="13.107155193639963"><ele>423.0</ele><time>2026-04-25T10:51:08Z</time></trkpt><trkpt lat="43.45403281619398" lon="13.107285319064797"><ele>423.0</ele><time>2026-04-25T10:51:09Z</time></trkpt><trkpt lat="43.45387862624032" lon="13.107410169897161"><ele>423.0</ele><time>2026-04-25T10:51:10Z</time></trkpt><trkpt lat="43.45372462938527" lon="13.107530945271964"><ele>425.33333333333337</ele><time>2026-04-25T10:51:11Z</time></trkpt><trkpt lat="43.4535707196236" lon="13.107649842171947"><ele>427.6666666666667</ele><time>2026-04-25T10:51:12Z</time></trkpt><trkpt lat="43.45341733735816" lon="13.107768519476304"><ele>430.0</ele><time>2026-04-25T10:51:13Z</time></trkpt><trkpt lat="43.4532636775847" lon="13.1078871011016"><ele>430.0</ele><time>2026-04-25T10:51:14Z</time></trkpt><trkpt lat="43.45311099018701" lon="13.108008465913487"><ele>430.0</ele><time>2026-04-25T10:51:15Z</time></trkpt><trkpt lat="43.45295921061205" lon="13.108130909069619"><ele>430.0</ele><time>2026-04-25T10:51:16Z</time></trkpt><trkpt lat="43.45281033637559" lon="13.108247498389296"><ele>430.75</ele><time>2026-04-25T10:51:17Z</time></trkpt><trkpt lat="43.4526728717909" lon="13.108350541806653"><ele>431.5</ele><time>2026-04-25T10:51:18Z</time></trkpt><trkpt lat="43.4525469395075" lon="13.108449878517"><ele>432.25</ele><time>2026-04-25T10:51:19Z</time></trkpt><trkpt lat="43.452430417758855" lon="13.108538096750882"><ele>433.0</ele><time>2026-04-25T10:51:20Z</time></trkpt><trkpt lat="43.452320486366574" lon="13.108622610125874"><ele>433.0</ele><time>2026-04-25T10:51:21Z</time></trkpt><trkpt lat="43.452219309060986" lon="13.108698317857847"><ele>432.99999999999994</ele><time>2026-04-25T10:51:22Z</time></trkpt><trkpt lat="43.45212935194255" lon="13.108770412471381"><ele>432.99999999999994</ele><time>2026-04-25T10:51:23Z</time></trkpt><trkpt lat="43.45203844892808" lon="13.108839964291478"><ele>433.0</ele><time>2026-04-25T10:51:24Z</time></trkpt><trkpt lat="43.45194409183375" lon="13.108910593300164"><ele>433.0</ele><time>2026-04-25T10:51:25Z</time></trkpt><trkpt lat="43.45184587507748" lon="13.10898925473347"><ele>434.0</ele><time>2026-04-25T10:51:26Z</time></trkpt><trkpt lat="43.451739390978965" lon="13.109075824781204"><ele>435.0</ele><time>2026-04-25T10:51:27Z</time></trkpt><trkpt lat="43.451631943349405" lon="13.109155927141014"><ele>436.0</ele><time>2026-04-25T10:51:28Z</time></trkpt><trkpt lat="43.45152978836744" lon="13.109239678665297"><ele>437.0</ele><time>2026-04-25T10:51:29Z</time></trkpt><trkpt lat="43.45132191806787" lon="13.109437030589943"><ele>438.0</ele><time>2026-04-25T10:51:31Z</time></trkpt><trkpt lat="43.45121127203982" lon="13.109548803098196"><ele>439.0</ele><time>2026-04-25T10:51:32Z</time></trkpt><trkpt lat="43.45109629460177" lon="13.10966045971359"><ele>440.0</ele><time>2026-04-25T10:51:33Z</time></trkpt><trkpt lat="43.450979698071514" lon="13.109776905106585"><ele>441.0</ele><time>2026-04-25T10:51:34Z</time></trkpt><trkpt lat="43.4508578575502" lon="13.109892590944613"><ele>441.66666666666663</ele><time>2026-04-25T10:51:35Z</time></trkpt><trkpt lat="43.450734083702066" lon="13.110017679587326"><ele>442.3333333333333</ele><time>2026-04-25T10:51:36Z</time></trkpt><trkpt lat="43.45060802770297" lon="13.110142718287081"><ele>443.0</ele><time>2026-04-25T10:51:37Z</time></trkpt><trkpt lat="43.45048064163764" lon="13.110266127168366"><ele>443.3333333333333</ele><time>2026-04-25T10:51:38Z</time></trkpt><trkpt lat="43.45035173552738" lon="13.110388236686061"><ele>443.66666666666663</ele><time>2026-04-25T10:51:39Z</time></trkpt><trkpt lat="43.450222553325865" lon="13.11051406257623"><ele>444.0</ele><time>2026-04-25T10:51:40Z</time></trkpt><trkpt lat="43.45009268692412" lon="13.110639535131156"><ele>445.66666666666663</ele><time>2026-04-25T10:51:41Z</time></trkpt><trkpt lat="43.44996327178129" lon="13.110765451776896"><ele>447.3333333333333</ele><time>2026-04-25T10:51:42Z</time></trkpt><trkpt lat="43.44983549705486" lon="13.110898414727702"><ele>449.0</ele><time>2026-04-25T10:51:43Z</time></trkpt><trkpt lat="43.44971150283453" lon="13.111020461694148"><ele>449.5</ele><time>2026-04-25T10:51:44Z</time></trkpt><trkpt lat="43.449592378856494" lon="13.111134657869735"><ele>450.0</ele><time>2026-04-25T10:51:45Z</time></trkpt><trkpt lat="43.44948242852725" lon="13.111236040384714"><ele>450.5</ele><time>2026-04-25T10:51:46Z</time></trkpt><trkpt lat="43.44938120974213" lon="13.111333241374846"><ele>451.0</ele><time>2026-04-25T10:51:47Z</time></trkpt><trkpt lat="43.449288787817814" lon="13.111417201883786"><ele>451.0</ele><time>2026-04-25T10:51:48Z</time></trkpt><trkpt lat="43.449208382697044" lon="13.111494318465818"><ele>451.0</ele><time>2026-04-25T10:51:49Z</time></trkpt><trkpt lat="43.44912473695808" lon="13.111530745665744"><ele>451.0</ele><time>2026-04-25T10:51:50Z</time></trkpt><trkpt lat="43.44900676605595" lon="13.111530952612858"><ele>451.0</ele><time>2026-04-25T10:51:51Z</time></trkpt><trkpt lat="43.44887658756983" lon="13.111539990559935"><ele>451.0</ele><time>2026-04-25T10:51:52Z</time></trkpt><trkpt lat="43.448750837187845" lon="13.111557487736201"><ele>451.5</ele><time>2026-04-25T10:51:53Z</time></trkpt><trkpt lat="43.448624304404866" lon="13.111568107843102"><ele>452.0</ele><time>2026-04-25T10:51:54Z</time></trkpt><trkpt lat="43.448499289165376" lon="13.11158545836356"><ele>452.5</ele><time>2026-04-25T10:51:55Z</time></trkpt><trkpt lat="43.44837470030601" lon="13.111605242588668"><ele>453.0</ele><time>2026-04-25T10:51:56Z</time></trkpt><trkpt lat="43.44824852604825" lon="13.111618694154686"><ele>455.0</ele><time>2026-04-25T10:51:57Z</time></trkpt><trkpt lat="43.44812358631028" lon="13.111629987771412"><ele>457.0</ele><time>2026-04-25T10:51:58Z</time></trkpt><trkpt lat="43.44800067781882" lon="13.111639545171947"><ele>459.0</ele><time>2026-04-25T10:51:59Z</time></trkpt><trkpt lat="43.44788177187057" lon="13.111657152456242"><ele>461.0</ele><time>2026-04-25T10:52:00Z</time></trkpt><trkpt lat="43.44776522961714" lon="13.111670223859354"><ele>462.0</ele><time>2026-04-25T10:52:01Z</time></trkpt><trkpt lat="43.44764848841721" lon="13.111689043933062"><ele>463.0</ele><time>2026-04-25T10:52:02Z</time></trkpt><trkpt lat="43.4475390978805" lon="13.111696420696465"><ele>464.0</ele><time>2026-04-25T10:52:03Z</time></trkpt><trkpt lat="43.44742780109047" lon="13.111708078063815"><ele>465.0</ele><time>2026-04-25T10:52:04Z</time></trkpt><trkpt lat="43.4473152192768" lon="13.111719138711463"><ele>465.0</ele><time>2026-04-25T10:52:05Z</time></trkpt><trkpt lat="43.447205990681816" lon="13.111727294502005"><ele>465.0</ele><time>2026-04-25T10:52:06Z</time></trkpt><trkpt lat="43.44709191011016" lon="13.111737853389876"><ele>465.0</ele><time>2026-04-25T10:52:07Z</time></trkpt><trkpt lat="43.44697649303541" lon="13.111751909774354"><ele>465.0</ele><time>2026-04-25T10:52:08Z</time></trkpt><trkpt lat="43.44685912068256" lon="13.11176768709346"><ele>465.2</ele><time>2026-04-25T10:52:09Z</time></trkpt><trkpt lat="43.44675242462372" lon="13.11179508067832"><ele>465.4</ele><time>2026-04-25T10:52:10Z</time></trkpt><trkpt lat="43.44665998335148" lon="13.111833425475881"><ele>465.6</ele><time>2026-04-25T10:52:11Z</time></trkpt><trkpt lat="43.446572107822384" lon="13.111895256613332"><ele>465.8</ele><time>2026-04-25T10:52:12Z</time></trkpt><trkpt lat="43.44648920871618" lon="13.111965023363641"><ele>466.0</ele><time>2026-04-25T10:52:13Z</time></trkpt><trkpt lat="43.44642612325084" lon="13.112067164069316"><ele>466.0</ele><time>2026-04-25T10:52:14Z</time></trkpt><trkpt lat="43.4463782078286" lon="13.112186959080816"><ele>466.0</ele><time>2026-04-25T10:52:15Z</time></trkpt><trkpt lat="43.44634585385112" lon="13.112315606400049"><ele>466.0</ele><time>2026-04-25T10:52:16Z</time></trkpt><trkpt lat="43.446322815734" lon="13.11245188707358"><ele>466.0</ele><time>2026-04-25T10:52:17Z</time></trkpt><trkpt lat="43.44630117841694" lon="13.112591580536497"><ele>466.0</ele><time>2026-04-25T10:52:18Z</time></trkpt><trkpt lat="43.446278101544245" lon="13.11272217660759"><ele>466.20000000000005</ele><time>2026-04-25T10:52:19Z</time></trkpt><trkpt lat="43.446251340444945" lon="13.112838948946132"><ele>466.40000000000003</ele><time>2026-04-25T10:52:20Z</time></trkpt><trkpt lat="43.446204416757915" lon="13.112951067907977"><ele>466.6</ele><time>2026-04-25T10:52:21Z</time></trkpt><trkpt lat="43.44612955154121" lon="13.11303680944093"><ele>466.8</ele><time>2026-04-25T10:52:22Z</time></trkpt><trkpt lat="43.44603330359425" lon="13.113101789308274"><ele>467.0</ele><time>2026-04-25T10:52:23Z</time></trkpt><trkpt lat="43.44591952037723" lon="13.113147766448412"><ele>467.0</ele><time>2026-04-25T10:52:24Z</time></trkpt><trkpt lat="43.445806937437816" lon="13.113188085885785"><ele>467.00000000000006</ele><time>2026-04-25T10:52:25Z</time></trkpt><trkpt lat="43.445685683064816" lon="13.113218771778032"><ele>467.00000000000006</ele><time>2026-04-25T10:52:26Z</time></trkpt><trkpt lat="43.44558436345937" lon="13.113252294056634"><ele>467.0</ele><time>2026-04-25T10:52:27Z</time></trkpt><trkpt lat="43.445493586194544" lon="13.11328036256323"><ele>467.0</ele><time>2026-04-25T10:52:28Z</time></trkpt><trkpt lat="43.44541684789723" lon="13.11330906780069"><ele>468.66666666666663</ele><time>2026-04-25T10:52:29Z</time></trkpt><trkpt lat="43.4453498310337" lon="13.113342373707773"><ele>470.3333333333333</ele><time>2026-04-25T10:52:30Z</time></trkpt><trkpt lat="43.44528726929338" lon="13.113377621787208"><ele>472.0</ele><time>2026-04-25T10:52:31Z</time></trkpt><trkpt lat="43.445213495398335" lon="13.11344079739895"><ele>473.66666666666663</ele><time>2026-04-25T10:52:33Z</time></trkpt><trkpt lat="43.445153597710494" lon="13.11346873851416"><ele>475.3333333333333</ele><time>2026-04-25T10:52:35Z</time></trkpt><trkpt lat="43.44504559250131" lon="13.113535301508438"><ele>477.0</ele><time>2026-04-25T10:52:37Z</time></trkpt><trkpt lat="43.4449553130284" lon="13.11356593040885"><ele>477.0</ele><time>2026-04-25T10:52:38Z</time></trkpt><trkpt lat="43.444861694965226" lon="13.113619358835379"><ele>477.0</ele><time>2026-04-25T10:52:39Z</time></trkpt><trkpt lat="43.44475402039413" lon="13.113703146874522"><ele>477.0</ele><time>2026-04-25T10:52:40Z</time></trkpt><trkpt lat="43.444642453579945" lon="13.113809553390851"><ele>477.0</ele><time>2026-04-25T10:52:41Z</time></trkpt><trkpt lat="43.44451914546169" lon="13.113907905734415"><ele>479.0</ele><time>2026-04-25T10:52:42Z</time></trkpt><trkpt lat="43.444392535261834" lon="13.114029134540994"><ele>481.0</ele><time>2026-04-25T10:52:43Z</time></trkpt><trkpt lat="43.44426826300513" lon="13.114137227638983"><ele>483.0</ele><time>2026-04-25T10:52:44Z</time></trkpt><trkpt lat="43.44414331788863" lon="13.114250654034954"><ele>483.0</ele><time>2026-04-25T10:52:45Z</time></trkpt><trkpt lat="43.444016199428404" lon="13.114368694639136"><ele>483.0</ele><time>2026-04-25T10:52:46Z</time></trkpt><trkpt lat="43.443898445639654" lon="13.114486965501312"><ele>483.0</ele><time>2026-04-25T10:52:47Z</time></trkpt><trkpt lat="43.443790494721156" lon="13.114624342746492"><ele>483.0</ele><time>2026-04-25T10:52:48Z</time></trkpt><trkpt lat="43.4436926672242" lon="13.114780608042626"><ele>481.75</ele><time>2026-04-25T10:52:49Z</time></trkpt><trkpt lat="43.44361283844878" lon="13.114935354628381"><ele>480.5</ele><time>2026-04-25T10:52:50Z</time></trkpt><trkpt lat="43.443548511353534" lon="13.115101066637152"><ele>479.25</ele><time>2026-04-25T10:52:51Z</time></trkpt><trkpt lat="43.443483855383725" lon="13.115274713658655"><ele>478.0</ele><time>2026-04-25T10:52:52Z</time></trkpt><trkpt lat="43.44344036577286" lon="13.115450675029775"><ele>478.0</ele><time>2026-04-25T10:52:53Z</time></trkpt><trkpt lat="43.44340994592581" lon="13.115621995866636"><ele>478.0</ele><time>2026-04-25T10:52:54Z</time></trkpt><trkpt lat="43.44336423776883" lon="13.115775406853126"><ele>478.0</ele><time>2026-04-25T10:52:55Z</time></trkpt><trkpt lat="43.44332609891379" lon="13.115918626286833"><ele>478.0</ele><time>2026-04-25T10:52:56Z</time></trkpt><trkpt lat="43.44329669762825" lon="13.116050046012147"><ele>478.59999999999997</ele><time>2026-04-25T10:52:57Z</time></trkpt><trkpt lat="43.44324688201447" lon="13.116197842564592"><ele>479.19999999999993</ele><time>2026-04-25T10:52:58Z</time></trkpt><trkpt lat="43.44321305482926" lon="13.116315388178236"><ele>479.8</ele><time>2026-04-25T10:52:59Z</time></trkpt><trkpt lat="43.44318357704458" lon="13.116404952260709"><ele>480.4</ele><time>2026-04-25T10:53:00Z</time></trkpt><trkpt lat="43.44313511907551" lon="13.116519829113226"><ele>481.0</ele><time>2026-04-25T10:53:02Z</time></trkpt><trkpt lat="43.44307563636741" lon="13.116642218301251"><ele>481.0</ele><time>2026-04-25T10:53:04Z</time></trkpt><trkpt lat="43.443011271128114" lon="13.11669984319115"><ele>481.0</ele><time>2026-04-25T10:53:05Z</time></trkpt><trkpt lat="43.44291537867031" lon="13.116752829942655"><ele>481.0</ele><time>2026-04-25T10:53:06Z</time></trkpt><trkpt lat="43.44279635428227" lon="13.116807977976828"><ele>481.0</ele><time>2026-04-25T10:53:07Z</time></trkpt><trkpt lat="43.442667655490645" lon="13.11687795138049"><ele>481.0</ele><time>2026-04-25T10:53:08Z</time></trkpt><trkpt lat="43.44251901964164" lon="13.116932080157001"><ele>478.33333333333337</ele><time>2026-04-25T10:53:09Z</time></trkpt><trkpt lat="43.44236493741474" lon="13.117001156088934"><ele>475.66666666666663</ele><time>2026-04-25T10:53:10Z</time></trkpt><trkpt lat="43.44220756609742" lon="13.117073021351779"><ele>473.0</ele><time>2026-04-25T10:53:11Z</time></trkpt><trkpt lat="43.44204411170232" lon="13.117150752642324"><ele>470.3333333333333</ele><time>2026-04-25T10:53:12Z</time></trkpt><trkpt lat="43.441891988572216" lon="13.11722108267119"><ele>467.66666666666663</ele><time>2026-04-25T10:53:13Z</time></trkpt><trkpt lat="43.441747925513525" lon="13.117293062304531"><ele>465.0</ele><time>2026-04-25T10:53:14Z</time></trkpt><trkpt lat="43.441603085162356" lon="13.117360049185645"><ele>467.0</ele><time>2026-04-25T10:53:15Z</time></trkpt><trkpt lat="43.44145657775673" lon="13.117424644637714"><ele>469.0</ele><time>2026-04-25T10:53:16Z</time></trkpt><trkpt lat="43.441308342947494" lon="13.117489864382602"><ele>471.0</ele><time>2026-04-25T10:53:17Z</time></trkpt><trkpt lat="43.44116336315891" lon="13.117552762777787"><ele>471.0</ele><time>2026-04-25T10:53:18Z</time></trkpt><trkpt lat="43.44101579186786" lon="13.117611623627015"><ele>471.0</ele><time>2026-04-25T10:53:19Z</time></trkpt><trkpt lat="43.440870174194785" lon="13.11768216426647"><ele>471.0</ele><time>2026-04-25T10:53:20Z</time></trkpt><trkpt lat="43.44071830592561" lon="13.11774928951423"><ele>471.0</ele><time>2026-04-25T10:53:21Z</time></trkpt><trkpt lat="43.44057181209549" lon="13.117824438058394"><ele>471.0</ele><time>2026-04-25T10:53:22Z</time></trkpt><trkpt lat="43.44042277439346" lon="13.11790014183353"><ele>471.0</ele><time>2026-04-25T10:53:23Z</time></trkpt><trkpt lat="43.440271053463945" lon="13.117976805587137"><ele>468.33333333333337</ele><time>2026-04-25T10:53:24Z</time></trkpt><trkpt lat="43.44011929266167" lon="13.118061146597086"><ele>465.6666666666667</ele><time>2026-04-25T10:53:25Z</time></trkpt><trkpt lat="43.439961619213086" lon="13.118141320338104"><ele>463.0</ele><time>2026-04-25T10:53:26Z</time></trkpt><trkpt lat="43.439800385221304" lon="13.118224625050125"><ele>461.6666666666667</ele><time>2026-04-25T10:53:27Z</time></trkpt><trkpt lat="43.43963488635173" lon="13.118308754151796"><ele>460.33333333333337</ele><time>2026-04-25T10:53:28Z</time></trkpt><trkpt lat="43.43946840114307" lon="13.118397938600715"><ele>459.0</ele><time>2026-04-25T10:53:29Z</time></trkpt><trkpt lat="43.43930726671275" lon="13.118484910368776"><ele>459.0</ele><time>2026-04-25T10:53:30Z</time></trkpt><trkpt lat="43.43914855262965" lon="13.118566116768323"><ele>459.0</ele><time>2026-04-25T10:53:31Z</time></trkpt><trkpt lat="43.43900086067476" lon="13.118636790906177"><ele>459.0</ele><time>2026-04-25T10:53:32Z</time></trkpt><trkpt lat="43.43886531334337" lon="13.118693542972833"><ele>458.75</ele><time>2026-04-25T10:53:33Z</time></trkpt><trkpt lat="43.43874875905526" lon="13.118724404416547"><ele>458.5</ele><time>2026-04-25T10:53:34Z</time></trkpt><trkpt lat="43.43863787835357" lon="13.11871272423735"><ele>458.25</ele><time>2026-04-25T10:53:35Z</time></trkpt><trkpt lat="43.43853540582462" lon="13.118626743717723"><ele>458.0</ele><time>2026-04-25T10:53:36Z</time></trkpt><trkpt lat="43.438462726249334" lon="13.118494367572858"><ele>458.0</ele><time>2026-04-25T10:53:37Z</time></trkpt><trkpt lat="43.438416350686175" lon="13.11837398483794"><ele>457.99999999999994</ele><time>2026-04-25T10:53:38Z</time></trkpt><trkpt lat="43.43835059504653" lon="13.11830830357595"><ele>457.99999999999994</ele><time>2026-04-25T10:53:39Z</time></trkpt><trkpt lat="43.43825476543372" lon="13.118303822284952"><ele>458.0</ele><time>2026-04-25T10:53:40Z</time></trkpt><trkpt lat="43.438150908124875" lon="13.118351517328895"><ele>458.0</ele><time>2026-04-25T10:53:41Z</time></trkpt><trkpt lat="43.438054756286846" lon="13.118444728410342"><ele>458.0</ele><time>2026-04-25T10:53:42Z</time></trkpt><trkpt lat="43.43797091697068" lon="13.118553698159708"><ele>458.0</ele><time>2026-04-25T10:53:43Z</time></trkpt><trkpt lat="43.437896783033345" lon="13.118658791565329"><ele>458.0</ele><time>2026-04-25T10:53:44Z</time></trkpt><trkpt lat="43.43781807957109" lon="13.118773730644085"><ele>458.0</ele><time>2026-04-25T10:53:45Z</time></trkpt><trkpt lat="43.43774779156894" lon="13.118902874757211"><ele>456.25</ele><time>2026-04-25T10:53:46Z</time></trkpt><trkpt lat="43.43767100426067" lon="13.1190381168683"><ele>454.5</ele><time>2026-04-25T10:53:47Z</time></trkpt><trkpt lat="43.43759864364663" lon="13.119177129317825"><ele>452.75</ele><time>2026-04-25T10:53:48Z</time></trkpt><trkpt lat="43.43751052342421" lon="13.119305503650954"><ele>451.0</ele><time>2026-04-25T10:53:49Z</time></trkpt><trkpt lat="43.4374027594407" lon="13.119408135468392"><ele>451.0</ele><time>2026-04-25T10:53:50Z</time></trkpt><trkpt lat="43.43727522875151" lon="13.119492755659905"><ele>451.0</ele><time>2026-04-25T10:53:51Z</time></trkpt><trkpt lat="43.437152908448176" lon="13.119582569700077"><ele>451.0</ele><time>2026-04-25T10:53:52Z</time></trkpt><trkpt lat="43.437045492545124" lon="13.119718119474635"><ele>451.0</ele><time>2026-04-25T10:53:53Z</time></trkpt><trkpt lat="43.43696375968574" lon="13.119896400681137"><ele>445.33333333333337</ele><time>2026-04-25T10:53:54Z</time></trkpt><trkpt lat="43.43691707141413" lon="13.120120646775154"><ele>439.66666666666663</ele><time>2026-04-25T10:53:55Z</time></trkpt><trkpt lat="43.4368819733756" lon="13.120354147765445"><ele>434.0</ele><time>2026-04-25T10:53:56Z</time></trkpt><trkpt lat="43.43684742960493" lon="13.120587915550177"><ele>434.3333333333333</ele><time>2026-04-25T10:53:57Z</time></trkpt><trkpt lat="43.43679204029884" lon="13.120809418069097"><ele>434.66666666666663</ele><time>2026-04-25T10:53:58Z</time></trkpt><trkpt lat="43.43671483499348" lon="13.121020416302635"><ele>435.0</ele><time>2026-04-25T10:53:59Z</time></trkpt><trkpt lat="43.43660773461993" lon="13.12122670297974"><ele>435.0</ele><time>2026-04-25T10:54:00Z</time></trkpt><trkpt lat="43.43649498257208" lon="13.121434174496267"><ele>435.0</ele><time>2026-04-25T10:54:01Z</time></trkpt><trkpt lat="43.43637622015611" lon="13.121639323530887"><ele>435.0</ele><time>2026-04-25T10:54:02Z</time></trkpt><trkpt lat="43.43626261921743" lon="13.121857519187774"><ele>431.66666666666663</ele><time>2026-04-25T10:54:03Z</time></trkpt><trkpt lat="43.43615714847464" lon="13.12208943199838"><ele>428.3333333333333</ele><time>2026-04-25T10:54:04Z</time></trkpt><trkpt lat="43.436046456434255" lon="13.122321509383914"><ele>425.0</ele><time>2026-04-25T10:54:05Z</time></trkpt><trkpt lat="43.43594101404475" lon="13.122545235361537"><ele>425.0</ele><time>2026-04-25T10:54:06Z</time></trkpt><trkpt lat="43.435839893036814" lon="13.122768068605822"><ele>425.0</ele><time>2026-04-25T10:54:07Z</time></trkpt><trkpt lat="43.43573807129458" lon="13.122986037845484"><ele>425.0</ele><time>2026-04-25T10:54:08Z</time></trkpt><trkpt lat="43.435640107981754" lon="13.123195800356234"><ele>423.66666666666663</ele><time>2026-04-25T10:54:09Z</time></trkpt><trkpt lat="43.43554898282969" lon="13.123388390713147"><ele>422.33333333333337</ele><time>2026-04-25T10:54:10Z</time></trkpt><trkpt lat="43.435451305680665" lon="13.123564203184198"><ele>421.0</ele><time>2026-04-25T10:54:11Z</time></trkpt><trkpt lat="43.435327079410996" lon="13.123723280562889"><ele>421.0</ele><time>2026-04-25T10:54:12Z</time></trkpt><trkpt lat="43.435177272150966" lon="13.123868078520589"><ele>421.0</ele><time>2026-04-25T10:54:13Z</time></trkpt><trkpt lat="43.43486596900436" lon="13.124136882143803"><ele>423.0</ele><time>2026-04-25T10:54:15Z</time></trkpt><trkpt lat="43.4347228434731" lon="13.124262998701777"><ele>425.0</ele><time>2026-04-25T10:54:16Z</time></trkpt><trkpt lat="43.43458942603306" lon="13.124410563172997"><ele>427.0</ele><time>2026-04-25T10:54:17Z</time></trkpt><trkpt lat="43.43446430870327" lon="13.124601275498083"><ele>426.33333333333337</ele><time>2026-04-25T10:54:18Z</time></trkpt><trkpt lat="43.434341912749375" lon="13.124807227101547"><ele>425.66666666666663</ele><time>2026-04-25T10:54:19Z</time></trkpt><trkpt lat="43.434213915242054" lon="13.125018389406735"><ele>425.0</ele><time>2026-04-25T10:54:20Z</time></trkpt><trkpt lat="43.43408357637618" lon="13.125229848872257"><ele>425.0</ele><time>2026-04-25T10:54:21Z</time></trkpt><trkpt lat="43.43395052604261" lon="13.125446200426007"><ele>425.0</ele><time>2026-04-25T10:54:22Z</time></trkpt><trkpt lat="43.43381476421275" lon="13.125665844385844"><ele>425.0</ele><time>2026-04-25T10:54:23Z</time></trkpt><trkpt lat="43.433677261229825" lon="13.12588596225608"><ele>424.0</ele><time>2026-04-25T10:54:24Z</time></trkpt><trkpt lat="43.43354684644869" lon="13.126116406133443"><ele>423.0</ele><time>2026-04-25T10:54:25Z</time></trkpt><trkpt lat="43.433408788309784" lon="13.126341021347262"><ele>422.0</ele><time>2026-04-25T10:54:26Z</time></trkpt><trkpt lat="43.433268696421514" lon="13.126566924016146"><ele>422.0</ele><time>2026-04-25T10:54:27Z</time></trkpt><trkpt lat="43.43312985216096" lon="13.126790186270924"><ele>422.0</ele><time>2026-04-25T10:54:28Z</time></trkpt><trkpt lat="43.432993058733906" lon="13.127004312465665"><ele>422.0</ele><time>2026-04-25T10:54:29Z</time></trkpt><trkpt lat="43.43286292447964" lon="13.127203508275823"><ele>423.0</ele><time>2026-04-25T10:54:30Z</time></trkpt><trkpt lat="43.43273318808796" lon="13.127385104415525"><ele>424.0</ele><time>2026-04-25T10:54:31Z</time></trkpt><trkpt lat="43.43259616499264" lon="13.12755834399968"><ele>425.0</ele><time>2026-04-25T10:54:32Z</time></trkpt><trkpt lat="43.43244425211667" lon="13.12772781274881"><ele>425.0</ele><time>2026-04-25T10:54:33Z</time></trkpt><trkpt lat="43.43229144452214" lon="13.127908931158428"><ele>425.0</ele><time>2026-04-25T10:54:34Z</time></trkpt><trkpt lat="43.43213800693266" lon="13.128096976842816"><ele>425.0</ele><time>2026-04-25T10:54:35Z</time></trkpt><trkpt lat="43.43198198459139" lon="13.128292685646425"><ele>423.66666666666663</ele><time>2026-04-25T10:54:36Z</time></trkpt><trkpt lat="43.43183367846585" lon="13.128501783692757"><ele>422.33333333333337</ele><time>2026-04-25T10:54:37Z</time></trkpt><trkpt lat="43.43167857526308" lon="13.128699883531487"><ele>421.0</ele><time>2026-04-25T10:54:38Z</time></trkpt><trkpt lat="43.43151678915783" lon="13.128893191599094"><ele>421.33333333333337</ele><time>2026-04-25T10:54:39Z</time></trkpt><trkpt lat="43.431349095514435" lon="13.12907619261824"><ele>421.66666666666663</ele><time>2026-04-25T10:54:40Z</time></trkpt><trkpt lat="43.43117563295141" lon="13.129242714674112"><ele>422.0</ele><time>2026-04-25T10:54:41Z</time></trkpt><trkpt lat="43.430999401868156" lon="13.12939696714554"><ele>422.0</ele><time>2026-04-25T10:54:42Z</time></trkpt><trkpt lat="43.43082272987665" lon="13.129537909111827"><ele>422.0</ele><time>2026-04-25T10:54:43Z</time></trkpt><trkpt lat="43.43064476470888" lon="13.129675973941113"><ele>422.0</ele><time>2026-04-25T10:54:44Z</time></trkpt><trkpt lat="43.430464107768806" lon="13.12982213236436"><ele>424.3333333333333</ele><time>2026-04-25T10:54:45Z</time></trkpt><trkpt lat="43.43028572381934" lon="13.129979021953437"><ele>426.66666666666663</ele><time>2026-04-25T10:54:46Z</time></trkpt><trkpt lat="43.43010711913535" lon="13.130140798798243"><ele>429.0</ele><time>2026-04-25T10:54:47Z</time></trkpt><trkpt lat="43.42993380058155" lon="13.13029449387631"><ele>429.0</ele><time>2026-04-25T10:54:48Z</time></trkpt><trkpt lat="43.429769939130956" lon="13.130432631023076"><ele>429.0</ele><time>2026-04-25T10:54:49Z</time></trkpt><trkpt lat="43.42962289717994" lon="13.13057508765507"><ele>429.0</ele><time>2026-04-25T10:54:50Z</time></trkpt><trkpt lat="43.42949258631478" lon="13.130748150328031"><ele>431.0</ele><time>2026-04-25T10:54:51Z</time></trkpt><trkpt lat="43.42939555341358" lon="13.1309658790979"><ele>433.0</ele><time>2026-04-25T10:54:52Z</time></trkpt><trkpt lat="43.429306015335825" lon="13.131195145958735"><ele>435.0</ele><time>2026-04-25T10:54:53Z</time></trkpt><trkpt lat="43.429190786218456" lon="13.131408779926415"><ele>434.66666666666663</ele><time>2026-04-25T10:54:54Z</time></trkpt><trkpt lat="43.42905266126488" lon="13.131606882153093"><ele>434.3333333333333</ele><time>2026-04-25T10:54:55Z</time></trkpt><trkpt lat="43.42891413535946" lon="13.131801701465964"><ele>434.0</ele><time>2026-04-25T10:54:56Z</time></trkpt><trkpt lat="43.42877837787562" lon="13.131973448816918"><ele>434.0</ele><time>2026-04-25T10:54:57Z</time></trkpt><trkpt lat="43.42863397788104" lon="13.132117930674422"><ele>434.0</ele><time>2026-04-25T10:54:58Z</time></trkpt><trkpt lat="43.42849249915571" lon="13.132247943816882"><ele>434.0</ele><time>2026-04-25T10:54:59Z</time></trkpt><trkpt lat="43.428369592125385" lon="13.13239076303322"><ele>436.66666666666663</ele><time>2026-04-25T10:55:00Z</time></trkpt><trkpt lat="43.42827904693124" lon="13.132597338826692"><ele>439.33333333333337</ele><time>2026-04-25T10:55:01Z</time></trkpt><trkpt lat="43.42819101568226" lon="13.132811548149078"><ele>442.0</ele><time>2026-04-25T10:55:02Z</time></trkpt><trkpt lat="43.428113773792205" lon="13.133040992773235"><ele>442.33333333333337</ele><time>2026-04-25T10:55:03Z</time></trkpt><trkpt lat="43.428031999096866" lon="13.133272039499545"><ele>442.66666666666663</ele><time>2026-04-25T10:55:04Z</time></trkpt><trkpt lat="43.42794691964773" lon="13.133487442669203"><ele>443.0</ele><time>2026-04-25T10:55:05Z</time></trkpt><trkpt lat="43.427835389418384" lon="13.133650770953674"><ele>443.0</ele><time>2026-04-25T10:55:06Z</time></trkpt><trkpt lat="43.42770342643759" lon="13.133782953642491"><ele>443.0</ele><time>2026-04-25T10:55:07Z</time></trkpt><trkpt lat="43.42754704908429" lon="13.133856571459926"><ele>443.0</ele><time>2026-04-25T10:55:08Z</time></trkpt><trkpt lat="43.427374722609976" lon="13.13388550746815"><ele>443.0</ele><time>2026-04-25T10:55:09Z</time></trkpt><trkpt lat="43.42721077035887" lon="13.133858550150078"><ele>443.0</ele><time>2026-04-25T10:55:10Z</time></trkpt><trkpt lat="43.42706676641819" lon="13.133841770812884"><ele>443.0</ele><time>2026-04-25T10:55:11Z</time></trkpt><trkpt lat="43.42692933489829" lon="13.133893461937483"><ele>443.3333333333333</ele><time>2026-04-25T10:55:12Z</time></trkpt><trkpt lat="43.42680104362544" lon="13.13400299529028"><ele>443.66666666666663</ele><time>2026-04-25T10:55:13Z</time></trkpt><trkpt lat="43.42668875472929" lon="13.134164817316659"><ele>444.0</ele><time>2026-04-25T10:55:14Z</time></trkpt><trkpt lat="43.426577410628845" lon="13.134341400889754"><ele>447.0</ele><time>2026-04-25T10:55:15Z</time></trkpt><trkpt lat="43.426457999004036" lon="13.134510853335717"><ele>450.0</ele><time>2026-04-25T10:55:16Z</time></trkpt><trkpt lat="43.42631837000524" lon="13.134675043958072"><ele>453.0</ele><time>2026-04-25T10:55:17Z</time></trkpt><trkpt lat="43.42616082701882" lon="13.134809485858016"><ele>457.0</ele><time>2026-04-25T10:55:18Z</time></trkpt><trkpt lat="43.42599005951442" lon="13.134891228530662"><ele>461.0</ele><time>2026-04-25T10:55:19Z</time></trkpt><trkpt lat="43.42584369049977" lon="13.13497981141182"><ele>465.0</ele><time>2026-04-25T10:55:20Z</time></trkpt><trkpt lat="43.42572357329583" lon="13.135090698559983"><ele>465.0</ele><time>2026-04-25T10:55:21Z</time></trkpt><trkpt lat="43.42562704205963" lon="13.135232273272013"><ele>465.0</ele><time>2026-04-25T10:55:22Z</time></trkpt><trkpt lat="43.42556817506652" lon="13.135397287350076"><ele>465.0</ele><time>2026-04-25T10:55:23Z</time></trkpt><trkpt lat="43.425559276580714" lon="13.135599075434678"><ele>465.0</ele><time>2026-04-25T10:55:24Z</time></trkpt><trkpt lat="43.425543950517756" lon="13.135810884712106"><ele>464.75</ele><time>2026-04-25T10:55:25Z</time></trkpt><trkpt lat="43.42554325878254" lon="13.13602430857846"><ele>464.5</ele><time>2026-04-25T10:55:26Z</time></trkpt><trkpt lat="43.42553418507844" lon="13.136210849639115"><ele>464.25</ele><time>2026-04-25T10:55:27Z</time></trkpt><trkpt lat="43.4254983989036" lon="13.136348600798437"><ele>464.0</ele><time>2026-04-25T10:55:28Z</time></trkpt><trkpt lat="43.42542231717365" lon="13.136447947381305"><ele>464.0</ele><time>2026-04-25T10:55:29Z</time></trkpt><trkpt lat="43.425291826666054" lon="13.136493666070512"><ele>464.0</ele><time>2026-04-25T10:55:30Z</time></trkpt><trkpt lat="43.42515250551731" lon="13.136506917994568"><ele>464.0</ele><time>2026-04-25T10:55:31Z</time></trkpt><trkpt lat="43.42500642511754" lon="13.136511755983447"><ele>464.0</ele><time>2026-04-25T10:55:32Z</time></trkpt><trkpt lat="43.424849057020026" lon="13.13651930622979"><ele>464.0</ele><time>2026-04-25T10:55:33Z</time></trkpt><trkpt lat="43.42468627287962" lon="13.13653473633612"><ele>464.0</ele><time>2026-04-25T10:55:34Z</time></trkpt><trkpt lat="43.42452020540929" lon="13.136550909600636"><ele>464.0</ele><time>2026-04-25T10:55:35Z</time></trkpt><trkpt lat="43.42434728621428" lon="13.136569011684138"><ele>469.66666666666663</ele><time>2026-04-25T10:55:36Z</time></trkpt><trkpt lat="43.424174466943576" lon="13.136609507060045"><ele>475.33333333333337</ele><time>2026-04-25T10:55:37Z</time></trkpt><trkpt lat="43.42401355672934" lon="13.136687582612632"><ele>481.0</ele><time>2026-04-25T10:55:38Z</time></trkpt><trkpt lat="43.423874145420456" lon="13.136833632285585"><ele>479.0</ele><time>2026-04-25T10:55:39Z</time></trkpt><trkpt lat="43.42373358822947" lon="13.136989484698162"><ele>477.0</ele><time>2026-04-25T10:55:40Z</time></trkpt><trkpt lat="43.423586915231404" lon="13.13713302293915"><ele>475.0</ele><time>2026-04-25T10:55:41Z</time></trkpt><trkpt lat="43.42346081741559" lon="13.137264725519202"><ele>475.0</ele><time>2026-04-25T10:55:42Z</time></trkpt><trkpt lat="43.42335076624455" lon="13.137385211559147"><ele>475.0</ele><time>2026-04-25T10:55:43Z</time></trkpt><trkpt lat="43.42325230933311" lon="13.137538575323337"><ele>475.0</ele><time>2026-04-25T10:55:44Z</time></trkpt><trkpt lat="43.423166965450115" lon="13.137711920516487"><ele>475.0</ele><time>2026-04-25T10:55:45Z</time></trkpt><trkpt lat="43.42309031630127" lon="13.137896028825105"><ele>480.0</ele><time>2026-04-25T10:55:46Z</time></trkpt><trkpt lat="43.42300063865498" lon="13.138100719195236"><ele>485.0</ele><time>2026-04-25T10:55:47Z</time></trkpt><trkpt lat="43.422918437689034" lon="13.13829879595547"><ele>490.0</ele><time>2026-04-25T10:55:48Z</time></trkpt><trkpt lat="43.422832545319736" lon="13.138510318463512"><ele>490.0</ele><time>2026-04-25T10:55:49Z</time></trkpt><trkpt lat="43.4227438546515" lon="13.138715529722313"><ele>490.0</ele><time>2026-04-25T10:55:50Z</time></trkpt><trkpt lat="43.42262852937708" lon="13.138886524281869"><ele>490.0</ele><time>2026-04-25T10:55:51Z</time></trkpt><trkpt lat="43.42250668409571" lon="13.139059251593157"><ele>491.0</ele><time>2026-04-25T10:55:52Z</time></trkpt><trkpt lat="43.422363725663345" lon="13.13920383764939"><ele>492.0</ele><time>2026-04-25T10:55:53Z</time></trkpt><trkpt lat="43.42222671488905" lon="13.139349531338212"><ele>493.0</ele><time>2026-04-25T10:55:54Z</time></trkpt><trkpt lat="43.42211338665753" lon="13.139523259303278"><ele>493.0</ele><time>2026-04-25T10:55:55Z</time></trkpt><trkpt lat="43.42203900495692" lon="13.13970766109327"><ele>493.0</ele><time>2026-04-25T10:55:56Z</time></trkpt><trkpt lat="43.42200466370667" lon="13.139899783909298"><ele>493.0</ele><time>2026-04-25T10:55:57Z</time></trkpt><trkpt lat="43.422014105586044" lon="13.140116046783989"><ele>495.33333333333337</ele><time>2026-04-25T10:55:58Z</time></trkpt><trkpt lat="43.42202889085335" lon="13.140331835637799"><ele>497.66666666666663</ele><time>2026-04-25T10:55:59Z</time></trkpt><trkpt lat="43.42202820912895" lon="13.140570673348844"><ele>500.0</ele><time>2026-04-25T10:56:00Z</time></trkpt><trkpt lat="43.42202463065536" lon="13.14080180503905"><ele>502.0</ele><time>2026-04-25T10:56:01Z</time></trkpt><trkpt lat="43.421957232207056" lon="13.141015766484486"><ele>504.0</ele><time>2026-04-25T10:56:02Z</time></trkpt><trkpt lat="43.42185419654182" lon="13.141201541721019"><ele>506.0</ele><time>2026-04-25T10:56:03Z</time></trkpt><trkpt lat="43.42175114084294" lon="13.141403047178082"><ele>509.0</ele><time>2026-04-25T10:56:04Z</time></trkpt><trkpt lat="43.4216429146884" lon="13.141606252230185"><ele>512.0</ele><time>2026-04-25T10:56:05Z</time></trkpt><trkpt lat="43.421503719963326" lon="13.141776415291197"><ele>515.0</ele><time>2026-04-25T10:56:06Z</time></trkpt><trkpt lat="43.42133890381056" lon="13.141903810588527"><ele>514.6666666666666</ele><time>2026-04-25T10:56:07Z</time></trkpt><trkpt lat="43.42115548574949" lon="13.141979141044908"><ele>514.3333333333334</ele><time>2026-04-25T10:56:08Z</time></trkpt><trkpt lat="43.42098965219108" lon="13.142093653261666"><ele>514.0</ele><time>2026-04-25T10:56:09Z</time></trkpt><trkpt lat="43.420828302981604" lon="13.142227704186134"><ele>514.6666666666667</ele><time>2026-04-25T10:56:10Z</time></trkpt><trkpt lat="43.4206916249175" lon="13.142411867839929"><ele>515.3333333333334</ele><time>2026-04-25T10:56:11Z</time></trkpt><trkpt lat="43.42055868150299" lon="13.142600489567796"><ele>516.0</ele><time>2026-04-25T10:56:12Z</time></trkpt><trkpt lat="43.42041570759798" lon="13.142792958643703"><ele>516.0</ele><time>2026-04-25T10:56:13Z</time></trkpt><trkpt lat="43.42031531767589" lon="13.14297415647227"><ele>516.0</ele><time>2026-04-25T10:56:14Z</time></trkpt><trkpt lat="43.42022709113192" lon="13.143176640059071"><ele>516.0</ele><time>2026-04-25T10:56:15Z</time></trkpt><trkpt lat="43.420151897645084" lon="13.14337004048944"><ele>520.3333333333334</ele><time>2026-04-25T10:56:16Z</time></trkpt><trkpt lat="43.4200999630846" lon="13.14355600386988"><ele>524.6666666666667</ele><time>2026-04-25T10:56:17Z</time></trkpt><trkpt lat="43.42000597570395" lon="13.14371366611423"><ele>529.0</ele><time>2026-04-25T10:56:18Z</time></trkpt><trkpt lat="43.41987587763541" lon="13.143848690939116"><ele>529.0</ele><time>2026-04-25T10:56:19Z</time></trkpt><trkpt lat="43.41973095612847" lon="13.143879107918409"><ele>529.0</ele><time>2026-04-25T10:56:20Z</time></trkpt><trkpt lat="43.41958226957653" lon="13.14389517028056"><ele>529.0</ele><time>2026-04-25T10:56:21Z</time></trkpt><trkpt lat="43.41938672888327" lon="13.143855492741512"><ele>527.6666666666667</ele><time>2026-04-25T10:56:23Z</time></trkpt><trkpt lat="43.41918644675323" lon="13.143837578851402"><ele>526.3333333333334</ele><time>2026-04-25T10:56:24Z</time></trkpt><trkpt lat="43.41898726337557" lon="13.1437779706807"><ele>525.0</ele><time>2026-04-25T10:56:25Z</time></trkpt><trkpt lat="43.418790125895164" lon="13.143691378897133"><ele>524.6666666666666</ele><time>2026-04-25T10:56:26Z</time></trkpt><trkpt lat="43.418660816993686" lon="13.143599737318983"><ele>524.3333333333333</ele><time>2026-04-25T10:56:27Z</time></trkpt><trkpt lat="43.41853561015297" lon="13.143591456128547"><ele>524.0</ele><time>2026-04-25T10:56:28Z</time></trkpt><trkpt lat="43.418349171787646" lon="13.143585052798942"><ele>524.0</ele><time>2026-04-25T10:56:29Z</time></trkpt><trkpt lat="43.41819420855853" lon="13.1436069159065"><ele>524.0</ele><time>2026-04-25T10:56:30Z</time></trkpt><trkpt lat="43.418074041881425" lon="13.143714323643147"><ele>524.0</ele><time>2026-04-25T10:56:31Z</time></trkpt><trkpt lat="43.417880821205486" lon="13.143841864074998"><ele>524.0</ele><time>2026-04-25T10:56:32Z</time></trkpt><trkpt lat="43.41777352704932" lon="13.1439602471622"><ele>524.0</ele><time>2026-04-25T10:56:33Z</time></trkpt><trkpt lat="43.417662658071194" lon="13.144129447308538"><ele>524.0</ele><time>2026-04-25T10:56:34Z</time></trkpt><trkpt lat="43.41754496820105" lon="13.144356028529685"><ele>524.0</ele><time>2026-04-25T10:56:35Z</time></trkpt><trkpt lat="43.41744132035327" lon="13.144583934027054"><ele>524.0</ele><time>2026-04-25T10:56:36Z</time></trkpt><trkpt lat="43.41733880564248" lon="13.144783300756659"><ele>524.0</ele><time>2026-04-25T10:56:37Z</time></trkpt><trkpt lat="43.41723618721319" lon="13.144979637464308"><ele>522.75</ele><time>2026-04-25T10:56:38Z</time></trkpt><trkpt lat="43.41713550026052" lon="13.145152814497733"><ele>521.5</ele><time>2026-04-25T10:56:39Z</time></trkpt><trkpt lat="43.417043903956106" lon="13.14528963336134"><ele>520.25</ele><time>2026-04-25T10:56:40Z</time></trkpt><trkpt lat="43.416970703917706" lon="13.145371787707107"><ele>519.0</ele><time>2026-04-25T10:56:41Z</time></trkpt><trkpt lat="43.416907683476815" lon="13.145404623233748"><ele>519.0</ele><time>2026-04-25T10:56:42Z</time></trkpt><trkpt lat="43.41686126644154" lon="13.145490841700889"><ele>519.0</ele><time>2026-04-25T10:56:43Z</time></trkpt><trkpt lat="43.41683887513749" lon="13.145690269379608"><ele>519.0</ele><time>2026-04-25T10:56:45Z</time></trkpt><trkpt lat="43.41686131503351" lon="13.145850561152564"><ele>519.0</ele><time>2026-04-25T10:56:46Z</time></trkpt><trkpt lat="43.41686708502722" lon="13.146030651978052"><ele>518.75</ele><time>2026-04-25T10:56:47Z</time></trkpt><trkpt lat="43.41685200093888" lon="13.146224326152492"><ele>518.5</ele><time>2026-04-25T10:56:48Z</time></trkpt><trkpt lat="43.41684434011973" lon="13.146430639921043"><ele>518.25</ele><time>2026-04-25T10:56:49Z</time></trkpt><trkpt lat="43.416820293024834" lon="13.146621070222015"><ele>518.0</ele><time>2026-04-25T10:56:50Z</time></trkpt><trkpt lat="43.41673821197356" lon="13.146792475537012"><ele>516.6666666666666</ele><time>2026-04-25T10:56:51Z</time></trkpt><trkpt lat="43.41667876077341" lon="13.146992615351351"><ele>515.3333333333334</ele><time>2026-04-25T10:56:52Z</time></trkpt><trkpt lat="43.416622581843455" lon="13.147179085599937"><ele>514.0</ele><time>2026-04-25T10:56:53Z</time></trkpt><trkpt lat="43.416606651353625" lon="13.147378966878595"><ele>513.3333333333334</ele><time>2026-04-25T10:56:54Z</time></trkpt><trkpt lat="43.41661906661628" lon="13.147592902140879"><ele>512.6666666666666</ele><time>2026-04-25T10:56:55Z</time></trkpt><trkpt lat="43.41667197929434" lon="13.147808379050774"><ele>512.0</ele><time>2026-04-25T10:56:56Z</time></trkpt><trkpt lat="43.41674493299778" lon="13.14800188595231"><ele>512.0</ele><time>2026-04-25T10:56:57Z</time></trkpt><trkpt lat="43.41684423784118" lon="13.148155587451436"><ele>512.0</ele><time>2026-04-25T10:56:58Z</time></trkpt><trkpt lat="43.4169173188194" lon="13.148314459838275"><ele>512.0</ele><time>2026-04-25T10:56:59Z</time></trkpt><trkpt lat="43.41693881981098" lon="13.148498700259323"><ele>512.0</ele><time>2026-04-25T10:57:00Z</time></trkpt><trkpt lat="43.416922079734135" lon="13.1486940986817"><ele>509.0</ele><time>2026-04-25T10:57:01Z</time></trkpt><trkpt lat="43.41689158149807" lon="13.148919928682677"><ele>506.0</ele><time>2026-04-25T10:57:02Z</time></trkpt><trkpt lat="43.416839358449295" lon="13.149153844813545"><ele>503.0</ele><time>2026-04-25T10:57:03Z</time></trkpt><trkpt lat="43.4168055720058" lon="13.149404196060825"><ele>500.66666666666663</ele><time>2026-04-25T10:57:04Z</time></trkpt><trkpt lat="43.416781519955705" lon="13.149656719524117"><ele>498.33333333333337</ele><time>2026-04-25T10:57:05Z</time></trkpt><trkpt lat="43.416749829479585" lon="13.149887758524992"><ele>496.0</ele><time>2026-04-25T10:57:06Z</time></trkpt><trkpt lat="43.41670460969384" lon="13.150090759302856"><ele>495.5</ele><time>2026-04-25T10:57:07Z</time></trkpt><trkpt lat="43.416667657942924" lon="13.15027946621254"><ele>495.0</ele><time>2026-04-25T10:57:08Z</time></trkpt><trkpt lat="43.41669581922971" lon="13.1504531069575"><ele>494.5</ele><time>2026-04-25T10:57:09Z</time></trkpt><trkpt lat="43.416732393342144" lon="13.15063044256304"><ele>494.0</ele><time>2026-04-25T10:57:10Z</time></trkpt><trkpt lat="43.416746104013264" lon="13.150798086543114"><ele>492.5</ele><time>2026-04-25T10:57:11Z</time></trkpt><trkpt lat="43.41670803792826" lon="13.150989268252733"><ele>491.0</ele><time>2026-04-25T10:57:12Z</time></trkpt><trkpt lat="43.416672336917934" lon="13.151189536757496"><ele>489.5</ele><time>2026-04-25T10:57:13Z</time></trkpt><trkpt lat="43.41664074841407" lon="13.151366423150082"><ele>488.0</ele><time>2026-04-25T10:57:14Z</time></trkpt><trkpt lat="43.4166658995852" lon="13.151518360632963"><ele>488.0</ele><time>2026-04-25T10:57:15Z</time></trkpt><trkpt lat="43.41672895652609" lon="13.151622347613971"><ele>488.0</ele><time>2026-04-25T10:57:16Z</time></trkpt><trkpt lat="43.41682373756172" lon="13.151654120447532"><ele>488.0</ele><time>2026-04-25T10:57:17Z</time></trkpt><trkpt lat="43.41693998668655" lon="13.151627032840281"><ele>488.0</ele><time>2026-04-25T10:57:18Z</time></trkpt><trkpt lat="43.417071697584845" lon="13.151512624124425"><ele>492.3333333333333</ele><time>2026-04-25T10:57:19Z</time></trkpt><trkpt lat="43.417204454638544" lon="13.15142090789953"><ele>496.66666666666663</ele><time>2026-04-25T10:57:20Z</time></trkpt><trkpt lat="43.41735958507132" lon="13.151391572809676"><ele>501.0</ele><time>2026-04-25T10:57:21Z</time></trkpt><trkpt lat="43.417523414061435" lon="13.151403844660791"><ele>501.0</ele><time>2026-04-25T10:57:22Z</time></trkpt><trkpt lat="43.417696668249995" lon="13.15142742713382"><ele>501.0</ele><time>2026-04-25T10:57:23Z</time></trkpt><trkpt lat="43.41787206313578" lon="13.151465575020767"><ele>501.0</ele><time>2026-04-25T10:57:24Z</time></trkpt><trkpt lat="43.4180402135312" lon="13.151511486754"><ele>494.25</ele><time>2026-04-25T10:57:25Z</time></trkpt><trkpt lat="43.41819156975914" lon="13.151543390383281"><ele>487.5</ele><time>2026-04-25T10:57:26Z</time></trkpt><trkpt lat="43.41833154218557" lon="13.151583851213926"><ele>480.75</ele><time>2026-04-25T10:57:27Z</time></trkpt><trkpt lat="43.41846679207006" lon="13.151652891719618"><ele>474.0</ele><time>2026-04-25T10:57:28Z</time></trkpt><trkpt lat="43.41859388814415" lon="13.151753866262899"><ele>474.0</ele><time>2026-04-25T10:57:29Z</time></trkpt><trkpt lat="43.418715038852994" lon="13.151870359117527"><ele>474.0</ele><time>2026-04-25T10:57:30Z</time></trkpt><trkpt lat="43.418828066226396" lon="13.151987679462302"><ele>474.0</ele><time>2026-04-25T10:57:31Z</time></trkpt><trkpt lat="43.418930332633565" lon="13.152123628666555"><ele>474.0</ele><time>2026-04-25T10:57:32Z</time></trkpt><trkpt lat="43.41901030152421" lon="13.152304427023251"><ele>470.33333333333337</ele><time>2026-04-25T10:57:33Z</time></trkpt><trkpt lat="43.419081276143274" lon="13.152512490657507"><ele>466.6666666666667</ele><time>2026-04-25T10:57:34Z</time></trkpt><trkpt lat="43.41915458392497" lon="13.152747745870162"><ele>463.0</ele><time>2026-04-25T10:57:35Z</time></trkpt><trkpt lat="43.41921718465375" lon="13.152965831468842"><ele>459.6666666666667</ele><time>2026-04-25T10:57:36Z</time></trkpt><trkpt lat="43.41928375016069" lon="13.153226241713659"><ele>456.33333333333337</ele><time>2026-04-25T10:57:37Z</time></trkpt><trkpt lat="43.41934564589246" lon="13.153477392145325"><ele>453.0</ele><time>2026-04-25T10:57:38Z</time></trkpt><trkpt lat="43.41940608472867" lon="13.15371149832755"><ele>453.0</ele><time>2026-04-25T10:57:39Z</time></trkpt><trkpt lat="43.419455099061324" lon="13.15393223724061"><ele>453.0</ele><time>2026-04-25T10:57:40Z</time></trkpt><trkpt lat="43.419501985978115" lon="13.154112073969445"><ele>453.0</ele><time>2026-04-25T10:57:41Z</time></trkpt><trkpt lat="43.419572935427574" lon="13.154256984738605"><ele>453.0</ele><time>2026-04-25T10:57:42Z</time></trkpt><trkpt lat="43.419673158022974" lon="13.154354352521494"><ele>451.75</ele><time>2026-04-25T10:57:43Z</time></trkpt><trkpt lat="43.41980256073798" lon="13.154390048909262"><ele>450.5</ele><time>2026-04-25T10:57:44Z</time></trkpt><trkpt lat="43.419953751854976" lon="13.15438056313282"><ele>449.25</ele><time>2026-04-25T10:57:45Z</time></trkpt><trkpt lat="43.42010801943491" lon="13.154402674600963"><ele>448.0</ele><time>2026-04-25T10:57:46Z</time></trkpt><trkpt lat="43.42027000649975" lon="13.154416853060775"><ele>448.0</ele><time>2026-04-25T10:57:47Z</time></trkpt><trkpt lat="43.42042467963103" lon="13.154430758229609"><ele>448.0</ele><time>2026-04-25T10:57:48Z</time></trkpt><trkpt lat="43.420535885232574" lon="13.154478637537393"><ele>448.0</ele><time>2026-04-25T10:57:49Z</time></trkpt><trkpt lat="43.42060677608257" lon="13.154578176966583"><ele>448.0</ele><time>2026-04-25T10:57:50Z</time></trkpt><trkpt lat="43.420632068692" lon="13.154712018072566"><ele>444.2</ele><time>2026-04-25T10:57:51Z</time></trkpt><trkpt lat="43.42060408628886" lon="13.154888403578049"><ele>440.4</ele><time>2026-04-25T10:57:52Z</time></trkpt><trkpt lat="43.420537375570035" lon="13.155050966820724"><ele>436.59999999999997</ele><time>2026-04-25T10:57:53Z</time></trkpt><trkpt lat="43.42049210648293" lon="13.155155792270062"><ele>432.79999999999995</ele><time>2026-04-25T10:57:54Z</time></trkpt><trkpt lat="43.42050103283808" lon="13.155260902306118"><ele>429.0</ele><time>2026-04-25T10:57:55Z</time></trkpt><trkpt lat="43.420566982987516" lon="13.155346268562376"><ele>429.0</ele><time>2026-04-25T10:57:56Z</time></trkpt><trkpt lat="43.420664587920754" lon="13.155373324918068"><ele>429.0</ele><time>2026-04-25T10:57:57.001Z</time></trkpt><trkpt lat="43.42076432545457" lon="13.155309259376914"><ele>429.0</ele><time>2026-04-25T10:57:58.001Z</time></trkpt><trkpt lat="43.420836071795435" lon="13.155179901997792"><ele>429.0</ele><time>2026-04-25T10:57:59.001Z</time></trkpt><trkpt lat="43.42086375914269" lon="13.155034288629553"><ele>429.0</ele><time>2026-04-25T10:58:00.001Z</time></trkpt><trkpt lat="43.420873958681426" lon="13.154933644640066"><ele>429.0</ele><time>2026-04-25T10:58:01.001Z</time></trkpt><trkpt lat="43.42096497658198" lon="13.15483964990214"><ele>429.0</ele><time>2026-04-25T10:58:03.001Z</time></trkpt><trkpt lat="43.42109088781348" lon="13.155178824763993"><ele>429.0</ele><time>2026-04-25T10:58:04.001Z</time></trkpt><trkpt lat="43.42094723527071" lon="13.155347097860266"><ele>429.0</ele><time>2026-04-25T10:58:05.001Z</time></trkpt><trkpt lat="43.42088677296673" lon="13.155497263179608"><ele>429.0</ele><time>2026-04-25T10:58:06.001Z</time></trkpt><trkpt lat="43.42086343792133" lon="13.155664047338774"><ele>429.0</ele><time>2026-04-25T10:58:07.001Z</time></trkpt><trkpt lat="43.42086952509783" lon="13.155850908118769"><ele>429.0</ele><time>2026-04-25T10:58:08.001Z</time></trkpt><trkpt lat="43.42086924714838" lon="13.156050449950744"><ele>426.75</ele><time>2026-04-25T10:58:09.001Z</time></trkpt><trkpt lat="43.42084473729124" lon="13.156257782472139"><ele>424.5</ele><time>2026-04-25T10:58:10.001Z</time></trkpt><trkpt lat="43.42080700643851" lon="13.156454088759155"><ele>422.25</ele><time>2026-04-25T10:58:11.001Z</time></trkpt><trkpt lat="43.420771407703796" lon="13.156631669647723"><ele>420.0</ele><time>2026-04-25T10:58:12.001Z</time></trkpt><trkpt lat="43.42073923234784" lon="13.156784763383243"><ele>419.0</ele><time>2026-04-25T10:58:13.001Z</time></trkpt><trkpt lat="43.42067988093673" lon="13.15691849536782"><ele>418.0</ele><time>2026-04-25T10:58:14.001Z</time></trkpt><trkpt lat="43.42057976961109" lon="13.157032564705798"><ele>417.0</ele><time>2026-04-25T10:58:15.001Z</time></trkpt><trkpt lat="43.420450490184365" lon="13.157142365465008"><ele>416.0</ele><time>2026-04-25T10:58:16.001Z</time></trkpt><trkpt lat="43.42031148343742" lon="13.157251099320588"><ele>414.25</ele><time>2026-04-25T10:58:17.001Z</time></trkpt><trkpt lat="43.420175037645635" lon="13.157363826029746"><ele>412.5</ele><time>2026-04-25T10:58:18.001Z</time></trkpt><trkpt lat="43.420056386742544" lon="13.157488600119914"><ele>410.75</ele><time>2026-04-25T10:58:19.001Z</time></trkpt><trkpt lat="43.419969183363584" lon="13.157640635794648"><ele>409.0</ele><time>2026-04-25T10:58:20.001Z</time></trkpt><trkpt lat="43.41992927404103" lon="13.157838146033729"><ele>408.33333333333337</ele><time>2026-04-25T10:58:21.001Z</time></trkpt><trkpt lat="43.419938859584" lon="13.15807394214355"><ele>407.66666666666663</ele><time>2026-04-25T10:58:22.001Z</time></trkpt><trkpt lat="43.41998529945173" lon="13.158315832340072"><ele>407.0</ele><time>2026-04-25T10:58:23.001Z</time></trkpt><trkpt lat="43.42004599265003" lon="13.1585621190429"><ele>404.0</ele><time>2026-04-25T10:58:24.001Z</time></trkpt><trkpt lat="43.420107396112236" lon="13.158793831292073"><ele>401.0</ele><time>2026-04-25T10:58:25.001Z</time></trkpt><trkpt lat="43.42019483831806" lon="13.159000628526213"><ele>398.0</ele><time>2026-04-25T10:58:26.001Z</time></trkpt><trkpt lat="43.42030881803159" lon="13.159185090627066"><ele>395.66666666666663</ele><time>2026-04-25T10:58:27.001Z</time></trkpt><trkpt lat="43.42043818732008" lon="13.159354789988946"><ele>393.33333333333337</ele><time>2026-04-25T10:58:28.001Z</time></trkpt><trkpt lat="43.42058025256767" lon="13.159478233693042"><ele>391.0</ele><time>2026-04-25T10:58:29.001Z</time></trkpt><trkpt lat="43.420720363540646" lon="13.159624058075082"><ele>391.0</ele><time>2026-04-25T10:58:30.001Z</time></trkpt><trkpt lat="43.420858765588946" lon="13.159785802838146"><ele>391.0</ele><time>2026-04-25T10:58:31.001Z</time></trkpt><trkpt lat="43.42097737111058" lon="13.159977725382962"><ele>391.0</ele><time>2026-04-25T10:58:32.001Z</time></trkpt><trkpt lat="43.4210732188653" lon="13.160195199156803"><ele>391.0</ele><time>2026-04-25T10:58:33.001Z</time></trkpt><trkpt lat="43.421158873233736" lon="13.160427174068845"><ele>391.0</ele><time>2026-04-25T10:58:34.001Z</time></trkpt><trkpt lat="43.421240833395444" lon="13.160666773974294"><ele>391.0</ele><time>2026-04-25T10:58:35.001Z</time></trkpt><trkpt lat="43.42132117545552" lon="13.160914737077416"><ele>388.0</ele><time>2026-04-25T10:58:36.001Z</time></trkpt><trkpt lat="43.42139607342091" lon="13.16117324951446"><ele>385.0</ele><time>2026-04-25T10:58:37.001Z</time></trkpt><trkpt lat="43.421468631473154" lon="13.161425483984958"><ele>382.0</ele><time>2026-04-25T10:58:38.001Z</time></trkpt><trkpt lat="43.42154146589277" lon="13.161667327051129"><ele>382.0</ele><time>2026-04-25T10:58:39.001Z</time></trkpt><trkpt lat="43.42161312182838" lon="13.161906750541812"><ele>382.0</ele><time>2026-04-25T10:58:40Z</time></trkpt><trkpt lat="43.421684883709354" lon="13.162150832224226"><ele>382.0</ele><time>2026-04-25T10:58:41Z</time></trkpt><trkpt lat="43.42175996365984" lon="13.162393080935379"><ele>382.66666666666663</ele><time>2026-04-25T10:58:42Z</time></trkpt><trkpt lat="43.421831240825895" lon="13.162632670536324"><ele>383.3333333333333</ele><time>2026-04-25T10:58:43Z</time></trkpt><trkpt lat="43.421882126379224" lon="13.162883522153084"><ele>384.0</ele><time>2026-04-25T10:58:44Z</time></trkpt><trkpt lat="43.421912905586666" lon="13.163138722842097"><ele>382.0</ele><time>2026-04-25T10:58:45Z</time></trkpt><trkpt lat="43.421916620474256" lon="13.163396225067444"><ele>380.0</ele><time>2026-04-25T10:58:46Z</time></trkpt><trkpt lat="43.42189029717829" lon="13.16366039496734"><ele>378.0</ele><time>2026-04-25T10:58:47Z</time></trkpt><trkpt lat="43.42184363819323" lon="13.163929844965192"><ele>375.6666666666667</ele><time>2026-04-25T10:58:48Z</time></trkpt><trkpt lat="43.42180274785177" lon="13.164207020293242"><ele>373.33333333333337</ele><time>2026-04-25T10:58:49Z</time></trkpt><trkpt lat="43.42178105130885" lon="13.164490385185223"><ele>371.0</ele><time>2026-04-25T10:58:50Z</time></trkpt><trkpt lat="43.421782049821864" lon="13.164774498556323"><ele>370.33333333333337</ele><time>2026-04-25T10:58:51Z</time></trkpt><trkpt lat="43.421792000130516" lon="13.165062239157654"><ele>369.6666666666667</ele><time>2026-04-25T10:58:52Z</time></trkpt><trkpt lat="43.42180625757084" lon="13.165349613559734"><ele>369.0</ele><time>2026-04-25T10:58:53Z</time></trkpt><trkpt lat="43.421829246167334" lon="13.16563582693709"><ele>370.0</ele><time>2026-04-25T10:58:54Z</time></trkpt><trkpt lat="43.421863192851475" lon="13.165913477977815"><ele>371.0</ele><time>2026-04-25T10:58:55Z</time></trkpt><trkpt lat="43.4219025817849" lon="13.166190867054423"><ele>372.0</ele><time>2026-04-25T10:58:56Z</time></trkpt><trkpt lat="43.421951452272054" lon="13.166456627807628"><ele>372.0</ele><time>2026-04-25T10:58:57Z</time></trkpt><trkpt lat="43.422007514969025" lon="13.166719265784023"><ele>372.0</ele><time>2026-04-25T10:58:58Z</time></trkpt><trkpt lat="43.42207185535443" lon="13.166973857363528"><ele>372.0</ele><time>2026-04-25T10:58:59Z</time></trkpt><trkpt lat="43.4221402308896" lon="13.167225875372639"><ele>371.0</ele><time>2026-04-25T10:59:00Z</time></trkpt><trkpt lat="43.42222473220292" lon="13.167472676017859"><ele>370.0</ele><time>2026-04-25T10:59:01Z</time></trkpt><trkpt lat="43.42232595284986" lon="13.167704439989391"><ele>369.0</ele><time>2026-04-25T10:59:02Z</time></trkpt><trkpt lat="43.42244939634184" lon="13.16791649981349"><ele>369.0</ele><time>2026-04-25T10:59:03Z</time></trkpt><trkpt lat="43.422563626916514" lon="13.168118300163208"><ele>369.0</ele><time>2026-04-25T10:59:04Z</time></trkpt><trkpt lat="43.422677047489024" lon="13.168313374304635"><ele>369.0</ele><time>2026-04-25T10:59:05Z</time></trkpt><trkpt lat="43.422808649321304" lon="13.168503217153292"><ele>369.3333333333333</ele><time>2026-04-25T10:59:06Z</time></trkpt><trkpt lat="43.422977081642706" lon="13.168663341019943"><ele>369.66666666666663</ele><time>2026-04-25T10:59:07Z</time></trkpt><trkpt lat="43.42315891236457" lon="13.168817349377836"><ele>370.0</ele><time>2026-04-25T10:59:08Z</time></trkpt><trkpt lat="43.423346474741315" lon="13.168982743974425"><ele>368.3333333333333</ele><time>2026-04-25T10:59:09Z</time></trkpt><trkpt lat="43.42352453854033" lon="13.169155524501392"><ele>366.6666666666667</ele><time>2026-04-25T10:59:10Z</time></trkpt><trkpt lat="43.4236880856033" lon="13.169314903152067"><ele>365.0</ele><time>2026-04-25T10:59:11Z</time></trkpt><trkpt lat="43.42383353763629" lon="13.169464641052821"><ele>365.0</ele><time>2026-04-25T10:59:12Z</time></trkpt><trkpt lat="43.42397355517269" lon="13.169641334097077"><ele>365.0</ele><time>2026-04-25T10:59:13Z</time></trkpt><trkpt lat="43.42411266570606" lon="13.169856560176196"><ele>365.0</ele><time>2026-04-25T10:59:14Z</time></trkpt><trkpt lat="43.42425433556436" lon="13.170098224824992"><ele>362.5</ele><time>2026-04-25T10:59:15Z</time></trkpt><trkpt lat="43.424392677601496" lon="13.170356296704728"><ele>360.0</ele><time>2026-04-25T10:59:16Z</time></trkpt><trkpt lat="43.424529389719396" lon="13.170617463293745"><ele>355.5</ele><time>2026-04-25T10:59:17Z</time></trkpt><trkpt lat="43.42465928216712" lon="13.170894792439428"><ele>351.0</ele><time>2026-04-25T10:59:18Z</time></trkpt><trkpt lat="43.42479227051954" lon="13.171163934715198"><ele>351.0</ele><time>2026-04-25T10:59:19Z</time></trkpt><trkpt lat="43.424924845296" lon="13.171421532244455"><ele>351.0</ele><time>2026-04-25T10:59:20Z</time></trkpt><trkpt lat="43.425055410730785" lon="13.171658327431532"><ele>351.0</ele><time>2026-04-25T10:59:21Z</time></trkpt><trkpt lat="43.42517724313166" lon="13.17188130914321"><ele>351.3333333333333</ele><time>2026-04-25T10:59:22Z</time></trkpt><trkpt lat="43.4252903305482" lon="13.172090416311312"><ele>351.66666666666663</ele><time>2026-04-25T10:59:23Z</time></trkpt><trkpt lat="43.42539616017926" lon="13.172277232146147"><ele>352.0</ele><time>2026-04-25T10:59:24Z</time></trkpt><trkpt lat="43.4254961017882" lon="13.172440679995224"><ele>352.0</ele><time>2026-04-25T10:59:25Z</time></trkpt><trkpt lat="43.425578327782155" lon="13.172595589966727"><ele>352.0</ele><time>2026-04-25T10:59:26Z</time></trkpt><trkpt lat="43.42563117340542" lon="13.172762583350014"><ele>352.0</ele><time>2026-04-25T10:59:27Z</time></trkpt><trkpt lat="43.42566280711188" lon="13.172957385742194"><ele>352.0</ele><time>2026-04-25T10:59:28Z</time></trkpt><trkpt lat="43.425697446600125" lon="13.173175091180969"><ele>351.66666666666663</ele><time>2026-04-25T10:59:29Z</time></trkpt><trkpt lat="43.42573659922233" lon="13.173416075254202"><ele>351.3333333333333</ele><time>2026-04-25T10:59:30Z</time></trkpt><trkpt lat="43.42576578582336" lon="13.173680739637746"><ele>351.0</ele><time>2026-04-25T10:59:31Z</time></trkpt><trkpt lat="43.42577950614831" lon="13.173964433319913"><ele>351.0</ele><time>2026-04-25T10:59:32Z</time></trkpt><trkpt lat="43.42577353420538" lon="13.174263357561802"><ele>351.0</ele><time>2026-04-25T10:59:33Z</time></trkpt><trkpt lat="43.42576673714528" lon="13.17456468769974"><ele>351.0</ele><time>2026-04-25T10:59:34Z</time></trkpt><trkpt lat="43.42576829336971" lon="13.17484976549973"><ele>351.3333333333333</ele><time>2026-04-25T10:59:35Z</time></trkpt><trkpt lat="43.42576686789823" lon="13.175112474882042"><ele>351.66666666666663</ele><time>2026-04-25T10:59:36Z</time></trkpt><trkpt lat="43.42573887278863" lon="13.175362829859504"><ele>352.0</ele><time>2026-04-25T10:59:37Z</time></trkpt><trkpt lat="43.42565603548533" lon="13.175607337658818"><ele>354.0</ele><time>2026-04-25T10:59:38Z</time></trkpt><trkpt lat="43.42553053656059" lon="13.17582627240958"><ele>356.0</ele><time>2026-04-25T10:59:39Z</time></trkpt><trkpt lat="43.42539549971639" lon="13.176039835903001"><ele>358.0</ele><time>2026-04-25T10:59:40Z</time></trkpt><trkpt lat="43.42528308075141" lon="13.176248197831297"><ele>358.75</ele><time>2026-04-25T10:59:41Z</time></trkpt><trkpt lat="43.42518968318127" lon="13.176441509927399"><ele>359.5</ele><time>2026-04-25T10:59:42Z</time></trkpt><trkpt lat="43.425114285169144" lon="13.176608009529494"><ele>360.25</ele><time>2026-04-25T10:59:43Z</time></trkpt><trkpt lat="43.42505552213861" lon="13.176749190342441"><ele>361.0</ele><time>2026-04-25T10:59:44Z</time></trkpt><trkpt lat="43.42501867896745" lon="13.17686793509363"><ele>361.4</ele><time>2026-04-25T10:59:45Z</time></trkpt><trkpt lat="43.42501201949497" lon="13.176979620991798"><ele>361.8</ele><time>2026-04-25T10:59:46Z</time></trkpt><trkpt lat="43.42503988821554" lon="13.177090726818253"><ele>362.2</ele><time>2026-04-25T10:59:47Z</time></trkpt><trkpt lat="43.425102359044935" lon="13.177201223322353"><ele>362.59999999999997</ele><time>2026-04-25T10:59:48Z</time></trkpt><trkpt lat="43.425200279614764" lon="13.1773123211058"><ele>363.0</ele><time>2026-04-25T10:59:49Z</time></trkpt><trkpt lat="43.425322744996706" lon="13.177414947355548"><ele>363.0</ele><time>2026-04-25T10:59:50Z</time></trkpt><trkpt lat="43.425451956390006" lon="13.17753045913215"><ele>363.0</ele><time>2026-04-25T10:59:51Z</time></trkpt><trkpt lat="43.425586504178156" lon="13.177665131924982"><ele>363.0</ele><time>2026-04-25T10:59:52Z</time></trkpt><trkpt lat="43.425724082966035" lon="13.177807950467995"><ele>363.0</ele><time>2026-04-25T10:59:53Z</time></trkpt><trkpt lat="43.4258674000225" lon="13.177956741682813"><ele>363.0</ele><time>2026-04-25T10:59:54Z</time></trkpt><trkpt lat="43.42601777883747" lon="13.178122828518596"><ele>363.0</ele><time>2026-04-25T10:59:55Z</time></trkpt><trkpt lat="43.4261674863761" lon="13.178289910703304"><ele>363.6666666666667</ele><time>2026-04-25T10:59:56Z</time></trkpt><trkpt lat="43.42631963181623" lon="13.178459187330901"><ele>364.33333333333337</ele><time>2026-04-25T10:59:57Z</time></trkpt><trkpt lat="43.426477872453106" lon="13.178631159585821"><ele>365.0</ele><time>2026-04-25T10:59:58Z</time></trkpt><trkpt lat="43.42665600879839" lon="13.178779692741966"><ele>365.0</ele><time>2026-04-25T10:59:59Z</time></trkpt><trkpt lat="43.42685322318544" lon="13.178905419995539"><ele>365.0</ele><time>2026-04-25T11:00:00Z</time></trkpt><trkpt lat="43.427062422504015" lon="13.179011338937716"><ele>365.0</ele><time>2026-04-25T11:00:01Z</time></trkpt><trkpt lat="43.427276080966365" lon="13.17912145511224"><ele>366.6666666666667</ele><time>2026-04-25T11:00:02Z</time></trkpt><trkpt lat="43.42748352175611" lon="13.179225450262972"><ele>368.3333333333333</ele><time>2026-04-25T11:00:03.001Z</time></trkpt><trkpt lat="43.42769353217199" lon="13.179341609519334"><ele>370.0</ele><time>2026-04-25T11:00:04.001Z</time></trkpt><trkpt lat="43.427904907507866" lon="13.179428305943024"><ele>370.0</ele><time>2026-04-25T11:00:05.001Z</time></trkpt><trkpt lat="43.42811313768469" lon="13.17949060741233"><ele>370.0</ele><time>2026-04-25T11:00:06.001Z</time></trkpt><trkpt lat="43.42830721633782" lon="13.179549098388428"><ele>370.0</ele><time>2026-04-25T11:00:07.001Z</time></trkpt><trkpt lat="43.428481956457375" lon="13.179642840407263"><ele>370.0</ele><time>2026-04-25T11:00:08.001Z</time></trkpt><trkpt lat="43.42865106475902" lon="13.179789997594176"><ele>370.0</ele><time>2026-04-25T11:00:09.001Z</time></trkpt><trkpt lat="43.42881928754039" lon="13.179964179656809"><ele>370.0</ele><time>2026-04-25T11:00:10.001Z</time></trkpt><trkpt lat="43.428989419119986" lon="13.180131080210923"><ele>373.3333333333333</ele><time>2026-04-25T11:00:11.001Z</time></trkpt><trkpt lat="43.42916587860186" lon="13.180294352272629"><ele>376.6666666666667</ele><time>2026-04-25T11:00:12.001Z</time></trkpt><trkpt lat="43.42934296766042" lon="13.180458440472176"><ele>380.0</ele><time>2026-04-25T11:00:13.001Z</time></trkpt><trkpt lat="43.42951954920541" lon="13.180619433232215"><ele>384.6666666666667</ele><time>2026-04-25T11:00:14.001Z</time></trkpt><trkpt lat="43.42969569696654" lon="13.180781021468345"><ele>389.33333333333337</ele><time>2026-04-25T11:00:15.001Z</time></trkpt><trkpt lat="43.42987627902125" lon="13.180946510653783"><ele>394.0</ele><time>2026-04-25T11:00:16.001Z</time></trkpt><trkpt lat="43.430059841347784" lon="13.181117287392064"><ele>394.0</ele><time>2026-04-25T11:00:17.001Z</time></trkpt><trkpt lat="43.43023733157184" lon="13.181286311000324"><ele>394.0</ele><time>2026-04-25T11:00:18.001Z</time></trkpt><trkpt lat="43.43041895001419" lon="13.18145855985995"><ele>394.0</ele><time>2026-04-25T11:00:19.001Z</time></trkpt><trkpt lat="43.43060688929551" lon="13.181631574146294"><ele>397.0</ele><time>2026-04-25T11:00:20.001Z</time></trkpt><trkpt lat="43.43079130671434" lon="13.181799486815736"><ele>400.0</ele><time>2026-04-25T11:00:21.001Z</time></trkpt><trkpt lat="43.43097841836195" lon="13.181965374059878"><ele>403.0</ele><time>2026-04-25T11:00:22.001Z</time></trkpt><trkpt lat="43.431164911897014" lon="13.182139111429766"><ele>406.5</ele><time>2026-04-25T11:00:23.001Z</time></trkpt><trkpt lat="43.431352317984754" lon="13.182312281484128"><ele>410.0</ele><time>2026-04-25T11:00:24.001Z</time></trkpt><trkpt lat="43.43154090286139" lon="13.182483849343559"><ele>411.3333333333333</ele><time>2026-04-25T11:00:25.001Z</time></trkpt><trkpt lat="43.43172021640283" lon="13.182677103568109"><ele>412.66666666666663</ele><time>2026-04-25T11:00:26.001Z</time></trkpt><trkpt lat="43.43191259176967" lon="13.18282658304639"><ele>414.0</ele><time>2026-04-25T11:00:27.001Z</time></trkpt><trkpt lat="43.432075066271835" lon="13.182988753724372"><ele>415.0</ele><time>2026-04-25T11:00:28.001Z</time></trkpt><trkpt lat="43.43221772510004" lon="13.183136456072274"><ele>416.0</ele><time>2026-04-25T11:00:29.001Z</time></trkpt><trkpt lat="43.43236138892478" lon="13.183250825440368"><ele>417.0</ele><time>2026-04-25T11:00:30.001Z</time></trkpt><trkpt lat="43.432486980767685" lon="13.183357234854679"><ele>418.40000000000003</ele><time>2026-04-25T11:00:31.001Z</time></trkpt><trkpt lat="43.43257335008087" lon="13.183461371627574"><ele>419.8</ele><time>2026-04-25T11:00:32.001Z</time></trkpt><trkpt lat="43.43266030011842" lon="13.183534888169623"><ele>421.2</ele><time>2026-04-25T11:00:33.001Z</time></trkpt><trkpt lat="43.43271130607432" lon="13.183625720551506"><ele>422.6</ele><time>2026-04-25T11:00:34.001Z</time></trkpt><trkpt lat="43.43278399495709" lon="13.183659433287717"><ele>424.0</ele><time>2026-04-25T11:00:35.001Z</time></trkpt><trkpt lat="43.43285524307499" lon="13.183748050013477"><ele>424.0</ele><time>2026-04-25T11:00:37.001Z</time></trkpt><trkpt lat="43.432847398967255" lon="13.1839323084736"><ele>424.0</ele><time>2026-04-25T11:00:39.001Z</time></trkpt><trkpt lat="43.43281252805911" lon="13.184081355912502"><ele>424.0</ele><time>2026-04-25T11:00:40.001Z</time></trkpt><trkpt lat="43.432789714146466" lon="13.1842449693503"><ele>424.0</ele><time>2026-04-25T11:00:41.001Z</time></trkpt><trkpt lat="43.432779895441975" lon="13.184424946106168"><ele>424.75</ele><time>2026-04-25T11:00:42.001Z</time></trkpt><trkpt lat="43.432784738168685" lon="13.18460812855424"><ele>425.5</ele><time>2026-04-25T11:00:43.001Z</time></trkpt><trkpt lat="43.43277687789007" lon="13.184772554795977"><ele>426.25</ele><time>2026-04-25T11:00:44.001Z</time></trkpt><trkpt lat="43.43275032911482" lon="13.18492974861928"><ele>427.0</ele><time>2026-04-25T11:00:45.001Z</time></trkpt><trkpt lat="43.43267905013932" lon="13.185084446610682"><ele>428.5</ele><time>2026-04-25T11:00:46.001Z</time></trkpt><trkpt lat="43.432588945011894" lon="13.185227585011294"><ele>430.0</ele><time>2026-04-25T11:00:47.001Z</time></trkpt><trkpt lat="43.43248457281739" lon="13.185379586631708"><ele>431.5</ele><time>2026-04-25T11:00:48.001Z</time></trkpt><trkpt lat="43.43241315832036" lon="13.185574743751525"><ele>433.0</ele><time>2026-04-25T11:00:49.001Z</time></trkpt><trkpt lat="43.4323442602653" lon="13.185746263087664"><ele>431.5</ele><time>2026-04-25T11:00:50.001Z</time></trkpt><trkpt lat="43.432271582526475" lon="13.18590947397636"><ele>430.0</ele><time>2026-04-25T11:00:51.001Z</time></trkpt><trkpt lat="43.43220957257325" lon="13.186063599704548"><ele>428.5</ele><time>2026-04-25T11:00:52.001Z</time></trkpt><trkpt lat="43.432151386972386" lon="13.186218229061023"><ele>427.0</ele><time>2026-04-25T11:00:53.001Z</time></trkpt><trkpt lat="43.432099400079615" lon="13.186370441669318"><ele>427.8</ele><time>2026-04-25T11:00:54.001Z</time></trkpt><trkpt lat="43.432050864991645" lon="13.186513810795644"><ele>428.6</ele><time>2026-04-25T11:00:55.001Z</time></trkpt><trkpt lat="43.4320156664937" lon="13.186651488901697"><ele>429.40000000000003</ele><time>2026-04-25T11:00:56.001Z</time></trkpt><trkpt lat="43.431991386443215" lon="13.186778173368115"><ele>430.20000000000005</ele><time>2026-04-25T11:00:57.001Z</time></trkpt><trkpt lat="43.431982539860584" lon="13.186911896610217"><ele>431.0</ele><time>2026-04-25T11:00:58.001Z</time></trkpt><trkpt lat="43.431991291882994" lon="13.187047642918987"><ele>431.0</ele><time>2026-04-25T11:00:59.001Z</time></trkpt><trkpt lat="43.43201877929676" lon="13.187182863461736"><ele>431.0</ele><time>2026-04-25T11:01:00Z</time></trkpt><trkpt lat="43.43206831152924" lon="13.187293947296862"><ele>431.0</ele><time>2026-04-25T11:01:01Z</time></trkpt><trkpt lat="43.43212408085629" lon="13.187384248296215"><ele>431.0</ele><time>2026-04-25T11:01:02Z</time></trkpt><trkpt lat="43.43219419610111" lon="13.187458619769137"><ele>431.0</ele><time>2026-04-25T11:01:03Z</time></trkpt><trkpt lat="43.43226727468845" lon="13.187524582399782"><ele>432.49999999999994</ele><time>2026-04-25T11:01:04Z</time></trkpt><trkpt lat="43.43233348614303" lon="13.187597671145506"><ele>434.0</ele><time>2026-04-25T11:01:05Z</time></trkpt><trkpt lat="43.43240850694381" lon="13.187658699239542"><ele>435.5</ele><time>2026-04-25T11:01:06Z</time></trkpt><trkpt lat="43.432473900978735" lon="13.187703446460272"><ele>437.0</ele><time>2026-04-25T11:01:07Z</time></trkpt><trkpt lat="43.43255148040466" lon="13.187752563629092"><ele>438.49999999999994</ele><time>2026-04-25T11:01:08Z</time></trkpt><trkpt lat="43.43263380440143" lon="13.187789475832298"><ele>440.0</ele><time>2026-04-25T11:01:09Z</time></trkpt><trkpt lat="43.43273331036068" lon="13.187817005942955"><ele>440.0</ele><time>2026-04-25T11:01:10Z</time></trkpt><trkpt lat="43.43284098101309" lon="13.187739928746291"><ele>440.0</ele><time>2026-04-25T11:01:11Z</time></trkpt><trkpt lat="43.43294050690603" lon="13.187642489674777"><ele>440.0</ele><time>2026-04-25T11:01:12Z</time></trkpt><trkpt lat="43.43303036641314" lon="13.187499852342055"><ele>440.0</ele><time>2026-04-25T11:01:13Z</time></trkpt><trkpt lat="43.433131815973425" lon="13.187363470032544"><ele>441.0</ele><time>2026-04-25T11:01:14Z</time></trkpt><trkpt lat="43.43322510406628" lon="13.187209150408217"><ele>442.0</ele><time>2026-04-25T11:01:15Z</time></trkpt><trkpt lat="43.43331359715053" lon="13.187055683744662"><ele>443.0</ele><time>2026-04-25T11:01:16Z</time></trkpt><trkpt lat="43.43339321826356" lon="13.186914233937815"><ele>444.0</ele><time>2026-04-25T11:01:17Z</time></trkpt><trkpt lat="43.433465218279665" lon="13.186770403074412"><ele>444.0</ele><time>2026-04-25T11:01:18Z</time></trkpt><trkpt lat="43.43352990608672" lon="13.186642261032077"><ele>444.0</ele><time>2026-04-25T11:01:19Z</time></trkpt><trkpt lat="43.43358604740706" lon="13.18653460381799"><ele>444.0</ele><time>2026-04-25T11:01:20Z</time></trkpt><trkpt lat="43.433642590604244" lon="13.186467944948376"><ele>444.0</ele><time>2026-04-25T11:01:21Z</time></trkpt><trkpt lat="43.43369622197912" lon="13.18638650851526"><ele>444.0</ele><time>2026-04-25T11:01:23Z</time></trkpt><trkpt lat="43.433758246622816" lon="13.186482402589647"><ele>444.0</ele><time>2026-04-25T11:01:25Z</time></trkpt><trkpt lat="43.4337149730035" lon="13.18666236314467"><ele>444.0</ele><time>2026-04-25T11:01:27Z</time></trkpt><trkpt lat="43.43368055759329" lon="13.186780907783765"><ele>444.0</ele><time>2026-04-25T11:01:28Z</time></trkpt><trkpt lat="43.433646927505116" lon="13.186913080678094"><ele>444.0</ele><time>2026-04-25T11:01:29Z</time></trkpt><trkpt lat="43.43360206859447" lon="13.187059964800717"><ele>444.0</ele><time>2026-04-25T11:01:30Z</time></trkpt><trkpt lat="43.433565262297975" lon="13.187213841725104"><ele>442.25</ele><time>2026-04-25T11:01:31Z</time></trkpt><trkpt lat="43.43350578651688" lon="13.187366077181512"><ele>440.5</ele><time>2026-04-25T11:01:32Z</time></trkpt><trkpt lat="43.433442226228095" lon="13.187527461174058"><ele>438.75</ele><time>2026-04-25T11:01:33Z</time></trkpt><trkpt lat="43.43336177022933" lon="13.187702591810037"><ele>437.0</ele><time>2026-04-25T11:01:34Z</time></trkpt><trkpt lat="43.43327256712837" lon="13.187877857628374"><ele>437.0</ele><time>2026-04-25T11:01:35Z</time></trkpt><trkpt lat="43.43317154265643" lon="13.188086207329283"><ele>437.0</ele><time>2026-04-25T11:01:36Z</time></trkpt><trkpt lat="43.4330290313314" lon="13.188265218827496"><ele>437.0</ele><time>2026-04-25T11:01:37Z</time></trkpt><trkpt lat="43.43297178392381" lon="13.188477089705065"><ele>436.0</ele><time>2026-04-25T11:01:38Z</time></trkpt><trkpt lat="43.43289448446112" lon="13.188617540699987"><ele>435.0</ele><time>2026-04-25T11:01:39Z</time></trkpt><trkpt lat="43.432815129796424" lon="13.188800934146602"><ele>434.0</ele><time>2026-04-25T11:01:40Z</time></trkpt><trkpt lat="43.43272941279642" lon="13.188961641831185"><ele>433.0</ele><time>2026-04-25T11:01:41Z</time></trkpt><trkpt lat="43.43263832933057" lon="13.189113978121416"><ele>430.0</ele><time>2026-04-25T11:01:42Z</time></trkpt><trkpt lat="43.43253554175603" lon="13.189267279254633"><ele>427.0</ele><time>2026-04-25T11:01:43Z</time></trkpt><trkpt lat="43.43239448763944" lon="13.189368768972987"><ele>424.0</ele><time>2026-04-25T11:01:44Z</time></trkpt><trkpt lat="43.43224827981641" lon="13.189480403998164"><ele>422.33333333333337</ele><time>2026-04-25T11:01:45Z</time></trkpt><trkpt lat="43.432081889024936" lon="13.189535923081078"><ele>420.66666666666663</ele><time>2026-04-25T11:01:46Z</time></trkpt><trkpt lat="43.43192353882566" lon="13.1895608297842"><ele>419.0</ele><time>2026-04-25T11:01:47Z</time></trkpt><trkpt lat="43.43176419376792" lon="13.189578428259225"><ele>419.0</ele><time>2026-04-25T11:01:48Z</time></trkpt><trkpt lat="43.431601368714574" lon="13.18959455357748"><ele>419.0</ele><time>2026-04-25T11:01:49Z</time></trkpt><trkpt lat="43.431457802778525" lon="13.18959523893404"><ele>419.0</ele><time>2026-04-25T11:01:50Z</time></trkpt><trkpt lat="43.43132100515051" lon="13.189620468705257"><ele>419.0</ele><time>2026-04-25T11:01:51Z</time></trkpt><trkpt lat="43.431208265899684" lon="13.189667814383355"><ele>418.25</ele><time>2026-04-25T11:01:52Z</time></trkpt><trkpt lat="43.431060624414954" lon="13.18969465993028"><ele>417.5</ele><time>2026-04-25T11:01:53Z</time></trkpt><trkpt lat="43.43092994940992" lon="13.189769813639797"><ele>416.75</ele><time>2026-04-25T11:01:54Z</time></trkpt><trkpt lat="43.43080564858028" lon="13.189903330256968"><ele>416.0</ele><time>2026-04-25T11:01:55Z</time></trkpt><trkpt lat="43.43068528186696" lon="13.190075232446974"><ele>416.0</ele><time>2026-04-25T11:01:56Z</time></trkpt><trkpt lat="43.430572301366546" lon="13.190275145389236"><ele>416.0</ele><time>2026-04-25T11:01:57Z</time></trkpt><trkpt lat="43.43044592121353" lon="13.19046733787341"><ele>416.0</ele><time>2026-04-25T11:01:58Z</time></trkpt><trkpt lat="43.43033606367698" lon="13.190632223477522"><ele>414.20000000000005</ele><time>2026-04-25T11:01:59Z</time></trkpt><trkpt lat="43.43023917712883" lon="13.190774662068328"><ele>412.40000000000003</ele><time>2026-04-25T11:02:00Z</time></trkpt><trkpt lat="43.430162298055315" lon="13.190880111258492"><ele>410.6</ele><time>2026-04-25T11:02:01Z</time></trkpt><trkpt lat="43.43010428048644" lon="13.190964312324615"><ele>408.8</ele><time>2026-04-25T11:02:02Z</time></trkpt><trkpt lat="43.430048203840244" lon="13.19105383448598"><ele>407.0</ele><time>2026-04-25T11:02:03Z</time></trkpt><trkpt lat="43.42997592484388" lon="13.191170391859067"><ele>407.0</ele><time>2026-04-25T11:02:04Z</time></trkpt><trkpt lat="43.42987932078181" lon="13.191304080906974"><ele>407.0</ele><time>2026-04-25T11:02:05Z</time></trkpt><trkpt lat="43.42977285706704" lon="13.191461329618278"><ele>407.0</ele><time>2026-04-25T11:02:06Z</time></trkpt><trkpt lat="43.429654021317965" lon="13.19163222569016"><ele>407.0</ele><time>2026-04-25T11:02:07Z</time></trkpt><trkpt lat="43.42952517564211" lon="13.19180509024378"><ele>407.0</ele><time>2026-04-25T11:02:08Z</time></trkpt><trkpt lat="43.42938955765402" lon="13.191979394174384"><ele>407.0</ele><time>2026-04-25T11:02:09.001Z</time></trkpt><trkpt lat="43.42925567420271" lon="13.192150788992928"><ele>407.0</ele><time>2026-04-25T11:02:10.001Z</time></trkpt><trkpt lat="43.42913226803543" lon="13.192306712870103"><ele>407.0</ele><time>2026-04-25T11:02:11.001Z</time></trkpt><trkpt lat="43.42900536721114" lon="13.192466462891415"><ele>407.0</ele><time>2026-04-25T11:02:12.001Z</time></trkpt><trkpt lat="43.42888600157331" lon="13.192631982511873"><ele>405.75</ele><time>2026-04-25T11:02:13.001Z</time></trkpt><trkpt lat="43.42877086419867" lon="13.192783941604668"><ele>404.5</ele><time>2026-04-25T11:02:14.001Z</time></trkpt><trkpt lat="43.4286583276435" lon="13.19290473250339"><ele>403.25</ele><time>2026-04-25T11:02:15.001Z</time></trkpt><trkpt lat="43.42851751481818" lon="13.19296080667454"><ele>402.0</ele><time>2026-04-25T11:02:16.001Z</time></trkpt><trkpt lat="43.42835874691374" lon="13.192998751868672"><ele>402.0</ele><time>2026-04-25T11:02:17.001Z</time></trkpt><trkpt lat="43.428190215854485" lon="13.193031025054463"><ele>402.0</ele><time>2026-04-25T11:02:18.001Z</time></trkpt><trkpt lat="43.428027082329386" lon="13.193038953004873"><ele>402.0</ele><time>2026-04-25T11:02:19.001Z</time></trkpt><trkpt lat="43.427875596764295" lon="13.1929996546524"><ele>400.66666666666663</ele><time>2026-04-25T11:02:20.001Z</time></trkpt><trkpt lat="43.427723861767205" lon="13.192898690972457"><ele>399.3333333333333</ele><time>2026-04-25T11:02:21.001Z</time></trkpt><trkpt lat="43.42756500141807" lon="13.192793717049579"><ele>398.0</ele><time>2026-04-25T11:02:22.001Z</time></trkpt><trkpt lat="43.42744343614433" lon="13.192663988091866"><ele>398.0</ele><time>2026-04-25T11:02:23.001Z</time></trkpt><trkpt lat="43.42732482347871" lon="13.192613837893713"><ele>398.0</ele><time>2026-04-25T11:02:24.001Z</time></trkpt><trkpt lat="43.42720684215812" lon="13.192620778913101"><ele>398.0</ele><time>2026-04-25T11:02:25.001Z</time></trkpt><trkpt lat="43.427074082971195" lon="13.192692085394816"><ele>398.0</ele><time>2026-04-25T11:02:26.001Z</time></trkpt><trkpt lat="43.42692653968668" lon="13.192773568174763"><ele>397.0</ele><time>2026-04-25T11:02:27.001Z</time></trkpt><trkpt lat="43.426766530260515" lon="13.192838615307865"><ele>396.0</ele><time>2026-04-25T11:02:28.001Z</time></trkpt><trkpt lat="43.42660291272088" lon="13.192883481179496"><ele>395.0</ele><time>2026-04-25T11:02:29.001Z</time></trkpt><trkpt lat="43.42645025413978" lon="13.192896956818307"><ele>395.0</ele><time>2026-04-25T11:02:30.001Z</time></trkpt><trkpt lat="43.4263199529543" lon="13.192893700636233"><ele>395.0</ele><time>2026-04-25T11:02:31.001Z</time></trkpt><trkpt lat="43.42621025235683" lon="13.19288944117194"><ele>395.0</ele><time>2026-04-25T11:02:32.001Z</time></trkpt><trkpt lat="43.4261017604465" lon="13.192910004663096"><ele>395.0</ele><time>2026-04-25T11:02:33.001Z</time></trkpt><trkpt lat="43.426010795935944" lon="13.192982135338102"><ele>393.75</ele><time>2026-04-25T11:02:34.001Z</time></trkpt><trkpt lat="43.42594680649409" lon="13.193116726650022"><ele>392.5</ele><time>2026-04-25T11:02:35.001Z</time></trkpt><trkpt lat="43.42591282294269" lon="13.193288136214704"><ele>391.25</ele><time>2026-04-25T11:02:36.001Z</time></trkpt><trkpt lat="43.425893786810065" lon="13.193481671495054"><ele>390.0</ele><time>2026-04-25T11:02:37.001Z</time></trkpt><trkpt lat="43.425876618172076" lon="13.193683630385134"><ele>390.0</ele><time>2026-04-25T11:02:38.001Z</time></trkpt><trkpt lat="43.42586062045555" lon="13.193899204286213"><ele>390.0</ele><time>2026-04-25T11:02:39.001Z</time></trkpt><trkpt lat="43.42583721945708" lon="13.194119123628901"><ele>390.0</ele><time>2026-04-25T11:02:40.001Z</time></trkpt><trkpt lat="43.425786947551394" lon="13.194331816561634"><ele>389.75</ele><time>2026-04-25T11:02:41.001Z</time></trkpt><trkpt lat="43.425702034974854" lon="13.194518661885859"><ele>389.5</ele><time>2026-04-25T11:02:42.001Z</time></trkpt><trkpt lat="43.42565018287714" lon="13.194710840403712"><ele>389.25</ele><time>2026-04-25T11:02:43.001Z</time></trkpt><trkpt lat="43.42560407973558" lon="13.194893250030315"><ele>389.0</ele><time>2026-04-25T11:02:44.001Z</time></trkpt><trkpt lat="43.42557575135097" lon="13.195081298376548"><ele>389.0</ele><time>2026-04-25T11:02:45.001Z</time></trkpt><trkpt lat="43.42557291431464" lon="13.195289349464137"><ele>389.0</ele><time>2026-04-25T11:02:46.001Z</time></trkpt><trkpt lat="43.425582678733825" lon="13.19551127633915"><ele>389.0</ele><time>2026-04-25T11:02:47.001Z</time></trkpt><trkpt lat="43.425590474763986" lon="13.195740806034504"><ele>388.3333333333333</ele><time>2026-04-25T11:02:48.001Z</time></trkpt><trkpt lat="43.42559189210446" lon="13.195969089107834"><ele>387.66666666666663</ele><time>2026-04-25T11:02:49.001Z</time></trkpt><trkpt lat="43.42557944373668" lon="13.19618713105517"><ele>387.0</ele><time>2026-04-25T11:02:50.001Z</time></trkpt><trkpt lat="43.42555548351075" lon="13.1963969794139"><ele>384.75</ele><time>2026-04-25T11:02:51.001Z</time></trkpt><trkpt lat="43.42553009334534" lon="13.196601730107496"><ele>382.5</ele><time>2026-04-25T11:02:52.001Z</time></trkpt><trkpt lat="43.425493922443074" lon="13.196800694893483"><ele>380.25</ele><time>2026-04-25T11:02:53.001Z</time></trkpt><trkpt lat="43.42544731415943" lon="13.19698848138385"><ele>378.0</ele><time>2026-04-25T11:02:54Z</time></trkpt><trkpt lat="43.42538866476572" lon="13.197160231310557"><ele>376.0</ele><time>2026-04-25T11:02:55Z</time></trkpt><trkpt lat="43.42530338594385" lon="13.197320588538162"><ele>374.0</ele><time>2026-04-25T11:02:56Z</time></trkpt><trkpt lat="43.42519413467138" lon="13.197476697577684"><ele>372.0</ele><time>2026-04-25T11:02:57Z</time></trkpt><trkpt lat="43.425072324982295" lon="13.19763456706168"><ele>372.0</ele><time>2026-04-25T11:02:58Z</time></trkpt><trkpt lat="43.42496857527882" lon="13.197781784704079"><ele>372.0</ele><time>2026-04-25T11:02:59Z</time></trkpt><trkpt lat="43.42487594640933" lon="13.197877763427007"><ele>372.0</ele><time>2026-04-25T11:03:00Z</time></trkpt><trkpt lat="43.42480736877406" lon="13.197941643099888"><ele>372.0</ele><time>2026-04-25T11:03:01Z</time></trkpt><trkpt lat="43.42474326976304" lon="13.19797947572013"><ele>372.0</ele><time>2026-04-25T11:03:02Z</time></trkpt><trkpt lat="43.42468126516553" lon="13.197930744252199"><ele>369.40000000000003</ele><time>2026-04-25T11:03:03Z</time></trkpt><trkpt lat="43.42462928890298" lon="13.19779552592353"><ele>366.8</ele><time>2026-04-25T11:03:04Z</time></trkpt><trkpt lat="43.424611692100434" lon="13.197659658004069"><ele>364.2</ele><time>2026-04-25T11:03:05Z</time></trkpt><trkpt lat="43.424613722264496" lon="13.19752544366083"><ele>361.6</ele><time>2026-04-25T11:03:06Z</time></trkpt><trkpt lat="43.42457726481017" lon="13.197439797531095"><ele>359.0</ele><time>2026-04-25T11:03:07Z</time></trkpt><trkpt lat="43.424491448343026" lon="13.197403888067639"><ele>359.0</ele><time>2026-04-25T11:03:08Z</time></trkpt><trkpt lat="43.424381283122756" lon="13.197455315712782"><ele>359.0</ele><time>2026-04-25T11:03:09Z</time></trkpt><trkpt lat="43.4242793800599" lon="13.197556196295345"><ele>359.0</ele><time>2026-04-25T11:03:10Z</time></trkpt><trkpt lat="43.42417121701451" lon="13.197675563588648"><ele>359.0</ele><time>2026-04-25T11:03:11Z</time></trkpt><trkpt lat="43.424046208336" lon="13.197782399959934"><ele>359.0</ele><time>2026-04-25T11:03:12Z</time></trkpt><trkpt lat="43.4239201540399" lon="13.197874840872412"><ele>359.0</ele><time>2026-04-25T11:03:13Z</time></trkpt><trkpt lat="43.42377889595042" lon="13.198003975782214"><ele>359.0</ele><time>2026-04-25T11:03:14Z</time></trkpt><trkpt lat="43.4236533025355" lon="13.198116587804272"><ele>357.25</ele><time>2026-04-25T11:03:15Z</time></trkpt><trkpt lat="43.42353509231919" lon="13.198209648406024"><ele>355.5</ele><time>2026-04-25T11:03:16Z</time></trkpt><trkpt lat="43.42343724035981" lon="13.198309735574503"><ele>353.75</ele><time>2026-04-25T11:03:17Z</time></trkpt><trkpt lat="43.4233639505309" lon="13.19845444302891"><ele>352.0</ele><time>2026-04-25T11:03:18Z</time></trkpt><trkpt lat="43.42330990471216" lon="13.198639129810381"><ele>352.0</ele><time>2026-04-25T11:03:19Z</time></trkpt><trkpt lat="43.42326284506797" lon="13.198841893306989"><ele>352.0</ele><time>2026-04-25T11:03:20Z</time></trkpt><trkpt lat="43.4232157453285" lon="13.199051898204612"><ele>352.0</ele><time>2026-04-25T11:03:21Z</time></trkpt><trkpt lat="43.42316399628722" lon="13.199272182029027"><ele>352.0</ele><time>2026-04-25T11:03:22Z</time></trkpt><trkpt lat="43.42311510430784" lon="13.199502526370752"><ele>352.0</ele><time>2026-04-25T11:03:23Z</time></trkpt><trkpt lat="43.4230691007887" lon="13.199731914638422"><ele>352.0</ele><time>2026-04-25T11:03:24Z</time></trkpt><trkpt lat="43.42301903437552" lon="13.199942080706593"><ele>347.0</ele><time>2026-04-25T11:03:25Z</time></trkpt><trkpt lat="43.422972046249456" lon="13.200144248972634"><ele>342.0</ele><time>2026-04-25T11:03:26Z</time></trkpt><trkpt lat="43.422930200464464" lon="13.200347582884229"><ele>337.0</ele><time>2026-04-25T11:03:27Z</time></trkpt><trkpt lat="43.42288408636176" lon="13.200545489341943"><ele>338.0</ele><time>2026-04-25T11:03:28Z</time></trkpt><trkpt lat="43.422818638044404" lon="13.200735945218597"><ele>339.0</ele><time>2026-04-25T11:03:29Z</time></trkpt><trkpt lat="43.422716848507974" lon="13.200904769014361"><ele>340.0</ele><time>2026-04-25T11:03:30Z</time></trkpt><trkpt lat="43.422590144043085" lon="13.20107465710661"><ele>340.0</ele><time>2026-04-25T11:03:31Z</time></trkpt><trkpt lat="43.42245896707355" lon="13.201225521255987"><ele>340.0</ele><time>2026-04-25T11:03:32Z</time></trkpt><trkpt lat="43.42232552862579" lon="13.201391541343883"><ele>340.0</ele><time>2026-04-25T11:03:33Z</time></trkpt><trkpt lat="43.42219333981272" lon="13.20156183341002"><ele>338.0</ele><time>2026-04-25T11:03:34Z</time></trkpt><trkpt lat="43.42206095330378" lon="13.201730681173915"><ele>336.0</ele><time>2026-04-25T11:03:35Z</time></trkpt><trkpt lat="43.42193602056573" lon="13.201893417317528"><ele>334.0</ele><time>2026-04-25T11:03:36Z</time></trkpt><trkpt lat="43.42182713886776" lon="13.20203813415908"><ele>334.0</ele><time>2026-04-25T11:03:37Z</time></trkpt><trkpt lat="43.42173546173659" lon="13.202148751471606"><ele>334.0</ele><time>2026-04-25T11:03:38Z</time></trkpt><trkpt lat="43.42166315199057" lon="13.202247222973655"><ele>334.0</ele><time>2026-04-25T11:03:39Z</time></trkpt><trkpt lat="43.42161523798502" lon="13.202360618029923"><ele>334.0</ele><time>2026-04-25T11:03:40Z</time></trkpt><trkpt lat="43.42161569630037" lon="13.202523634328355"><ele>334.0</ele><time>2026-04-25T11:03:41Z</time></trkpt><trkpt lat="43.42164501343873" lon="13.202704601775267"><ele>333.4</ele><time>2026-04-25T11:03:42Z</time></trkpt><trkpt lat="43.42165602917919" lon="13.20286548489249"><ele>332.79999999999995</ele><time>2026-04-25T11:03:43Z</time></trkpt><trkpt lat="43.4216615108356" lon="13.202990126146267"><ele>332.20000000000005</ele><time>2026-04-25T11:03:44Z</time></trkpt><trkpt lat="43.42164658070989" lon="13.203081147733299"><ele>331.6</ele><time>2026-04-25T11:03:45Z</time></trkpt><trkpt lat="43.42158821129058" lon="13.20315809673675"><ele>331.0</ele><time>2026-04-25T11:03:46Z</time></trkpt><trkpt lat="43.4214712868553" lon="13.20316616631688"><ele>328.0</ele><time>2026-04-25T11:03:47Z</time></trkpt><trkpt lat="43.42132755061048" lon="13.203174692241491"><ele>325.0</ele><time>2026-04-25T11:03:48Z</time></trkpt><trkpt lat="43.42116947845804" lon="13.203151658674562"><ele>322.0</ele><time>2026-04-25T11:03:49Z</time></trkpt><trkpt lat="43.421011447993735" lon="13.203150459196467"><ele>319.5</ele><time>2026-04-25T11:03:50Z</time></trkpt><trkpt lat="43.42086001107021" lon="13.203174183380899"><ele>317.0</ele><time>2026-04-25T11:03:51Z</time></trkpt><trkpt lat="43.42071888544922" lon="13.203231043430424"><ele>314.5</ele><time>2026-04-25T11:03:52Z</time></trkpt><trkpt lat="43.420597643770485" lon="13.203291645823318"><ele>312.0</ele><time>2026-04-25T11:03:53Z</time></trkpt><trkpt lat="43.42050790016934" lon="13.203374825837766"><ele>308.75</ele><time>2026-04-25T11:03:54Z</time></trkpt><trkpt lat="43.42044612563769" lon="13.203496406449569"><ele>305.5</ele><time>2026-04-25T11:03:55Z</time></trkpt><trkpt lat="43.420420255686224" lon="13.203678228963438"><ele>302.25</ele><time>2026-04-25T11:03:56Z</time></trkpt><trkpt lat="43.42040899390211" lon="13.203878706493"><ele>299.0</ele><time>2026-04-25T11:03:57Z</time></trkpt><trkpt lat="43.42040862442776" lon="13.204086930199479"><ele>299.33333333333337</ele><time>2026-04-25T11:03:58Z</time></trkpt><trkpt lat="43.42043126282549" lon="13.204287082905436"><ele>299.6666666666667</ele><time>2026-04-25T11:03:59Z</time></trkpt><trkpt lat="43.42048765255751" lon="13.20448181374136"><ele>300.0</ele><time>2026-04-25T11:04:00Z</time></trkpt><trkpt lat="43.42056356226214" lon="13.204662598622901"><ele>300.0</ele><time>2026-04-25T11:04:01Z</time></trkpt><trkpt lat="43.42063890739077" lon="13.204822091547744"><ele>300.0</ele><time>2026-04-25T11:04:02Z</time></trkpt><trkpt lat="43.42071216993364" lon="13.204959633479444"><ele>300.0</ele><time>2026-04-25T11:04:03Z</time></trkpt><trkpt lat="43.420804539248095" lon="13.205064425403219"><ele>300.0</ele><time>2026-04-25T11:04:04Z</time></trkpt><trkpt lat="43.42092540128963" lon="13.205130896957124"><ele>298.0</ele><time>2026-04-25T11:04:05Z</time></trkpt><trkpt lat="43.42105743418585" lon="13.205157981290757"><ele>296.0</ele><time>2026-04-25T11:04:06Z</time></trkpt><trkpt lat="43.421176328239866" lon="13.205200041468963"><ele>294.0</ele><time>2026-04-25T11:04:07Z</time></trkpt><trkpt lat="43.42128408127863" lon="13.20529754113146"><ele>292.0</ele><time>2026-04-25T11:04:08Z</time></trkpt><trkpt lat="43.42137531915196" lon="13.205462713289133"><ele>289.66666666666663</ele><time>2026-04-25T11:04:09Z</time></trkpt><trkpt lat="43.42145987405107" lon="13.205666576014375"><ele>287.3333333333333</ele><time>2026-04-25T11:04:10Z</time></trkpt><trkpt lat="43.421546999321784" lon="13.205881924960499"><ele>285.0</ele><time>2026-04-25T11:04:11Z</time></trkpt><trkpt lat="43.421644201104144" lon="13.206078100165403"><ele>285.0</ele><time>2026-04-25T11:04:12Z</time></trkpt><trkpt lat="43.42172839271615" lon="13.206276335893351"><ele>285.0</ele><time>2026-04-25T11:04:13Z</time></trkpt><trkpt lat="43.421826223248615" lon="13.206451912469303"><ele>285.0</ele><time>2026-04-25T11:04:14Z</time></trkpt><trkpt lat="43.421907190204706" lon="13.206618024404468"><ele>283.6666666666667</ele><time>2026-04-25T11:04:15.001Z</time></trkpt><trkpt lat="43.42198820156244" lon="13.206810990891794"><ele>282.33333333333337</ele><time>2026-04-25T11:04:16.001Z</time></trkpt><trkpt lat="43.42206265122954" lon="13.207032717434918"><ele>281.0</ele><time>2026-04-25T11:04:17.001Z</time></trkpt><trkpt lat="43.42211938760091" lon="13.207276852613472"><ele>279.33333333333337</ele><time>2026-04-25T11:04:18.001Z</time></trkpt><trkpt lat="43.422193113276904" lon="13.207503179985407"><ele>277.6666666666667</ele><time>2026-04-25T11:04:19.001Z</time></trkpt><trkpt lat="43.42226174583908" lon="13.207730304591616"><ele>276.0</ele><time>2026-04-25T11:04:20.001Z</time></trkpt><trkpt lat="43.422322768733686" lon="13.207955399612583"><ele>273.3333333333333</ele><time>2026-04-25T11:04:21.001Z</time></trkpt><trkpt lat="43.42237681076968" lon="13.208181308513268"><ele>270.66666666666663</ele><time>2026-04-25T11:04:22.001Z</time></trkpt><trkpt lat="43.4224098116822" lon="13.208410271832985"><ele>268.0</ele><time>2026-04-25T11:04:23.001Z</time></trkpt><trkpt lat="43.422417060412705" lon="13.208632240790639"><ele>268.0</ele><time>2026-04-25T11:04:24.001Z</time></trkpt><trkpt lat="43.422433543713026" lon="13.208822243552488"><ele>268.0</ele><time>2026-04-25T11:04:25.001Z</time></trkpt><trkpt lat="43.42244744052464" lon="13.208969052475672"><ele>268.0</ele><time>2026-04-25T11:04:26.001Z</time></trkpt><trkpt lat="43.422497651191826" lon="13.209107286534966"><ele>268.0</ele><time>2026-04-25T11:04:27.001Z</time></trkpt><trkpt lat="43.422596654867945" lon="13.20923421926577"><ele>266.0</ele><time>2026-04-25T11:04:28.001Z</time></trkpt><trkpt lat="43.42269542271559" lon="13.209357723514731"><ele>264.0</ele><time>2026-04-25T11:04:29.001Z</time></trkpt><trkpt lat="43.42278870914377" lon="13.209485153453086"><ele>262.0</ele><time>2026-04-25T11:04:30.001Z</time></trkpt><trkpt lat="43.422872910321956" lon="13.209619282358402"><ele>260.0</ele><time>2026-04-25T11:04:31.001Z</time></trkpt><trkpt lat="43.42291849985783" lon="13.209756793611335"><ele>257.75</ele><time>2026-04-25T11:04:32.001Z</time></trkpt><trkpt lat="43.42295091461891" lon="13.209897922489139"><ele>255.5</ele><time>2026-04-25T11:04:33.001Z</time></trkpt><trkpt lat="43.42295695159569" lon="13.21007046323075"><ele>253.25</ele><time>2026-04-25T11:04:34.001Z</time></trkpt><trkpt lat="43.42291314631052" lon="13.210278984835105"><ele>251.0</ele><time>2026-04-25T11:04:35.001Z</time></trkpt><trkpt lat="43.42286233399933" lon="13.21049001765172"><ele>248.66666666666669</ele><time>2026-04-25T11:04:36.001Z</time></trkpt><trkpt lat="43.42281840100412" lon="13.210717125736387"><ele>246.33333333333331</ele><time>2026-04-25T11:04:37.001Z</time></trkpt><trkpt lat="43.42276735324618" lon="13.210957972473912"><ele>244.0</ele><time>2026-04-25T11:04:38.001Z</time></trkpt><trkpt lat="43.422721081850156" lon="13.211189732674386"><ele>244.0</ele><time>2026-04-25T11:04:39.001Z</time></trkpt><trkpt lat="43.42267573556842" lon="13.211417000038734"><ele>244.0</ele><time>2026-04-25T11:04:40.001Z</time></trkpt><trkpt lat="43.42263642841364" lon="13.211647033117286"><ele>244.0</ele><time>2026-04-25T11:04:41.001Z</time></trkpt><trkpt lat="43.4225974369914" lon="13.21186387570094"><ele>241.66666666666666</ele><time>2026-04-25T11:04:42.001Z</time></trkpt><trkpt lat="43.42256020250784" lon="13.212077654591567"><ele>239.33333333333331</ele><time>2026-04-25T11:04:43.001Z</time></trkpt><trkpt lat="43.42251028926167" lon="13.212289810534202"><ele>237.0</ele><time>2026-04-25T11:04:44.001Z</time></trkpt><trkpt lat="43.4224269130711" lon="13.212502912988075"><ele>235.0</ele><time>2026-04-25T11:04:45.001Z</time></trkpt><trkpt lat="43.42231182945302" lon="13.21271385052534"><ele>233.0</ele><time>2026-04-25T11:04:46.001Z</time></trkpt><trkpt lat="43.42217424832725" lon="13.21292688987021"><ele>231.0</ele><time>2026-04-25T11:04:47.001Z</time></trkpt><trkpt lat="43.42203748695959" lon="13.213136988239405"><ele>227.0</ele><time>2026-04-25T11:04:48.001Z</time></trkpt><trkpt lat="43.42192125642755" lon="13.213320862688292"><ele>223.0</ele><time>2026-04-25T11:04:49.001Z</time></trkpt><trkpt lat="43.42182262798727" lon="13.21347496231947"><ele>219.0</ele><time>2026-04-25T11:04:50.001Z</time></trkpt><trkpt lat="43.42173332134527" lon="13.213615907556727"><ele>219.0</ele><time>2026-04-25T11:04:51Z</time></trkpt><trkpt lat="43.42167115786115" lon="13.213753068422267"><ele>219.0</ele><time>2026-04-25T11:04:52Z</time></trkpt><trkpt lat="43.421642326248865" lon="13.213920264327585"><ele>219.0</ele><time>2026-04-25T11:04:53Z</time></trkpt><trkpt lat="43.4216355776824" lon="13.214114425208091"><ele>219.0</ele><time>2026-04-25T11:04:54Z</time></trkpt><trkpt lat="43.421629538043135" lon="13.214282951349563"><ele>218.2</ele><time>2026-04-25T11:04:55Z</time></trkpt><trkpt lat="43.42163454470273" lon="13.214436274661944"><ele>217.39999999999998</ele><time>2026-04-25T11:04:56Z</time></trkpt><trkpt lat="43.421634321905124" lon="13.214575863002151"><ele>216.6</ele><time>2026-04-25T11:04:57Z</time></trkpt><trkpt lat="43.42162022585425" lon="13.214677964777504"><ele>215.8</ele><time>2026-04-25T11:04:58Z</time></trkpt><trkpt lat="43.42156838141637" lon="13.214747734479063"><ele>215.0</ele><time>2026-04-25T11:05:00Z</time></trkpt><trkpt lat="43.42145007048583" lon="13.214751950802551"><ele>215.00000000000003</ele><time>2026-04-25T11:05:02Z</time></trkpt><trkpt lat="43.4213588604959" lon="13.21472720376767"><ele>215.0</ele><time>2026-04-25T11:05:03Z</time></trkpt><trkpt lat="43.42127063386828" lon="13.214701625312038"><ele>215.0</ele><time>2026-04-25T11:05:04Z</time></trkpt><trkpt lat="43.42120636662704" lon="13.214692592164797"><ele>215.0</ele><time>2026-04-25T11:05:05Z</time></trkpt><trkpt lat="43.42112330677872" lon="13.214675486988234"><ele>215.00000000000003</ele><time>2026-04-25T11:05:07Z</time></trkpt><trkpt lat="43.421035336729645" lon="13.214659760259376"><ele>215.0</ele><time>2026-04-25T11:05:10Z</time></trkpt><trkpt lat="43.420962834899065" lon="13.214645637770422"><ele>213.4</ele><time>2026-04-25T11:05:12Z</time></trkpt><trkpt lat="43.42089160574755" lon="13.214631858116292"><ele>211.8</ele><time>2026-04-25T11:05:14Z</time></trkpt><trkpt lat="43.42082943530392" lon="13.214574032648766"><ele>210.2</ele><time>2026-04-25T11:05:33Z</time></trkpt><trkpt lat="43.420755642317644" lon="13.214613656727424"><ele>208.6</ele><time>2026-04-25T11:05:38Z</time></trkpt><trkpt lat="43.42065243339185" lon="13.21459341913737"><ele>207.0</ele><time>2026-04-25T11:05:39Z</time></trkpt><trkpt lat="43.42052579353049" lon="13.214545946105119"><ele>206.33333333333331</ele><time>2026-04-25T11:05:40Z</time></trkpt><trkpt lat="43.420374973488556" lon="13.214511871067467"><ele>205.66666666666666</ele><time>2026-04-25T11:05:41Z</time></trkpt><trkpt lat="43.420212642263344" lon="13.21449074940874"><ele>205.0</ele><time>2026-04-25T11:05:42Z</time></trkpt><trkpt lat="43.420036058809295" lon="13.214461272852514"><ele>205.0</ele><time>2026-04-25T11:05:43Z</time></trkpt><trkpt lat="43.41984667346765" lon="13.214422009027741"><ele>205.0</ele><time>2026-04-25T11:05:44Z</time></trkpt><trkpt lat="43.41965415634212" lon="13.214374814308552"><ele>205.0</ele><time>2026-04-25T11:05:45Z</time></trkpt><trkpt lat="43.4194781922879" lon="13.214337883137551"><ele>206.33333333333331</ele><time>2026-04-25T11:05:46Z</time></trkpt><trkpt lat="43.41930930649721" lon="13.214306350700936"><ele>207.66666666666669</ele><time>2026-04-25T11:05:47Z</time></trkpt><trkpt lat="43.419142265812454" lon="13.214273938130363"><ele>209.0</ele><time>2026-04-25T11:05:48Z</time></trkpt><trkpt lat="43.4189874978592" lon="13.214240808799422"><ele>209.0</ele><time>2026-04-25T11:05:49Z</time></trkpt><trkpt lat="43.41884162153082" lon="13.214206007369791"><ele>209.0</ele><time>2026-04-25T11:05:50Z</time></trkpt><trkpt lat="43.418701963099366" lon="13.214177111816372"><ele>209.0</ele><time>2026-04-25T11:05:51Z</time></trkpt><trkpt lat="43.41857855108614" lon="13.214184649492015"><ele>209.0</ele><time>2026-04-25T11:05:52Z</time></trkpt><trkpt lat="43.41846505941124" lon="13.214260665866185"><ele>210.0</ele><time>2026-04-25T11:05:53Z</time></trkpt><trkpt lat="43.4183926314176" lon="13.214399480564989"><ele>211.0</ele><time>2026-04-25T11:05:54Z</time></trkpt><trkpt lat="43.41838462726633" lon="13.214558727553392"><ele>212.0</ele><time>2026-04-25T11:05:55Z</time></trkpt><trkpt lat="43.41842681189261" lon="13.214718047070173"><ele>213.0</ele><time>2026-04-25T11:05:56Z</time></trkpt><trkpt lat="43.41849373856972" lon="13.214881418378214"><ele>214.8</ele><time>2026-04-25T11:05:57Z</time></trkpt><trkpt lat="43.4185558668274" lon="13.215052475935256"><ele>216.60000000000002</ele><time>2026-04-25T11:05:58Z</time></trkpt><trkpt lat="43.41858932537228" lon="13.21518144917878"><ele>218.39999999999998</ele><time>2026-04-25T11:05:59Z</time></trkpt><trkpt lat="43.41853483263852" lon="13.215294256978304"><ele>220.2</ele><time>2026-04-25T11:06:00Z</time></trkpt><trkpt lat="43.418450298627356" lon="13.215326698560212"><ele>222.0</ele><time>2026-04-25T11:06:01Z</time></trkpt><trkpt lat="43.418348404474536" lon="13.215295382257901"><ele>222.0</ele><time>2026-04-25T11:06:02Z</time></trkpt><trkpt lat="43.41824651081779" lon="13.215201661234943"><ele>222.0</ele><time>2026-04-25T11:06:03Z</time></trkpt><trkpt lat="43.418165755686466" lon="13.215080014725594"><ele>222.0</ele><time>2026-04-25T11:06:04Z</time></trkpt><trkpt lat="43.41807377283408" lon="13.214954017567658"><ele>222.0</ele><time>2026-04-25T11:06:05Z</time></trkpt><trkpt lat="43.4179670372235" lon="13.21481239313175"><ele>222.33333333333331</ele><time>2026-04-25T11:06:06Z</time></trkpt><trkpt lat="43.41786094281314" lon="13.214650863111242"><ele>222.66666666666666</ele><time>2026-04-25T11:06:07Z</time></trkpt><trkpt lat="43.417732225202585" lon="13.214515003451957"><ele>223.0</ele><time>2026-04-25T11:06:08Z</time></trkpt><trkpt lat="43.41757189216329" lon="13.21442300078655"><ele>223.0</ele><time>2026-04-25T11:06:09Z</time></trkpt><trkpt lat="43.41741589988231" lon="13.214408597893712"><ele>223.0</ele><time>2026-04-25T11:06:10Z</time></trkpt><trkpt lat="43.417268998704756" lon="13.214435027652058"><ele>223.0</ele><time>2026-04-25T11:06:11Z</time></trkpt><trkpt lat="43.417133625042815" lon="13.214533600342062"><ele>224.0</ele><time>2026-04-25T11:06:12Z</time></trkpt><trkpt lat="43.41699973272761" lon="13.214666241522181"><ele>225.0</ele><time>2026-04-25T11:06:13Z</time></trkpt><trkpt lat="43.41686182454198" lon="13.21480815996201"><ele>226.0</ele><time>2026-04-25T11:06:14Z</time></trkpt><trkpt lat="43.416730133346746" lon="13.21494297571468"><ele>228.75</ele><time>2026-04-25T11:06:15Z</time></trkpt><trkpt lat="43.41661406405012" lon="13.215074906648548"><ele>231.5</ele><time>2026-04-25T11:06:16Z</time></trkpt><trkpt lat="43.41649965998584" lon="13.21516727669425"><ele>234.25</ele><time>2026-04-25T11:06:17Z</time></trkpt><trkpt lat="43.41639563073336" lon="13.215240725329162"><ele>237.0</ele><time>2026-04-25T11:06:18Z</time></trkpt><trkpt lat="43.41631755016714" lon="13.215279342626873"><ele>237.0</ele><time>2026-04-25T11:06:19Z</time></trkpt><trkpt lat="43.4162497209443" lon="13.215266410294076"><ele>237.0</ele><time>2026-04-25T11:06:20.001Z</time></trkpt><trkpt lat="43.416133795279535" lon="13.215256706570173"><ele>237.0</ele><time>2026-04-25T11:06:22.001Z</time></trkpt><trkpt lat="43.41609658902558" lon="13.21552837801464"><ele>237.0</ele><time>2026-04-25T11:06:23.001Z</time></trkpt><trkpt lat="43.41609166031823" lon="13.21566691626358"><ele>237.0</ele><time>2026-04-25T11:06:24.001Z</time></trkpt><trkpt lat="43.41610767939287" lon="13.215838210593198"><ele>237.0</ele><time>2026-04-25T11:06:25.001Z</time></trkpt><trkpt lat="43.416129666579714" lon="13.215982098878433"><ele>237.0</ele><time>2026-04-25T11:06:26.001Z</time></trkpt><trkpt lat="43.41612715014428" lon="13.216145316636165"><ele>237.0</ele><time>2026-04-25T11:06:27.001Z</time></trkpt><trkpt lat="43.4161533732431" lon="13.216270410386144"><ele>237.0</ele><time>2026-04-25T11:06:28.001Z</time></trkpt><trkpt lat="43.416164031473826" lon="13.216472778697478"><ele>237.33333333333331</ele><time>2026-04-25T11:06:29.001Z</time></trkpt><trkpt lat="43.416185659018105" lon="13.216687456819153"><ele>237.66666666666666</ele><time>2026-04-25T11:06:30.001Z</time></trkpt><trkpt lat="43.41621024607096" lon="13.216895493416937"><ele>238.0</ele><time>2026-04-25T11:06:31.001Z</time></trkpt><trkpt lat="43.41622550086668" lon="13.217124050489545"><ele>237.66666666666666</ele><time>2026-04-25T11:06:32.001Z</time></trkpt><trkpt lat="43.41624492008763" lon="13.217365598561546"><ele>237.33333333333331</ele><time>2026-04-25T11:06:33.001Z</time></trkpt><trkpt lat="43.41627005283064" lon="13.217617446439856"><ele>237.0</ele><time>2026-04-25T11:06:34.001Z</time></trkpt><trkpt lat="43.416292170145645" lon="13.21787888195339"><ele>237.0</ele><time>2026-04-25T11:06:35.001Z</time></trkpt><trkpt lat="43.41631649269674" lon="13.218140063625905"><ele>237.0</ele><time>2026-04-25T11:06:36.001Z</time></trkpt><trkpt lat="43.41634467483645" lon="13.218405650253935"><ele>237.0</ele><time>2026-04-25T11:06:37.001Z</time></trkpt><trkpt lat="43.416384349780685" lon="13.21866701229974"><ele>236.66666666666669</ele><time>2026-04-25T11:06:38.001Z</time></trkpt><trkpt lat="43.41643191257488" lon="13.218918388161997"><ele>236.33333333333334</ele><time>2026-04-25T11:06:39.001Z</time></trkpt><trkpt lat="43.41650658944851" lon="13.219174291814"><ele>236.0</ele><time>2026-04-25T11:06:40.001Z</time></trkpt><trkpt lat="43.41659890614612" lon="13.219426709360777"><ele>236.0</ele><time>2026-04-25T11:06:41.001Z</time></trkpt><trkpt lat="43.41669663695129" lon="13.219685199777611"><ele>236.0</ele><time>2026-04-25T11:06:42.001Z</time></trkpt><trkpt lat="43.416799819883515" lon="13.21994854531847"><ele>236.0</ele><time>2026-04-25T11:06:43.001Z</time></trkpt><trkpt lat="43.416906965044745" lon="13.220212428547736"><ele>236.33333333333334</ele><time>2026-04-25T11:06:44Z</time></trkpt><trkpt lat="43.417012602864936" lon="13.220480611247828"><ele>236.66666666666669</ele><time>2026-04-25T11:06:45Z</time></trkpt><trkpt lat="43.41711758082457" lon="13.220751690187178"><ele>237.0</ele><time>2026-04-25T11:06:46Z</time></trkpt><trkpt lat="43.41722561731629" lon="13.221023855061564"><ele>237.0</ele><time>2026-04-25T11:06:47Z</time></trkpt><trkpt lat="43.41733390119559" lon="13.221296726505686"><ele>237.0</ele><time>2026-04-25T11:06:48Z</time></trkpt><trkpt lat="43.4174438574547" lon="13.22157204587954"><ele>237.0</ele><time>2026-04-25T11:06:49Z</time></trkpt><trkpt lat="43.41755461031156" lon="13.221852876245356"><ele>237.0</ele><time>2026-04-25T11:06:50Z</time></trkpt><trkpt lat="43.417669093492634" lon="13.222136320126959"><ele>239.0</ele><time>2026-04-25T11:06:51Z</time></trkpt><trkpt lat="43.417783108534536" lon="13.222419916798836"><ele>241.0</ele><time>2026-04-25T11:06:52Z</time></trkpt><trkpt lat="43.41790903158121" lon="13.222683395341866"><ele>239.0</ele><time>2026-04-25T11:06:53Z</time></trkpt><trkpt lat="43.4180214245118" lon="13.222963694563152"><ele>237.0</ele><time>2026-04-25T11:06:54Z</time></trkpt><trkpt lat="43.41813744957207" lon="13.223242300339518"><ele>237.0</ele><time>2026-04-25T11:06:55Z</time></trkpt><trkpt lat="43.41825058247831" lon="13.223526829699717"><ele>237.0</ele><time>2026-04-25T11:06:56Z</time></trkpt><trkpt lat="43.41836083818145" lon="13.223810966729458"><ele>238.0</ele><time>2026-04-25T11:06:57Z</time></trkpt><trkpt lat="43.41847070029264" lon="13.224092651147844"><ele>239.0</ele><time>2026-04-25T11:06:58Z</time></trkpt><trkpt lat="43.418583153662865" lon="13.224363326997212"><ele>239.0</ele><time>2026-04-25T11:06:59Z</time></trkpt><trkpt lat="43.41869340775631" lon="13.22460420487917"><ele>239.0</ele><time>2026-04-25T11:07:00Z</time></trkpt><trkpt lat="43.41883121930773" lon="13.224857751537689"><ele>239.0</ele><time>2026-04-25T11:07:01Z</time></trkpt><trkpt lat="43.41896451936746" lon="13.225109498233882"><ele>238.33333333333334</ele><time>2026-04-25T11:07:02Z</time></trkpt><trkpt lat="43.41911648814532" lon="13.225325383818172"><ele>237.66666666666669</ele><time>2026-04-25T11:07:03Z</time></trkpt><trkpt lat="43.41928405359521" lon="13.22551528350311"><ele>237.0</ele><time>2026-04-25T11:07:04Z</time></trkpt><trkpt lat="43.41944767129949" lon="13.225680244671045"><ele>237.0</ele><time>2026-04-25T11:07:05Z</time></trkpt><trkpt lat="43.41960426851592" lon="13.225825888395065"><ele>237.0</ele><time>2026-04-25T11:07:06Z</time></trkpt><trkpt lat="43.41976049703027" lon="13.225984698072919"><ele>237.0</ele><time>2026-04-25T11:07:07Z</time></trkpt><trkpt lat="43.41991444053198" lon="13.22615684717918"><ele>237.0</ele><time>2026-04-25T11:07:08Z</time></trkpt><trkpt lat="43.42007367749961" lon="13.226317154392406"><ele>237.0</ele><time>2026-04-25T11:07:09Z</time></trkpt><trkpt lat="43.42022779192848" lon="13.226485613633574"><ele>237.0</ele><time>2026-04-25T11:07:10Z</time></trkpt><trkpt lat="43.420370603725566" lon="13.22667224885677"><ele>234.66666666666669</ele><time>2026-04-25T11:07:11Z</time></trkpt><trkpt lat="43.42050225276517" lon="13.226881741716115"><ele>232.33333333333334</ele><time>2026-04-25T11:07:12Z</time></trkpt><trkpt lat="43.4206287331219" lon="13.22709316494841"><ele>230.0</ele><time>2026-04-25T11:07:13Z</time></trkpt><trkpt lat="43.42074148549163" lon="13.227323327539175"><ele>230.0</ele><time>2026-04-25T11:07:14Z</time></trkpt><trkpt lat="43.42084122334479" lon="13.227575789876479"><ele>230.0</ele><time>2026-04-25T11:07:15Z</time></trkpt><trkpt lat="43.42092397577522" lon="13.227807652235926"><ele>230.0</ele><time>2026-04-25T11:07:16Z</time></trkpt><trkpt lat="43.42099878949158" lon="13.228032969170226"><ele>231.33333333333334</ele><time>2026-04-25T11:07:17Z</time></trkpt><trkpt lat="43.42107111958177" lon="13.228254034840441"><ele>232.66666666666669</ele><time>2026-04-25T11:07:18Z</time></trkpt><trkpt lat="43.42114557441375" lon="13.228493801070499"><ele>234.0</ele><time>2026-04-25T11:07:19Z</time></trkpt><trkpt lat="43.42123121326382" lon="13.228724852167183"><ele>231.0</ele><time>2026-04-25T11:07:20Z</time></trkpt><trkpt lat="43.421326237882695" lon="13.228957440117195"><ele>228.0</ele><time>2026-04-25T11:07:21Z</time></trkpt><trkpt lat="43.421428160353265" lon="13.229186810450754"><ele>225.0</ele><time>2026-04-25T11:07:22Z</time></trkpt><trkpt lat="43.421541730450066" lon="13.229408889361858"><ele>225.0</ele><time>2026-04-25T11:07:23Z</time></trkpt><trkpt lat="43.42166649802016" lon="13.229620277529351"><ele>225.0</ele><time>2026-04-25T11:07:24Z</time></trkpt><trkpt lat="43.42180402960335" lon="13.2298195469442"><ele>225.0</ele><time>2026-04-25T11:07:25Z</time></trkpt><trkpt lat="43.42194619609612" lon="13.230014795302687"><ele>225.66666666666669</ele><time>2026-04-25T11:07:26Z</time></trkpt><trkpt lat="43.42209590856382" lon="13.230206409001768"><ele>226.33333333333334</ele><time>2026-04-25T11:07:27Z</time></trkpt><trkpt lat="43.42226015499522" lon="13.230375687632113"><ele>227.0</ele><time>2026-04-25T11:07:28Z</time></trkpt><trkpt lat="43.42243435047698" lon="13.23052929827136"><ele>225.0</ele><time>2026-04-25T11:07:29Z</time></trkpt><trkpt lat="43.422615115376715" lon="13.230674690645916"><ele>223.0</ele><time>2026-04-25T11:07:30Z</time></trkpt><trkpt lat="43.42280222033229" lon="13.230817801552876"><ele>221.0</ele><time>2026-04-25T11:07:31Z</time></trkpt><trkpt lat="43.42299628378754" lon="13.230951373978236"><ele>218.33333333333334</ele><time>2026-04-25T11:07:32Z</time></trkpt><trkpt lat="43.42320002154796" lon="13.231064707799804"><ele>215.66666666666669</ele><time>2026-04-25T11:07:33Z</time></trkpt><trkpt lat="43.42341307408766" lon="13.23115649639417"><ele>213.0</ele><time>2026-04-25T11:07:34Z</time></trkpt><trkpt lat="43.42363509229099" lon="13.231227279233778"><ele>209.0</ele><time>2026-04-25T11:07:35Z</time></trkpt><trkpt lat="43.42386512470522" lon="13.231276718181892"><ele>205.0</ele><time>2026-04-25T11:07:36Z</time></trkpt><trkpt lat="43.42410113942815" lon="13.23131246891981"><ele>205.0</ele><time>2026-04-25T11:07:37Z</time></trkpt><trkpt lat="43.42434216948271" lon="13.231339257383976"><ele>205.0</ele><time>2026-04-25T11:07:38Z</time></trkpt><trkpt lat="43.424585695928776" lon="13.231359949477667"><ele>203.5</ele><time>2026-04-25T11:07:39Z</time></trkpt><trkpt lat="43.42483294823363" lon="13.231380812806766"><ele>202.0</ele><time>2026-04-25T11:07:40Z</time></trkpt><trkpt lat="43.42508313953097" lon="13.231399811502035"><ele>202.0</ele><time>2026-04-25T11:07:41Z</time></trkpt><trkpt lat="43.42533622657645" lon="13.2314171763243"><ele>202.0</ele><time>2026-04-25T11:07:42Z</time></trkpt><trkpt lat="43.42559155892148" lon="13.231436279148525"><ele>199.0</ele><time>2026-04-25T11:07:43Z</time></trkpt><trkpt lat="43.42584712350634" lon="13.231450282183332"><ele>196.0</ele><time>2026-04-25T11:07:44Z</time></trkpt><trkpt lat="43.42610018188473" lon="13.231465416418594"><ele>197.5</ele><time>2026-04-25T11:07:45Z</time></trkpt><trkpt lat="43.42634120398671" lon="13.23148165047316"><ele>199.0</ele><time>2026-04-25T11:07:46Z</time></trkpt><trkpt lat="43.42657052185449" lon="13.231486242169696"><ele>199.0</ele><time>2026-04-25T11:07:47Z</time></trkpt><trkpt lat="43.426794853085184" lon="13.23148666276808"><ele>199.0</ele><time>2026-04-25T11:07:48Z</time></trkpt><trkpt lat="43.42701170409255" lon="13.231482056747495"><ele>199.0</ele><time>2026-04-25T11:07:49Z</time></trkpt><trkpt lat="43.42722636089992" lon="13.231481559622027"><ele>198.33333333333331</ele><time>2026-04-25T11:07:50Z</time></trkpt><trkpt lat="43.42744590679108" lon="13.231482517584379"><ele>197.66666666666669</ele><time>2026-04-25T11:07:51Z</time></trkpt><trkpt lat="43.427667692641" lon="13.231480832964724"><ele>197.0</ele><time>2026-04-25T11:07:52Z</time></trkpt><trkpt lat="43.427889178607465" lon="13.231478970423165"><ele>197.66666666666669</ele><time>2026-04-25T11:07:53Z</time></trkpt><trkpt lat="43.42810904326586" lon="13.231475738130023"><ele>198.33333333333331</ele><time>2026-04-25T11:07:54Z</time></trkpt><trkpt lat="43.42832895610079" lon="13.231473984999003"><ele>199.0</ele><time>2026-04-25T11:07:55Z</time></trkpt><trkpt lat="43.4285531671403" lon="13.231473404423843"><ele>196.66666666666666</ele><time>2026-04-25T11:07:56Z</time></trkpt><trkpt lat="43.428770467386784" lon="13.23147112252136"><ele>194.33333333333331</ele><time>2026-04-25T11:07:57Z</time></trkpt><trkpt lat="43.42898610980732" lon="13.231465545865818"><ele>192.0</ele><time>2026-04-25T11:07:58Z</time></trkpt><trkpt lat="43.42919976614683" lon="13.23146020916639"><ele>191.66666666666666</ele><time>2026-04-25T11:07:59Z</time></trkpt><trkpt lat="43.42941372037198" lon="13.231460855454346"><ele>191.33333333333331</ele><time>2026-04-25T11:08:00Z</time></trkpt><trkpt lat="43.42962486112752" lon="13.231467860045052"><ele>191.0</ele><time>2026-04-25T11:08:01Z</time></trkpt><trkpt lat="43.42983586662183" lon="13.231478256106818"><ele>190.33333333333331</ele><time>2026-04-25T11:08:02Z</time></trkpt><trkpt lat="43.430046891312585" lon="13.231499790815734"><ele>189.66666666666666</ele><time>2026-04-25T11:08:03Z</time></trkpt><trkpt lat="43.430254254905776" lon="13.23152143049085"><ele>189.0</ele><time>2026-04-25T11:08:04Z</time></trkpt><trkpt lat="43.43046105758926" lon="13.231554551509015"><ele>188.66666666666666</ele><time>2026-04-25T11:08:05Z</time></trkpt><trkpt lat="43.43067177634308" lon="13.231588409738496"><ele>188.33333333333331</ele><time>2026-04-25T11:08:06Z</time></trkpt><trkpt lat="43.430888541694735" lon="13.231633052857235"><ele>188.0</ele><time>2026-04-25T11:08:07Z</time></trkpt><trkpt lat="43.43109887668308" lon="13.231674738456196"><ele>187.0</ele><time>2026-04-25T11:08:08Z</time></trkpt><trkpt lat="43.43130821391617" lon="13.231728693579345"><ele>186.0</ele><time>2026-04-25T11:08:09Z</time></trkpt><trkpt lat="43.4315141710551" lon="13.23179339697593"><ele>185.0</ele><time>2026-04-25T11:08:10Z</time></trkpt><trkpt lat="43.43171496359256" lon="13.231865815216892"><ele>185.0</ele><time>2026-04-25T11:08:11Z</time></trkpt><trkpt lat="43.43191271533342" lon="13.231942388514316"><ele>185.0</ele><time>2026-04-25T11:08:12Z</time></trkpt><trkpt lat="43.43210908631434" lon="13.23202603157043"><ele>185.0</ele><time>2026-04-25T11:08:13Z</time></trkpt><trkpt lat="43.432302298288704" lon="13.232103689690666"><ele>184.66666666666666</ele><time>2026-04-25T11:08:14Z</time></trkpt><trkpt lat="43.43249200558919" lon="13.232182415926598"><ele>184.33333333333334</ele><time>2026-04-25T11:08:15Z</time></trkpt><trkpt lat="43.43266771309242" lon="13.232248582840889"><ele>184.0</ele><time>2026-04-25T11:08:16Z</time></trkpt><trkpt lat="43.43282516360487" lon="13.232331346214593"><ele>184.0</ele><time>2026-04-25T11:08:17Z</time></trkpt><trkpt lat="43.432960970938254" lon="13.232444073027475"><ele>184.0</ele><time>2026-04-25T11:08:18Z</time></trkpt><trkpt lat="43.43306033823141" lon="13.232592789979385"><ele>184.0</ele><time>2026-04-25T11:08:19Z</time></trkpt><trkpt lat="43.43310517896528" lon="13.232757351519211"><ele>184.0</ele><time>2026-04-25T11:08:20Z</time></trkpt><trkpt lat="43.43309571987685" lon="13.232933697666375"><ele>186.25</ele><time>2026-04-25T11:08:21Z</time></trkpt><trkpt lat="43.433105020821806" lon="13.233120666621677"><ele>188.5</ele><time>2026-04-25T11:08:22Z</time></trkpt><trkpt lat="43.43311408200018" lon="13.233316727931404"><ele>190.75</ele><time>2026-04-25T11:08:23Z</time></trkpt><trkpt lat="43.43312492018773" lon="13.233536581933626"><ele>193.0</ele><time>2026-04-25T11:08:24Z</time></trkpt><trkpt lat="43.43313767790025" lon="13.233765121306682"><ele>193.33333333333331</ele><time>2026-04-25T11:08:25Z</time></trkpt><trkpt lat="43.43315642556979" lon="13.233996827545349"><ele>193.66666666666669</ele><time>2026-04-25T11:08:26Z</time></trkpt><trkpt lat="43.433177526396086" lon="13.234239470449662"><ele>194.0</ele><time>2026-04-25T11:08:27Z</time></trkpt><trkpt lat="43.433196948821" lon="13.234491383765308"><ele>194.0</ele><time>2026-04-25T11:08:28Z</time></trkpt><trkpt lat="43.43322024899907" lon="13.234747190845006"><ele>194.0</ele><time>2026-04-25T11:08:29Z</time></trkpt><trkpt lat="43.433239713520386" lon="13.234995957096988"><ele>194.0</ele><time>2026-04-25T11:08:30Z</time></trkpt><trkpt lat="43.43325812052457" lon="13.235239414336476"><ele>195.66666666666669</ele><time>2026-04-25T11:08:31Z</time></trkpt><trkpt lat="43.433284722883464" lon="13.23547243835135"><ele>197.33333333333331</ele><time>2026-04-25T11:08:32Z</time></trkpt><trkpt lat="43.43331579367784" lon="13.235677817870737"><ele>199.0</ele><time>2026-04-25T11:08:33Z</time></trkpt><trkpt lat="43.43335038466072" lon="13.235865802577566"><ele>199.75</ele><time>2026-04-25T11:08:34Z</time></trkpt><trkpt lat="43.43341207693094" lon="13.236028274258283"><ele>200.5</ele><time>2026-04-25T11:08:35Z</time></trkpt><trkpt lat="43.43351078320515" lon="13.23615992848696"><ele>201.25</ele><time>2026-04-25T11:08:36Z</time></trkpt><trkpt lat="43.43363445079865" lon="13.236263247792213"><ele>202.0</ele><time>2026-04-25T11:08:37Z</time></trkpt><trkpt lat="43.433777016846435" lon="13.236343777373822"><ele>204.0</ele><time>2026-04-25T11:08:38Z</time></trkpt><trkpt lat="43.43393162724112" lon="13.23641078438434"><ele>206.0</ele><time>2026-04-25T11:08:39Z</time></trkpt><trkpt lat="43.43409364236915" lon="13.236476771233987"><ele>208.0</ele><time>2026-04-25T11:08:40Z</time></trkpt><trkpt lat="43.43425820373319" lon="13.236533371037625"><ele>208.0</ele><time>2026-04-25T11:08:41Z</time></trkpt><trkpt lat="43.43441914507225" lon="13.23659853267136"><ele>208.0</ele><time>2026-04-25T11:08:42Z</time></trkpt><trkpt lat="43.434572877431535" lon="13.236681621466973"><ele>208.0</ele><time>2026-04-25T11:08:43Z</time></trkpt><trkpt lat="43.43471988072331" lon="13.23679121740171"><ele>208.66666666666666</ele><time>2026-04-25T11:08:44Z</time></trkpt><trkpt lat="43.434856959787496" lon="13.236940874376971"><ele>209.33333333333331</ele><time>2026-04-25T11:08:45Z</time></trkpt><trkpt lat="43.43497989688683" lon="13.237126200579855"><ele>210.0</ele><time>2026-04-25T11:08:46Z</time></trkpt><trkpt lat="43.43506651148226" lon="13.237351144317905"><ele>210.0</ele><time>2026-04-25T11:08:47Z</time></trkpt><trkpt lat="43.43517401840556" lon="13.237558616039122"><ele>210.0</ele><time>2026-04-25T11:08:48Z</time></trkpt><trkpt lat="43.435273469544775" lon="13.237777875095402"><ele>210.0</ele><time>2026-04-25T11:08:49Z</time></trkpt><trkpt lat="43.43538331168275" lon="13.238000197340362"><ele>212.0</ele><time>2026-04-25T11:08:50Z</time></trkpt><trkpt lat="43.435494976007654" lon="13.238229273403057"><ele>214.0</ele><time>2026-04-25T11:08:51Z</time></trkpt><trkpt lat="43.43561141599751" lon="13.238466693908384"><ele>216.0</ele><time>2026-04-25T11:08:52Z</time></trkpt><trkpt lat="43.43572593202472" lon="13.238710869488482"><ele>216.0</ele><time>2026-04-25T11:08:53Z</time></trkpt><trkpt lat="43.43584307865371" lon="13.238955221821591"><ele>216.0</ele><time>2026-04-25T11:08:54Z</time></trkpt><trkpt lat="43.435956447547866" lon="13.23918853207332"><ele>216.0</ele><time>2026-04-25T11:08:55Z</time></trkpt><trkpt lat="43.43606487156203" lon="13.239409663848773"><ele>213.66666666666669</ele><time>2026-04-25T11:08:56Z</time></trkpt><trkpt lat="43.43617502804178" lon="13.239626101078727"><ele>211.33333333333334</ele><time>2026-04-25T11:08:57Z</time></trkpt><trkpt lat="43.43628865873153" lon="13.239839246661132"><ele>209.0</ele><time>2026-04-25T11:08:58Z</time></trkpt><trkpt lat="43.43640076747835" lon="13.240039192498614"><ele>208.66666666666669</ele><time>2026-04-25T11:08:59Z</time></trkpt><trkpt lat="43.43650645776509" lon="13.240228019349825"><ele>208.33333333333331</ele><time>2026-04-25T11:09:00Z</time></trkpt><trkpt lat="43.436606098981315" lon="13.240412221590177"><ele>208.0</ele><time>2026-04-25T11:09:01Z</time></trkpt><trkpt lat="43.43670153038855" lon="13.24058574787938"><ele>207.5</ele><time>2026-04-25T11:09:02Z</time></trkpt><trkpt lat="43.436796341769735" lon="13.240732962444001"><ele>207.0</ele><time>2026-04-25T11:09:03Z</time></trkpt><trkpt lat="43.436868758264424" lon="13.240901962176965"><ele>206.5</ele><time>2026-04-25T11:09:04Z</time></trkpt><trkpt lat="43.43695821122948" lon="13.241061791039312"><ele>206.0</ele><time>2026-04-25T11:09:05Z</time></trkpt><trkpt lat="43.43704882533124" lon="13.241210667284326"><ele>206.0</ele><time>2026-04-25T11:09:06Z</time></trkpt><trkpt lat="43.43712501625099" lon="13.241349411556913"><ele>206.0</ele><time>2026-04-25T11:09:07Z</time></trkpt><trkpt lat="43.437192938642404" lon="13.24148233165789"><ele>206.0</ele><time>2026-04-25T11:09:08Z</time></trkpt><trkpt lat="43.43725776628169" lon="13.241606388079994"><ele>206.0</ele><time>2026-04-25T11:09:09Z</time></trkpt><trkpt lat="43.43732133774304" lon="13.241720384903976"><ele>206.0</ele><time>2026-04-25T11:09:10Z</time></trkpt><trkpt lat="43.4373787647175" lon="13.241827798202127"><ele>206.0</ele><time>2026-04-25T11:09:11Z</time></trkpt><trkpt lat="43.43744035707953" lon="13.241929910325931"><ele>206.0</ele><time>2026-04-25T11:09:12Z</time></trkpt><trkpt lat="43.43749678335832" lon="13.242028682785095"><ele>206.0</ele><time>2026-04-25T11:09:13Z</time></trkpt><trkpt lat="43.437558428352816" lon="13.242129485772198"><ele>206.0</ele><time>2026-04-25T11:09:14Z</time></trkpt><trkpt lat="43.43761963561597" lon="13.242232314643445"><ele>205.66666666666669</ele><time>2026-04-25T11:09:15Z</time></trkpt><trkpt lat="43.43766383038039" lon="13.242324271031881"><ele>205.33333333333334</ele><time>2026-04-25T11:09:16Z</time></trkpt><trkpt lat="43.43770991010038" lon="13.242404080018925"><ele>205.0</ele><time>2026-04-25T11:09:17Z</time></trkpt><trkpt lat="43.437784964898995" lon="13.24251047799868"><ele>204.66666666666669</ele><time>2026-04-25T11:09:19Z</time></trkpt><trkpt lat="43.43784305302187" lon="13.24263324979202"><ele>204.33333333333334</ele><time>2026-04-25T11:09:21Z</time></trkpt><trkpt lat="43.437893200867634" lon="13.242720680745755"><ele>204.0</ele><time>2026-04-25T11:09:23Z</time></trkpt><trkpt lat="43.43793977046007" lon="13.242803586469659"><ele>204.33333333333334</ele><time>2026-04-25T11:09:26Z</time></trkpt><trkpt lat="43.437993513903855" lon="13.24289315572859"><ele>204.66666666666669</ele><time>2026-04-25T11:09:42Z</time></trkpt><trkpt lat="43.43803325038601" lon="13.242972403846268"><ele>205.0</ele><time>2026-04-25T11:09:43Z</time></trkpt><trkpt lat="43.438086194738695" lon="13.243056549133232"><ele>205.33333333333334</ele><time>2026-04-25T11:09:44Z</time></trkpt><trkpt lat="43.43815087128203" lon="13.243143367614554"><ele>205.66666666666669</ele><time>2026-04-25T11:09:45Z</time></trkpt><trkpt lat="43.43822124893053" lon="13.243240300223222"><ele>206.0</ele><time>2026-04-25T11:09:46Z</time></trkpt><trkpt lat="43.43830029978812" lon="13.243345783970051"><ele>206.25</ele><time>2026-04-25T11:09:47Z</time></trkpt><trkpt lat="43.43840314951659" lon="13.24346632732991"><ele>206.5</ele><time>2026-04-25T11:09:48Z</time></trkpt><trkpt lat="43.43849953334243" lon="13.243576880030394"><ele>206.75</ele><time>2026-04-25T11:09:49Z</time></trkpt><trkpt lat="43.43859746827628" lon="13.243690826269853"><ele>207.0</ele><time>2026-04-25T11:09:50Z</time></trkpt><trkpt lat="43.43869992117931" lon="13.243801162069342"><ele>207.0</ele><time>2026-04-25T11:09:51Z</time></trkpt><trkpt lat="43.438800244284195" lon="13.24391932816794"><ele>207.0</ele><time>2026-04-25T11:09:52Z</time></trkpt><trkpt lat="43.438886486978696" lon="13.244044422458726"><ele>207.0</ele><time>2026-04-25T11:09:53Z</time></trkpt><trkpt lat="43.438974077593635" lon="13.244180419865058"><ele>207.0</ele><time>2026-04-25T11:09:54Z</time></trkpt><trkpt lat="43.43906056431167" lon="13.244320845636366"><ele>205.75</ele><time>2026-04-25T11:09:55Z</time></trkpt><trkpt lat="43.43914150262088" lon="13.244475375996519"><ele>204.5</ele><time>2026-04-25T11:09:56Z</time></trkpt><trkpt lat="43.43921232166445" lon="13.244626490543409"><ele>203.25</ele><time>2026-04-25T11:09:57Z</time></trkpt><trkpt lat="43.43928484291014" lon="13.24477883049911"><ele>202.0</ele><time>2026-04-25T11:09:58Z</time></trkpt><trkpt lat="43.43936315778245" lon="13.244926271001555"><ele>201.5</ele><time>2026-04-25T11:09:59Z</time></trkpt><trkpt lat="43.439444451871374" lon="13.245078834600863"><ele>201.0</ele><time>2026-04-25T11:10:00Z</time></trkpt><trkpt lat="43.439528366868" lon="13.245233768413458"><ele>200.5</ele><time>2026-04-25T11:10:01Z</time></trkpt><trkpt lat="43.43961572782956" lon="13.24539287659374"><ele>200.0</ele><time>2026-04-25T11:10:02Z</time></trkpt><trkpt lat="43.439698155816004" lon="13.24556489968739"><ele>199.0</ele><time>2026-04-25T11:10:03Z</time></trkpt><trkpt lat="43.439783819529886" lon="13.245732587084358"><ele>198.0</ele><time>2026-04-25T11:10:04Z</time></trkpt><trkpt lat="43.43987743042603" lon="13.24590245085794"><ele>197.0</ele><time>2026-04-25T11:10:05Z</time></trkpt><trkpt lat="43.43997172436197" lon="13.246079742899523"><ele>197.0</ele><time>2026-04-25T11:10:06Z</time></trkpt><trkpt lat="43.44006828862877" lon="13.246262970106972"><ele>197.0</ele><time>2026-04-25T11:10:07Z</time></trkpt><trkpt lat="43.44016658661184" lon="13.246453850378161"><ele>197.0</ele><time>2026-04-25T11:10:08Z</time></trkpt><trkpt lat="43.44027500321154" lon="13.24665358181908"><ele>195.66666666666669</ele><time>2026-04-25T11:10:09Z</time></trkpt><trkpt lat="43.44039337263706" lon="13.246860739311494"><ele>194.33333333333331</ele><time>2026-04-25T11:10:10Z</time></trkpt><trkpt lat="43.44051488652339" lon="13.247083091251437"><ele>193.0</ele><time>2026-04-25T11:10:11Z</time></trkpt><trkpt lat="43.44063583433485" lon="13.24731230421615"><ele>196.0</ele><time>2026-04-25T11:10:12Z</time></trkpt><trkpt lat="43.44075992818605" lon="13.247548884371009"><ele>199.0</ele><time>2026-04-25T11:10:13Z</time></trkpt><trkpt lat="43.440892221004724" lon="13.2477893882162"><ele>202.0</ele><time>2026-04-25T11:10:14Z</time></trkpt><trkpt lat="43.441026396707585" lon="13.2480316403486"><ele>200.5</ele><time>2026-04-25T11:10:15Z</time></trkpt><trkpt lat="43.44117954336816" lon="13.248268359290122"><ele>199.0</ele><time>2026-04-25T11:10:16Z</time></trkpt><trkpt lat="43.44133318844837" lon="13.248501653654714"><ele>202.0</ele><time>2026-04-25T11:10:17Z</time></trkpt><trkpt lat="43.44148980332751" lon="13.248729217529325"><ele>205.0</ele><time>2026-04-25T11:10:18Z</time></trkpt><trkpt lat="43.44165262047649" lon="13.248953807071725"><ele>200.5</ele><time>2026-04-25T11:10:19Z</time></trkpt><trkpt lat="43.44182082938764" lon="13.249172969297708"><ele>196.0</ele><time>2026-04-25T11:10:20Z</time></trkpt><trkpt lat="43.44199086398428" lon="13.24939285453015"><ele>196.0</ele><time>2026-04-25T11:10:21Z</time></trkpt><trkpt lat="43.44217038572225" lon="13.249614995436385"><ele>196.0</ele><time>2026-04-25T11:10:22Z</time></trkpt><trkpt lat="43.44234915729329" lon="13.249836479733501"><ele>196.0</ele><time>2026-04-25T11:10:23Z</time></trkpt><trkpt lat="43.442530094101315" lon="13.250056486482505"><ele>196.0</ele><time>2026-04-25T11:10:24Z</time></trkpt><trkpt lat="43.44270998831532" lon="13.250279809735696"><ele>196.0</ele><time>2026-04-25T11:10:25Z</time></trkpt><trkpt lat="43.44289294535511" lon="13.250503737524683"><ele>196.0</ele><time>2026-04-25T11:10:26Z</time></trkpt><trkpt lat="43.44307763960503" lon="13.250725193404758"><ele>193.5</ele><time>2026-04-25T11:10:27Z</time></trkpt><trkpt lat="43.44326310535956" lon="13.250950096271195"><ele>191.0</ele><time>2026-04-25T11:10:27.999Z</time></trkpt><trkpt lat="43.44344784031532" lon="13.251177353654034"><ele>191.0</ele><time>2026-04-25T11:10:28.999Z</time></trkpt><trkpt lat="43.44363300036059" lon="13.25140670262691"><ele>191.0</ele><time>2026-04-25T11:10:29.999Z</time></trkpt><trkpt lat="43.44382388503469" lon="13.251635903318713"><ele>189.0</ele><time>2026-04-25T11:10:30.999Z</time></trkpt><trkpt lat="43.44401000873885" lon="13.251869300030187"><ele>187.0</ele><time>2026-04-25T11:10:32Z</time></trkpt><trkpt lat="43.444172516488706" lon="13.252096305798595"><ele>182.0</ele><time>2026-04-25T11:10:33Z</time></trkpt><trkpt lat="43.44435376486254" lon="13.252312507504536"><ele>177.0</ele><time>2026-04-25T11:10:34Z</time></trkpt><trkpt lat="43.44452446255933" lon="13.252525739387218"><ele>175.33333333333334</ele><time>2026-04-25T11:10:35Z</time></trkpt><trkpt lat="43.44469283578553" lon="13.252712041086713"><ele>173.66666666666669</ele><time>2026-04-25T11:10:36Z</time></trkpt><trkpt lat="43.444860872960376" lon="13.25286611892487"><ele>172.0</ele><time>2026-04-25T11:10:37Z</time></trkpt><trkpt lat="43.445024427047464" lon="13.253005396753226"><ele>172.0</ele><time>2026-04-25T11:10:38Z</time></trkpt><trkpt lat="43.445188005209936" lon="13.253117386637738"><ele>172.0</ele><time>2026-04-25T11:10:39Z</time></trkpt><trkpt lat="43.44534616632336" lon="13.253210158819556"><ele>172.0</ele><time>2026-04-25T11:10:40Z</time></trkpt><trkpt lat="43.44549123719533" lon="13.253270982413778"><ele>170.25</ele><time>2026-04-25T11:10:41Z</time></trkpt><trkpt lat="43.44563393972636" lon="13.253295003570544"><ele>168.5</ele><time>2026-04-25T11:10:42Z</time></trkpt><trkpt lat="43.445773710069446" lon="13.253270024571647"><ele>166.75</ele><time>2026-04-25T11:10:43Z</time></trkpt><trkpt lat="43.4458901066706" lon="13.253217523873776"><ele>165.0</ele><time>2026-04-25T11:10:44Z</time></trkpt><trkpt lat="43.44597591890953" lon="13.25317204944064"><ele>165.83333333333334</ele><time>2026-04-25T11:10:45Z</time></trkpt><trkpt lat="43.446040185346305" lon="13.253117229328645"><ele>166.66666666666666</ele><time>2026-04-25T11:10:47Z</time></trkpt><trkpt lat="43.4461134857512" lon="13.253074444099001"><ele>167.5</ele><time>2026-04-25T11:12:06Z</time></trkpt><trkpt lat="43.446177297774085" lon="13.253024444480943"><ele>168.33333333333331</ele><time>2026-04-25T11:12:07Z</time></trkpt><trkpt lat="43.4462437367078" lon="13.252973668023696"><ele>169.16666666666666</ele><time>2026-04-25T11:12:08Z</time></trkpt><trkpt lat="43.4463130078254" lon="13.252922494520037"><ele>170.0</ele><time>2026-04-25T11:12:09Z</time></trkpt><trkpt lat="43.446387470038594" lon="13.252881072485273"><ele>170.8</ele><time>2026-04-25T11:12:10Z</time></trkpt><trkpt lat="43.446466137369995" lon="13.252860084128924"><ele>171.6</ele><time>2026-04-25T11:12:11Z</time></trkpt><trkpt lat="43.4465552721604" lon="13.25285144009279"><ele>172.39999999999998</ele><time>2026-04-25T11:12:12Z</time></trkpt><trkpt lat="43.44664068773883" lon="13.25289279995411"><ele>173.2</ele><time>2026-04-25T11:12:13Z</time></trkpt><trkpt lat="43.446716356339344" lon="13.252975304998994"><ele>174.0</ele><time>2026-04-25T11:12:14Z</time></trkpt><trkpt lat="43.44678240050499" lon="13.253095965175246"><ele>173.0</ele><time>2026-04-25T11:12:15Z</time></trkpt><trkpt lat="43.44685707764293" lon="13.253227488201825"><ele>172.0</ele><time>2026-04-25T11:12:16Z</time></trkpt><trkpt lat="43.4469402946751" lon="13.25336855752728"><ele>171.0</ele><time>2026-04-25T11:12:17Z</time></trkpt><trkpt lat="43.44702325880217" lon="13.253525474578474"><ele>170.0</ele><time>2026-04-25T11:12:18Z</time></trkpt><trkpt lat="43.44710650248757" lon="13.253696010166479"><ele>172.0</ele><time>2026-04-25T11:12:19Z</time></trkpt><trkpt lat="43.44720005857514" lon="13.25385737522417"><ele>174.0</ele><time>2026-04-25T11:12:20Z</time></trkpt><trkpt lat="43.44728690972514" lon="13.253991679680366"><ele>176.0</ele><time>2026-04-25T11:12:21Z</time></trkpt><trkpt lat="43.447403010139574" lon="13.254115003550014"><ele>178.0</ele><time>2026-04-25T11:12:22Z</time></trkpt><trkpt lat="43.447538527505614" lon="13.254216479039734"><ele>178.0</ele><time>2026-04-25T11:12:23Z</time></trkpt><trkpt lat="43.44768278204182" lon="13.254316819514893"><ele>178.0</ele><time>2026-04-25T11:12:24Z</time></trkpt><trkpt lat="43.447833051267956" lon="13.25442775685785"><ele>178.0</ele><time>2026-04-25T11:12:25Z</time></trkpt><trkpt lat="43.44799530907094" lon="13.254538137047703"><ele>179.33333333333334</ele><time>2026-04-25T11:12:26Z</time></trkpt><trkpt lat="43.44816661633031" lon="13.254643370690365"><ele>180.66666666666666</ele><time>2026-04-25T11:12:27Z</time></trkpt><trkpt lat="43.44834437576857" lon="13.25475774646252"><ele>182.0</ele><time>2026-04-25T11:12:28Z</time></trkpt><trkpt lat="43.448527178576725" lon="13.25487358741236"><ele>182.0</ele><time>2026-04-25T11:12:28.999Z</time></trkpt><trkpt lat="43.448712002933746" lon="13.25499844703832"><ele>182.0</ele><time>2026-04-25T11:12:29.999Z</time></trkpt><trkpt lat="43.44889749587092" lon="13.255113637408595"><ele>182.0</ele><time>2026-04-25T11:12:30.999Z</time></trkpt><trkpt lat="43.44907860413309" lon="13.25523233549833"><ele>184.66666666666666</ele><time>2026-04-25T11:12:31.999Z</time></trkpt><trkpt lat="43.449255538488025" lon="13.255351872826292"><ele>187.33333333333334</ele><time>2026-04-25T11:12:32.999Z</time></trkpt><trkpt lat="43.44943332851728" lon="13.255468642892343"><ele>190.0</ele><time>2026-04-25T11:12:33.999Z</time></trkpt><trkpt lat="43.449601296772464" lon="13.255573039056161"><ele>190.0</ele><time>2026-04-25T11:12:34.999Z</time></trkpt><trkpt lat="43.449751283327174" lon="13.255677882068136"><ele>190.0</ele><time>2026-04-25T11:12:35.999Z</time></trkpt><trkpt lat="43.44991543411465" lon="13.255785873637862"><ele>190.0</ele><time>2026-04-25T11:12:36.999Z</time></trkpt><trkpt lat="43.45008448591" lon="13.255898829814152"><ele>190.0</ele><time>2026-04-25T11:12:38Z</time></trkpt><trkpt lat="43.450254065247506" lon="13.256014929137976"><ele>190.0</ele><time>2026-04-25T11:12:39Z</time></trkpt><trkpt lat="43.45042626691618" lon="13.256131844685337"><ele>190.0</ele><time>2026-04-25T11:12:40Z</time></trkpt><trkpt lat="43.45059998944879" lon="13.256249463448812"><ele>189.33333333333334</ele><time>2026-04-25T11:12:41Z</time></trkpt><trkpt lat="43.45076197059995" lon="13.256359226010193"><ele>188.66666666666666</ele><time>2026-04-25T11:12:42Z</time></trkpt><trkpt lat="43.45091556964725" lon="13.256461773997348"><ele>188.0</ele><time>2026-04-25T11:12:43Z</time></trkpt><trkpt lat="43.45106168726319" lon="13.256557982057744"><ele>188.0</ele><time>2026-04-25T11:12:44Z</time></trkpt><trkpt lat="43.45120120810886" lon="13.256654819099527"><ele>188.0</ele><time>2026-04-25T11:12:45Z</time></trkpt><trkpt lat="43.45133784599404" lon="13.256772703807108"><ele>188.0</ele><time>2026-04-25T11:12:46Z</time></trkpt><trkpt lat="43.45146409482927" lon="13.256915580253018"><ele>188.0</ele><time>2026-04-25T11:12:47Z</time></trkpt><trkpt lat="43.45157790467387" lon="13.25709934839486"><ele>188.0</ele><time>2026-04-25T11:12:48Z</time></trkpt><trkpt lat="43.45167581639887" lon="13.257328385771256"><ele>188.0</ele><time>2026-04-25T11:12:49Z</time></trkpt><trkpt lat="43.45176146574981" lon="13.257577588398405"><ele>188.0</ele><time>2026-04-25T11:12:50Z</time></trkpt><trkpt lat="43.45184509474864" lon="13.257841841881401"><ele>188.0</ele><time>2026-04-25T11:12:51Z</time></trkpt><trkpt lat="43.45193127724733" lon="13.258113963758149"><ele>188.0</ele><time>2026-04-25T11:12:52Z</time></trkpt><trkpt lat="43.45202313702794" lon="13.258388613872205"><ele>185.5</ele><time>2026-04-25T11:12:53Z</time></trkpt><trkpt lat="43.45211927409204" lon="13.258671436507932"><ele>183.0</ele><time>2026-04-25T11:12:54Z</time></trkpt><trkpt lat="43.452219129989594" lon="13.258970561965805"><ele>183.0</ele><time>2026-04-25T11:12:55Z</time></trkpt><trkpt lat="43.452317818052556" lon="13.25927344348946"><ele>183.0</ele><time>2026-04-25T11:12:56Z</time></trkpt><trkpt lat="43.45241648761177" lon="13.25957573246014"><ele>182.0</ele><time>2026-04-25T11:12:57Z</time></trkpt><trkpt lat="43.452513323619186" lon="13.25987138531831"><ele>181.0</ele><time>2026-04-25T11:12:58Z</time></trkpt><trkpt lat="43.45260072190942" lon="13.260155975530749"><ele>181.0</ele><time>2026-04-25T11:12:59Z</time></trkpt><trkpt lat="43.45269030617949" lon="13.260440479042256"><ele>181.0</ele><time>2026-04-25T11:13:00Z</time></trkpt><trkpt lat="43.452801459736996" lon="13.260709704141256"><ele>180.0</ele><time>2026-04-25T11:13:01Z</time></trkpt><trkpt lat="43.452937379241206" lon="13.26096994264183"><ele>179.0</ele><time>2026-04-25T11:13:02Z</time></trkpt><trkpt lat="43.45309789114893" lon="13.261220015747332"><ele>175.5</ele><time>2026-04-25T11:13:03Z</time></trkpt><trkpt lat="43.45326936975653" lon="13.261473778591121"><ele>172.0</ele><time>2026-04-25T11:13:04Z</time></trkpt><trkpt lat="43.45343980574318" lon="13.261733358592014"><ele>172.0</ele><time>2026-04-25T11:13:05Z</time></trkpt><trkpt lat="43.453615633792786" lon="13.262000583255793"><ele>172.0</ele><time>2026-04-25T11:13:06Z</time></trkpt><trkpt lat="43.45379365444118" lon="13.26226954864357"><ele>173.0</ele><time>2026-04-25T11:13:07Z</time></trkpt><trkpt lat="43.453976185547425" lon="13.262533868208722"><ele>174.0</ele><time>2026-04-25T11:13:08Z</time></trkpt><trkpt lat="43.45415523638925" lon="13.262801454049528"><ele>174.0</ele><time>2026-04-25T11:13:09Z</time></trkpt><trkpt lat="43.45433528265422" lon="13.263068300625592"><ele>174.0</ele><time>2026-04-25T11:13:10Z</time></trkpt><trkpt lat="43.454516875308705" lon="13.263335869926241"><ele>174.0</ele><time>2026-04-25T11:13:11Z</time></trkpt><trkpt lat="43.45469543723113" lon="13.263604482299256"><ele>174.0</ele><time>2026-04-25T11:13:12Z</time></trkpt><trkpt lat="43.45487275652775" lon="13.263872782702627"><ele>172.5</ele><time>2026-04-25T11:13:13Z</time></trkpt><trkpt lat="43.45505147418648" lon="13.264141036582183"><ele>171.0</ele><time>2026-04-25T11:13:14Z</time></trkpt><trkpt lat="43.45523768399804" lon="13.264410073385143"><ele>171.0</ele><time>2026-04-25T11:13:15Z</time></trkpt><trkpt lat="43.45543360718219" lon="13.264677448458544"><ele>171.0</ele><time>2026-04-25T11:13:16Z</time></trkpt><trkpt lat="43.455634736694456" lon="13.26494425375316"><ele>170.0</ele><time>2026-04-25T11:13:17Z</time></trkpt><trkpt lat="43.45584298497384" lon="13.265210215495625"><ele>169.0</ele><time>2026-04-25T11:13:18Z</time></trkpt><trkpt lat="43.45604883714849" lon="13.265479982320668"><ele>169.5</ele><time>2026-04-25T11:13:19Z</time></trkpt><trkpt lat="43.45625744045591" lon="13.265750312593035"><ele>170.0</ele><time>2026-04-25T11:13:20Z</time></trkpt><trkpt lat="43.45646707643424" lon="13.266024888074954"><ele>170.0</ele><time>2026-04-25T11:13:21Z</time></trkpt><trkpt lat="43.4566774904969" lon="13.266303769755647"><ele>170.0</ele><time>2026-04-25T11:13:22Z</time></trkpt><trkpt lat="43.45688657206491" lon="13.266577461513373"><ele>170.0</ele><time>2026-04-25T11:13:23Z</time></trkpt><trkpt lat="43.45708920300063" lon="13.26683693034583"><ele>170.0</ele><time>2026-04-25T11:13:24Z</time></trkpt><trkpt lat="43.4572813671865" lon="13.267085202353591"><ele>169.0</ele><time>2026-04-25T11:13:25Z</time></trkpt><trkpt lat="43.45746736416858" lon="13.267335219766858"><ele>168.0</ele><time>2026-04-25T11:13:26Z</time></trkpt><trkpt lat="43.45765849302896" lon="13.267575561838154"><ele>168.0</ele><time>2026-04-25T11:13:27Z</time></trkpt><trkpt lat="43.457855835554646" lon="13.267806012774"><ele>168.0</ele><time>2026-04-25T11:13:28Z</time></trkpt><trkpt lat="43.45806367991289" lon="13.26802572816602"><ele>167.5</ele><time>2026-04-25T11:13:29Z</time></trkpt><trkpt lat="43.45827066953827" lon="13.268240882448291"><ele>167.0</ele><time>2026-04-25T11:13:30Z</time></trkpt><trkpt lat="43.45847719784925" lon="13.268455639136361"><ele>167.0</ele><time>2026-04-25T11:13:31Z</time></trkpt><trkpt lat="43.45867593724888" lon="13.268656038941302"><ele>167.0</ele><time>2026-04-25T11:13:32Z</time></trkpt><trkpt lat="43.458862623991436" lon="13.268841354596853"><ele>167.33333333333331</ele><time>2026-04-25T11:13:33Z</time></trkpt><trkpt lat="43.45903980455632" lon="13.269016989893727"><ele>167.66666666666666</ele><time>2026-04-25T11:13:34Z</time></trkpt><trkpt lat="43.45920172929982" lon="13.269191954044809"><ele>168.0</ele><time>2026-04-25T11:13:35Z</time></trkpt><trkpt lat="43.45933793870765" lon="13.26939548461136"><ele>168.0</ele><time>2026-04-25T11:13:36Z</time></trkpt><trkpt lat="43.45942961656679" lon="13.269660768654619"><ele>168.0</ele><time>2026-04-25T11:13:37Z</time></trkpt><trkpt lat="43.45949790875984" lon="13.269962094273682"><ele>168.0</ele><time>2026-04-25T11:13:38Z</time></trkpt><trkpt lat="43.45952773044538" lon="13.270185887975606"><ele>166.0</ele><time>2026-04-25T11:13:39Z</time></trkpt><trkpt lat="43.45955457266496" lon="13.27048157673009"><ele>164.0</ele><time>2026-04-25T11:13:40Z</time></trkpt><trkpt lat="43.45957860345571" lon="13.270812404082502"><ele>163.0</ele><time>2026-04-25T11:13:41Z</time></trkpt><trkpt lat="43.459591917876054" lon="13.27113878540808"><ele>162.0</ele><time>2026-04-25T11:13:42Z</time></trkpt><trkpt lat="43.45958836621986" lon="13.271474266625251"><ele>161.5</ele><time>2026-04-25T11:13:43Z</time></trkpt><trkpt lat="43.45957993480853" lon="13.271854105241186"><ele>161.0</ele><time>2026-04-25T11:13:44Z</time></trkpt><trkpt lat="43.45958431686149" lon="13.272266623401917"><ele>162.0</ele><time>2026-04-25T11:13:45Z</time></trkpt><trkpt lat="43.459569849046964" lon="13.272524635964432"><ele>163.0</ele><time>2026-04-25T11:13:46Z</time></trkpt><trkpt lat="43.45942406304889" lon="13.272854566215667"><ele>162.5</ele><time>2026-04-25T11:13:47Z</time></trkpt><trkpt lat="43.459353357787386" lon="13.273172672063602"><ele>162.0</ele><time>2026-04-25T11:13:48Z</time></trkpt><trkpt lat="43.45930971877099" lon="13.273466962807793"><ele>162.0</ele><time>2026-04-25T11:13:49Z</time></trkpt><trkpt lat="43.4592573652045" lon="13.273752661598223"><ele>162.0</ele><time>2026-04-25T11:13:50Z</time></trkpt><trkpt lat="43.45921822115876" lon="13.2740557757851"><ele>162.0</ele><time>2026-04-25T11:13:51Z</time></trkpt><trkpt lat="43.459196881739246" lon="13.274335711489831"><ele>160.66666666666666</ele><time>2026-04-25T11:13:52Z</time></trkpt><trkpt lat="43.45919315135007" lon="13.274629104262768"><ele>159.33333333333331</ele><time>2026-04-25T11:13:53Z</time></trkpt><trkpt lat="43.45920949490081" lon="13.27492356206879"><ele>158.0</ele><time>2026-04-25T11:13:54Z</time></trkpt><trkpt lat="43.45927564804099" lon="13.27522718944611"><ele>157.5</ele><time>2026-04-25T11:13:55Z</time></trkpt><trkpt lat="43.45934912442665" lon="13.275530268557786"><ele>157.0</ele><time>2026-04-25T11:13:56Z</time></trkpt><trkpt lat="43.45943829626004" lon="13.27582529410833"><ele>156.0</ele><time>2026-04-25T11:13:57Z</time></trkpt><trkpt lat="43.45953363300718" lon="13.276122901405431"><ele>155.0</ele><time>2026-04-25T11:13:58Z</time></trkpt><trkpt lat="43.45964435483625" lon="13.27640862939843"><ele>155.5</ele><time>2026-04-25T11:13:59Z</time></trkpt><trkpt lat="43.45977028384273" lon="13.276696638823617"><ele>156.0</ele><time>2026-04-25T11:14:00Z</time></trkpt><trkpt lat="43.459913401591756" lon="13.276979854271774"><ele>156.0</ele><time>2026-04-25T11:14:01Z</time></trkpt><trkpt lat="43.46004972419943" lon="13.277256057962294"><ele>156.0</ele><time>2026-04-25T11:14:02Z</time></trkpt><trkpt lat="43.46018499517969" lon="13.27752887243951"><ele>155.0</ele><time>2026-04-25T11:14:03Z</time></trkpt><trkpt lat="43.46030991928071" lon="13.277784546301323"><ele>154.0</ele><time>2026-04-25T11:14:04Z</time></trkpt><trkpt lat="43.460420212826406" lon="13.278005703382298"><ele>153.0</ele><time>2026-04-25T11:14:05Z</time></trkpt><trkpt lat="43.460516175106534" lon="13.278192635206858"><ele>151.33333333333334</ele><time>2026-04-25T11:14:06Z</time></trkpt><trkpt lat="43.460595881786155" lon="13.278360635116096"><ele>149.66666666666669</ele><time>2026-04-25T11:14:07Z</time></trkpt><trkpt lat="43.46070357968099" lon="13.278486667513993"><ele>148.0</ele><time>2026-04-25T11:14:08Z</time></trkpt><trkpt lat="43.46086358936216" lon="13.278588804455739"><ele>148.0</ele><time>2026-04-25T11:14:09Z</time></trkpt><trkpt lat="43.46104531911471" lon="13.278664933488466"><ele>148.0</ele><time>2026-04-25T11:14:10Z</time></trkpt><trkpt lat="43.46122163393909" lon="13.278723433963338"><ele>148.0</ele><time>2026-04-25T11:14:11Z</time></trkpt><trkpt lat="43.4613725282363" lon="13.27875648975011"><ele>148.75</ele><time>2026-04-25T11:14:12Z</time></trkpt><trkpt lat="43.46150164360632" lon="13.278764353182478"><ele>149.5</ele><time>2026-04-25T11:14:13Z</time></trkpt><trkpt lat="43.46162599397121" lon="13.278725603962265"><ele>150.25</ele><time>2026-04-25T11:14:14Z</time></trkpt><trkpt lat="43.461761177389306" lon="13.278617256232266"><ele>151.0</ele><time>2026-04-25T11:14:15Z</time></trkpt><trkpt lat="43.4618735692341" lon="13.278460144908237"><ele>151.0</ele><time>2026-04-25T11:14:16Z</time></trkpt><trkpt lat="43.46196409711988" lon="13.278280244765678"><ele>151.0</ele><time>2026-04-25T11:14:17Z</time></trkpt><trkpt lat="43.46204451500234" lon="13.278116552443091"><ele>151.0</ele><time>2026-04-25T11:14:18Z</time></trkpt><trkpt lat="43.462129965908524" lon="13.278012298530571"><ele>151.0</ele><time>2026-04-25T11:14:19Z</time></trkpt><trkpt lat="43.462235664573726" lon="13.27800264876397"><ele>154.2</ele><time>2026-04-25T11:14:20Z</time></trkpt><trkpt lat="43.462324329700195" lon="13.278030874558942"><ele>157.39999999999998</ele><time>2026-04-25T11:14:21Z</time></trkpt><trkpt lat="43.462397478612765" lon="13.278108788708678"><ele>160.6</ele><time>2026-04-25T11:14:22Z</time></trkpt><trkpt lat="43.46248179814286" lon="13.278210203433686"><ele>163.79999999999998</ele><time>2026-04-25T11:14:23Z</time></trkpt><trkpt lat="43.46252977658593" lon="13.278289760783496"><ele>167.0</ele><time>2026-04-25T11:14:24Z</time></trkpt><trkpt lat="43.46258523700018" lon="13.27839485931723"><ele>167.0</ele><time>2026-04-25T11:14:25Z</time></trkpt><trkpt lat="43.462619084862496" lon="13.278590431597646"><ele>167.0</ele><time>2026-04-25T11:14:26Z</time></trkpt><trkpt lat="43.462712409250514" lon="13.278816887631109"><ele>167.0</ele><time>2026-04-25T11:14:27Z</time></trkpt><trkpt lat="43.46279631552406" lon="13.27900630093498"><ele>170.5</ele><time>2026-04-25T11:14:28Z</time></trkpt><trkpt lat="43.462900852206474" lon="13.279345750958376"><ele>174.0</ele><time>2026-04-25T11:14:29Z</time></trkpt><trkpt lat="43.46300632501829" lon="13.279581350582609"><ele>171.5</ele><time>2026-04-25T11:14:30Z</time></trkpt><trkpt lat="43.463106064894134" lon="13.279770337762715"><ele>169.0</ele><time>2026-04-25T11:14:31Z</time></trkpt><trkpt lat="43.46317811099613" lon="13.279950085558115"><ele>166.5</ele><time>2026-04-25T11:14:32Z</time></trkpt><trkpt lat="43.46324588971052" lon="13.280099207422762"><ele>164.0</ele><time>2026-04-25T11:14:33Z</time></trkpt><trkpt lat="43.4632897933513" lon="13.280244013979955"><ele>164.0</ele><time>2026-04-25T11:14:34Z</time></trkpt><trkpt lat="43.46332367089464" lon="13.280395068639521"><ele>164.0</ele><time>2026-04-25T11:14:34.999Z</time></trkpt><trkpt lat="43.463393269492094" lon="13.280622143224731"><ele>164.0</ele><time>2026-04-25T11:14:35.999Z</time></trkpt><trkpt lat="43.46345795570938" lon="13.280851624719396"><ele>162.33333333333331</ele><time>2026-04-25T11:14:36.999Z</time></trkpt><trkpt lat="43.46352586115238" lon="13.281085412849082"><ele>160.66666666666666</ele><time>2026-04-25T11:14:37.999Z</time></trkpt><trkpt lat="43.463590143865424" lon="13.28130968646108"><ele>159.0</ele><time>2026-04-25T11:14:38.999Z</time></trkpt><trkpt lat="43.46362632477558" lon="13.281534295216114"><ele>157.0</ele><time>2026-04-25T11:14:39.999Z</time></trkpt><trkpt lat="43.46362078224729" lon="13.281769232634725"><ele>155.0</ele><time>2026-04-25T11:14:40.999Z</time></trkpt><trkpt lat="43.46360350820123" lon="13.282036083839412"><ele>153.0</ele><time>2026-04-25T11:14:41.999Z</time></trkpt><trkpt lat="43.463564176002905" lon="13.28229105428436"><ele>152.66666666666666</ele><time>2026-04-25T11:14:42.999Z</time></trkpt><trkpt lat="43.46351937660662" lon="13.282578386986334"><ele>152.33333333333331</ele><time>2026-04-25T11:14:44Z</time></trkpt><trkpt lat="43.463476205443484" lon="13.282870196364618"><ele>152.0</ele><time>2026-04-25T11:14:45Z</time></trkpt><trkpt lat="43.46343288390724" lon="13.2831687286912"><ele>152.0</ele><time>2026-04-25T11:14:46Z</time></trkpt><trkpt lat="43.46338141837248" lon="13.28347637103443"><ele>152.0</ele><time>2026-04-25T11:14:47Z</time></trkpt><trkpt lat="43.4633396661661" lon="13.283801990778146"><ele>152.0</ele><time>2026-04-25T11:14:48Z</time></trkpt><trkpt lat="43.46332785492186" lon="13.28411439086714"><ele>152.0</ele><time>2026-04-25T11:14:49Z</time></trkpt><trkpt lat="43.46331643749348" lon="13.28444133664969"><ele>153.0</ele><time>2026-04-25T11:14:50Z</time></trkpt><trkpt lat="43.46329817287368" lon="13.284773175703624"><ele>154.0</ele><time>2026-04-25T11:14:51Z</time></trkpt><trkpt lat="43.46327081825856" lon="13.285114035755573"><ele>154.0</ele><time>2026-04-25T11:14:52Z</time></trkpt><trkpt lat="43.463261318885834" lon="13.285433505900937"><ele>154.0</ele><time>2026-04-25T11:14:53Z</time></trkpt><trkpt lat="43.463258325631756" lon="13.285744624854859"><ele>155.5</ele><time>2026-04-25T11:14:54Z</time></trkpt><trkpt lat="43.46324043106571" lon="13.286055952204055"><ele>157.0</ele><time>2026-04-25T11:14:55Z</time></trkpt><trkpt lat="43.46322044785735" lon="13.286365379402683"><ele>156.0</ele><time>2026-04-25T11:14:56Z</time></trkpt><trkpt lat="43.463215651719786" lon="13.286662862608434"><ele>155.0</ele><time>2026-04-25T11:14:57Z</time></trkpt><trkpt lat="43.463236002774075" lon="13.28697454126001"><ele>154.0</ele><time>2026-04-25T11:14:58Z</time></trkpt><trkpt lat="43.46328302456249" lon="13.287302587944017"><ele>151.5</ele><time>2026-04-25T11:14:59Z</time></trkpt><trkpt lat="43.463338793351696" lon="13.287635788638672"><ele>149.0</ele><time>2026-04-25T11:15:00Z</time></trkpt><trkpt lat="43.46343411304628" lon="13.287965726748649"><ele>148.0</ele><time>2026-04-25T11:15:01Z</time></trkpt><trkpt lat="43.46354248600461" lon="13.288282665121354"><ele>147.0</ele><time>2026-04-25T11:15:02Z</time></trkpt><trkpt lat="43.46365155243617" lon="13.288614238834619"><ele>147.0</ele><time>2026-04-25T11:15:03Z</time></trkpt><trkpt lat="43.46375325709279" lon="13.288953049951099"><ele>147.0</ele><time>2026-04-25T11:15:04Z</time></trkpt><trkpt lat="43.46383859092312" lon="13.289276661419745"><ele>148.5</ele><time>2026-04-25T11:15:05Z</time></trkpt><trkpt lat="43.46390149342054" lon="13.289589492371451"><ele>150.0</ele><time>2026-04-25T11:15:06Z</time></trkpt><trkpt lat="43.46396378750548" lon="13.289885347773884"><ele>150.0</ele><time>2026-04-25T11:15:07Z</time></trkpt><trkpt lat="43.46402894334034" lon="13.290169090464277"><ele>150.0</ele><time>2026-04-25T11:15:08Z</time></trkpt><trkpt lat="43.4641144285742" lon="13.290441768571396"><ele>150.0</ele><time>2026-04-25T11:15:09Z</time></trkpt><trkpt lat="43.464227352160975" lon="13.29070956824838"><ele>148.0</ele><time>2026-04-25T11:15:10Z</time></trkpt><trkpt lat="43.46434228487273" lon="13.290984283867502"><ele>146.0</ele><time>2026-04-25T11:15:11Z</time></trkpt><trkpt lat="43.46446033327181" lon="13.29126237660773"><ele>144.0</ele><time>2026-04-25T11:15:12Z</time></trkpt><trkpt lat="43.464598556725164" lon="13.291536702625036"><ele>142.0</ele><time>2026-04-25T11:15:13Z</time></trkpt><trkpt lat="43.46475034953072" lon="13.291784357115887"><ele>142.0</ele><time>2026-04-25T11:15:14Z</time></trkpt><trkpt lat="43.46489203298031" lon="13.292030107014291"><ele>142.0</ele><time>2026-04-25T11:15:15Z</time></trkpt><trkpt lat="43.46498854006026" lon="13.292227084748834"><ele>142.0</ele><time>2026-04-25T11:15:16Z</time></trkpt><trkpt lat="43.46507411762965" lon="13.292427206985781"><ele>142.0</ele><time>2026-04-25T11:15:17Z</time></trkpt><trkpt lat="43.46511825120296" lon="13.292639183762985"><ele>142.0</ele><time>2026-04-25T11:15:18Z</time></trkpt><trkpt lat="43.465172661306084" lon="13.29286307512889"><ele>142.0</ele><time>2026-04-25T11:15:19Z</time></trkpt><trkpt lat="43.465201672491155" lon="13.293160153147124"><ele>142.66666666666669</ele><time>2026-04-25T11:15:20Z</time></trkpt><trkpt lat="43.465215778518086" lon="13.293409173166943"><ele>143.33333333333334</ele><time>2026-04-25T11:15:21Z</time></trkpt><trkpt lat="43.46522875799927" lon="13.293648362819418"><ele>144.0</ele><time>2026-04-25T11:15:22Z</time></trkpt><trkpt lat="43.465244932665925" lon="13.293894377391771"><ele>143.66666666666666</ele><time>2026-04-25T11:15:23Z</time></trkpt><trkpt lat="43.46529910418947" lon="13.294153787287424"><ele>143.33333333333331</ele><time>2026-04-25T11:15:24Z</time></trkpt><trkpt lat="43.46533306013697" lon="13.29443771977431"><ele>143.0</ele><time>2026-04-25T11:15:25Z</time></trkpt><trkpt lat="43.465364836555196" lon="13.29471621812051"><ele>143.33333333333331</ele><time>2026-04-25T11:15:26Z</time></trkpt><trkpt lat="43.46539382787819" lon="13.294993324775435"><ele>143.66666666666666</ele><time>2026-04-25T11:15:27Z</time></trkpt><trkpt lat="43.46543536247165" lon="13.295230266351927"><ele>144.0</ele><time>2026-04-25T11:15:28Z</time></trkpt><trkpt lat="43.46548746454797" lon="13.29547404561106"><ele>144.33333333333334</ele><time>2026-04-25T11:15:29Z</time></trkpt><trkpt lat="43.46554663099306" lon="13.295716777238123"><ele>144.66666666666669</ele><time>2026-04-25T11:15:30Z</time></trkpt><trkpt lat="43.46562175396912" lon="13.295967704901956"><ele>145.0</ele><time>2026-04-25T11:15:31Z</time></trkpt><trkpt lat="43.46571405413502" lon="13.296226988774526"><ele>145.0</ele><time>2026-04-25T11:15:32Z</time></trkpt><trkpt lat="43.465823897758575" lon="13.296491515238344"><ele>145.0</ele><time>2026-04-25T11:15:33Z</time></trkpt><trkpt lat="43.46592700939694" lon="13.296781466610481"><ele>145.0</ele><time>2026-04-25T11:15:34Z</time></trkpt><trkpt lat="43.466033078845804" lon="13.297054873941835"><ele>145.0</ele><time>2026-04-25T11:15:35Z</time></trkpt><trkpt lat="43.4661442170483" lon="13.297342527753962"><ele>144.0</ele><time>2026-04-25T11:15:36Z</time></trkpt><trkpt lat="43.46626145773725" lon="13.297639074438173"><ele>143.0</ele><time>2026-04-25T11:15:37Z</time></trkpt><trkpt lat="43.46638579803856" lon="13.29793708257924"><ele>145.5</ele><time>2026-04-25T11:15:38Z</time></trkpt><trkpt lat="43.466500570722076" lon="13.298244499683648"><ele>148.0</ele><time>2026-04-25T11:15:39Z</time></trkpt><trkpt lat="43.46659761965764" lon="13.298566622519497"><ele>148.0</ele><time>2026-04-25T11:15:40Z</time></trkpt><trkpt lat="43.466676960446286" lon="13.298902483994247"><ele>148.0</ele><time>2026-04-25T11:15:41Z</time></trkpt><trkpt lat="43.46675051222825" lon="13.29924336756577"><ele>147.5</ele><time>2026-04-25T11:15:42Z</time></trkpt><trkpt lat="43.46682577330316" lon="13.299584130983261"><ele>147.0</ele><time>2026-04-25T11:15:43Z</time></trkpt><trkpt lat="43.466904310393346" lon="13.299919822101966"><ele>148.5</ele><time>2026-04-25T11:15:44Z</time></trkpt><trkpt lat="43.466972286343186" lon="13.300237531514815"><ele>150.0</ele><time>2026-04-25T11:15:45Z</time></trkpt><trkpt lat="43.46703019911155" lon="13.300529770143154"><ele>150.0</ele><time>2026-04-25T11:15:46Z</time></trkpt><trkpt lat="43.46708071444971" lon="13.300811846253566"><ele>150.0</ele><time>2026-04-25T11:15:47Z</time></trkpt><trkpt lat="43.467127150886746" lon="13.301043545626086"><ele>150.0</ele><time>2026-04-25T11:15:48Z</time></trkpt><trkpt lat="43.46716779339229" lon="13.301254752436249"><ele>149.75</ele><time>2026-04-25T11:15:49Z</time></trkpt><trkpt lat="43.46720545501814" lon="13.301450310132019"><ele>149.5</ele><time>2026-04-25T11:15:50Z</time></trkpt><trkpt lat="43.467237361041185" lon="13.30162952474576"><ele>149.25</ele><time>2026-04-25T11:15:51Z</time></trkpt><trkpt lat="43.46726737321597" lon="13.301798441056023"><ele>149.0</ele><time>2026-04-25T11:15:52Z</time></trkpt><trkpt lat="43.46727953093315" lon="13.301954392266284"><ele>149.0</ele><time>2026-04-25T11:15:53Z</time></trkpt><trkpt lat="43.467257158767964" lon="13.302100379752277"><ele>149.0</ele><time>2026-04-25T11:15:54Z</time></trkpt><trkpt lat="43.46723649317643" lon="13.302249850408542"><ele>149.0</ele><time>2026-04-25T11:15:55Z</time></trkpt><trkpt lat="43.46727898307165" lon="13.302407032907551"><ele>149.0</ele><time>2026-04-25T11:15:56Z</time></trkpt><trkpt lat="43.467360317222216" lon="13.302582543281696"><ele>148.66666666666666</ele><time>2026-04-25T11:15:57Z</time></trkpt><trkpt lat="43.467460691349494" lon="13.302764642301215"><ele>148.33333333333334</ele><time>2026-04-25T11:15:58Z</time></trkpt><trkpt lat="43.46756036678826" lon="13.302974481953392"><ele>148.0</ele><time>2026-04-25T11:15:59Z</time></trkpt><trkpt lat="43.467652166801145" lon="13.303215139594291"><ele>147.33333333333334</ele><time>2026-04-25T11:16:00Z</time></trkpt><trkpt lat="43.46773916160693" lon="13.303489369429577"><ele>146.66666666666666</ele><time>2026-04-25T11:16:01Z</time></trkpt><trkpt lat="43.46779009379335" lon="13.303776506586905"><ele>146.0</ele><time>2026-04-25T11:16:02Z</time></trkpt><trkpt lat="43.46780649817342" lon="13.304088980516255"><ele>145.5</ele><time>2026-04-25T11:16:03Z</time></trkpt><trkpt lat="43.46781655978543" lon="13.304424450863086"><ele>145.0</ele><time>2026-04-25T11:16:04Z</time></trkpt><trkpt lat="43.46779459878127" lon="13.30471395324656"><ele>145.33333333333334</ele><time>2026-04-25T11:16:05Z</time></trkpt><trkpt lat="43.46776842444956" lon="13.304950163188648"><ele>145.66666666666666</ele><time>2026-04-25T11:16:06Z</time></trkpt><trkpt lat="43.467756892938546" lon="13.305164970980021"><ele>146.0</ele><time>2026-04-25T11:16:07Z</time></trkpt><trkpt lat="43.46777141921756" lon="13.305408177459535"><ele>146.33333333333331</ele><time>2026-04-25T11:16:08Z</time></trkpt><trkpt lat="43.46779749047891" lon="13.305674554281504"><ele>146.66666666666666</ele><time>2026-04-25T11:16:09Z</time></trkpt><trkpt lat="43.4678266792132" lon="13.30595985939655"><ele>147.0</ele><time>2026-04-25T11:16:10Z</time></trkpt><trkpt lat="43.46785942983245" lon="13.306256723136428"><ele>146.5</ele><time>2026-04-25T11:16:11Z</time></trkpt><trkpt lat="43.46789316235442" lon="13.306574029345047"><ele>146.0</ele><time>2026-04-25T11:16:12Z</time></trkpt><trkpt lat="43.467926899630086" lon="13.3068957741448"><ele>147.0</ele><time>2026-04-25T11:16:13Z</time></trkpt><trkpt lat="43.46796696025968" lon="13.307225540809004"><ele>148.0</ele><time>2026-04-25T11:16:14Z</time></trkpt><trkpt lat="43.46801090828907" lon="13.307561540404562"><ele>148.0</ele><time>2026-04-25T11:16:15Z</time></trkpt><trkpt lat="43.46806511668021" lon="13.307909861842735"><ele>148.0</ele><time>2026-04-25T11:16:16Z</time></trkpt><trkpt lat="43.46812169511899" lon="13.308252082684115"><ele>146.0</ele><time>2026-04-25T11:16:17Z</time></trkpt><trkpt lat="43.46817445185013" lon="13.308602886631006"><ele>144.0</ele><time>2026-04-25T11:16:18Z</time></trkpt><trkpt lat="43.468245763072645" lon="13.308949217163716"><ele>142.5</ele><time>2026-04-25T11:16:19Z</time></trkpt><trkpt lat="43.46832456621814" lon="13.309295928788975"><ele>141.0</ele><time>2026-04-25T11:16:20Z</time></trkpt><trkpt lat="43.468408699151574" lon="13.309629319427254"><ele>141.0</ele><time>2026-04-25T11:16:21Z</time></trkpt><trkpt lat="43.468500640888465" lon="13.309945059545614"><ele>141.0</ele><time>2026-04-25T11:16:22Z</time></trkpt><trkpt lat="43.46861030555835" lon="13.31025413589599"><ele>141.0</ele><time>2026-04-25T11:16:23Z</time></trkpt><trkpt lat="43.468743804002756" lon="13.310555470457649"><ele>141.0</ele><time>2026-04-25T11:16:24Z</time></trkpt><trkpt lat="43.46888952181345" lon="13.310851357009685"><ele>141.0</ele><time>2026-04-25T11:16:25Z</time></trkpt><trkpt lat="43.469036578746845" lon="13.311155795839895"><ele>141.0</ele><time>2026-04-25T11:16:26Z</time></trkpt><trkpt lat="43.46918278011061" lon="13.3114634616757"><ele>141.0</ele><time>2026-04-25T11:16:27Z</time></trkpt><trkpt lat="43.46933072688152" lon="13.311774977340109"><ele>141.0</ele><time>2026-04-25T11:16:28Z</time></trkpt><trkpt lat="43.469479775480735" lon="13.312086871386066"><ele>141.5</ele><time>2026-04-25T11:16:29Z</time></trkpt><trkpt lat="43.469634473060296" lon="13.312397864715914"><ele>142.0</ele><time>2026-04-25T11:16:30Z</time></trkpt><trkpt lat="43.46979386280559" lon="13.312700458469228"><ele>142.0</ele><time>2026-04-25T11:16:31Z</time></trkpt><trkpt lat="43.4699558991721" lon="13.312993920448188"><ele>142.0</ele><time>2026-04-25T11:16:32Z</time></trkpt><trkpt lat="43.4701145931499" lon="13.313265942816656"><ele>141.33333333333334</ele><time>2026-04-25T11:16:33Z</time></trkpt><trkpt lat="43.47026011821811" lon="13.313518529084785"><ele>140.66666666666666</ele><time>2026-04-25T11:16:34Z</time></trkpt><trkpt lat="43.47038732948071" lon="13.313749761888545"><ele>140.0</ele><time>2026-04-25T11:16:35Z</time></trkpt><trkpt lat="43.470500671654854" lon="13.313952324465982"><ele>139.5</ele><time>2026-04-25T11:16:36Z</time></trkpt><trkpt lat="43.47060218089728" lon="13.314123946716421"><ele>139.0</ele><time>2026-04-25T11:16:37Z</time></trkpt><trkpt lat="43.47068942671417" lon="13.31427262811679"><ele>138.5</ele><time>2026-04-25T11:16:38Z</time></trkpt><trkpt lat="43.47075251895058" lon="13.3144187266062"><ele>138.0</ele><time>2026-04-25T11:16:39Z</time></trkpt><trkpt lat="43.47078345729747" lon="13.314560655698807"><ele>138.0</ele><time>2026-04-25T11:16:40Z</time></trkpt><trkpt lat="43.47082392892444" lon="13.314671940626008"><ele>138.0</ele><time>2026-04-25T11:16:41Z</time></trkpt><trkpt lat="43.47090835419026" lon="13.314771141101645"><ele>138.0</ele><time>2026-04-25T11:16:42Z</time></trkpt><trkpt lat="43.47101801990745" lon="13.31487093673591"><ele>138.0</ele><time>2026-04-25T11:16:43Z</time></trkpt><trkpt lat="43.47111101750391" lon="13.315018616464469"><ele>138.33333333333334</ele><time>2026-04-25T11:16:44Z</time></trkpt><trkpt lat="43.4712156460861" lon="13.315194016704316"><ele>138.66666666666669</ele><time>2026-04-25T11:16:45Z</time></trkpt><trkpt lat="43.47132125174506" lon="13.315378405157034"><ele>139.0</ele><time>2026-04-25T11:16:46Z</time></trkpt><trkpt lat="43.471426692274136" lon="13.31556786330858"><ele>140.33333333333334</ele><time>2026-04-25T11:16:47Z</time></trkpt><trkpt lat="43.47151316343009" lon="13.315801772976126"><ele>141.66666666666666</ele><time>2026-04-25T11:16:48Z</time></trkpt><trkpt lat="43.47158129998838" lon="13.316055069548609"><ele>143.0</ele><time>2026-04-25T11:16:49Z</time></trkpt><trkpt lat="43.471616412543284" lon="13.31631582773676"><ele>142.66666666666666</ele><time>2026-04-25T11:16:50.001Z</time></trkpt><trkpt lat="43.471638671521774" lon="13.31655333317225"><ele>142.33333333333334</ele><time>2026-04-25T11:16:51.001Z</time></trkpt><trkpt lat="43.47168442031048" lon="13.316795798129974"><ele>142.0</ele><time>2026-04-25T11:16:52.001Z</time></trkpt><trkpt lat="43.471764041183945" lon="13.317022488402094"><ele>142.0</ele><time>2026-04-25T11:16:53.001Z</time></trkpt><trkpt lat="43.47186125669791" lon="13.31722028497226"><ele>142.0</ele><time>2026-04-25T11:16:54.001Z</time></trkpt><trkpt lat="43.47198170640368" lon="13.317383426621571"><ele>142.0</ele><time>2026-04-25T11:16:55.001Z</time></trkpt><trkpt lat="43.4720999734109" lon="13.317509605726551"><ele>142.25</ele><time>2026-04-25T11:16:56.001Z</time></trkpt><trkpt lat="43.4722198443769" lon="13.317608014770894"><ele>142.5</ele><time>2026-04-25T11:16:57.001Z</time></trkpt><trkpt lat="43.47231513551132" lon="13.317744717468845"><ele>142.75</ele><time>2026-04-25T11:16:58.001Z</time></trkpt><trkpt lat="43.47236562260082" lon="13.317927509510135"><ele>143.0</ele><time>2026-04-25T11:16:59.001Z</time></trkpt><trkpt lat="43.4723698176362" lon="13.318152031832726"><ele>143.0</ele><time>2026-04-25T11:17:00.001Z</time></trkpt><trkpt lat="43.472361052391726" lon="13.318372692286541"><ele>143.0</ele><time>2026-04-25T11:17:01.001Z</time></trkpt><trkpt lat="43.47236546688953" lon="13.318613529577378"><ele>143.0</ele><time>2026-04-25T11:17:02.001Z</time></trkpt><trkpt lat="43.47236439295882" lon="13.318875333123147"><ele>143.66666666666666</ele><time>2026-04-25T11:17:03.001Z</time></trkpt><trkpt lat="43.47239327340847" lon="13.319129522673038"><ele>144.33333333333334</ele><time>2026-04-25T11:17:04.001Z</time></trkpt><trkpt lat="43.4724469241861" lon="13.319376114207039"><ele>145.0</ele><time>2026-04-25T11:17:05.001Z</time></trkpt><trkpt lat="43.47253566892689" lon="13.319601213123894"><ele>144.33333333333334</ele><time>2026-04-25T11:17:06.001Z</time></trkpt><trkpt lat="43.47264737613883" lon="13.319806574716795"><ele>143.66666666666666</ele><time>2026-04-25T11:17:07.001Z</time></trkpt><trkpt lat="43.472729907590704" lon="13.32003462105092"><ele>143.0</ele><time>2026-04-25T11:17:08.001Z</time></trkpt><trkpt lat="43.472766119193444" lon="13.320288541238677"><ele>142.0</ele><time>2026-04-25T11:17:09.001Z</time></trkpt><trkpt lat="43.47280576692408" lon="13.3205686589353"><ele>141.0</ele><time>2026-04-25T11:17:10.001Z</time></trkpt><trkpt lat="43.4728484545221" lon="13.320873103125132"><ele>140.0</ele><time>2026-04-25T11:17:11.001Z</time></trkpt><trkpt lat="43.47288944013463" lon="13.321185553608382"><ele>139.33333333333331</ele><time>2026-04-25T11:17:12.001Z</time></trkpt><trkpt lat="43.472926722910806" lon="13.321499133235314"><ele>138.66666666666666</ele><time>2026-04-25T11:17:13.001Z</time></trkpt><trkpt lat="43.47296279487465" lon="13.321793330805558"><ele>138.0</ele><time>2026-04-25T11:17:14.001Z</time></trkpt><trkpt lat="43.473001386653195" lon="13.32207161478452"><ele>142.0</ele><time>2026-04-25T11:17:15.001Z</time></trkpt><trkpt lat="43.47303618579133" lon="13.322331069127625"><ele>146.0</ele><time>2026-04-25T11:17:16.001Z</time></trkpt><trkpt lat="43.473074224186945" lon="13.32255768651577"><ele>150.0</ele><time>2026-04-25T11:17:17.001Z</time></trkpt><trkpt lat="43.47314977655245" lon="13.322836247604004"><ele>149.0</ele><time>2026-04-25T11:17:18.001Z</time></trkpt><trkpt lat="43.473237301263076" lon="13.323113914762802"><ele>148.0</ele><time>2026-04-25T11:17:19Z</time></trkpt><trkpt lat="43.47333926273542" lon="13.32338344994417"><ele>147.0</ele><time>2026-04-25T11:17:20Z</time></trkpt><trkpt lat="43.47344061806348" lon="13.323655988213995"><ele>145.66666666666666</ele><time>2026-04-25T11:17:21Z</time></trkpt><trkpt lat="43.4735334254762" lon="13.323926393401733"><ele>144.33333333333331</ele><time>2026-04-25T11:17:22Z</time></trkpt><trkpt lat="43.4736129786366" lon="13.324203157650818"><ele>143.0</ele><time>2026-04-25T11:17:23Z</time></trkpt><trkpt lat="43.47368355677931" lon="13.324478540616338"><ele>142.33333333333331</ele><time>2026-04-25T11:17:24Z</time></trkpt><trkpt lat="43.47372877426695" lon="13.324730321875958"><ele>141.66666666666666</ele><time>2026-04-25T11:17:25Z</time></trkpt><trkpt lat="43.47380712877253" lon="13.325004920503785"><ele>141.0</ele><time>2026-04-25T11:17:26Z</time></trkpt><trkpt lat="43.47387795451943" lon="13.32528452688499"><ele>141.0</ele><time>2026-04-25T11:17:27Z</time></trkpt><trkpt lat="43.473931895349246" lon="13.325557457644681"><ele>141.0</ele><time>2026-04-25T11:17:28Z</time></trkpt><trkpt lat="43.473939518389884" lon="13.325841416021001"><ele>141.0</ele><time>2026-04-25T11:17:29Z</time></trkpt><trkpt lat="43.47393706696048" lon="13.326155395217377"><ele>139.5</ele><time>2026-04-25T11:17:30Z</time></trkpt><trkpt lat="43.47394077813856" lon="13.326483605345384"><ele>138.0</ele><time>2026-04-25T11:17:31Z</time></trkpt><trkpt lat="43.47392177217189" lon="13.32682114988988"><ele>138.0</ele><time>2026-04-25T11:17:32Z</time></trkpt><trkpt lat="43.4739154660288" lon="13.327138214989397"><ele>138.0</ele><time>2026-04-25T11:17:33Z</time></trkpt><trkpt lat="43.47390761036208" lon="13.32743417209464"><ele>138.0</ele><time>2026-04-25T11:17:34Z</time></trkpt><trkpt lat="43.47389978552375" lon="13.327725915183226"><ele>137.0</ele><time>2026-04-25T11:17:35Z</time></trkpt><trkpt lat="43.47390319910476" lon="13.328021574113253"><ele>136.0</ele><time>2026-04-25T11:17:36Z</time></trkpt><trkpt lat="43.47389882166616" lon="13.32834761194861"><ele>135.0</ele><time>2026-04-25T11:17:37Z</time></trkpt><trkpt lat="43.47392276222156" lon="13.32870929163987"><ele>134.0</ele><time>2026-04-25T11:17:38Z</time></trkpt><trkpt lat="43.47401120022429" lon="13.328975517560513"><ele>132.5</ele><time>2026-04-25T11:17:39Z</time></trkpt><trkpt lat="43.47406277883667" lon="13.329257344541247"><ele>131.0</ele><time>2026-04-25T11:17:40Z</time></trkpt><trkpt lat="43.474151275374304" lon="13.329679103195664"><ele>130.0</ele><time>2026-04-25T11:17:41Z</time></trkpt><trkpt lat="43.474247312704485" lon="13.329992565386728"><ele>129.0</ele><time>2026-04-25T11:17:42Z</time></trkpt><trkpt lat="43.474358448300215" lon="13.330319803719693"><ele>128.0</ele><time>2026-04-25T11:17:43Z</time></trkpt><trkpt lat="43.47449666113712" lon="13.330645674004963"><ele>127.0</ele><time>2026-04-25T11:17:44Z</time></trkpt><trkpt lat="43.47463578740448" lon="13.33097470076695"><ele>127.0</ele><time>2026-04-25T11:17:45Z</time></trkpt><trkpt lat="43.474776259403235" lon="13.33130530003984"><ele>127.0</ele><time>2026-04-25T11:17:46Z</time></trkpt><trkpt lat="43.47491374255206" lon="13.331629815822046"><ele>126.5</ele><time>2026-04-25T11:17:47Z</time></trkpt><trkpt lat="43.47503956962746" lon="13.331953802004561"><ele>126.0</ele><time>2026-04-25T11:17:48Z</time></trkpt><trkpt lat="43.475149403328075" lon="13.33228934329176"><ele>125.0</ele><time>2026-04-25T11:17:49Z</time></trkpt><trkpt lat="43.47524958824245" lon="13.332631286900313"><ele>124.0</ele><time>2026-04-25T11:17:50Z</time></trkpt><trkpt lat="43.47534720164215" lon="13.332979504560571"><ele>127.0</ele><time>2026-04-25T11:17:51Z</time></trkpt><trkpt lat="43.475447236167376" lon="13.33331833346161"><ele>130.0</ele><time>2026-04-25T11:17:52Z</time></trkpt><trkpt lat="43.47555198574747" lon="13.33365435195828"><ele>128.0</ele><time>2026-04-25T11:17:53Z</time></trkpt><trkpt lat="43.4756681550584" lon="13.334033332962763"><ele>126.0</ele><time>2026-04-25T11:17:54Z</time></trkpt><trkpt lat="43.475755832844285" lon="13.334360248507181"><ele>126.0</ele><time>2026-04-25T11:17:55Z</time></trkpt><trkpt lat="43.47588276794817" lon="13.334633049759484"><ele>126.0</ele><time>2026-04-25T11:17:56Z</time></trkpt><trkpt lat="43.476028866019064" lon="13.33497231637241"><ele>126.5</ele><time>2026-04-25T11:17:57Z</time></trkpt><trkpt lat="43.47616388469777" lon="13.335295306239487"><ele>127.0</ele><time>2026-04-25T11:17:58Z</time></trkpt><trkpt lat="43.47629911848162" lon="13.335620270369464"><ele>127.0</ele><time>2026-04-25T11:17:59Z</time></trkpt><trkpt lat="43.47642056960452" lon="13.335950128656929"><ele>127.0</ele><time>2026-04-25T11:18:00Z</time></trkpt><trkpt lat="43.47654193371909" lon="13.336281278627053"><ele>126.0</ele><time>2026-04-25T11:18:01Z</time></trkpt><trkpt lat="43.47664121430914" lon="13.336671995161044"><ele>125.0</ele><time>2026-04-25T11:18:02Z</time></trkpt><trkpt lat="43.476764979662164" lon="13.337066233396051"><ele>125.5</ele><time>2026-04-25T11:18:03Z</time></trkpt><trkpt lat="43.47692396083798" lon="13.33744264710916"><ele>126.0</ele><time>2026-04-25T11:18:04Z</time></trkpt><trkpt lat="43.47707173735553" lon="13.3377785831162"><ele>125.75</ele><time>2026-04-25T11:18:05Z</time></trkpt><trkpt lat="43.47711594758057" lon="13.33800466792866"><ele>125.5</ele><time>2026-04-25T11:18:07Z</time></trkpt><trkpt lat="43.47718858792961" lon="13.338117649518653"><ele>125.25</ele><time>2026-04-25T11:18:08Z</time></trkpt><trkpt lat="43.47717668615671" lon="13.338265322170297"><ele>125.0</ele><time>2026-04-25T11:18:09Z</time></trkpt><trkpt lat="43.47735445552211" lon="13.338244148288773"><ele>124.2</ele><time>2026-04-25T11:18:10Z</time></trkpt><trkpt lat="43.477363951717386" lon="13.338341676903006"><ele>123.4</ele><time>2026-04-25T11:18:11Z</time></trkpt><trkpt lat="43.47738116047483" lon="13.33849846647207"><ele>122.6</ele><time>2026-04-25T11:18:12Z</time></trkpt><trkpt lat="43.477414641726746" lon="13.338623715824616"><ele>121.8</ele><time>2026-04-25T11:18:13Z</time></trkpt><trkpt lat="43.47747262163241" lon="13.338748730394734"><ele>121.0</ele><time>2026-04-25T11:18:14Z</time></trkpt><trkpt lat="43.47752856196557" lon="13.338887998076716"><ele>121.0</ele><time>2026-04-25T11:18:15Z</time></trkpt><trkpt lat="43.477590510963715" lon="13.339022737084894"><ele>121.0</ele><time>2026-04-25T11:18:16Z</time></trkpt><trkpt lat="43.47763683760782" lon="13.339180395785183"><ele>121.0</ele><time>2026-04-25T11:18:17Z</time></trkpt><trkpt lat="43.477692638578056" lon="13.339315351315978"><ele>121.0</ele><time>2026-04-25T11:18:18Z</time></trkpt><trkpt lat="43.47774548707018" lon="13.3394415179918"><ele>121.0</ele><time>2026-04-25T11:18:19Z</time></trkpt><trkpt lat="43.47779437432821" lon="13.33957571007968"><ele>121.0</ele><time>2026-04-25T11:18:20Z</time></trkpt><trkpt lat="43.47785437973499" lon="13.339719112143221"><ele>121.0</ele><time>2026-04-25T11:18:21Z</time></trkpt><trkpt lat="43.47791142206053" lon="13.339861809990426"><ele>121.0</ele><time>2026-04-25T11:18:22Z</time></trkpt><trkpt lat="43.47797234112789" lon="13.340013817633166"><ele>121.66666666666667</ele><time>2026-04-25T11:18:23Z</time></trkpt><trkpt lat="43.478034453185195" lon="13.340187616942975"><ele>122.33333333333334</ele><time>2026-04-25T11:18:24Z</time></trkpt><trkpt lat="43.478110191658836" lon="13.340375929579835"><ele>123.0</ele><time>2026-04-25T11:18:25Z</time></trkpt><trkpt lat="43.478199150809374" lon="13.340594884161657"><ele>123.0</ele><time>2026-04-25T11:18:26Z</time></trkpt><trkpt lat="43.47826712308862" lon="13.340828995549833"><ele>123.0</ele><time>2026-04-25T11:18:27Z</time></trkpt><trkpt lat="43.478321622231846" lon="13.341078825940908"><ele>123.0</ele><time>2026-04-25T11:18:28Z</time></trkpt><trkpt lat="43.47838233134454" lon="13.341357679949027"><ele>122.0</ele><time>2026-04-25T11:18:29Z</time></trkpt><trkpt lat="43.47844735237338" lon="13.341638245676961"><ele>121.0</ele><time>2026-04-25T11:18:30Z</time></trkpt><trkpt lat="43.47852421315842" lon="13.341949466953482"><ele>120.5</ele><time>2026-04-25T11:18:31Z</time></trkpt><trkpt lat="43.47859458319224" lon="13.34225876197265"><ele>120.0</ele><time>2026-04-25T11:18:32Z</time></trkpt><trkpt lat="43.478680068620434" lon="13.342531085930501"><ele>120.0</ele><time>2026-04-25T11:18:33Z</time></trkpt><trkpt lat="43.47874644728821" lon="13.342857300162095"><ele>120.0</ele><time>2026-04-25T11:18:34Z</time></trkpt><trkpt lat="43.478814050346344" lon="13.343185097460076"><ele>120.5</ele><time>2026-04-25T11:18:35Z</time></trkpt><trkpt lat="43.47888297991216" lon="13.343499243852705"><ele>121.0</ele><time>2026-04-25T11:18:36Z</time></trkpt><trkpt lat="43.478952607454026" lon="13.343813420655371"><ele>121.0</ele><time>2026-04-25T11:18:37Z</time></trkpt><trkpt lat="43.47902642544877" lon="13.344113126228255"><ele>121.0</ele><time>2026-04-25T11:18:38Z</time></trkpt><trkpt lat="43.47910506935855" lon="13.344404373819025"><ele>121.0</ele><time>2026-04-25T11:18:39Z</time></trkpt><trkpt lat="43.47916269379354" lon="13.344705488101596"><ele>121.0</ele><time>2026-04-25T11:18:40Z</time></trkpt><trkpt lat="43.4792474544735" lon="13.344998297267798"><ele>121.5</ele><time>2026-04-25T11:18:41Z</time></trkpt><trkpt lat="43.47933252740119" lon="13.345293938041404"><ele>122.0</ele><time>2026-04-25T11:18:42Z</time></trkpt><trkpt lat="43.47942495079965" lon="13.345589436070975"><ele>122.0</ele><time>2026-04-25T11:18:43Z</time></trkpt><trkpt lat="43.47951606560694" lon="13.345890670800948"><ele>122.0</ele><time>2026-04-25T11:18:44Z</time></trkpt><trkpt lat="43.47962086920092" lon="13.346181320005437"><ele>122.0</ele><time>2026-04-25T11:18:45Z</time></trkpt><trkpt lat="43.47974943489887" lon="13.346456685280309"><ele>122.0</ele><time>2026-04-25T11:18:46Z</time></trkpt><trkpt lat="43.479896037014726" lon="13.346719988364292"><ele>122.0</ele><time>2026-04-25T11:18:47Z</time></trkpt><trkpt lat="43.480041653078686" lon="13.346988529874638"><ele>122.0</ele><time>2026-04-25T11:18:48Z</time></trkpt><trkpt lat="43.48018492771628" lon="13.347261902492116"><ele>122.0</ele><time>2026-04-25T11:18:49Z</time></trkpt><trkpt lat="43.48033115306088" lon="13.347535100018538"><ele>122.0</ele><time>2026-04-25T11:18:50Z</time></trkpt><trkpt lat="43.480478608878855" lon="13.347812100194426"><ele>120.5</ele><time>2026-04-25T11:18:51Z</time></trkpt><trkpt lat="43.480628852527296" lon="13.348090727332625"><ele>119.0</ele><time>2026-04-25T11:18:52Z</time></trkpt><trkpt lat="43.48077885302776" lon="13.348373721979259"><ele>119.0</ele><time>2026-04-25T11:18:53Z</time></trkpt><trkpt lat="43.480927357916485" lon="13.348658121524151"><ele>119.0</ele><time>2026-04-25T11:18:54Z</time></trkpt><trkpt lat="43.48107434424215" lon="13.348945257949417"><ele>118.0</ele><time>2026-04-25T11:18:55Z</time></trkpt><trkpt lat="43.481222505312545" lon="13.349226946020709"><ele>117.0</ele><time>2026-04-25T11:18:56.001Z</time></trkpt><trkpt lat="43.48137302937738" lon="13.349506078999072"><ele>118.5</ele><time>2026-04-25T11:18:57.001Z</time></trkpt><trkpt lat="43.481521672702364" lon="13.349777548669637"><ele>120.0</ele><time>2026-04-25T11:18:58.001Z</time></trkpt><trkpt lat="43.48167887807616" lon="13.35003409298456"><ele>120.0</ele><time>2026-04-25T11:18:59.001Z</time></trkpt><trkpt lat="43.4818478023741" lon="13.35026861798447"><ele>120.0</ele><time>2026-04-25T11:19:00.001Z</time></trkpt><trkpt lat="43.48202361875395" lon="13.350492600002596"><ele>121.5</ele><time>2026-04-25T11:19:01.001Z</time></trkpt><trkpt lat="43.48219752132797" lon="13.350724324901257"><ele>123.0</ele><time>2026-04-25T11:19:02.001Z</time></trkpt><trkpt lat="43.48235972728096" lon="13.35095444604511"><ele>123.0</ele><time>2026-04-25T11:19:03.001Z</time></trkpt><trkpt lat="43.4825056534904" lon="13.351193680382227"><ele>123.0</ele><time>2026-04-25T11:19:04.001Z</time></trkpt><trkpt lat="43.48262733986598" lon="13.35145212539551"><ele>121.5</ele><time>2026-04-25T11:19:05.001Z</time></trkpt><trkpt lat="43.482719815149444" lon="13.351740477688992"><ele>120.0</ele><time>2026-04-25T11:19:06.001Z</time></trkpt><trkpt lat="43.48278934114685" lon="13.35205135300952"><ele>119.0</ele><time>2026-04-25T11:19:07.001Z</time></trkpt><trkpt lat="43.48284774738458" lon="13.35237236143809"><ele>118.0</ele><time>2026-04-25T11:19:08.001Z</time></trkpt><trkpt lat="43.4829148088285" lon="13.352664400968317"><ele>120.0</ele><time>2026-04-25T11:19:09.001Z</time></trkpt><trkpt lat="43.482973131314" lon="13.35294795256562"><ele>122.0</ele><time>2026-04-25T11:19:10.001Z</time></trkpt><trkpt lat="43.483002368074104" lon="13.353237149095689"><ele>124.0</ele><time>2026-04-25T11:19:11.001Z</time></trkpt><trkpt lat="43.48299925908454" lon="13.35353515365515"><ele>124.0</ele><time>2026-04-25T11:19:12.001Z</time></trkpt><trkpt lat="43.482955590879385" lon="13.353853731821804"><ele>124.0</ele><time>2026-04-25T11:19:13.001Z</time></trkpt><trkpt lat="43.482884121261186" lon="13.35417485634193"><ele>121.0</ele><time>2026-04-25T11:19:14.001Z</time></trkpt><trkpt lat="43.48280706499914" lon="13.35450132815592"><ele>118.0</ele><time>2026-04-25T11:19:15.001Z</time></trkpt><trkpt lat="43.48273618899675" lon="13.354842906281231"><ele>117.0</ele><time>2026-04-25T11:19:16.001Z</time></trkpt><trkpt lat="43.482671271592075" lon="13.355191681497649"><ele>116.0</ele><time>2026-04-25T11:19:17.001Z</time></trkpt><trkpt lat="43.48260414999775" lon="13.355546385508573"><ele>115.0</ele><time>2026-04-25T11:19:18.001Z</time></trkpt><trkpt lat="43.48253844182875" lon="13.35590403637776"><ele>114.0</ele><time>2026-04-25T11:19:19.001Z</time></trkpt><trkpt lat="43.48244210682665" lon="13.356270869449695"><ele>113.0</ele><time>2026-04-25T11:19:20.001Z</time></trkpt><trkpt lat="43.482368653388164" lon="13.356633030308464"><ele>112.0</ele><time>2026-04-25T11:19:21.001Z</time></trkpt><trkpt lat="43.48233747140835" lon="13.356934744239442"><ele>112.0</ele><time>2026-04-25T11:19:22.001Z</time></trkpt><trkpt lat="43.48232028551117" lon="13.35715580969906"><ele>112.0</ele><time>2026-04-25T11:19:23.001Z</time></trkpt><trkpt lat="43.48229137610948" lon="13.357423590127961"><ele>112.0</ele><time>2026-04-25T11:19:24.001Z</time></trkpt><trkpt lat="43.48230948825371" lon="13.357659307848431"><ele>111.66666666666667</ele><time>2026-04-25T11:19:25Z</time></trkpt><trkpt lat="43.48235437797616" lon="13.357932942005585"><ele>111.33333333333334</ele><time>2026-04-25T11:19:26Z</time></trkpt><trkpt lat="43.48242415679304" lon="13.358212265774085"><ele>111.0</ele><time>2026-04-25T11:19:27Z</time></trkpt><trkpt lat="43.48249753831161" lon="13.358488471405625"><ele>111.0</ele><time>2026-04-25T11:19:28Z</time></trkpt><trkpt lat="43.48256367601635" lon="13.358756314293924"><ele>111.0</ele><time>2026-04-25T11:19:29Z</time></trkpt><trkpt lat="43.48266221319055" lon="13.359021951822488"><ele>111.0</ele><time>2026-04-25T11:19:30Z</time></trkpt><trkpt lat="43.482795399414755" lon="13.359288088209778"><ele>111.0</ele><time>2026-04-25T11:19:31Z</time></trkpt><trkpt lat="43.48294927943477" lon="13.359534338682233"><ele>111.0</ele><time>2026-04-25T11:19:32Z</time></trkpt><trkpt lat="43.483099835199916" lon="13.359793338463923"><ele>110.5</ele><time>2026-04-25T11:19:33Z</time></trkpt><trkpt lat="43.48324881902084" lon="13.360054939963208"><ele>110.0</ele><time>2026-04-25T11:19:34Z</time></trkpt><trkpt lat="43.483394933014715" lon="13.360324509766155"><ele>109.5</ele><time>2026-04-25T11:19:35Z</time></trkpt><trkpt lat="43.48352197911355" lon="13.360614316224922"><ele>109.0</ele><time>2026-04-25T11:19:36Z</time></trkpt><trkpt lat="43.48362572692397" lon="13.360926124035762"><ele>109.0</ele><time>2026-04-25T11:19:37Z</time></trkpt><trkpt lat="43.48370938496196" lon="13.361258772095983"><ele>109.0</ele><time>2026-04-25T11:19:38Z</time></trkpt><trkpt lat="43.483805845061624" lon="13.36158957408088"><ele>110.0</ele><time>2026-04-25T11:19:39Z</time></trkpt><trkpt lat="43.4839134485027" lon="13.36191777097906"><ele>111.0</ele><time>2026-04-25T11:19:40Z</time></trkpt><trkpt lat="43.484026945244736" lon="13.362248536974887"><ele>111.0</ele><time>2026-04-25T11:19:41Z</time></trkpt><trkpt lat="43.48412133511157" lon="13.36259109552721"><ele>111.0</ele><time>2026-04-25T11:19:42Z</time></trkpt><trkpt lat="43.48418896074673" lon="13.362971233261664"><ele>110.0</ele><time>2026-04-25T11:19:43Z</time></trkpt><trkpt lat="43.48428364946076" lon="13.36332654725063"><ele>109.0</ele><time>2026-04-25T11:19:44Z</time></trkpt><trkpt lat="43.48438631208489" lon="13.363654534772465"><ele>109.5</ele><time>2026-04-25T11:19:45Z</time></trkpt><trkpt lat="43.48448834366999" lon="13.363962901484854"><ele>110.0</ele><time>2026-04-25T11:19:46Z</time></trkpt><trkpt lat="43.48463705695104" lon="13.364271664495975"><ele>111.0</ele><time>2026-04-25T11:19:47Z</time></trkpt><trkpt lat="43.484756240227846" lon="13.36461228899234"><ele>112.0</ele><time>2026-04-25T11:19:48Z</time></trkpt><trkpt lat="43.48484560951215" lon="13.364949444841164"><ele>112.0</ele><time>2026-04-25T11:19:49Z</time></trkpt><trkpt lat="43.48493523622855" lon="13.365256821605753"><ele>112.0</ele><time>2026-04-25T11:19:50Z</time></trkpt><trkpt lat="43.485000472526345" lon="13.365568161402726"><ele>111.5</ele><time>2026-04-25T11:19:51Z</time></trkpt><trkpt lat="43.485020735432514" lon="13.365915117952314"><ele>111.0</ele><time>2026-04-25T11:19:52Z</time></trkpt><trkpt lat="43.485021282098415" lon="13.366271884153376"><ele>109.5</ele><time>2026-04-25T11:19:53Z</time></trkpt><trkpt lat="43.485031502943876" lon="13.366625744365995"><ele>108.0</ele><time>2026-04-25T11:19:54Z</time></trkpt><trkpt lat="43.485055685714705" lon="13.36698946674904"><ele>107.5</ele><time>2026-04-25T11:19:55Z</time></trkpt><trkpt lat="43.48509915549977" lon="13.367359485054978"><ele>107.0</ele><time>2026-04-25T11:19:56Z</time></trkpt><trkpt lat="43.48516201643347" lon="13.367732689686504"><ele>106.0</ele><time>2026-04-25T11:19:57Z</time></trkpt><trkpt lat="43.48523165271885" lon="13.368103162757867"><ele>105.0</ele><time>2026-04-25T11:19:58Z</time></trkpt><trkpt lat="43.4852963170653" lon="13.368478358788327"><ele>105.0</ele><time>2026-04-25T11:19:59Z</time></trkpt><trkpt lat="43.48536916793571" lon="13.368856552447316"><ele>105.0</ele><time>2026-04-25T11:20:00Z</time></trkpt><trkpt lat="43.48544547952571" lon="13.369236367998743"><ele>105.0</ele><time>2026-04-25T11:20:01Z</time></trkpt><trkpt lat="43.485524799193826" lon="13.369620920704945"><ele>105.0</ele><time>2026-04-25T11:20:02Z</time></trkpt><trkpt lat="43.48560499876888" lon="13.370006908464216"><ele>105.0</ele><time>2026-04-25T11:20:03Z</time></trkpt><trkpt lat="43.48568377960596" lon="13.370392433590181"><ele>105.0</ele><time>2026-04-25T11:20:04Z</time></trkpt><trkpt lat="43.485759615891844" lon="13.370783416481265"><ele>105.0</ele><time>2026-04-25T11:20:05Z</time></trkpt><trkpt lat="43.48583518865894" lon="13.371173425056655"><ele>105.0</ele><time>2026-04-25T11:20:06Z</time></trkpt><trkpt lat="43.485911063685364" lon="13.371559248587593"><ele>105.0</ele><time>2026-04-25T11:20:07Z</time></trkpt><trkpt lat="43.48598394387677" lon="13.371925138968017"><ele>105.0</ele><time>2026-04-25T11:20:08Z</time></trkpt><trkpt lat="43.48605280268057" lon="13.37226155239829"><ele>105.0</ele><time>2026-04-25T11:20:09Z</time></trkpt><trkpt lat="43.486119290080175" lon="13.372578697719263"><ele>105.0</ele><time>2026-04-25T11:20:10Z</time></trkpt><trkpt lat="43.486185283598516" lon="13.37287269738594"><ele>104.66666666666666</ele><time>2026-04-25T11:20:11Z</time></trkpt><trkpt lat="43.48624578766044" lon="13.373154630884969"><ele>104.33333333333333</ele><time>2026-04-25T11:20:12Z</time></trkpt><trkpt lat="43.48628218936295" lon="13.373455162672068"><ele>104.0</ele><time>2026-04-25T11:20:13Z</time></trkpt><trkpt lat="43.486280019276016" lon="13.37378367547356"><ele>103.5</ele><time>2026-04-25T11:20:14Z</time></trkpt><trkpt lat="43.48624703536878" lon="13.37412568035432"><ele>103.0</ele><time>2026-04-25T11:20:15Z</time></trkpt><trkpt lat="43.486200197803534" lon="13.374466036520435"><ele>102.33333333333334</ele><time>2026-04-25T11:20:16Z</time></trkpt><trkpt lat="43.48618097865659" lon="13.374765375552537"><ele>101.66666666666666</ele><time>2026-04-25T11:20:17Z</time></trkpt><trkpt lat="43.486168527826244" lon="13.375071803378269"><ele>101.0</ele><time>2026-04-25T11:20:18Z</time></trkpt><trkpt lat="43.486123644485474" lon="13.375386038601786"><ele>100.5</ele><time>2026-04-25T11:20:19Z</time></trkpt><trkpt lat="43.48608698690444" lon="13.375788722533667"><ele>100.0</ele><time>2026-04-25T11:20:20Z</time></trkpt><trkpt lat="43.48604798104317" lon="13.376211926021426"><ele>100.5</ele><time>2026-04-25T11:20:21Z</time></trkpt><trkpt lat="43.486007618185624" lon="13.376645406698586"><ele>101.0</ele><time>2026-04-25T11:20:22Z</time></trkpt><trkpt lat="43.48598454636499" lon="13.37702800830931"><ele>101.66666666666666</ele><time>2026-04-25T11:20:23Z</time></trkpt><trkpt lat="43.4859551315067" lon="13.377307581873783"><ele>102.33333333333334</ele><time>2026-04-25T11:20:24Z</time></trkpt><trkpt lat="43.48592966718401" lon="13.377499846737429"><ele>103.0</ele><time>2026-04-25T11:20:25Z</time></trkpt><trkpt lat="43.485918338238285" lon="13.377671422130916"><ele>103.0</ele><time>2026-04-25T11:20:26Z</time></trkpt><trkpt lat="43.48589006980238" lon="13.377895076708048"><ele>103.0</ele><time>2026-04-25T11:20:27Z</time></trkpt><trkpt lat="43.485868584129534" lon="13.378112590891195"><ele>103.0</ele><time>2026-04-25T11:20:28Z</time></trkpt><trkpt lat="43.485852542170804" lon="13.378352471743213"><ele>102.33333333333334</ele><time>2026-04-25T11:20:29Z</time></trkpt><trkpt lat="43.48582991127587" lon="13.37861034006363"><ele>101.66666666666666</ele><time>2026-04-25T11:20:30Z</time></trkpt><trkpt lat="43.485800119607944" lon="13.37888076170367"><ele>101.0</ele><time>2026-04-25T11:20:31Z</time></trkpt><trkpt lat="43.48577390130991" lon="13.379161050535648"><ele>101.0</ele><time>2026-04-25T11:20:32Z</time></trkpt><trkpt lat="43.485729990441186" lon="13.379455931211902"><ele>101.0</ele><time>2026-04-25T11:20:33Z</time></trkpt><trkpt lat="43.48571160157071" lon="13.379762345097983"><ele>101.0</ele><time>2026-04-25T11:20:34Z</time></trkpt><trkpt lat="43.48569284538033" lon="13.380054066840582"><ele>101.33333333333333</ele><time>2026-04-25T11:20:35Z</time></trkpt><trkpt lat="43.485662898473485" lon="13.380318853778704"><ele>101.66666666666666</ele><time>2026-04-25T11:20:36Z</time></trkpt><trkpt lat="43.48563905655054" lon="13.380572881132299"><ele>102.0</ele><time>2026-04-25T11:20:37Z</time></trkpt><trkpt lat="43.48561671449979" lon="13.380834929587602"><ele>102.0</ele><time>2026-04-25T11:20:38Z</time></trkpt><trkpt lat="43.48559203547679" lon="13.3811225409603"><ele>102.0</ele><time>2026-04-25T11:20:39Z</time></trkpt><trkpt lat="43.48556425834163" lon="13.381420130152646"><ele>102.0</ele><time>2026-04-25T11:20:40Z</time></trkpt><trkpt lat="43.48553689937146" lon="13.381731336438067"><ele>102.0</ele><time>2026-04-25T11:20:41Z</time></trkpt><trkpt lat="43.48550852593962" lon="13.382054060015387"><ele>102.0</ele><time>2026-04-25T11:20:42Z</time></trkpt><trkpt lat="43.48548587932772" lon="13.382385505681993"><ele>102.0</ele><time>2026-04-25T11:20:43Z</time></trkpt><trkpt lat="43.48547619381098" lon="13.382721444710581"><ele>102.0</ele><time>2026-04-25T11:20:44Z</time></trkpt><trkpt lat="43.48547532555897" lon="13.383059470713196"><ele>102.0</ele><time>2026-04-25T11:20:45Z</time></trkpt><trkpt lat="43.485480234402075" lon="13.383405022078758"><ele>102.0</ele><time>2026-04-25T11:20:46Z</time></trkpt><trkpt lat="43.48548549120461" lon="13.383758440276154"><ele>101.5</ele><time>2026-04-25T11:20:47Z</time></trkpt><trkpt lat="43.48549036340509" lon="13.384111441227033"><ele>101.0</ele><time>2026-04-25T11:20:48Z</time></trkpt><trkpt lat="43.48549415854209" lon="13.384463137677466"><ele>100.0</ele><time>2026-04-25T11:20:49Z</time></trkpt><trkpt lat="43.48549728119005" lon="13.38479423105197"><ele>99.0</ele><time>2026-04-25T11:20:50Z</time></trkpt><trkpt lat="43.485497152394835" lon="13.38510597116968"><ele>99.0</ele><time>2026-04-25T11:20:51Z</time></trkpt><trkpt lat="43.485479202672224" lon="13.385398491732657"><ele>99.0</ele><time>2026-04-25T11:20:52Z</time></trkpt><trkpt lat="43.4854459673392" lon="13.385681349919041"><ele>99.0</ele><time>2026-04-25T11:20:53Z</time></trkpt><trkpt lat="43.48542291455223" lon="13.38594712317678"><ele>98.66666666666666</ele><time>2026-04-25T11:20:54Z</time></trkpt><trkpt lat="43.485434382399816" lon="13.3861745414966"><ele>98.33333333333333</ele><time>2026-04-25T11:20:55Z</time></trkpt><trkpt lat="43.485465026644775" lon="13.386379451094085"><ele>98.0</ele><time>2026-04-25T11:20:56Z</time></trkpt><trkpt lat="43.48549159255973" lon="13.38663420931974"><ele>98.0</ele><time>2026-04-25T11:20:57Z</time></trkpt><trkpt lat="43.48550336069913" lon="13.386855507306853"><ele>98.0</ele><time>2026-04-25T11:20:58Z</time></trkpt><trkpt lat="43.48550556734182" lon="13.387137842340607"><ele>98.0</ele><time>2026-04-25T11:20:59Z</time></trkpt><trkpt lat="43.48549091775082" lon="13.387449651861417"><ele>98.33333333333333</ele><time>2026-04-25T11:21:00Z</time></trkpt><trkpt lat="43.48551541776266" lon="13.387735211547396"><ele>98.66666666666666</ele><time>2026-04-25T11:21:01Z</time></trkpt><trkpt lat="43.485518861122735" lon="13.388018302803786"><ele>99.0</ele><time>2026-04-25T11:21:02.001Z</time></trkpt><trkpt lat="43.48552178444279" lon="13.388255701663766"><ele>99.66666666666666</ele><time>2026-04-25T11:21:03.001Z</time></trkpt><trkpt lat="43.48552909681208" lon="13.388489381367414"><ele>100.33333333333333</ele><time>2026-04-25T11:21:04.001Z</time></trkpt><trkpt lat="43.48553070625532" lon="13.388707948206989"><ele>101.0</ele><time>2026-04-25T11:21:05.001Z</time></trkpt><trkpt lat="43.485533423827874" lon="13.38891376806053"><ele>101.25</ele><time>2026-04-25T11:21:06.001Z</time></trkpt><trkpt lat="43.48553793353178" lon="13.389102250432314"><ele>101.5</ele><time>2026-04-25T11:21:07.001Z</time></trkpt><trkpt lat="43.48554142450162" lon="13.38927801810567"><ele>101.75</ele><time>2026-04-25T11:21:08.001Z</time></trkpt><trkpt lat="43.48554975895267" lon="13.389439066345313"><ele>102.0</ele><time>2026-04-25T11:21:09.001Z</time></trkpt><trkpt lat="43.48555362686383" lon="13.389594647644005"><ele>102.0</ele><time>2026-04-25T11:21:10.001Z</time></trkpt><trkpt lat="43.48555480461104" lon="13.38973399039446"><ele>102.0</ele><time>2026-04-25T11:21:11.001Z</time></trkpt><trkpt lat="43.48555801496951" lon="13.389864159696886"><ele>102.0</ele><time>2026-04-25T11:21:12.001Z</time></trkpt><trkpt lat="43.48556341145578" lon="13.389986563329922"><ele>102.0</ele><time>2026-04-25T11:21:13.001Z</time></trkpt><trkpt lat="43.4855621494486" lon="13.390112358083893"><ele>102.0</ele><time>2026-04-25T11:21:14.001Z</time></trkpt><trkpt lat="43.48556183383319" lon="13.390240224896862"><ele>102.0</ele><time>2026-04-25T11:21:15.001Z</time></trkpt><trkpt lat="43.48556983169582" lon="13.39037387604446"><ele>102.0</ele><time>2026-04-25T11:21:16.001Z</time></trkpt><trkpt lat="43.48557371789919" lon="13.390514037648225"><ele>102.0</ele><time>2026-04-25T11:21:17.001Z</time></trkpt><trkpt lat="43.485575916780185" lon="13.390660958629537"><ele>102.0</ele><time>2026-04-25T11:21:18.001Z</time></trkpt><trkpt lat="43.48557857488093" lon="13.390811114451733"><ele>102.0</ele><time>2026-04-25T11:21:19.001Z</time></trkpt><trkpt lat="43.485585336484114" lon="13.39096869630204"><ele>102.0</ele><time>2026-04-25T11:21:20.001Z</time></trkpt><trkpt lat="43.4855909575847" lon="13.391128835022087"><ele>102.0</ele><time>2026-04-25T11:21:21.001Z</time></trkpt><trkpt lat="43.48559635839456" lon="13.391293434441026"><ele>102.0</ele><time>2026-04-25T11:21:22.001Z</time></trkpt><trkpt lat="43.485599635227" lon="13.39162871641136"><ele>101.75</ele><time>2026-04-25T11:21:24.001Z</time></trkpt><trkpt lat="43.4856058475666" lon="13.391801260241705"><ele>101.5</ele><time>2026-04-25T11:21:25.001Z</time></trkpt><trkpt lat="43.48560678551" lon="13.391978260890282"><ele>101.25</ele><time>2026-04-25T11:21:26.001Z</time></trkpt><trkpt lat="43.48560412949676" lon="13.392159009481734"><ele>101.0</ele><time>2026-04-25T11:21:27.001Z</time></trkpt><trkpt lat="43.485606563257775" lon="13.392347637520608"><ele>101.0</ele><time>2026-04-25T11:21:28.001Z</time></trkpt><trkpt lat="43.48560774200229" lon="13.3925613589737"><ele>101.0</ele><time>2026-04-25T11:21:29.001Z</time></trkpt><trkpt lat="43.485606733653334" lon="13.392793745310279"><ele>101.0</ele><time>2026-04-25T11:21:30Z</time></trkpt><trkpt lat="43.48560958201905" lon="13.393050069250823"><ele>100.66666666666666</ele><time>2026-04-25T11:21:31Z</time></trkpt><trkpt lat="43.48561952811832" lon="13.393316265904684"><ele>100.33333333333334</ele><time>2026-04-25T11:21:32Z</time></trkpt><trkpt lat="43.4856381645247" lon="13.393592704367794"><ele>100.0</ele><time>2026-04-25T11:21:33Z</time></trkpt><trkpt lat="43.48564007649321" lon="13.393890168712892"><ele>99.5</ele><time>2026-04-25T11:21:34Z</time></trkpt><trkpt lat="43.4856409890117" lon="13.394198994230036"><ele>99.0</ele><time>2026-04-25T11:21:35Z</time></trkpt><trkpt lat="43.48564264744652" lon="13.394517764349283"><ele>99.5</ele><time>2026-04-25T11:21:36Z</time></trkpt><trkpt lat="43.48564700243644" lon="13.39484217434884"><ele>100.0</ele><time>2026-04-25T11:21:37Z</time></trkpt><trkpt lat="43.48565611790003" lon="13.395174383769497"><ele>99.0</ele><time>2026-04-25T11:21:38Z</time></trkpt><trkpt lat="43.485661811020925" lon="13.395514598619403"><ele>98.0</ele><time>2026-04-25T11:21:39Z</time></trkpt><trkpt lat="43.48566696712566" lon="13.395856572558916"><ele>98.0</ele><time>2026-04-25T11:21:40Z</time></trkpt><trkpt lat="43.48567387157577" lon="13.396187700142727"><ele>98.0</ele><time>2026-04-25T11:21:41Z</time></trkpt><trkpt lat="43.48567658055049" lon="13.396499306697754"><ele>97.5</ele><time>2026-04-25T11:21:42Z</time></trkpt><trkpt lat="43.48567874332761" lon="13.3968132348507"><ele>97.0</ele><time>2026-04-25T11:21:43Z</time></trkpt><trkpt lat="43.48568338466492" lon="13.397122112303752"><ele>96.0</ele><time>2026-04-25T11:21:44Z</time></trkpt><trkpt lat="43.48568909381087" lon="13.397425953194784"><ele>95.0</ele><time>2026-04-25T11:21:45Z</time></trkpt><trkpt lat="43.48569379734094" lon="13.397721513565715"><ele>94.0</ele><time>2026-04-25T11:21:46Z</time></trkpt><trkpt lat="43.48569821996567" lon="13.398005386388574"><ele>93.75</ele><time>2026-04-25T11:21:47Z</time></trkpt><trkpt lat="43.48570036128105" lon="13.39825064559757"><ele>93.5</ele><time>2026-04-25T11:21:48Z</time></trkpt><trkpt lat="43.485699179368275" lon="13.398447084137166"><ele>93.25</ele><time>2026-04-25T11:21:49Z</time></trkpt><trkpt lat="43.485698577206925" lon="13.398602098985311"><ele>93.0</ele><time>2026-04-25T11:21:50Z</time></trkpt><trkpt lat="43.48569435930378" lon="13.398733759334963"><ele>93.0</ele><time>2026-04-25T11:21:51Z</time></trkpt><trkpt lat="43.48569270691418" lon="13.398888542686814"><ele>93.0</ele><time>2026-04-25T11:21:52Z</time></trkpt><trkpt lat="43.48570398139522" lon="13.399073106010489"><ele>93.0</ele><time>2026-04-25T11:21:53Z</time></trkpt><trkpt lat="43.485702435673815" lon="13.399286901455675"><ele>93.0</ele><time>2026-04-25T11:21:54Z</time></trkpt><trkpt lat="43.485703672681936" lon="13.399516284529032"><ele>92.66666666666667</ele><time>2026-04-25T11:21:55Z</time></trkpt><trkpt lat="43.48571287794082" lon="13.3997590741104"><ele>92.33333333333334</ele><time>2026-04-25T11:21:56Z</time></trkpt><trkpt lat="43.48571821966665" lon="13.400026851573294"><ele>92.0</ele><time>2026-04-25T11:21:57Z</time></trkpt><trkpt lat="43.48571835543553" lon="13.400306655272379"><ele>91.33333333333334</ele><time>2026-04-25T11:21:58Z</time></trkpt><trkpt lat="43.48572085144673" lon="13.400605129690682"><ele>90.66666666666667</ele><time>2026-04-25T11:21:59Z</time></trkpt><trkpt lat="43.485724215609835" lon="13.40091302194218"><ele>90.0</ele><time>2026-04-25T11:22:00Z</time></trkpt><trkpt lat="43.485729385066875" lon="13.401199299725077"><ele>90.33333333333333</ele><time>2026-04-25T11:22:01Z</time></trkpt><trkpt lat="43.485735474976806" lon="13.401449615233645"><ele>90.66666666666666</ele><time>2026-04-25T11:22:02Z</time></trkpt><trkpt lat="43.48573442806672" lon="13.40167415408761"><ele>91.0</ele><time>2026-04-25T11:22:03Z</time></trkpt><trkpt lat="43.48573615462847" lon="13.401870079240013"><ele>91.0</ele><time>2026-04-25T11:22:04Z</time></trkpt><trkpt lat="43.485737047741814" lon="13.40206833136334"><ele>91.0</ele><time>2026-04-25T11:22:05Z</time></trkpt><trkpt lat="43.48573883110493" lon="13.402273808916338"><ele>91.0</ele><time>2026-04-25T11:22:06Z</time></trkpt><trkpt lat="43.485744330921705" lon="13.402482294436696"><ele>91.0</ele><time>2026-04-25T11:22:07Z</time></trkpt><trkpt lat="43.48575136275426" lon="13.402696251235895"><ele>91.0</ele><time>2026-04-25T11:22:08Z</time></trkpt><trkpt lat="43.48575180167248" lon="13.402928073154964"><ele>91.0</ele><time>2026-04-25T11:22:09Z</time></trkpt><trkpt lat="43.485751850857156" lon="13.403181532477358"><ele>91.0</ele><time>2026-04-25T11:22:10Z</time></trkpt><trkpt lat="43.48575396852722" lon="13.403448184353435"><ele>90.66666666666666</ele><time>2026-04-25T11:22:11Z</time></trkpt><trkpt lat="43.485759832849645" lon="13.403731403670461"><ele>90.33333333333333</ele><time>2026-04-25T11:22:12Z</time></trkpt><trkpt lat="43.48576290607116" lon="13.404027062472476"><ele>90.0</ele><time>2026-04-25T11:22:13Z</time></trkpt><trkpt lat="43.48576736055942" lon="13.404333637536089"><ele>90.0</ele><time>2026-04-25T11:22:14Z</time></trkpt><trkpt lat="43.48576803667366" lon="13.40464921183397"><ele>90.0</ele><time>2026-04-25T11:22:15Z</time></trkpt><trkpt lat="43.4857512935654" lon="13.404973133489106"><ele>90.0</ele><time>2026-04-25T11:22:16Z</time></trkpt><trkpt lat="43.48571719393676" lon="13.405300754498375"><ele>90.0</ele><time>2026-04-25T11:22:17Z</time></trkpt><trkpt lat="43.48566775141025" lon="13.405629941558608"><ele>91.0</ele><time>2026-04-25T11:22:18Z</time></trkpt><trkpt lat="43.48560872889958" lon="13.405959329766175"><ele>92.0</ele><time>2026-04-25T11:22:19Z</time></trkpt><trkpt lat="43.48554840061231" lon="13.406294044403879"><ele>91.5</ele><time>2026-04-25T11:22:20Z</time></trkpt><trkpt lat="43.485489837153" lon="13.406637685609171"><ele>91.0</ele><time>2026-04-25T11:22:21Z</time></trkpt><trkpt lat="43.485436582302036" lon="13.406989907728756"><ele>90.0</ele><time>2026-04-25T11:22:22Z</time></trkpt><trkpt lat="43.48538358805497" lon="13.407342955539027"><ele>89.0</ele><time>2026-04-25T11:22:23Z</time></trkpt><trkpt lat="43.48533823572637" lon="13.407701429475638"><ele>88.5</ele><time>2026-04-25T11:22:24Z</time></trkpt><trkpt lat="43.48529612037529" lon="13.408070716255791"><ele>88.0</ele><time>2026-04-25T11:22:25Z</time></trkpt><trkpt lat="43.48525573494997" lon="13.408440077575097"><ele>88.0</ele><time>2026-04-25T11:22:26Z</time></trkpt><trkpt lat="43.48520887520884" lon="13.408819453429468"><ele>88.0</ele><time>2026-04-25T11:22:27Z</time></trkpt><trkpt lat="43.48516534147629" lon="13.409203386460915"><ele>87.5</ele><time>2026-04-25T11:22:28Z</time></trkpt><trkpt lat="43.48512013782633" lon="13.409588921838072"><ele>87.0</ele><time>2026-04-25T11:22:29Z</time></trkpt><trkpt lat="43.4850715481366" lon="13.409973626209618"><ele>86.0</ele><time>2026-04-25T11:22:30Z</time></trkpt><trkpt lat="43.4850115160461" lon="13.410357039796613"><ele>85.0</ele><time>2026-04-25T11:22:31Z</time></trkpt><trkpt lat="43.48494601660351" lon="13.410752742502918"><ele>85.0</ele><time>2026-04-25T11:22:32Z</time></trkpt><trkpt lat="43.484878954194315" lon="13.411151949394084"><ele>85.0</ele><time>2026-04-25T11:22:33Z</time></trkpt><trkpt lat="43.48481019633265" lon="13.411551824446486"><ele>85.0</ele><time>2026-04-25T11:22:34Z</time></trkpt><trkpt lat="43.484739182030346" lon="13.411953573036877"><ele>85.0</ele><time>2026-04-25T11:22:35Z</time></trkpt><trkpt lat="43.484661100259075" lon="13.412355462851776"><ele>83.5</ele><time>2026-04-25T11:22:36Z</time></trkpt><trkpt lat="43.484566313245296" lon="13.4127525463777"><ele>82.0</ele><time>2026-04-25T11:22:37Z</time></trkpt><trkpt lat="43.48445097784579" lon="13.41312548688128"><ele>82.0</ele><time>2026-04-25T11:22:38Z</time></trkpt><trkpt lat="43.484345229206795" lon="13.41347474377129"><ele>82.0</ele><time>2026-04-25T11:22:39Z</time></trkpt><trkpt lat="43.484243199240495" lon="13.4138067198503"><ele>82.5</ele><time>2026-04-25T11:22:40Z</time></trkpt><trkpt lat="43.48414668072385" lon="13.414122292633387"><ele>83.0</ele><time>2026-04-25T11:22:41Z</time></trkpt><trkpt lat="43.48405908419173" lon="13.41442293029611"><ele>82.0</ele><time>2026-04-25T11:22:42Z</time></trkpt><trkpt lat="43.48397786908545" lon="13.414716906993688"><ele>81.0</ele><time>2026-04-25T11:22:43Z</time></trkpt><trkpt lat="43.48389661919569" lon="13.415027294538111"><ele>81.0</ele><time>2026-04-25T11:22:44Z</time></trkpt><trkpt lat="43.483816999742146" lon="13.415346412845462"><ele>81.0</ele><time>2026-04-25T11:22:45Z</time></trkpt><trkpt lat="43.48373044282364" lon="13.415671486791119"><ele>81.0</ele><time>2026-04-25T11:22:46Z</time></trkpt><trkpt lat="43.483630393835675" lon="13.415996263237872"><ele>81.0</ele><time>2026-04-25T11:22:47Z</time></trkpt><trkpt lat="43.48351562781226" lon="13.416319363148595"><ele>81.0</ele><time>2026-04-25T11:22:48Z</time></trkpt><trkpt lat="43.48339369115828" lon="13.416640719214408"><ele>81.0</ele><time>2026-04-25T11:22:49Z</time></trkpt><trkpt lat="43.483273137615164" lon="13.416964881084528"><ele>81.5</ele><time>2026-04-25T11:22:50Z</time></trkpt><trkpt lat="43.48315164345114" lon="13.417292142970275"><ele>82.0</ele><time>2026-04-25T11:22:51Z</time></trkpt><trkpt lat="43.483027993906525" lon="13.417620933279325"><ele>82.0</ele><time>2026-04-25T11:22:52Z</time></trkpt><trkpt lat="43.48291264541441" lon="13.417924858964685"><ele>82.0</ele><time>2026-04-25T11:22:53Z</time></trkpt><trkpt lat="43.4828028173393" lon="13.418205312174143"><ele>82.0</ele><time>2026-04-25T11:22:54Z</time></trkpt><trkpt lat="43.482701093121314" lon="13.41846601665747"><ele>82.0</ele><time>2026-04-25T11:22:55Z</time></trkpt><trkpt lat="43.48260935892488" lon="13.418739471124836"><ele>82.0</ele><time>2026-04-25T11:22:56Z</time></trkpt><trkpt lat="43.48254378442265" lon="13.419047379909143"><ele>82.5</ele><time>2026-04-25T11:22:57Z</time></trkpt><trkpt lat="43.48251364470937" lon="13.419379391634262"><ele>83.0</ele><time>2026-04-25T11:22:58Z</time></trkpt><trkpt lat="43.48249204036573" lon="13.419718651872222"><ele>83.0</ele><time>2026-04-25T11:22:59Z</time></trkpt><trkpt lat="43.48246583137007" lon="13.42005709469231"><ele>83.0</ele><time>2026-04-25T11:23:00Z</time></trkpt><trkpt lat="43.48243613536542" lon="13.420401109664065"><ele>83.0</ele><time>2026-04-25T11:23:01Z</time></trkpt><trkpt lat="43.482407824345344" lon="13.420751306355607"><ele>83.0</ele><time>2026-04-25T11:23:02Z</time></trkpt><trkpt lat="43.48238313891725" lon="13.421108445336776"><ele>83.0</ele><time>2026-04-25T11:23:03Z</time></trkpt><trkpt lat="43.482356768150524" lon="13.421470859213306"><ele>83.0</ele><time>2026-04-25T11:23:04Z</time></trkpt><trkpt lat="43.482351144224005" lon="13.42183853442489"><ele>83.0</ele><time>2026-04-25T11:23:05Z</time></trkpt><trkpt lat="43.48237112809151" lon="13.422205627481745"><ele>83.0</ele><time>2026-04-25T11:23:06Z</time></trkpt><trkpt lat="43.48239582479952" lon="13.422576221502384"><ele>83.0</ele><time>2026-04-25T11:23:07Z</time></trkpt><trkpt lat="43.4824172279846" lon="13.42295438393912"><ele>83.0</ele><time>2026-04-25T11:23:08Z</time></trkpt><trkpt lat="43.48244075956167" lon="13.423334905618198"><ele>82.0</ele><time>2026-04-25T11:23:09Z</time></trkpt><trkpt lat="43.48246513448281" lon="13.423689564814145"><ele>81.0</ele><time>2026-04-25T11:23:10Z</time></trkpt><trkpt lat="43.48248852262328" lon="13.424016868055086"><ele>81.0</ele><time>2026-04-25T11:23:11Z</time></trkpt><trkpt lat="43.48250995226699" lon="13.424316911105416"><ele>81.0</ele><time>2026-04-25T11:23:12Z</time></trkpt><trkpt lat="43.48251706922957" lon="13.424604446909274"><ele>81.0</ele><time>2026-04-25T11:23:13Z</time></trkpt><trkpt lat="43.48248312719013" lon="13.424901058520593"><ele>82.5</ele><time>2026-04-25T11:23:14Z</time></trkpt><trkpt lat="43.48241389603837" lon="13.425201667040668"><ele>84.0</ele><time>2026-04-25T11:23:15Z</time></trkpt><trkpt lat="43.4823434733291" lon="13.425515431651636"><ele>85.0</ele><time>2026-04-25T11:23:16Z</time></trkpt><trkpt lat="43.482271171897246" lon="13.425839117718816"><ele>86.0</ele><time>2026-04-25T11:23:17Z</time></trkpt><trkpt lat="43.48219096284495" lon="13.42615760189441"><ele>87.5</ele><time>2026-04-25T11:23:18Z</time></trkpt><trkpt lat="43.48212822893258" lon="13.426484148332857"><ele>89.0</ele><time>2026-04-25T11:23:19Z</time></trkpt><trkpt lat="43.48207379741415" lon="13.4267872309133"><ele>86.5</ele><time>2026-04-25T11:23:20Z</time></trkpt><trkpt lat="43.48202618031995" lon="13.427112842554202"><ele>84.0</ele><time>2026-04-25T11:23:21Z</time></trkpt><trkpt lat="43.48198710452316" lon="13.427448078926998"><ele>84.0</ele><time>2026-04-25T11:23:22Z</time></trkpt><trkpt lat="43.48195436285585" lon="13.427793680988492"><ele>84.0</ele><time>2026-04-25T11:23:23Z</time></trkpt><trkpt lat="43.481921913332755" lon="13.42814527920561"><ele>84.5</ele><time>2026-04-25T11:23:24Z</time></trkpt><trkpt lat="43.48190172748348" lon="13.428504128162153"><ele>85.0</ele><time>2026-04-25T11:23:25Z</time></trkpt><trkpt lat="43.48188398785945" lon="13.42886686136882"><ele>85.5</ele><time>2026-04-25T11:23:26Z</time></trkpt><trkpt lat="43.481870531709475" lon="13.429237472972321"><ele>86.0</ele><time>2026-04-25T11:23:27Z</time></trkpt><trkpt lat="43.48186337711449" lon="13.429586188264624"><ele>85.5</ele><time>2026-04-25T11:23:28Z</time></trkpt><trkpt lat="43.481847740130156" lon="13.429914417874226"><ele>85.0</ele><time>2026-04-25T11:23:29Z</time></trkpt><trkpt lat="43.48181591473321" lon="13.430256150803366"><ele>86.0</ele><time>2026-04-25T11:23:30Z</time></trkpt><trkpt lat="43.48177538800857" lon="13.43057036384257"><ele>87.0</ele><time>2026-04-25T11:23:31Z</time></trkpt><trkpt lat="43.48172949721226" lon="13.430853018489017"><ele>88.0</ele><time>2026-04-25T11:23:32Z</time></trkpt><trkpt lat="43.48166010994879" lon="13.43113430844612"><ele>88.66666666666666</ele><time>2026-04-25T11:23:33Z</time></trkpt><trkpt lat="43.481563567854735" lon="13.4314019064903"><ele>89.33333333333333</ele><time>2026-04-25T11:23:34Z</time></trkpt><trkpt lat="43.4814564879992" lon="13.43166441143426"><ele>90.0</ele><time>2026-04-25T11:23:35Z</time></trkpt><trkpt lat="43.48134395778454" lon="13.431899890347424"><ele>89.33333333333333</ele><time>2026-04-25T11:23:36Z</time></trkpt><trkpt lat="43.48120847608848" lon="13.432103410711404"><ele>88.66666666666666</ele><time>2026-04-25T11:23:37Z</time></trkpt><trkpt lat="43.481065015227976" lon="13.432301171892352"><ele>88.0</ele><time>2026-04-25T11:23:38Z</time></trkpt><trkpt lat="43.48090227077853" lon="13.432499738886788"><ele>88.0</ele><time>2026-04-25T11:23:39Z</time></trkpt><trkpt lat="43.48074723864437" lon="13.432676533387104"><ele>88.0</ele><time>2026-04-25T11:23:40Z</time></trkpt><trkpt lat="43.48058875987076" lon="13.432862062367825"><ele>88.0</ele><time>2026-04-25T11:23:41Z</time></trkpt><trkpt lat="43.480431266867065" lon="13.433056992721644"><ele>88.33333333333333</ele><time>2026-04-25T11:23:42Z</time></trkpt><trkpt lat="43.48028141560723" lon="13.433279128242981"><ele>88.66666666666667</ele><time>2026-04-25T11:23:43Z</time></trkpt><trkpt lat="43.48014775986323" lon="13.43352887601502"><ele>89.0</ele><time>2026-04-25T11:23:44Z</time></trkpt><trkpt lat="43.480036289492226" lon="13.433739134182751"><ele>90.0</ele><time>2026-04-25T11:23:45Z</time></trkpt><trkpt lat="43.479932960014125" lon="13.433937246468863"><ele>91.0</ele><time>2026-04-25T11:23:46Z</time></trkpt><trkpt lat="43.47984494941931" lon="13.434112585998177"><ele>92.0</ele><time>2026-04-25T11:23:47Z</time></trkpt><trkpt lat="43.479763655414025" lon="13.434273180111466"><ele>92.0</ele><time>2026-04-25T11:23:48Z</time></trkpt><trkpt lat="43.47968828544574" lon="13.434431143629537"><ele>92.0</ele><time>2026-04-25T11:23:49Z</time></trkpt><trkpt lat="43.47961613943822" lon="13.43458027866501"><ele>92.0</ele><time>2026-04-25T11:23:50Z</time></trkpt><trkpt lat="43.47954772818197" lon="13.43472222368871"><ele>92.0</ele><time>2026-04-25T11:23:51Z</time></trkpt><trkpt lat="43.47948712376765" lon="13.434863171242174"><ele>90.66666666666667</ele><time>2026-04-25T11:23:52Z</time></trkpt><trkpt lat="43.47942458977689" lon="13.435025206187658"><ele>89.33333333333333</ele><time>2026-04-25T11:23:53Z</time></trkpt><trkpt lat="43.47937780968209" lon="13.435223447073602"><ele>88.0</ele><time>2026-04-25T11:23:54Z</time></trkpt><trkpt lat="43.479344333076156" lon="13.43545136487476"><ele>88.0</ele><time>2026-04-25T11:23:55Z</time></trkpt><trkpt lat="43.47929994422694" lon="13.435674965810202"><ele>88.0</ele><time>2026-04-25T11:23:56Z</time></trkpt><trkpt lat="43.47925373266323" lon="13.435875704532064"><ele>88.0</ele><time>2026-04-25T11:23:57Z</time></trkpt><trkpt lat="43.47920314066983" lon="13.436060965681298"><ele>88.0</ele><time>2026-04-25T11:23:58Z</time></trkpt><trkpt lat="43.47913499563491" lon="13.436266769683714"><ele>88.0</ele><time>2026-04-25T11:23:59Z</time></trkpt><trkpt lat="43.47904131000776" lon="13.436479196624436"><ele>88.0</ele><time>2026-04-25T11:24:00Z</time></trkpt><trkpt lat="43.47894418669871" lon="13.436709297857695"><ele>87.66666666666666</ele><time>2026-04-25T11:24:01Z</time></trkpt><trkpt lat="43.478840537052626" lon="13.436962435090635"><ele>87.33333333333333</ele><time>2026-04-25T11:24:02Z</time></trkpt><trkpt lat="43.47872881035298" lon="13.437222722177534"><ele>87.0</ele><time>2026-04-25T11:24:03Z</time></trkpt><trkpt lat="43.47861267574883" lon="13.437492493540939"><ele>85.5</ele><time>2026-04-25T11:24:04Z</time></trkpt><trkpt lat="43.47849418766897" lon="13.437778566441244"><ele>84.0</ele><time>2026-04-25T11:24:05Z</time></trkpt><trkpt lat="43.47837036930389" lon="13.438075127220854"><ele>83.0</ele><time>2026-04-25T11:24:06Z</time></trkpt><trkpt lat="43.47824061193067" lon="13.438377689228826"><ele>82.0</ele><time>2026-04-25T11:24:07Z</time></trkpt><trkpt lat="43.478106678262584" lon="13.43868520963261"><ele>81.0</ele><time>2026-04-25T11:24:08Z</time></trkpt><trkpt lat="43.47797203642823" lon="13.438990954973399"><ele>80.0</ele><time>2026-04-25T11:24:09Z</time></trkpt><trkpt lat="43.47783270612991" lon="13.4392943611537"><ele>79.5</ele><time>2026-04-25T11:24:10Z</time></trkpt><trkpt lat="43.47768544482129" lon="13.43959265324595"><ele>79.0</ele><time>2026-04-25T11:24:11Z</time></trkpt><trkpt lat="43.4775373999143" lon="13.439887822283426"><ele>79.0</ele><time>2026-04-25T11:24:12Z</time></trkpt><trkpt lat="43.47738874793049" lon="13.440182933784651"><ele>79.0</ele><time>2026-04-25T11:24:13Z</time></trkpt><trkpt lat="43.47724037336107" lon="13.44047612162949"><ele>77.5</ele><time>2026-04-25T11:24:14Z</time></trkpt><trkpt lat="43.47708210926139" lon="13.440741887050066"><ele>76.0</ele><time>2026-04-25T11:24:15Z</time></trkpt><trkpt lat="43.476912271257945" lon="13.440997349416456"><ele>76.0</ele><time>2026-04-25T11:24:16Z</time></trkpt><trkpt lat="43.47674678485174" lon="13.441247403159359"><ele>76.0</ele><time>2026-04-25T11:24:17Z</time></trkpt><trkpt lat="43.47658558546873" lon="13.441490897087899"><ele>76.5</ele><time>2026-04-25T11:24:18Z</time></trkpt><trkpt lat="43.476422436417515" lon="13.441735355770339"><ele>77.0</ele><time>2026-04-25T11:24:19Z</time></trkpt><trkpt lat="43.47625639269048" lon="13.441985321501338"><ele>74.0</ele><time>2026-04-25T11:24:20Z</time></trkpt><trkpt lat="43.476082215886855" lon="13.442249563149096"><ele>71.0</ele><time>2026-04-25T11:24:21Z</time></trkpt><trkpt lat="43.4759285179254" lon="13.442519512017132"><ele>71.0</ele><time>2026-04-25T11:24:22Z</time></trkpt><trkpt lat="43.4758203790768" lon="13.442796245439274"><ele>71.0</ele><time>2026-04-25T11:24:23Z</time></trkpt><trkpt lat="43.475733942115" lon="13.443079136537822"><ele>71.0</ele><time>2026-04-25T11:24:24Z</time></trkpt><trkpt lat="43.475629970691784" lon="13.44333848343515"><ele>71.0</ele><time>2026-04-25T11:24:25Z</time></trkpt><trkpt lat="43.475559739043554" lon="13.443566912011674"><ele>71.0</ele><time>2026-04-25T11:24:26Z</time></trkpt><trkpt lat="43.47548963265455" lon="13.443776361124861"><ele>70.75</ele><time>2026-04-25T11:24:27Z</time></trkpt><trkpt lat="43.47546342195352" lon="13.443971170403824"><ele>70.5</ele><time>2026-04-25T11:24:28Z</time></trkpt><trkpt lat="43.47543432330569" lon="13.44415354313128"><ele>70.25</ele><time>2026-04-25T11:24:29Z</time></trkpt><trkpt lat="43.47541265728587" lon="13.444326989193728"><ele>70.0</ele><time>2026-04-25T11:24:30Z</time></trkpt><trkpt lat="43.47539049163528" lon="13.444510525692374"><ele>69.0</ele><time>2026-04-25T11:24:31Z</time></trkpt><trkpt lat="43.47537612225723" lon="13.444707559458879"><ele>68.0</ele><time>2026-04-25T11:24:32Z</time></trkpt><trkpt lat="43.4753473393556" lon="13.444875409168045"><ele>67.0</ele><time>2026-04-25T11:24:33Z</time></trkpt><trkpt lat="43.47533060382671" lon="13.445072581578815"><ele>66.0</ele><time>2026-04-25T11:24:34Z</time></trkpt><trkpt lat="43.475312280754615" lon="13.445294488479549"><ele>66.0</ele><time>2026-04-25T11:24:35Z</time></trkpt><trkpt lat="43.475287083766005" lon="13.44551554951657"><ele>66.0</ele><time>2026-04-25T11:24:36Z</time></trkpt><trkpt lat="43.47525683174322" lon="13.445769372106428"><ele>66.0</ele><time>2026-04-25T11:24:37Z</time></trkpt><trkpt lat="43.47522120890605" lon="13.446030288707785"><ele>65.66666666666667</ele><time>2026-04-25T11:24:38Z</time></trkpt><trkpt lat="43.475175716942374" lon="13.446299109482956"><ele>65.33333333333334</ele><time>2026-04-25T11:24:39Z</time></trkpt><trkpt lat="43.475116233683664" lon="13.446580079578945"><ele>65.0</ele><time>2026-04-25T11:24:40Z</time></trkpt><trkpt lat="43.475079636171465" lon="13.446885110206548"><ele>66.0</ele><time>2026-04-25T11:24:41Z</time></trkpt><trkpt lat="43.47502254087588" lon="13.447193085600986"><ele>67.0</ele><time>2026-04-25T11:24:42Z</time></trkpt><trkpt lat="43.474957198702164" lon="13.447507842888207"><ele>67.0</ele><time>2026-04-25T11:24:43Z</time></trkpt><trkpt lat="43.47488162269439" lon="13.447824251823798"><ele>67.0</ele><time>2026-04-25T11:24:44Z</time></trkpt><trkpt lat="43.47479424590484" lon="13.448146205577599"><ele>67.5</ele><time>2026-04-25T11:24:45Z</time></trkpt><trkpt lat="43.4746988227142" lon="13.448470754224847"><ele>68.0</ele><time>2026-04-25T11:24:46Z</time></trkpt><trkpt lat="43.47458667948157" lon="13.448795398854067"><ele>66.0</ele><time>2026-04-25T11:24:47Z</time></trkpt><trkpt lat="43.474465777256064" lon="13.449116034345542"><ele>64.0</ele><time>2026-04-25T11:24:48Z</time></trkpt><trkpt lat="43.47432380978897" lon="13.449428573559683"><ele>65.5</ele><time>2026-04-25T11:24:49Z</time></trkpt><trkpt lat="43.47416823404075" lon="13.449732313041943"><ele>67.0</ele><time>2026-04-25T11:24:50Z</time></trkpt><trkpt lat="43.4740160313927" lon="13.45003453841041"><ele>67.0</ele><time>2026-04-25T11:24:51Z</time></trkpt><trkpt lat="43.47387509241554" lon="13.450336481749137"><ele>67.0</ele><time>2026-04-25T11:24:52Z</time></trkpt><trkpt lat="43.473750720633575" lon="13.450635617178499"><ele>64.5</ele><time>2026-04-25T11:24:53Z</time></trkpt><trkpt lat="43.473639904420814" lon="13.450954189031128"><ele>62.0</ele><time>2026-04-25T11:24:54Z</time></trkpt><trkpt lat="43.47354904317329" lon="13.451294839442438"><ele>62.0</ele><time>2026-04-25T11:24:55Z</time></trkpt><trkpt lat="43.47348034783794" lon="13.451648188012665"><ele>62.0</ele><time>2026-04-25T11:24:56Z</time></trkpt><trkpt lat="43.47342801220157" lon="13.452008703245358"><ele>63.5</ele><time>2026-04-25T11:24:57Z</time></trkpt><trkpt lat="43.473376284432355" lon="13.45236258528098"><ele>65.0</ele><time>2026-04-25T11:24:58Z</time></trkpt><trkpt lat="43.473321045728625" lon="13.45270928306764"><ele>65.0</ele><time>2026-04-25T11:24:59Z</time></trkpt><trkpt lat="43.473260899161716" lon="13.453056768056097"><ele>65.0</ele><time>2026-04-25T11:25:00Z</time></trkpt><trkpt lat="43.47319528817453" lon="13.453408679554462"><ele>65.0</ele><time>2026-04-25T11:25:00.999Z</time></trkpt><trkpt lat="43.473112180033546" lon="13.453761675428387"><ele>65.0</ele><time>2026-04-25T11:25:01.999Z</time></trkpt><trkpt lat="43.473015635448206" lon="13.454109570884155"><ele>64.0</ele><time>2026-04-25T11:25:02.999Z</time></trkpt><trkpt lat="43.47289709540585" lon="13.454448385769112"><ele>63.0</ele><time>2026-04-25T11:25:03.999Z</time></trkpt><trkpt lat="43.47275160074078" lon="13.454775656479312"><ele>63.0</ele><time>2026-04-25T11:25:04.999Z</time></trkpt><trkpt lat="43.47260432462204" lon="13.45510686539973"><ele>63.0</ele><time>2026-04-25T11:25:05.999Z</time></trkpt><trkpt lat="43.472462737844275" lon="13.455442934843434"><ele>63.5</ele><time>2026-04-25T11:25:06.999Z</time></trkpt><trkpt lat="43.47232308690797" lon="13.455770176386382"><ele>64.0</ele><time>2026-04-25T11:25:07.999Z</time></trkpt><trkpt lat="43.47219588903051" lon="13.456082977819099"><ele>63.5</ele><time>2026-04-25T11:25:08.999Z</time></trkpt><trkpt lat="43.47207266841313" lon="13.456377864563759"><ele>63.0</ele><time>2026-04-25T11:25:09.999Z</time></trkpt><trkpt lat="43.47195305380153" lon="13.456655968337003"><ele>63.0</ele><time>2026-04-25T11:25:10.999Z</time></trkpt><trkpt lat="43.47184021296372" lon="13.456919781156438"><ele>63.0</ele><time>2026-04-25T11:25:11.999Z</time></trkpt><trkpt lat="43.47173260014358" lon="13.457173119730268"><ele>63.0</ele><time>2026-04-25T11:25:12.999Z</time></trkpt><trkpt lat="43.47163096196947" lon="13.457417601716942"><ele>63.33333333333333</ele><time>2026-04-25T11:25:14Z</time></trkpt><trkpt lat="43.47153186314969" lon="13.45764652865153"><ele>63.666666666666664</ele><time>2026-04-25T11:25:15Z</time></trkpt><trkpt lat="43.47143924133701" lon="13.457856347773038"><ele>64.0</ele><time>2026-04-25T11:25:16Z</time></trkpt><trkpt lat="43.471358485841215" lon="13.458048112489763"><ele>63.5</ele><time>2026-04-25T11:25:17Z</time></trkpt><trkpt lat="43.47128554185441" lon="13.458226897591556"><ele>63.0</ele><time>2026-04-25T11:25:18Z</time></trkpt><trkpt lat="43.47121321643451" lon="13.458389168062244"><ele>62.5</ele><time>2026-04-25T11:25:19Z</time></trkpt><trkpt lat="43.471150512843735" lon="13.458532541345535"><ele>62.0</ele><time>2026-04-25T11:25:20Z</time></trkpt><trkpt lat="43.47108621509561" lon="13.458650939418549"><ele>62.0</ele><time>2026-04-25T11:25:21Z</time></trkpt><trkpt lat="43.47100211372475" lon="13.45873635089338"><ele>62.0</ele><time>2026-04-25T11:25:22Z</time></trkpt><trkpt lat="43.47092105448551" lon="13.458804999152193"><ele>62.0</ele><time>2026-04-25T11:25:23Z</time></trkpt><trkpt lat="43.47086264478079" lon="13.458897308944739"><ele>62.0</ele><time>2026-04-25T11:25:24Z</time></trkpt><trkpt lat="43.47083941024111" lon="13.459009530353033"><ele>62.0</ele><time>2026-04-25T11:25:25Z</time></trkpt><trkpt lat="43.47085734245931" lon="13.459119074762782"><ele>61.8</ele><time>2026-04-25T11:25:26Z</time></trkpt><trkpt lat="43.47091394274225" lon="13.459218316946995"><ele>61.6</ele><time>2026-04-25T11:25:27Z</time></trkpt><trkpt lat="43.47100609861659" lon="13.45928058747132"><ele>61.39999999999999</ele><time>2026-04-25T11:25:28Z</time></trkpt><trkpt lat="43.47112492637708" lon="13.459312521659077"><ele>61.199999999999996</ele><time>2026-04-25T11:25:29Z</time></trkpt><trkpt lat="43.47123775690602" lon="13.459376275094247"><ele>61.0</ele><time>2026-04-25T11:25:30Z</time></trkpt><trkpt lat="43.4713344404864" lon="13.459483670071574"><ele>62.25</ele><time>2026-04-25T11:25:31Z</time></trkpt><trkpt lat="43.47141437066588" lon="13.459620052373651"><ele>63.5</ele><time>2026-04-25T11:25:32Z</time></trkpt><trkpt lat="43.47148392272067" lon="13.459773278648374"><ele>64.75</ele><time>2026-04-25T11:25:33Z</time></trkpt><trkpt lat="43.47156266861564" lon="13.459913953699534"><ele>66.0</ele><time>2026-04-25T11:25:34Z</time></trkpt><trkpt lat="43.47164626625974" lon="13.460056173429782"><ele>66.0</ele><time>2026-04-25T11:25:35Z</time></trkpt><trkpt lat="43.47172858931526" lon="13.460201859247046"><ele>66.0</ele><time>2026-04-25T11:25:36Z</time></trkpt><trkpt lat="43.47181077427991" lon="13.460349450507861"><ele>66.0</ele><time>2026-04-25T11:25:37Z</time></trkpt><trkpt lat="43.471890602593724" lon="13.460501049674258"><ele>66.0</ele><time>2026-04-25T11:25:38Z</time></trkpt><trkpt lat="43.47196661631212" lon="13.460654097147113"><ele>66.0</ele><time>2026-04-25T11:25:39Z</time></trkpt><trkpt lat="43.47204106956601" lon="13.460812283187066"><ele>66.0</ele><time>2026-04-25T11:25:40Z</time></trkpt><trkpt lat="43.47211550951096" lon="13.460986264203106"><ele>66.0</ele><time>2026-04-25T11:25:41Z</time></trkpt><trkpt lat="43.4721903625892" lon="13.461172510662823"><ele>66.0</ele><time>2026-04-25T11:25:42Z</time></trkpt><trkpt lat="43.47226514353071" lon="13.461375388915771"><ele>66.0</ele><time>2026-04-25T11:25:43Z</time></trkpt><trkpt lat="43.47234821028341" lon="13.461584058698174"><ele>66.0</ele><time>2026-04-25T11:25:44Z</time></trkpt><trkpt lat="43.47243094020414" lon="13.46180513534885"><ele>66.0</ele><time>2026-04-25T11:25:45Z</time></trkpt><trkpt lat="43.47252104053708" lon="13.462038334835421"><ele>66.0</ele><time>2026-04-25T11:25:46Z</time></trkpt><trkpt lat="43.47261815144019" lon="13.462282217828598"><ele>66.0</ele><time>2026-04-25T11:25:47Z</time></trkpt><trkpt lat="43.47271942756467" lon="13.46253354401674"><ele>66.0</ele><time>2026-04-25T11:25:48Z</time></trkpt><trkpt lat="43.47282748610521" lon="13.462787087109529"><ele>67.66666666666667</ele><time>2026-04-25T11:25:49Z</time></trkpt><trkpt lat="43.472940712294765" lon="13.463028334388886"><ele>69.33333333333334</ele><time>2026-04-25T11:25:50Z</time></trkpt><trkpt lat="43.47305816639907" lon="13.46326008183708"><ele>71.0</ele><time>2026-04-25T11:25:51Z</time></trkpt><trkpt lat="43.47316642685099" lon="13.4634745454555"><ele>71.0</ele><time>2026-04-25T11:25:52Z</time></trkpt><trkpt lat="43.47326991992651" lon="13.46366994696592"><ele>71.0</ele><time>2026-04-25T11:25:53Z</time></trkpt><trkpt lat="43.47336703765657" lon="13.463851476341661"><ele>71.0</ele><time>2026-04-25T11:25:54Z</time></trkpt><trkpt lat="43.47345952551266" lon="13.464030326286686"><ele>72.0</ele><time>2026-04-25T11:25:55Z</time></trkpt><trkpt lat="43.47354666508658" lon="13.464211289531283"><ele>73.0</ele><time>2026-04-25T11:25:56Z</time></trkpt><trkpt lat="43.47362671283234" lon="13.464399931601674"><ele>74.0</ele><time>2026-04-25T11:25:57Z</time></trkpt><trkpt lat="43.47369849547166" lon="13.464601870862683"><ele>75.33333333333334</ele><time>2026-04-25T11:25:58Z</time></trkpt><trkpt lat="43.47375389468245" lon="13.464819590204211"><ele>76.66666666666667</ele><time>2026-04-25T11:25:59Z</time></trkpt><trkpt lat="43.473789670947106" lon="13.465050787824968"><ele>78.0</ele><time>2026-04-25T11:26:00Z</time></trkpt><trkpt lat="43.473789060075276" lon="13.465300242326057"><ele>79.66666666666667</ele><time>2026-04-25T11:26:01Z</time></trkpt><trkpt lat="43.47375162163204" lon="13.465565426156397"><ele>81.33333333333334</ele><time>2026-04-25T11:26:02Z</time></trkpt><trkpt lat="43.47368722662471" lon="13.465833157488357"><ele>83.0</ele><time>2026-04-25T11:26:03Z</time></trkpt><trkpt lat="43.47359490775702" lon="13.466094949788356"><ele>83.33333333333334</ele><time>2026-04-25T11:26:04Z</time></trkpt><trkpt lat="43.47348479831551" lon="13.46635972077755"><ele>83.66666666666667</ele><time>2026-04-25T11:26:05Z</time></trkpt><trkpt lat="43.47336914178002" lon="13.466627871603363"><ele>84.0</ele><time>2026-04-25T11:26:06Z</time></trkpt><trkpt lat="43.47325674760294" lon="13.466887512136147"><ele>84.66666666666667</ele><time>2026-04-25T11:26:07Z</time></trkpt><trkpt lat="43.47315937518488" lon="13.467133068553713"><ele>85.33333333333334</ele><time>2026-04-25T11:26:08Z</time></trkpt><trkpt lat="43.47306776116764" lon="13.46736458642122"><ele>86.0</ele><time>2026-04-25T11:26:09Z</time></trkpt><trkpt lat="43.472984916526265" lon="13.46759027340034"><ele>84.75</ele><time>2026-04-25T11:26:10Z</time></trkpt><trkpt lat="43.472918977098495" lon="13.467801967681297"><ele>83.5</ele><time>2026-04-25T11:26:11Z</time></trkpt><trkpt lat="43.47286911717452" lon="13.467993805023708"><ele>82.25</ele><time>2026-04-25T11:26:12Z</time></trkpt><trkpt lat="43.4728230179019" lon="13.468161447471935"><ele>81.0</ele><time>2026-04-25T11:26:13Z</time></trkpt><trkpt lat="43.47276934547126" lon="13.468303957108638"><ele>81.0</ele><time>2026-04-25T11:26:14Z</time></trkpt><trkpt lat="43.472701613993365" lon="13.468415143134433"><ele>81.0</ele><time>2026-04-25T11:26:15Z</time></trkpt><trkpt lat="43.47262875177306" lon="13.468502903953448"><ele>81.0</ele><time>2026-04-25T11:26:16Z</time></trkpt><trkpt lat="43.47257682087248" lon="13.468600769429221"><ele>81.0</ele><time>2026-04-25T11:26:17Z</time></trkpt><trkpt lat="43.472570728408726" lon="13.468714426223578"><ele>81.0</ele><time>2026-04-25T11:26:18Z</time></trkpt><trkpt lat="43.472618418505405" lon="13.468816741823295"><ele>80.8</ele><time>2026-04-25T11:26:19Z</time></trkpt><trkpt lat="43.47270239305534" lon="13.468889391253672"><ele>80.6</ele><time>2026-04-25T11:26:20Z</time></trkpt><trkpt lat="43.47280411650568" lon="13.46889704552623"><ele>80.4</ele><time>2026-04-25T11:26:21Z</time></trkpt><trkpt lat="43.472913986047594" lon="13.468850370927402"><ele>80.2</ele><time>2026-04-25T11:26:22Z</time></trkpt><trkpt lat="43.47302895825569" lon="13.468797794918896"><ele>80.0</ele><time>2026-04-25T11:26:23Z</time></trkpt><trkpt lat="43.4731598047559" lon="13.468817304198712"><ele>82.25</ele><time>2026-04-25T11:26:24Z</time></trkpt><trkpt lat="43.47329247035009" lon="13.468877515915104"><ele>84.5</ele><time>2026-04-25T11:26:25Z</time></trkpt><trkpt lat="43.47343270120635" lon="13.468945040877543"><ele>86.75</ele><time>2026-04-25T11:26:26Z</time></trkpt><trkpt lat="43.47357518587626" lon="13.468995418169586"><ele>89.0</ele><time>2026-04-25T11:26:27Z</time></trkpt><trkpt lat="43.473718110673175" lon="13.469055962225658"><ele>91.5</ele><time>2026-04-25T11:26:28Z</time></trkpt><trkpt lat="43.473856686655765" lon="13.469103635767354"><ele>94.0</ele><time>2026-04-25T11:26:29Z</time></trkpt><trkpt lat="43.473985162649086" lon="13.469146298105683"><ele>96.5</ele><time>2026-04-25T11:26:30Z</time></trkpt><trkpt lat="43.47409462775181" lon="13.469182593607417"><ele>99.0</ele><time>2026-04-25T11:26:31Z</time></trkpt><trkpt lat="43.474188624009635" lon="13.46921381183466"><ele>99.0</ele><time>2026-04-25T11:26:32Z</time></trkpt><trkpt lat="43.47427414248516" lon="13.469235451447016"><ele>99.0</ele><time>2026-04-25T11:26:33Z</time></trkpt><trkpt lat="43.47435395454617" lon="13.469265380530217"><ele>99.0</ele><time>2026-04-25T11:26:34Z</time></trkpt><trkpt lat="43.47443762526777" lon="13.469300351699959"><ele>99.0</ele><time>2026-04-25T11:26:35Z</time></trkpt><trkpt lat="43.47452942409199" lon="13.469325420404747"><ele>99.0</ele><time>2026-04-25T11:26:36Z</time></trkpt><trkpt lat="43.47462587026429" lon="13.469345147080194"><ele>99.0</ele><time>2026-04-25T11:26:37Z</time></trkpt><trkpt lat="43.47472210775387" lon="13.469372260139588"><ele>101.25</ele><time>2026-04-25T11:26:38Z</time></trkpt><trkpt lat="43.474826887591036" lon="13.469421531017929"><ele>103.5</ele><time>2026-04-25T11:26:39Z</time></trkpt><trkpt lat="43.47494339358774" lon="13.469455692994547"><ele>105.75</ele><time>2026-04-25T11:26:40Z</time></trkpt><trkpt lat="43.47505945432519" lon="13.469488673157727"><ele>108.0</ele><time>2026-04-25T11:26:41Z</time></trkpt><trkpt lat="43.475179822263065" lon="13.46952801120826"><ele>108.0</ele><time>2026-04-25T11:26:42Z</time></trkpt><trkpt lat="43.4753018486614" lon="13.469582198309809"><ele>108.0</ele><time>2026-04-25T11:26:43Z</time></trkpt><trkpt lat="43.4754215383055" lon="13.469645996798167"><ele>108.0</ele><time>2026-04-25T11:26:44Z</time></trkpt><trkpt lat="43.47553072069173" lon="13.469706663232515"><ele>108.0</ele><time>2026-04-25T11:26:45Z</time></trkpt><trkpt lat="43.47562226190959" lon="13.469769969351601"><ele>108.5</ele><time>2026-04-25T11:26:46Z</time></trkpt><trkpt lat="43.475695607394805" lon="13.469816489737578"><ele>109.0</ele><time>2026-04-25T11:26:47Z</time></trkpt><trkpt lat="43.47575741406452" lon="13.469871579259703"><ele>109.5</ele><time>2026-04-25T11:26:48Z</time></trkpt><trkpt lat="43.475826394317934" lon="13.469925088014365"><ele>110.0</ele><time>2026-04-25T11:26:49Z</time></trkpt><trkpt lat="43.47590472846734" lon="13.469989734028367"><ele>110.5</ele><time>2026-04-25T11:26:50Z</time></trkpt><trkpt lat="43.47599164922237" lon="13.470058631644108"><ele>111.0</ele><time>2026-04-25T11:26:51Z</time></trkpt><trkpt lat="43.47608825417277" lon="13.470133960304564"><ele>111.0</ele><time>2026-04-25T11:26:52Z</time></trkpt><trkpt lat="43.47619116861905" lon="13.470227971398618"><ele>111.0</ele><time>2026-04-25T11:26:53Z</time></trkpt><trkpt lat="43.47630561970174" lon="13.470325863799363"><ele>111.0</ele><time>2026-04-25T11:26:54Z</time></trkpt><trkpt lat="43.47642110637133" lon="13.470435970424127"><ele>111.0</ele><time>2026-04-25T11:26:55Z</time></trkpt><trkpt lat="43.476531170970624" lon="13.470537865914498"><ele>112.0</ele><time>2026-04-25T11:26:56Z</time></trkpt><trkpt lat="43.47664181870923" lon="13.470651526876416"><ele>113.0</ele><time>2026-04-25T11:26:57Z</time></trkpt><trkpt lat="43.476748863209615" lon="13.47077200977415"><ele>114.0</ele><time>2026-04-25T11:26:58Z</time></trkpt><trkpt lat="43.47684637398482" lon="13.470898117879765"><ele>115.0</ele><time>2026-04-25T11:26:59Z</time></trkpt><trkpt lat="43.476928148654494" lon="13.471021146078954"><ele>115.0</ele><time>2026-04-25T11:27:00Z</time></trkpt><trkpt lat="43.47700820954225" lon="13.471133734807546"><ele>115.0</ele><time>2026-04-25T11:27:01Z</time></trkpt><trkpt lat="43.47707576379856" lon="13.471237064692042"><ele>115.0</ele><time>2026-04-25T11:27:02Z</time></trkpt><trkpt lat="43.47713915966639" lon="13.471335140664893"><ele>115.0</ele><time>2026-04-25T11:27:03Z</time></trkpt><trkpt lat="43.477205701398866" lon="13.471435010689804"><ele>115.0</ele><time>2026-04-25T11:27:04Z</time></trkpt><trkpt lat="43.47726874740332" lon="13.471542161526708"><ele>115.6</ele><time>2026-04-25T11:27:05Z</time></trkpt><trkpt lat="43.477333100984765" lon="13.471653906506186"><ele>116.2</ele><time>2026-04-25T11:27:05.999Z</time></trkpt><trkpt lat="43.477400322789286" lon="13.47176362866625"><ele>116.80000000000001</ele><time>2026-04-25T11:27:06.999Z</time></trkpt><trkpt lat="43.47746216951969" lon="13.471862754446288"><ele>117.4</ele><time>2026-04-25T11:27:07.999Z</time></trkpt><trkpt lat="43.477514625673145" lon="13.471950296354812"><ele>118.0</ele><time>2026-04-25T11:27:08.999Z</time></trkpt><trkpt lat="43.47755838478926" lon="13.472031526737808"><ele>118.00000000000001</ele><time>2026-04-25T11:27:09.999Z</time></trkpt><trkpt lat="43.477601109329335" lon="13.47209767739024"><ele>118.0</ele><time>2026-04-25T11:27:10.999Z</time></trkpt><trkpt lat="43.477645824105075" lon="13.472165479588005"><ele>118.0</ele><time>2026-04-25T11:27:11.999Z</time></trkpt><trkpt lat="43.47768560409065" lon="13.472235909886384"><ele>118.0</ele><time>2026-04-25T11:27:12.999Z</time></trkpt><trkpt lat="43.47771314210828" lon="13.472359327068986"><ele>118.00000000000001</ele><time>2026-04-25T11:27:14.999Z</time></trkpt><trkpt lat="43.47770628588234" lon="13.472503441508826"><ele>118.0</ele><time>2026-04-25T11:27:16.999Z</time></trkpt><trkpt lat="43.47774057116408" lon="13.472638257735534"><ele>118.4</ele><time>2026-04-25T11:27:19Z</time></trkpt><trkpt lat="43.47780716379505" lon="13.472740192444592"><ele>118.80000000000001</ele><time>2026-04-25T11:27:21Z</time></trkpt><trkpt lat="43.47790985578544" lon="13.472840945786954"><ele>119.2</ele><time>2026-04-25T11:27:23.001Z</time></trkpt><trkpt lat="43.47797333100797" lon="13.472847043483448"><ele>119.6</ele><time>2026-04-25T11:27:24Z</time></trkpt><trkpt lat="43.47800699343277" lon="13.473054460065443"><ele>120.0</ele><time>2026-04-25T11:27:25Z</time></trkpt><trkpt lat="43.47804399680457" lon="13.473212244182145"><ele>122.0</ele><time>2026-04-25T11:27:26Z</time></trkpt><trkpt lat="43.47809290044904" lon="13.473379636956501"><ele>124.0</ele><time>2026-04-25T11:27:27Z</time></trkpt><trkpt lat="43.47814490745657" lon="13.473557411698991"><ele>126.0</ele><time>2026-04-25T11:27:28Z</time></trkpt><trkpt lat="43.47820115364565" lon="13.473751575986974"><ele>128.0</ele><time>2026-04-25T11:27:29Z</time></trkpt><trkpt lat="43.47826766614269" lon="13.473924514065663"><ele>128.75</ele><time>2026-04-25T11:27:30Z</time></trkpt><trkpt lat="43.4783011304801" lon="13.474097235947253"><ele>129.5</ele><time>2026-04-25T11:27:31Z</time></trkpt><trkpt lat="43.47833749105005" lon="13.474267301040797"><ele>130.25</ele><time>2026-04-25T11:27:32Z</time></trkpt><trkpt lat="43.47838021557044" lon="13.474429625092753"><ele>131.0</ele><time>2026-04-25T11:27:33Z</time></trkpt><trkpt lat="43.47841574215775" lon="13.474587544548605"><ele>131.5</ele><time>2026-04-25T11:27:34Z</time></trkpt><trkpt lat="43.47846103789498" lon="13.47476829628127"><ele>132.0</ele><time>2026-04-25T11:27:35Z</time></trkpt><trkpt lat="43.47851588448526" lon="13.474957198647296"><ele>132.5</ele><time>2026-04-25T11:27:36Z</time></trkpt><trkpt lat="43.47857487156358" lon="13.475155659245246"><ele>133.0</ele><time>2026-04-25T11:27:37Z</time></trkpt><trkpt lat="43.478634400463555" lon="13.47536341744168"><ele>134.66666666666669</ele><time>2026-04-25T11:27:38Z</time></trkpt><trkpt lat="43.47869228008499" lon="13.475565925621575"><ele>136.33333333333334</ele><time>2026-04-25T11:27:39Z</time></trkpt><trkpt lat="43.47875298887535" lon="13.475767567221004"><ele>138.0</ele><time>2026-04-25T11:27:40Z</time></trkpt><trkpt lat="43.47881967844074" lon="13.475974800503709"><ele>139.33333333333334</ele><time>2026-04-25T11:27:41Z</time></trkpt><trkpt lat="43.478882600997984" lon="13.476184920512315"><ele>140.66666666666669</ele><time>2026-04-25T11:27:42Z</time></trkpt><trkpt lat="43.478940743488465" lon="13.476396799515506"><ele>142.0</ele><time>2026-04-25T11:27:43Z</time></trkpt><trkpt lat="43.479011055494404" lon="13.476585070019143"><ele>143.33333333333334</ele><time>2026-04-25T11:27:44Z</time></trkpt><trkpt lat="43.4791139814373" lon="13.47675485328794"><ele>144.66666666666666</ele><time>2026-04-25T11:27:45Z</time></trkpt><trkpt lat="43.47925812567" lon="13.476899179985635"><ele>146.0</ele><time>2026-04-25T11:27:46Z</time></trkpt><trkpt lat="43.47942447170792" lon="13.477040413804268"><ele>147.66666666666666</ele><time>2026-04-25T11:27:47Z</time></trkpt><trkpt lat="43.47957979569793" lon="13.47719669858972"><ele>149.33333333333334</ele><time>2026-04-25T11:27:48Z</time></trkpt><trkpt lat="43.47973644571031" lon="13.477355063350181"><ele>151.0</ele><time>2026-04-25T11:27:49Z</time></trkpt><trkpt lat="43.47987998628108" lon="13.477523265573971"><ele>152.0</ele><time>2026-04-25T11:27:50Z</time></trkpt><trkpt lat="43.480031269554246" lon="13.477675089329988"><ele>153.0</ele><time>2026-04-25T11:27:51Z</time></trkpt><trkpt lat="43.480167784617585" lon="13.47781113609433"><ele>154.0</ele><time>2026-04-25T11:27:52Z</time></trkpt><trkpt lat="43.480307325670985" lon="13.477933882384539"><ele>156.66666666666669</ele><time>2026-04-25T11:27:53Z</time></trkpt><trkpt lat="43.48046861286746" lon="13.478044221073946"><ele>159.33333333333334</ele><time>2026-04-25T11:27:54Z</time></trkpt><trkpt lat="43.480621665195244" lon="13.478106864684477"><ele>162.0</ele><time>2026-04-25T11:27:55Z</time></trkpt><trkpt lat="43.48075452028896" lon="13.478175416797631"><ele>162.0</ele><time>2026-04-25T11:27:56Z</time></trkpt><trkpt lat="43.48087781065823" lon="13.478237615121344"><ele>162.0</ele><time>2026-04-25T11:27:57Z</time></trkpt><trkpt lat="43.48098956449427" lon="13.47830513154373"><ele>162.0</ele><time>2026-04-25T11:27:58Z</time></trkpt><trkpt lat="43.481098635470644" lon="13.478378846939737"><ele>162.0</ele><time>2026-04-25T11:27:59Z</time></trkpt><trkpt lat="43.48120341770676" lon="13.478439537950655"><ele>162.5</ele><time>2026-04-25T11:28:00Z</time></trkpt><trkpt lat="43.48130803243976" lon="13.478507961972236"><ele>163.0</ele><time>2026-04-25T11:28:01Z</time></trkpt><trkpt lat="43.481412400716316" lon="13.47858599684617"><ele>163.5</ele><time>2026-04-25T11:28:02Z</time></trkpt><trkpt lat="43.481526440900126" lon="13.478687348291668"><ele>164.0</ele><time>2026-04-25T11:28:03Z</time></trkpt><trkpt lat="43.48165444697594" lon="13.478787426523102"><ele>165.75</ele><time>2026-04-25T11:28:04Z</time></trkpt><trkpt lat="43.48177497152762" lon="13.478887669008278"><ele>167.5</ele><time>2026-04-25T11:28:05Z</time></trkpt><trkpt lat="43.4818814488373" lon="13.478973852758164"><ele>169.25</ele><time>2026-04-25T11:28:06Z</time></trkpt><trkpt lat="43.48194300594714" lon="13.479095810470053"><ele>171.0</ele><time>2026-04-25T11:28:07Z</time></trkpt><trkpt lat="43.481975101207276" lon="13.479206890514098"><ele>171.0</ele><time>2026-04-25T11:28:08Z</time></trkpt><trkpt lat="43.481972858145234" lon="13.47933042147041"><ele>171.0</ele><time>2026-04-25T11:28:09Z</time></trkpt><trkpt lat="43.48192440322419" lon="13.47943225388301"><ele>171.0</ele><time>2026-04-25T11:28:10Z</time></trkpt><trkpt lat="43.481870687400644" lon="13.47950642491548"><ele>171.0</ele><time>2026-04-25T11:28:11Z</time></trkpt><trkpt lat="43.481826025763475" lon="13.479570597700855"><ele>171.0</ele><time>2026-04-25T11:28:12Z</time></trkpt><trkpt lat="43.48172913501316" lon="13.479590887445038"><ele>171.0</ele><time>2026-04-25T11:28:14Z</time></trkpt><trkpt lat="43.481627552983696" lon="13.479639395459325"><ele>170.8</ele><time>2026-04-25T11:28:16Z</time></trkpt><trkpt lat="43.48159289187957" lon="13.479722207856653"><ele>170.60000000000002</ele><time>2026-04-25T11:28:17Z</time></trkpt><trkpt lat="43.48159230344711" lon="13.47984610347353"><ele>170.4</ele><time>2026-04-25T11:28:18Z</time></trkpt><trkpt lat="43.48160608509637" lon="13.47998608710911"><ele>170.2</ele><time>2026-04-25T11:28:19Z</time></trkpt><trkpt lat="43.481619934861776" lon="13.480124429887455"><ele>170.0</ele><time>2026-04-25T11:28:20Z</time></trkpt><trkpt lat="43.48162868358819" lon="13.480247458262665"><ele>170.0</ele><time>2026-04-25T11:28:21Z</time></trkpt><trkpt lat="43.48164495997302" lon="13.480350810311657"><ele>170.0</ele><time>2026-04-25T11:28:22Z</time></trkpt><trkpt lat="43.48167037291819" lon="13.480446202525888"><ele>170.0</ele><time>2026-04-25T11:28:23Z</time></trkpt><trkpt lat="43.48167872385229" lon="13.480544267250279"><ele>170.0</ele><time>2026-04-25T11:28:24Z</time></trkpt><trkpt lat="43.48167525840219" lon="13.480637670905473"><ele>170.0</ele><time>2026-04-25T11:28:25Z</time></trkpt><trkpt lat="43.481691550208325" lon="13.480722839212937"><ele>170.0</ele><time>2026-04-25T11:28:26Z</time></trkpt><trkpt lat="43.48172089317782" lon="13.48080518268973"><ele>170.0</ele><time>2026-04-25T11:28:27Z</time></trkpt><trkpt lat="43.481781689527345" lon="13.480850391279183"><ele>169.8</ele><time>2026-04-25T11:28:28Z</time></trkpt><trkpt lat="43.48187076089223" lon="13.480870134209479"><ele>169.6</ele><time>2026-04-25T11:28:29Z</time></trkpt><trkpt lat="43.4819757895409" lon="13.480876014329192"><ele>169.39999999999998</ele><time>2026-04-25T11:28:30Z</time></trkpt><trkpt lat="43.48208398359176" lon="13.480898292427314"><ele>169.2</ele><time>2026-04-25T11:28:31Z</time></trkpt><trkpt lat="43.48218739817905" lon="13.480925421099341"><ele>169.0</ele><time>2026-04-25T11:28:32Z</time></trkpt><trkpt lat="43.48229137547143" lon="13.480935016265759"><ele>170.83333333333334</ele><time>2026-04-25T11:28:33Z</time></trkpt><trkpt lat="43.48238607507399" lon="13.480948649614787"><ele>172.66666666666669</ele><time>2026-04-25T11:28:34Z</time></trkpt><trkpt lat="43.482463923939434" lon="13.480971176504625"><ele>174.5</ele><time>2026-04-25T11:28:35Z</time></trkpt><trkpt lat="43.48252888790503" lon="13.480998253405804"><ele>176.33333333333334</ele><time>2026-04-25T11:28:36Z</time></trkpt><trkpt lat="43.48259082817973" lon="13.481039985294315"><ele>178.16666666666666</ele><time>2026-04-25T11:28:37Z</time></trkpt><trkpt lat="43.482672775436214" lon="13.481098625093734"><ele>180.0</ele><time>2026-04-25T11:28:38Z</time></trkpt><trkpt lat="43.48276739704344" lon="13.481182350906437"><ele>179.5</ele><time>2026-04-25T11:28:39Z</time></trkpt><trkpt lat="43.48285799973239" lon="13.481312553537776"><ele>179.0</ele><time>2026-04-25T11:28:40Z</time></trkpt><trkpt lat="43.4829493379196" lon="13.481453689470388"><ele>178.5</ele><time>2026-04-25T11:28:41Z</time></trkpt><trkpt lat="43.48304339706375" lon="13.481607869561097"><ele>178.0</ele><time>2026-04-25T11:28:42Z</time></trkpt><trkpt lat="43.48312254532793" lon="13.481773995928448"><ele>180.25</ele><time>2026-04-25T11:28:43Z</time></trkpt><trkpt lat="43.48319574188366" lon="13.481938386542483"><ele>182.5</ele><time>2026-04-25T11:28:44Z</time></trkpt><trkpt lat="43.48325037355765" lon="13.482096188859323"><ele>184.75</ele><time>2026-04-25T11:28:45Z</time></trkpt><trkpt lat="43.4832984576952" lon="13.482262086394895"><ele>187.0</ele><time>2026-04-25T11:28:46Z</time></trkpt><trkpt lat="43.48334415030007" lon="13.482450314810185"><ele>187.0</ele><time>2026-04-25T11:28:47Z</time></trkpt><trkpt lat="43.483383660961636" lon="13.482646046053246"><ele>187.0</ele><time>2026-04-25T11:28:48Z</time></trkpt><trkpt lat="43.48341776879812" lon="13.482799322102002"><ele>187.0</ele><time>2026-04-25T11:28:49Z</time></trkpt><trkpt lat="43.48344258959259" lon="13.482920654430607"><ele>187.0</ele><time>2026-04-25T11:28:50Z</time></trkpt><trkpt lat="43.483464803883386" lon="13.483022157663953"><ele>187.0</ele><time>2026-04-25T11:28:51Z</time></trkpt><trkpt lat="43.48348956412482" lon="13.483110989279023"><ele>186.2</ele><time>2026-04-25T11:28:52Z</time></trkpt><trkpt lat="43.483506959068656" lon="13.483221724751278"><ele>185.39999999999998</ele><time>2026-04-25T11:28:53Z</time></trkpt><trkpt lat="43.48353859562553" lon="13.483346490920901"><ele>184.60000000000002</ele><time>2026-04-25T11:28:54Z</time></trkpt><trkpt lat="43.48358937197828" lon="13.48347240154177"><ele>183.8</ele><time>2026-04-25T11:28:55Z</time></trkpt><trkpt lat="43.483651762747606" lon="13.483587432523425"><ele>183.0</ele><time>2026-04-25T11:28:56Z</time></trkpt><trkpt lat="43.483727027685255" lon="13.483688735234121"><ele>185.75</ele><time>2026-04-25T11:28:57Z</time></trkpt><trkpt lat="43.483814837990636" lon="13.483777653424076"><ele>188.5</ele><time>2026-04-25T11:28:58Z</time></trkpt><trkpt lat="43.483909529418874" lon="13.483859600261823"><ele>191.25</ele><time>2026-04-25T11:28:59Z</time></trkpt><trkpt lat="43.48401810920925" lon="13.483919912246616"><ele>194.0</ele><time>2026-04-25T11:29:00Z</time></trkpt><trkpt lat="43.48413598615469" lon="13.483969887710739"><ele>194.0</ele><time>2026-04-25T11:29:01Z</time></trkpt><trkpt lat="43.48424640812546" lon="13.484031932954808"><ele>194.0</ele><time>2026-04-25T11:29:02Z</time></trkpt><trkpt lat="43.484343379591564" lon="13.484103807358599"><ele>194.0</ele><time>2026-04-25T11:29:03Z</time></trkpt><trkpt lat="43.48443091116725" lon="13.484190234029686"><ele>194.0</ele><time>2026-04-25T11:29:04Z</time></trkpt><trkpt lat="43.48448742748324" lon="13.484304438881772"><ele>194.0</ele><time>2026-04-25T11:29:05Z</time></trkpt><trkpt lat="43.48450544627899" lon="13.484435830237054"><ele>194.0</ele><time>2026-04-25T11:29:06Z</time></trkpt><trkpt lat="43.4844715583831" lon="13.484585045251864"><ele>194.0</ele><time>2026-04-25T11:29:07Z</time></trkpt><trkpt lat="43.48441368915543" lon="13.484723777982342"><ele>194.0</ele><time>2026-04-25T11:29:08Z</time></trkpt><trkpt lat="43.48435825122422" lon="13.4848516430804"><ele>194.0</ele><time>2026-04-25T11:29:09Z</time></trkpt><trkpt lat="43.48430317041993" lon="13.484986645238267"><ele>194.0</ele><time>2026-04-25T11:29:10Z</time></trkpt><trkpt lat="43.48424956889561" lon="13.485137092069005"><ele>194.0</ele><time>2026-04-25T11:29:11Z</time></trkpt><trkpt lat="43.484199267463794" lon="13.485295656261526"><ele>194.0</ele><time>2026-04-25T11:29:12Z</time></trkpt><trkpt lat="43.484161078628084" lon="13.485471418165574"><ele>194.0</ele><time>2026-04-25T11:29:13Z</time></trkpt><trkpt lat="43.484127763637176" lon="13.485639305799818"><ele>195.0</ele><time>2026-04-25T11:29:14Z</time></trkpt><trkpt lat="43.48409231705896" lon="13.485779591254738"><ele>196.0</ele><time>2026-04-25T11:29:15Z</time></trkpt><trkpt lat="43.48405902000542" lon="13.485908531242663"><ele>197.0</ele><time>2026-04-25T11:29:16Z</time></trkpt><trkpt lat="43.48403116557627" lon="13.486025452382192"><ele>198.0</ele><time>2026-04-25T11:29:17Z</time></trkpt><trkpt lat="43.48399723078582" lon="13.486140719629713"><ele>199.0</ele><time>2026-04-25T11:29:18Z</time></trkpt><trkpt lat="43.48395833235695" lon="13.486265052522102"><ele>200.39999999999998</ele><time>2026-04-25T11:29:19Z</time></trkpt><trkpt lat="43.483927814574045" lon="13.486415664753137"><ele>201.8</ele><time>2026-04-25T11:29:20Z</time></trkpt><trkpt lat="43.483904307181305" lon="13.486577162320554"><ele>203.2</ele><time>2026-04-25T11:29:20.999Z</time></trkpt><trkpt lat="43.48388476435671" lon="13.486723677981105"><ele>204.60000000000002</ele><time>2026-04-25T11:29:21.999Z</time></trkpt><trkpt lat="43.48386516685594" lon="13.486865332172387"><ele>206.0</ele><time>2026-04-25T11:29:22.999Z</time></trkpt><trkpt lat="43.48384510558293" lon="13.48700031306142"><ele>207.0</ele><time>2026-04-25T11:29:23.999Z</time></trkpt><trkpt lat="43.48382954471411" lon="13.487147266527012"><ele>208.0</ele><time>2026-04-25T11:29:25.001Z</time></trkpt><trkpt lat="43.483795084463026" lon="13.4872890908014"><ele>209.0</ele><time>2026-04-25T11:29:26.001Z</time></trkpt><trkpt lat="43.48373283606742" lon="13.487427880145791"><ele>210.0</ele><time>2026-04-25T11:29:27.001Z</time></trkpt><trkpt lat="43.483641191745185" lon="13.487548761830237"><ele>204.25</ele><time>2026-04-25T11:29:28.001Z</time></trkpt><trkpt lat="43.48353452893913" lon="13.487653489919438"><ele>198.5</ele><time>2026-04-25T11:29:29.001Z</time></trkpt><trkpt lat="43.48341849158551" lon="13.48774151405978"><ele>192.75</ele><time>2026-04-25T11:29:30.001Z</time></trkpt><trkpt lat="43.48330318706785" lon="13.487816277192135"><ele>187.0</ele><time>2026-04-25T11:29:31.001Z</time></trkpt><trkpt lat="43.48319996934503" lon="13.487878198679061"><ele>188.39999999999998</ele><time>2026-04-25T11:29:32.001Z</time></trkpt><trkpt lat="43.48310882369714" lon="13.487949781996385"><ele>189.79999999999998</ele><time>2026-04-25T11:29:33.001Z</time></trkpt><trkpt lat="43.48302877418037" lon="13.488032671840962"><ele>191.2</ele><time>2026-04-25T11:29:34.001Z</time></trkpt><trkpt lat="43.482968029995064" lon="13.48813918395845"><ele>192.6</ele><time>2026-04-25T11:29:35.001Z</time></trkpt><trkpt lat="43.482929700247645" lon="13.488267190166319"><ele>194.0</ele><time>2026-04-25T11:29:36.001Z</time></trkpt><trkpt lat="43.48291946454467" lon="13.488428883746145"><ele>193.66666666666669</ele><time>2026-04-25T11:29:37.001Z</time></trkpt><trkpt lat="43.48292838120679" lon="13.488630410201974"><ele>193.33333333333331</ele><time>2026-04-25T11:29:38.001Z</time></trkpt><trkpt lat="43.48297074790952" lon="13.48884463390096"><ele>193.0</ele><time>2026-04-25T11:29:39.001Z</time></trkpt><trkpt lat="43.48301713605883" lon="13.48907361882603"><ele>193.0</ele><time>2026-04-25T11:29:40.001Z</time></trkpt><trkpt lat="43.48305969050017" lon="13.489293800991323"><ele>193.0</ele><time>2026-04-25T11:29:41.001Z</time></trkpt><trkpt lat="43.48307543237524" lon="13.489495912297896"><ele>193.0</ele><time>2026-04-25T11:29:42.001Z</time></trkpt><trkpt lat="43.48304706785039" lon="13.48969390993011"><ele>192.5</ele><time>2026-04-25T11:29:43.001Z</time></trkpt><trkpt lat="43.4829785811224" lon="13.48987849991493"><ele>192.0</ele><time>2026-04-25T11:29:44.001Z</time></trkpt><trkpt lat="43.48289767739748" lon="13.490042560368058"><ele>191.5</ele><time>2026-04-25T11:29:45.001Z</time></trkpt><trkpt lat="43.482828474039394" lon="13.49020431816103"><ele>191.0</ele><time>2026-04-25T11:29:46Z</time></trkpt><trkpt lat="43.482785842108655" lon="13.490377363191024"><ele>185.75</ele><time>2026-04-25T11:29:47Z</time></trkpt><trkpt lat="43.482776210507964" lon="13.490557992174411"><ele>180.5</ele><time>2026-04-25T11:29:48Z</time></trkpt><trkpt lat="43.48278550748444" lon="13.490734327554202"><ele>175.25</ele><time>2026-04-25T11:29:49Z</time></trkpt><trkpt lat="43.48279061320734" lon="13.490905665812644"><ele>170.0</ele><time>2026-04-25T11:29:50Z</time></trkpt><trkpt lat="43.482800600268405" lon="13.491071406708327"><ele>170.0</ele><time>2026-04-25T11:29:51Z</time></trkpt><trkpt lat="43.48280719524877" lon="13.49123250514558"><ele>170.0</ele><time>2026-04-25T11:29:52Z</time></trkpt><trkpt lat="43.48281589299438" lon="13.491397325780671"><ele>170.0</ele><time>2026-04-25T11:29:53Z</time></trkpt><trkpt lat="43.48283753502061" lon="13.491567171778538"><ele>170.0</ele><time>2026-04-25T11:29:54Z</time></trkpt><trkpt lat="43.482872408002414" lon="13.491739946867993"><ele>170.33333333333331</ele><time>2026-04-25T11:29:55Z</time></trkpt><trkpt lat="43.48292525213963" lon="13.491910455433672"><ele>170.66666666666666</ele><time>2026-04-25T11:29:56Z</time></trkpt><trkpt lat="43.48300949434015" lon="13.492099421611377"><ele>171.0</ele><time>2026-04-25T11:29:57Z</time></trkpt><trkpt lat="43.483079630428165" lon="13.492318443980606"><ele>171.0</ele><time>2026-04-25T11:29:58Z</time></trkpt><trkpt lat="43.4831686964597" lon="13.492553404512961"><ele>171.0</ele><time>2026-04-25T11:29:59Z</time></trkpt><trkpt lat="43.4832596460394" lon="13.492774104424212"><ele>171.0</ele><time>2026-04-25T11:30:00Z</time></trkpt><trkpt lat="43.48333892653232" lon="13.492985518852505"><ele>167.33333333333334</ele><time>2026-04-25T11:30:01Z</time></trkpt><trkpt lat="43.48344121614869" lon="13.493165635928529"><ele>163.66666666666669</ele><time>2026-04-25T11:30:02Z</time></trkpt><trkpt lat="43.483565735417905" lon="13.493317824681384"><ele>160.0</ele><time>2026-04-25T11:30:03Z</time></trkpt><trkpt lat="43.48367271616131" lon="13.493444593418616"><ele>160.0</ele><time>2026-04-25T11:30:04Z</time></trkpt><trkpt lat="43.483762379975154" lon="13.493548055887462"><ele>160.0</ele><time>2026-04-25T11:30:05Z</time></trkpt><trkpt lat="43.48383214226662" lon="13.493647871010372"><ele>160.0</ele><time>2026-04-25T11:30:06Z</time></trkpt><trkpt lat="43.483889477304764" lon="13.493748415505019"><ele>160.0</ele><time>2026-04-25T11:30:07Z</time></trkpt><trkpt lat="43.48392929526223" lon="13.49385024487506"><ele>160.0</ele><time>2026-04-25T11:30:08Z</time></trkpt><trkpt lat="43.48396487107859" lon="13.493935266157495"><ele>160.66666666666669</ele><time>2026-04-25T11:30:09Z</time></trkpt><trkpt lat="43.484017604209235" lon="13.493983137151844"><ele>161.33333333333334</ele><time>2026-04-25T11:30:10Z</time></trkpt><trkpt lat="43.48408739692779" lon="13.494007492680776"><ele>162.0</ele><time>2026-04-25T11:30:11Z</time></trkpt><trkpt lat="43.48416281195967" lon="13.494013107896247"><ele>162.66666666666666</ele><time>2026-04-25T11:30:12Z</time></trkpt><trkpt lat="43.484247152742064" lon="13.493994114967213"><ele>163.33333333333331</ele><time>2026-04-25T11:30:13Z</time></trkpt><trkpt lat="43.48434027959936" lon="13.49401021037844"><ele>164.0</ele><time>2026-04-25T11:30:14Z</time></trkpt><trkpt lat="43.48441430179153" lon="13.494015420911717"><ele>164.0</ele><time>2026-04-25T11:30:15Z</time></trkpt><trkpt lat="43.4845139404452" lon="13.494021094177691"><ele>164.0</ele><time>2026-04-25T11:30:16Z</time></trkpt><trkpt lat="43.484630305151235" lon="13.494023068916466"><ele>164.0</ele><time>2026-04-25T11:30:17Z</time></trkpt><trkpt lat="43.48475933753329" lon="13.494053313887383"><ele>164.0</ele><time>2026-04-25T11:30:18Z</time></trkpt><trkpt lat="43.4849134067107" lon="13.494101747545558"><ele>164.66666666666666</ele><time>2026-04-25T11:30:19Z</time></trkpt><trkpt lat="43.48507086894923" lon="13.494174373959291"><ele>165.33333333333334</ele><time>2026-04-25T11:30:20Z</time></trkpt><trkpt lat="43.48525296306849" lon="13.494260353978397"><ele>166.0</ele><time>2026-04-25T11:30:21Z</time></trkpt><trkpt lat="43.485434481259055" lon="13.49439017942438"><ele>166.33333333333334</ele><time>2026-04-25T11:30:22Z</time></trkpt><trkpt lat="43.48558772021978" lon="13.494512120918532"><ele>166.66666666666666</ele><time>2026-04-25T11:30:23Z</time></trkpt><trkpt lat="43.48575045880362" lon="13.494664253440229"><ele>167.0</ele><time>2026-04-25T11:30:24Z</time></trkpt><trkpt lat="43.4858931935023" lon="13.494800001509825"><ele>163.33333333333331</ele><time>2026-04-25T11:30:25Z</time></trkpt><trkpt lat="43.4860286245087" lon="13.494991803195433"><ele>159.66666666666666</ele><time>2026-04-25T11:30:26Z</time></trkpt><trkpt lat="43.48615685117175" lon="13.495218961974917"><ele>156.0</ele><time>2026-04-25T11:30:27Z</time></trkpt><trkpt lat="43.486287740789294" lon="13.495466612870262"><ele>156.0</ele><time>2026-04-25T11:30:28Z</time></trkpt><trkpt lat="43.486428361574085" lon="13.495720455222276"><ele>156.0</ele><time>2026-04-25T11:30:29Z</time></trkpt><trkpt lat="43.48655796475924" lon="13.495958615737422"><ele>156.0</ele><time>2026-04-25T11:30:30Z</time></trkpt><trkpt lat="43.4866730180667" lon="13.496175692617808"><ele>153.66666666666666</ele><time>2026-04-25T11:30:31Z</time></trkpt><trkpt lat="43.486782246628295" lon="13.496364987615548"><ele>151.33333333333331</ele><time>2026-04-25T11:30:32Z</time></trkpt><trkpt lat="43.48690857704321" lon="13.49649328402176"><ele>149.0</ele><time>2026-04-25T11:30:33Z</time></trkpt><trkpt lat="43.48705321038309" lon="13.496602631695303"><ele>150.0</ele><time>2026-04-25T11:30:34Z</time></trkpt><trkpt lat="43.48720884145967" lon="13.496686641177888"><ele>151.0</ele><time>2026-04-25T11:30:35Z</time></trkpt><trkpt lat="43.48737797944036" lon="13.496728588021826"><ele>152.0</ele><time>2026-04-25T11:30:36Z</time></trkpt><trkpt lat="43.48755742026336" lon="13.49672235767533"><ele>152.0</ele><time>2026-04-25T11:30:37Z</time></trkpt><trkpt lat="43.48773979402641" lon="13.496674398356832"><ele>152.0</ele><time>2026-04-25T11:30:38Z</time></trkpt><trkpt lat="43.48791201795197" lon="13.496589866113819"><ele>152.0</ele><time>2026-04-25T11:30:39Z</time></trkpt><trkpt lat="43.48806966235497" lon="13.496458722547088"><ele>151.33333333333331</ele><time>2026-04-25T11:30:40Z</time></trkpt><trkpt lat="43.488212593421814" lon="13.496287251233063"><ele>150.66666666666666</ele><time>2026-04-25T11:30:41Z</time></trkpt><trkpt lat="43.48834209618503" lon="13.496091367867834"><ele>150.0</ele><time>2026-04-25T11:30:42Z</time></trkpt><trkpt lat="43.488442247253346" lon="13.495855229057362"><ele>150.0</ele><time>2026-04-25T11:30:43Z</time></trkpt><trkpt lat="43.48851609831037" lon="13.495586766804685"><ele>150.0</ele><time>2026-04-25T11:30:44Z</time></trkpt><trkpt lat="43.488585011200676" lon="13.495324653299216"><ele>150.0</ele><time>2026-04-25T11:30:45Z</time></trkpt><trkpt lat="43.48865205385931" lon="13.495097206723779"><ele>151.5</ele><time>2026-04-25T11:30:46Z</time></trkpt><trkpt lat="43.48870942098278" lon="13.494911502844397"><ele>153.0</ele><time>2026-04-25T11:30:47Z</time></trkpt><trkpt lat="43.48876135470508" lon="13.4947810349358"><ele>154.5</ele><time>2026-04-25T11:30:48Z</time></trkpt><trkpt lat="43.48887423832668" lon="13.494677000807602"><ele>156.0</ele><time>2026-04-25T11:30:49Z</time></trkpt><trkpt lat="43.489004361166096" lon="13.49463553087879"><ele>153.0</ele><time>2026-04-25T11:30:50Z</time></trkpt><trkpt lat="43.48913484076494" lon="13.494662034862893"><ele>150.0</ele><time>2026-04-25T11:30:51Z</time></trkpt><trkpt lat="43.48926304252913" lon="13.494758130910139"><ele>147.0</ele><time>2026-04-25T11:30:52Z</time></trkpt><trkpt lat="43.48937994697379" lon="13.494913590076171"><ele>144.0</ele><time>2026-04-25T11:30:53Z</time></trkpt><trkpt lat="43.48948135132767" lon="13.495116563733745"><ele>144.0</ele><time>2026-04-25T11:30:54Z</time></trkpt><trkpt lat="43.48958383973392" lon="13.495316924427843"><ele>144.0</ele><time>2026-04-25T11:30:55Z</time></trkpt><trkpt lat="43.48969959285288" lon="13.495503274942179"><ele>144.0</ele><time>2026-04-25T11:30:56Z</time></trkpt><trkpt lat="43.48981116115681" lon="13.495683357294794"><ele>144.0</ele><time>2026-04-25T11:30:57Z</time></trkpt><trkpt lat="43.48991166363698" lon="13.495859237872423"><ele>144.0</ele><time>2026-04-25T11:30:58Z</time></trkpt><trkpt lat="43.49000360010968" lon="13.496033369623555"><ele>144.0</ele><time>2026-04-25T11:30:59Z</time></trkpt><trkpt lat="43.49007994256901" lon="13.496210880747485"><ele>142.5</ele><time>2026-04-25T11:31:00Z</time></trkpt><trkpt lat="43.49014465468028" lon="13.496388444370176"><ele>141.0</ele><time>2026-04-25T11:31:01Z</time></trkpt><trkpt lat="43.49020191613272" lon="13.49655280455909"><ele>139.5</ele><time>2026-04-25T11:31:02Z</time></trkpt><trkpt lat="43.490257640049926" lon="13.49670744834073"><ele>138.0</ele><time>2026-04-25T11:31:03Z</time></trkpt><trkpt lat="43.49031727671387" lon="13.496864307290002"><ele>138.0</ele><time>2026-04-25T11:31:04Z</time></trkpt><trkpt lat="43.490383668820314" lon="13.497028591491427"><ele>138.0</ele><time>2026-04-25T11:31:05Z</time></trkpt><trkpt lat="43.4904531312931" lon="13.497219259911967"><ele>138.0</ele><time>2026-04-25T11:31:06Z</time></trkpt><trkpt lat="43.490505204118875" lon="13.49741990218484"><ele>138.0</ele><time>2026-04-25T11:31:07Z</time></trkpt><trkpt lat="43.49054084552941" lon="13.497598674881825"><ele>138.20000000000002</ele><time>2026-04-25T11:31:08Z</time></trkpt><trkpt lat="43.49055857912248" lon="13.497761922704282"><ele>138.4</ele><time>2026-04-25T11:31:09Z</time></trkpt><trkpt lat="43.49057356067963" lon="13.497903609020076"><ele>138.60000000000002</ele><time>2026-04-25T11:31:10Z</time></trkpt><trkpt lat="43.490595611840824" lon="13.498024108682394"><ele>138.8</ele><time>2026-04-25T11:31:11Z</time></trkpt><trkpt lat="43.49061827924394" lon="13.49812740221272"><ele>139.0</ele><time>2026-04-25T11:31:12Z</time></trkpt><trkpt lat="43.49063727686616" lon="13.498310047473941"><ele>139.0</ele><time>2026-04-25T11:31:14Z</time></trkpt><trkpt lat="43.49065261815719" lon="13.498457278574882"><ele>139.0</ele><time>2026-04-25T11:31:15Z</time></trkpt><trkpt lat="43.490684454851106" lon="13.498627712190228"><ele>139.0</ele><time>2026-04-25T11:31:16Z</time></trkpt><trkpt lat="43.49071709960437" lon="13.498821751895711"><ele>139.0</ele><time>2026-04-25T11:31:17Z</time></trkpt><trkpt lat="43.49075206461498" lon="13.4990273815074"><ele>137.33333333333334</ele><time>2026-04-25T11:31:18Z</time></trkpt><trkpt lat="43.49079113604549" lon="13.499235912960316"><ele>135.66666666666666</ele><time>2026-04-25T11:31:19Z</time></trkpt><trkpt lat="43.49084116489485" lon="13.499441991304554"><ele>134.0</ele><time>2026-04-25T11:31:20Z</time></trkpt><trkpt lat="43.49088988964233" lon="13.499643167272065"><ele>133.5</ele><time>2026-04-25T11:31:21Z</time></trkpt><trkpt lat="43.490949495763296" lon="13.499823710520802"><ele>133.0</ele><time>2026-04-25T11:31:22Z</time></trkpt><trkpt lat="43.49101537639316" lon="13.50000533343328"><ele>132.5</ele><time>2026-04-25T11:31:23Z</time></trkpt><trkpt lat="43.49108809832322" lon="13.500189076543307"><ele>132.0</ele><time>2026-04-25T11:31:24Z</time></trkpt><trkpt lat="43.491152232169036" lon="13.50038136920322"><ele>132.25</ele><time>2026-04-25T11:31:25Z</time></trkpt><trkpt lat="43.49121451189853" lon="13.50055902249517"><ele>132.5</ele><time>2026-04-25T11:31:26Z</time></trkpt><trkpt lat="43.49127811723184" lon="13.500725646661902"><ele>132.75</ele><time>2026-04-25T11:31:27Z</time></trkpt><trkpt lat="43.49133898766148" lon="13.500892918339643"><ele>133.0</ele><time>2026-04-25T11:31:28Z</time></trkpt><trkpt lat="43.49139690202894" lon="13.501063730164757"><ele>133.0</ele><time>2026-04-25T11:31:29Z</time></trkpt><trkpt lat="43.491454713013106" lon="13.501235787856956"><ele>133.0</ele><time>2026-04-25T11:31:30Z</time></trkpt><trkpt lat="43.49150786354239" lon="13.501398874442998"><ele>133.0</ele><time>2026-04-25T11:31:31.001Z</time></trkpt><trkpt lat="43.491547285314816" lon="13.501554140364123"><ele>133.0</ele><time>2026-04-25T11:31:32.001Z</time></trkpt><trkpt lat="43.4915874477766" lon="13.501708888777298"><ele>132.0</ele><time>2026-04-25T11:31:33.001Z</time></trkpt><trkpt lat="43.491633693596654" lon="13.501880368118707"><ele>131.0</ele><time>2026-04-25T11:31:34.001Z</time></trkpt><trkpt lat="43.49168121913383" lon="13.50207647068201"><ele>130.0</ele><time>2026-04-25T11:31:35.001Z</time></trkpt><trkpt lat="43.491731401127225" lon="13.502294361421649"><ele>129.0</ele><time>2026-04-25T11:31:36.001Z</time></trkpt><trkpt lat="43.491788782271925" lon="13.502525112879752"><ele>128.66666666666666</ele><time>2026-04-25T11:31:37.001Z</time></trkpt><trkpt lat="43.49185349033459" lon="13.502767081003109"><ele>128.33333333333331</ele><time>2026-04-25T11:31:38.001Z</time></trkpt><trkpt lat="43.49192252635523" lon="13.503016336578485"><ele>128.0</ele><time>2026-04-25T11:31:39.001Z</time></trkpt><trkpt lat="43.49198913043695" lon="13.503248429093754"><ele>129.0</ele><time>2026-04-25T11:31:40.001Z</time></trkpt><trkpt lat="43.4920534728935" lon="13.503462312280973"><ele>130.0</ele><time>2026-04-25T11:31:41.001Z</time></trkpt><trkpt lat="43.49212032403877" lon="13.503675515871215"><ele>131.0</ele><time>2026-04-25T11:31:42.001Z</time></trkpt><trkpt lat="43.49217812162794" lon="13.503890792200252"><ele>130.33333333333331</ele><time>2026-04-25T11:31:43.001Z</time></trkpt><trkpt lat="43.49225125099378" lon="13.504119284240153"><ele>129.66666666666666</ele><time>2026-04-25T11:31:44.001Z</time></trkpt><trkpt lat="43.492331404966635" lon="13.504367976668943"><ele>129.0</ele><time>2026-04-25T11:31:45.001Z</time></trkpt><trkpt lat="43.49241563232862" lon="13.5046392501941"><ele>129.0</ele><time>2026-04-25T11:31:46.001Z</time></trkpt><trkpt lat="43.492494711053965" lon="13.504930095061734"><ele>129.0</ele><time>2026-04-25T11:31:47.001Z</time></trkpt><trkpt lat="43.49259534254988" lon="13.505225695361379"><ele>125.5</ele><time>2026-04-25T11:31:48.001Z</time></trkpt><trkpt lat="43.49270116567434" lon="13.505528954329671"><ele>122.0</ele><time>2026-04-25T11:31:49.001Z</time></trkpt><trkpt lat="43.492792296041806" lon="13.505851438509017"><ele>122.0</ele><time>2026-04-25T11:31:50.001Z</time></trkpt><trkpt lat="43.49288418419413" lon="13.506184231548426"><ele>122.0</ele><time>2026-04-25T11:31:51.001Z</time></trkpt><trkpt lat="43.49296337487795" lon="13.506505437190489"><ele>124.0</ele><time>2026-04-25T11:31:52.001Z</time></trkpt><trkpt lat="43.493011411666046" lon="13.506828971242953"><ele>126.0</ele><time>2026-04-25T11:31:53.001Z</time></trkpt><trkpt lat="43.49303124156053" lon="13.507164175330274"><ele>126.0</ele><time>2026-04-25T11:31:54Z</time></trkpt><trkpt lat="43.49301992572932" lon="13.50750752128113"><ele>126.0</ele><time>2026-04-25T11:31:55Z</time></trkpt><trkpt lat="43.49299412297873" lon="13.507838386454171"><ele>124.5</ele><time>2026-04-25T11:31:56Z</time></trkpt><trkpt lat="43.49296608606942" lon="13.508146284929985"><ele>123.0</ele><time>2026-04-25T11:31:57Z</time></trkpt><trkpt lat="43.49292607140436" lon="13.508457979464406"><ele>121.5</ele><time>2026-04-25T11:31:58Z</time></trkpt><trkpt lat="43.49287730495588" lon="13.50878171292471"><ele>120.0</ele><time>2026-04-25T11:31:59Z</time></trkpt><trkpt lat="43.49281489420375" lon="13.509117330258693"><ele>120.0</ele><time>2026-04-25T11:32:00Z</time></trkpt><trkpt lat="43.49274451772796" lon="13.509462300361829"><ele>120.0</ele><time>2026-04-25T11:32:01Z</time></trkpt><trkpt lat="43.49267656919413" lon="13.509820692365281"><ele>118.5</ele><time>2026-04-25T11:32:02Z</time></trkpt><trkpt lat="43.49261253030168" lon="13.510171633166516"><ele>117.0</ele><time>2026-04-25T11:32:03Z</time></trkpt><trkpt lat="43.492546736795745" lon="13.510497302749174"><ele>114.0</ele><time>2026-04-25T11:32:04Z</time></trkpt><trkpt lat="43.492480425756106" lon="13.510806581656826"><ele>111.0</ele><time>2026-04-25T11:32:05Z</time></trkpt><trkpt lat="43.492416422538184" lon="13.511105512385344"><ele>108.66666666666666</ele><time>2026-04-25T11:32:06Z</time></trkpt><trkpt lat="43.49235520238968" lon="13.5113976589335"><ele>106.33333333333333</ele><time>2026-04-25T11:32:07Z</time></trkpt><trkpt lat="43.49229422763361" lon="13.511684914459217"><ele>104.0</ele><time>2026-04-25T11:32:08Z</time></trkpt><trkpt lat="43.49223907376794" lon="13.511983278235963"><ele>102.5</ele><time>2026-04-25T11:32:09Z</time></trkpt><trkpt lat="43.49221481624189" lon="13.512306099516811"><ele>101.0</ele><time>2026-04-25T11:32:10Z</time></trkpt><trkpt lat="43.49222346118732" lon="13.51265738953055"><ele>100.5</ele><time>2026-04-25T11:32:11Z</time></trkpt><trkpt lat="43.492257422384114" lon="13.512999430269723"><ele>100.0</ele><time>2026-04-25T11:32:12Z</time></trkpt><trkpt lat="43.49230793189629" lon="13.513351565737684"><ele>100.0</ele><time>2026-04-25T11:32:13Z</time></trkpt><trkpt lat="43.49235874431082" lon="13.513703666134752"><ele>100.0</ele><time>2026-04-25T11:32:14Z</time></trkpt><trkpt lat="43.49240817524608" lon="13.514061828885502"><ele>100.5</ele><time>2026-04-25T11:32:15Z</time></trkpt><trkpt lat="43.49245389787036" lon="13.514425023862943"><ele>101.0</ele><time>2026-04-25T11:32:16Z</time></trkpt><trkpt lat="43.49249928214641" lon="13.514788561040023"><ele>103.0</ele><time>2026-04-25T11:32:17Z</time></trkpt><trkpt lat="43.49254533184523" lon="13.515151836370528"><ele>105.0</ele><time>2026-04-25T11:32:18Z</time></trkpt><trkpt lat="43.49259441685236" lon="13.515516530145103"><ele>106.0</ele><time>2026-04-25T11:32:19Z</time></trkpt><trkpt lat="43.49264425279514" lon="13.515876725570944"><ele>107.0</ele><time>2026-04-25T11:32:20Z</time></trkpt><trkpt lat="43.4926891466399" lon="13.516232451701601"><ele>109.5</ele><time>2026-04-25T11:32:21Z</time></trkpt><trkpt lat="43.492730806490016" lon="13.51658849904444"><ele>112.0</ele><time>2026-04-25T11:32:22Z</time></trkpt><trkpt lat="43.49277696987942" lon="13.516934244650217"><ele>113.5</ele><time>2026-04-25T11:32:23Z</time></trkpt><trkpt lat="43.4928176110816" lon="13.517261921082628"><ele>115.0</ele><time>2026-04-25T11:32:24Z</time></trkpt><trkpt lat="43.49285485069705" lon="13.517565032959237"><ele>115.0</ele><time>2026-04-25T11:32:25Z</time></trkpt><trkpt lat="43.49288622114219" lon="13.517849758638398"><ele>115.0</ele><time>2026-04-25T11:32:26Z</time></trkpt><trkpt lat="43.49291762353795" lon="13.51811124163064"><ele>115.0</ele><time>2026-04-25T11:32:27Z</time></trkpt><trkpt lat="43.49296553650473" lon="13.518354620792"><ele>114.66666666666667</ele><time>2026-04-25T11:32:28Z</time></trkpt><trkpt lat="43.493042242802375" lon="13.518594716333219"><ele>114.33333333333334</ele><time>2026-04-25T11:32:29Z</time></trkpt><trkpt lat="43.49313705448126" lon="13.51881812154501"><ele>114.0</ele><time>2026-04-25T11:32:30Z</time></trkpt><trkpt lat="43.49325082213091" lon="13.51898960914392"><ele>114.0</ele><time>2026-04-25T11:32:31Z</time></trkpt><trkpt lat="43.493395663347336" lon="13.519094616180096"><ele>114.0</ele><time>2026-04-25T11:32:32Z</time></trkpt><trkpt lat="43.49357611726504" lon="13.519145036985993"><ele>114.0</ele><time>2026-04-25T11:32:33Z</time></trkpt><trkpt lat="43.49377150878128" lon="13.519172161558437"><ele>111.33333333333334</ele><time>2026-04-25T11:32:34Z</time></trkpt><trkpt lat="43.49396126157579" lon="13.519222787775183"><ele>108.66666666666667</ele><time>2026-04-25T11:32:35Z</time></trkpt><trkpt lat="43.49412954378439" lon="13.51930172228731"><ele>106.0</ele><time>2026-04-25T11:32:36Z</time></trkpt><trkpt lat="43.49428479596373" lon="13.519421006239046"><ele>106.0</ele><time>2026-04-25T11:32:37Z</time></trkpt><trkpt lat="43.494407350968764" lon="13.51956276839401"><ele>106.0</ele><time>2026-04-25T11:32:38Z</time></trkpt><trkpt lat="43.49449272394895" lon="13.519715556513011"><ele>106.0</ele><time>2026-04-25T11:32:39Z</time></trkpt><trkpt lat="43.494533416938616" lon="13.519883658525483"><ele>106.0</ele><time>2026-04-25T11:32:40Z</time></trkpt><trkpt lat="43.494532170262175" lon="13.520094306880221"><ele>106.66666666666667</ele><time>2026-04-25T11:32:41Z</time></trkpt><trkpt lat="43.49448816794728" lon="13.52032821569823"><ele>107.33333333333334</ele><time>2026-04-25T11:32:42Z</time></trkpt><trkpt lat="43.49442750331321" lon="13.52057158862411"><ele>108.0</ele><time>2026-04-25T11:32:43Z</time></trkpt><trkpt lat="43.49434745874352" lon="13.52081933785743"><ele>108.0</ele><time>2026-04-25T11:32:44Z</time></trkpt><trkpt lat="43.49424494292992" lon="13.521063542024589"><ele>108.0</ele><time>2026-04-25T11:32:45Z</time></trkpt><trkpt lat="43.49414329710681" lon="13.521266524887702"><ele>108.0</ele><time>2026-04-25T11:32:46Z</time></trkpt><trkpt lat="43.49405654359528" lon="13.521453714448679"><ele>105.0</ele><time>2026-04-25T11:32:47Z</time></trkpt><trkpt lat="43.49400062241505" lon="13.521648867453965"><ele>102.0</ele><time>2026-04-25T11:32:48Z</time></trkpt><trkpt lat="43.4939689813326" lon="13.521870211335266"><ele>99.0</ele><time>2026-04-25T11:32:49Z</time></trkpt><trkpt lat="43.49396648676928" lon="13.522112384794152"><ele>98.33333333333334</ele><time>2026-04-25T11:32:50Z</time></trkpt><trkpt lat="43.49399897407353" lon="13.522372396408523"><ele>97.66666666666667</ele><time>2026-04-25T11:32:51Z</time></trkpt><trkpt lat="43.49405616463997" lon="13.522619266632272"><ele>97.0</ele><time>2026-04-25T11:32:52Z</time></trkpt><trkpt lat="43.494129069503394" lon="13.52287363570858"><ele>98.0</ele><time>2026-04-25T11:32:53Z</time></trkpt><trkpt lat="43.494222135055004" lon="13.523126220748487"><ele>99.0</ele><time>2026-04-25T11:32:54Z</time></trkpt><trkpt lat="43.494336860246065" lon="13.52336652815881"><ele>100.0</ele><time>2026-04-25T11:32:55Z</time></trkpt><trkpt lat="43.49446245676813" lon="13.523611490070582"><ele>100.66666666666667</ele><time>2026-04-25T11:32:56Z</time></trkpt><trkpt lat="43.494581532915035" lon="13.523864269378132"><ele>101.33333333333334</ele><time>2026-04-25T11:32:57Z</time></trkpt><trkpt lat="43.49470002477328" lon="13.52412068918341"><ele>102.0</ele><time>2026-04-25T11:32:58Z</time></trkpt><trkpt lat="43.49482125671328" lon="13.524378070635057"><ele>98.33333333333333</ele><time>2026-04-25T11:32:59Z</time></trkpt><trkpt lat="43.49493382261541" lon="13.524626847350019"><ele>94.66666666666666</ele><time>2026-04-25T11:33:00Z</time></trkpt><trkpt lat="43.49503598693788" lon="13.524863990992653"><ele>91.0</ele><time>2026-04-25T11:33:01Z</time></trkpt><trkpt lat="43.495124714109544" lon="13.52509449302614"><ele>91.0</ele><time>2026-04-25T11:33:02Z</time></trkpt><trkpt lat="43.49518511991839" lon="13.52533483851929"><ele>91.0</ele><time>2026-04-25T11:33:03Z</time></trkpt><trkpt lat="43.49521634447309" lon="13.525575192032267"><ele>91.0</ele><time>2026-04-25T11:33:04Z</time></trkpt><trkpt lat="43.495218191752656" lon="13.525822909644464"><ele>90.0</ele><time>2026-04-25T11:33:05Z</time></trkpt><trkpt lat="43.49517849656441" lon="13.526094756418846"><ele>89.0</ele><time>2026-04-25T11:33:06Z</time></trkpt><trkpt lat="43.49512576206211" lon="13.526368030340297"><ele>88.0</ele><time>2026-04-25T11:33:07Z</time></trkpt><trkpt lat="43.49505377941344" lon="13.526644713962742"><ele>86.0</ele><time>2026-04-25T11:33:08Z</time></trkpt><trkpt lat="43.49495210482702" lon="13.526919065460431"><ele>84.0</ele><time>2026-04-25T11:33:09Z</time></trkpt><trkpt lat="43.49482855213353" lon="13.527197302885812"><ele>88.0</ele><time>2026-04-25T11:33:10Z</time></trkpt><trkpt lat="43.494689820789624" lon="13.527482320573286"><ele>92.0</ele><time>2026-04-25T11:33:11Z</time></trkpt><trkpt lat="43.494552276838924" lon="13.527778538553777"><ele>87.0</ele><time>2026-04-25T11:33:12Z</time></trkpt><trkpt lat="43.49441452569217" lon="13.528085833842022"><ele>82.0</ele><time>2026-04-25T11:33:13Z</time></trkpt><trkpt lat="43.49427234313342" lon="13.528401278532526"><ele>82.0</ele><time>2026-04-25T11:33:14Z</time></trkpt><trkpt lat="43.494143131395624" lon="13.528693849108901"><ele>82.0</ele><time>2026-04-25T11:33:15Z</time></trkpt><trkpt lat="43.49401402088023" lon="13.52897242336827"><ele>76.5</ele><time>2026-04-25T11:33:16Z</time></trkpt><trkpt lat="43.49389288386055" lon="13.529245074730762"><ele>71.0</ele><time>2026-04-25T11:33:17Z</time></trkpt><trkpt lat="43.49377062463248" lon="13.529502874331879"><ele>74.0</ele><time>2026-04-25T11:33:18Z</time></trkpt><trkpt lat="43.49365984280043" lon="13.529744443314087"><ele>77.0</ele><time>2026-04-25T11:33:19Z</time></trkpt><trkpt lat="43.49356403607974" lon="13.529991156198845"><ele>80.0</ele><time>2026-04-25T11:33:20Z</time></trkpt><trkpt lat="43.493491144769614" lon="13.53026513573906"><ele>77.0</ele><time>2026-04-25T11:33:21Z</time></trkpt><trkpt lat="43.49344369820443" lon="13.530565753265174"><ele>74.0</ele><time>2026-04-25T11:33:22Z</time></trkpt><trkpt lat="43.493425716809334" lon="13.530872027926693"><ele>71.0</ele><time>2026-04-25T11:33:23Z</time></trkpt><trkpt lat="43.49344453464248" lon="13.531181201975938"><ele>70.66666666666667</ele><time>2026-04-25T11:33:24Z</time></trkpt><trkpt lat="43.49349184390065" lon="13.531472557505351"><ele>70.33333333333333</ele><time>2026-04-25T11:33:25Z</time></trkpt><trkpt lat="43.49355904442659" lon="13.531730527253531"><ele>70.0</ele><time>2026-04-25T11:33:26Z</time></trkpt><trkpt lat="43.49365091033225" lon="13.531952643183843"><ele>67.0</ele><time>2026-04-25T11:33:27Z</time></trkpt><trkpt lat="43.49378551680977" lon="13.53212679488488"><ele>64.0</ele><time>2026-04-25T11:33:28Z</time></trkpt><trkpt lat="43.49395532042767" lon="13.53227039071831"><ele>61.0</ele><time>2026-04-25T11:33:29Z</time></trkpt><trkpt lat="43.494143162302805" lon="13.532393300612744"><ele>61.0</ele><time>2026-04-25T11:33:30Z</time></trkpt><trkpt lat="43.49435515297472" lon="13.532485403980724"><ele>61.0</ele><time>2026-04-25T11:33:31Z</time></trkpt><trkpt lat="43.49458143044167" lon="13.532565444953908"><ele>58.0</ele><time>2026-04-25T11:33:32Z</time></trkpt><trkpt lat="43.49480736255729" lon="13.532654706891986"><ele>55.0</ele><time>2026-04-25T11:33:32.999Z</time></trkpt><trkpt lat="43.49503436768303" lon="13.532750249358513"><ele>55.0</ele><time>2026-04-25T11:33:33.999Z</time></trkpt><trkpt lat="43.49526228000098" lon="13.532848036819193"><ele>55.0</ele><time>2026-04-25T11:33:34.999Z</time></trkpt><trkpt lat="43.49547892231665" lon="13.532942699566265"><ele>55.0</ele><time>2026-04-25T11:33:35.999Z</time></trkpt><trkpt lat="43.4956860941457" lon="13.533029357753911"><ele>55.0</ele><time>2026-04-25T11:33:37.001Z</time></trkpt><trkpt lat="43.49587658639212" lon="13.53310368518891"><ele>55.0</ele><time>2026-04-25T11:33:38.001Z</time></trkpt><trkpt lat="43.496041020482316" lon="13.53316971804683"><ele>55.0</ele><time>2026-04-25T11:33:39.001Z</time></trkpt><trkpt lat="43.49617737697586" lon="13.533242087241952"><ele>55.0</ele><time>2026-04-25T11:33:40.001Z</time></trkpt><trkpt lat="43.49629245423915" lon="13.533346347092035"><ele>55.0</ele><time>2026-04-25T11:33:41.001Z</time></trkpt><trkpt lat="43.49637827438958" lon="13.533499769759377"><ele>55.0</ele><time>2026-04-25T11:33:42.001Z</time></trkpt><trkpt lat="43.49642700738713" lon="13.533685813845693"><ele>50.33333333333333</ele><time>2026-04-25T11:33:43.001Z</time></trkpt><trkpt lat="43.49642776713011" lon="13.533887700587181"><ele>45.666666666666664</ele><time>2026-04-25T11:33:44.001Z</time></trkpt><trkpt lat="43.496383388847605" lon="13.534096832913383"><ele>41.0</ele><time>2026-04-25T11:33:45.001Z</time></trkpt><trkpt lat="43.496305102906376" lon="13.53427376427379"><ele>41.0</ele><time>2026-04-25T11:33:46.001Z</time></trkpt><trkpt lat="43.49618607514708" lon="13.534423853577012"><ele>41.0</ele><time>2026-04-25T11:33:47.001Z</time></trkpt><trkpt lat="43.49604114522484" lon="13.534557572744692"><ele>41.0</ele><time>2026-04-25T11:33:48.001Z</time></trkpt><trkpt lat="43.495880332227955" lon="13.534696334246242"><ele>41.0</ele><time>2026-04-25T11:33:49.001Z</time></trkpt><trkpt lat="43.49570395224388" lon="13.534833176766865"><ele>41.0</ele><time>2026-04-25T11:33:50.001Z</time></trkpt><trkpt lat="43.49552363371909" lon="13.534994932417629"><ele>41.0</ele><time>2026-04-25T11:33:51.001Z</time></trkpt><trkpt lat="43.4953384332081" lon="13.535170893903867"><ele>40.33333333333333</ele><time>2026-04-25T11:33:52.001Z</time></trkpt><trkpt lat="43.49515452394136" lon="13.535313578346411"><ele>39.666666666666664</ele><time>2026-04-25T11:33:53.001Z</time></trkpt><trkpt lat="43.494995438809156" lon="13.535474125089957"><ele>39.0</ele><time>2026-04-25T11:33:54.001Z</time></trkpt><trkpt lat="43.49486567019368" lon="13.535665195275467"><ele>39.0</ele><time>2026-04-25T11:33:55Z</time></trkpt><trkpt lat="43.49475738767809" lon="13.535864919616573"><ele>39.0</ele><time>2026-04-25T11:33:56Z</time></trkpt><trkpt lat="43.49466556418041" lon="13.536076843594742"><ele>39.0</ele><time>2026-04-25T11:33:57Z</time></trkpt><trkpt lat="43.49459469372388" lon="13.536304715718613"><ele>38.333333333333336</ele><time>2026-04-25T11:33:58Z</time></trkpt><trkpt lat="43.49458443631049" lon="13.536521167142494"><ele>37.66666666666667</ele><time>2026-04-25T11:33:59Z</time></trkpt><trkpt lat="43.49460300001149" lon="13.536752549307334"><ele>37.0</ele><time>2026-04-25T11:34:00Z</time></trkpt><trkpt lat="43.494687607499735" lon="13.536963267931784"><ele>36.0</ele><time>2026-04-25T11:34:01Z</time></trkpt><trkpt lat="43.494782882275096" lon="13.537194909308994"><ele>35.0</ele><time>2026-04-25T11:34:02Z</time></trkpt><trkpt lat="43.494924010591745" lon="13.537398896694063"><ele>34.0</ele><time>2026-04-25T11:34:03Z</time></trkpt><trkpt lat="43.49509739479383" lon="13.537565417877556"><ele>34.0</ele><time>2026-04-25T11:34:04Z</time></trkpt><trkpt lat="43.49527919875572" lon="13.537739545321493"><ele>34.0</ele><time>2026-04-25T11:34:05Z</time></trkpt><trkpt lat="43.495489667303964" lon="13.537860451502725"><ele>34.0</ele><time>2026-04-25T11:34:06Z</time></trkpt><trkpt lat="43.49541517204341" lon="13.537981499228113"><ele>36.0</ele><time>2026-04-25T11:34:07Z</time></trkpt><trkpt lat="43.4955973668015" lon="13.538082372640801"><ele>38.0</ele><time>2026-04-25T11:34:08Z</time></trkpt><trkpt lat="43.495775707134804" lon="13.538190819711206"><ele>40.0</ele><time>2026-04-25T11:34:09Z</time></trkpt><trkpt lat="43.49596008103944" lon="13.5383000310277"><ele>40.0</ele><time>2026-04-25T11:34:10Z</time></trkpt><trkpt lat="43.496131125931825" lon="13.538402627227718"><ele>40.0</ele><time>2026-04-25T11:34:11Z</time></trkpt><trkpt lat="43.496262225035466" lon="13.538472457776207"><ele>40.0</ele><time>2026-04-25T11:34:12Z</time></trkpt><trkpt lat="43.496398645829835" lon="13.5385477447812"><ele>38.25</ele><time>2026-04-25T11:34:13Z</time></trkpt><trkpt lat="43.49649503282275" lon="13.538583820899477"><ele>36.5</ele><time>2026-04-25T11:34:14Z</time></trkpt><trkpt lat="43.49657812387676" lon="13.538628088195276"><ele>34.75</ele><time>2026-04-25T11:34:15Z</time></trkpt><trkpt lat="43.496786444563604" lon="13.538593987473812"><ele>33.0</ele><time>2026-04-25T11:34:17Z</time></trkpt><trkpt lat="43.496877184922816" lon="13.538611144369666"><ele>33.0</ele><time>2026-04-25T11:34:18Z</time></trkpt><trkpt lat="43.49698316330556" lon="13.538695372412887"><ele>33.0</ele><time>2026-04-25T11:34:20Z</time></trkpt><trkpt lat="43.49703630690609" lon="13.538798993155822"><ele>33.0</ele><time>2026-04-25T11:34:21Z</time></trkpt><trkpt lat="43.49713079382682" lon="13.538888343886889"><ele>33.0</ele><time>2026-04-25T11:34:22Z</time></trkpt><trkpt lat="43.49725804761684" lon="13.538905841341084"><ele>30.333333333333336</ele><time>2026-04-25T11:34:23Z</time></trkpt><trkpt lat="43.497369776418886" lon="13.538847848191226"><ele>27.666666666666668</ele><time>2026-04-25T11:34:24Z</time></trkpt><trkpt lat="43.49752119609185" lon="13.538877391509255"><ele>25.0</ele><time>2026-04-25T11:34:25Z</time></trkpt><trkpt lat="43.49769406898891" lon="13.53902024716038"><ele>25.0</ele><time>2026-04-25T11:34:26Z</time></trkpt><trkpt lat="43.49789477541381" lon="13.53912301301846"><ele>25.0</ele><time>2026-04-25T11:34:27Z</time></trkpt><trkpt lat="43.49807353945455" lon="13.539226210414215"><ele>25.0</ele><time>2026-04-25T11:34:28Z</time></trkpt><trkpt lat="43.49826927290781" lon="13.53934091708633"><ele>24.666666666666668</ele><time>2026-04-25T11:34:29Z</time></trkpt><trkpt lat="43.49844986862801" lon="13.539496302052632"><ele>24.333333333333336</ele><time>2026-04-25T11:34:30Z</time></trkpt><trkpt lat="43.49861558476467" lon="13.539677147960385"><ele>24.0</ele><time>2026-04-25T11:34:30.999Z</time></trkpt><trkpt lat="43.49875181347051" lon="13.539896097539867"><ele>22.666666666666668</ele><time>2026-04-25T11:34:31.999Z</time></trkpt><trkpt lat="43.49887262825612" lon="13.540110891392718"><ele>21.333333333333336</ele><time>2026-04-25T11:34:32.999Z</time></trkpt><trkpt lat="43.49899214974809" lon="13.5403050883562"><ele>20.0</ele><time>2026-04-25T11:34:33.999Z</time></trkpt><trkpt lat="43.49908060966237" lon="13.54054851795451"><ele>20.0</ele><time>2026-04-25T11:34:34.999Z</time></trkpt><trkpt lat="43.499144238973706" lon="13.540812042733037"><ele>20.0</ele><time>2026-04-25T11:34:35.999Z</time></trkpt><trkpt lat="43.49917754981466" lon="13.54108419143261"><ele>20.0</ele><time>2026-04-25T11:34:36.999Z</time></trkpt><trkpt lat="43.49917463469225" lon="13.541348956629292"><ele>19.666666666666668</ele><time>2026-04-25T11:34:37.999Z</time></trkpt><trkpt lat="43.49915159387285" lon="13.541600310255872"><ele>19.333333333333332</ele><time>2026-04-25T11:34:38.999Z</time></trkpt><trkpt lat="43.499107055513804" lon="13.541835568976255"><ele>19.0</ele><time>2026-04-25T11:34:39.999Z</time></trkpt><trkpt lat="43.49904211305148" lon="13.542056800311615"><ele>19.0</ele><time>2026-04-25T11:34:40.999Z</time></trkpt><trkpt lat="43.498979943250056" lon="13.542247873846607"><ele>19.0</ele><time>2026-04-25T11:34:41.999Z</time></trkpt><trkpt lat="43.49896410820861" lon="13.542428059799098"><ele>19.0</ele><time>2026-04-25T11:34:42.999Z</time></trkpt><trkpt lat="43.49899357865752" lon="13.542607019756863"><ele>19.0</ele><time>2026-04-25T11:34:43.999Z</time></trkpt><trkpt lat="43.49905716605053" lon="13.542769472117637"><ele>18.75</ele><time>2026-04-25T11:34:44.999Z</time></trkpt><trkpt lat="43.4991422526433" lon="13.542903604142285"><ele>18.5</ele><time>2026-04-25T11:34:45.999Z</time></trkpt><trkpt lat="43.49926043918131" lon="13.543008652045822"><ele>18.25</ele><time>2026-04-25T11:34:46.999Z</time></trkpt><trkpt lat="43.4993996883348" lon="13.543095288865073"><ele>18.0</ele><time>2026-04-25T11:34:47.999Z</time></trkpt><trkpt lat="43.49954942249346" lon="13.543194304126729"><ele>18.0</ele><time>2026-04-25T11:34:48.999Z</time></trkpt><trkpt lat="43.49970109456892" lon="13.54331166900594"><ele>18.0</ele><time>2026-04-25T11:34:49.999Z</time></trkpt><trkpt lat="43.49985955172963" lon="13.543433393100736"><ele>18.0</ele><time>2026-04-25T11:34:50.999Z</time></trkpt><trkpt lat="43.50002379226137" lon="13.543560572241441"><ele>18.0</ele><time>2026-04-25T11:34:51.999Z</time></trkpt><trkpt lat="43.500191813265396" lon="13.543692897855069"><ele>18.0</ele><time>2026-04-25T11:34:52.999Z</time></trkpt><trkpt lat="43.500364349759984" lon="13.54383025094184"><ele>18.0</ele><time>2026-04-25T11:34:53.999Z</time></trkpt><trkpt lat="43.50053758868953" lon="13.543967081300533"><ele>18.666666666666668</ele><time>2026-04-25T11:34:54.999Z</time></trkpt><trkpt lat="43.500709471753126" lon="13.544111750967724"><ele>19.333333333333336</ele><time>2026-04-25T11:34:55.999Z</time></trkpt><trkpt lat="43.50088707818926" lon="13.544288333566763"><ele>20.0</ele><time>2026-04-25T11:34:56.999Z</time></trkpt><trkpt lat="43.50106411565992" lon="13.544477143886718"><ele>19.5</ele><time>2026-04-25T11:34:57.999Z</time></trkpt><trkpt lat="43.501242222569154" lon="13.544672919458591"><ele>19.0</ele><time>2026-04-25T11:34:58.999Z</time></trkpt><trkpt lat="43.50142470173127" lon="13.544867782625172"><ele>19.0</ele><time>2026-04-25T11:34:59.999Z</time></trkpt><trkpt lat="43.50160889465271" lon="13.545066430176483"><ele>19.0</ele><time>2026-04-25T11:35:00.999Z</time></trkpt><trkpt lat="43.501789602974654" lon="13.545260388419972"><ele>18.666666666666664</ele><time>2026-04-25T11:35:01.999Z</time></trkpt><trkpt lat="43.5019544024987" lon="13.545439026389372"><ele>18.333333333333332</ele><time>2026-04-25T11:35:02.999Z</time></trkpt><trkpt lat="43.502104506077394" lon="13.545604416729882"><ele>18.0</ele><time>2026-04-25T11:35:03.999Z</time></trkpt><trkpt lat="43.50225766285734" lon="13.545743996358652"><ele>18.0</ele><time>2026-04-25T11:35:04.999Z</time></trkpt><trkpt lat="43.50243527075373" lon="13.545842572439804"><ele>18.0</ele><time>2026-04-25T11:35:05.999Z</time></trkpt><trkpt lat="43.50263782019553" lon="13.545880793394655"><ele>18.0</ele><time>2026-04-25T11:35:06.999Z</time></trkpt><trkpt lat="43.502849669185764" lon="13.545895414109633"><ele>17.666666666666668</ele><time>2026-04-25T11:35:07.999Z</time></trkpt><trkpt lat="43.503052423678895" lon="13.545923395474627"><ele>17.333333333333336</ele><time>2026-04-25T11:35:08.999Z</time></trkpt><trkpt lat="43.503258275408214" lon="13.545952495410505"><ele>17.0</ele><time>2026-04-25T11:35:09.999Z</time></trkpt><trkpt lat="43.503462592858696" lon="13.545974996073424"><ele>17.0</ele><time>2026-04-25T11:35:10.999Z</time></trkpt><trkpt lat="43.50366227418812" lon="13.546001449986534"><ele>17.0</ele><time>2026-04-25T11:35:11.999Z</time></trkpt><trkpt lat="43.50385055754995" lon="13.546028788266701"><ele>17.0</ele><time>2026-04-25T11:35:12.999Z</time></trkpt><trkpt lat="43.50404087718645" lon="13.54605663042351"><ele>17.333333333333336</ele><time>2026-04-25T11:35:13.999Z</time></trkpt><trkpt lat="43.50423664441032" lon="13.546092186948904"><ele>17.666666666666668</ele><time>2026-04-25T11:35:14.999Z</time></trkpt><trkpt lat="43.5044390588493" lon="13.546129700411338"><ele>18.0</ele><time>2026-04-25T11:35:15.999Z</time></trkpt><trkpt lat="43.50464469940923" lon="13.546174105691795"><ele>18.666666666666668</ele><time>2026-04-25T11:35:16.999Z</time></trkpt><trkpt lat="43.504847061774136" lon="13.546216985346982"><ele>19.333333333333336</ele><time>2026-04-25T11:35:17.999Z</time></trkpt><trkpt lat="43.50505399324323" lon="13.546258810201405"><ele>20.0</ele><time>2026-04-25T11:35:18.999Z</time></trkpt><trkpt lat="43.50522925914224" lon="13.546297187622493"><ele>20.0</ele><time>2026-04-25T11:35:19.999Z</time></trkpt><trkpt lat="43.505388528500276" lon="13.54633706333795"><ele>20.0</ele><time>2026-04-25T11:35:20.999Z</time></trkpt><trkpt lat="43.50553268519033" lon="13.546376840652249"><ele>20.0</ele><time>2026-04-25T11:35:21.999Z</time></trkpt><trkpt lat="43.505686554079254" lon="13.546427365156294"><ele>20.333333333333336</ele><time>2026-04-25T11:35:22.999Z</time></trkpt><trkpt lat="43.50584449135256" lon="13.546470014230687"><ele>20.666666666666668</ele><time>2026-04-25T11:35:23.999Z</time></trkpt><trkpt lat="43.506003473925766" lon="13.546517166048027"><ele>21.0</ele><time>2026-04-25T11:35:24.999Z</time></trkpt><trkpt lat="43.50615364179373" lon="13.546580929876436"><ele>22.0</ele><time>2026-04-25T11:35:25.999Z</time></trkpt><trkpt lat="43.50631383167465" lon="13.546624361731194"><ele>23.0</ele><time>2026-04-25T11:35:26.999Z</time></trkpt><trkpt lat="43.50645153927424" lon="13.54666729362296"><ele>24.0</ele><time>2026-04-25T11:35:27.999Z</time></trkpt><trkpt lat="43.506565372782525" lon="13.54670313124367"><ele>25.0</ele><time>2026-04-25T11:35:28.999Z</time></trkpt><trkpt lat="43.50665985182682" lon="13.54675996491841"><ele>25.0</ele><time>2026-04-25T11:35:29.999Z</time></trkpt><trkpt lat="43.50673362626821" lon="13.546863789785801"><ele>25.0</ele><time>2026-04-25T11:35:30.999Z</time></trkpt><trkpt lat="43.50676511074221" lon="13.54700810231401"><ele>25.0</ele><time>2026-04-25T11:35:31.999Z</time></trkpt><trkpt lat="43.50674185322558" lon="13.547166870763078"><ele>25.0</ele><time>2026-04-25T11:35:32.999Z</time></trkpt><trkpt lat="43.50670581239036" lon="13.54733110162618"><ele>23.666666666666668</ele><time>2026-04-25T11:35:33.999Z</time></trkpt><trkpt lat="43.50659614576977" lon="13.547501937088006"><ele>22.333333333333336</ele><time>2026-04-25T11:35:34.999Z</time></trkpt><trkpt lat="43.506499538576364" lon="13.54769479433803"><ele>21.0</ele><time>2026-04-25T11:35:35.999Z</time></trkpt><trkpt lat="43.506396496972364" lon="13.547896016586089"><ele>20.666666666666668</ele><time>2026-04-25T11:35:36.999Z</time></trkpt><trkpt lat="43.506294073964945" lon="13.548117414708242"><ele>20.333333333333336</ele><time>2026-04-25T11:35:37.999Z</time></trkpt><trkpt lat="43.50618671917026" lon="13.548349802449575"><ele>20.0</ele><time>2026-04-25T11:35:38.999Z</time></trkpt><trkpt lat="43.506069726892555" lon="13.548590819658752"><ele>19.666666666666668</ele><time>2026-04-25T11:35:39.999Z</time></trkpt><trkpt lat="43.50594811709569" lon="13.548839803229328"><ele>19.333333333333332</ele><time>2026-04-25T11:35:40.999Z</time></trkpt><trkpt lat="43.505822257941624" lon="13.549095694621668"><ele>19.0</ele><time>2026-04-25T11:35:41.999Z</time></trkpt><trkpt lat="43.50569385925656" lon="13.549355198096427"><ele>18.0</ele><time>2026-04-25T11:35:43Z</time></trkpt><trkpt lat="43.505563852529505" lon="13.549621023579974"><ele>17.0</ele><time>2026-04-25T11:35:44Z</time></trkpt><trkpt lat="43.50543236125146" lon="13.549897312523184"><ele>17.0</ele><time>2026-04-25T11:35:45Z</time></trkpt><trkpt lat="43.505302810911296" lon="13.55017821494127"><ele>17.0</ele><time>2026-04-25T11:35:46Z</time></trkpt><trkpt lat="43.505183896836805" lon="13.55042166369392"><ele>17.666666666666668</ele><time>2026-04-25T11:35:47Z</time></trkpt><trkpt lat="43.50507030469338" lon="13.550657787399109"><ele>18.333333333333332</ele><time>2026-04-25T11:35:48Z</time></trkpt><trkpt lat="43.50495834671398" lon="13.550885506825708"><ele>19.0</ele><time>2026-04-25T11:35:49Z</time></trkpt><trkpt lat="43.50484455724168" lon="13.55111692218469"><ele>19.0</ele><time>2026-04-25T11:35:50Z</time></trkpt><trkpt lat="43.50472836306549" lon="13.55135405835412"><ele>19.0</ele><time>2026-04-25T11:35:51Z</time></trkpt><trkpt lat="43.50461443928545" lon="13.551599476813966"><ele>19.0</ele><time>2026-04-25T11:35:52Z</time></trkpt><trkpt lat="43.504495516461695" lon="13.551847285288957"><ele>18.333333333333332</ele><time>2026-04-25T11:35:53Z</time></trkpt><trkpt lat="43.50437450130719" lon="13.552100059747628"><ele>17.666666666666668</ele><time>2026-04-25T11:35:54Z</time></trkpt><trkpt lat="43.50425136425266" lon="13.552353324536648"><ele>17.0</ele><time>2026-04-25T11:35:55Z</time></trkpt><trkpt lat="43.50412393512316" lon="13.552613064102404"><ele>17.0</ele><time>2026-04-25T11:35:56Z</time></trkpt><trkpt lat="43.5040056458603" lon="13.552858936578643"><ele>17.0</ele><time>2026-04-25T11:35:57Z</time></trkpt><trkpt lat="43.50389698843651" lon="13.553087486785937"><ele>17.0</ele><time>2026-04-25T11:35:58Z</time></trkpt><trkpt lat="43.503796033132225" lon="13.553297144948697"><ele>17.0</ele><time>2026-04-25T11:35:59Z</time></trkpt><trkpt lat="43.50369822821076" lon="13.553498554305769"><ele>17.0</ele><time>2026-04-25T11:36:00Z</time></trkpt><trkpt lat="43.5036018882476" lon="13.553697145002685"><ele>17.0</ele><time>2026-04-25T11:36:01Z</time></trkpt><trkpt lat="43.503509359172895" lon="13.553891106456998"><ele>16.333333333333336</ele><time>2026-04-25T11:36:02Z</time></trkpt><trkpt lat="43.50342208674419" lon="13.554076174197425"><ele>15.666666666666668</ele><time>2026-04-25T11:36:03Z</time></trkpt><trkpt lat="43.50333561871149" lon="13.554245812664885"><ele>15.0</ele><time>2026-04-25T11:36:04Z</time></trkpt><trkpt lat="43.503251536877" lon="13.554405250016133"><ele>15.5</ele><time>2026-04-25T11:36:05Z</time></trkpt><trkpt lat="43.5031786389599" lon="13.554560853465079"><ele>16.0</ele><time>2026-04-25T11:36:06Z</time></trkpt><trkpt lat="43.50310492590429" lon="13.55471816566865"><ele>16.5</ele><time>2026-04-25T11:36:07Z</time></trkpt><trkpt lat="43.50302735928802" lon="13.554875597150389"><ele>17.0</ele><time>2026-04-25T11:36:08Z</time></trkpt><trkpt lat="43.502948492553394" lon="13.55503456386312"><ele>17.0</ele><time>2026-04-25T11:36:09Z</time></trkpt><trkpt lat="43.50287479066057" lon="13.555198759027508"><ele>17.0</ele><time>2026-04-25T11:36:10Z</time></trkpt><trkpt lat="43.50279654401357" lon="13.555360776857391"><ele>17.0</ele><time>2026-04-25T11:36:11Z</time></trkpt><trkpt lat="43.502723221311655" lon="13.555525909178588"><ele>17.0</ele><time>2026-04-25T11:36:12Z</time></trkpt><trkpt lat="43.5026460285343" lon="13.555689109712507"><ele>17.5</ele><time>2026-04-25T11:36:13Z</time></trkpt><trkpt lat="43.50256502412849" lon="13.55585237506531"><ele>18.0</ele><time>2026-04-25T11:36:14Z</time></trkpt><trkpt lat="43.50247807241577" lon="13.556016936786001"><ele>18.5</ele><time>2026-04-25T11:36:15Z</time></trkpt><trkpt lat="43.50239347020626" lon="13.556187323714525"><ele>19.0</ele><time>2026-04-25T11:36:16Z</time></trkpt><trkpt lat="43.50230670400694" lon="13.556366274505116"><ele>19.333333333333332</ele><time>2026-04-25T11:36:17Z</time></trkpt><trkpt lat="43.50222055054545" lon="13.55654753097826"><ele>19.666666666666668</ele><time>2026-04-25T11:36:18Z</time></trkpt><trkpt lat="43.50213164935093" lon="13.556731570395323"><ele>20.0</ele><time>2026-04-25T11:36:19Z</time></trkpt><trkpt lat="43.502044875397715" lon="13.55691961308231"><ele>21.0</ele><time>2026-04-25T11:36:20Z</time></trkpt><trkpt lat="43.501957437935445" lon="13.557108673673044"><ele>22.0</ele><time>2026-04-25T11:36:21Z</time></trkpt><trkpt lat="43.501866157513604" lon="13.557298818152754"><ele>23.0</ele><time>2026-04-25T11:36:22Z</time></trkpt><trkpt lat="43.50177404125508" lon="13.557489341767681"><ele>23.0</ele><time>2026-04-25T11:36:23Z</time></trkpt><trkpt lat="43.5016823955807" lon="13.55768206395766"><ele>23.0</ele><time>2026-04-25T11:36:24Z</time></trkpt><trkpt lat="43.50158966724851" lon="13.557873426495437"><ele>23.0</ele><time>2026-04-25T11:36:25Z</time></trkpt><trkpt lat="43.50149550618385" lon="13.558065573038968"><ele>23.333333333333336</ele><time>2026-04-25T11:36:26Z</time></trkpt><trkpt lat="43.50140276781063" lon="13.558253022241807"><ele>23.666666666666668</ele><time>2026-04-25T11:36:27Z</time></trkpt><trkpt lat="43.501310065447406" lon="13.558441562247491"><ele>24.0</ele><time>2026-04-25T11:36:28Z</time></trkpt><trkpt lat="43.501223984656065" lon="13.558625081021145"><ele>25.0</ele><time>2026-04-25T11:36:29Z</time></trkpt><trkpt lat="43.50114564197122" lon="13.55879286843047"><ele>26.0</ele><time>2026-04-25T11:36:30Z</time></trkpt><trkpt lat="43.501075065266335" lon="13.558940594949322"><ele>27.0</ele><time>2026-04-25T11:36:31Z</time></trkpt><trkpt lat="43.501009810315566" lon="13.559075228342163"><ele>28.0</ele><time>2026-04-25T11:36:32Z</time></trkpt><trkpt lat="43.50094989936636" lon="13.559200870145713"><ele>28.0</ele><time>2026-04-25T11:36:33Z</time></trkpt><trkpt lat="43.50089163991594" lon="13.559317121406476"><ele>27.999999999999996</ele><time>2026-04-25T11:36:34Z</time></trkpt><trkpt lat="43.500836566706084" lon="13.559426391862216"><ele>27.999999999999996</ele><time>2026-04-25T11:36:35Z</time></trkpt><trkpt lat="43.50078091343685" lon="13.559541312579924"><ele>28.0</ele><time>2026-04-25T11:36:36Z</time></trkpt><trkpt lat="43.50071258468346" lon="13.559673560835588"><ele>28.0</ele><time>2026-04-25T11:36:37Z</time></trkpt><trkpt lat="43.50063680873092" lon="13.559826944343664"><ele>27.5</ele><time>2026-04-25T11:36:38Z</time></trkpt><trkpt lat="43.50055253895355" lon="13.559991382517174"><ele>27.0</ele><time>2026-04-25T11:36:39Z</time></trkpt><trkpt lat="43.50047169669851" lon="13.560171351411471"><ele>26.5</ele><time>2026-04-25T11:36:40Z</time></trkpt><trkpt lat="43.500388906540465" lon="13.560339400747203"><ele>26.0</ele><time>2026-04-25T11:36:41Z</time></trkpt><trkpt lat="43.500318737822084" lon="13.56050399825563"><ele>26.0</ele><time>2026-04-25T11:36:42Z</time></trkpt><trkpt lat="43.50024253270512" lon="13.56063950531193"><ele>26.0</ele><time>2026-04-25T11:36:43Z</time></trkpt><trkpt lat="43.500186659669765" lon="13.560808603157309"><ele>26.0</ele><time>2026-04-25T11:36:44Z</time></trkpt><trkpt lat="43.500125057085924" lon="13.560955164454906"><ele>26.0</ele><time>2026-04-25T11:36:45Z</time></trkpt><trkpt lat="43.50006707751564" lon="13.561108797637573"><ele>26.0</ele><time>2026-04-25T11:36:46Z</time></trkpt><trkpt lat="43.500017564431985" lon="13.561271470952438"><ele>26.0</ele><time>2026-04-25T11:36:47Z</time></trkpt><trkpt lat="43.49997349012663" lon="13.561432046564471"><ele>26.0</ele><time>2026-04-25T11:36:48Z</time></trkpt><trkpt lat="43.499932279056225" lon="13.561595260257201"><ele>26.0</ele><time>2026-04-25T11:36:49Z</time></trkpt><trkpt lat="43.49988989068045" lon="13.561757997215695"><ele>26.0</ele><time>2026-04-25T11:36:50Z</time></trkpt><trkpt lat="43.499850264481545" lon="13.561926945078083"><ele>26.0</ele><time>2026-04-25T11:36:51Z</time></trkpt><trkpt lat="43.499815565516826" lon="13.562104049297393"><ele>26.0</ele><time>2026-04-25T11:36:52Z</time></trkpt><trkpt lat="43.499777741866346" lon="13.562285679168328"><ele>26.0</ele><time>2026-04-25T11:36:53Z</time></trkpt><trkpt lat="43.49974486670422" lon="13.562473067139676"><ele>25.0</ele><time>2026-04-25T11:36:54Z</time></trkpt><trkpt lat="43.49971306007972" lon="13.562664643776154"><ele>24.0</ele><time>2026-04-25T11:36:55Z</time></trkpt><trkpt lat="43.499691693569005" lon="13.562873725334061"><ele>23.0</ele><time>2026-04-25T11:36:56Z</time></trkpt><trkpt lat="43.499671584505016" lon="13.563100277738318"><ele>22.0</ele><time>2026-04-25T11:36:57Z</time></trkpt><trkpt lat="43.49965720453248" lon="13.563341745978072"><ele>21.0</ele><time>2026-04-25T11:36:58Z</time></trkpt><trkpt lat="43.49964528799586" lon="13.56358994811519"><ele>20.0</ele><time>2026-04-25T11:36:59Z</time></trkpt><trkpt lat="43.4996479712932" lon="13.563840216060651"><ele>19.666666666666668</ele><time>2026-04-25T11:37:00Z</time></trkpt><trkpt lat="43.49965782203416" lon="13.564085833308555"><ele>19.333333333333332</ele><time>2026-04-25T11:37:01Z</time></trkpt><trkpt lat="43.49968988357768" lon="13.56435725963534"><ele>19.0</ele><time>2026-04-25T11:37:02Z</time></trkpt><trkpt lat="43.49972592617422" lon="13.564645278543498"><ele>17.5</ele><time>2026-04-25T11:37:03Z</time></trkpt><trkpt lat="43.499759130226565" lon="13.564948409396708"><ele>16.0</ele><time>2026-04-25T11:37:04Z</time></trkpt><trkpt lat="43.49979816596251" lon="13.565259297138965"><ele>15.0</ele><time>2026-04-25T11:37:05Z</time></trkpt><trkpt lat="43.49984737335245" lon="13.565581012378352"><ele>14.0</ele><time>2026-04-25T11:37:06Z</time></trkpt><trkpt lat="43.49991606868218" lon="13.565904522167104"><ele>14.0</ele><time>2026-04-25T11:37:07Z</time></trkpt><trkpt lat="43.49998986741386" lon="13.566234870125951"><ele>14.0</ele><time>2026-04-25T11:37:08Z</time></trkpt><trkpt lat="43.5000628202922" lon="13.566570305462589"><ele>14.0</ele><time>2026-04-25T11:37:09Z</time></trkpt><trkpt lat="43.50013423454732" lon="13.566903869307797"><ele>14.0</ele><time>2026-04-25T11:37:10Z</time></trkpt><trkpt lat="43.50020365830917" lon="13.56724188035864"><ele>14.0</ele><time>2026-04-25T11:37:11Z</time></trkpt><trkpt lat="43.500278190990194" lon="13.567587090645878"><ele>14.0</ele><time>2026-04-25T11:37:12Z</time></trkpt><trkpt lat="43.50035458247337" lon="13.567930926822301"><ele>15.0</ele><time>2026-04-25T11:37:13Z</time></trkpt><trkpt lat="43.50042876289656" lon="13.568274202724577"><ele>16.0</ele><time>2026-04-25T11:37:14Z</time></trkpt><trkpt lat="43.50049713541583" lon="13.568598104329105"><ele>16.0</ele><time>2026-04-25T11:37:15Z</time></trkpt><trkpt lat="43.500563593532014" lon="13.568904107817353"><ele>16.0</ele><time>2026-04-25T11:37:16Z</time></trkpt><trkpt lat="43.500626784698476" lon="13.569201874705303"><ele>16.0</ele><time>2026-04-25T11:37:17Z</time></trkpt><trkpt lat="43.50068851199807" lon="13.569490527578576"><ele>16.0</ele><time>2026-04-25T11:37:18Z</time></trkpt><trkpt lat="43.5007524231921" lon="13.56978233841771"><ele>16.0</ele><time>2026-04-25T11:37:19Z</time></trkpt><trkpt lat="43.5008160432062" lon="13.570071449541103"><ele>16.0</ele><time>2026-04-25T11:37:20Z</time></trkpt><trkpt lat="43.50088375200519" lon="13.570352778772127"><ele>16.0</ele><time>2026-04-25T11:37:21Z</time></trkpt><trkpt lat="43.50095906374795" lon="13.570614837474782"><ele>16.0</ele><time>2026-04-25T11:37:22Z</time></trkpt><trkpt lat="43.501041907287984" lon="13.570870657944008"><ele>16.0</ele><time>2026-04-25T11:37:23Z</time></trkpt><trkpt lat="43.50113196714376" lon="13.57111397878147"><ele>16.0</ele><time>2026-04-25T11:37:24Z</time></trkpt><trkpt lat="43.50122426973038" lon="13.5713472653147"><ele>16.0</ele><time>2026-04-25T11:37:25Z</time></trkpt><trkpt lat="43.501327043450424" lon="13.571575271068463"><ele>16.0</ele><time>2026-04-25T11:37:26Z</time></trkpt><trkpt lat="43.50143061783688" lon="13.571786612861684"><ele>16.0</ele><time>2026-04-25T11:37:27Z</time></trkpt><trkpt lat="43.501539382903125" lon="13.57199345504657"><ele>16.0</ele><time>2026-04-25T11:37:28Z</time></trkpt><trkpt lat="43.501655863139995" lon="13.572190069660381"><ele>16.0</ele><time>2026-04-25T11:37:29Z</time></trkpt><trkpt lat="43.501778014921065" lon="13.57238388629963"><ele>16.0</ele><time>2026-04-25T11:37:30Z</time></trkpt><trkpt lat="43.50192078878572" lon="13.572582379202425"><ele>16.0</ele><time>2026-04-25T11:37:31Z</time></trkpt><trkpt lat="43.50207911638349" lon="13.57277866537519"><ele>18.0</ele><time>2026-04-25T11:37:32Z</time></trkpt><trkpt lat="43.50225006396626" lon="13.572971276038817"><ele>20.0</ele><time>2026-04-25T11:37:33Z</time></trkpt><trkpt lat="43.502413830129434" lon="13.573191787610627"><ele>20.0</ele><time>2026-04-25T11:37:34Z</time></trkpt><trkpt lat="43.50259789797323" lon="13.573387407474007"><ele>20.0</ele><time>2026-04-25T11:37:35Z</time></trkpt><trkpt lat="43.50275507463672" lon="13.573586761860186"><ele>20.0</ele><time>2026-04-25T11:37:36Z</time></trkpt><trkpt lat="43.502903163392155" lon="13.573768595841829"><ele>20.666666666666668</ele><time>2026-04-25T11:37:37Z</time></trkpt><trkpt lat="43.503044174841804" lon="13.573931622138279"><ele>21.333333333333332</ele><time>2026-04-25T11:37:38Z</time></trkpt><trkpt lat="43.50318572927663" lon="13.574089497839415"><ele>22.0</ele><time>2026-04-25T11:37:39Z</time></trkpt><trkpt lat="43.5033248754623" lon="13.5742490405541"><ele>22.0</ele><time>2026-04-25T11:37:40Z</time></trkpt><trkpt lat="43.50347545179378" lon="13.574422265363506"><ele>22.0</ele><time>2026-04-25T11:37:41Z</time></trkpt><trkpt lat="43.50363769546246" lon="13.57460230616555"><ele>22.0</ele><time>2026-04-25T11:37:42Z</time></trkpt><trkpt lat="43.50380629476977" lon="13.574790483606689"><ele>23.0</ele><time>2026-04-25T11:37:43Z</time></trkpt><trkpt lat="43.50397947095163" lon="13.5749913017547"><ele>24.0</ele><time>2026-04-25T11:37:44Z</time></trkpt><trkpt lat="43.50415474111655" lon="13.575204196941687"><ele>24.0</ele><time>2026-04-25T11:37:45Z</time></trkpt><trkpt lat="43.50432076867794" lon="13.575406896277128"><ele>24.0</ele><time>2026-04-25T11:37:46Z</time></trkpt><trkpt lat="43.50447315654993" lon="13.575588093092504"><ele>24.0</ele><time>2026-04-25T11:37:47Z</time></trkpt><trkpt lat="43.504616245409274" lon="13.575752982749353"><ele>24.0</ele><time>2026-04-25T11:37:48Z</time></trkpt><trkpt lat="43.50475057871503" lon="13.575908680600014"><ele>24.0</ele><time>2026-04-25T11:37:49.001Z</time></trkpt><trkpt lat="43.50487460931371" lon="13.576052056187983"><ele>24.0</ele><time>2026-04-25T11:37:50.001Z</time></trkpt><trkpt lat="43.50499008477541" lon="13.576188879538787"><ele>23.25</ele><time>2026-04-25T11:37:51.001Z</time></trkpt><trkpt lat="43.505102371086316" lon="13.576320435471127"><ele>22.5</ele><time>2026-04-25T11:37:52.001Z</time></trkpt><trkpt lat="43.50521543547545" lon="13.576450162594783"><ele>21.75</ele><time>2026-04-25T11:37:53.001Z</time></trkpt><trkpt lat="43.50532725040898" lon="13.576584422438197"><ele>21.0</ele><time>2026-04-25T11:37:54.001Z</time></trkpt><trkpt lat="43.50543989686971" lon="13.576714910846205"><ele>21.0</ele><time>2026-04-25T11:37:55.001Z</time></trkpt><trkpt lat="43.50555255504176" lon="13.576842087120404"><ele>21.0</ele><time>2026-04-25T11:37:56.001Z</time></trkpt><trkpt lat="43.505663729673124" lon="13.576972657654128"><ele>21.0</ele><time>2026-04-25T11:37:57.001Z</time></trkpt><trkpt lat="43.505772343770666" lon="13.577097074814631"><ele>21.0</ele><time>2026-04-25T11:37:58.001Z</time></trkpt><trkpt lat="43.50587555712702" lon="13.577215671918601"><ele>21.0</ele><time>2026-04-25T11:37:59.001Z</time></trkpt><trkpt lat="43.50598160121316" lon="13.57733814178849"><ele>21.0</ele><time>2026-04-25T11:38:00.001Z</time></trkpt><trkpt lat="43.506093610180024" lon="13.577456511464433"><ele>21.0</ele><time>2026-04-25T11:38:01.001Z</time></trkpt><trkpt lat="43.50619936968884" lon="13.577585726360473"><ele>21.0</ele><time>2026-04-25T11:38:02.001Z</time></trkpt><trkpt lat="43.506310073588175" lon="13.577722717796714"><ele>22.0</ele><time>2026-04-25T11:38:03.001Z</time></trkpt><trkpt lat="43.50642725369809" lon="13.577878403784647"><ele>23.0</ele><time>2026-04-25T11:38:04.001Z</time></trkpt><trkpt lat="43.506552437983494" lon="13.578048655345695"><ele>24.0</ele><time>2026-04-25T11:38:05.001Z</time></trkpt><trkpt lat="43.50667520072152" lon="13.578239946161577"><ele>24.0</ele><time>2026-04-25T11:38:06.001Z</time></trkpt><trkpt lat="43.50679408053568" lon="13.578435163504762"><ele>24.0</ele><time>2026-04-25T11:38:07.001Z</time></trkpt><trkpt lat="43.506904795452364" lon="13.578630986310019"><ele>24.0</ele><time>2026-04-25T11:38:08.001Z</time></trkpt><trkpt lat="43.50700684507533" lon="13.578832216349301"><ele>24.666666666666664</ele><time>2026-04-25T11:38:09.001Z</time></trkpt><trkpt lat="43.50708563148519" lon="13.57903343211341"><ele>25.333333333333332</ele><time>2026-04-25T11:38:10.001Z</time></trkpt><trkpt lat="43.50715517279995" lon="13.579225494145131"><ele>26.0</ele><time>2026-04-25T11:38:11.001Z</time></trkpt><trkpt lat="43.507217173841" lon="13.579412063541223"><ele>26.333333333333332</ele><time>2026-04-25T11:38:12.001Z</time></trkpt><trkpt lat="43.50727617124007" lon="13.579602460372197"><ele>26.666666666666664</ele><time>2026-04-25T11:38:13.001Z</time></trkpt><trkpt lat="43.507339526982356" lon="13.57980919900109"><ele>27.0</ele><time>2026-04-25T11:38:14.001Z</time></trkpt><trkpt lat="43.50740461663145" lon="13.580031126057456"><ele>27.0</ele><time>2026-04-25T11:38:15.001Z</time></trkpt><trkpt lat="43.50745403891787" lon="13.58027395559287"><ele>27.0</ele><time>2026-04-25T11:38:16.001Z</time></trkpt><trkpt lat="43.50749890532633" lon="13.580534609087126"><ele>27.0</ele><time>2026-04-25T11:38:17.001Z</time></trkpt><trkpt lat="43.50753656732826" lon="13.58081111232322"><ele>27.0</ele><time>2026-04-25T11:38:18.001Z</time></trkpt><trkpt lat="43.507554720510775" lon="13.581099439461923"><ele>27.0</ele><time>2026-04-25T11:38:19.001Z</time></trkpt><trkpt lat="43.5075598703729" lon="13.581399208313492"><ele>27.0</ele><time>2026-04-25T11:38:20Z</time></trkpt><trkpt lat="43.50755412911478" lon="13.581710398185253"><ele>26.5</ele><time>2026-04-25T11:38:21Z</time></trkpt><trkpt lat="43.50753678045537" lon="13.582030852057345"><ele>26.0</ele><time>2026-04-25T11:38:22Z</time></trkpt><trkpt lat="43.507504847535365" lon="13.582364441124161"><ele>26.0</ele><time>2026-04-25T11:38:23Z</time></trkpt><trkpt lat="43.50746063401712" lon="13.582703374248565"><ele>26.0</ele><time>2026-04-25T11:38:24Z</time></trkpt><trkpt lat="43.50741713126046" lon="13.583047357808425"><ele>26.5</ele><time>2026-04-25T11:38:25Z</time></trkpt><trkpt lat="43.507371485986965" lon="13.58340299121135"><ele>27.0</ele><time>2026-04-25T11:38:26Z</time></trkpt><trkpt lat="43.50732376513803" lon="13.583754294677387"><ele>27.5</ele><time>2026-04-25T11:38:27Z</time></trkpt><trkpt lat="43.507268925238776" lon="13.584101098458877"><ele>28.0</ele><time>2026-04-25T11:38:28Z</time></trkpt><trkpt lat="43.50722019725127" lon="13.584427699758288"><ele>29.5</ele><time>2026-04-25T11:38:29Z</time></trkpt><trkpt lat="43.50718724946124" lon="13.584774342218978"><ele>31.0</ele><time>2026-04-25T11:38:30Z</time></trkpt><trkpt lat="43.507175674390666" lon="13.58512348865307"><ele>32.66666666666667</ele><time>2026-04-25T11:38:31Z</time></trkpt><trkpt lat="43.507176979074316" lon="13.585449935130805"><ele>34.333333333333336</ele><time>2026-04-25T11:38:32Z</time></trkpt><trkpt lat="43.507176903403845" lon="13.585742870343068"><ele>36.0</ele><time>2026-04-25T11:38:33Z</time></trkpt><trkpt lat="43.507183107264844" lon="13.586020164030604"><ele>37.666666666666664</ele><time>2026-04-25T11:38:34Z</time></trkpt><trkpt lat="43.50722221567622" lon="13.586303139847402"><ele>39.33333333333333</ele><time>2026-04-25T11:38:35Z</time></trkpt><trkpt lat="43.507291743207595" lon="13.586578826420979"><ele>41.0</ele><time>2026-04-25T11:38:36Z</time></trkpt><trkpt lat="43.50737744350055" lon="13.586835930349665"><ele>41.666666666666664</ele><time>2026-04-25T11:38:37Z</time></trkpt><trkpt lat="43.50746551981879" lon="13.587107024055012"><ele>42.333333333333336</ele><time>2026-04-25T11:38:38Z</time></trkpt><trkpt lat="43.50754395410982" lon="13.587394764028565"><ele>43.0</ele><time>2026-04-25T11:38:39Z</time></trkpt><trkpt lat="43.50760735857549" lon="13.587688752954778"><ele>44.0</ele><time>2026-04-25T11:38:40Z</time></trkpt><trkpt lat="43.5076551816704" lon="13.587983179842595"><ele>45.0</ele><time>2026-04-25T11:38:41Z</time></trkpt><trkpt lat="43.50767794471483" lon="13.588292679659988"><ele>46.0</ele><time>2026-04-25T11:38:42Z</time></trkpt><trkpt lat="43.50769288460903" lon="13.5886024885573"><ele>48.5</ele><time>2026-04-25T11:38:43Z</time></trkpt><trkpt lat="43.507726481457524" lon="13.588923559032905"><ele>51.0</ele><time>2026-04-25T11:38:44Z</time></trkpt><trkpt lat="43.50777328054451" lon="13.589234906525904"><ele>53.0</ele><time>2026-04-25T11:38:45Z</time></trkpt><trkpt lat="43.50781874231729" lon="13.589547161825292"><ele>55.0</ele><time>2026-04-25T11:38:46Z</time></trkpt><trkpt lat="43.5078496293758" lon="13.58986537255837"><ele>55.0</ele><time>2026-04-25T11:38:47Z</time></trkpt><trkpt lat="43.507859164943895" lon="13.590185823146697"><ele>55.0</ele><time>2026-04-25T11:38:48Z</time></trkpt><trkpt lat="43.507851683504654" lon="13.59049047507091"><ele>57.0</ele><time>2026-04-25T11:38:49Z</time></trkpt><trkpt lat="43.507848263603734" lon="13.590770440653465"><ele>59.0</ele><time>2026-04-25T11:38:50Z</time></trkpt><trkpt lat="43.50784150330238" lon="13.591033192206844"><ele>61.0</ele><time>2026-04-25T11:38:51Z</time></trkpt><trkpt lat="43.507834148674064" lon="13.591271434520385"><ele>63.0</ele><time>2026-04-25T11:38:52Z</time></trkpt><trkpt lat="43.50782259439342" lon="13.591500938108855"><ele>65.0</ele><time>2026-04-25T11:38:53Z</time></trkpt><trkpt lat="43.50781856927537" lon="13.591724609480872"><ele>67.0</ele><time>2026-04-25T11:38:54Z</time></trkpt><trkpt lat="43.50782399120111" lon="13.591951426891203"><ele>68.66666666666666</ele><time>2026-04-25T11:38:55Z</time></trkpt><trkpt lat="43.50784518333342" lon="13.592184355508772"><ele>70.33333333333333</ele><time>2026-04-25T11:38:56Z</time></trkpt><trkpt lat="43.507882498044694" lon="13.592423191760659"><ele>72.0</ele><time>2026-04-25T11:38:57Z</time></trkpt><trkpt lat="43.50792606718268" lon="13.59265646295914"><ele>73.0</ele><time>2026-04-25T11:38:58Z</time></trkpt><trkpt lat="43.5079539415539" lon="13.592883655975424"><ele>74.0</ele><time>2026-04-25T11:38:59Z</time></trkpt><trkpt lat="43.50794690628844" lon="13.593120979082933"><ele>75.0</ele><time>2026-04-25T11:39:00Z</time></trkpt><trkpt lat="43.50789818618238" lon="13.593359123490972"><ele>75.66666666666667</ele><time>2026-04-25T11:39:01Z</time></trkpt><trkpt lat="43.507828378202724" lon="13.593595513911172"><ele>76.33333333333334</ele><time>2026-04-25T11:39:02Z</time></trkpt><trkpt lat="43.50776276555088" lon="13.593819390860611"><ele>77.0</ele><time>2026-04-25T11:39:03Z</time></trkpt><trkpt lat="43.507714764795345" lon="13.594046510396156"><ele>77.0</ele><time>2026-04-25T11:39:04Z</time></trkpt><trkpt lat="43.5076942341028" lon="13.594283825478993"><ele>77.0</ele><time>2026-04-25T11:39:05Z</time></trkpt><trkpt lat="43.50767668086951" lon="13.594523556161583"><ele>77.0</ele><time>2026-04-25T11:39:06Z</time></trkpt><trkpt lat="43.50766025300502" lon="13.594736550570845"><ele>77.0</ele><time>2026-04-25T11:39:07Z</time></trkpt><trkpt lat="43.50765963939082" lon="13.59492969557592"><ele>77.0</ele><time>2026-04-25T11:39:08Z</time></trkpt><trkpt lat="43.5077097777064" lon="13.595136448711715"><ele>77.0</ele><time>2026-04-25T11:39:09Z</time></trkpt><trkpt lat="43.507794370581095" lon="13.595367795216864"><ele>76.66666666666667</ele><time>2026-04-25T11:39:10Z</time></trkpt><trkpt lat="43.50788372252165" lon="13.59561837293743"><ele>76.33333333333333</ele><time>2026-04-25T11:39:11Z</time></trkpt><trkpt lat="43.507973104802176" lon="13.595891810638488"><ele>76.0</ele><time>2026-04-25T11:39:12Z</time></trkpt><trkpt lat="43.50806961912885" lon="13.596174122050122"><ele>73.66666666666666</ele><time>2026-04-25T11:39:13Z</time></trkpt><trkpt lat="43.508152467536" lon="13.59643271310934"><ele>71.33333333333333</ele><time>2026-04-25T11:39:14Z</time></trkpt><trkpt lat="43.508246089208164" lon="13.596665628919784"><ele>69.0</ele><time>2026-04-25T11:39:15Z</time></trkpt><trkpt lat="43.50834377527646" lon="13.596885683373705"><ele>68.0</ele><time>2026-04-25T11:39:16Z</time></trkpt><trkpt lat="43.508448116504375" lon="13.59708147254852"><ele>67.0</ele><time>2026-04-25T11:39:17Z</time></trkpt><trkpt lat="43.50855866033927" lon="13.597268783661967"><ele>66.0</ele><time>2026-04-25T11:39:18Z</time></trkpt><trkpt lat="43.508668914974166" lon="13.597457274774348"><ele>66.75</ele><time>2026-04-25T11:39:19Z</time></trkpt><trkpt lat="43.50875868329986" lon="13.597644340290508"><ele>67.5</ele><time>2026-04-25T11:39:20Z</time></trkpt><trkpt lat="43.50882379208422" lon="13.597820360135618"><ele>68.25</ele><time>2026-04-25T11:39:21Z</time></trkpt><trkpt lat="43.50887068794347" lon="13.597985072178835"><ele>69.0</ele><time>2026-04-25T11:39:22Z</time></trkpt><trkpt lat="43.50890782783015" lon="13.598137554650245"><ele>69.0</ele><time>2026-04-25T11:39:23Z</time></trkpt><trkpt lat="43.50893973289973" lon="13.598279203373155"><ele>69.0</ele><time>2026-04-25T11:39:24Z</time></trkpt><trkpt lat="43.508970409719076" lon="13.598419811936763"><ele>69.0</ele><time>2026-04-25T11:39:25Z</time></trkpt><trkpt lat="43.50900163055878" lon="13.59855372882394"><ele>69.0</ele><time>2026-04-25T11:39:26Z</time></trkpt><trkpt lat="43.509028303100266" lon="13.598683957739002"><ele>69.0</ele><time>2026-04-25T11:39:27Z</time></trkpt><trkpt lat="43.50905814671805" lon="13.598804202605315"><ele>68.5</ele><time>2026-04-25T11:39:28Z</time></trkpt><trkpt lat="43.50909228396865" lon="13.598934248592519"><ele>68.0</ele><time>2026-04-25T11:39:29Z</time></trkpt><trkpt lat="43.50912280152374" lon="13.599082711185487"><ele>67.5</ele><time>2026-04-25T11:39:30Z</time></trkpt><trkpt lat="43.509161691912944" lon="13.599249223299793"><ele>67.0</ele><time>2026-04-25T11:39:31Z</time></trkpt><trkpt lat="43.509227541936255" lon="13.599417451153784"><ele>65.66666666666666</ele><time>2026-04-25T11:39:32Z</time></trkpt><trkpt lat="43.50930121773385" lon="13.599603840038693"><ele>64.33333333333333</ele><time>2026-04-25T11:39:33Z</time></trkpt><trkpt lat="43.509377910689345" lon="13.599797445636758"><ele>63.0</ele><time>2026-04-25T11:39:34Z</time></trkpt><trkpt lat="43.50946213509613" lon="13.60001251774655"><ele>63.0</ele><time>2026-04-25T11:39:35Z</time></trkpt><trkpt lat="43.50955232263222" lon="13.600236817605351"><ele>63.0</ele><time>2026-04-25T11:39:36Z</time></trkpt><trkpt lat="43.509647342776816" lon="13.6004716633873"><ele>63.0</ele><time>2026-04-25T11:39:37Z</time></trkpt><trkpt lat="43.50975075977391" lon="13.600715416385468"><ele>63.0</ele><time>2026-04-25T11:39:38Z</time></trkpt><trkpt lat="43.50985428899744" lon="13.600968165751055"><ele>63.0</ele><time>2026-04-25T11:39:39Z</time></trkpt><trkpt lat="43.509967808135286" lon="13.601217225912697"><ele>63.0</ele><time>2026-04-25T11:39:40Z</time></trkpt><trkpt lat="43.51009161913439" lon="13.601464145150635"><ele>63.0</ele><time>2026-04-25T11:39:41Z</time></trkpt><trkpt lat="43.51022038599803" lon="13.601707032932119"><ele>63.0</ele><time>2026-04-25T11:39:42Z</time></trkpt><trkpt lat="43.51034953706732" lon="13.601949645355154"><ele>63.0</ele><time>2026-04-25T11:39:43Z</time></trkpt><trkpt lat="43.510471344646014" lon="13.602173691225266"><ele>64.0</ele><time>2026-04-25T11:39:44Z</time></trkpt><trkpt lat="43.51057191951484" lon="13.602383163151972"><ele>65.0</ele><time>2026-04-25T11:39:44.999Z</time></trkpt><trkpt lat="43.510664077783304" lon="13.60257141422585"><ele>66.0</ele><time>2026-04-25T11:39:45.999Z</time></trkpt><trkpt lat="43.51074461341681" lon="13.602744812351373"><ele>65.0</ele><time>2026-04-25T11:39:46.999Z</time></trkpt><trkpt lat="43.51081278960999" lon="13.602898412627543"><ele>64.0</ele><time>2026-04-25T11:39:47.999Z</time></trkpt><trkpt lat="43.51088474109525" lon="13.603025818464019"><ele>63.0</ele><time>2026-04-25T11:39:48.999Z</time></trkpt><trkpt lat="43.51095041169223" lon="13.603134078224125"><ele>62.0</ele><time>2026-04-25T11:39:49.999Z</time></trkpt><trkpt lat="43.51102417291621" lon="13.60325637663214"><ele>62.0</ele><time>2026-04-25T11:39:50.999Z</time></trkpt><trkpt lat="43.51113281917196" lon="13.603368835310794"><ele>62.0</ele><time>2026-04-25T11:39:51.999Z</time></trkpt><trkpt lat="43.511255837364594" lon="13.603480520394065"><ele>62.0</ele><time>2026-04-25T11:39:52.999Z</time></trkpt><trkpt lat="43.51140040158162" lon="13.603596143014244"><ele>63.66666666666667</ele><time>2026-04-25T11:39:53.999Z</time></trkpt><trkpt lat="43.511556165562155" lon="13.603732403509337"><ele>65.33333333333333</ele><time>2026-04-25T11:39:55.001Z</time></trkpt><trkpt lat="43.51171655333956" lon="13.603889554064839"><ele>67.0</ele><time>2026-04-25T11:39:56.001Z</time></trkpt><trkpt lat="43.51186868003009" lon="13.604067496734135"><ele>67.0</ele><time>2026-04-25T11:39:57.001Z</time></trkpt><trkpt lat="43.512017466198756" lon="13.604271488905528"><ele>67.0</ele><time>2026-04-25T11:39:58.001Z</time></trkpt><trkpt lat="43.51216211114154" lon="13.604471815625121"><ele>67.0</ele><time>2026-04-25T11:39:59.001Z</time></trkpt><trkpt lat="43.51230618697454" lon="13.60466260838112"><ele>67.66666666666666</ele><time>2026-04-25T11:40:00.001Z</time></trkpt><trkpt lat="43.5124440707467" lon="13.604851114265456"><ele>68.33333333333333</ele><time>2026-04-25T11:40:01.001Z</time></trkpt><trkpt lat="43.5125845417013" lon="13.605033529387244"><ele>69.0</ele><time>2026-04-25T11:40:02.001Z</time></trkpt><trkpt lat="43.51272494754993" lon="13.60519211517685"><ele>69.0</ele><time>2026-04-25T11:40:03.001Z</time></trkpt><trkpt lat="43.51285747539548" lon="13.60532861273475"><ele>69.0</ele><time>2026-04-25T11:40:04.001Z</time></trkpt><trkpt lat="43.51297579408936" lon="13.60544765175497"><ele>69.0</ele><time>2026-04-25T11:40:05.001Z</time></trkpt><trkpt lat="43.51307859904876" lon="13.605550206951504"><ele>69.0</ele><time>2026-04-25T11:40:06.001Z</time></trkpt><trkpt lat="43.513172013770166" lon="13.605641824217262"><ele>68.2</ele><time>2026-04-25T11:40:07.001Z</time></trkpt><trkpt lat="43.513266788618054" lon="13.605729735999518"><ele>67.4</ele><time>2026-04-25T11:40:08.001Z</time></trkpt><trkpt lat="43.513352632836764" lon="13.60582258223421"><ele>66.6</ele><time>2026-04-25T11:40:09.001Z</time></trkpt><trkpt lat="43.51343277514091" lon="13.60590247997775"><ele>65.8</ele><time>2026-04-25T11:40:10.001Z</time></trkpt><trkpt lat="43.513511559847004" lon="13.60597752912691"><ele>65.0</ele><time>2026-04-25T11:40:11.001Z</time></trkpt><trkpt lat="43.51359287840808" lon="13.606054708618235"><ele>65.0</ele><time>2026-04-25T11:40:12.001Z</time></trkpt><trkpt lat="43.51367508022835" lon="13.606138735245155"><ele>65.0</ele><time>2026-04-25T11:40:13.001Z</time></trkpt><trkpt lat="43.51377187081144" lon="13.606237166605055"><ele>65.0</ele><time>2026-04-25T11:40:14.001Z</time></trkpt><trkpt lat="43.51387991449643" lon="13.60634637692089"><ele>65.0</ele><time>2026-04-25T11:40:15.001Z</time></trkpt><trkpt lat="43.51399123356576" lon="13.606470458651744"><ele>66.33333333333334</ele><time>2026-04-25T11:40:16Z</time></trkpt><trkpt lat="43.51411158727363" lon="13.60661165178257"><ele>67.66666666666667</ele><time>2026-04-25T11:40:17Z</time></trkpt><trkpt lat="43.514237881241506" lon="13.606759834622798"><ele>69.0</ele><time>2026-04-25T11:40:18Z</time></trkpt><trkpt lat="43.51436335801272" lon="13.606927287455541"><ele>68.66666666666667</ele><time>2026-04-25T11:40:19Z</time></trkpt><trkpt lat="43.51449562713485" lon="13.607110339533834"><ele>68.33333333333334</ele><time>2026-04-25T11:40:20Z</time></trkpt><trkpt lat="43.51463816044824" lon="13.607296543335407"><ele>68.0</ele><time>2026-04-25T11:40:21Z</time></trkpt><trkpt lat="43.51478977721436" lon="13.60749107226911"><ele>70.0</ele><time>2026-04-25T11:40:22Z</time></trkpt><trkpt lat="43.51494913988872" lon="13.607686901095846"><ele>72.0</ele><time>2026-04-25T11:40:23Z</time></trkpt><trkpt lat="43.515109928798886" lon="13.607880958269417"><ele>74.0</ele><time>2026-04-25T11:40:24Z</time></trkpt><trkpt lat="43.51526259141493" lon="13.608061395861238"><ele>75.66666666666667</ele><time>2026-04-25T11:40:25Z</time></trkpt><trkpt lat="43.51540852555673" lon="13.608222440595219"><ele>77.33333333333333</ele><time>2026-04-25T11:40:26Z</time></trkpt><trkpt lat="43.51553853195971" lon="13.608373055670883"><ele>79.0</ele><time>2026-04-25T11:40:27Z</time></trkpt><trkpt lat="43.515654339217654" lon="13.608513208591129"><ele>79.0</ele><time>2026-04-25T11:40:28Z</time></trkpt><trkpt lat="43.515763265243606" lon="13.608639301182127"><ele>79.0</ele><time>2026-04-25T11:40:29Z</time></trkpt><trkpt lat="43.5158674987863" lon="13.60874994730927"><ele>79.0</ele><time>2026-04-25T11:40:30Z</time></trkpt><trkpt lat="43.51596124353696" lon="13.608855362750992"><ele>79.0</ele><time>2026-04-25T11:40:31Z</time></trkpt><trkpt lat="43.51604569042405" lon="13.608961540248801"><ele>78.5</ele><time>2026-04-25T11:40:32Z</time></trkpt><trkpt lat="43.51612696006721" lon="13.609061112620362"><ele>78.0</ele><time>2026-04-25T11:40:33Z</time></trkpt><trkpt lat="43.51621247732933" lon="13.60916058758423"><ele>77.5</ele><time>2026-04-25T11:40:34Z</time></trkpt><trkpt lat="43.51630317381758" lon="13.609269645631352"><ele>77.0</ele><time>2026-04-25T11:40:35Z</time></trkpt><trkpt lat="43.516400435071716" lon="13.609373891546808"><ele>77.0</ele><time>2026-04-25T11:40:36Z</time></trkpt><trkpt lat="43.516505860677654" lon="13.609470649010651"><ele>77.0</ele><time>2026-04-25T11:40:37Z</time></trkpt><trkpt lat="43.51663216912457" lon="13.609542192261117"><ele>77.0</ele><time>2026-04-25T11:40:38Z</time></trkpt><trkpt lat="43.51679413585487" lon="13.609573305303138"><ele>77.0</ele><time>2026-04-25T11:40:39Z</time></trkpt><trkpt lat="43.51697390139537" lon="13.609595050514505"><ele>75.33333333333334</ele><time>2026-04-25T11:40:40Z</time></trkpt><trkpt lat="43.51716934929654" lon="13.609605554012933"><ele>73.66666666666667</ele><time>2026-04-25T11:40:41Z</time></trkpt><trkpt lat="43.5173763167876" lon="13.60963070754809"><ele>72.0</ele><time>2026-04-25T11:40:42Z</time></trkpt><trkpt lat="43.517589703710286" lon="13.609676478949844"><ele>72.0</ele><time>2026-04-25T11:40:43Z</time></trkpt><trkpt lat="43.51780628149774" lon="13.609768668654171"><ele>72.0</ele><time>2026-04-25T11:40:44Z</time></trkpt><trkpt lat="43.51802657505187" lon="13.609838593369822"><ele>73.0</ele><time>2026-04-25T11:40:45Z</time></trkpt><trkpt lat="43.51823341947502" lon="13.609898915596084"><ele>74.0</ele><time>2026-04-25T11:40:46Z</time></trkpt><trkpt lat="43.518434532199066" lon="13.6099648043336"><ele>75.0</ele><time>2026-04-25T11:40:47Z</time></trkpt><trkpt lat="43.518623043697836" lon="13.61003465872022"><ele>76.66666666666667</ele><time>2026-04-25T11:40:48Z</time></trkpt><trkpt lat="43.518786690176235" lon="13.610092878170086"><ele>78.33333333333334</ele><time>2026-04-25T11:40:49Z</time></trkpt><trkpt lat="43.51891346292323" lon="13.610199230408782"><ele>80.0</ele><time>2026-04-25T11:40:50Z</time></trkpt><trkpt lat="43.51901706397143" lon="13.610351776074348"><ele>80.66666666666667</ele><time>2026-04-25T11:40:51Z</time></trkpt><trkpt lat="43.51910082708895" lon="13.610543296761998"><ele>81.33333333333333</ele><time>2026-04-25T11:40:52Z</time></trkpt><trkpt lat="43.519159915075974" lon="13.610759294297592"><ele>82.0</ele><time>2026-04-25T11:40:53Z</time></trkpt><trkpt lat="43.51921783078059" lon="13.610988919785257"><ele>83.33333333333333</ele><time>2026-04-25T11:40:54Z</time></trkpt><trkpt lat="43.51926716980648" lon="13.611235124552046"><ele>84.66666666666667</ele><time>2026-04-25T11:40:55Z</time></trkpt><trkpt lat="43.519290832918514" lon="13.61149988715945"><ele>86.0</ele><time>2026-04-25T11:40:56Z</time></trkpt><trkpt lat="43.51929702778573" lon="13.611773107054338"><ele>86.0</ele><time>2026-04-25T11:40:57Z</time></trkpt><trkpt lat="43.51931084998596" lon="13.612015090838852"><ele>86.0</ele><time>2026-04-25T11:40:58Z</time></trkpt><trkpt lat="43.51931470955555" lon="13.612239287727132"><ele>86.0</ele><time>2026-04-25T11:40:59Z</time></trkpt><trkpt lat="43.51928108812152" lon="13.612452724565523"><ele>86.0</ele><time>2026-04-25T11:41:00Z</time></trkpt><trkpt lat="43.519204067168495" lon="13.612670639246813"><ele>86.0</ele><time>2026-04-25T11:41:01Z</time></trkpt><trkpt lat="43.519123706135424" lon="13.612903891423407"><ele>86.0</ele><time>2026-04-25T11:41:02Z</time></trkpt><trkpt lat="43.51904955509818" lon="13.61315664152183"><ele>86.66666666666667</ele><time>2026-04-25T11:41:03Z</time></trkpt><trkpt lat="43.51898624860486" lon="13.613387834752155"><ele>87.33333333333333</ele><time>2026-04-25T11:41:04Z</time></trkpt><trkpt lat="43.518935792487824" lon="13.613598009444022"><ele>88.0</ele><time>2026-04-25T11:41:05Z</time></trkpt><trkpt lat="43.5189044675718" lon="13.613794123050903"><ele>88.0</ele><time>2026-04-25T11:41:06Z</time></trkpt><trkpt lat="43.51888975365243" lon="13.613972927351693"><ele>88.0</ele><time>2026-04-25T11:41:07Z</time></trkpt><trkpt lat="43.51888304924656" lon="13.614134719466065"><ele>88.0</ele><time>2026-04-25T11:41:08Z</time></trkpt><trkpt lat="43.51887323289031" lon="13.614273084200695"><ele>88.0</ele><time>2026-04-25T11:41:09Z</time></trkpt><trkpt lat="43.5188594612724" lon="13.614395785427256"><ele>88.0</ele><time>2026-04-25T11:41:10Z</time></trkpt><trkpt lat="43.51882350804319" lon="13.614517560950103"><ele>87.0</ele><time>2026-04-25T11:41:11Z</time></trkpt><trkpt lat="43.518749562399215" lon="13.614606690451074"><ele>86.0</ele><time>2026-04-25T11:41:12Z</time></trkpt><trkpt lat="43.51865819761866" lon="13.614704448297937"><ele>85.0</ele><time>2026-04-25T11:41:13Z</time></trkpt><trkpt lat="43.51862347298767" lon="13.614816813177764"><ele>84.0</ele><time>2026-04-25T11:41:14Z</time></trkpt><trkpt lat="43.518645656699945" lon="13.614948640470228"><ele>83.0</ele><time>2026-04-25T11:41:15Z</time></trkpt><trkpt lat="43.51869813062561" lon="13.615060417756633"><ele>83.0</ele><time>2026-04-25T11:41:16Z</time></trkpt><trkpt lat="43.51874693191074" lon="13.615136099031343"><ele>83.0</ele><time>2026-04-25T11:41:17Z</time></trkpt><trkpt lat="43.51878779526737" lon="13.615203531259256"><ele>83.0</ele><time>2026-04-25T11:41:18Z</time></trkpt><trkpt lat="43.51882765817454" lon="13.615306495622704"><ele>83.0</ele><time>2026-04-25T11:41:19Z</time></trkpt><trkpt lat="43.518890707190245" lon="13.61539294611175"><ele>83.0</ele><time>2026-04-25T11:41:20Z</time></trkpt><trkpt lat="43.51896901545029" lon="13.615470654617006"><ele>83.0</ele><time>2026-04-25T11:41:21Z</time></trkpt><trkpt lat="43.51905807381193" lon="13.6154886063484"><ele>81.2</ele><time>2026-04-25T11:41:22Z</time></trkpt><trkpt lat="43.519122956599396" lon="13.61555728969553"><ele>79.4</ele><time>2026-04-25T11:41:23Z</time></trkpt><trkpt lat="43.519210168227154" lon="13.615588096180634"><ele>77.60000000000001</ele><time>2026-04-25T11:41:24Z</time></trkpt><trkpt lat="43.51929949233558" lon="13.615620770879998"><ele>75.80000000000001</ele><time>2026-04-25T11:41:25Z</time></trkpt><trkpt lat="43.5193889236868" lon="13.615663015568703"><ele>74.0</ele><time>2026-04-25T11:41:26Z</time></trkpt><trkpt lat="43.519484021421825" lon="13.61570507613816"><ele>74.8</ele><time>2026-04-25T11:41:27Z</time></trkpt><trkpt lat="43.51958592571722" lon="13.615743787686833"><ele>75.60000000000001</ele><time>2026-04-25T11:41:28Z</time></trkpt><trkpt lat="43.519686517422095" lon="13.615785130686756"><ele>76.4</ele><time>2026-04-25T11:41:29Z</time></trkpt><trkpt lat="43.51978893535161" lon="13.615857606482203"><ele>77.2</ele><time>2026-04-25T11:41:30Z</time></trkpt><trkpt lat="43.51988624616901" lon="13.615937583339193"><ele>78.0</ele><time>2026-04-25T11:41:31Z</time></trkpt><trkpt lat="43.519973049869805" lon="13.616019572988405"><ele>78.0</ele><time>2026-04-25T11:41:32Z</time></trkpt><trkpt lat="43.52004550045468" lon="13.616104773598272"><ele>78.0</ele><time>2026-04-25T11:41:33Z</time></trkpt><trkpt lat="43.52009522543427" lon="13.616189012066975"><ele>78.0</ele><time>2026-04-25T11:41:34Z</time></trkpt><trkpt lat="43.5201468786204" lon="13.616250523486212"><ele>78.0</ele><time>2026-04-25T11:41:34.999Z</time></trkpt><trkpt lat="43.52013107315022" lon="13.616420134974135"><ele>78.0</ele><time>2026-04-25T11:41:35.999Z</time></trkpt><trkpt lat="43.52013311294465" lon="13.616553730892551"><ele>78.4</ele><time>2026-04-25T11:41:36.999Z</time></trkpt><trkpt lat="43.52013508904607" lon="13.616683544436027"><ele>78.8</ele><time>2026-04-25T11:41:37.999Z</time></trkpt><trkpt lat="43.520039674303476" lon="13.616793622878946"><ele>79.2</ele><time>2026-04-25T11:41:38.999Z</time></trkpt><trkpt lat="43.519988359643094" lon="13.61689729321296"><ele>79.6</ele><time>2026-04-25T11:41:39.999Z</time></trkpt><trkpt lat="43.5199161514357" lon="13.616996480724062"><ele>80.0</ele><time>2026-04-25T11:41:40.999Z</time></trkpt><trkpt lat="43.51982956149583" lon="13.61709025152197"><ele>80.0</ele><time>2026-04-25T11:41:41.999Z</time></trkpt><trkpt lat="43.5197328676787" lon="13.617187172224744"><ele>80.0</ele><time>2026-04-25T11:41:42.999Z</time></trkpt><trkpt lat="43.51962838181508" lon="13.617285041537453"><ele>80.0</ele><time>2026-04-25T11:41:43.999Z</time></trkpt><trkpt lat="43.51951619586615" lon="13.617390811297277"><ele>80.0</ele><time>2026-04-25T11:41:44.999Z</time></trkpt><trkpt lat="43.51939773030309" lon="13.617501544304751"><ele>80.0</ele><time>2026-04-25T11:41:45.999Z</time></trkpt><trkpt lat="43.51927265429459" lon="13.617612387822712"><ele>80.0</ele><time>2026-04-25T11:41:46.999Z</time></trkpt><trkpt lat="43.51914610580636" lon="13.61772587525923"><ele>80.0</ele><time>2026-04-25T11:41:47.999Z</time></trkpt><trkpt lat="43.519016323325495" lon="13.617836608701666"><ele>80.0</ele><time>2026-04-25T11:41:48.999Z</time></trkpt><trkpt lat="43.518898956192665" lon="13.617942412546963"><ele>80.0</ele><time>2026-04-25T11:41:49.999Z</time></trkpt><trkpt lat="43.5187869944891" lon="13.618041885028422"><ele>80.0</ele><time>2026-04-25T11:41:50.999Z</time></trkpt><trkpt lat="43.518678153675694" lon="13.61813637359475"><ele>80.0</ele><time>2026-04-25T11:41:51.999Z</time></trkpt><trkpt lat="43.518566761645" lon="13.6182336470582"><ele>78.5</ele><time>2026-04-25T11:41:52.999Z</time></trkpt><trkpt lat="43.51845151162851" lon="13.61833391483908"><ele>77.0</ele><time>2026-04-25T11:41:53.999Z</time></trkpt><trkpt lat="43.51834140175305" lon="13.618442957417564"><ele>75.5</ele><time>2026-04-25T11:41:54.999Z</time></trkpt><trkpt lat="43.51822356152097" lon="13.618541005691831"><ele>74.0</ele><time>2026-04-25T11:41:55.999Z</time></trkpt><trkpt lat="43.51810619365243" lon="13.618647146100383"><ele>74.0</ele><time>2026-04-25T11:41:56.999Z</time></trkpt><trkpt lat="43.51799941588262" lon="13.618746133676588"><ele>74.0</ele><time>2026-04-25T11:41:57.999Z</time></trkpt><trkpt lat="43.517894967494605" lon="13.618832494567384"><ele>74.0</ele><time>2026-04-25T11:41:58.999Z</time></trkpt><trkpt lat="43.51779447964882" lon="13.618894942076476"><ele>74.0</ele><time>2026-04-25T11:41:59.999Z</time></trkpt><trkpt lat="43.517704387690245" lon="13.618981060319847"><ele>74.0</ele><time>2026-04-25T11:42:01.001Z</time></trkpt><trkpt lat="43.51762292573284" lon="13.619088482443395"><ele>74.0</ele><time>2026-04-25T11:42:02.001Z</time></trkpt><trkpt lat="43.517521864849094" lon="13.619189009429665"><ele>74.0</ele><time>2026-04-25T11:42:03.001Z</time></trkpt><trkpt lat="43.51741274459793" lon="13.61927305328182"><ele>74.0</ele><time>2026-04-25T11:42:04.001Z</time></trkpt><trkpt lat="43.51731921396844" lon="13.619363144933853"><ele>74.0</ele><time>2026-04-25T11:42:05.001Z</time></trkpt><trkpt lat="43.51723626815012" lon="13.619434559090754"><ele>74.0</ele><time>2026-04-25T11:42:06.001Z</time></trkpt><trkpt lat="43.517162326736006" lon="13.619490820050645"><ele>74.0</ele><time>2026-04-25T11:42:07.001Z</time></trkpt><trkpt lat="43.51707469487431" lon="13.619549202426846"><ele>74.0</ele><time>2026-04-25T11:42:09.001Z</time></trkpt><trkpt lat="43.5170825423689" lon="13.619750090955593"><ele>74.0</ele><time>2026-04-25T11:42:13.001Z</time></trkpt><trkpt lat="43.51713996576393" lon="13.619792269351377"><ele>74.8</ele><time>2026-04-25T11:42:14.001Z</time></trkpt><trkpt lat="43.51721383230658" lon="13.619856709488584"><ele>75.60000000000001</ele><time>2026-04-25T11:42:15.001Z</time></trkpt><trkpt lat="43.51730801304409" lon="13.619931942724168"><ele>76.4</ele><time>2026-04-25T11:42:16.001Z</time></trkpt><trkpt lat="43.51741058624477" lon="13.620018087361819"><ele>77.2</ele><time>2026-04-25T11:42:17Z</time></trkpt><trkpt lat="43.517522306284384" lon="13.620117941767612"><ele>78.0</ele><time>2026-04-25T11:42:18Z</time></trkpt><trkpt lat="43.51764345448365" lon="13.620220688586603"><ele>78.0</ele><time>2026-04-25T11:42:19Z</time></trkpt><trkpt lat="43.51775821773991" lon="13.620316950925245"><ele>78.0</ele><time>2026-04-25T11:42:20Z</time></trkpt><trkpt lat="43.517858974398386" lon="13.620410651778899"><ele>78.0</ele><time>2026-04-25T11:42:21Z</time></trkpt><trkpt lat="43.517947062065325" lon="13.620487929568439"><ele>78.0</ele><time>2026-04-25T11:42:22Z</time></trkpt><trkpt lat="43.51803548427231" lon="13.620550012353549"><ele>80.2</ele><time>2026-04-25T11:42:23Z</time></trkpt><trkpt lat="43.51810380236087" lon="13.620610785843779"><ele>82.4</ele><time>2026-04-25T11:42:24Z</time></trkpt><trkpt lat="43.518174997713636" lon="13.620685321688214"><ele>84.60000000000001</ele><time>2026-04-25T11:42:25Z</time></trkpt><trkpt lat="43.51826914097212" lon="13.620756967093328"><ele>86.8</ele><time>2026-04-25T11:42:26Z</time></trkpt><trkpt lat="43.518373614714086" lon="13.620839536230523"><ele>89.0</ele><time>2026-04-25T11:42:27Z</time></trkpt><trkpt lat="43.518479355716025" lon="13.620935744214892"><ele>89.0</ele><time>2026-04-25T11:42:28Z</time></trkpt><trkpt lat="43.518595306478666" lon="13.621035362492552"><ele>89.0</ele><time>2026-04-25T11:42:29Z</time></trkpt><trkpt lat="43.51870893744789" lon="13.621136810298676"><ele>89.0</ele><time>2026-04-25T11:42:30Z</time></trkpt><trkpt lat="43.51881568990565" lon="13.621226233373829"><ele>89.0</ele><time>2026-04-25T11:42:31Z</time></trkpt><trkpt lat="43.5189095421498" lon="13.621302814320215"><ele>90.0</ele><time>2026-04-25T11:42:32Z</time></trkpt><trkpt lat="43.5189912429221" lon="13.621381103987822"><ele>91.0</ele><time>2026-04-25T11:42:33Z</time></trkpt><trkpt lat="43.51907762853996" lon="13.621438508715443"><ele>92.0</ele><time>2026-04-25T11:42:34Z</time></trkpt><trkpt lat="43.51916401288839" lon="13.621479614471346"><ele>93.0</ele><time>2026-04-25T11:42:35Z</time></trkpt><trkpt lat="43.51926907776462" lon="13.621405914894824"><ele>94.0</ele><time>2026-04-25T11:42:36Z</time></trkpt><trkpt lat="43.51937880906372" lon="13.621330826434587"><ele>94.0</ele><time>2026-04-25T11:42:37Z</time></trkpt><trkpt lat="43.519501456388724" lon="13.62127537059294"><ele>94.0</ele><time>2026-04-25T11:42:38Z</time></trkpt><trkpt lat="43.51962155045753" lon="13.62120549145546"><ele>94.0</ele><time>2026-04-25T11:42:39Z</time></trkpt><trkpt lat="43.519728920502466" lon="13.621145384400604"><ele>94.0</ele><time>2026-04-25T11:42:40Z</time></trkpt><trkpt lat="43.51982084960096" lon="13.621093921405928"><ele>96.0</ele><time>2026-04-25T11:42:41Z</time></trkpt><trkpt lat="43.51990586584174" lon="13.621046328267173"><ele>98.0</ele><time>2026-04-25T11:42:42Z</time></trkpt><trkpt lat="43.51997022360267" lon="13.620985644593725"><ele>100.0</ele><time>2026-04-25T11:42:43Z</time></trkpt><trkpt lat="43.520099666238934" lon="13.62091731323518"><ele>102.0</ele><time>2026-04-25T11:42:45Z</time></trkpt><trkpt lat="43.520177879608504" lon="13.620871697429159"><ele>104.0</ele><time>2026-04-25T11:42:46Z</time></trkpt><trkpt lat="43.52026578224294" lon="13.620846054294859"><ele>104.0</ele><time>2026-04-25T11:42:47Z</time></trkpt><trkpt lat="43.520351479398414" lon="13.620798740831022"><ele>104.0</ele><time>2026-04-25T11:42:48Z</time></trkpt><trkpt lat="43.52043067994606" lon="13.62073225995721"><ele>104.0</ele><time>2026-04-25T11:42:49Z</time></trkpt><trkpt lat="43.52051757734991" lon="13.620683865742235"><ele>104.0</ele><time>2026-04-25T11:42:50Z</time></trkpt><trkpt lat="43.52061090862175" lon="13.620655509567237"><ele>104.0</ele><time>2026-04-25T11:42:51Z</time></trkpt><trkpt lat="43.52069839341987" lon="13.620584689688178"><ele>105.2</ele><time>2026-04-25T11:42:52Z</time></trkpt><trkpt lat="43.52078730074113" lon="13.620560913046482"><ele>106.4</ele><time>2026-04-25T11:42:53Z</time></trkpt><trkpt lat="43.52086909182557" lon="13.620519882341833"><ele>107.6</ele><time>2026-04-25T11:42:54Z</time></trkpt><trkpt lat="43.520935561077025" lon="13.620486884824926"><ele>108.8</ele><time>2026-04-25T11:42:55Z</time></trkpt><trkpt lat="43.52105110602976" lon="13.620431122983177"><ele>110.0</ele><time>2026-04-25T11:42:57Z</time></trkpt><trkpt lat="43.521115659818584" lon="13.620495446136907"><ele>110.0</ele><time>2026-04-25T11:42:59Z</time></trkpt><trkpt lat="43.52121600047711" lon="13.620510219946508"><ele>110.0</ele><time>2026-04-25T11:43:01Z</time></trkpt><trkpt lat="43.52129714155274" lon="13.620522458025892"><ele>110.0</ele><time>2026-04-25T11:43:02Z</time></trkpt><trkpt lat="43.521371195317045" lon="13.620553295157988"><ele>110.0</ele><time>2026-04-25T11:43:03Z</time></trkpt><trkpt lat="43.5214813301738" lon="13.620625253066866"><ele>110.0</ele><time>2026-04-25T11:43:05Z</time></trkpt><trkpt lat="43.521559781975135" lon="13.620654789343487"><ele>110.8</ele><time>2026-04-25T11:43:06Z</time></trkpt><trkpt lat="43.52163945468412" lon="13.620770973520978"><ele>111.6</ele><time>2026-04-25T11:43:07Z</time></trkpt><trkpt lat="43.52171994377629" lon="13.620831411331759"><ele>112.4</ele><time>2026-04-25T11:43:08Z</time></trkpt><trkpt lat="43.52179487344362" lon="13.620918472731312"><ele>113.2</ele><time>2026-04-25T11:43:09Z</time></trkpt><trkpt lat="43.52187032301165" lon="13.620999297388526"><ele>114.0</ele><time>2026-04-25T11:43:10Z</time></trkpt><trkpt lat="43.521954669233054" lon="13.621083829928363"><ele>110.4</ele><time>2026-04-25T11:43:11Z</time></trkpt><trkpt lat="43.52203617865526" lon="13.621159463381144"><ele>106.80000000000001</ele><time>2026-04-25T11:43:12Z</time></trkpt><trkpt lat="43.52211365081411" lon="13.621234887763627"><ele>103.19999999999999</ele><time>2026-04-25T11:43:13Z</time></trkpt><trkpt lat="43.522193492014054" lon="13.621312731341384"><ele>99.6</ele><time>2026-04-25T11:43:14Z</time></trkpt><trkpt lat="43.52226590288767" lon="13.621376854873498"><ele>96.0</ele><time>2026-04-25T11:43:15Z</time></trkpt><trkpt lat="43.52233928902192" lon="13.621441583450714"><ele>95.66666666666667</ele><time>2026-04-25T11:43:16Z</time></trkpt><trkpt lat="43.52240482617966" lon="13.621497872014794"><ele>95.33333333333333</ele><time>2026-04-25T11:43:17Z</time></trkpt><trkpt lat="43.522451042433126" lon="13.62159195380394"><ele>95.0</ele><time>2026-04-25T11:43:19Z</time></trkpt><trkpt lat="43.52235787186711" lon="13.621625494427217"><ele>94.66666666666666</ele><time>2026-04-25T11:43:21Z</time></trkpt><trkpt lat="43.52230302522452" lon="13.621577321001775"><ele>94.33333333333333</ele><time>2026-04-25T11:43:22Z</time></trkpt><trkpt lat="43.522222469682575" lon="13.621549074523989"><ele>94.0</ele><time>2026-04-25T11:43:23Z</time></trkpt><trkpt lat="43.52214741586197" lon="13.621499914798589"><ele>94.0</ele><time>2026-04-25T11:43:24Z</time></trkpt><trkpt lat="43.522074451692234" lon="13.621467346353452"><ele>94.0</ele><time>2026-04-25T11:43:25Z</time></trkpt><trkpt lat="43.52199314502294" lon="13.621437780488773"><ele>94.0</ele><time>2026-04-25T11:43:26Z</time></trkpt><trkpt lat="43.521885533342626" lon="13.621405797682801"><ele>94.0</ele><time>2026-04-25T11:43:28Z</time></trkpt><trkpt lat="43.5217901557661" lon="13.621471222240217"><ele>94.0</ele><time>2026-04-25T11:43:30Z</time></trkpt><trkpt lat="43.52172951997007" lon="13.621532297560186"><ele>94.33333333333333</ele><time>2026-04-25T11:43:31Z</time></trkpt><trkpt lat="43.521649812532864" lon="13.621606759957368"><ele>94.66666666666666</ele><time>2026-04-25T11:43:32Z</time></trkpt><trkpt lat="43.521587121457806" lon="13.621691667302992"><ele>95.0</ele><time>2026-04-25T11:43:33Z</time></trkpt><trkpt lat="43.5215398786688" lon="13.621771515371721"><ele>95.33333333333333</ele><time>2026-04-25T11:43:34Z</time></trkpt><trkpt lat="43.5215279866121" lon="13.621894913305589"><ele>95.66666666666667</ele><time>2026-04-25T11:43:35Z</time></trkpt><trkpt lat="43.52152559690704" lon="13.622006054404066"><ele>96.0</ele><time>2026-04-25T11:43:36Z</time></trkpt><trkpt lat="43.521515985945605" lon="13.622095185416368"><ele>92.8</ele><time>2026-04-25T11:43:37Z</time></trkpt><trkpt lat="43.52154208460703" lon="13.622222057858812"><ele>89.6</ele><time>2026-04-25T11:43:39Z</time></trkpt><trkpt lat="43.521673638743266" lon="13.622242182060884"><ele>86.4</ele><time>2026-04-25T11:43:40.999Z</time></trkpt><trkpt lat="43.52175940585557" lon="13.622175605499088"><ele>83.2</ele><time>2026-04-25T11:43:41.999Z</time></trkpt><trkpt lat="43.521852024116704" lon="13.622166202328401"><ele>80.0</ele><time>2026-04-25T11:43:42.999Z</time></trkpt><trkpt lat="43.5219503823709" lon="13.622153345144287"><ele>80.0</ele><time>2026-04-25T11:43:43.999Z</time></trkpt><trkpt lat="43.52204374106177" lon="13.622157622310992"><ele>80.0</ele><time>2026-04-25T11:43:44.999Z</time></trkpt><trkpt lat="43.522131766134365" lon="13.622167206520746"><ele>80.0</ele><time>2026-04-25T11:43:45.999Z</time></trkpt><trkpt lat="43.522203023532704" lon="13.622182634512292"><ele>80.0</ele><time>2026-04-25T11:43:46.999Z</time></trkpt><trkpt lat="43.52228369151338" lon="13.622228963545766"><ele>80.0</ele><time>2026-04-25T11:43:48.999Z</time></trkpt><trkpt lat="43.52222896712255" lon="13.622322003219537"><ele>80.0</ele><time>2026-04-25T11:43:50.999Z</time></trkpt><trkpt lat="43.5221598857191" lon="13.622354426166716"><ele>80.0</ele><time>2026-04-25T11:43:51.999Z</time></trkpt><trkpt lat="43.52206954869507" lon="13.622350116455666"><ele>80.0</ele><time>2026-04-25T11:43:52.999Z</time></trkpt><trkpt lat="43.52198369151752" lon="13.622349318546851"><ele>80.0</ele><time>2026-04-25T11:43:53.999Z</time></trkpt><trkpt lat="43.521902120094715" lon="13.62245606617167"><ele>80.0</ele><time>2026-04-25T11:43:55.999Z</time></trkpt><trkpt lat="43.52187442107466" lon="13.622546218351518"><ele>80.0</ele><time>2026-04-25T11:43:56.999Z</time></trkpt><trkpt lat="43.52186591057156" lon="13.622652465848772"><ele>80.0</ele><time>2026-04-25T11:43:57.999Z</time></trkpt><trkpt lat="43.52184965389582" lon="13.622751361059557"><ele>75.5</ele><time>2026-04-25T11:43:58.999Z</time></trkpt><trkpt lat="43.52184102043372" lon="13.62284926043708"><ele>71.0</ele><time>2026-04-25T11:43:59.999Z</time></trkpt><trkpt lat="43.52182838780804" lon="13.622940156072021"><ele>66.5</ele><time>2026-04-25T11:44:00.999Z</time></trkpt><trkpt lat="43.52189658724434" lon="13.623086288759463"><ele>62.0</ele><time>2026-04-25T11:44:02.999Z</time></trkpt><trkpt lat="43.52195945714903" lon="13.623120188896786"><ele>57.50000000000001</ele><time>2026-04-25T11:44:03.999Z</time></trkpt><trkpt lat="43.52203181330142" lon="13.623111346838813"><ele>53.0</ele><time>2026-04-25T11:44:04.999Z</time></trkpt><trkpt lat="43.522094129959825" lon="13.623070730839324"><ele>54.599999999999994</ele><time>2026-04-25T11:44:05.999Z</time></trkpt><trkpt lat="43.52212005272686" lon="13.622956336008524"><ele>56.199999999999996</ele><time>2026-04-25T11:44:07Z</time></trkpt><trkpt lat="43.52214275134054" lon="13.622869055256322"><ele>57.8</ele><time>2026-04-25T11:44:08Z</time></trkpt><trkpt lat="43.52221268626248" lon="13.622751569013252"><ele>59.4</ele><time>2026-04-25T11:44:10Z</time></trkpt><trkpt lat="43.52233539809695" lon="13.622723741354582"><ele>61.0</ele><time>2026-04-25T11:44:12Z</time></trkpt><trkpt lat="43.522401819832666" lon="13.622720698143036"><ele>60.99999999999999</ele><time>2026-04-25T11:44:13Z</time></trkpt><trkpt lat="43.52247064186954" lon="13.622717351560249"><ele>61.0</ele><time>2026-04-25T11:44:14Z</time></trkpt><trkpt lat="43.52253930566452" lon="13.622716244572446"><ele>61.0</ele><time>2026-04-25T11:44:15Z</time></trkpt><trkpt lat="43.52262411792155" lon="13.62271175196633"><ele>61.0</ele><time>2026-04-25T11:44:16Z</time></trkpt><trkpt lat="43.52268452059755" lon="13.62267001528787"><ele>60.99999999999999</ele><time>2026-04-25T11:44:17Z</time></trkpt><trkpt lat="43.522721747939855" lon="13.622536068209318"><ele>61.0</ele><time>2026-04-25T11:44:18Z</time></trkpt><trkpt lat="43.5227503890041" lon="13.622446064290836"><ele>61.0</ele><time>2026-04-25T11:44:19Z</time></trkpt><trkpt lat="43.52276508676747" lon="13.622352023006815"><ele>60.99999999999999</ele><time>2026-04-25T11:44:20Z</time></trkpt><trkpt lat="43.522803294419305" lon="13.622277570070631"><ele>60.99999999999999</ele><time>2026-04-25T11:44:21Z</time></trkpt><trkpt lat="43.52289861167717" lon="13.622142165865371"><ele>61.0</ele><time>2026-04-25T11:44:23Z</time></trkpt><trkpt lat="43.5229647192854" lon="13.622215129988016"><ele>61.0</ele><time>2026-04-25T11:44:24Z</time></trkpt><trkpt lat="43.52306686912756" lon="13.6223137884701"><ele>56.666666666666664</ele><time>2026-04-25T11:44:26Z</time></trkpt><trkpt lat="43.52314754950643" lon="13.62237560610928"><ele>52.33333333333333</ele><time>2026-04-25T11:44:28Z</time></trkpt><trkpt lat="43.5231634838007" lon="13.622462403381125"><ele>48.0</ele><time>2026-04-25T11:44:33Z</time></trkpt><trkpt lat="43.52323827370165" lon="13.622386105207951"><ele>43.666666666666664</ele><time>2026-04-25T11:44:43Z</time></trkpt><trkpt lat="43.5233054488171" lon="13.622394096961052"><ele>39.33333333333333</ele><time>2026-04-25T11:44:49Z</time></trkpt><trkpt lat="43.5233618740658" lon="13.622349583341567"><ele>35.0</ele><time>2026-04-25T11:44:54Z</time></trkpt><trkpt lat="43.52333303036542" lon="13.622262914379913"><ele>35.0</ele><time>2026-04-25T11:45:00Z</time></trkpt><trkpt lat="43.52333249391635" lon="13.622352072738746"><ele>35.0</ele><time>2026-04-25T11:45:23Z</time></trkpt><trkpt lat="43.523261460635375" lon="13.622351723180335"><ele>35.0</ele><time>2026-04-25T11:58:35.999Z</time></trkpt><trkpt lat="43.52319592916436" lon="13.622410023021141"><ele>35.0</ele><time>2026-04-25T11:58:43.999Z</time></trkpt><trkpt lat="43.52314847014611" lon="13.622474753672972"><ele>35.0</ele><time>2026-04-25T11:58:52Z</time></trkpt><trkpt lat="43.52310128670512" lon="13.622543975015521"><ele>35.0</ele><time>2026-04-25T11:58:58Z</time></trkpt><trkpt lat="43.52307118578268" lon="13.622631649147435"><ele>35.0</ele><time>2026-04-25T11:59:05Z</time></trkpt><trkpt lat="43.523063542016786" lon="13.622722812274132"><ele>35.0</ele><time>2026-04-25T11:59:25Z</time></trkpt><trkpt lat="43.52309139131246" lon="13.622806078911795"><ele>35.0</ele><time>2026-04-25T11:59:34Z</time></trkpt><trkpt lat="43.523001865996946" lon="13.622757024581986"><ele>35.0</ele><time>2026-04-25T12:00:17.999Z</time></trkpt><trkpt lat="43.52293941338386" lon="13.622853840401342"><ele>35.0</ele><time>2026-04-25T12:00:40.999Z</time></trkpt><trkpt lat="43.52300593090076" lon="13.62281730259576"><ele>35.0</ele><time>2026-04-25T12:00:46.999Z</time></trkpt><trkpt lat="43.52310015210105" lon="13.622819883761778"><ele>35.0</ele><time>2026-04-25T12:01:06Z</time></trkpt><trkpt lat="43.52316270509489" lon="13.6228653869868"><ele>10.0</ele><time>2026-04-25T12:14:39.999Z</time></trkpt><trkpt lat="43.52315993084941" lon="13.622961071920429"><ele>10.0</ele><time>2026-04-25T12:15:00.999Z</time></trkpt><trkpt lat="43.52319865149945" lon="13.622888143360534"><ele>10.0</ele><time>2026-04-25T12:17:31.999Z</time></trkpt><trkpt lat="43.52314510879132" lon="13.622826337344879"><ele>10.0</ele><time>2026-04-25T12:18:12.999Z</time></trkpt><trkpt lat="43.52314510879132" lon="13.622826337344879"><ele>10.0</ele><time>2026-04-25T12:18:12.999Z</time></trkpt><trkpt lat="43.52314510879132" lon="13.622826337344879"><ele>10.0</ele><time>2026-04-25T12:18:12.999Z</time></trkpt><trkpt lat="43.52314510879132" lon="13.622826337344879"><ele>10.0</ele><time>2026-04-25T12:18:12.999Z</time></trkpt></trkseg></trk></gpx>